<?xml version='1.0' encoding='UTF-8'?><gpx version="1.1" creator="JPX - https://github.com/jenetics/jpx" xmlns="http://www.topografix.com/GPX/1/1"><trk><trkseg><trkpt lat="42.791301" lon="11.0870087"><ele>3.9999999999999996</ele><time>2026-04-26T07:25:48.102Z</time></trkpt><trkpt lat="42.791347" lon="11.0871027"><ele>4.0</ele><time>2026-04-26T07:25:50.118Z</time></trkpt><trkpt lat="42.7913693" lon="11.0871945"><ele>4.0</ele><time>2026-04-26T07:25:52.116Z</time></trkpt><trkpt lat="42.7914257" lon="11.0872829"><ele>4.0</ele><time>2026-04-26T07:25:54.119Z</time></trkpt><trkpt lat="42.7914702" lon="11.0873776"><ele>3.9999999999999996</ele><time>2026-04-26T07:25:56.12Z</time></trkpt><trkpt lat="42.7915009" lon="11.0874854"><ele>4.0</ele><time>2026-04-26T07:25:58.123Z</time></trkpt><trkpt lat="42.7915543" lon="11.0875986"><ele>4.166666666666666</ele><time>2026-04-26T07:26:00.125Z</time></trkpt><trkpt lat="42.7915943" lon="11.0876788"><ele>4.333333333333333</ele><time>2026-04-26T07:26:02.158Z</time></trkpt><trkpt lat="42.7916444" lon="11.0877738"><ele>4.5</ele><time>2026-04-26T07:26:04.132Z</time></trkpt><trkpt lat="42.7917002" lon="11.0878579"><ele>4.666666666666667</ele><time>2026-04-26T07:26:06.128Z</time></trkpt><trkpt lat="42.791748" lon="11.0879345"><ele>4.833333333333334</ele><time>2026-04-26T07:26:08.154Z</time></trkpt><trkpt lat="42.7917988" lon="11.0880416"><ele>5.0</ele><time>2026-04-26T07:26:10.125Z</time></trkpt><trkpt lat="42.791863" lon="11.0881775"><ele>5.166666666666667</ele><time>2026-04-26T07:26:12.13Z</time></trkpt><trkpt lat="42.7919073" lon="11.0882476"><ele>5.333333333333334</ele><time>2026-04-26T07:26:13.133Z</time></trkpt><trkpt lat="42.7919528" lon="11.0883273"><ele>5.5</ele><time>2026-04-26T07:26:14.124Z</time></trkpt><trkpt lat="42.7919919" lon="11.0883982"><ele>5.666666666666667</ele><time>2026-04-26T07:26:15.124Z</time></trkpt><trkpt lat="42.7920509" lon="11.0885312"><ele>5.833333333333333</ele><time>2026-04-26T07:26:17.124Z</time></trkpt><trkpt lat="42.7921047" lon="11.0886266"><ele>6.0</ele><time>2026-04-26T07:26:19.128Z</time></trkpt><trkpt lat="42.7921058" lon="11.0887396"><ele>6.166666666666667</ele><time>2026-04-26T07:26:22.127Z</time></trkpt><trkpt lat="42.7920377" lon="11.0888201"><ele>6.333333333333334</ele><time>2026-04-26T07:26:24.122Z</time></trkpt><trkpt lat="42.7919368" lon="11.0889297"><ele>6.5</ele><time>2026-04-26T07:26:26.124Z</time></trkpt><trkpt lat="42.7918813" lon="11.0889895"><ele>6.666666666666667</ele><time>2026-04-26T07:26:27.123Z</time></trkpt><trkpt lat="42.791828" lon="11.0890497"><ele>6.833333333333334</ele><time>2026-04-26T07:26:28.142Z</time></trkpt><trkpt lat="42.7917675" lon="11.0891122"><ele>7.0</ele><time>2026-04-26T07:26:29.124Z</time></trkpt><trkpt lat="42.7917027" lon="11.0891692"><ele>6.333333333333334</ele><time>2026-04-26T07:26:30.129Z</time></trkpt><trkpt lat="42.7916401" lon="11.0892312"><ele>5.666666666666667</ele><time>2026-04-26T07:26:31.125Z</time></trkpt><trkpt lat="42.7915702" lon="11.089295"><ele>5.0</ele><time>2026-04-26T07:26:32.123Z</time></trkpt><trkpt lat="42.7914981" lon="11.0893602"><ele>4.333333333333334</ele><time>2026-04-26T07:26:33.124Z</time></trkpt><trkpt lat="42.7914249" lon="11.0894201"><ele>3.666666666666667</ele><time>2026-04-26T07:26:34.12Z</time></trkpt><trkpt lat="42.7913535" lon="11.0894824"><ele>3.0</ele><time>2026-04-26T07:26:35.15Z</time></trkpt><trkpt lat="42.7912759" lon="11.0895505"><ele>3.0</ele><time>2026-04-26T07:26:36.131Z</time></trkpt><trkpt lat="42.7912008" lon="11.0896236"><ele>3.0</ele><time>2026-04-26T07:26:37.123Z</time></trkpt><trkpt lat="42.7911272" lon="11.0897"><ele>3.0</ele><time>2026-04-26T07:26:38.119Z</time></trkpt><trkpt lat="42.7910524" lon="11.0897773"><ele>3.0</ele><time>2026-04-26T07:26:39.13Z</time></trkpt><trkpt lat="42.7909792" lon="11.0898411"><ele>3.0</ele><time>2026-04-26T07:26:40.128Z</time></trkpt><trkpt lat="42.7909034" lon="11.0899091"><ele>3.5999999999999996</ele><time>2026-04-26T07:26:41.132Z</time></trkpt><trkpt lat="42.7908328" lon="11.0899761"><ele>4.199999999999999</ele><time>2026-04-26T07:26:42.124Z</time></trkpt><trkpt lat="42.7907607" lon="11.0900497"><ele>4.8</ele><time>2026-04-26T07:26:43.124Z</time></trkpt><trkpt lat="42.790686" lon="11.0901204"><ele>5.3999999999999995</ele><time>2026-04-26T07:26:44.129Z</time></trkpt><trkpt lat="42.7906092" lon="11.0901923"><ele>6.0</ele><time>2026-04-26T07:26:45.13Z</time></trkpt><trkpt lat="42.7905378" lon="11.0902673"><ele>6.0</ele><time>2026-04-26T07:26:46.138Z</time></trkpt><trkpt lat="42.7904611" lon="11.0903341"><ele>6.0</ele><time>2026-04-26T07:26:47.126Z</time></trkpt><trkpt lat="42.7903871" lon="11.0904066"><ele>6.0</ele><time>2026-04-26T07:26:48.125Z</time></trkpt><trkpt lat="42.7903124" lon="11.0904832"><ele>6.0</ele><time>2026-04-26T07:26:49.123Z</time></trkpt><trkpt lat="42.7902335" lon="11.0905646"><ele>6.0</ele><time>2026-04-26T07:26:50.131Z</time></trkpt><trkpt lat="42.7901558" lon="11.0906449"><ele>6.0</ele><time>2026-04-26T07:26:51.146Z</time></trkpt><trkpt lat="42.7900765" lon="11.0907246"><ele>6.0</ele><time>2026-04-26T07:26:52.128Z</time></trkpt><trkpt lat="42.789994" lon="11.0908079"><ele>6.0</ele><time>2026-04-26T07:26:53.126Z</time></trkpt><trkpt lat="42.7899086" lon="11.0908878"><ele>6.0</ele><time>2026-04-26T07:26:54.133Z</time></trkpt><trkpt lat="42.7898241" lon="11.0909676"><ele>6.0</ele><time>2026-04-26T07:26:55.128Z</time></trkpt><trkpt lat="42.7897438" lon="11.0910518"><ele>6.0</ele><time>2026-04-26T07:26:56.164Z</time></trkpt><trkpt lat="42.7896587" lon="11.0911365"><ele>6.0</ele><time>2026-04-26T07:26:57.13Z</time></trkpt><trkpt lat="42.7895817" lon="11.0912091"><ele>6.0</ele><time>2026-04-26T07:26:58.131Z</time></trkpt><trkpt lat="42.7895049" lon="11.0912894"><ele>6.0</ele><time>2026-04-26T07:26:59.128Z</time></trkpt><trkpt lat="42.7894218" lon="11.0913573"><ele>6.0</ele><time>2026-04-26T07:27:00.13Z</time></trkpt><trkpt lat="42.7893372" lon="11.0914261"><ele>6.0</ele><time>2026-04-26T07:27:01.154Z</time></trkpt><trkpt lat="42.7892576" lon="11.0915094"><ele>6.0</ele><time>2026-04-26T07:27:02.126Z</time></trkpt><trkpt lat="42.7891752" lon="11.0915936"><ele>6.0</ele><time>2026-04-26T07:27:03.123Z</time></trkpt><trkpt lat="42.789087" lon="11.0916729"><ele>6.0</ele><time>2026-04-26T07:27:04.128Z</time></trkpt><trkpt lat="42.7890084" lon="11.0917491"><ele>6.0</ele><time>2026-04-26T07:27:05.126Z</time></trkpt><trkpt lat="42.7889216" lon="11.0918268"><ele>6.4</ele><time>2026-04-26T07:27:06.144Z</time></trkpt><trkpt lat="42.7888403" lon="11.0919098"><ele>6.8</ele><time>2026-04-26T07:27:07.13Z</time></trkpt><trkpt lat="42.7887574" lon="11.0919923"><ele>7.200000000000001</ele><time>2026-04-26T07:27:08.128Z</time></trkpt><trkpt lat="42.7886731" lon="11.0920676"><ele>7.6000000000000005</ele><time>2026-04-26T07:27:09.122Z</time></trkpt><trkpt lat="42.7885937" lon="11.0921485"><ele>8.0</ele><time>2026-04-26T07:27:10.139Z</time></trkpt><trkpt lat="42.7885127" lon="11.0922281"><ele>8.0</ele><time>2026-04-26T07:27:11.127Z</time></trkpt><trkpt lat="42.7884299" lon="11.0923066"><ele>8.0</ele><time>2026-04-26T07:27:12.126Z</time></trkpt><trkpt lat="42.7883393" lon="11.0923907"><ele>8.0</ele><time>2026-04-26T07:27:13.139Z</time></trkpt><trkpt lat="42.7882484" lon="11.0924834"><ele>8.0</ele><time>2026-04-26T07:27:14.128Z</time></trkpt><trkpt lat="42.7881488" lon="11.0925857"><ele>8.0</ele><time>2026-04-26T07:27:15.122Z</time></trkpt><trkpt lat="42.7880523" lon="11.0926825"><ele>8.0</ele><time>2026-04-26T07:27:16.123Z</time></trkpt><trkpt lat="42.7879574" lon="11.0927772"><ele>8.0</ele><time>2026-04-26T07:27:17.124Z</time></trkpt><trkpt lat="42.7878563" lon="11.0928722"><ele>8.0</ele><time>2026-04-26T07:27:18.125Z</time></trkpt><trkpt lat="42.7877527" lon="11.0929654"><ele>8.0</ele><time>2026-04-26T07:27:19.147Z</time></trkpt><trkpt lat="42.7876521" lon="11.0930688"><ele>7.75</ele><time>2026-04-26T07:27:20.125Z</time></trkpt><trkpt lat="42.7875477" lon="11.0931703"><ele>7.5</ele><time>2026-04-26T07:27:21.138Z</time></trkpt><trkpt lat="42.7874426" lon="11.0932731"><ele>7.25</ele><time>2026-04-26T07:27:22.134Z</time></trkpt><trkpt lat="42.787337" lon="11.0933786"><ele>7.0</ele><time>2026-04-26T07:27:23.123Z</time></trkpt><trkpt lat="42.7872305" lon="11.0934808"><ele>7.0</ele><time>2026-04-26T07:27:24.139Z</time></trkpt><trkpt lat="42.7871265" lon="11.0935823"><ele>7.0</ele><time>2026-04-26T07:27:25.128Z</time></trkpt><trkpt lat="42.7870218" lon="11.0936858"><ele>7.0</ele><time>2026-04-26T07:27:26.124Z</time></trkpt><trkpt lat="42.7869114" lon="11.0937897"><ele>7.0</ele><time>2026-04-26T07:27:27.131Z</time></trkpt><trkpt lat="42.7868021" lon="11.0938944"><ele>7.0</ele><time>2026-04-26T07:27:28.126Z</time></trkpt><trkpt lat="42.786694" lon="11.0940053"><ele>7.0</ele><time>2026-04-26T07:27:29.12Z</time></trkpt><trkpt lat="42.7865828" lon="11.0941136"><ele>7.0</ele><time>2026-04-26T07:27:30.125Z</time></trkpt><trkpt lat="42.7864758" lon="11.0942219"><ele>7.0</ele><time>2026-04-26T07:27:31.133Z</time></trkpt><trkpt lat="42.7863708" lon="11.0943271"><ele>7.25</ele><time>2026-04-26T07:27:32.125Z</time></trkpt><trkpt lat="42.7862661" lon="11.0944306"><ele>7.5</ele><time>2026-04-26T07:27:33.132Z</time></trkpt><trkpt lat="42.7861591" lon="11.0945357"><ele>7.75</ele><time>2026-04-26T07:27:34.132Z</time></trkpt><trkpt lat="42.7860478" lon="11.0946465"><ele>8.0</ele><time>2026-04-26T07:27:35.148Z</time></trkpt><trkpt lat="42.7859431" lon="11.0947542"><ele>8.0</ele><time>2026-04-26T07:27:36.12Z</time></trkpt><trkpt lat="42.7858361" lon="11.0948637"><ele>8.0</ele><time>2026-04-26T07:27:37.124Z</time></trkpt><trkpt lat="42.7857264" lon="11.0949666"><ele>8.0</ele><time>2026-04-26T07:27:38.123Z</time></trkpt><trkpt lat="42.7856128" lon="11.0950715"><ele>8.0</ele><time>2026-04-26T07:27:39.129Z</time></trkpt><trkpt lat="42.785502" lon="11.0951736"><ele>8.0</ele><time>2026-04-26T07:27:40.142Z</time></trkpt><trkpt lat="42.785391" lon="11.0952764"><ele>8.0</ele><time>2026-04-26T07:27:41.132Z</time></trkpt><trkpt lat="42.7852745" lon="11.0953708"><ele>8.0</ele><time>2026-04-26T07:27:42.125Z</time></trkpt><trkpt lat="42.7851514" lon="11.0954586"><ele>8.0</ele><time>2026-04-26T07:27:43.125Z</time></trkpt><trkpt lat="42.785028" lon="11.09554"><ele>8.0</ele><time>2026-04-26T07:27:44.123Z</time></trkpt><trkpt lat="42.7849043" lon="11.0956203"><ele>8.0</ele><time>2026-04-26T07:27:45.125Z</time></trkpt><trkpt lat="42.784778" lon="11.0956968"><ele>8.0</ele><time>2026-04-26T07:27:46.132Z</time></trkpt><trkpt lat="42.7846532" lon="11.095777"><ele>8.0</ele><time>2026-04-26T07:27:47.129Z</time></trkpt><trkpt lat="42.7845311" lon="11.0958565"><ele>8.25</ele><time>2026-04-26T07:27:48.152Z</time></trkpt><trkpt lat="42.7844078" lon="11.0959398"><ele>8.5</ele><time>2026-04-26T07:27:49.127Z</time></trkpt><trkpt lat="42.7842845" lon="11.0960259"><ele>8.75</ele><time>2026-04-26T07:27:50.124Z</time></trkpt><trkpt lat="42.7841657" lon="11.0961049"><ele>9.0</ele><time>2026-04-26T07:27:51.135Z</time></trkpt><trkpt lat="42.7840427" lon="11.0961882"><ele>9.0</ele><time>2026-04-26T07:27:52.134Z</time></trkpt><trkpt lat="42.7839199" lon="11.0962733"><ele>9.0</ele><time>2026-04-26T07:27:53.135Z</time></trkpt><trkpt lat="42.7837933" lon="11.0963518"><ele>9.0</ele><time>2026-04-26T07:27:54.168Z</time></trkpt><trkpt lat="42.7836617" lon="11.0964388"><ele>9.0</ele><time>2026-04-26T07:27:55.13Z</time></trkpt><trkpt lat="42.783533" lon="11.0965247"><ele>9.5</ele><time>2026-04-26T07:27:56.12Z</time></trkpt><trkpt lat="42.7834108" lon="11.0966093"><ele>10.0</ele><time>2026-04-26T07:27:57.125Z</time></trkpt><trkpt lat="42.7832972" lon="11.0966875"><ele>10.5</ele><time>2026-04-26T07:27:58.129Z</time></trkpt><trkpt lat="42.7831814" lon="11.0967612"><ele>11.0</ele><time>2026-04-26T07:27:59.123Z</time></trkpt><trkpt lat="42.7830676" lon="11.0968274"><ele>11.0</ele><time>2026-04-26T07:28:00.139Z</time></trkpt><trkpt lat="42.7829465" lon="11.0968796"><ele>11.0</ele><time>2026-04-26T07:28:01.126Z</time></trkpt><trkpt lat="42.7828163" lon="11.0968962"><ele>11.0</ele><time>2026-04-26T07:28:02.124Z</time></trkpt><trkpt lat="42.7826829" lon="11.0969055"><ele>11.0</ele><time>2026-04-26T07:28:03.124Z</time></trkpt><trkpt lat="42.7825409" lon="11.0969081"><ele>10.25</ele><time>2026-04-26T07:28:04.126Z</time></trkpt><trkpt lat="42.7824032" lon="11.0969081"><ele>9.5</ele><time>2026-04-26T07:28:05.144Z</time></trkpt><trkpt lat="42.7822629" lon="11.0969068"><ele>8.75</ele><time>2026-04-26T07:28:06.122Z</time></trkpt><trkpt lat="42.7821195" lon="11.0969141"><ele>8.0</ele><time>2026-04-26T07:28:07.131Z</time></trkpt><trkpt lat="42.7819856" lon="11.0969198"><ele>8.0</ele><time>2026-04-26T07:28:08.126Z</time></trkpt><trkpt lat="42.7818453" lon="11.0969244"><ele>8.0</ele><time>2026-04-26T07:28:09.158Z</time></trkpt><trkpt lat="42.7817103" lon="11.0969305"><ele>8.0</ele><time>2026-04-26T07:28:10.123Z</time></trkpt><trkpt lat="42.7815784" lon="11.0969362"><ele>8.0</ele><time>2026-04-26T07:28:11.13Z</time></trkpt><trkpt lat="42.7814413" lon="11.0969431"><ele>8.0</ele><time>2026-04-26T07:28:12.126Z</time></trkpt><trkpt lat="42.7813065" lon="11.0969473"><ele>8.0</ele><time>2026-04-26T07:28:13.123Z</time></trkpt><trkpt lat="42.7811762" lon="11.0969598"><ele>8.0</ele><time>2026-04-26T07:28:14.124Z</time></trkpt><trkpt lat="42.7810543" lon="11.0969859"><ele>8.0</ele><time>2026-04-26T07:28:15.129Z</time></trkpt><trkpt lat="42.7809673" lon="11.0970477"><ele>7.999999999999999</ele><time>2026-04-26T07:28:16.132Z</time></trkpt><trkpt lat="42.7809016" lon="11.0971329"><ele>8.0</ele><time>2026-04-26T07:28:17.121Z</time></trkpt><trkpt lat="42.7808686" lon="11.0972302"><ele>8.0</ele><time>2026-04-26T07:28:18.157Z</time></trkpt><trkpt lat="42.7808826" lon="11.0973409"><ele>8.0</ele><time>2026-04-26T07:28:19.128Z</time></trkpt><trkpt lat="42.7809148" lon="11.0974441"><ele>7.999999999999999</ele><time>2026-04-26T07:28:20.128Z</time></trkpt><trkpt lat="42.7809729" lon="11.0975171"><ele>8.0</ele><time>2026-04-26T07:28:21.125Z</time></trkpt><trkpt lat="42.7810551" lon="11.0975637"><ele>8.0</ele><time>2026-04-26T07:28:22.131Z</time></trkpt><trkpt lat="42.7811543" lon="11.0975467"><ele>8.0</ele><time>2026-04-26T07:28:23.127Z</time></trkpt><trkpt lat="42.7812495" lon="11.0974966"><ele>8.0</ele><time>2026-04-26T07:28:24.13Z</time></trkpt><trkpt lat="42.7813499" lon="11.0974192"><ele>8.0</ele><time>2026-04-26T07:28:25.127Z</time></trkpt><trkpt lat="42.7814459" lon="11.0973258"><ele>8.0</ele><time>2026-04-26T07:28:26.119Z</time></trkpt><trkpt lat="42.7815506" lon="11.0972413"><ele>8.0</ele><time>2026-04-26T07:28:27.122Z</time></trkpt><trkpt lat="42.7816621" lon="11.0971458"><ele>8.0</ele><time>2026-04-26T07:28:28.13Z</time></trkpt><trkpt lat="42.781773" lon="11.0970719"><ele>8.0</ele><time>2026-04-26T07:28:29.123Z</time></trkpt><trkpt lat="42.7818991" lon="11.0970121"><ele>8.0</ele><time>2026-04-26T07:28:30.159Z</time></trkpt><trkpt lat="42.7820299" lon="11.0969826"><ele>8.0</ele><time>2026-04-26T07:28:31.118Z</time></trkpt><trkpt lat="42.7821548" lon="11.0969732"><ele>8.0</ele><time>2026-04-26T07:28:32.122Z</time></trkpt><trkpt lat="42.7822755" lon="11.0969822"><ele>8.0</ele><time>2026-04-26T07:28:33.115Z</time></trkpt><trkpt lat="42.7823753" lon="11.097008"><ele>8.0</ele><time>2026-04-26T07:28:34.128Z</time></trkpt><trkpt lat="42.7824603" lon="11.0970723"><ele>8.0</ele><time>2026-04-26T07:28:35.12Z</time></trkpt><trkpt lat="42.7825118" lon="11.0971465"><ele>7.999999999999999</ele><time>2026-04-26T07:28:36.128Z</time></trkpt><trkpt lat="42.7825623" lon="11.0972271"><ele>8.0</ele><time>2026-04-26T07:28:37.127Z</time></trkpt><trkpt lat="42.7826292" lon="11.0972738"><ele>8.0</ele><time>2026-04-26T07:28:38.127Z</time></trkpt><trkpt lat="42.7827153" lon="11.0972708"><ele>8.0</ele><time>2026-04-26T07:28:39.129Z</time></trkpt><trkpt lat="42.7828033" lon="11.0972339"><ele>7.999999999999999</ele><time>2026-04-26T07:28:40.127Z</time></trkpt><trkpt lat="42.7828797" lon="11.0971483"><ele>8.0</ele><time>2026-04-26T07:28:41.136Z</time></trkpt><trkpt lat="42.7829509" lon="11.097073"><ele>8.5</ele><time>2026-04-26T07:28:42.146Z</time></trkpt><trkpt lat="42.7830165" lon="11.0970302"><ele>9.0</ele><time>2026-04-26T07:28:43.126Z</time></trkpt><trkpt lat="42.7830854" lon="11.0970209"><ele>9.5</ele><time>2026-04-26T07:28:44.122Z</time></trkpt><trkpt lat="42.7831428" lon="11.0970635"><ele>10.0</ele><time>2026-04-26T07:28:45.133Z</time></trkpt><trkpt lat="42.7832026" lon="11.0971379"><ele>10.5</ele><time>2026-04-26T07:28:46.123Z</time></trkpt><trkpt lat="42.7832386" lon="11.0972491"><ele>11.0</ele><time>2026-04-26T07:28:47.133Z</time></trkpt><trkpt lat="42.7832735" lon="11.0973562"><ele>11.0</ele><time>2026-04-26T07:28:48.129Z</time></trkpt><trkpt lat="42.7833068" lon="11.0974387"><ele>11.0</ele><time>2026-04-26T07:28:49.129Z</time></trkpt><trkpt lat="42.7833922" lon="11.0974971"><ele>11.0</ele><time>2026-04-26T07:28:51.126Z</time></trkpt><trkpt lat="42.7834799" lon="11.0974165"><ele>11.0</ele><time>2026-04-26T07:28:53.142Z</time></trkpt><trkpt lat="42.7835003" lon="11.0973337"><ele>11.0</ele><time>2026-04-26T07:28:55.125Z</time></trkpt><trkpt lat="42.7835055" lon="11.0972407"><ele>11.0</ele><time>2026-04-26T07:28:58.115Z</time></trkpt><trkpt lat="42.7835416" lon="11.0971693"><ele>11.0</ele><time>2026-04-26T07:38:57.128Z</time></trkpt><trkpt lat="42.7834756" lon="11.0971552"><ele>11.0</ele><time>2026-04-26T07:39:04.132Z</time></trkpt><trkpt lat="42.7834199" lon="11.0972049"><ele>11.0</ele><time>2026-04-26T07:39:10.129Z</time></trkpt><trkpt lat="42.7834829" lon="11.0972172"><ele>11.0</ele><time>2026-04-26T08:00:33.111Z</time></trkpt><trkpt lat="42.7835567" lon="11.09722"><ele>11.0</ele><time>2026-04-26T08:00:39.159Z</time></trkpt><trkpt lat="42.7835654" lon="11.0971005"><ele>11.0</ele><time>2026-04-26T08:00:43.122Z</time></trkpt><trkpt lat="42.7836003" lon="11.0972371"><ele>10.833333333333332</ele><time>2026-04-26T08:00:50.122Z</time></trkpt><trkpt lat="42.7836146" lon="11.0973468"><ele>10.666666666666666</ele><time>2026-04-26T08:00:52.118Z</time></trkpt><trkpt lat="42.7836388" lon="11.0974287"><ele>10.5</ele><time>2026-04-26T08:00:54.127Z</time></trkpt><trkpt lat="42.7836758" lon="11.0975417"><ele>10.333333333333334</ele><time>2026-04-26T08:00:57.123Z</time></trkpt><trkpt lat="42.7837028" lon="11.0976483"><ele>10.166666666666668</ele><time>2026-04-26T08:01:00.123Z</time></trkpt><trkpt lat="42.7837245" lon="11.0977582"><ele>10.0</ele><time>2026-04-26T08:01:03.125Z</time></trkpt><trkpt lat="42.7837834" lon="11.0977936"><ele>10.0</ele><time>2026-04-26T08:01:06.127Z</time></trkpt><trkpt lat="42.7838461" lon="11.0977618"><ele>10.0</ele><time>2026-04-26T08:01:08.135Z</time></trkpt><trkpt lat="42.7839138" lon="11.0977396"><ele>10.0</ele><time>2026-04-26T08:01:10.121Z</time></trkpt><trkpt lat="42.783981" lon="11.0977081"><ele>10.0</ele><time>2026-04-26T08:01:12.121Z</time></trkpt><trkpt lat="42.7840513" lon="11.097683"><ele>10.0</ele><time>2026-04-26T08:01:14.135Z</time></trkpt><trkpt lat="42.7841161" lon="11.097653"><ele>10.0</ele><time>2026-04-26T08:01:16.124Z</time></trkpt><trkpt lat="42.7841985" lon="11.097606"><ele>10.0</ele><time>2026-04-26T08:01:19.126Z</time></trkpt><trkpt lat="42.7842531" lon="11.0975241"><ele>10.0</ele><time>2026-04-26T08:01:22.128Z</time></trkpt><trkpt lat="42.7842364" lon="11.0974098"><ele>10.0</ele><time>2026-04-26T08:01:25.128Z</time></trkpt><trkpt lat="42.7841988" lon="11.0972907"><ele>10.0</ele><time>2026-04-26T08:01:28.124Z</time></trkpt><trkpt lat="42.7841639" lon="11.0971698"><ele>10.0</ele><time>2026-04-26T08:01:31.126Z</time></trkpt><trkpt lat="42.784127" lon="11.0970542"><ele>10.0</ele><time>2026-04-26T08:01:34.123Z</time></trkpt><trkpt lat="42.7840979" lon="11.0969287"><ele>10.0</ele><time>2026-04-26T08:01:37.133Z</time></trkpt><trkpt lat="42.7840678" lon="11.0968482"><ele>10.0</ele><time>2026-04-26T08:01:39.132Z</time></trkpt><trkpt lat="42.7840224" lon="11.0967399"><ele>10.0</ele><time>2026-04-26T08:01:42.122Z</time></trkpt><trkpt lat="42.7839931" lon="11.0966239"><ele>10.0</ele><time>2026-04-26T08:01:45.127Z</time></trkpt><trkpt lat="42.7839666" lon="11.0965175"><ele>10.0</ele><time>2026-04-26T08:01:48.13Z</time></trkpt><trkpt lat="42.7839367" lon="11.0964182"><ele>10.0</ele><time>2026-04-26T08:01:51.127Z</time></trkpt><trkpt lat="42.7839854" lon="11.09632"><ele>10.0</ele><time>2026-04-26T08:01:54.124Z</time></trkpt><trkpt lat="42.7840409" lon="11.0962715"><ele>10.0</ele><time>2026-04-26T08:01:56.12Z</time></trkpt><trkpt lat="42.7841284" lon="11.0961901"><ele>10.0</ele><time>2026-04-26T08:01:58.123Z</time></trkpt><trkpt lat="42.7841895" lon="11.0961394"><ele>10.0</ele><time>2026-04-26T08:01:59.143Z</time></trkpt><trkpt lat="42.7842545" lon="11.096095"><ele>10.0</ele><time>2026-04-26T08:02:00.121Z</time></trkpt><trkpt lat="42.7843321" lon="11.0960447"><ele>10.0</ele><time>2026-04-26T08:02:01.127Z</time></trkpt><trkpt lat="42.7844111" lon="11.0959872"><ele>10.0</ele><time>2026-04-26T08:02:02.126Z</time></trkpt><trkpt lat="42.7844994" lon="11.0959304"><ele>10.0</ele><time>2026-04-26T08:02:03.124Z</time></trkpt><trkpt lat="42.784585" lon="11.0958686"><ele>10.0</ele><time>2026-04-26T08:02:04.118Z</time></trkpt><trkpt lat="42.784671" lon="11.0958038"><ele>10.0</ele><time>2026-04-26T08:02:05.121Z</time></trkpt><trkpt lat="42.7847614" lon="11.0957481"><ele>10.0</ele><time>2026-04-26T08:02:06.125Z</time></trkpt><trkpt lat="42.7848541" lon="11.0956929"><ele>9.8</ele><time>2026-04-26T08:02:07.124Z</time></trkpt><trkpt lat="42.7849487" lon="11.0956312"><ele>9.6</ele><time>2026-04-26T08:02:08.132Z</time></trkpt><trkpt lat="42.7850431" lon="11.0955706"><ele>9.4</ele><time>2026-04-26T08:02:09.127Z</time></trkpt><trkpt lat="42.7851386" lon="11.0955064"><ele>9.2</ele><time>2026-04-26T08:02:10.131Z</time></trkpt><trkpt lat="42.7852309" lon="11.0954435"><ele>9.0</ele><time>2026-04-26T08:02:11.164Z</time></trkpt><trkpt lat="42.7853259" lon="11.0953727"><ele>9.0</ele><time>2026-04-26T08:02:12.12Z</time></trkpt><trkpt lat="42.7854195" lon="11.095308"><ele>9.0</ele><time>2026-04-26T08:02:13.125Z</time></trkpt><trkpt lat="42.7855136" lon="11.0952329"><ele>9.0</ele><time>2026-04-26T08:02:14.128Z</time></trkpt><trkpt lat="42.7856052" lon="11.0951458"><ele>9.0</ele><time>2026-04-26T08:02:15.12Z</time></trkpt><trkpt lat="42.785695" lon="11.0950587"><ele>9.0</ele><time>2026-04-26T08:02:16.127Z</time></trkpt><trkpt lat="42.7857867" lon="11.0949711"><ele>8.8</ele><time>2026-04-26T08:02:17.118Z</time></trkpt><trkpt lat="42.7858782" lon="11.0948833"><ele>8.600000000000001</ele><time>2026-04-26T08:02:18.136Z</time></trkpt><trkpt lat="42.7859681" lon="11.0947915"><ele>8.4</ele><time>2026-04-26T08:02:19.126Z</time></trkpt><trkpt lat="42.7860561" lon="11.0946974"><ele>8.200000000000001</ele><time>2026-04-26T08:02:20.12Z</time></trkpt><trkpt lat="42.7861479" lon="11.0946078"><ele>8.0</ele><time>2026-04-26T08:02:21.125Z</time></trkpt><trkpt lat="42.7862374" lon="11.0945236"><ele>8.5</ele><time>2026-04-26T08:02:22.124Z</time></trkpt><trkpt lat="42.7863265" lon="11.0944364"><ele>9.0</ele><time>2026-04-26T08:02:23.125Z</time></trkpt><trkpt lat="42.7864212" lon="11.0943493"><ele>9.5</ele><time>2026-04-26T08:02:24.128Z</time></trkpt><trkpt lat="42.7865158" lon="11.0942555"><ele>10.0</ele><time>2026-04-26T08:02:25.124Z</time></trkpt><trkpt lat="42.7866118" lon="11.0941642"><ele>9.75</ele><time>2026-04-26T08:02:26.131Z</time></trkpt><trkpt lat="42.7867105" lon="11.0940627"><ele>9.5</ele><time>2026-04-26T08:02:27.12Z</time></trkpt><trkpt lat="42.7868106" lon="11.0939615"><ele>9.25</ele><time>2026-04-26T08:02:28.125Z</time></trkpt><trkpt lat="42.7869139" lon="11.0938621"><ele>9.0</ele><time>2026-04-26T08:02:29.126Z</time></trkpt><trkpt lat="42.7870252" lon="11.0937579"><ele>9.0</ele><time>2026-04-26T08:02:30.157Z</time></trkpt><trkpt lat="42.7871375" lon="11.093656"><ele>9.0</ele><time>2026-04-26T08:02:31.132Z</time></trkpt><trkpt lat="42.7872504" lon="11.0935471"><ele>9.0</ele><time>2026-04-26T08:02:32.128Z</time></trkpt><trkpt lat="42.7873671" lon="11.0934391"><ele>9.0</ele><time>2026-04-26T08:02:33.126Z</time></trkpt><trkpt lat="42.7874816" lon="11.093333"><ele>8.75</ele><time>2026-04-26T08:02:34.124Z</time></trkpt><trkpt lat="42.7875945" lon="11.0932218"><ele>8.5</ele><time>2026-04-26T08:02:35.127Z</time></trkpt><trkpt lat="42.7877083" lon="11.0931095"><ele>8.25</ele><time>2026-04-26T08:02:36.145Z</time></trkpt><trkpt lat="42.7878304" lon="11.0929884"><ele>8.0</ele><time>2026-04-26T08:02:37.125Z</time></trkpt><trkpt lat="42.7879488" lon="11.0928656"><ele>8.0</ele><time>2026-04-26T08:02:38.129Z</time></trkpt><trkpt lat="42.7880677" lon="11.0927474"><ele>8.0</ele><time>2026-04-26T08:02:39.129Z</time></trkpt><trkpt lat="42.7881892" lon="11.0926259"><ele>8.0</ele><time>2026-04-26T08:02:40.13Z</time></trkpt><trkpt lat="42.7883109" lon="11.092508"><ele>8.0</ele><time>2026-04-26T08:02:41.131Z</time></trkpt><trkpt lat="42.7884322" lon="11.0923933"><ele>8.0</ele><time>2026-04-26T08:02:42.124Z</time></trkpt><trkpt lat="42.7885527" lon="11.0922751"><ele>8.0</ele><time>2026-04-26T08:02:43.139Z</time></trkpt><trkpt lat="42.7886757" lon="11.092157"><ele>8.0</ele><time>2026-04-26T08:02:44.121Z</time></trkpt><trkpt lat="42.788797" lon="11.0920342"><ele>8.0</ele><time>2026-04-26T08:02:45.126Z</time></trkpt><trkpt lat="42.7889243" lon="11.0919062"><ele>8.0</ele><time>2026-04-26T08:02:46.121Z</time></trkpt><trkpt lat="42.7890588" lon="11.0917799"><ele>8.0</ele><time>2026-04-26T08:02:47.122Z</time></trkpt><trkpt lat="42.7891892" lon="11.0916578"><ele>8.0</ele><time>2026-04-26T08:02:48.124Z</time></trkpt><trkpt lat="42.7893149" lon="11.0915329"><ele>8.0</ele><time>2026-04-26T08:02:49.124Z</time></trkpt><trkpt lat="42.7894344" lon="11.0914151"><ele>8.0</ele><time>2026-04-26T08:02:50.147Z</time></trkpt><trkpt lat="42.7895545" lon="11.0912961"><ele>8.0</ele><time>2026-04-26T08:02:51.118Z</time></trkpt><trkpt lat="42.7896787" lon="11.0911794"><ele>8.0</ele><time>2026-04-26T08:02:52.128Z</time></trkpt><trkpt lat="42.789799" lon="11.0910631"><ele>8.0</ele><time>2026-04-26T08:02:53.121Z</time></trkpt><trkpt lat="42.7899183" lon="11.090947"><ele>8.0</ele><time>2026-04-26T08:02:54.125Z</time></trkpt><trkpt lat="42.7900425" lon="11.0908352"><ele>7.5</ele><time>2026-04-26T08:02:55.128Z</time></trkpt><trkpt lat="42.7901581" lon="11.09072"><ele>7.0</ele><time>2026-04-26T08:02:56.126Z</time></trkpt><trkpt lat="42.7902645" lon="11.090601"><ele>6.5</ele><time>2026-04-26T08:02:57.123Z</time></trkpt><trkpt lat="42.7903732" lon="11.0904912"><ele>6.0</ele><time>2026-04-26T08:02:58.148Z</time></trkpt><trkpt lat="42.7904717" lon="11.0903768"><ele>6.0</ele><time>2026-04-26T08:02:59.12Z</time></trkpt><trkpt lat="42.7905683" lon="11.0902772"><ele>6.0</ele><time>2026-04-26T08:03:00.128Z</time></trkpt><trkpt lat="42.7906687" lon="11.0901808"><ele>6.0</ele><time>2026-04-26T08:03:01.13Z</time></trkpt><trkpt lat="42.7907705" lon="11.0900823"><ele>6.0</ele><time>2026-04-26T08:03:02.128Z</time></trkpt><trkpt lat="42.7908701" lon="11.0899792"><ele>5.8</ele><time>2026-04-26T08:03:03.124Z</time></trkpt><trkpt lat="42.7909668" lon="11.0898841"><ele>5.6</ele><time>2026-04-26T08:03:04.123Z</time></trkpt><trkpt lat="42.7910563" lon="11.0898"><ele>5.4</ele><time>2026-04-26T08:03:05.121Z</time></trkpt><trkpt lat="42.791144" lon="11.0897215"><ele>5.2</ele><time>2026-04-26T08:03:06.131Z</time></trkpt><trkpt lat="42.7912255" lon="11.0896482"><ele>5.0</ele><time>2026-04-26T08:03:07.127Z</time></trkpt><trkpt lat="42.7913074" lon="11.0895748"><ele>4.6</ele><time>2026-04-26T08:03:08.129Z</time></trkpt><trkpt lat="42.7913925" lon="11.0895017"><ele>4.2</ele><time>2026-04-26T08:03:09.126Z</time></trkpt><trkpt lat="42.7914801" lon="11.0894358"><ele>3.8</ele><time>2026-04-26T08:03:10.124Z</time></trkpt><trkpt lat="42.7915724" lon="11.0893863"><ele>3.4</ele><time>2026-04-26T08:03:11.155Z</time></trkpt><trkpt lat="42.7916628" lon="11.0893724"><ele>3.0</ele><time>2026-04-26T08:03:12.122Z</time></trkpt><trkpt lat="42.7917559" lon="11.0893795"><ele>3.0</ele><time>2026-04-26T08:03:13.12Z</time></trkpt><trkpt lat="42.7918342" lon="11.0893938"><ele>3.0</ele><time>2026-04-26T08:03:14.134Z</time></trkpt><trkpt lat="42.7919068" lon="11.0893823"><ele>3.0</ele><time>2026-04-26T08:03:15.131Z</time></trkpt><trkpt lat="42.7919481" lon="11.089311"><ele>3.0</ele><time>2026-04-26T08:03:16.123Z</time></trkpt><trkpt lat="42.7919762" lon="11.0892122"><ele>3.0</ele><time>2026-04-26T08:03:17.13Z</time></trkpt><trkpt lat="42.7919955" lon="11.0891017"><ele>3.0</ele><time>2026-04-26T08:03:18.125Z</time></trkpt><trkpt lat="42.7920196" lon="11.0889929"><ele>3.666666666666667</ele><time>2026-04-26T08:03:19.119Z</time></trkpt><trkpt lat="42.7920653" lon="11.0888922"><ele>4.333333333333334</ele><time>2026-04-26T08:03:20.164Z</time></trkpt><trkpt lat="42.7921347" lon="11.0888133"><ele>5.0</ele><time>2026-04-26T08:03:21.12Z</time></trkpt><trkpt lat="42.7922091" lon="11.0887409"><ele>5.666666666666667</ele><time>2026-04-26T08:03:22.125Z</time></trkpt><trkpt lat="42.792283" lon="11.0886693"><ele>6.333333333333334</ele><time>2026-04-26T08:03:23.121Z</time></trkpt><trkpt lat="42.7923536" lon="11.0885959"><ele>7.0</ele><time>2026-04-26T08:03:24.123Z</time></trkpt><trkpt lat="42.7924243" lon="11.0885167"><ele>7.0</ele><time>2026-04-26T08:03:25.129Z</time></trkpt><trkpt lat="42.792499" lon="11.0884397"><ele>6.999999999999999</ele><time>2026-04-26T08:03:26.115Z</time></trkpt><trkpt lat="42.7925761" lon="11.0883623"><ele>6.999999999999999</ele><time>2026-04-26T08:03:27.162Z</time></trkpt><trkpt lat="42.7926561" lon="11.0882918"><ele>7.0</ele><time>2026-04-26T08:03:28.129Z</time></trkpt><trkpt lat="42.7927413" lon="11.0882104"><ele>7.0</ele><time>2026-04-26T08:03:29.122Z</time></trkpt><trkpt lat="42.7928276" lon="11.0881237"><ele>7.25</ele><time>2026-04-26T08:03:30.118Z</time></trkpt><trkpt lat="42.7929156" lon="11.0880442"><ele>7.5</ele><time>2026-04-26T08:03:31.118Z</time></trkpt><trkpt lat="42.7930086" lon="11.0879587"><ele>7.75</ele><time>2026-04-26T08:03:32.118Z</time></trkpt><trkpt lat="42.7931029" lon="11.0878657"><ele>8.0</ele><time>2026-04-26T08:03:33.125Z</time></trkpt><trkpt lat="42.793205" lon="11.0877647"><ele>8.0</ele><time>2026-04-26T08:03:34.134Z</time></trkpt><trkpt lat="42.7933091" lon="11.0876577"><ele>8.0</ele><time>2026-04-26T08:03:35.123Z</time></trkpt><trkpt lat="42.7934123" lon="11.0875585"><ele>8.0</ele><time>2026-04-26T08:03:36.118Z</time></trkpt><trkpt lat="42.79352" lon="11.0874529"><ele>8.0</ele><time>2026-04-26T08:03:37.116Z</time></trkpt><trkpt lat="42.79363" lon="11.0873454"><ele>7.5</ele><time>2026-04-26T08:03:38.127Z</time></trkpt><trkpt lat="42.7937359" lon="11.0872406"><ele>7.0</ele><time>2026-04-26T08:03:39.122Z</time></trkpt><trkpt lat="42.7938416" lon="11.0871353"><ele>6.5</ele><time>2026-04-26T08:03:40.12Z</time></trkpt><trkpt lat="42.7939485" lon="11.0870265"><ele>6.0</ele><time>2026-04-26T08:03:41.123Z</time></trkpt><trkpt lat="42.7940527" lon="11.0869151"><ele>6.0</ele><time>2026-04-26T08:03:42.119Z</time></trkpt><trkpt lat="42.7941567" lon="11.0868108"><ele>6.0</ele><time>2026-04-26T08:03:43.119Z</time></trkpt><trkpt lat="42.7942651" lon="11.0867089"><ele>6.0</ele><time>2026-04-26T08:03:44.124Z</time></trkpt><trkpt lat="42.7943766" lon="11.0866139"><ele>6.0</ele><time>2026-04-26T08:03:45.155Z</time></trkpt><trkpt lat="42.7944898" lon="11.0865131"><ele>5.75</ele><time>2026-04-26T08:03:46.118Z</time></trkpt><trkpt lat="42.7946017" lon="11.0864099"><ele>5.5</ele><time>2026-04-26T08:03:47.123Z</time></trkpt><trkpt lat="42.7947126" lon="11.086309"><ele>5.25</ele><time>2026-04-26T08:03:48.131Z</time></trkpt><trkpt lat="42.7948291" lon="11.0862118"><ele>5.0</ele><time>2026-04-26T08:03:49.121Z</time></trkpt><trkpt lat="42.7949486" lon="11.0861273"><ele>5.0</ele><time>2026-04-26T08:03:50.118Z</time></trkpt><trkpt lat="42.7950694" lon="11.0860408"><ele>5.0</ele><time>2026-04-26T08:03:51.128Z</time></trkpt><trkpt lat="42.7951894" lon="11.0859553"><ele>5.0</ele><time>2026-04-26T08:03:52.124Z</time></trkpt><trkpt lat="42.7953185" lon="11.0858711"><ele>5.0</ele><time>2026-04-26T08:03:53.125Z</time></trkpt><trkpt lat="42.7954528" lon="11.0857907"><ele>5.333333333333334</ele><time>2026-04-26T08:03:54.133Z</time></trkpt><trkpt lat="42.7955939" lon="11.0856985"><ele>5.666666666666667</ele><time>2026-04-26T08:03:55.134Z</time></trkpt><trkpt lat="42.7957347" lon="11.0856239"><ele>6.0</ele><time>2026-04-26T08:03:56.13Z</time></trkpt><trkpt lat="42.7958761" lon="11.0855565"><ele>6.0</ele><time>2026-04-26T08:03:57.131Z</time></trkpt><trkpt lat="42.7960214" lon="11.0854916"><ele>6.0</ele><time>2026-04-26T08:03:58.126Z</time></trkpt><trkpt lat="42.7961719" lon="11.0854264"><ele>6.0</ele><time>2026-04-26T08:03:59.132Z</time></trkpt><trkpt lat="42.7963264" lon="11.0853611"><ele>6.0</ele><time>2026-04-26T08:04:00.14Z</time></trkpt><trkpt lat="42.7964924" lon="11.0853017"><ele>6.0</ele><time>2026-04-26T08:04:01.127Z</time></trkpt><trkpt lat="42.7966562" lon="11.0852418"><ele>6.0</ele><time>2026-04-26T08:04:02.136Z</time></trkpt><trkpt lat="42.7968194" lon="11.0851837"><ele>6.0</ele><time>2026-04-26T08:04:03.122Z</time></trkpt><trkpt lat="42.7969855" lon="11.08513"><ele>6.0</ele><time>2026-04-26T08:04:04.127Z</time></trkpt><trkpt lat="42.7971556" lon="11.085081"><ele>6.0</ele><time>2026-04-26T08:04:05.126Z</time></trkpt><trkpt lat="42.7973221" lon="11.0850307"><ele>6.0</ele><time>2026-04-26T08:04:06.123Z</time></trkpt><trkpt lat="42.7974871" lon="11.0849764"><ele>6.0</ele><time>2026-04-26T08:04:07.129Z</time></trkpt><trkpt lat="42.7976521" lon="11.0849299"><ele>6.0</ele><time>2026-04-26T08:04:08.12Z</time></trkpt><trkpt lat="42.7978178" lon="11.0848852"><ele>6.0</ele><time>2026-04-26T08:04:09.127Z</time></trkpt><trkpt lat="42.7979832" lon="11.0848293"><ele>6.0</ele><time>2026-04-26T08:04:10.121Z</time></trkpt><trkpt lat="42.7981486" lon="11.084778"><ele>6.0</ele><time>2026-04-26T08:04:11.124Z</time></trkpt><trkpt lat="42.7983125" lon="11.0847284"><ele>6.0</ele><time>2026-04-26T08:04:12.12Z</time></trkpt><trkpt lat="42.7984735" lon="11.0846718"><ele>6.0</ele><time>2026-04-26T08:04:13.12Z</time></trkpt><trkpt lat="42.7986359" lon="11.084619"><ele>6.0</ele><time>2026-04-26T08:04:14.121Z</time></trkpt><trkpt lat="42.7987943" lon="11.0845722"><ele>5.666666666666667</ele><time>2026-04-26T08:04:15.127Z</time></trkpt><trkpt lat="42.7989561" lon="11.0845203"><ele>5.333333333333334</ele><time>2026-04-26T08:04:16.132Z</time></trkpt><trkpt lat="42.7991178" lon="11.0844694"><ele>5.0</ele><time>2026-04-26T08:04:17.122Z</time></trkpt><trkpt lat="42.7992774" lon="11.0844195"><ele>5.333333333333334</ele><time>2026-04-26T08:04:18.153Z</time></trkpt><trkpt lat="42.7994357" lon="11.0843703"><ele>5.666666666666667</ele><time>2026-04-26T08:04:19.129Z</time></trkpt><trkpt lat="42.7995922" lon="11.0843265"><ele>6.0</ele><time>2026-04-26T08:04:20.128Z</time></trkpt><trkpt lat="42.7997464" lon="11.0842734"><ele>6.0</ele><time>2026-04-26T08:04:21.126Z</time></trkpt><trkpt lat="42.7998997" lon="11.084226"><ele>6.0</ele><time>2026-04-26T08:04:22.129Z</time></trkpt><trkpt lat="42.8000456" lon="11.084179"><ele>6.0</ele><time>2026-04-26T08:04:23.123Z</time></trkpt><trkpt lat="42.800183" lon="11.0841359"><ele>6.0</ele><time>2026-04-26T08:04:24.123Z</time></trkpt><trkpt lat="42.8003125" lon="11.084096"><ele>5.8</ele><time>2026-04-26T08:04:25.165Z</time></trkpt><trkpt lat="42.8004315" lon="11.0840553"><ele>5.6</ele><time>2026-04-26T08:04:26.129Z</time></trkpt><trkpt lat="42.8005429" lon="11.0840186"><ele>5.4</ele><time>2026-04-26T08:04:27.129Z</time></trkpt><trkpt lat="42.8006437" lon="11.0839889"><ele>5.2</ele><time>2026-04-26T08:04:28.123Z</time></trkpt><trkpt lat="42.8007393" lon="11.0839703"><ele>5.0</ele><time>2026-04-26T08:04:29.128Z</time></trkpt><trkpt lat="42.8008294" lon="11.0839791"><ele>5.0</ele><time>2026-04-26T08:04:30.127Z</time></trkpt><trkpt lat="42.8009004" lon="11.0839985"><ele>5.0</ele><time>2026-04-26T08:04:31.13Z</time></trkpt><trkpt lat="42.8009637" lon="11.0839976"><ele>5.0</ele><time>2026-04-26T08:04:32.159Z</time></trkpt><trkpt lat="42.8010624" lon="11.0839725"><ele>5.0</ele><time>2026-04-26T08:04:34.118Z</time></trkpt><trkpt lat="42.801132" lon="11.0839228"><ele>5.0</ele><time>2026-04-26T08:05:57.125Z</time></trkpt><trkpt lat="42.8011939" lon="11.0838845"><ele>5.0</ele><time>2026-04-26T08:06:00.123Z</time></trkpt><trkpt lat="42.8012583" lon="11.0838207"><ele>5.6</ele><time>2026-04-26T08:06:03.12Z</time></trkpt><trkpt lat="42.8013718" lon="11.0837698"><ele>6.2</ele><time>2026-04-26T08:06:05.128Z</time></trkpt><trkpt lat="42.8014452" lon="11.0837449"><ele>6.800000000000001</ele><time>2026-04-26T08:06:06.127Z</time></trkpt><trkpt lat="42.801531" lon="11.0837153"><ele>7.4</ele><time>2026-04-26T08:06:07.176Z</time></trkpt><trkpt lat="42.8016267" lon="11.0836876"><ele>8.0</ele><time>2026-04-26T08:06:08.131Z</time></trkpt><trkpt lat="42.801732" lon="11.083656"><ele>7.75</ele><time>2026-04-26T08:06:09.128Z</time></trkpt><trkpt lat="42.8018397" lon="11.0836243"><ele>7.5</ele><time>2026-04-26T08:06:10.124Z</time></trkpt><trkpt lat="42.8019523" lon="11.0835871"><ele>7.25</ele><time>2026-04-26T08:06:11.126Z</time></trkpt><trkpt lat="42.8020765" lon="11.0835506"><ele>7.0</ele><time>2026-04-26T08:06:12.125Z</time></trkpt><trkpt lat="42.8022033" lon="11.0835154"><ele>7.0</ele><time>2026-04-26T08:06:13.124Z</time></trkpt><trkpt lat="42.8023287" lon="11.0834802"><ele>7.0</ele><time>2026-04-26T08:06:14.143Z</time></trkpt><trkpt lat="42.8024624" lon="11.0834433"><ele>7.0</ele><time>2026-04-26T08:06:15.119Z</time></trkpt><trkpt lat="42.8025975" lon="11.0834076"><ele>7.0</ele><time>2026-04-26T08:06:16.125Z</time></trkpt><trkpt lat="42.8027384" lon="11.0833615"><ele>6.75</ele><time>2026-04-26T08:06:17.125Z</time></trkpt><trkpt lat="42.8028821" lon="11.0833175"><ele>6.5</ele><time>2026-04-26T08:06:18.125Z</time></trkpt><trkpt lat="42.8030252" lon="11.0832723"><ele>6.25</ele><time>2026-04-26T08:06:19.123Z</time></trkpt><trkpt lat="42.8031708" lon="11.0832214"><ele>6.0</ele><time>2026-04-26T08:06:20.124Z</time></trkpt><trkpt lat="42.8033132" lon="11.0831736"><ele>6.0</ele><time>2026-04-26T08:06:21.127Z</time></trkpt><trkpt lat="42.8034542" lon="11.0831308"><ele>6.0</ele><time>2026-04-26T08:06:22.127Z</time></trkpt><trkpt lat="42.8036002" lon="11.0830834"><ele>6.0</ele><time>2026-04-26T08:06:23.129Z</time></trkpt><trkpt lat="42.8037427" lon="11.0830416"><ele>6.0</ele><time>2026-04-26T08:06:24.13Z</time></trkpt><trkpt lat="42.8038798" lon="11.0829998"><ele>5.75</ele><time>2026-04-26T08:06:25.13Z</time></trkpt><trkpt lat="42.8040177" lon="11.0829521"><ele>5.5</ele><time>2026-04-26T08:06:26.121Z</time></trkpt><trkpt lat="42.8041507" lon="11.082909"><ele>5.25</ele><time>2026-04-26T08:06:27.158Z</time></trkpt><trkpt lat="42.8043001" lon="11.082873"><ele>5.0</ele><time>2026-04-26T08:06:28.13Z</time></trkpt><trkpt lat="42.8044556" lon="11.0828223"><ele>4.666666666666667</ele><time>2026-04-26T08:06:29.118Z</time></trkpt><trkpt lat="42.8046115" lon="11.0827741"><ele>4.333333333333333</ele><time>2026-04-26T08:06:30.119Z</time></trkpt><trkpt lat="42.804776" lon="11.0827221"><ele>4.0</ele><time>2026-04-26T08:06:31.117Z</time></trkpt><trkpt lat="42.8049402" lon="11.0826677"><ele>4.0</ele><time>2026-04-26T08:06:32.123Z</time></trkpt><trkpt lat="42.8051096" lon="11.0826133"><ele>4.0</ele><time>2026-04-26T08:06:33.121Z</time></trkpt><trkpt lat="42.8052717" lon="11.0825566"><ele>4.0</ele><time>2026-04-26T08:06:34.15Z</time></trkpt><trkpt lat="42.8054359" lon="11.0825074"><ele>4.0</ele><time>2026-04-26T08:06:35.119Z</time></trkpt><trkpt lat="42.8055942" lon="11.0824631"><ele>4.0</ele><time>2026-04-26T08:06:36.122Z</time></trkpt><trkpt lat="42.8057566" lon="11.0824209"><ele>4.0</ele><time>2026-04-26T08:06:37.115Z</time></trkpt><trkpt lat="42.8059221" lon="11.0823873"><ele>4.0</ele><time>2026-04-26T08:06:38.126Z</time></trkpt><trkpt lat="42.8060891" lon="11.082373"><ele>4.0</ele><time>2026-04-26T08:06:39.128Z</time></trkpt><trkpt lat="42.8062526" lon="11.0823774"><ele>4.0</ele><time>2026-04-26T08:06:40.12Z</time></trkpt><trkpt lat="42.8064196" lon="11.082413"><ele>4.0</ele><time>2026-04-26T08:06:41.124Z</time></trkpt><trkpt lat="42.8065775" lon="11.0824735"><ele>4.0</ele><time>2026-04-26T08:06:42.119Z</time></trkpt><trkpt lat="42.8067312" lon="11.0825489"><ele>4.0</ele><time>2026-04-26T08:06:43.126Z</time></trkpt><trkpt lat="42.8068833" lon="11.0826354"><ele>4.0</ele><time>2026-04-26T08:06:44.118Z</time></trkpt><trkpt lat="42.807033" lon="11.0827305"><ele>4.0</ele><time>2026-04-26T08:06:45.162Z</time></trkpt><trkpt lat="42.8071847" lon="11.0828244"><ele>4.0</ele><time>2026-04-26T08:06:46.117Z</time></trkpt><trkpt lat="42.8073351" lon="11.0829148"><ele>4.0</ele><time>2026-04-26T08:06:47.117Z</time></trkpt><trkpt lat="42.8074852" lon="11.0830081"><ele>4.0</ele><time>2026-04-26T08:06:48.122Z</time></trkpt><trkpt lat="42.807631" lon="11.0831096"><ele>4.0</ele><time>2026-04-26T08:06:49.119Z</time></trkpt><trkpt lat="42.8077755" lon="11.0832017"><ele>3.5</ele><time>2026-04-26T08:06:50.131Z</time></trkpt><trkpt lat="42.807915" lon="11.0832955"><ele>3.0</ele><time>2026-04-26T08:06:51.126Z</time></trkpt><trkpt lat="42.8080436" lon="11.0833823"><ele>2.5</ele><time>2026-04-26T08:06:52.125Z</time></trkpt><trkpt lat="42.8081687" lon="11.0834575"><ele>2.0</ele><time>2026-04-26T08:06:53.126Z</time></trkpt><trkpt lat="42.8082866" lon="11.0835222"><ele>2.0</ele><time>2026-04-26T08:06:54.121Z</time></trkpt><trkpt lat="42.8083833" lon="11.083598"><ele>2.0</ele><time>2026-04-26T08:06:55.124Z</time></trkpt><trkpt lat="42.8084427" lon="11.0836998"><ele>2.0</ele><time>2026-04-26T08:06:56.118Z</time></trkpt><trkpt lat="42.8084721" lon="11.0838138"><ele>2.0</ele><time>2026-04-26T08:06:57.126Z</time></trkpt><trkpt lat="42.8084723" lon="11.0839351"><ele>2.0</ele><time>2026-04-26T08:06:58.123Z</time></trkpt><trkpt lat="42.8084659" lon="11.0840644"><ele>2.25</ele><time>2026-04-26T08:06:59.13Z</time></trkpt><trkpt lat="42.8084583" lon="11.0842142"><ele>2.5</ele><time>2026-04-26T08:07:00.125Z</time></trkpt><trkpt lat="42.8084577" lon="11.0843767"><ele>2.75</ele><time>2026-04-26T08:07:01.167Z</time></trkpt><trkpt lat="42.8084591" lon="11.0845478"><ele>3.0</ele><time>2026-04-26T08:07:02.158Z</time></trkpt><trkpt lat="42.8084599" lon="11.084725"><ele>3.0</ele><time>2026-04-26T08:07:03.123Z</time></trkpt><trkpt lat="42.8084568" lon="11.0849011"><ele>3.0</ele><time>2026-04-26T08:07:04.117Z</time></trkpt><trkpt lat="42.8084505" lon="11.0850834"><ele>3.0</ele><time>2026-04-26T08:07:05.119Z</time></trkpt><trkpt lat="42.8084434" lon="11.085277"><ele>3.0</ele><time>2026-04-26T08:07:06.121Z</time></trkpt><trkpt lat="42.8084389" lon="11.0854722"><ele>3.0</ele><time>2026-04-26T08:07:07.127Z</time></trkpt><trkpt lat="42.8084346" lon="11.0856642"><ele>3.0</ele><time>2026-04-26T08:07:08.169Z</time></trkpt><trkpt lat="42.8084275" lon="11.0858652"><ele>3.0</ele><time>2026-04-26T08:07:09.124Z</time></trkpt><trkpt lat="42.8084277" lon="11.0860703"><ele>3.0</ele><time>2026-04-26T08:07:10.121Z</time></trkpt><trkpt lat="42.8084281" lon="11.0862701"><ele>3.0</ele><time>2026-04-26T08:07:11.128Z</time></trkpt><trkpt lat="42.8084228" lon="11.0864701"><ele>3.0</ele><time>2026-04-26T08:07:12.123Z</time></trkpt><trkpt lat="42.8084157" lon="11.0866695"><ele>3.0</ele><time>2026-04-26T08:07:13.119Z</time></trkpt><trkpt lat="42.8084121" lon="11.0868753"><ele>3.0</ele><time>2026-04-26T08:07:14.122Z</time></trkpt><trkpt lat="42.8084089" lon="11.0870784"><ele>3.5</ele><time>2026-04-26T08:07:15.128Z</time></trkpt><trkpt lat="42.8084039" lon="11.0872784"><ele>4.0</ele><time>2026-04-26T08:07:16.124Z</time></trkpt><trkpt lat="42.8083898" lon="11.08747"><ele>4.5</ele><time>2026-04-26T08:07:17.115Z</time></trkpt><trkpt lat="42.8083536" lon="11.0876524"><ele>5.0</ele><time>2026-04-26T08:07:18.121Z</time></trkpt><trkpt lat="42.8082973" lon="11.0878196"><ele>5.0</ele><time>2026-04-26T08:07:19.126Z</time></trkpt><trkpt lat="42.8082381" lon="11.0879927"><ele>5.0</ele><time>2026-04-26T08:07:20.121Z</time></trkpt><trkpt lat="42.808184" lon="11.0881731"><ele>5.0</ele><time>2026-04-26T08:07:21.118Z</time></trkpt><trkpt lat="42.8081293" lon="11.0883635"><ele>5.0</ele><time>2026-04-26T08:07:22.18Z</time></trkpt><trkpt lat="42.8080806" lon="11.0885548"><ele>5.0</ele><time>2026-04-26T08:07:23.127Z</time></trkpt><trkpt lat="42.8080507" lon="11.0887573"><ele>5.0</ele><time>2026-04-26T08:07:24.126Z</time></trkpt><trkpt lat="42.8080489" lon="11.0889556"><ele>5.0</ele><time>2026-04-26T08:07:25.131Z</time></trkpt><trkpt lat="42.8080551" lon="11.089163"><ele>5.0</ele><time>2026-04-26T08:07:26.124Z</time></trkpt><trkpt lat="42.8080793" lon="11.0893571"><ele>5.0</ele><time>2026-04-26T08:07:27.13Z</time></trkpt><trkpt lat="42.8081099" lon="11.0895509"><ele>5.0</ele><time>2026-04-26T08:07:28.126Z</time></trkpt><trkpt lat="42.8081472" lon="11.0897517"><ele>5.0</ele><time>2026-04-26T08:07:29.161Z</time></trkpt><trkpt lat="42.8081908" lon="11.0899543"><ele>5.0</ele><time>2026-04-26T08:07:30.122Z</time></trkpt><trkpt lat="42.808234" lon="11.0901646"><ele>5.0</ele><time>2026-04-26T08:07:31.13Z</time></trkpt><trkpt lat="42.8082771" lon="11.090375"><ele>5.0</ele><time>2026-04-26T08:07:32.125Z</time></trkpt><trkpt lat="42.8083182" lon="11.0905914"><ele>5.333333333333334</ele><time>2026-04-26T08:07:33.123Z</time></trkpt><trkpt lat="42.8083572" lon="11.0908078"><ele>5.666666666666667</ele><time>2026-04-26T08:07:34.127Z</time></trkpt><trkpt lat="42.808397" lon="11.0910214"><ele>6.0</ele><time>2026-04-26T08:07:35.116Z</time></trkpt><trkpt lat="42.8084493" lon="11.091238"><ele>6.0</ele><time>2026-04-26T08:07:36.128Z</time></trkpt><trkpt lat="42.8084923" lon="11.0914566"><ele>6.0</ele><time>2026-04-26T08:07:37.12Z</time></trkpt><trkpt lat="42.808537" lon="11.0916817"><ele>6.0</ele><time>2026-04-26T08:07:38.126Z</time></trkpt><trkpt lat="42.8085808" lon="11.091916"><ele>6.666666666666666</ele><time>2026-04-26T08:07:39.125Z</time></trkpt><trkpt lat="42.8086271" lon="11.0921481"><ele>7.333333333333333</ele><time>2026-04-26T08:07:40.12Z</time></trkpt><trkpt lat="42.8086704" lon="11.0923842"><ele>8.0</ele><time>2026-04-26T08:07:41.172Z</time></trkpt><trkpt lat="42.8087158" lon="11.0926185"><ele>8.0</ele><time>2026-04-26T08:07:42.122Z</time></trkpt><trkpt lat="42.8087638" lon="11.0928546"><ele>8.0</ele><time>2026-04-26T08:07:43.124Z</time></trkpt><trkpt lat="42.8088121" lon="11.0930938"><ele>8.0</ele><time>2026-04-26T08:07:44.122Z</time></trkpt><trkpt lat="42.808861" lon="11.0933284"><ele>8.333333333333332</ele><time>2026-04-26T08:07:45.13Z</time></trkpt><trkpt lat="42.8089071" lon="11.093558"><ele>8.666666666666666</ele><time>2026-04-26T08:07:46.128Z</time></trkpt><trkpt lat="42.8089537" lon="11.0937894"><ele>9.0</ele><time>2026-04-26T08:07:47.148Z</time></trkpt><trkpt lat="42.8090027" lon="11.0940176"><ele>8.666666666666666</ele><time>2026-04-26T08:07:48.116Z</time></trkpt><trkpt lat="42.8090501" lon="11.0942354"><ele>8.333333333333332</ele><time>2026-04-26T08:07:49.129Z</time></trkpt><trkpt lat="42.8090951" lon="11.0944529"><ele>8.0</ele><time>2026-04-26T08:07:50.128Z</time></trkpt><trkpt lat="42.8091343" lon="11.0946667"><ele>8.0</ele><time>2026-04-26T08:07:51.118Z</time></trkpt><trkpt lat="42.8091726" lon="11.0948742"><ele>8.0</ele><time>2026-04-26T08:07:52.17Z</time></trkpt><trkpt lat="42.809224" lon="11.0950687"><ele>8.0</ele><time>2026-04-26T08:07:53.126Z</time></trkpt><trkpt lat="42.8093005" lon="11.0952427"><ele>8.0</ele><time>2026-04-26T08:07:54.124Z</time></trkpt><trkpt lat="42.8093938" lon="11.0953779"><ele>8.0</ele><time>2026-04-26T08:07:55.124Z</time></trkpt><trkpt lat="42.8094849" lon="11.095488"><ele>8.0</ele><time>2026-04-26T08:07:56.123Z</time></trkpt><trkpt lat="42.8095657" lon="11.0955885"><ele>8.0</ele><time>2026-04-26T08:07:57.136Z</time></trkpt><trkpt lat="42.8096286" lon="11.0957048"><ele>8.25</ele><time>2026-04-26T08:07:58.13Z</time></trkpt><trkpt lat="42.809657" lon="11.0958382"><ele>8.5</ele><time>2026-04-26T08:07:59.126Z</time></trkpt><trkpt lat="42.8096815" lon="11.0959829"><ele>8.75</ele><time>2026-04-26T08:08:00.121Z</time></trkpt><trkpt lat="42.809714" lon="11.096135"><ele>9.0</ele><time>2026-04-26T08:08:01.115Z</time></trkpt><trkpt lat="42.8097489" lon="11.0963067"><ele>9.0</ele><time>2026-04-26T08:08:02.123Z</time></trkpt><trkpt lat="42.8097925" lon="11.0964806"><ele>9.0</ele><time>2026-04-26T08:08:03.123Z</time></trkpt><trkpt lat="42.8098276" lon="11.0966589"><ele>9.0</ele><time>2026-04-26T08:08:04.123Z</time></trkpt><trkpt lat="42.80986" lon="11.096843"><ele>9.0</ele><time>2026-04-26T08:08:05.145Z</time></trkpt><trkpt lat="42.8098924" lon="11.0970314"><ele>9.333333333333334</ele><time>2026-04-26T08:08:06.121Z</time></trkpt><trkpt lat="42.8099106" lon="11.0972375"><ele>9.666666666666668</ele><time>2026-04-26T08:08:07.127Z</time></trkpt><trkpt lat="42.8099308" lon="11.0974512"><ele>10.0</ele><time>2026-04-26T08:08:08.115Z</time></trkpt><trkpt lat="42.8099374" lon="11.0976716"><ele>10.0</ele><time>2026-04-26T08:08:09.126Z</time></trkpt><trkpt lat="42.809938" lon="11.0979001"><ele>10.0</ele><time>2026-04-26T08:08:10.122Z</time></trkpt><trkpt lat="42.8099392" lon="11.0981237"><ele>10.0</ele><time>2026-04-26T08:08:11.122Z</time></trkpt><trkpt lat="42.8099318" lon="11.0983522"><ele>9.666666666666668</ele><time>2026-04-26T08:08:12.123Z</time></trkpt><trkpt lat="42.8099246" lon="11.098578"><ele>9.333333333333334</ele><time>2026-04-26T08:08:13.123Z</time></trkpt><trkpt lat="42.8099218" lon="11.0988053"><ele>9.0</ele><time>2026-04-26T08:08:14.119Z</time></trkpt><trkpt lat="42.8099177" lon="11.0990334"><ele>8.666666666666666</ele><time>2026-04-26T08:08:15.159Z</time></trkpt><trkpt lat="42.8099137" lon="11.0992588"><ele>8.333333333333332</ele><time>2026-04-26T08:08:16.117Z</time></trkpt><trkpt lat="42.8099069" lon="11.0994878"><ele>8.0</ele><time>2026-04-26T08:08:17.119Z</time></trkpt><trkpt lat="42.8099043" lon="11.0997164"><ele>8.0</ele><time>2026-04-26T08:08:18.124Z</time></trkpt><trkpt lat="42.8099014" lon="11.0999448"><ele>8.0</ele><time>2026-04-26T08:08:19.119Z</time></trkpt><trkpt lat="42.8098976" lon="11.1001748"><ele>8.0</ele><time>2026-04-26T08:08:20.134Z</time></trkpt><trkpt lat="42.8098988" lon="11.1004086"><ele>8.0</ele><time>2026-04-26T08:08:21.12Z</time></trkpt><trkpt lat="42.8098887" lon="11.1006429"><ele>8.0</ele><time>2026-04-26T08:08:22.13Z</time></trkpt><trkpt lat="42.8098825" lon="11.1008765"><ele>8.0</ele><time>2026-04-26T08:08:23.115Z</time></trkpt><trkpt lat="42.8098766" lon="11.1011142"><ele>8.0</ele><time>2026-04-26T08:08:24.123Z</time></trkpt><trkpt lat="42.8098714" lon="11.1013485"><ele>8.0</ele><time>2026-04-26T08:08:25.117Z</time></trkpt><trkpt lat="42.8098706" lon="11.1015849"><ele>8.0</ele><time>2026-04-26T08:08:26.118Z</time></trkpt><trkpt lat="42.8098696" lon="11.1018225"><ele>8.333333333333332</ele><time>2026-04-26T08:08:27.124Z</time></trkpt><trkpt lat="42.8098637" lon="11.1020624"><ele>8.666666666666666</ele><time>2026-04-26T08:08:28.123Z</time></trkpt><trkpt lat="42.8098587" lon="11.1023016"><ele>9.0</ele><time>2026-04-26T08:08:29.122Z</time></trkpt><trkpt lat="42.8098579" lon="11.1025415"><ele>9.333333333333334</ele><time>2026-04-26T08:08:30.125Z</time></trkpt><trkpt lat="42.8098549" lon="11.102782"><ele>9.666666666666668</ele><time>2026-04-26T08:08:31.151Z</time></trkpt><trkpt lat="42.8098527" lon="11.1030284"><ele>10.0</ele><time>2026-04-26T08:08:32.12Z</time></trkpt><trkpt lat="42.8098471" lon="11.1032778"><ele>10.0</ele><time>2026-04-26T08:08:33.125Z</time></trkpt><trkpt lat="42.8098422" lon="11.1035269"><ele>10.0</ele><time>2026-04-26T08:08:34.126Z</time></trkpt><trkpt lat="42.8098405" lon="11.1037739"><ele>10.0</ele><time>2026-04-26T08:08:35.12Z</time></trkpt><trkpt lat="42.8098413" lon="11.1040177"><ele>10.333333333333334</ele><time>2026-04-26T08:08:36.112Z</time></trkpt><trkpt lat="42.8098389" lon="11.1042663"><ele>10.666666666666666</ele><time>2026-04-26T08:08:37.114Z</time></trkpt><trkpt lat="42.8098401" lon="11.1045125"><ele>11.0</ele><time>2026-04-26T08:08:38.114Z</time></trkpt><trkpt lat="42.8098338" lon="11.1047617"><ele>11.333333333333332</ele><time>2026-04-26T08:08:39.129Z</time></trkpt><trkpt lat="42.8098295" lon="11.1050145"><ele>11.666666666666666</ele><time>2026-04-26T08:08:40.123Z</time></trkpt><trkpt lat="42.8098212" lon="11.1052694"><ele>12.0</ele><time>2026-04-26T08:08:41.12Z</time></trkpt><trkpt lat="42.8098188" lon="11.1055277"><ele>12.666666666666668</ele><time>2026-04-26T08:08:42.135Z</time></trkpt><trkpt lat="42.8098141" lon="11.1057817"><ele>13.333333333333334</ele><time>2026-04-26T08:08:43.123Z</time></trkpt><trkpt lat="42.8098127" lon="11.10604"><ele>14.0</ele><time>2026-04-26T08:08:44.124Z</time></trkpt><trkpt lat="42.8098086" lon="11.1063001"><ele>14.0</ele><time>2026-04-26T08:08:45.122Z</time></trkpt><trkpt lat="42.8098054" lon="11.106557"><ele>14.0</ele><time>2026-04-26T08:08:46.125Z</time></trkpt><trkpt lat="42.8098028" lon="11.1068182"><ele>14.0</ele><time>2026-04-26T08:08:47.115Z</time></trkpt><trkpt lat="42.8097973" lon="11.1070827"><ele>13.666666666666668</ele><time>2026-04-26T08:08:48.163Z</time></trkpt><trkpt lat="42.8097927" lon="11.1073478"><ele>13.333333333333332</ele><time>2026-04-26T08:08:49.115Z</time></trkpt><trkpt lat="42.8097941" lon="11.1076127"><ele>13.0</ele><time>2026-04-26T08:08:50.124Z</time></trkpt><trkpt lat="42.809788" lon="11.1078776"><ele>12.666666666666666</ele><time>2026-04-26T08:08:51.121Z</time></trkpt><trkpt lat="42.8097842" lon="11.1081386"><ele>12.333333333333332</ele><time>2026-04-26T08:08:52.125Z</time></trkpt><trkpt lat="42.8097779" lon="11.108401"><ele>12.0</ele><time>2026-04-26T08:08:53.128Z</time></trkpt><trkpt lat="42.8097732" lon="11.1086648"><ele>12.0</ele><time>2026-04-26T08:08:54.122Z</time></trkpt><trkpt lat="42.8097686" lon="11.1089258"><ele>12.0</ele><time>2026-04-26T08:08:55.123Z</time></trkpt><trkpt lat="42.8097632" lon="11.1091859"><ele>12.0</ele><time>2026-04-26T08:08:56.127Z</time></trkpt><trkpt lat="42.8097616" lon="11.1094467"><ele>12.333333333333332</ele><time>2026-04-26T08:08:57.119Z</time></trkpt><trkpt lat="42.8097572" lon="11.1097097"><ele>12.666666666666666</ele><time>2026-04-26T08:08:58.121Z</time></trkpt><trkpt lat="42.8097546" lon="11.109973"><ele>13.0</ele><time>2026-04-26T08:08:59.118Z</time></trkpt><trkpt lat="42.8097497" lon="11.1102317"><ele>13.0</ele><time>2026-04-26T08:09:00.126Z</time></trkpt><trkpt lat="42.8097424" lon="11.1104971"><ele>13.0</ele><time>2026-04-26T08:09:01.119Z</time></trkpt><trkpt lat="42.8097358" lon="11.1107568"><ele>13.0</ele><time>2026-04-26T08:09:02.125Z</time></trkpt><trkpt lat="42.8097341" lon="11.1110095"><ele>13.0</ele><time>2026-04-26T08:09:03.122Z</time></trkpt><trkpt lat="42.8097303" lon="11.1112637"><ele>13.0</ele><time>2026-04-26T08:09:04.121Z</time></trkpt><trkpt lat="42.8097292" lon="11.111512"><ele>13.0</ele><time>2026-04-26T08:09:05.118Z</time></trkpt><trkpt lat="42.8097242" lon="11.1117481"><ele>13.0</ele><time>2026-04-26T08:09:06.126Z</time></trkpt><trkpt lat="42.8097248" lon="11.1119775"><ele>13.0</ele><time>2026-04-26T08:09:07.121Z</time></trkpt><trkpt lat="42.8097243" lon="11.1122029"><ele>13.0</ele><time>2026-04-26T08:09:08.116Z</time></trkpt><trkpt lat="42.8097178" lon="11.1124204"><ele>13.0</ele><time>2026-04-26T08:09:09.155Z</time></trkpt><trkpt lat="42.8097153" lon="11.1126415"><ele>13.0</ele><time>2026-04-26T08:09:10.123Z</time></trkpt><trkpt lat="42.8097162" lon="11.1128634"><ele>13.0</ele><time>2026-04-26T08:09:11.118Z</time></trkpt><trkpt lat="42.8097227" lon="11.113085"><ele>13.333333333333332</ele><time>2026-04-26T08:09:12.12Z</time></trkpt><trkpt lat="42.8097282" lon="11.1133185"><ele>13.666666666666668</ele><time>2026-04-26T08:09:13.126Z</time></trkpt><trkpt lat="42.8097259" lon="11.1135617"><ele>14.0</ele><time>2026-04-26T08:09:14.149Z</time></trkpt><trkpt lat="42.8097199" lon="11.1138013"><ele>14.0</ele><time>2026-04-26T08:09:15.121Z</time></trkpt><trkpt lat="42.8097196" lon="11.1140467"><ele>14.0</ele><time>2026-04-26T08:09:16.125Z</time></trkpt><trkpt lat="42.8097164" lon="11.1142931"><ele>14.0</ele><time>2026-04-26T08:09:17.123Z</time></trkpt><trkpt lat="42.8097144" lon="11.1145386"><ele>14.333333333333334</ele><time>2026-04-26T08:09:18.117Z</time></trkpt><trkpt lat="42.8097067" lon="11.1147877"><ele>14.666666666666668</ele><time>2026-04-26T08:09:19.121Z</time></trkpt><trkpt lat="42.8097059" lon="11.1150394"><ele>15.0</ele><time>2026-04-26T08:09:20.122Z</time></trkpt><trkpt lat="42.8097016" lon="11.1153018"><ele>15.0</ele><time>2026-04-26T08:09:21.124Z</time></trkpt><trkpt lat="42.8096934" lon="11.1155671"><ele>15.0</ele><time>2026-04-26T08:09:22.126Z</time></trkpt><trkpt lat="42.8096832" lon="11.1158358"><ele>15.0</ele><time>2026-04-26T08:09:23.118Z</time></trkpt><trkpt lat="42.8096711" lon="11.116114"><ele>15.333333333333332</ele><time>2026-04-26T08:09:24.128Z</time></trkpt><trkpt lat="42.8096621" lon="11.1163943"><ele>15.666666666666666</ele><time>2026-04-26T08:09:25.121Z</time></trkpt><trkpt lat="42.8096574" lon="11.1166741"><ele>16.0</ele><time>2026-04-26T08:09:26.126Z</time></trkpt><trkpt lat="42.8096509" lon="11.1169528"><ele>16.0</ele><time>2026-04-26T08:09:27.123Z</time></trkpt><trkpt lat="42.8096481" lon="11.1172349"><ele>16.0</ele><time>2026-04-26T08:09:28.173Z</time></trkpt><trkpt lat="42.8096464" lon="11.1175175"><ele>16.0</ele><time>2026-04-26T08:09:29.122Z</time></trkpt><trkpt lat="42.8096412" lon="11.1177961"><ele>16.0</ele><time>2026-04-26T08:09:30.12Z</time></trkpt><trkpt lat="42.8096363" lon="11.1180779"><ele>16.0</ele><time>2026-04-26T08:09:31.12Z</time></trkpt><trkpt lat="42.8096315" lon="11.118356"><ele>16.0</ele><time>2026-04-26T08:09:32.121Z</time></trkpt><trkpt lat="42.8096261" lon="11.118634"><ele>16.333333333333332</ele><time>2026-04-26T08:09:33.112Z</time></trkpt><trkpt lat="42.8096212" lon="11.1189119"><ele>16.666666666666668</ele><time>2026-04-26T08:09:34.121Z</time></trkpt><trkpt lat="42.8096169" lon="11.1191862"><ele>17.0</ele><time>2026-04-26T08:09:35.119Z</time></trkpt><trkpt lat="42.8096134" lon="11.1194626"><ele>17.0</ele><time>2026-04-26T08:09:36.115Z</time></trkpt><trkpt lat="42.8096109" lon="11.1197347"><ele>17.0</ele><time>2026-04-26T08:09:37.122Z</time></trkpt><trkpt lat="42.8096089" lon="11.1200088"><ele>17.0</ele><time>2026-04-26T08:09:38.119Z</time></trkpt><trkpt lat="42.8096045" lon="11.1202805"><ele>17.0</ele><time>2026-04-26T08:09:39.115Z</time></trkpt><trkpt lat="42.8095964" lon="11.1205537"><ele>17.0</ele><time>2026-04-26T08:09:40.135Z</time></trkpt><trkpt lat="42.8095896" lon="11.120829"><ele>17.0</ele><time>2026-04-26T08:09:41.122Z</time></trkpt><trkpt lat="42.8095861" lon="11.1211017"><ele>17.333333333333336</ele><time>2026-04-26T08:09:42.115Z</time></trkpt><trkpt lat="42.8095879" lon="11.1213767"><ele>17.666666666666668</ele><time>2026-04-26T08:09:43.132Z</time></trkpt><trkpt lat="42.8095828" lon="11.1216503"><ele>18.0</ele><time>2026-04-26T08:09:44.123Z</time></trkpt><trkpt lat="42.8095798" lon="11.1219255"><ele>18.666666666666668</ele><time>2026-04-26T08:09:45.123Z</time></trkpt><trkpt lat="42.8095793" lon="11.1221955"><ele>19.333333333333336</ele><time>2026-04-26T08:09:46.18Z</time></trkpt><trkpt lat="42.8095768" lon="11.1224634"><ele>20.0</ele><time>2026-04-26T08:09:47.128Z</time></trkpt><trkpt lat="42.8095725" lon="11.1227308"><ele>20.0</ele><time>2026-04-26T08:09:48.117Z</time></trkpt><trkpt lat="42.809572" lon="11.1230017"><ele>20.0</ele><time>2026-04-26T08:09:49.118Z</time></trkpt><trkpt lat="42.8095685" lon="11.123269"><ele>20.0</ele><time>2026-04-26T08:09:50.125Z</time></trkpt><trkpt lat="42.8095639" lon="11.1235384"><ele>20.333333333333336</ele><time>2026-04-26T08:09:51.123Z</time></trkpt><trkpt lat="42.8095576" lon="11.1238099"><ele>20.666666666666668</ele><time>2026-04-26T08:09:52.124Z</time></trkpt><trkpt lat="42.8095502" lon="11.1240814"><ele>21.0</ele><time>2026-04-26T08:09:53.118Z</time></trkpt><trkpt lat="42.8095481" lon="11.1243546"><ele>21.0</ele><time>2026-04-26T08:09:54.12Z</time></trkpt><trkpt lat="42.8095445" lon="11.1246255"><ele>21.0</ele><time>2026-04-26T08:09:55.147Z</time></trkpt><trkpt lat="42.8095445" lon="11.1248959"><ele>21.0</ele><time>2026-04-26T08:09:56.124Z</time></trkpt><trkpt lat="42.8095413" lon="11.1251696"><ele>20.666666666666668</ele><time>2026-04-26T08:09:57.117Z</time></trkpt><trkpt lat="42.8095395" lon="11.1254392"><ele>20.333333333333336</ele><time>2026-04-26T08:09:58.121Z</time></trkpt><trkpt lat="42.8095327" lon="11.1257115"><ele>20.0</ele><time>2026-04-26T08:09:59.122Z</time></trkpt><trkpt lat="42.8095254" lon="11.1259841"><ele>20.0</ele><time>2026-04-26T08:10:00.125Z</time></trkpt><trkpt lat="42.8095231" lon="11.1262545"><ele>20.0</ele><time>2026-04-26T08:10:01.119Z</time></trkpt><trkpt lat="42.8095152" lon="11.1265255"><ele>20.0</ele><time>2026-04-26T08:10:02.125Z</time></trkpt><trkpt lat="42.8094982" lon="11.1267966"><ele>19.666666666666668</ele><time>2026-04-26T08:10:03.159Z</time></trkpt><trkpt lat="42.8094734" lon="11.127068"><ele>19.333333333333332</ele><time>2026-04-26T08:10:04.126Z</time></trkpt><trkpt lat="42.8094448" lon="11.1273384"><ele>19.0</ele><time>2026-04-26T08:10:05.121Z</time></trkpt><trkpt lat="42.8094151" lon="11.1276106"><ele>19.0</ele><time>2026-04-26T08:10:06.123Z</time></trkpt><trkpt lat="42.8093812" lon="11.127877"><ele>19.0</ele><time>2026-04-26T08:10:07.118Z</time></trkpt><trkpt lat="42.8093471" lon="11.1281438"><ele>19.0</ele><time>2026-04-26T08:10:08.121Z</time></trkpt><trkpt lat="42.80932" lon="11.128416"><ele>18.333333333333332</ele><time>2026-04-26T08:10:09.118Z</time></trkpt><trkpt lat="42.8092907" lon="11.1286813"><ele>17.666666666666668</ele><time>2026-04-26T08:10:10.153Z</time></trkpt><trkpt lat="42.8092595" lon="11.1289486"><ele>17.0</ele><time>2026-04-26T08:10:11.121Z</time></trkpt><trkpt lat="42.8092249" lon="11.1292215"><ele>17.0</ele><time>2026-04-26T08:10:12.124Z</time></trkpt><trkpt lat="42.8091933" lon="11.1294908"><ele>17.0</ele><time>2026-04-26T08:10:13.121Z</time></trkpt><trkpt lat="42.8091661" lon="11.1297632"><ele>17.0</ele><time>2026-04-26T08:10:14.121Z</time></trkpt><trkpt lat="42.8091401" lon="11.1300332"><ele>17.666666666666668</ele><time>2026-04-26T08:10:15.119Z</time></trkpt><trkpt lat="42.8091108" lon="11.1302987"><ele>18.333333333333332</ele><time>2026-04-26T08:10:16.123Z</time></trkpt><trkpt lat="42.809077" lon="11.1305599"><ele>19.0</ele><time>2026-04-26T08:10:17.12Z</time></trkpt><trkpt lat="42.8090428" lon="11.1308258"><ele>19.0</ele><time>2026-04-26T08:10:18.123Z</time></trkpt><trkpt lat="42.8090152" lon="11.1310883"><ele>19.0</ele><time>2026-04-26T08:10:19.12Z</time></trkpt><trkpt lat="42.808989" lon="11.1313499"><ele>19.0</ele><time>2026-04-26T08:10:20.119Z</time></trkpt><trkpt lat="42.808958" lon="11.1316145"><ele>19.333333333333332</ele><time>2026-04-26T08:10:21.117Z</time></trkpt><trkpt lat="42.8089281" lon="11.1318761"><ele>19.666666666666668</ele><time>2026-04-26T08:10:22.123Z</time></trkpt><trkpt lat="42.8089016" lon="11.1321321"><ele>20.0</ele><time>2026-04-26T08:10:23.123Z</time></trkpt><trkpt lat="42.8088775" lon="11.1323814"><ele>20.333333333333336</ele><time>2026-04-26T08:10:24.139Z</time></trkpt><trkpt lat="42.8088507" lon="11.1326293"><ele>20.666666666666668</ele><time>2026-04-26T08:10:25.123Z</time></trkpt><trkpt lat="42.8088219" lon="11.1328764"><ele>21.0</ele><time>2026-04-26T08:10:26.127Z</time></trkpt><trkpt lat="42.8087968" lon="11.1331175"><ele>20.666666666666668</ele><time>2026-04-26T08:10:27.119Z</time></trkpt><trkpt lat="42.8087722" lon="11.1333551"><ele>20.333333333333336</ele><time>2026-04-26T08:10:28.123Z</time></trkpt><trkpt lat="42.8087448" lon="11.1335879"><ele>20.0</ele><time>2026-04-26T08:10:29.122Z</time></trkpt><trkpt lat="42.8087194" lon="11.1338195"><ele>20.0</ele><time>2026-04-26T08:10:30.123Z</time></trkpt><trkpt lat="42.808695" lon="11.1340515"><ele>20.0</ele><time>2026-04-26T08:10:31.123Z</time></trkpt><trkpt lat="42.8086732" lon="11.1342803"><ele>20.0</ele><time>2026-04-26T08:10:32.119Z</time></trkpt><trkpt lat="42.808646" lon="11.1345051"><ele>20.0</ele><time>2026-04-26T08:10:33.134Z</time></trkpt><trkpt lat="42.8086176" lon="11.1347312"><ele>20.0</ele><time>2026-04-26T08:10:34.119Z</time></trkpt><trkpt lat="42.8085872" lon="11.1349532"><ele>20.0</ele><time>2026-04-26T08:10:35.12Z</time></trkpt><trkpt lat="42.8085663" lon="11.1351776"><ele>20.0</ele><time>2026-04-26T08:10:36.12Z</time></trkpt><trkpt lat="42.8085462" lon="11.1353926"><ele>20.0</ele><time>2026-04-26T08:10:37.129Z</time></trkpt><trkpt lat="42.8085184" lon="11.1355978"><ele>20.0</ele><time>2026-04-26T08:10:38.129Z</time></trkpt><trkpt lat="42.8084905" lon="11.1358052"><ele>20.25</ele><time>2026-04-26T08:10:39.118Z</time></trkpt><trkpt lat="42.8084674" lon="11.1360044"><ele>20.5</ele><time>2026-04-26T08:10:40.171Z</time></trkpt><trkpt lat="42.808442" lon="11.1362051"><ele>20.75</ele><time>2026-04-26T08:10:41.126Z</time></trkpt><trkpt lat="42.808423" lon="11.1364007"><ele>21.0</ele><time>2026-04-26T08:10:42.118Z</time></trkpt><trkpt lat="42.808408" lon="11.1365786"><ele>21.0</ele><time>2026-04-26T08:10:43.123Z</time></trkpt><trkpt lat="42.8083922" lon="11.1367565"><ele>21.0</ele><time>2026-04-26T08:10:44.117Z</time></trkpt><trkpt lat="42.8083771" lon="11.1369279"><ele>21.0</ele><time>2026-04-26T08:10:45.13Z</time></trkpt><trkpt lat="42.8083578" lon="11.137091"><ele>21.0</ele><time>2026-04-26T08:10:46.122Z</time></trkpt><trkpt lat="42.8083419" lon="11.1372401"><ele>21.0</ele><time>2026-04-26T08:10:47.118Z</time></trkpt><trkpt lat="42.8083259" lon="11.1373782"><ele>21.0</ele><time>2026-04-26T08:10:48.121Z</time></trkpt><trkpt lat="42.8083103" lon="11.1375084"><ele>21.0</ele><time>2026-04-26T08:10:49.114Z</time></trkpt><trkpt lat="42.808298" lon="11.1376263"><ele>21.0</ele><time>2026-04-26T08:10:50.141Z</time></trkpt><trkpt lat="42.808289" lon="11.1377391"><ele>21.0</ele><time>2026-04-26T08:10:51.113Z</time></trkpt><trkpt lat="42.8082787" lon="11.1378422"><ele>21.0</ele><time>2026-04-26T08:10:52.116Z</time></trkpt><trkpt lat="42.8082684" lon="11.137944"><ele>21.166666666666668</ele><time>2026-04-26T08:10:53.121Z</time></trkpt><trkpt lat="42.8082575" lon="11.1380307"><ele>21.333333333333332</ele><time>2026-04-26T08:10:54.117Z</time></trkpt><trkpt lat="42.8082355" lon="11.138151"><ele>21.5</ele><time>2026-04-26T08:10:56.119Z</time></trkpt><trkpt lat="42.8082384" lon="11.1382436"><ele>21.666666666666664</ele><time>2026-04-26T08:11:03.116Z</time></trkpt><trkpt lat="42.8082748" lon="11.1383199"><ele>21.833333333333332</ele><time>2026-04-26T08:11:09.116Z</time></trkpt><trkpt lat="42.8083913" lon="11.138383"><ele>22.0</ele><time>2026-04-26T08:11:11.12Z</time></trkpt><trkpt lat="42.8084776" lon="11.1384199"><ele>22.6</ele><time>2026-04-26T08:11:12.131Z</time></trkpt><trkpt lat="42.8085736" lon="11.1384489"><ele>23.200000000000003</ele><time>2026-04-26T08:11:13.115Z</time></trkpt><trkpt lat="42.8086764" lon="11.1384734"><ele>23.8</ele><time>2026-04-26T08:11:14.118Z</time></trkpt><trkpt lat="42.8087845" lon="11.138493"><ele>24.4</ele><time>2026-04-26T08:11:15.121Z</time></trkpt><trkpt lat="42.8088984" lon="11.1384854"><ele>25.0</ele><time>2026-04-26T08:11:16.12Z</time></trkpt><trkpt lat="42.80902" lon="11.1384691"><ele>25.0</ele><time>2026-04-26T08:11:17.125Z</time></trkpt><trkpt lat="42.8091515" lon="11.1384497"><ele>25.0</ele><time>2026-04-26T08:11:18.118Z</time></trkpt><trkpt lat="42.8092827" lon="11.138433"><ele>25.0</ele><time>2026-04-26T08:11:19.117Z</time></trkpt><trkpt lat="42.8094142" lon="11.1384217"><ele>25.0</ele><time>2026-04-26T08:11:20.161Z</time></trkpt><trkpt lat="42.8095473" lon="11.1384064"><ele>25.0</ele><time>2026-04-26T08:11:21.11Z</time></trkpt><trkpt lat="42.8096801" lon="11.1383831"><ele>25.0</ele><time>2026-04-26T08:11:22.118Z</time></trkpt><trkpt lat="42.8098132" lon="11.1383455"><ele>25.0</ele><time>2026-04-26T08:11:23.119Z</time></trkpt><trkpt lat="42.8099381" lon="11.1382789"><ele>25.0</ele><time>2026-04-26T08:11:24.119Z</time></trkpt><trkpt lat="42.8100599" lon="11.1382004"><ele>25.5</ele><time>2026-04-26T08:11:25.124Z</time></trkpt><trkpt lat="42.8101737" lon="11.1381083"><ele>26.0</ele><time>2026-04-26T08:11:26.122Z</time></trkpt><trkpt lat="42.8102871" lon="11.1380152"><ele>26.5</ele><time>2026-04-26T08:11:27.127Z</time></trkpt><trkpt lat="42.8104003" lon="11.1379221"><ele>27.0</ele><time>2026-04-26T08:11:28.121Z</time></trkpt><trkpt lat="42.8105156" lon="11.1378255"><ele>27.0</ele><time>2026-04-26T08:11:29.127Z</time></trkpt><trkpt lat="42.8106292" lon="11.1377308"><ele>27.0</ele><time>2026-04-26T08:11:30.119Z</time></trkpt><trkpt lat="42.8107489" lon="11.1376284"><ele>27.0</ele><time>2026-04-26T08:11:31.116Z</time></trkpt><trkpt lat="42.8108641" lon="11.1375272"><ele>27.0</ele><time>2026-04-26T08:11:32.117Z</time></trkpt><trkpt lat="42.8109743" lon="11.1374233"><ele>26.75</ele><time>2026-04-26T08:11:33.115Z</time></trkpt><trkpt lat="42.8110886" lon="11.1373192"><ele>26.5</ele><time>2026-04-26T08:11:34.148Z</time></trkpt><trkpt lat="42.8112041" lon="11.1372161"><ele>26.25</ele><time>2026-04-26T08:11:35.12Z</time></trkpt><trkpt lat="42.811321" lon="11.1371206"><ele>26.0</ele><time>2026-04-26T08:11:36.127Z</time></trkpt><trkpt lat="42.8114388" lon="11.1370265"><ele>26.0</ele><time>2026-04-26T08:11:37.114Z</time></trkpt><trkpt lat="42.8115568" lon="11.1369293"><ele>26.0</ele><time>2026-04-26T08:11:38.117Z</time></trkpt><trkpt lat="42.8116771" lon="11.1368266"><ele>26.0</ele><time>2026-04-26T08:11:39.118Z</time></trkpt><trkpt lat="42.811799" lon="11.1367192"><ele>26.0</ele><time>2026-04-26T08:11:40.114Z</time></trkpt><trkpt lat="42.81192" lon="11.136607"><ele>25.666666666666664</ele><time>2026-04-26T08:11:41.117Z</time></trkpt><trkpt lat="42.8120454" lon="11.1365018"><ele>25.333333333333336</ele><time>2026-04-26T08:11:42.12Z</time></trkpt><trkpt lat="42.8121717" lon="11.1363896"><ele>25.0</ele><time>2026-04-26T08:11:43.119Z</time></trkpt><trkpt lat="42.8122998" lon="11.1362791"><ele>25.0</ele><time>2026-04-26T08:11:44.118Z</time></trkpt><trkpt lat="42.8124274" lon="11.1361687"><ele>25.0</ele><time>2026-04-26T08:11:45.117Z</time></trkpt><trkpt lat="42.8125535" lon="11.1360606"><ele>25.0</ele><time>2026-04-26T08:11:46.116Z</time></trkpt><trkpt lat="42.8126783" lon="11.1359487"><ele>25.0</ele><time>2026-04-26T08:11:47.16Z</time></trkpt><trkpt lat="42.8128058" lon="11.1358379"><ele>24.666666666666668</ele><time>2026-04-26T08:11:48.121Z</time></trkpt><trkpt lat="42.8129373" lon="11.1357329"><ele>24.333333333333336</ele><time>2026-04-26T08:11:49.11Z</time></trkpt><trkpt lat="42.8130758" lon="11.1356544"><ele>24.0</ele><time>2026-04-26T08:11:50.126Z</time></trkpt><trkpt lat="42.8132195" lon="11.1355993"><ele>24.0</ele><time>2026-04-26T08:11:51.122Z</time></trkpt><trkpt lat="42.8133665" lon="11.1355703"><ele>24.0</ele><time>2026-04-26T08:11:52.123Z</time></trkpt><trkpt lat="42.8135198" lon="11.1355453"><ele>24.0</ele><time>2026-04-26T08:11:53.122Z</time></trkpt><trkpt lat="42.8136771" lon="11.1355251"><ele>23.666666666666668</ele><time>2026-04-26T08:11:54.152Z</time></trkpt><trkpt lat="42.8138299" lon="11.1355031"><ele>23.333333333333336</ele><time>2026-04-26T08:11:55.117Z</time></trkpt><trkpt lat="42.8139841" lon="11.1354743"><ele>23.0</ele><time>2026-04-26T08:11:56.122Z</time></trkpt><trkpt lat="42.8141399" lon="11.1354449"><ele>23.0</ele><time>2026-04-26T08:11:57.118Z</time></trkpt><trkpt lat="42.814294" lon="11.1354216"><ele>23.0</ele><time>2026-04-26T08:11:58.12Z</time></trkpt><trkpt lat="42.8144538" lon="11.1353937"><ele>23.0</ele><time>2026-04-26T08:11:59.119Z</time></trkpt><trkpt lat="42.81461" lon="11.1353699"><ele>23.333333333333336</ele><time>2026-04-26T08:12:00.117Z</time></trkpt><trkpt lat="42.8147711" lon="11.1353429"><ele>23.666666666666668</ele><time>2026-04-26T08:12:01.121Z</time></trkpt><trkpt lat="42.8149304" lon="11.1353159"><ele>24.0</ele><time>2026-04-26T08:12:02.117Z</time></trkpt><trkpt lat="42.8150924" lon="11.1352878"><ele>24.0</ele><time>2026-04-26T08:12:03.123Z</time></trkpt><trkpt lat="42.8152529" lon="11.1352574"><ele>24.0</ele><time>2026-04-26T08:12:04.12Z</time></trkpt><trkpt lat="42.8154156" lon="11.135233"><ele>24.0</ele><time>2026-04-26T08:12:05.115Z</time></trkpt><trkpt lat="42.8155804" lon="11.1351992"><ele>24.0</ele><time>2026-04-26T08:12:06.14Z</time></trkpt><trkpt lat="42.8157409" lon="11.1351704"><ele>24.0</ele><time>2026-04-26T08:12:07.116Z</time></trkpt><trkpt lat="42.8159001" lon="11.135145"><ele>24.0</ele><time>2026-04-26T08:12:08.122Z</time></trkpt><trkpt lat="42.8160623" lon="11.1351194"><ele>24.0</ele><time>2026-04-26T08:12:09.113Z</time></trkpt><trkpt lat="42.8162217" lon="11.1350942"><ele>24.0</ele><time>2026-04-26T08:12:10.121Z</time></trkpt><trkpt lat="42.8163798" lon="11.1350642"><ele>24.0</ele><time>2026-04-26T08:12:11.122Z</time></trkpt><trkpt lat="42.8165384" lon="11.1350341"><ele>24.0</ele><time>2026-04-26T08:12:12.123Z</time></trkpt><trkpt lat="42.8166954" lon="11.1350095"><ele>24.0</ele><time>2026-04-26T08:12:13.162Z</time></trkpt><trkpt lat="42.8168557" lon="11.1349834"><ele>24.0</ele><time>2026-04-26T08:12:14.113Z</time></trkpt><trkpt lat="42.8170106" lon="11.1349596"><ele>24.333333333333336</ele><time>2026-04-26T08:12:15.118Z</time></trkpt><trkpt lat="42.8171634" lon="11.1349357"><ele>24.666666666666668</ele><time>2026-04-26T08:12:16.113Z</time></trkpt><trkpt lat="42.8173158" lon="11.1349124"><ele>25.0</ele><time>2026-04-26T08:12:17.121Z</time></trkpt><trkpt lat="42.8174719" lon="11.1348915"><ele>24.666666666666668</ele><time>2026-04-26T08:12:18.112Z</time></trkpt><trkpt lat="42.8176254" lon="11.1348613"><ele>24.333333333333336</ele><time>2026-04-26T08:12:19.152Z</time></trkpt><trkpt lat="42.8177837" lon="11.1348304"><ele>24.0</ele><time>2026-04-26T08:12:20.114Z</time></trkpt><trkpt lat="42.8179432" lon="11.1347982"><ele>24.666666666666664</ele><time>2026-04-26T08:12:21.115Z</time></trkpt><trkpt lat="42.8180989" lon="11.134768"><ele>25.333333333333332</ele><time>2026-04-26T08:12:22.117Z</time></trkpt><trkpt lat="42.8182554" lon="11.1347451"><ele>26.0</ele><time>2026-04-26T08:12:23.117Z</time></trkpt><trkpt lat="42.8184116" lon="11.1347201"><ele>26.666666666666664</ele><time>2026-04-26T08:12:24.119Z</time></trkpt><trkpt lat="42.8185679" lon="11.1346958"><ele>27.333333333333336</ele><time>2026-04-26T08:12:25.121Z</time></trkpt><trkpt lat="42.8187208" lon="11.1346756"><ele>28.0</ele><time>2026-04-26T08:12:26.165Z</time></trkpt><trkpt lat="42.8188775" lon="11.1346499"><ele>28.0</ele><time>2026-04-26T08:12:27.116Z</time></trkpt><trkpt lat="42.8190333" lon="11.1346253"><ele>28.0</ele><time>2026-04-26T08:12:28.119Z</time></trkpt><trkpt lat="42.8191875" lon="11.1345923"><ele>28.0</ele><time>2026-04-26T08:12:29.122Z</time></trkpt><trkpt lat="42.8193423" lon="11.1345601"><ele>28.333333333333336</ele><time>2026-04-26T08:12:30.121Z</time></trkpt><trkpt lat="42.8194959" lon="11.1345291"><ele>28.666666666666664</ele><time>2026-04-26T08:12:31.13Z</time></trkpt><trkpt lat="42.8196474" lon="11.1344936"><ele>29.0</ele><time>2026-04-26T08:12:32.115Z</time></trkpt><trkpt lat="42.8197885" lon="11.1344564"><ele>29.0</ele><time>2026-04-26T08:12:33.121Z</time></trkpt><trkpt lat="42.8199254" lon="11.1344234"><ele>29.0</ele><time>2026-04-26T08:12:34.123Z</time></trkpt><trkpt lat="42.8200605" lon="11.1343915"><ele>29.0</ele><time>2026-04-26T08:12:35.121Z</time></trkpt><trkpt lat="42.8201982" lon="11.1343794"><ele>29.0</ele><time>2026-04-26T08:12:36.117Z</time></trkpt><trkpt lat="42.8203417" lon="11.1343742"><ele>28.75</ele><time>2026-04-26T08:12:37.121Z</time></trkpt><trkpt lat="42.8204864" lon="11.1343821"><ele>28.5</ele><time>2026-04-26T08:12:38.121Z</time></trkpt><trkpt lat="42.8206352" lon="11.1344022"><ele>28.25</ele><time>2026-04-26T08:12:39.118Z</time></trkpt><trkpt lat="42.820782" lon="11.1344465"><ele>28.0</ele><time>2026-04-26T08:12:40.116Z</time></trkpt><trkpt lat="42.8209241" lon="11.1345003"><ele>28.666666666666668</ele><time>2026-04-26T08:12:41.153Z</time></trkpt><trkpt lat="42.8210701" lon="11.1345467"><ele>29.333333333333336</ele><time>2026-04-26T08:12:42.12Z</time></trkpt><trkpt lat="42.8212174" lon="11.1345945"><ele>30.0</ele><time>2026-04-26T08:12:43.12Z</time></trkpt><trkpt lat="42.821369" lon="11.1346458"><ele>30.0</ele><time>2026-04-26T08:12:44.122Z</time></trkpt><trkpt lat="42.8215187" lon="11.1347011"><ele>30.0</ele><time>2026-04-26T08:12:45.111Z</time></trkpt><trkpt lat="42.8216758" lon="11.13475"><ele>30.0</ele><time>2026-04-26T08:12:46.114Z</time></trkpt><trkpt lat="42.8218286" lon="11.1348041"><ele>30.0</ele><time>2026-04-26T08:12:47.12Z</time></trkpt><trkpt lat="42.8219856" lon="11.1348632"><ele>30.0</ele><time>2026-04-26T08:12:48.122Z</time></trkpt><trkpt lat="42.8221395" lon="11.1349228"><ele>30.0</ele><time>2026-04-26T08:12:49.119Z</time></trkpt><trkpt lat="42.8222954" lon="11.1349818"><ele>30.666666666666664</ele><time>2026-04-26T08:12:50.134Z</time></trkpt><trkpt lat="42.8224572" lon="11.1350407"><ele>31.333333333333332</ele><time>2026-04-26T08:12:51.116Z</time></trkpt><trkpt lat="42.8226137" lon="11.1350897"><ele>32.0</ele><time>2026-04-26T08:12:52.114Z</time></trkpt><trkpt lat="42.8227678" lon="11.135145"><ele>32.33333333333333</ele><time>2026-04-26T08:12:53.123Z</time></trkpt><trkpt lat="42.8229217" lon="11.1351995"><ele>32.666666666666664</ele><time>2026-04-26T08:12:54.123Z</time></trkpt><trkpt lat="42.8230751" lon="11.1352678"><ele>33.0</ele><time>2026-04-26T08:12:55.132Z</time></trkpt><trkpt lat="42.8232262" lon="11.1353481"><ele>33.0</ele><time>2026-04-26T08:12:56.121Z</time></trkpt><trkpt lat="42.8233764" lon="11.1354417"><ele>33.0</ele><time>2026-04-26T08:12:57.115Z</time></trkpt><trkpt lat="42.8235224" lon="11.1355442"><ele>33.0</ele><time>2026-04-26T08:12:58.117Z</time></trkpt><trkpt lat="42.8236644" lon="11.1356428"><ele>34.0</ele><time>2026-04-26T08:12:59.124Z</time></trkpt><trkpt lat="42.8238058" lon="11.1357525"><ele>35.0</ele><time>2026-04-26T08:13:00.117Z</time></trkpt><trkpt lat="42.8239377" lon="11.1358738"><ele>36.0</ele><time>2026-04-26T08:13:01.153Z</time></trkpt><trkpt lat="42.8240646" lon="11.1360001"><ele>36.0</ele><time>2026-04-26T08:13:02.114Z</time></trkpt><trkpt lat="42.8241941" lon="11.1361232"><ele>36.0</ele><time>2026-04-26T08:13:03.118Z</time></trkpt><trkpt lat="42.8243138" lon="11.1362501"><ele>36.0</ele><time>2026-04-26T08:13:04.123Z</time></trkpt><trkpt lat="42.8244281" lon="11.1363796"><ele>36.25</ele><time>2026-04-26T08:13:05.122Z</time></trkpt><trkpt lat="42.824536" lon="11.136516"><ele>36.5</ele><time>2026-04-26T08:13:06.116Z</time></trkpt><trkpt lat="42.8246231" lon="11.1366728"><ele>36.75</ele><time>2026-04-26T08:13:07.124Z</time></trkpt><trkpt lat="42.8246944" lon="11.1368537"><ele>37.0</ele><time>2026-04-26T08:13:08.122Z</time></trkpt><trkpt lat="42.824755" lon="11.1370435"><ele>37.0</ele><time>2026-04-26T08:13:09.121Z</time></trkpt><trkpt lat="42.8248221" lon="11.1372395"><ele>37.0</ele><time>2026-04-26T08:13:10.126Z</time></trkpt><trkpt lat="42.8248964" lon="11.1374149"><ele>37.0</ele><time>2026-04-26T08:13:11.126Z</time></trkpt><trkpt lat="42.8249862" lon="11.1375783"><ele>37.0</ele><time>2026-04-26T08:13:12.122Z</time></trkpt><trkpt lat="42.8250933" lon="11.1377281"><ele>37.0</ele><time>2026-04-26T08:13:13.121Z</time></trkpt><trkpt lat="42.8252099" lon="11.1378672"><ele>37.0</ele><time>2026-04-26T08:13:14.135Z</time></trkpt><trkpt lat="42.8253404" lon="11.1379825"><ele>36.66666666666667</ele><time>2026-04-26T08:13:15.12Z</time></trkpt><trkpt lat="42.8254739" lon="11.1380977"><ele>36.333333333333336</ele><time>2026-04-26T08:13:16.114Z</time></trkpt><trkpt lat="42.825607" lon="11.1382059"><ele>36.0</ele><time>2026-04-26T08:13:17.122Z</time></trkpt><trkpt lat="42.8257292" lon="11.1383143"><ele>36.0</ele><time>2026-04-26T08:13:18.123Z</time></trkpt><trkpt lat="42.8258483" lon="11.1383844"><ele>36.0</ele><time>2026-04-26T08:13:19.119Z</time></trkpt><trkpt lat="42.8259911" lon="11.1384043"><ele>36.0</ele><time>2026-04-26T08:13:20.117Z</time></trkpt><trkpt lat="42.8261294" lon="11.1383846"><ele>36.0</ele><time>2026-04-26T08:13:21.121Z</time></trkpt><trkpt lat="42.8262692" lon="11.1383383"><ele>36.0</ele><time>2026-04-26T08:13:22.119Z</time></trkpt><trkpt lat="42.8264105" lon="11.1382914"><ele>36.0</ele><time>2026-04-26T08:13:23.13Z</time></trkpt><trkpt lat="42.8265489" lon="11.1382668"><ele>36.0</ele><time>2026-04-26T08:13:24.127Z</time></trkpt><trkpt lat="42.826693" lon="11.1382888"><ele>36.0</ele><time>2026-04-26T08:13:25.127Z</time></trkpt><trkpt lat="42.8268299" lon="11.1383655"><ele>36.0</ele><time>2026-04-26T08:13:26.128Z</time></trkpt><trkpt lat="42.826961" lon="11.13846"><ele>36.0</ele><time>2026-04-26T08:13:27.119Z</time></trkpt><trkpt lat="42.8270886" lon="11.1385735"><ele>36.0</ele><time>2026-04-26T08:13:28.121Z</time></trkpt><trkpt lat="42.8272234" lon="11.1386888"><ele>36.0</ele><time>2026-04-26T08:13:29.117Z</time></trkpt><trkpt lat="42.8273674" lon="11.1388027"><ele>36.0</ele><time>2026-04-26T08:13:30.119Z</time></trkpt><trkpt lat="42.8275076" lon="11.1389235"><ele>36.0</ele><time>2026-04-26T08:13:31.116Z</time></trkpt><trkpt lat="42.827656" lon="11.1390439"><ele>36.0</ele><time>2026-04-26T08:13:32.115Z</time></trkpt><trkpt lat="42.8278071" lon="11.1391713"><ele>36.0</ele><time>2026-04-26T08:13:33.12Z</time></trkpt><trkpt lat="42.8279608" lon="11.1393043"><ele>36.0</ele><time>2026-04-26T08:13:34.119Z</time></trkpt><trkpt lat="42.8281151" lon="11.1394421"><ele>36.0</ele><time>2026-04-26T08:13:35.175Z</time></trkpt><trkpt lat="42.8282673" lon="11.1395783"><ele>36.0</ele><time>2026-04-26T08:13:36.123Z</time></trkpt><trkpt lat="42.8284226" lon="11.1397156"><ele>36.0</ele><time>2026-04-26T08:13:37.122Z</time></trkpt><trkpt lat="42.8285796" lon="11.1398548"><ele>36.0</ele><time>2026-04-26T08:13:38.118Z</time></trkpt><trkpt lat="42.8287343" lon="11.1399973"><ele>36.0</ele><time>2026-04-26T08:13:39.117Z</time></trkpt><trkpt lat="42.8288925" lon="11.1401397"><ele>36.0</ele><time>2026-04-26T08:13:40.134Z</time></trkpt><trkpt lat="42.8290518" lon="11.1402811"><ele>36.0</ele><time>2026-04-26T08:13:41.118Z</time></trkpt><trkpt lat="42.8292124" lon="11.140427"><ele>36.0</ele><time>2026-04-26T08:13:42.118Z</time></trkpt><trkpt lat="42.8293729" lon="11.1405785"><ele>36.0</ele><time>2026-04-26T08:13:43.123Z</time></trkpt><trkpt lat="42.8295368" lon="11.1407293"><ele>36.0</ele><time>2026-04-26T08:13:44.118Z</time></trkpt><trkpt lat="42.8296954" lon="11.1408819"><ele>36.0</ele><time>2026-04-26T08:13:45.164Z</time></trkpt><trkpt lat="42.8298535" lon="11.1410393"><ele>36.0</ele><time>2026-04-26T08:13:46.112Z</time></trkpt><trkpt lat="42.8300107" lon="11.1411933"><ele>36.333333333333336</ele><time>2026-04-26T08:13:47.117Z</time></trkpt><trkpt lat="42.8301665" lon="11.1413525"><ele>36.66666666666667</ele><time>2026-04-26T08:13:48.124Z</time></trkpt><trkpt lat="42.8303242" lon="11.1415158"><ele>37.0</ele><time>2026-04-26T08:13:49.119Z</time></trkpt><trkpt lat="42.8304805" lon="11.1416808"><ele>37.0</ele><time>2026-04-26T08:13:50.136Z</time></trkpt><trkpt lat="42.8306371" lon="11.1418378"><ele>37.0</ele><time>2026-04-26T08:13:51.115Z</time></trkpt><trkpt lat="42.8307915" lon="11.1419967"><ele>37.0</ele><time>2026-04-26T08:13:52.121Z</time></trkpt><trkpt lat="42.8309475" lon="11.1421617"><ele>38.0</ele><time>2026-04-26T08:13:53.115Z</time></trkpt><trkpt lat="42.831099" lon="11.1423262"><ele>39.0</ele><time>2026-04-26T08:13:54.119Z</time></trkpt><trkpt lat="42.8312449" lon="11.1424909"><ele>40.0</ele><time>2026-04-26T08:13:55.109Z</time></trkpt><trkpt lat="42.8313942" lon="11.1426573"><ele>40.0</ele><time>2026-04-26T08:13:56.117Z</time></trkpt><trkpt lat="42.8315424" lon="11.1428282"><ele>40.0</ele><time>2026-04-26T08:13:57.118Z</time></trkpt><trkpt lat="42.8316909" lon="11.1429976"><ele>40.0</ele><time>2026-04-26T08:13:58.111Z</time></trkpt><trkpt lat="42.8318357" lon="11.1431624"><ele>41.333333333333336</ele><time>2026-04-26T08:13:59.116Z</time></trkpt><trkpt lat="42.831983" lon="11.143328"><ele>42.666666666666664</ele><time>2026-04-26T08:14:00.116Z</time></trkpt><trkpt lat="42.8321284" lon="11.1434966"><ele>44.0</ele><time>2026-04-26T08:14:01.116Z</time></trkpt><trkpt lat="42.832273" lon="11.1436653"><ele>44.0</ele><time>2026-04-26T08:14:02.115Z</time></trkpt><trkpt lat="42.832418" lon="11.1438336"><ele>44.0</ele><time>2026-04-26T08:14:03.136Z</time></trkpt><trkpt lat="42.8325612" lon="11.1440046"><ele>44.0</ele><time>2026-04-26T08:14:04.117Z</time></trkpt><trkpt lat="42.8327056" lon="11.1441754"><ele>45.33333333333333</ele><time>2026-04-26T08:14:05.115Z</time></trkpt><trkpt lat="42.8328501" lon="11.1443495"><ele>46.666666666666664</ele><time>2026-04-26T08:14:06.114Z</time></trkpt><trkpt lat="42.832995" lon="11.1445241"><ele>48.0</ele><time>2026-04-26T08:14:07.116Z</time></trkpt><trkpt lat="42.8331386" lon="11.1447013"><ele>47.666666666666664</ele><time>2026-04-26T08:14:08.114Z</time></trkpt><trkpt lat="42.8332813" lon="11.1448796"><ele>47.33333333333333</ele><time>2026-04-26T08:14:09.114Z</time></trkpt><trkpt lat="42.8334256" lon="11.1450523"><ele>47.0</ele><time>2026-04-26T08:14:10.154Z</time></trkpt><trkpt lat="42.8335719" lon="11.1452261"><ele>47.0</ele><time>2026-04-26T08:14:11.118Z</time></trkpt><trkpt lat="42.8337195" lon="11.1453991"><ele>47.0</ele><time>2026-04-26T08:14:12.112Z</time></trkpt><trkpt lat="42.8338647" lon="11.145576"><ele>47.0</ele><time>2026-04-26T08:14:13.118Z</time></trkpt><trkpt lat="42.8340098" lon="11.1457524"><ele>46.0</ele><time>2026-04-26T08:14:14.117Z</time></trkpt><trkpt lat="42.834157" lon="11.1459286"><ele>45.0</ele><time>2026-04-26T08:14:15.119Z</time></trkpt><trkpt lat="42.8342976" lon="11.1460992"><ele>44.0</ele><time>2026-04-26T08:14:16.118Z</time></trkpt><trkpt lat="42.8344378" lon="11.1462693"><ele>44.0</ele><time>2026-04-26T08:14:17.112Z</time></trkpt><trkpt lat="42.8345754" lon="11.1464341"><ele>44.0</ele><time>2026-04-26T08:14:18.111Z</time></trkpt><trkpt lat="42.8347048" lon="11.146591"><ele>44.0</ele><time>2026-04-26T08:14:19.119Z</time></trkpt><trkpt lat="42.8348269" lon="11.1467293"><ele>44.0</ele><time>2026-04-26T08:14:20.11Z</time></trkpt><trkpt lat="42.8349415" lon="11.1468674"><ele>44.0</ele><time>2026-04-26T08:14:21.15Z</time></trkpt><trkpt lat="42.8350555" lon="11.1470033"><ele>44.0</ele><time>2026-04-26T08:14:22.115Z</time></trkpt><trkpt lat="42.8351686" lon="11.1471334"><ele>44.75</ele><time>2026-04-26T08:14:23.116Z</time></trkpt><trkpt lat="42.8352756" lon="11.1472637"><ele>45.5</ele><time>2026-04-26T08:14:24.109Z</time></trkpt><trkpt lat="42.8353855" lon="11.1473982"><ele>46.25</ele><time>2026-04-26T08:14:25.111Z</time></trkpt><trkpt lat="42.8354999" lon="11.1475315"><ele>47.0</ele><time>2026-04-26T08:14:26.152Z</time></trkpt><trkpt lat="42.8356046" lon="11.147667"><ele>47.0</ele><time>2026-04-26T08:14:27.116Z</time></trkpt><trkpt lat="42.835712" lon="11.1477938"><ele>47.0</ele><time>2026-04-26T08:14:28.115Z</time></trkpt><trkpt lat="42.8358099" lon="11.1479212"><ele>47.0</ele><time>2026-04-26T08:14:29.119Z</time></trkpt><trkpt lat="42.8359051" lon="11.1480372"><ele>47.0</ele><time>2026-04-26T08:14:30.115Z</time></trkpt><trkpt lat="42.8359838" lon="11.148139"><ele>47.400000000000006</ele><time>2026-04-26T08:14:31.137Z</time></trkpt><trkpt lat="42.8360547" lon="11.1482067"><ele>47.800000000000004</ele><time>2026-04-26T08:14:32.111Z</time></trkpt><trkpt lat="42.8361262" lon="11.1482269"><ele>48.2</ele><time>2026-04-26T08:14:33.123Z</time></trkpt><trkpt lat="42.8362542" lon="11.1481065"><ele>48.6</ele><time>2026-04-26T08:14:35.116Z</time></trkpt><trkpt lat="42.8363122" lon="11.1480115"><ele>49.0</ele><time>2026-04-26T08:14:36.113Z</time></trkpt><trkpt lat="42.8363713" lon="11.1479516"><ele>49.0</ele><time>2026-04-26T08:14:37.124Z</time></trkpt><trkpt lat="42.8364575" lon="11.1479025"><ele>49.0</ele><time>2026-04-26T08:14:38.119Z</time></trkpt><trkpt lat="42.8365389" lon="11.1478503"><ele>49.0</ele><time>2026-04-26T08:14:39.116Z</time></trkpt><trkpt lat="42.83663" lon="11.1478229"><ele>49.0</ele><time>2026-04-26T08:14:40.141Z</time></trkpt><trkpt lat="42.8367343" lon="11.1478523"><ele>49.0</ele><time>2026-04-26T08:14:41.124Z</time></trkpt><trkpt lat="42.8368189" lon="11.1479255"><ele>49.25</ele><time>2026-04-26T08:14:42.115Z</time></trkpt><trkpt lat="42.8368732" lon="11.1480439"><ele>49.5</ele><time>2026-04-26T08:14:43.118Z</time></trkpt><trkpt lat="42.8369031" lon="11.1482039"><ele>49.75</ele><time>2026-04-26T08:14:44.121Z</time></trkpt><trkpt lat="42.836931" lon="11.1483838"><ele>50.0</ele><time>2026-04-26T08:14:45.122Z</time></trkpt><trkpt lat="42.8369931" lon="11.1485464"><ele>49.5</ele><time>2026-04-26T08:14:46.121Z</time></trkpt><trkpt lat="42.8370695" lon="11.1487006"><ele>49.0</ele><time>2026-04-26T08:14:47.123Z</time></trkpt><trkpt lat="42.8371559" lon="11.1488625"><ele>48.5</ele><time>2026-04-26T08:14:48.117Z</time></trkpt><trkpt lat="42.8372641" lon="11.1490163"><ele>48.0</ele><time>2026-04-26T08:14:49.12Z</time></trkpt><trkpt lat="42.8373837" lon="11.1491679"><ele>48.0</ele><time>2026-04-26T08:14:50.12Z</time></trkpt><trkpt lat="42.8375086" lon="11.1493086"><ele>48.0</ele><time>2026-04-26T08:14:51.118Z</time></trkpt><trkpt lat="42.8376386" lon="11.1494485"><ele>48.0</ele><time>2026-04-26T08:14:52.124Z</time></trkpt><trkpt lat="42.8377706" lon="11.1496028"><ele>49.33333333333333</ele><time>2026-04-26T08:14:53.116Z</time></trkpt><trkpt lat="42.8379014" lon="11.1497581"><ele>50.666666666666664</ele><time>2026-04-26T08:14:54.152Z</time></trkpt><trkpt lat="42.8380349" lon="11.1499101"><ele>52.0</ele><time>2026-04-26T08:14:55.119Z</time></trkpt><trkpt lat="42.8381713" lon="11.1500473"><ele>52.0</ele><time>2026-04-26T08:14:56.117Z</time></trkpt><trkpt lat="42.8383142" lon="11.1501821"><ele>52.0</ele><time>2026-04-26T08:14:57.124Z</time></trkpt><trkpt lat="42.8384572" lon="11.1503121"><ele>52.0</ele><time>2026-04-26T08:14:58.119Z</time></trkpt><trkpt lat="42.8386048" lon="11.1504422"><ele>53.666666666666664</ele><time>2026-04-26T08:14:59.126Z</time></trkpt><trkpt lat="42.8387428" lon="11.1505685"><ele>55.33333333333333</ele><time>2026-04-26T08:15:00.123Z</time></trkpt><trkpt lat="42.8388859" lon="11.1506904"><ele>57.0</ele><time>2026-04-26T08:15:01.119Z</time></trkpt><trkpt lat="42.8390334" lon="11.1508207"><ele>57.0</ele><time>2026-04-26T08:15:02.121Z</time></trkpt><trkpt lat="42.8391909" lon="11.150952"><ele>57.0</ele><time>2026-04-26T08:15:03.119Z</time></trkpt><trkpt lat="42.8393493" lon="11.1510928"><ele>57.0</ele><time>2026-04-26T08:15:04.161Z</time></trkpt><trkpt lat="42.8395124" lon="11.1512337"><ele>56.0</ele><time>2026-04-26T08:15:05.112Z</time></trkpt><trkpt lat="42.8396783" lon="11.1513772"><ele>55.0</ele><time>2026-04-26T08:15:06.121Z</time></trkpt><trkpt lat="42.8398478" lon="11.1515222"><ele>54.0</ele><time>2026-04-26T08:15:07.116Z</time></trkpt><trkpt lat="42.8400183" lon="11.1516718"><ele>54.33333333333333</ele><time>2026-04-26T08:15:08.117Z</time></trkpt><trkpt lat="42.8401878" lon="11.1518161"><ele>54.666666666666664</ele><time>2026-04-26T08:15:09.112Z</time></trkpt><trkpt lat="42.8403635" lon="11.151963"><ele>55.0</ele><time>2026-04-26T08:15:10.114Z</time></trkpt><trkpt lat="42.8405367" lon="11.1521067"><ele>55.0</ele><time>2026-04-26T08:15:11.111Z</time></trkpt><trkpt lat="42.8407074" lon="11.1522542"><ele>55.0</ele><time>2026-04-26T08:15:12.114Z</time></trkpt><trkpt lat="42.8408787" lon="11.1523954"><ele>55.0</ele><time>2026-04-26T08:15:13.118Z</time></trkpt><trkpt lat="42.8410466" lon="11.1525353"><ele>55.0</ele><time>2026-04-26T08:15:14.117Z</time></trkpt><trkpt lat="42.841214" lon="11.1526728"><ele>55.0</ele><time>2026-04-26T08:15:15.123Z</time></trkpt><trkpt lat="42.8413848" lon="11.1528032"><ele>55.0</ele><time>2026-04-26T08:15:16.134Z</time></trkpt><trkpt lat="42.8415563" lon="11.1529246"><ele>55.0</ele><time>2026-04-26T08:15:17.115Z</time></trkpt><trkpt lat="42.8417303" lon="11.1530427"><ele>55.0</ele><time>2026-04-26T08:15:18.116Z</time></trkpt><trkpt lat="42.8419034" lon="11.1531588"><ele>55.0</ele><time>2026-04-26T08:15:19.117Z</time></trkpt><trkpt lat="42.8420771" lon="11.1532726"><ele>54.33333333333333</ele><time>2026-04-26T08:15:20.121Z</time></trkpt><trkpt lat="42.84225" lon="11.1533841"><ele>53.66666666666667</ele><time>2026-04-26T08:15:21.131Z</time></trkpt><trkpt lat="42.8424216" lon="11.1534863"><ele>53.0</ele><time>2026-04-26T08:15:22.122Z</time></trkpt><trkpt lat="42.8425909" lon="11.1535848"><ele>53.66666666666667</ele><time>2026-04-26T08:15:23.115Z</time></trkpt><trkpt lat="42.842758" lon="11.1536847"><ele>54.33333333333333</ele><time>2026-04-26T08:15:24.12Z</time></trkpt><trkpt lat="42.8429229" lon="11.1537854"><ele>55.0</ele><time>2026-04-26T08:15:25.124Z</time></trkpt><trkpt lat="42.8430833" lon="11.1538904"><ele>55.0</ele><time>2026-04-26T08:15:26.12Z</time></trkpt><trkpt lat="42.8432423" lon="11.1539906"><ele>55.0</ele><time>2026-04-26T08:15:27.118Z</time></trkpt><trkpt lat="42.8433996" lon="11.1540906"><ele>55.0</ele><time>2026-04-26T08:15:28.117Z</time></trkpt><trkpt lat="42.843554" lon="11.1541896"><ele>55.33333333333333</ele><time>2026-04-26T08:15:29.116Z</time></trkpt><trkpt lat="42.8437075" lon="11.1542884"><ele>55.66666666666667</ele><time>2026-04-26T08:15:30.119Z</time></trkpt><trkpt lat="42.8438589" lon="11.154383"><ele>56.0</ele><time>2026-04-26T08:15:31.122Z</time></trkpt><trkpt lat="42.844006" lon="11.1544795"><ele>56.0</ele><time>2026-04-26T08:15:32.124Z</time></trkpt><trkpt lat="42.8441483" lon="11.1545756"><ele>56.0</ele><time>2026-04-26T08:15:33.122Z</time></trkpt><trkpt lat="42.8442955" lon="11.1546686"><ele>56.0</ele><time>2026-04-26T08:15:34.119Z</time></trkpt><trkpt lat="42.8444464" lon="11.1547702"><ele>56.0</ele><time>2026-04-26T08:15:35.12Z</time></trkpt><trkpt lat="42.8445974" lon="11.1548778"><ele>56.0</ele><time>2026-04-26T08:15:36.118Z</time></trkpt><trkpt lat="42.844756" lon="11.1549805"><ele>56.0</ele><time>2026-04-26T08:15:37.123Z</time></trkpt><trkpt lat="42.8449185" lon="11.1550884"><ele>56.0</ele><time>2026-04-26T08:15:38.126Z</time></trkpt><trkpt lat="42.8450854" lon="11.1551907"><ele>56.0</ele><time>2026-04-26T08:15:39.12Z</time></trkpt><trkpt lat="42.8452512" lon="11.1552987"><ele>56.0</ele><time>2026-04-26T08:15:40.152Z</time></trkpt><trkpt lat="42.8454201" lon="11.1554132"><ele>56.0</ele><time>2026-04-26T08:15:41.121Z</time></trkpt><trkpt lat="42.8455929" lon="11.1555182"><ele>56.0</ele><time>2026-04-26T08:15:42.122Z</time></trkpt><trkpt lat="42.8457662" lon="11.1556281"><ele>56.0</ele><time>2026-04-26T08:15:43.125Z</time></trkpt><trkpt lat="42.8459386" lon="11.1557393"><ele>56.333333333333336</ele><time>2026-04-26T08:15:44.115Z</time></trkpt><trkpt lat="42.8461165" lon="11.1558479"><ele>56.66666666666667</ele><time>2026-04-26T08:15:45.122Z</time></trkpt><trkpt lat="42.8462958" lon="11.155969"><ele>57.0</ele><time>2026-04-26T08:15:46.122Z</time></trkpt><trkpt lat="42.8464683" lon="11.1560836"><ele>57.0</ele><time>2026-04-26T08:15:47.123Z</time></trkpt><trkpt lat="42.8466395" lon="11.1561975"><ele>57.0</ele><time>2026-04-26T08:15:48.123Z</time></trkpt><trkpt lat="42.8468102" lon="11.1563109"><ele>57.0</ele><time>2026-04-26T08:15:49.116Z</time></trkpt><trkpt lat="42.8469827" lon="11.1564197"><ele>57.66666666666667</ele><time>2026-04-26T08:15:50.125Z</time></trkpt><trkpt lat="42.8471531" lon="11.1565255"><ele>58.333333333333336</ele><time>2026-04-26T08:15:51.122Z</time></trkpt><trkpt lat="42.8473241" lon="11.1566371"><ele>59.0</ele><time>2026-04-26T08:15:52.123Z</time></trkpt><trkpt lat="42.8474978" lon="11.1567414"><ele>60.0</ele><time>2026-04-26T08:15:53.119Z</time></trkpt><trkpt lat="42.8476666" lon="11.1568526"><ele>61.0</ele><time>2026-04-26T08:15:54.119Z</time></trkpt><trkpt lat="42.8478376" lon="11.1569638"><ele>62.0</ele><time>2026-04-26T08:15:55.119Z</time></trkpt><trkpt lat="42.8480037" lon="11.1570763"><ele>62.0</ele><time>2026-04-26T08:15:56.127Z</time></trkpt><trkpt lat="42.8481715" lon="11.1571822"><ele>62.0</ele><time>2026-04-26T08:15:57.121Z</time></trkpt><trkpt lat="42.8483409" lon="11.15728"><ele>62.0</ele><time>2026-04-26T08:15:58.158Z</time></trkpt><trkpt lat="42.848511" lon="11.1573655"><ele>62.66666666666667</ele><time>2026-04-26T08:15:59.117Z</time></trkpt><trkpt lat="42.848686" lon="11.1574353"><ele>63.33333333333333</ele><time>2026-04-26T08:16:00.119Z</time></trkpt><trkpt lat="42.8488674" lon="11.1574925"><ele>64.0</ele><time>2026-04-26T08:16:01.119Z</time></trkpt><trkpt lat="42.8490575" lon="11.1575415"><ele>64.0</ele><time>2026-04-26T08:16:02.125Z</time></trkpt><trkpt lat="42.849241" lon="11.1575958"><ele>64.0</ele><time>2026-04-26T08:16:03.119Z</time></trkpt><trkpt lat="42.8494284" lon="11.1576411"><ele>64.0</ele><time>2026-04-26T08:16:04.135Z</time></trkpt><trkpt lat="42.8496183" lon="11.1576868"><ele>65.0</ele><time>2026-04-26T08:16:05.119Z</time></trkpt><trkpt lat="42.8498026" lon="11.1577402"><ele>66.0</ele><time>2026-04-26T08:16:06.12Z</time></trkpt><trkpt lat="42.8499753" lon="11.1578031"><ele>67.0</ele><time>2026-04-26T08:16:07.119Z</time></trkpt><trkpt lat="42.8501407" lon="11.1579016"><ele>68.33333333333333</ele><time>2026-04-26T08:16:08.122Z</time></trkpt><trkpt lat="42.8502984" lon="11.1580225"><ele>69.66666666666667</ele><time>2026-04-26T08:16:09.143Z</time></trkpt><trkpt lat="42.8504488" lon="11.1581672"><ele>71.0</ele><time>2026-04-26T08:16:10.122Z</time></trkpt><trkpt lat="42.85059" lon="11.1583172"><ele>71.0</ele><time>2026-04-26T08:16:11.117Z</time></trkpt><trkpt lat="42.8507372" lon="11.158466"><ele>71.0</ele><time>2026-04-26T08:16:12.129Z</time></trkpt><trkpt lat="42.8508848" lon="11.1586228"><ele>71.0</ele><time>2026-04-26T08:16:13.119Z</time></trkpt><trkpt lat="42.8510326" lon="11.158775"><ele>72.0</ele><time>2026-04-26T08:16:14.126Z</time></trkpt><trkpt lat="42.8511801" lon="11.1589274"><ele>73.0</ele><time>2026-04-26T08:16:15.119Z</time></trkpt><trkpt lat="42.8513264" lon="11.1590859"><ele>74.0</ele><time>2026-04-26T08:16:16.137Z</time></trkpt><trkpt lat="42.8514738" lon="11.1592369"><ele>74.0</ele><time>2026-04-26T08:16:17.129Z</time></trkpt><trkpt lat="42.8516229" lon="11.1593859"><ele>74.0</ele><time>2026-04-26T08:16:18.128Z</time></trkpt><trkpt lat="42.8517715" lon="11.1595323"><ele>74.0</ele><time>2026-04-26T08:16:19.121Z</time></trkpt><trkpt lat="42.8519191" lon="11.1596832"><ele>74.33333333333334</ele><time>2026-04-26T08:16:20.121Z</time></trkpt><trkpt lat="42.852067" lon="11.1598274"><ele>74.66666666666667</ele><time>2026-04-26T08:16:21.118Z</time></trkpt><trkpt lat="42.8522139" lon="11.1599754"><ele>75.0</ele><time>2026-04-26T08:16:22.123Z</time></trkpt><trkpt lat="42.8523569" lon="11.1601235"><ele>75.0</ele><time>2026-04-26T08:16:23.129Z</time></trkpt><trkpt lat="42.8525033" lon="11.1602717"><ele>75.0</ele><time>2026-04-26T08:16:24.117Z</time></trkpt><trkpt lat="42.8526518" lon="11.1604233"><ele>75.0</ele><time>2026-04-26T08:16:25.118Z</time></trkpt><trkpt lat="42.8528039" lon="11.1605686"><ele>76.0</ele><time>2026-04-26T08:16:26.132Z</time></trkpt><trkpt lat="42.8529561" lon="11.1607112"><ele>77.0</ele><time>2026-04-26T08:16:27.126Z</time></trkpt><trkpt lat="42.8531083" lon="11.1608555"><ele>78.0</ele><time>2026-04-26T08:16:28.12Z</time></trkpt><trkpt lat="42.8532686" lon="11.1609875"><ele>78.0</ele><time>2026-04-26T08:16:29.155Z</time></trkpt><trkpt lat="42.8534348" lon="11.1611081"><ele>78.0</ele><time>2026-04-26T08:16:30.128Z</time></trkpt><trkpt lat="42.853604" lon="11.161217"><ele>78.0</ele><time>2026-04-26T08:16:31.12Z</time></trkpt><trkpt lat="42.8537776" lon="11.1613165"><ele>78.66666666666667</ele><time>2026-04-26T08:16:32.128Z</time></trkpt><trkpt lat="42.8539628" lon="11.1613837"><ele>79.33333333333334</ele><time>2026-04-26T08:16:33.12Z</time></trkpt><trkpt lat="42.8541506" lon="11.1614382"><ele>80.0</ele><time>2026-04-26T08:16:34.164Z</time></trkpt><trkpt lat="42.8543415" lon="11.1614749"><ele>79.66666666666667</ele><time>2026-04-26T08:16:35.114Z</time></trkpt><trkpt lat="42.8545328" lon="11.1615089"><ele>79.33333333333333</ele><time>2026-04-26T08:16:36.12Z</time></trkpt><trkpt lat="42.8547194" lon="11.1615429"><ele>79.0</ele><time>2026-04-26T08:16:37.119Z</time></trkpt><trkpt lat="42.8549117" lon="11.1615804"><ele>79.0</ele><time>2026-04-26T08:16:38.116Z</time></trkpt><trkpt lat="42.8551058" lon="11.1616159"><ele>79.0</ele><time>2026-04-26T08:16:39.122Z</time></trkpt><trkpt lat="42.8552998" lon="11.1616521"><ele>79.0</ele><time>2026-04-26T08:16:40.126Z</time></trkpt><trkpt lat="42.8554917" lon="11.1616873"><ele>80.0</ele><time>2026-04-26T08:16:41.167Z</time></trkpt><trkpt lat="42.8556881" lon="11.1617219"><ele>81.0</ele><time>2026-04-26T08:16:42.115Z</time></trkpt><trkpt lat="42.85588" lon="11.1617655"><ele>82.0</ele><time>2026-04-26T08:16:43.124Z</time></trkpt><trkpt lat="42.8560679" lon="11.1618023"><ele>82.33333333333333</ele><time>2026-04-26T08:16:44.126Z</time></trkpt><trkpt lat="42.8562573" lon="11.1618419"><ele>82.66666666666667</ele><time>2026-04-26T08:16:45.119Z</time></trkpt><trkpt lat="42.8564401" lon="11.161881"><ele>83.0</ele><time>2026-04-26T08:16:46.121Z</time></trkpt><trkpt lat="42.8566288" lon="11.1619359"><ele>83.66666666666667</ele><time>2026-04-26T08:16:47.127Z</time></trkpt><trkpt lat="42.8568066" lon="11.1620121"><ele>84.33333333333333</ele><time>2026-04-26T08:16:48.124Z</time></trkpt><trkpt lat="42.8569913" lon="11.1620957"><ele>85.0</ele><time>2026-04-26T08:16:49.127Z</time></trkpt><trkpt lat="42.8571683" lon="11.162184"><ele>85.0</ele><time>2026-04-26T08:16:50.119Z</time></trkpt><trkpt lat="42.8573429" lon="11.1622702"><ele>85.0</ele><time>2026-04-26T08:16:51.127Z</time></trkpt><trkpt lat="42.8575179" lon="11.1623614"><ele>85.0</ele><time>2026-04-26T08:16:52.129Z</time></trkpt><trkpt lat="42.8576934" lon="11.1624502"><ele>86.66666666666666</ele><time>2026-04-26T08:16:53.126Z</time></trkpt><trkpt lat="42.8578674" lon="11.1625305"><ele>88.33333333333333</ele><time>2026-04-26T08:16:54.127Z</time></trkpt><trkpt lat="42.8580416" lon="11.1626192"><ele>90.0</ele><time>2026-04-26T08:16:55.126Z</time></trkpt><trkpt lat="42.8582175" lon="11.1627114"><ele>90.0</ele><time>2026-04-26T08:16:56.137Z</time></trkpt><trkpt lat="42.8583941" lon="11.1628036"><ele>90.0</ele><time>2026-04-26T08:16:57.127Z</time></trkpt><trkpt lat="42.8585699" lon="11.1628952"><ele>90.0</ele><time>2026-04-26T08:16:58.117Z</time></trkpt><trkpt lat="42.8587469" lon="11.1629859"><ele>90.66666666666667</ele><time>2026-04-26T08:16:59.126Z</time></trkpt><trkpt lat="42.8589217" lon="11.1630724"><ele>91.33333333333334</ele><time>2026-04-26T08:17:00.113Z</time></trkpt><trkpt lat="42.8591001" lon="11.163158"><ele>92.0</ele><time>2026-04-26T08:17:01.145Z</time></trkpt><trkpt lat="42.8592772" lon="11.1632505"><ele>94.33333333333334</ele><time>2026-04-26T08:17:02.12Z</time></trkpt><trkpt lat="42.8594532" lon="11.1633393"><ele>96.66666666666667</ele><time>2026-04-26T08:17:03.126Z</time></trkpt><trkpt lat="42.8596356" lon="11.1634268"><ele>99.0</ele><time>2026-04-26T08:17:04.121Z</time></trkpt><trkpt lat="42.8598193" lon="11.1635157"><ele>99.0</ele><time>2026-04-26T08:17:05.117Z</time></trkpt><trkpt lat="42.8600044" lon="11.1636112"><ele>99.0</ele><time>2026-04-26T08:17:06.119Z</time></trkpt><trkpt lat="42.860188" lon="11.1637076"><ele>99.0</ele><time>2026-04-26T08:17:07.151Z</time></trkpt><trkpt lat="42.8603712" lon="11.1638008"><ele>99.33333333333334</ele><time>2026-04-26T08:17:08.118Z</time></trkpt><trkpt lat="42.8605592" lon="11.1638861"><ele>99.66666666666667</ele><time>2026-04-26T08:17:09.117Z</time></trkpt><trkpt lat="42.8607413" lon="11.1639764"><ele>100.0</ele><time>2026-04-26T08:17:10.121Z</time></trkpt><trkpt lat="42.8609278" lon="11.1640658"><ele>101.33333333333334</ele><time>2026-04-26T08:17:11.119Z</time></trkpt><trkpt lat="42.8611104" lon="11.1641582"><ele>102.66666666666666</ele><time>2026-04-26T08:17:12.117Z</time></trkpt><trkpt lat="42.8612964" lon="11.1642464"><ele>104.0</ele><time>2026-04-26T08:17:13.115Z</time></trkpt><trkpt lat="42.8614834" lon="11.1643334"><ele>104.0</ele><time>2026-04-26T08:17:14.149Z</time></trkpt><trkpt lat="42.8616669" lon="11.164423"><ele>104.0</ele><time>2026-04-26T08:17:15.114Z</time></trkpt><trkpt lat="42.8618463" lon="11.164513"><ele>104.0</ele><time>2026-04-26T08:17:16.128Z</time></trkpt><trkpt lat="42.8620272" lon="11.1645969"><ele>103.33333333333333</ele><time>2026-04-26T08:17:17.125Z</time></trkpt><trkpt lat="42.86219" lon="11.1646742"><ele>102.66666666666666</ele><time>2026-04-26T08:17:18.118Z</time></trkpt><trkpt lat="42.8623505" lon="11.1647482"><ele>102.0</ele><time>2026-04-26T08:17:19.132Z</time></trkpt><trkpt lat="42.862506" lon="11.1648114"><ele>102.25</ele><time>2026-04-26T08:17:20.119Z</time></trkpt><trkpt lat="42.8626568" lon="11.1648624"><ele>102.5</ele><time>2026-04-26T08:17:21.117Z</time></trkpt><trkpt lat="42.8628006" lon="11.1649107"><ele>102.75</ele><time>2026-04-26T08:17:22.121Z</time></trkpt><trkpt lat="42.8629377" lon="11.1649357"><ele>103.0</ele><time>2026-04-26T08:17:23.118Z</time></trkpt><trkpt lat="42.8630754" lon="11.1649518"><ele>104.25</ele><time>2026-04-26T08:17:24.158Z</time></trkpt><trkpt lat="42.8632136" lon="11.1649661"><ele>105.5</ele><time>2026-04-26T08:17:25.124Z</time></trkpt><trkpt lat="42.8633366" lon="11.1649851"><ele>106.75</ele><time>2026-04-26T08:17:26.123Z</time></trkpt><trkpt lat="42.8634602" lon="11.1650026"><ele>108.0</ele><time>2026-04-26T08:17:27.12Z</time></trkpt><trkpt lat="42.8635777" lon="11.165013"><ele>108.25</ele><time>2026-04-26T08:17:28.121Z</time></trkpt><trkpt lat="42.8636962" lon="11.165028"><ele>108.5</ele><time>2026-04-26T08:17:29.121Z</time></trkpt><trkpt lat="42.8638146" lon="11.1650399"><ele>108.75</ele><time>2026-04-26T08:17:30.127Z</time></trkpt><trkpt lat="42.863939" lon="11.1650499"><ele>109.0</ele><time>2026-04-26T08:17:31.125Z</time></trkpt><trkpt lat="42.864065" lon="11.1650599"><ele>109.0</ele><time>2026-04-26T08:17:32.123Z</time></trkpt><trkpt lat="42.8641946" lon="11.1650755"><ele>109.0</ele><time>2026-04-26T08:17:33.138Z</time></trkpt><trkpt lat="42.8643186" lon="11.1650934"><ele>109.0</ele><time>2026-04-26T08:17:34.123Z</time></trkpt><trkpt lat="42.8644437" lon="11.1651044"><ele>109.0</ele><time>2026-04-26T08:17:35.124Z</time></trkpt><trkpt lat="42.8645727" lon="11.1651203"><ele>110.25</ele><time>2026-04-26T08:17:36.121Z</time></trkpt><trkpt lat="42.8647066" lon="11.1651328"><ele>111.5</ele><time>2026-04-26T08:17:37.122Z</time></trkpt><trkpt lat="42.8648343" lon="11.1651476"><ele>112.75</ele><time>2026-04-26T08:17:38.117Z</time></trkpt><trkpt lat="42.8649494" lon="11.1651621"><ele>114.0</ele><time>2026-04-26T08:17:39.114Z</time></trkpt><trkpt lat="42.8650547" lon="11.1651767"><ele>115.83333333333333</ele><time>2026-04-26T08:17:40.118Z</time></trkpt><trkpt lat="42.865149" lon="11.165191"><ele>117.66666666666666</ele><time>2026-04-26T08:17:41.119Z</time></trkpt><trkpt lat="42.8652208" lon="11.1652039"><ele>119.5</ele><time>2026-04-26T08:17:42.124Z</time></trkpt><trkpt lat="42.8652912" lon="11.1652746"><ele>121.33333333333333</ele><time>2026-04-26T08:17:44.144Z</time></trkpt><trkpt lat="42.865287" lon="11.1653752"><ele>123.16666666666666</ele><time>2026-04-26T08:17:46.119Z</time></trkpt><trkpt lat="42.8652759" lon="11.1654688"><ele>125.0</ele><time>2026-04-26T08:17:49.148Z</time></trkpt><trkpt lat="42.8652217" lon="11.1655716"><ele>125.0</ele><time>2026-04-26T08:21:41.125Z</time></trkpt><trkpt lat="42.8651392" lon="11.1656616"><ele>125.0</ele><time>2026-04-26T08:21:43.152Z</time></trkpt><trkpt lat="42.8650498" lon="11.1657687"><ele>125.0</ele><time>2026-04-26T08:21:45.124Z</time></trkpt><trkpt lat="42.8649755" lon="11.1658859"><ele>125.0</ele><time>2026-04-26T08:21:47.131Z</time></trkpt><trkpt lat="42.8648949" lon="11.1660245"><ele>122.8</ele><time>2026-04-26T08:21:49.117Z</time></trkpt><trkpt lat="42.8648548" lon="11.1660983"><ele>120.6</ele><time>2026-04-26T08:21:50.134Z</time></trkpt><trkpt lat="42.864815" lon="11.1661731"><ele>118.4</ele><time>2026-04-26T08:21:51.132Z</time></trkpt><trkpt lat="42.8647837" lon="11.1662529"><ele>116.2</ele><time>2026-04-26T08:21:52.117Z</time></trkpt><trkpt lat="42.8647365" lon="11.1664097"><ele>114.0</ele><time>2026-04-26T08:21:54.117Z</time></trkpt><trkpt lat="42.8647136" lon="11.1665807"><ele>113.57142857142857</ele><time>2026-04-26T08:21:56.126Z</time></trkpt><trkpt lat="42.8647051" lon="11.1666688"><ele>113.14285714285714</ele><time>2026-04-26T08:21:57.131Z</time></trkpt><trkpt lat="42.8646947" lon="11.1667589"><ele>112.71428571428571</ele><time>2026-04-26T08:21:58.132Z</time></trkpt><trkpt lat="42.8646735" lon="11.1668529"><ele>112.28571428571428</ele><time>2026-04-26T08:21:59.153Z</time></trkpt><trkpt lat="42.864656" lon="11.1669472"><ele>111.85714285714286</ele><time>2026-04-26T08:22:00.123Z</time></trkpt><trkpt lat="42.8646356" lon="11.1670389"><ele>111.42857142857142</ele><time>2026-04-26T08:22:01.126Z</time></trkpt><trkpt lat="42.8646139" lon="11.1671285"><ele>111.0</ele><time>2026-04-26T08:22:02.125Z</time></trkpt><trkpt lat="42.8645912" lon="11.1672215"><ele>111.0</ele><time>2026-04-26T08:22:03.127Z</time></trkpt><trkpt lat="42.8645657" lon="11.1673185"><ele>111.0</ele><time>2026-04-26T08:22:04.128Z</time></trkpt><trkpt lat="42.8645402" lon="11.1674152"><ele>111.0</ele><time>2026-04-26T08:22:05.121Z</time></trkpt><trkpt lat="42.864515" lon="11.1675136"><ele>111.0</ele><time>2026-04-26T08:22:06.117Z</time></trkpt><trkpt lat="42.8644898" lon="11.1676138"><ele>111.0</ele><time>2026-04-26T08:22:07.123Z</time></trkpt><trkpt lat="42.8644707" lon="11.1677113"><ele>111.0</ele><time>2026-04-26T08:22:08.123Z</time></trkpt><trkpt lat="42.8644521" lon="11.1678069"><ele>111.14285714285714</ele><time>2026-04-26T08:22:09.127Z</time></trkpt><trkpt lat="42.8644211" lon="11.1678993"><ele>111.28571428571429</ele><time>2026-04-26T08:22:10.125Z</time></trkpt><trkpt lat="42.8643858" lon="11.1679824"><ele>111.42857142857143</ele><time>2026-04-26T08:22:11.124Z</time></trkpt><trkpt lat="42.8643517" lon="11.1680671"><ele>111.57142857142857</ele><time>2026-04-26T08:22:12.142Z</time></trkpt><trkpt lat="42.8643259" lon="11.168163"><ele>111.71428571428572</ele><time>2026-04-26T08:22:13.123Z</time></trkpt><trkpt lat="42.8642955" lon="11.1682546"><ele>111.85714285714286</ele><time>2026-04-26T08:22:14.126Z</time></trkpt><trkpt lat="42.8642685" lon="11.1683458"><ele>112.0</ele><time>2026-04-26T08:22:15.123Z</time></trkpt><trkpt lat="42.86424" lon="11.1684285"><ele>110.50000000000001</ele><time>2026-04-26T08:22:16.116Z</time></trkpt><trkpt lat="42.8642088" lon="11.1685054"><ele>109.0</ele><time>2026-04-26T08:22:17.147Z</time></trkpt><trkpt lat="42.8641759" lon="11.1685852"><ele>107.5</ele><time>2026-04-26T08:22:18.124Z</time></trkpt><trkpt lat="42.8641387" lon="11.1686608"><ele>106.0</ele><time>2026-04-26T08:22:19.124Z</time></trkpt><trkpt lat="42.8640998" lon="11.1687337"><ele>104.50000000000001</ele><time>2026-04-26T08:22:20.117Z</time></trkpt><trkpt lat="42.8640167" lon="11.1688632"><ele>103.0</ele><time>2026-04-26T08:22:22.125Z</time></trkpt><trkpt lat="42.8639195" lon="11.1689677"><ele>103.00000000000001</ele><time>2026-04-26T08:22:24.12Z</time></trkpt><trkpt lat="42.8638042" lon="11.1690073"><ele>103.0</ele><time>2026-04-26T08:22:26.128Z</time></trkpt><trkpt lat="42.8637125" lon="11.1690153"><ele>103.0</ele><time>2026-04-26T08:22:28.15Z</time></trkpt><trkpt lat="42.8636423" lon="11.1689981"><ele>103.0</ele><time>2026-04-26T08:22:41.121Z</time></trkpt><trkpt lat="42.8635763" lon="11.1689823"><ele>103.00000000000001</ele><time>2026-04-26T08:22:50.122Z</time></trkpt><trkpt lat="42.8634812" lon="11.169003"><ele>103.0</ele><time>2026-04-26T08:22:52.121Z</time></trkpt><trkpt lat="42.8633469" lon="11.1690397"><ele>102.33333333333334</ele><time>2026-04-26T08:22:54.122Z</time></trkpt><trkpt lat="42.8632588" lon="11.1690457"><ele>101.66666666666667</ele><time>2026-04-26T08:22:55.12Z</time></trkpt><trkpt lat="42.8631663" lon="11.1690451"><ele>101.0</ele><time>2026-04-26T08:22:56.115Z</time></trkpt><trkpt lat="42.8630857" lon="11.1690558"><ele>100.33333333333334</ele><time>2026-04-26T08:22:57.137Z</time></trkpt><trkpt lat="42.8630021" lon="11.16906"><ele>99.66666666666667</ele><time>2026-04-26T08:22:58.121Z</time></trkpt><trkpt lat="42.8629234" lon="11.1690741"><ele>99.0</ele><time>2026-04-26T08:22:59.121Z</time></trkpt><trkpt lat="42.862849" lon="11.1690814"><ele>99.0</ele><time>2026-04-26T08:23:00.119Z</time></trkpt><trkpt lat="42.8627756" lon="11.1690951"><ele>99.0</ele><time>2026-04-26T08:23:01.121Z</time></trkpt><trkpt lat="42.86271" lon="11.1691187"><ele>99.0</ele><time>2026-04-26T08:23:02.124Z</time></trkpt><trkpt lat="42.8626494" lon="11.1691509"><ele>99.0</ele><time>2026-04-26T08:23:03.121Z</time></trkpt><trkpt lat="42.8625888" lon="11.1691868"><ele>99.0</ele><time>2026-04-26T08:23:04.116Z</time></trkpt><trkpt lat="42.8625305" lon="11.1692358"><ele>99.0</ele><time>2026-04-26T08:23:05.146Z</time></trkpt><trkpt lat="42.8624779" lon="11.1692862"><ele>99.0</ele><time>2026-04-26T08:23:06.123Z</time></trkpt><trkpt lat="42.8624226" lon="11.1693306"><ele>98.71428571428572</ele><time>2026-04-26T08:23:07.123Z</time></trkpt><trkpt lat="42.8623617" lon="11.1693642"><ele>98.42857142857142</ele><time>2026-04-26T08:23:08.124Z</time></trkpt><trkpt lat="42.8623004" lon="11.1693998"><ele>98.14285714285714</ele><time>2026-04-26T08:23:09.119Z</time></trkpt><trkpt lat="42.8622363" lon="11.1694216"><ele>97.85714285714286</ele><time>2026-04-26T08:23:10.129Z</time></trkpt><trkpt lat="42.862161" lon="11.1694321"><ele>97.57142857142858</ele><time>2026-04-26T08:23:11.12Z</time></trkpt><trkpt lat="42.8620793" lon="11.1694484"><ele>97.28571428571428</ele><time>2026-04-26T08:23:12.119Z</time></trkpt><trkpt lat="42.8619924" lon="11.1694563"><ele>97.0</ele><time>2026-04-26T08:23:13.122Z</time></trkpt><trkpt lat="42.8619049" lon="11.1694798"><ele>97.0</ele><time>2026-04-26T08:23:14.119Z</time></trkpt><trkpt lat="42.8618137" lon="11.169506"><ele>97.0</ele><time>2026-04-26T08:23:15.12Z</time></trkpt><trkpt lat="42.8617293" lon="11.1695411"><ele>97.0</ele><time>2026-04-26T08:23:16.136Z</time></trkpt><trkpt lat="42.8616434" lon="11.1695928"><ele>97.0</ele><time>2026-04-26T08:23:17.118Z</time></trkpt><trkpt lat="42.8615545" lon="11.169662"><ele>97.0</ele><time>2026-04-26T08:23:18.119Z</time></trkpt><trkpt lat="42.8614726" lon="11.1697432"><ele>97.19999999999999</ele><time>2026-04-26T08:23:19.116Z</time></trkpt><trkpt lat="42.8614083" lon="11.1698395"><ele>97.4</ele><time>2026-04-26T08:23:20.122Z</time></trkpt><trkpt lat="42.8613506" lon="11.1699406"><ele>97.6</ele><time>2026-04-26T08:23:21.127Z</time></trkpt><trkpt lat="42.8613115" lon="11.1700588"><ele>97.80000000000001</ele><time>2026-04-26T08:23:22.12Z</time></trkpt><trkpt lat="42.8612799" lon="11.1701806"><ele>98.0</ele><time>2026-04-26T08:23:23.125Z</time></trkpt><trkpt lat="42.8612491" lon="11.1703096"><ele>98.0</ele><time>2026-04-26T08:23:24.122Z</time></trkpt><trkpt lat="42.8612155" lon="11.1704331"><ele>98.0</ele><time>2026-04-26T08:23:25.14Z</time></trkpt><trkpt lat="42.8611668" lon="11.1705391"><ele>98.0</ele><time>2026-04-26T08:23:26.121Z</time></trkpt><trkpt lat="42.8611127" lon="11.1706328"><ele>98.0</ele><time>2026-04-26T08:23:27.115Z</time></trkpt><trkpt lat="42.861056" lon="11.1707336"><ele>98.0</ele><time>2026-04-26T08:23:28.121Z</time></trkpt><trkpt lat="42.8609965" lon="11.1708297"><ele>97.49999999999999</ele><time>2026-04-26T08:23:29.122Z</time></trkpt><trkpt lat="42.8609463" lon="11.1709324"><ele>97.0</ele><time>2026-04-26T08:23:30.116Z</time></trkpt><trkpt lat="42.8608995" lon="11.1710377"><ele>96.5</ele><time>2026-04-26T08:23:31.122Z</time></trkpt><trkpt lat="42.8608582" lon="11.171142"><ele>96.0</ele><time>2026-04-26T08:23:32.121Z</time></trkpt><trkpt lat="42.8608159" lon="11.1712441"><ele>95.5</ele><time>2026-04-26T08:23:33.175Z</time></trkpt><trkpt lat="42.860788" lon="11.1713539"><ele>95.0</ele><time>2026-04-26T08:23:34.118Z</time></trkpt><trkpt lat="42.8607567" lon="11.171462"><ele>95.33333333333334</ele><time>2026-04-26T08:23:35.122Z</time></trkpt><trkpt lat="42.8607306" lon="11.1715592"><ele>95.66666666666667</ele><time>2026-04-26T08:23:36.123Z</time></trkpt><trkpt lat="42.8607158" lon="11.1716574"><ele>96.0</ele><time>2026-04-26T08:23:37.122Z</time></trkpt><trkpt lat="42.8607121" lon="11.1718216"><ele>96.33333333333334</ele><time>2026-04-26T08:23:39.14Z</time></trkpt><trkpt lat="42.8607068" lon="11.1719726"><ele>96.66666666666667</ele><time>2026-04-26T08:23:41.121Z</time></trkpt><trkpt lat="42.8607091" lon="11.1720594"><ele>97.0</ele><time>2026-04-26T08:23:42.121Z</time></trkpt><trkpt lat="42.8606974" lon="11.1721656"><ele>97.0</ele><time>2026-04-26T08:23:43.119Z</time></trkpt><trkpt lat="42.8606852" lon="11.1722847"><ele>97.0</ele><time>2026-04-26T08:23:44.12Z</time></trkpt><trkpt lat="42.8606684" lon="11.1724106"><ele>97.0</ele><time>2026-04-26T08:23:45.123Z</time></trkpt><trkpt lat="42.86065" lon="11.1725434"><ele>97.0</ele><time>2026-04-26T08:23:46.118Z</time></trkpt><trkpt lat="42.8606274" lon="11.1726659"><ele>97.0</ele><time>2026-04-26T08:23:47.117Z</time></trkpt><trkpt lat="42.8605986" lon="11.1727826"><ele>97.00000000000001</ele><time>2026-04-26T08:23:48.12Z</time></trkpt><trkpt lat="42.8605784" lon="11.172895"><ele>97.0</ele><time>2026-04-26T08:23:49.114Z</time></trkpt><trkpt lat="42.8605574" lon="11.1729874"><ele>97.0</ele><time>2026-04-26T08:23:50.125Z</time></trkpt><trkpt lat="42.8605497" lon="11.1730732"><ele>97.0</ele><time>2026-04-26T08:23:51.118Z</time></trkpt><trkpt lat="42.8605664" lon="11.1732158"><ele>97.00000000000001</ele><time>2026-04-26T08:23:53.117Z</time></trkpt><trkpt lat="42.8605868" lon="11.173372"><ele>97.0</ele><time>2026-04-26T08:23:55.12Z</time></trkpt><trkpt lat="42.8605975" lon="11.1734595"><ele>97.0</ele><time>2026-04-26T08:23:56.115Z</time></trkpt><trkpt lat="42.860611" lon="11.1735596"><ele>97.0</ele><time>2026-04-26T08:23:57.119Z</time></trkpt><trkpt lat="42.8606234" lon="11.1736576"><ele>97.0</ele><time>2026-04-26T08:23:58.118Z</time></trkpt><trkpt lat="42.8606322" lon="11.1737596"><ele>97.0</ele><time>2026-04-26T08:23:59.118Z</time></trkpt><trkpt lat="42.8606397" lon="11.173849"><ele>97.0</ele><time>2026-04-26T08:24:00.119Z</time></trkpt><trkpt lat="42.8606257" lon="11.1739468"><ele>97.0</ele><time>2026-04-26T08:24:01.118Z</time></trkpt><trkpt lat="42.8606086" lon="11.1740443"><ele>97.0</ele><time>2026-04-26T08:24:02.117Z</time></trkpt><trkpt lat="42.8605846" lon="11.1741345"><ele>97.50000000000001</ele><time>2026-04-26T08:24:03.118Z</time></trkpt><trkpt lat="42.8605564" lon="11.174239"><ele>98.0</ele><time>2026-04-26T08:24:04.143Z</time></trkpt><trkpt lat="42.8605208" lon="11.174348"><ele>98.5</ele><time>2026-04-26T08:24:05.116Z</time></trkpt><trkpt lat="42.860488" lon="11.1744516"><ele>99.0</ele><time>2026-04-26T08:24:06.122Z</time></trkpt><trkpt lat="42.8604553" lon="11.1745512"><ele>99.50000000000001</ele><time>2026-04-26T08:24:07.115Z</time></trkpt><trkpt lat="42.8604226" lon="11.1746587"><ele>100.0</ele><time>2026-04-26T08:24:08.117Z</time></trkpt><trkpt lat="42.8603895" lon="11.1747621"><ele>101.50000000000001</ele><time>2026-04-26T08:24:09.122Z</time></trkpt><trkpt lat="42.8603563" lon="11.1748705"><ele>103.0</ele><time>2026-04-26T08:24:10.163Z</time></trkpt><trkpt lat="42.8603153" lon="11.1749654"><ele>104.5</ele><time>2026-04-26T08:24:11.119Z</time></trkpt><trkpt lat="42.8602673" lon="11.1750489"><ele>106.0</ele><time>2026-04-26T08:24:12.114Z</time></trkpt><trkpt lat="42.8602173" lon="11.1751303"><ele>107.50000000000001</ele><time>2026-04-26T08:24:13.12Z</time></trkpt><trkpt lat="42.8601753" lon="11.1752165"><ele>109.0</ele><time>2026-04-26T08:24:14.12Z</time></trkpt><trkpt lat="42.8601347" lon="11.175312"><ele>107.83333333333334</ele><time>2026-04-26T08:24:15.118Z</time></trkpt><trkpt lat="42.8601058" lon="11.1754064"><ele>106.66666666666667</ele><time>2026-04-26T08:24:16.119Z</time></trkpt><trkpt lat="42.8600743" lon="11.1755076"><ele>105.5</ele><time>2026-04-26T08:24:17.121Z</time></trkpt><trkpt lat="42.8600511" lon="11.1756143"><ele>104.33333333333334</ele><time>2026-04-26T08:24:18.114Z</time></trkpt><trkpt lat="42.860034" lon="11.1757305"><ele>103.16666666666667</ele><time>2026-04-26T08:24:19.117Z</time></trkpt><trkpt lat="42.8600156" lon="11.1758424"><ele>102.0</ele><time>2026-04-26T08:24:20.115Z</time></trkpt><trkpt lat="42.8599937" lon="11.1759554"><ele>102.0</ele><time>2026-04-26T08:24:21.137Z</time></trkpt><trkpt lat="42.8599734" lon="11.1760554"><ele>102.0</ele><time>2026-04-26T08:24:22.119Z</time></trkpt><trkpt lat="42.8599673" lon="11.1762082"><ele>102.0</ele><time>2026-04-26T08:24:24.12Z</time></trkpt><trkpt lat="42.8599557" lon="11.1763289"><ele>102.0</ele><time>2026-04-26T08:24:26.129Z</time></trkpt><trkpt lat="42.8599096" lon="11.1764004"><ele>102.0</ele><time>2026-04-26T08:24:29.116Z</time></trkpt><trkpt lat="42.8598718" lon="11.1764859"><ele>102.0</ele><time>2026-04-26T08:24:31.123Z</time></trkpt><trkpt lat="42.8598499" lon="11.17662"><ele>102.57142857142857</ele><time>2026-04-26T08:24:33.115Z</time></trkpt><trkpt lat="42.8598283" lon="11.1767209"><ele>103.14285714285714</ele><time>2026-04-26T08:24:35.12Z</time></trkpt><trkpt lat="42.8598057" lon="11.1768129"><ele>103.71428571428572</ele><time>2026-04-26T08:24:37.114Z</time></trkpt><trkpt lat="42.8597573" lon="11.1768938"><ele>104.28571428571428</ele><time>2026-04-26T08:24:39.121Z</time></trkpt><trkpt lat="42.8597105" lon="11.1769718"><ele>104.85714285714285</ele><time>2026-04-26T08:24:41.13Z</time></trkpt><trkpt lat="42.8596593" lon="11.1770489"><ele>105.42857142857143</ele><time>2026-04-26T08:24:43.119Z</time></trkpt><trkpt lat="42.8596177" lon="11.1771161"><ele>106.0</ele><time>2026-04-26T08:24:44.114Z</time></trkpt><trkpt lat="42.8595625" lon="11.1771911"><ele>106.00000000000001</ele><time>2026-04-26T08:24:45.114Z</time></trkpt><trkpt lat="42.8595018" lon="11.1772565"><ele>106.0</ele><time>2026-04-26T08:24:46.123Z</time></trkpt><trkpt lat="42.8594457" lon="11.1773292"><ele>106.0</ele><time>2026-04-26T08:24:47.117Z</time></trkpt><trkpt lat="42.8593905" lon="11.1774073"><ele>106.0</ele><time>2026-04-26T08:24:48.11Z</time></trkpt><trkpt lat="42.8593386" lon="11.1774846"><ele>106.00000000000001</ele><time>2026-04-26T08:24:49.12Z</time></trkpt><trkpt lat="42.8592837" lon="11.1775537"><ele>106.0</ele><time>2026-04-26T08:24:50.111Z</time></trkpt><trkpt lat="42.8592361" lon="11.1776241"><ele>106.00000000000001</ele><time>2026-04-26T08:24:51.112Z</time></trkpt><trkpt lat="42.859197" lon="11.1776953"><ele>106.0</ele><time>2026-04-26T08:24:52.111Z</time></trkpt><trkpt lat="42.8591563" lon="11.1777705"><ele>106.0</ele><time>2026-04-26T08:24:53.117Z</time></trkpt><trkpt lat="42.8591142" lon="11.1778407"><ele>106.0</ele><time>2026-04-26T08:24:54.112Z</time></trkpt><trkpt lat="42.859078" lon="11.1779122"><ele>106.00000000000001</ele><time>2026-04-26T08:24:55.116Z</time></trkpt><trkpt lat="42.8590449" lon="11.1779882"><ele>106.0</ele><time>2026-04-26T08:24:56.116Z</time></trkpt><trkpt lat="42.8590005" lon="11.1781445"><ele>108.0</ele><time>2026-04-26T08:24:58.118Z</time></trkpt><trkpt lat="42.8589538" lon="11.1782857"><ele>110.0</ele><time>2026-04-26T08:25:00.119Z</time></trkpt><trkpt lat="42.858911" lon="11.1784308"><ele>112.0</ele><time>2026-04-26T08:25:02.135Z</time></trkpt><trkpt lat="42.8588658" lon="11.1785678"><ele>114.0</ele><time>2026-04-26T08:25:04.118Z</time></trkpt><trkpt lat="42.8588125" lon="11.1787164"><ele>114.0</ele><time>2026-04-26T08:25:06.124Z</time></trkpt><trkpt lat="42.8587801" lon="11.178798"><ele>113.99999999999999</ele><time>2026-04-26T08:25:07.13Z</time></trkpt><trkpt lat="42.8587477" lon="11.1788816"><ele>114.0</ele><time>2026-04-26T08:25:08.139Z</time></trkpt><trkpt lat="42.8587125" lon="11.1789532"><ele>114.0</ele><time>2026-04-26T08:25:09.122Z</time></trkpt><trkpt lat="42.8586791" lon="11.1790265"><ele>113.99999999999999</ele><time>2026-04-26T08:25:10.119Z</time></trkpt><trkpt lat="42.8586425" lon="11.1791075"><ele>114.0</ele><time>2026-04-26T08:25:11.122Z</time></trkpt><trkpt lat="42.8586073" lon="11.1791944"><ele>114.0</ele><time>2026-04-26T08:25:12.117Z</time></trkpt><trkpt lat="42.8585775" lon="11.1792827"><ele>114.0</ele><time>2026-04-26T08:25:13.116Z</time></trkpt><trkpt lat="42.8585507" lon="11.1793788"><ele>114.0</ele><time>2026-04-26T08:25:14.118Z</time></trkpt><trkpt lat="42.8585343" lon="11.1794885"><ele>114.0</ele><time>2026-04-26T08:25:15.117Z</time></trkpt><trkpt lat="42.8585151" lon="11.1795948"><ele>114.0</ele><time>2026-04-26T08:25:16.119Z</time></trkpt><trkpt lat="42.8584929" lon="11.1797"><ele>114.0</ele><time>2026-04-26T08:25:17.115Z</time></trkpt><trkpt lat="42.8584663" lon="11.1798096"><ele>114.0</ele><time>2026-04-26T08:25:18.111Z</time></trkpt><trkpt lat="42.858427" lon="11.1799213"><ele>114.0</ele><time>2026-04-26T08:25:19.113Z</time></trkpt><trkpt lat="42.8583859" lon="11.1800262"><ele>114.0</ele><time>2026-04-26T08:25:20.114Z</time></trkpt><trkpt lat="42.8583459" lon="11.1801273"><ele>114.0</ele><time>2026-04-26T08:25:21.115Z</time></trkpt><trkpt lat="42.8583062" lon="11.1802316"><ele>114.0</ele><time>2026-04-26T08:25:22.159Z</time></trkpt><trkpt lat="42.8582741" lon="11.1803323"><ele>114.0</ele><time>2026-04-26T08:25:23.123Z</time></trkpt><trkpt lat="42.8582378" lon="11.1804286"><ele>114.0</ele><time>2026-04-26T08:25:24.118Z</time></trkpt><trkpt lat="42.8582094" lon="11.1805283"><ele>114.0</ele><time>2026-04-26T08:25:25.126Z</time></trkpt><trkpt lat="42.8581766" lon="11.1806333"><ele>114.0</ele><time>2026-04-26T08:25:26.122Z</time></trkpt><trkpt lat="42.8581528" lon="11.1807434"><ele>114.0</ele><time>2026-04-26T08:25:27.123Z</time></trkpt><trkpt lat="42.8581346" lon="11.1808554"><ele>114.0</ele><time>2026-04-26T08:25:28.121Z</time></trkpt><trkpt lat="42.8581237" lon="11.1809692"><ele>114.0</ele><time>2026-04-26T08:25:29.115Z</time></trkpt><trkpt lat="42.8581194" lon="11.1810756"><ele>114.0</ele><time>2026-04-26T08:25:30.117Z</time></trkpt><trkpt lat="42.858132" lon="11.1811837"><ele>115.0</ele><time>2026-04-26T08:25:31.136Z</time></trkpt><trkpt lat="42.8581633" lon="11.1812964"><ele>116.0</ele><time>2026-04-26T08:25:32.119Z</time></trkpt><trkpt lat="42.8581954" lon="11.1813981"><ele>117.0</ele><time>2026-04-26T08:25:33.117Z</time></trkpt><trkpt lat="42.8582089" lon="11.1815624"><ele>118.0</ele><time>2026-04-26T08:25:35.114Z</time></trkpt><trkpt lat="42.8581796" lon="11.1816753"><ele>119.0</ele><time>2026-04-26T08:25:37.122Z</time></trkpt><trkpt lat="42.8581771" lon="11.1818049"><ele>119.0</ele><time>2026-04-26T08:25:40.134Z</time></trkpt><trkpt lat="42.8582379" lon="11.1819198"><ele>119.0</ele><time>2026-04-26T08:25:42.115Z</time></trkpt><trkpt lat="42.8582622" lon="11.1820168"><ele>119.0</ele><time>2026-04-26T08:25:44.119Z</time></trkpt><trkpt lat="42.8582724" lon="11.1821091"><ele>119.0</ele><time>2026-04-26T08:25:53.118Z</time></trkpt><trkpt lat="42.8582717" lon="11.1822283"><ele>119.0</ele><time>2026-04-26T08:27:09.118Z</time></trkpt><trkpt lat="42.858249" lon="11.1824056"><ele>119.80000000000001</ele><time>2026-04-26T08:27:11.119Z</time></trkpt><trkpt lat="42.8582143" lon="11.1825498"><ele>120.60000000000001</ele><time>2026-04-26T08:27:12.117Z</time></trkpt><trkpt lat="42.8581761" lon="11.1826973"><ele>121.4</ele><time>2026-04-26T08:27:13.142Z</time></trkpt><trkpt lat="42.858144" lon="11.1828313"><ele>122.2</ele><time>2026-04-26T08:27:14.113Z</time></trkpt><trkpt lat="42.8581271" lon="11.1829588"><ele>123.0</ele><time>2026-04-26T08:27:15.117Z</time></trkpt><trkpt lat="42.8581131" lon="11.1830896"><ele>124.2</ele><time>2026-04-26T08:27:16.124Z</time></trkpt><trkpt lat="42.8581138" lon="11.1832361"><ele>125.4</ele><time>2026-04-26T08:27:17.116Z</time></trkpt><trkpt lat="42.8581182" lon="11.1833775"><ele>126.60000000000001</ele><time>2026-04-26T08:27:18.154Z</time></trkpt><trkpt lat="42.8581198" lon="11.183481"><ele>127.80000000000001</ele><time>2026-04-26T08:27:19.118Z</time></trkpt><trkpt lat="42.8580688" lon="11.183538"><ele>129.0</ele><time>2026-04-26T08:27:22.127Z</time></trkpt><trkpt lat="42.8581488" lon="11.1836311"><ele>129.0</ele><time>2026-04-26T08:27:34.12Z</time></trkpt><trkpt lat="42.8581727" lon="11.1837277"><ele>129.0</ele><time>2026-04-26T08:27:35.139Z</time></trkpt><trkpt lat="42.8581638" lon="11.1838211"><ele>129.0</ele><time>2026-04-26T08:27:36.111Z</time></trkpt><trkpt lat="42.8581321" lon="11.1838971"><ele>129.0</ele><time>2026-04-26T08:27:37.11Z</time></trkpt><trkpt lat="42.8580853" lon="11.1839647"><ele>129.0</ele><time>2026-04-26T08:27:38.1Z</time></trkpt><trkpt lat="42.8580245" lon="11.1840333"><ele>129.0</ele><time>2026-04-26T08:27:39.106Z</time></trkpt><trkpt lat="42.857935" lon="11.184114"><ele>129.0</ele><time>2026-04-26T08:27:40.112Z</time></trkpt><trkpt lat="42.8578565" lon="11.1841748"><ele>129.0</ele><time>2026-04-26T08:27:41.113Z</time></trkpt><trkpt lat="42.8577864" lon="11.1842013"><ele>129.0</ele><time>2026-04-26T08:27:42.127Z</time></trkpt><trkpt lat="42.8577206" lon="11.1841492"><ele>129.0</ele><time>2026-04-26T08:27:44.116Z</time></trkpt><trkpt lat="42.8576984" lon="11.1840537"><ele>129.0</ele><time>2026-04-26T08:27:45.113Z</time></trkpt><trkpt lat="42.8576615" lon="11.183918"><ele>129.0</ele><time>2026-04-26T08:27:46.109Z</time></trkpt><trkpt lat="42.8576105" lon="11.1837672"><ele>126.6</ele><time>2026-04-26T08:27:47.116Z</time></trkpt><trkpt lat="42.8575642" lon="11.1836017"><ele>124.2</ele><time>2026-04-26T08:27:48.114Z</time></trkpt><trkpt lat="42.8575198" lon="11.1834684"><ele>121.79999999999998</ele><time>2026-04-26T08:27:49.116Z</time></trkpt><trkpt lat="42.8574788" lon="11.1833668"><ele>119.39999999999999</ele><time>2026-04-26T08:27:50.118Z</time></trkpt><trkpt lat="42.857425" lon="11.1832826"><ele>117.0</ele><time>2026-04-26T08:27:51.109Z</time></trkpt><trkpt lat="42.8573499" lon="11.1832299"><ele>117.0</ele><time>2026-04-26T08:27:52.118Z</time></trkpt><trkpt lat="42.8572711" lon="11.1831916"><ele>117.0</ele><time>2026-04-26T08:27:53.116Z</time></trkpt><trkpt lat="42.857211" lon="11.1831658"><ele>117.0</ele><time>2026-04-26T08:27:54.108Z</time></trkpt><trkpt lat="42.8571559" lon="11.1831207"><ele>117.0</ele><time>2026-04-26T08:27:56.125Z</time></trkpt><trkpt lat="42.8571997" lon="11.1831877"><ele>117.0</ele><time>2026-04-26T08:28:05.12Z</time></trkpt><trkpt lat="42.8573182" lon="11.183215"><ele>117.0</ele><time>2026-04-26T08:28:07.114Z</time></trkpt><trkpt lat="42.8573918" lon="11.1832571"><ele>117.0</ele><time>2026-04-26T08:28:08.116Z</time></trkpt><trkpt lat="42.8574712" lon="11.1833089"><ele>116.99999999999999</ele><time>2026-04-26T08:28:09.12Z</time></trkpt><trkpt lat="42.8575145" lon="11.1833851"><ele>116.99999999999999</ele><time>2026-04-26T08:28:10.115Z</time></trkpt><trkpt lat="42.8575459" lon="11.1834865"><ele>117.0</ele><time>2026-04-26T08:28:11.117Z</time></trkpt><trkpt lat="42.8575797" lon="11.1836165"><ele>117.0</ele><time>2026-04-26T08:28:12.118Z</time></trkpt><trkpt lat="42.8576196" lon="11.1837591"><ele>119.39999999999999</ele><time>2026-04-26T08:28:13.123Z</time></trkpt><trkpt lat="42.8576646" lon="11.1838918"><ele>121.79999999999998</ele><time>2026-04-26T08:28:14.122Z</time></trkpt><trkpt lat="42.8577113" lon="11.1840328"><ele>124.2</ele><time>2026-04-26T08:28:15.117Z</time></trkpt><trkpt lat="42.8577485" lon="11.184127"><ele>126.6</ele><time>2026-04-26T08:28:16.117Z</time></trkpt><trkpt lat="42.8578247" lon="11.184187"><ele>129.0</ele><time>2026-04-26T08:28:18.115Z</time></trkpt><trkpt lat="42.8579316" lon="11.1841453"><ele>129.0</ele><time>2026-04-26T08:28:20.146Z</time></trkpt><trkpt lat="42.8580069" lon="11.1840671"><ele>129.0</ele><time>2026-04-26T08:28:21.105Z</time></trkpt><trkpt lat="42.8581054" lon="11.1839713"><ele>129.0</ele><time>2026-04-26T08:28:22.108Z</time></trkpt><trkpt lat="42.8581814" lon="11.183868"><ele>129.0</ele><time>2026-04-26T08:28:23.112Z</time></trkpt><trkpt lat="42.8582052" lon="11.1837788"><ele>129.0</ele><time>2026-04-26T08:28:24.114Z</time></trkpt><trkpt lat="42.8581665" lon="11.183652"><ele>129.0</ele><time>2026-04-26T08:28:26.108Z</time></trkpt><trkpt lat="42.8581485" lon="11.1835533"><ele>129.0</ele><time>2026-04-26T08:28:27.148Z</time></trkpt><trkpt lat="42.8581421" lon="11.1834323"><ele>129.0</ele><time>2026-04-26T08:28:28.115Z</time></trkpt><trkpt lat="42.8581341" lon="11.1832953"><ele>129.0</ele><time>2026-04-26T08:28:29.118Z</time></trkpt><trkpt lat="42.8581429" lon="11.1831298"><ele>129.0</ele><time>2026-04-26T08:28:30.114Z</time></trkpt><trkpt lat="42.8581466" lon="11.182972"><ele>127.80000000000001</ele><time>2026-04-26T08:28:31.114Z</time></trkpt><trkpt lat="42.8581638" lon="11.1828426"><ele>126.60000000000001</ele><time>2026-04-26T08:28:32.121Z</time></trkpt><trkpt lat="42.8581815" lon="11.1827169"><ele>125.4</ele><time>2026-04-26T08:28:33.14Z</time></trkpt><trkpt lat="42.8582108" lon="11.182588"><ele>124.2</ele><time>2026-04-26T08:28:34.111Z</time></trkpt><trkpt lat="42.8582486" lon="11.1824561"><ele>123.0</ele><time>2026-04-26T08:28:35.115Z</time></trkpt><trkpt lat="42.8582675" lon="11.1823349"><ele>123.00000000000001</ele><time>2026-04-26T08:28:36.117Z</time></trkpt><trkpt lat="42.8582797" lon="11.1822448"><ele>123.0</ele><time>2026-04-26T08:28:37.117Z</time></trkpt><trkpt lat="42.8582924" lon="11.18214"><ele>123.00000000000001</ele><time>2026-04-26T08:28:39.114Z</time></trkpt><trkpt lat="42.8582836" lon="11.182244"><ele>123.00000000000001</ele><time>2026-04-26T08:32:59.12Z</time></trkpt><trkpt lat="42.8582661" lon="11.182332"><ele>123.0</ele><time>2026-04-26T08:33:02.114Z</time></trkpt><trkpt lat="42.8582344" lon="11.1824238"><ele>123.00000000000001</ele><time>2026-04-26T08:33:04.118Z</time></trkpt><trkpt lat="42.8581997" lon="11.1825234"><ele>123.00000000000001</ele><time>2026-04-26T08:33:06.145Z</time></trkpt><trkpt lat="42.8581663" lon="11.1826126"><ele>123.0</ele><time>2026-04-26T08:33:08.116Z</time></trkpt><trkpt lat="42.858136" lon="11.1827108"><ele>123.0</ele><time>2026-04-26T08:33:10.124Z</time></trkpt><trkpt lat="42.8581116" lon="11.1828205"><ele>123.0</ele><time>2026-04-26T08:33:12.119Z</time></trkpt><trkpt lat="42.858102" lon="11.1829369"><ele>123.0</ele><time>2026-04-26T08:33:15.119Z</time></trkpt><trkpt lat="42.8581012" lon="11.1830599"><ele>123.0</ele><time>2026-04-26T08:33:18.118Z</time></trkpt><trkpt lat="42.8581029" lon="11.18315"><ele>123.0</ele><time>2026-04-26T08:33:20.121Z</time></trkpt><trkpt lat="42.8580955" lon="11.1832594"><ele>123.85714285714288</ele><time>2026-04-26T08:33:22.117Z</time></trkpt><trkpt lat="42.8580945" lon="11.1833493"><ele>124.71428571428572</ele><time>2026-04-26T08:33:24.118Z</time></trkpt><trkpt lat="42.8580953" lon="11.1834357"><ele>125.57142857142857</ele><time>2026-04-26T08:33:26.123Z</time></trkpt><trkpt lat="42.8581" lon="11.18354"><ele>126.42857142857143</ele><time>2026-04-26T08:33:28.123Z</time></trkpt><trkpt lat="42.8581276" lon="11.1836263"><ele>127.28571428571428</ele><time>2026-04-26T08:33:30.113Z</time></trkpt><trkpt lat="42.8581453" lon="11.183724"><ele>128.14285714285714</ele><time>2026-04-26T08:33:32.114Z</time></trkpt><trkpt lat="42.8581129" lon="11.1838405"><ele>129.0</ele><time>2026-04-26T08:33:34.114Z</time></trkpt><trkpt lat="42.8580474" lon="11.1839141"><ele>129.0</ele><time>2026-04-26T08:33:36.12Z</time></trkpt><trkpt lat="42.8579642" lon="11.1839967"><ele>129.0</ele><time>2026-04-26T08:33:38.103Z</time></trkpt><trkpt lat="42.8578912" lon="11.184014"><ele>129.0</ele><time>2026-04-26T08:33:39.111Z</time></trkpt><trkpt lat="42.8578544" lon="11.1841279"><ele>129.0</ele><time>2026-04-26T08:33:40.112Z</time></trkpt><trkpt lat="42.8578246" lon="11.1842264"><ele>129.0</ele><time>2026-04-26T08:33:41.125Z</time></trkpt><trkpt lat="42.8577773" lon="11.1843566"><ele>128.83333333333334</ele><time>2026-04-26T08:33:43.121Z</time></trkpt><trkpt lat="42.8577783" lon="11.1845283"><ele>128.66666666666666</ele><time>2026-04-26T08:33:45.123Z</time></trkpt><trkpt lat="42.8578003" lon="11.1846098"><ele>128.5</ele><time>2026-04-26T08:33:46.147Z</time></trkpt><trkpt lat="42.8578293" lon="11.1846954"><ele>128.33333333333331</ele><time>2026-04-26T08:33:47.125Z</time></trkpt><trkpt lat="42.8578828" lon="11.1848491"><ele>128.16666666666666</ele><time>2026-04-26T08:33:49.124Z</time></trkpt><trkpt lat="42.8579038" lon="11.1849308"><ele>128.0</ele><time>2026-04-26T08:33:50.116Z</time></trkpt><trkpt lat="42.8579541" lon="11.1850961"><ele>128.0</ele><time>2026-04-26T08:33:52.143Z</time></trkpt><trkpt lat="42.8579869" lon="11.1851729"><ele>128.0</ele><time>2026-04-26T08:33:53.122Z</time></trkpt><trkpt lat="42.8580232" lon="11.1852441"><ele>128.0</ele><time>2026-04-26T08:33:54.13Z</time></trkpt><trkpt lat="42.8581041" lon="11.1853523"><ele>128.0</ele><time>2026-04-26T08:33:56.127Z</time></trkpt><trkpt lat="42.8581962" lon="11.1854444"><ele>128.0</ele><time>2026-04-26T08:33:58.121Z</time></trkpt><trkpt lat="42.8582839" lon="11.1855501"><ele>128.0</ele><time>2026-04-26T08:34:00.121Z</time></trkpt><trkpt lat="42.8583706" lon="11.1856621"><ele>128.0</ele><time>2026-04-26T08:34:02.119Z</time></trkpt><trkpt lat="42.8584391" lon="11.1858061"><ele>128.0</ele><time>2026-04-26T08:34:04.122Z</time></trkpt><trkpt lat="42.8584827" lon="11.1859579"><ele>128.0</ele><time>2026-04-26T08:34:06.123Z</time></trkpt><trkpt lat="42.8585213" lon="11.186107"><ele>128.16666666666666</ele><time>2026-04-26T08:34:08.118Z</time></trkpt><trkpt lat="42.8585659" lon="11.186255"><ele>128.33333333333331</ele><time>2026-04-26T08:34:10.127Z</time></trkpt><trkpt lat="42.8586403" lon="11.1863765"><ele>128.5</ele><time>2026-04-26T08:34:12.117Z</time></trkpt><trkpt lat="42.8586892" lon="11.1864403"><ele>128.66666666666666</ele><time>2026-04-26T08:34:13.114Z</time></trkpt><trkpt lat="42.8587333" lon="11.1865016"><ele>128.83333333333334</ele><time>2026-04-26T08:34:14.12Z</time></trkpt><trkpt lat="42.8587842" lon="11.186554"><ele>129.0</ele><time>2026-04-26T08:34:15.115Z</time></trkpt><trkpt lat="42.8588881" lon="11.186645"><ele>129.0</ele><time>2026-04-26T08:34:17.114Z</time></trkpt><trkpt lat="42.8589434" lon="11.1866919"><ele>129.0</ele><time>2026-04-26T08:34:18.118Z</time></trkpt><trkpt lat="42.8590334" lon="11.1867628"><ele>129.0</ele><time>2026-04-26T08:34:20.123Z</time></trkpt><trkpt lat="42.8591016" lon="11.1868028"><ele>129.0</ele><time>2026-04-26T08:34:22.116Z</time></trkpt><trkpt lat="42.8591615" lon="11.1868357"><ele>129.0</ele><time>2026-04-26T08:34:25.119Z</time></trkpt><trkpt lat="42.859234" lon="11.1868929"><ele>129.0</ele><time>2026-04-26T08:34:30.12Z</time></trkpt><trkpt lat="42.8593015" lon="11.1869571"><ele>129.8</ele><time>2026-04-26T08:34:32.114Z</time></trkpt><trkpt lat="42.8593791" lon="11.1870313"><ele>130.60000000000002</ele><time>2026-04-26T08:34:34.116Z</time></trkpt><trkpt lat="42.8594718" lon="11.1871488"><ele>131.4</ele><time>2026-04-26T08:34:36.143Z</time></trkpt><trkpt lat="42.859531" lon="11.1872313"><ele>132.20000000000002</ele><time>2026-04-26T08:34:37.119Z</time></trkpt><trkpt lat="42.8595928" lon="11.1873166"><ele>133.0</ele><time>2026-04-26T08:34:38.125Z</time></trkpt><trkpt lat="42.8596495" lon="11.1874042"><ele>133.0</ele><time>2026-04-26T08:34:39.116Z</time></trkpt><trkpt lat="42.8597031" lon="11.1874934"><ele>133.0</ele><time>2026-04-26T08:34:40.119Z</time></trkpt><trkpt lat="42.8597454" lon="11.187579"><ele>133.0</ele><time>2026-04-26T08:34:41.12Z</time></trkpt><trkpt lat="42.8597782" lon="11.1876603"><ele>133.0</ele><time>2026-04-26T08:34:42.122Z</time></trkpt><trkpt lat="42.8597801" lon="11.1877526"><ele>133.0</ele><time>2026-04-26T08:34:43.115Z</time></trkpt><trkpt lat="42.8597168" lon="11.1878672"><ele>133.0</ele><time>2026-04-26T08:34:45.129Z</time></trkpt><trkpt lat="42.8596676" lon="11.1879862"><ele>133.0</ele><time>2026-04-26T08:34:47.118Z</time></trkpt><trkpt lat="42.8596177" lon="11.1881285"><ele>133.0</ele><time>2026-04-26T08:34:49.118Z</time></trkpt><trkpt lat="42.8595809" lon="11.1882529"><ele>133.0</ele><time>2026-04-26T08:34:51.111Z</time></trkpt><trkpt lat="42.8595521" lon="11.1883722"><ele>133.0</ele><time>2026-04-26T08:34:53.115Z</time></trkpt><trkpt lat="42.8595397" lon="11.1885087"><ele>133.0</ele><time>2026-04-26T08:34:55.117Z</time></trkpt><trkpt lat="42.8595526" lon="11.1885965"><ele>134.42857142857142</ele><time>2026-04-26T08:34:56.12Z</time></trkpt><trkpt lat="42.85957" lon="11.1886802"><ele>135.85714285714286</ele><time>2026-04-26T08:34:57.115Z</time></trkpt><trkpt lat="42.8596019" lon="11.1887798"><ele>137.28571428571428</ele><time>2026-04-26T08:34:58.115Z</time></trkpt><trkpt lat="42.8596441" lon="11.1888942"><ele>138.71428571428572</ele><time>2026-04-26T08:34:59.114Z</time></trkpt><trkpt lat="42.8596771" lon="11.1889924"><ele>140.14285714285714</ele><time>2026-04-26T08:35:00.106Z</time></trkpt><trkpt lat="42.8597022" lon="11.1890778"><ele>141.57142857142856</ele><time>2026-04-26T08:35:01.119Z</time></trkpt><trkpt lat="42.8597194" lon="11.1891621"><ele>143.0</ele><time>2026-04-26T08:35:02.12Z</time></trkpt><trkpt lat="42.8597241" lon="11.1892592"><ele>144.8</ele><time>2026-04-26T08:35:03.134Z</time></trkpt><trkpt lat="42.8596784" lon="11.189415"><ele>146.60000000000002</ele><time>2026-04-26T08:35:05.113Z</time></trkpt><trkpt lat="42.8596198" lon="11.189578"><ele>148.39999999999998</ele><time>2026-04-26T08:35:07.117Z</time></trkpt><trkpt lat="42.8595792" lon="11.1896667"><ele>150.2</ele><time>2026-04-26T08:35:08.117Z</time></trkpt><trkpt lat="42.8595301" lon="11.1897438"><ele>152.0</ele><time>2026-04-26T08:35:09.116Z</time></trkpt><trkpt lat="42.8594774" lon="11.1898158"><ele>151.85714285714286</ele><time>2026-04-26T08:35:10.125Z</time></trkpt><trkpt lat="42.8594224" lon="11.1898624"><ele>151.71428571428572</ele><time>2026-04-26T08:35:11.123Z</time></trkpt><trkpt lat="42.8593597" lon="11.1899116"><ele>151.57142857142858</ele><time>2026-04-26T08:35:12.15Z</time></trkpt><trkpt lat="42.8592989" lon="11.189966"><ele>151.42857142857144</ele><time>2026-04-26T08:35:13.118Z</time></trkpt><trkpt lat="42.8592292" lon="11.1900129"><ele>151.28571428571428</ele><time>2026-04-26T08:35:14.119Z</time></trkpt><trkpt lat="42.8591627" lon="11.1900542"><ele>151.14285714285717</ele><time>2026-04-26T08:35:15.122Z</time></trkpt><trkpt lat="42.8590898" lon="11.190095"><ele>151.0</ele><time>2026-04-26T08:35:16.118Z</time></trkpt><trkpt lat="42.8590136" lon="11.1901318"><ele>151.0</ele><time>2026-04-26T08:35:17.107Z</time></trkpt><trkpt lat="42.85894" lon="11.1901716"><ele>151.0</ele><time>2026-04-26T08:35:18.111Z</time></trkpt><trkpt lat="42.8588661" lon="11.1902038"><ele>151.0</ele><time>2026-04-26T08:35:19.115Z</time></trkpt><trkpt lat="42.8587997" lon="11.1902378"><ele>151.0</ele><time>2026-04-26T08:35:20.118Z</time></trkpt><trkpt lat="42.8587332" lon="11.1902712"><ele>151.0</ele><time>2026-04-26T08:35:21.117Z</time></trkpt><trkpt lat="42.8586594" lon="11.190297"><ele>151.0</ele><time>2026-04-26T08:35:22.109Z</time></trkpt><trkpt lat="42.8585803" lon="11.1903146"><ele>151.0</ele><time>2026-04-26T08:35:23.16Z</time></trkpt><trkpt lat="42.8584977" lon="11.1903233"><ele>151.0</ele><time>2026-04-26T08:35:24.115Z</time></trkpt><trkpt lat="42.8584183" lon="11.19033"><ele>151.0</ele><time>2026-04-26T08:35:25.117Z</time></trkpt><trkpt lat="42.8583452" lon="11.1903389"><ele>151.0</ele><time>2026-04-26T08:35:26.115Z</time></trkpt><trkpt lat="42.8582638" lon="11.1903426"><ele>151.0</ele><time>2026-04-26T08:35:27.106Z</time></trkpt><trkpt lat="42.8581781" lon="11.1903461"><ele>151.0</ele><time>2026-04-26T08:35:28.143Z</time></trkpt><trkpt lat="42.858099" lon="11.1903435"><ele>151.83333333333334</ele><time>2026-04-26T08:35:29.115Z</time></trkpt><trkpt lat="42.8580174" lon="11.1903281"><ele>152.66666666666669</ele><time>2026-04-26T08:35:30.117Z</time></trkpt><trkpt lat="42.8579414" lon="11.1903105"><ele>153.5</ele><time>2026-04-26T08:35:31.119Z</time></trkpt><trkpt lat="42.8578713" lon="11.1902797"><ele>154.33333333333334</ele><time>2026-04-26T08:35:32.113Z</time></trkpt><trkpt lat="42.8577964" lon="11.1902447"><ele>155.16666666666666</ele><time>2026-04-26T08:35:33.116Z</time></trkpt><trkpt lat="42.8577372" lon="11.1902133"><ele>156.0</ele><time>2026-04-26T08:35:34.112Z</time></trkpt><trkpt lat="42.8576659" lon="11.1901494"><ele>156.0</ele><time>2026-04-26T08:35:36.115Z</time></trkpt><trkpt lat="42.8576815" lon="11.1900441"><ele>156.0</ele><time>2026-04-26T08:35:39.117Z</time></trkpt><trkpt lat="42.8577443" lon="11.1900131"><ele>156.0</ele><time>2026-04-26T08:36:17.114Z</time></trkpt><trkpt lat="42.8578143" lon="11.189959"><ele>156.0</ele><time>2026-04-26T08:36:37.118Z</time></trkpt><trkpt lat="42.8578958" lon="11.1899638"><ele>156.0</ele><time>2026-04-26T08:36:44.118Z</time></trkpt><trkpt lat="42.8579804" lon="11.1899536"><ele>156.0</ele><time>2026-04-26T08:36:47.123Z</time></trkpt><trkpt lat="42.8580471" lon="11.1899427"><ele>156.0</ele><time>2026-04-26T08:36:49.116Z</time></trkpt><trkpt lat="42.8581473" lon="11.1899394"><ele>156.0</ele><time>2026-04-26T08:36:52.121Z</time></trkpt><trkpt lat="42.8582193" lon="11.1899184"><ele>156.0</ele><time>2026-04-26T08:36:54.122Z</time></trkpt><trkpt lat="42.8582758" lon="11.1898764"><ele>156.0</ele><time>2026-04-26T08:36:57.111Z</time></trkpt><trkpt lat="42.8583652" lon="11.1898069"><ele>156.0</ele><time>2026-04-26T08:37:00.116Z</time></trkpt><trkpt lat="42.8584129" lon="11.1897148"><ele>156.0</ele><time>2026-04-26T08:37:03.11Z</time></trkpt><trkpt lat="42.8583914" lon="11.1895842"><ele>154.85714285714286</ele><time>2026-04-26T08:37:06.115Z</time></trkpt><trkpt lat="42.8583861" lon="11.1894785"><ele>153.7142857142857</ele><time>2026-04-26T08:37:08.109Z</time></trkpt><trkpt lat="42.8583872" lon="11.1893765"><ele>152.57142857142856</ele><time>2026-04-26T08:37:10.116Z</time></trkpt><trkpt lat="42.8583884" lon="11.1892718"><ele>151.42857142857144</ele><time>2026-04-26T08:37:12.117Z</time></trkpt><trkpt lat="42.8583933" lon="11.1891756"><ele>150.28571428571428</ele><time>2026-04-26T08:37:15.114Z</time></trkpt><trkpt lat="42.8583767" lon="11.1890664"><ele>149.14285714285714</ele><time>2026-04-26T08:37:18.112Z</time></trkpt><trkpt lat="42.8583818" lon="11.1889752"><ele>148.0</ele><time>2026-04-26T08:37:22.115Z</time></trkpt><trkpt lat="42.8583817" lon="11.188871"><ele>148.0</ele><time>2026-04-26T08:40:26.115Z</time></trkpt><trkpt lat="42.8583245" lon="11.1889331"><ele>148.0</ele><time>2026-04-26T08:40:40.11Z</time></trkpt><trkpt lat="42.858351" lon="11.1890343"><ele>148.0</ele><time>2026-04-26T08:40:43.113Z</time></trkpt><trkpt lat="42.8583452" lon="11.1891497"><ele>148.0</ele><time>2026-04-26T08:40:46.117Z</time></trkpt><trkpt lat="42.8583556" lon="11.189265"><ele>148.0</ele><time>2026-04-26T08:40:48.116Z</time></trkpt><trkpt lat="42.8583711" lon="11.1893548"><ele>148.0</ele><time>2026-04-26T08:40:49.111Z</time></trkpt><trkpt lat="42.8584165" lon="11.1895024"><ele>148.0</ele><time>2026-04-26T08:40:51.108Z</time></trkpt><trkpt lat="42.8584079" lon="11.1896207"><ele>148.0</ele><time>2026-04-26T08:40:54.135Z</time></trkpt><trkpt lat="42.8583601" lon="11.1896989"><ele>148.0</ele><time>2026-04-26T08:40:57.112Z</time></trkpt><trkpt lat="42.8584287" lon="11.1896739"><ele>148.0</ele><time>2026-04-26T08:43:33.111Z</time></trkpt><trkpt lat="42.8584243" lon="11.1895596"><ele>148.0</ele><time>2026-04-26T08:43:36.113Z</time></trkpt><trkpt lat="42.8583962" lon="11.18947"><ele>148.0</ele><time>2026-04-26T08:43:40.125Z</time></trkpt><trkpt lat="42.8583846" lon="11.1893679"><ele>148.0</ele><time>2026-04-26T08:43:45.11Z</time></trkpt><trkpt lat="42.8584036" lon="11.1892777"><ele>148.0</ele><time>2026-04-26T08:43:48.108Z</time></trkpt><trkpt lat="42.8584154" lon="11.1891615"><ele>148.0</ele><time>2026-04-26T08:43:52.119Z</time></trkpt><trkpt lat="42.8583698" lon="11.1890787"><ele>148.0</ele><time>2026-04-26T08:43:55.122Z</time></trkpt><trkpt lat="42.8583784" lon="11.188974"><ele>148.0</ele><time>2026-04-26T08:44:00.122Z</time></trkpt><trkpt lat="42.8583608" lon="11.1888866"><ele>148.0</ele><time>2026-04-26T08:45:24.111Z</time></trkpt><trkpt lat="42.8584492" lon="11.1888948"><ele>146.14285714285714</ele><time>2026-04-26T08:45:34.11Z</time></trkpt><trkpt lat="42.858528" lon="11.1889087"><ele>144.28571428571428</ele><time>2026-04-26T08:45:38.106Z</time></trkpt><trkpt lat="42.8586071" lon="11.1888976"><ele>142.42857142857142</ele><time>2026-04-26T08:45:42.115Z</time></trkpt><trkpt lat="42.8586877" lon="11.1888716"><ele>140.57142857142856</ele><time>2026-04-26T08:46:56.121Z</time></trkpt><trkpt lat="42.8587509" lon="11.1888336"><ele>138.7142857142857</ele><time>2026-04-26T08:46:59.113Z</time></trkpt><trkpt lat="42.8588153" lon="11.1888266"><ele>136.85714285714286</ele><time>2026-04-26T08:47:02.115Z</time></trkpt><trkpt lat="42.858863" lon="11.1888947"><ele>135.0</ele><time>2026-04-26T08:47:04.11Z</time></trkpt><trkpt lat="42.8589529" lon="11.1889468"><ele>135.0</ele><time>2026-04-26T08:47:06.117Z</time></trkpt><trkpt lat="42.8590361" lon="11.1889869"><ele>135.0</ele><time>2026-04-26T08:47:08.115Z</time></trkpt><trkpt lat="42.8591008" lon="11.1889731"><ele>135.0</ele><time>2026-04-26T08:47:11.115Z</time></trkpt><trkpt lat="42.8591138" lon="11.1888881"><ele>135.0</ele><time>2026-04-26T08:47:15.104Z</time></trkpt><trkpt lat="42.8591523" lon="11.1887943"><ele>135.0</ele><time>2026-04-26T08:47:18.127Z</time></trkpt><trkpt lat="42.8591993" lon="11.1887321"><ele>135.0</ele><time>2026-04-26T08:47:21.103Z</time></trkpt><trkpt lat="42.8592678" lon="11.1887079"><ele>135.0</ele><time>2026-04-26T08:47:24.113Z</time></trkpt><trkpt lat="42.8593073" lon="11.1886244"><ele>135.0</ele><time>2026-04-26T08:47:27.112Z</time></trkpt><trkpt lat="42.8593056" lon="11.188538"><ele>135.0</ele><time>2026-04-26T08:47:32.107Z</time></trkpt><trkpt lat="42.8592526" lon="11.1884808"><ele>135.0</ele><time>2026-04-26T08:47:40.108Z</time></trkpt><trkpt lat="42.8592983" lon="11.1883959"><ele>135.0</ele><time>2026-04-26T08:47:45.108Z</time></trkpt><trkpt lat="42.859317" lon="11.1883112"><ele>135.0</ele><time>2026-04-26T08:47:48.118Z</time></trkpt><trkpt lat="42.8592897" lon="11.1882074"><ele>135.0</ele><time>2026-04-26T08:47:52.114Z</time></trkpt><trkpt lat="42.8592944" lon="11.1881193"><ele>135.0</ele><time>2026-04-26T08:47:59.11Z</time></trkpt><trkpt lat="42.8593112" lon="11.1880183"><ele>134.71428571428572</ele><time>2026-04-26T08:48:05.111Z</time></trkpt><trkpt lat="42.8593147" lon="11.1879189"><ele>134.42857142857142</ele><time>2026-04-26T08:48:10.112Z</time></trkpt><trkpt lat="42.8592917" lon="11.1878287"><ele>134.14285714285714</ele><time>2026-04-26T08:48:14.118Z</time></trkpt><trkpt lat="42.8592273" lon="11.1877355"><ele>133.85714285714286</ele><time>2026-04-26T08:48:17.108Z</time></trkpt><trkpt lat="42.8591784" lon="11.1876665"><ele>133.57142857142856</ele><time>2026-04-26T08:48:22.118Z</time></trkpt><trkpt lat="42.8591553" lon="11.1875764"><ele>133.28571428571428</ele><time>2026-04-26T08:48:27.107Z</time></trkpt><trkpt lat="42.8591215" lon="11.1874894"><ele>133.0</ele><time>2026-04-26T08:48:32.115Z</time></trkpt><trkpt lat="42.8590982" lon="11.1874005"><ele>132.33333333333334</ele><time>2026-04-26T08:48:37.114Z</time></trkpt><trkpt lat="42.8590778" lon="11.1873171"><ele>131.66666666666669</ele><time>2026-04-26T08:48:40.107Z</time></trkpt><trkpt lat="42.8590369" lon="11.1872141"><ele>131.0</ele><time>2026-04-26T08:48:44.11Z</time></trkpt><trkpt lat="42.8589768" lon="11.187133"><ele>130.33333333333334</ele><time>2026-04-26T08:48:47.112Z</time></trkpt><trkpt lat="42.8589327" lon="11.187052"><ele>129.66666666666666</ele><time>2026-04-26T08:48:50.106Z</time></trkpt><trkpt lat="42.858899" lon="11.1869521"><ele>129.0</ele><time>2026-04-26T08:48:53.114Z</time></trkpt><trkpt lat="42.858885" lon="11.1868512"><ele>129.0</ele><time>2026-04-26T08:48:57.109Z</time></trkpt><trkpt lat="42.8588524" lon="11.1867648"><ele>129.0</ele><time>2026-04-26T08:49:02.115Z</time></trkpt><trkpt lat="42.8588573" lon="11.1866684"><ele>129.0</ele><time>2026-04-26T08:49:07.117Z</time></trkpt><trkpt lat="42.8589101" lon="11.1867236"><ele>129.0</ele><time>2026-04-26T08:50:17.111Z</time></trkpt><trkpt lat="42.8589872" lon="11.1867828"><ele>129.0</ele><time>2026-04-26T08:50:19.108Z</time></trkpt><trkpt lat="42.8590845" lon="11.186844"><ele>129.0</ele><time>2026-04-26T08:50:21.113Z</time></trkpt><trkpt lat="42.8591953" lon="11.1869176"><ele>129.0</ele><time>2026-04-26T08:50:23.16Z</time></trkpt><trkpt lat="42.859248" lon="11.1869675"><ele>129.0</ele><time>2026-04-26T08:50:24.116Z</time></trkpt><trkpt lat="42.8593476" lon="11.1870615"><ele>129.0</ele><time>2026-04-26T08:50:26.113Z</time></trkpt><trkpt lat="42.8593983" lon="11.1871212"><ele>129.0</ele><time>2026-04-26T08:50:27.108Z</time></trkpt><trkpt lat="42.8594462" lon="11.1871972"><ele>129.0</ele><time>2026-04-26T08:50:28.159Z</time></trkpt><trkpt lat="42.8594892" lon="11.1872654"><ele>129.0</ele><time>2026-04-26T08:50:29.111Z</time></trkpt><trkpt lat="42.8595351" lon="11.1873367"><ele>129.57142857142856</ele><time>2026-04-26T08:50:30.116Z</time></trkpt><trkpt lat="42.8595834" lon="11.1874122"><ele>130.14285714285714</ele><time>2026-04-26T08:50:31.112Z</time></trkpt><trkpt lat="42.8596299" lon="11.1874702"><ele>130.71428571428572</ele><time>2026-04-26T08:50:32.114Z</time></trkpt><trkpt lat="42.8596745" lon="11.1875373"><ele>131.28571428571428</ele><time>2026-04-26T08:50:33.116Z</time></trkpt><trkpt lat="42.8597189" lon="11.1876061"><ele>131.85714285714286</ele><time>2026-04-26T08:50:34.115Z</time></trkpt><trkpt lat="42.8597625" lon="11.1876715"><ele>132.42857142857142</ele><time>2026-04-26T08:50:35.11Z</time></trkpt><trkpt lat="42.8598584" lon="11.1877352"><ele>133.0</ele><time>2026-04-26T08:50:37.111Z</time></trkpt><trkpt lat="42.8599198" lon="11.1877105"><ele>133.0</ele><time>2026-04-26T08:50:38.114Z</time></trkpt><trkpt lat="42.8599919" lon="11.1876693"><ele>133.0</ele><time>2026-04-26T08:50:39.119Z</time></trkpt><trkpt lat="42.8600636" lon="11.1876028"><ele>133.0</ele><time>2026-04-26T08:50:40.116Z</time></trkpt><trkpt lat="42.8601235" lon="11.1875312"><ele>133.0</ele><time>2026-04-26T08:50:41.128Z</time></trkpt><trkpt lat="42.8601773" lon="11.1874561"><ele>133.0</ele><time>2026-04-26T08:50:42.109Z</time></trkpt><trkpt lat="42.8602379" lon="11.1873841"><ele>133.0</ele><time>2026-04-26T08:50:43.114Z</time></trkpt><trkpt lat="42.8602885" lon="11.1873199"><ele>134.83333333333334</ele><time>2026-04-26T08:50:44.105Z</time></trkpt><trkpt lat="42.8603445" lon="11.1872796"><ele>136.66666666666669</ele><time>2026-04-26T08:50:45.116Z</time></trkpt><trkpt lat="42.8604053" lon="11.1872567"><ele>138.5</ele><time>2026-04-26T08:50:46.118Z</time></trkpt><trkpt lat="42.8605139" lon="11.1873096"><ele>140.33333333333334</ele><time>2026-04-26T08:50:48.109Z</time></trkpt><trkpt lat="42.8606223" lon="11.1873718"><ele>142.16666666666666</ele><time>2026-04-26T08:50:50.114Z</time></trkpt><trkpt lat="42.860692" lon="11.1874034"><ele>144.0</ele><time>2026-04-26T08:50:51.121Z</time></trkpt><trkpt lat="42.8607735" lon="11.1874233"><ele>144.0</ele><time>2026-04-26T08:50:52.117Z</time></trkpt><trkpt lat="42.860859" lon="11.187442"><ele>144.0</ele><time>2026-04-26T08:50:53.118Z</time></trkpt><trkpt lat="42.8609403" lon="11.1874665"><ele>144.0</ele><time>2026-04-26T08:50:54.111Z</time></trkpt><trkpt lat="42.8610254" lon="11.1874883"><ele>144.0</ele><time>2026-04-26T08:50:55.109Z</time></trkpt><trkpt lat="42.8611178" lon="11.1874965"><ele>144.0</ele><time>2026-04-26T08:50:56.115Z</time></trkpt><trkpt lat="42.8612155" lon="11.1875007"><ele>144.0</ele><time>2026-04-26T08:50:57.115Z</time></trkpt><trkpt lat="42.86131" lon="11.1874823"><ele>144.83333333333334</ele><time>2026-04-26T08:50:58.106Z</time></trkpt><trkpt lat="42.8614026" lon="11.1874622"><ele>145.66666666666666</ele><time>2026-04-26T08:50:59.136Z</time></trkpt><trkpt lat="42.8614897" lon="11.1874461"><ele>146.5</ele><time>2026-04-26T08:51:00.111Z</time></trkpt><trkpt lat="42.8615784" lon="11.1874438"><ele>147.33333333333331</ele><time>2026-04-26T08:51:01.112Z</time></trkpt><trkpt lat="42.8616561" lon="11.1874494"><ele>148.16666666666666</ele><time>2026-04-26T08:51:02.116Z</time></trkpt><trkpt lat="42.8617399" lon="11.1874763"><ele>149.0</ele><time>2026-04-26T08:51:03.11Z</time></trkpt><trkpt lat="42.8618252" lon="11.1874884"><ele>150.16666666666666</ele><time>2026-04-26T08:51:04.119Z</time></trkpt><trkpt lat="42.8619089" lon="11.1874938"><ele>151.33333333333331</ele><time>2026-04-26T08:51:05.113Z</time></trkpt><trkpt lat="42.8619898" lon="11.187498"><ele>152.5</ele><time>2026-04-26T08:51:06.159Z</time></trkpt><trkpt lat="42.8620725" lon="11.1874711"><ele>153.66666666666666</ele><time>2026-04-26T08:51:07.114Z</time></trkpt><trkpt lat="42.8621547" lon="11.1874328"><ele>154.83333333333334</ele><time>2026-04-26T08:51:08.108Z</time></trkpt><trkpt lat="42.8622311" lon="11.1873751"><ele>156.0</ele><time>2026-04-26T08:51:09.118Z</time></trkpt><trkpt lat="42.8622976" lon="11.1873031"><ele>156.0</ele><time>2026-04-26T08:51:10.117Z</time></trkpt><trkpt lat="42.8623599" lon="11.1872253"><ele>156.0</ele><time>2026-04-26T08:51:11.116Z</time></trkpt><trkpt lat="42.8624263" lon="11.1871413"><ele>156.0</ele><time>2026-04-26T08:51:12.118Z</time></trkpt><trkpt lat="42.8624939" lon="11.187063"><ele>156.0</ele><time>2026-04-26T08:51:13.108Z</time></trkpt><trkpt lat="42.8625536" lon="11.1869803"><ele>156.0</ele><time>2026-04-26T08:51:14.131Z</time></trkpt><trkpt lat="42.8626087" lon="11.1868876"><ele>156.0</ele><time>2026-04-26T08:51:15.111Z</time></trkpt><trkpt lat="42.8626711" lon="11.1868118"><ele>157.4</ele><time>2026-04-26T08:51:16.115Z</time></trkpt><trkpt lat="42.8627434" lon="11.186743"><ele>158.8</ele><time>2026-04-26T08:51:17.109Z</time></trkpt><trkpt lat="42.8628206" lon="11.186679"><ele>160.20000000000002</ele><time>2026-04-26T08:51:18.114Z</time></trkpt><trkpt lat="42.8628885" lon="11.1866051"><ele>161.6</ele><time>2026-04-26T08:51:19.102Z</time></trkpt><trkpt lat="42.8629472" lon="11.1865028"><ele>163.0</ele><time>2026-04-26T08:51:20.107Z</time></trkpt><trkpt lat="42.8630023" lon="11.1864046"><ele>163.0</ele><time>2026-04-26T08:51:21.145Z</time></trkpt><trkpt lat="42.8630408" lon="11.1862995"><ele>163.0</ele><time>2026-04-26T08:51:22.115Z</time></trkpt><trkpt lat="42.8630641" lon="11.1861868"><ele>163.0</ele><time>2026-04-26T08:51:23.114Z</time></trkpt><trkpt lat="42.8630689" lon="11.1860737"><ele>163.0</ele><time>2026-04-26T08:51:24.109Z</time></trkpt><trkpt lat="42.8630638" lon="11.1859663"><ele>163.0</ele><time>2026-04-26T08:51:25.112Z</time></trkpt><trkpt lat="42.8630503" lon="11.1858515"><ele>163.0</ele><time>2026-04-26T08:51:26.114Z</time></trkpt><trkpt lat="42.8630334" lon="11.1857323"><ele>162.4</ele><time>2026-04-26T08:51:27.107Z</time></trkpt><trkpt lat="42.8630211" lon="11.1856117"><ele>161.8</ele><time>2026-04-26T08:51:28.11Z</time></trkpt><trkpt lat="42.863004" lon="11.1854767"><ele>161.2</ele><time>2026-04-26T08:51:29.112Z</time></trkpt><trkpt lat="42.8629858" lon="11.1853425"><ele>160.6</ele><time>2026-04-26T08:51:30.111Z</time></trkpt><trkpt lat="42.8629823" lon="11.1852216"><ele>160.0</ele><time>2026-04-26T08:51:31.109Z</time></trkpt><trkpt lat="42.8629975" lon="11.1851101"><ele>160.0</ele><time>2026-04-26T08:51:32.112Z</time></trkpt><trkpt lat="42.8630222" lon="11.1850171"><ele>160.0</ele><time>2026-04-26T08:51:33.113Z</time></trkpt><trkpt lat="42.863063" lon="11.1849474"><ele>160.0</ele><time>2026-04-26T08:51:34.12Z</time></trkpt><trkpt lat="42.8631151" lon="11.1848861"><ele>160.0</ele><time>2026-04-26T08:51:35.109Z</time></trkpt><trkpt lat="42.863175" lon="11.1848298"><ele>160.0</ele><time>2026-04-26T08:51:36.111Z</time></trkpt><trkpt lat="42.8632465" lon="11.1847867"><ele>160.0</ele><time>2026-04-26T08:51:37.119Z</time></trkpt><trkpt lat="42.863332" lon="11.1847609"><ele>160.0</ele><time>2026-04-26T08:51:38.117Z</time></trkpt><trkpt lat="42.8634156" lon="11.1847537"><ele>162.0</ele><time>2026-04-26T08:51:39.135Z</time></trkpt><trkpt lat="42.8634947" lon="11.1847704"><ele>164.0</ele><time>2026-04-26T08:51:40.113Z</time></trkpt><trkpt lat="42.8635745" lon="11.1848098"><ele>166.0</ele><time>2026-04-26T08:51:41.109Z</time></trkpt><trkpt lat="42.8636503" lon="11.1848571"><ele>168.0</ele><time>2026-04-26T08:51:42.116Z</time></trkpt><trkpt lat="42.8637215" lon="11.184901"><ele>170.0</ele><time>2026-04-26T08:51:43.117Z</time></trkpt><trkpt lat="42.8637978" lon="11.1849517"><ele>172.0</ele><time>2026-04-26T08:51:44.131Z</time></trkpt><trkpt lat="42.8638736" lon="11.1850041"><ele>172.0</ele><time>2026-04-26T08:51:45.116Z</time></trkpt><trkpt lat="42.8639488" lon="11.1850777"><ele>172.0</ele><time>2026-04-26T08:51:46.115Z</time></trkpt><trkpt lat="42.8640189" lon="11.1851548"><ele>172.0</ele><time>2026-04-26T08:51:47.119Z</time></trkpt><trkpt lat="42.8640867" lon="11.1852345"><ele>172.0</ele><time>2026-04-26T08:51:48.114Z</time></trkpt><trkpt lat="42.8641575" lon="11.1853057"><ele>172.0</ele><time>2026-04-26T08:51:49.141Z</time></trkpt><trkpt lat="42.8642342" lon="11.1853666"><ele>172.0</ele><time>2026-04-26T08:51:50.11Z</time></trkpt><trkpt lat="42.8643071" lon="11.1854058"><ele>174.16666666666669</ele><time>2026-04-26T08:51:51.118Z</time></trkpt><trkpt lat="42.8644342" lon="11.1854106"><ele>176.33333333333334</ele><time>2026-04-26T08:51:53.112Z</time></trkpt><trkpt lat="42.8645159" lon="11.1854008"><ele>178.5</ele><time>2026-04-26T08:51:54.122Z</time></trkpt><trkpt lat="42.8645876" lon="11.1854182"><ele>180.66666666666666</ele><time>2026-04-26T08:51:55.113Z</time></trkpt><trkpt lat="42.8646671" lon="11.1854407"><ele>182.83333333333331</ele><time>2026-04-26T08:51:56.167Z</time></trkpt><trkpt lat="42.8647276" lon="11.1854827"><ele>185.0</ele><time>2026-04-26T08:51:57.111Z</time></trkpt><trkpt lat="42.8647909" lon="11.1855307"><ele>185.0</ele><time>2026-04-26T08:51:58.121Z</time></trkpt><trkpt lat="42.8648505" lon="11.1855738"><ele>185.0</ele><time>2026-04-26T08:51:59.108Z</time></trkpt><trkpt lat="42.8649092" lon="11.1856332"><ele>185.0</ele><time>2026-04-26T08:52:00.114Z</time></trkpt><trkpt lat="42.864962" lon="11.185796"><ele>185.0</ele><time>2026-04-26T08:52:02.109Z</time></trkpt><trkpt lat="42.8649842" lon="11.1858903"><ele>185.0</ele><time>2026-04-26T08:52:03.109Z</time></trkpt><trkpt lat="42.8650177" lon="11.1859817"><ele>185.0</ele><time>2026-04-26T08:52:04.11Z</time></trkpt><trkpt lat="42.8650591" lon="11.1860467"><ele>185.83333333333331</ele><time>2026-04-26T08:52:05.109Z</time></trkpt><trkpt lat="42.8651121" lon="11.1861031"><ele>186.66666666666666</ele><time>2026-04-26T08:52:06.134Z</time></trkpt><trkpt lat="42.8651749" lon="11.1861269"><ele>187.5</ele><time>2026-04-26T08:52:07.113Z</time></trkpt><trkpt lat="42.8652953" lon="11.1861071"><ele>188.33333333333334</ele><time>2026-04-26T08:52:09.111Z</time></trkpt><trkpt lat="42.8653667" lon="11.1860799"><ele>189.16666666666669</ele><time>2026-04-26T08:52:10.116Z</time></trkpt><trkpt lat="42.8654421" lon="11.1860503"><ele>190.0</ele><time>2026-04-26T08:52:11.127Z</time></trkpt><trkpt lat="42.8655119" lon="11.1860585"><ele>190.0</ele><time>2026-04-26T08:52:12.117Z</time></trkpt><trkpt lat="42.8655756" lon="11.1860991"><ele>190.0</ele><time>2026-04-26T08:52:13.113Z</time></trkpt><trkpt lat="42.8656307" lon="11.1861496"><ele>190.0</ele><time>2026-04-26T08:52:14.11Z</time></trkpt><trkpt lat="42.8656745" lon="11.1862342"><ele>190.0</ele><time>2026-04-26T08:52:15.114Z</time></trkpt><trkpt lat="42.8657145" lon="11.1863362"><ele>190.0</ele><time>2026-04-26T08:52:16.144Z</time></trkpt><trkpt lat="42.8657617" lon="11.186435"><ele>190.0</ele><time>2026-04-26T08:52:17.112Z</time></trkpt><trkpt lat="42.8658044" lon="11.1865416"><ele>190.5</ele><time>2026-04-26T08:52:18.121Z</time></trkpt><trkpt lat="42.8658407" lon="11.186655"><ele>191.0</ele><time>2026-04-26T08:52:19.109Z</time></trkpt><trkpt lat="42.8658662" lon="11.1867624"><ele>191.5</ele><time>2026-04-26T08:52:20.11Z</time></trkpt><trkpt lat="42.8658802" lon="11.1868664"><ele>192.0</ele><time>2026-04-26T08:52:21.116Z</time></trkpt><trkpt lat="42.8659034" lon="11.1869476"><ele>192.49999999999997</ele><time>2026-04-26T08:52:22.11Z</time></trkpt><trkpt lat="42.8659789" lon="11.1870531"><ele>193.0</ele><time>2026-04-26T08:52:24.114Z</time></trkpt><trkpt lat="42.8660515" lon="11.1870631"><ele>192.99999999999997</ele><time>2026-04-26T08:52:25.111Z</time></trkpt><trkpt lat="42.8661283" lon="11.1870646"><ele>193.0</ele><time>2026-04-26T08:52:26.109Z</time></trkpt><trkpt lat="42.8662087" lon="11.1870466"><ele>193.0</ele><time>2026-04-26T08:52:27.12Z</time></trkpt><trkpt lat="42.8662889" lon="11.1870165"><ele>193.0</ele><time>2026-04-26T08:52:28.106Z</time></trkpt><trkpt lat="42.8663669" lon="11.1869842"><ele>192.99999999999997</ele><time>2026-04-26T08:52:29.138Z</time></trkpt><trkpt lat="42.8664478" lon="11.1869575"><ele>193.0</ele><time>2026-04-26T08:52:30.112Z</time></trkpt><trkpt lat="42.866531" lon="11.1869382"><ele>192.99999999999997</ele><time>2026-04-26T08:52:31.121Z</time></trkpt><trkpt lat="42.8666207" lon="11.1869352"><ele>193.0</ele><time>2026-04-26T08:52:32.121Z</time></trkpt><trkpt lat="42.8667118" lon="11.1869283"><ele>193.0</ele><time>2026-04-26T08:52:33.117Z</time></trkpt><trkpt lat="42.8668042" lon="11.1869196"><ele>193.0</ele><time>2026-04-26T08:52:34.112Z</time></trkpt><trkpt lat="42.86689" lon="11.1869157"><ele>192.99999999999997</ele><time>2026-04-26T08:52:35.113Z</time></trkpt><trkpt lat="42.8669673" lon="11.1868973"><ele>193.0</ele><time>2026-04-26T08:52:36.107Z</time></trkpt><trkpt lat="42.8670299" lon="11.1868708"><ele>193.57142857142858</ele><time>2026-04-26T08:52:37.121Z</time></trkpt><trkpt lat="42.8670971" lon="11.1868274"><ele>194.14285714285714</ele><time>2026-04-26T08:52:38.113Z</time></trkpt><trkpt lat="42.8671643" lon="11.1867658"><ele>194.71428571428572</ele><time>2026-04-26T08:52:39.143Z</time></trkpt><trkpt lat="42.8672301" lon="11.1867119"><ele>195.28571428571428</ele><time>2026-04-26T08:52:40.112Z</time></trkpt><trkpt lat="42.8672905" lon="11.1866751"><ele>195.85714285714286</ele><time>2026-04-26T08:52:41.116Z</time></trkpt><trkpt lat="42.8673563" lon="11.1866723"><ele>196.42857142857144</ele><time>2026-04-26T08:52:42.11Z</time></trkpt><trkpt lat="42.8674301" lon="11.1867067"><ele>197.0</ele><time>2026-04-26T08:52:43.114Z</time></trkpt><trkpt lat="42.8675052" lon="11.1867399"><ele>197.00000000000003</ele><time>2026-04-26T08:52:44.115Z</time></trkpt><trkpt lat="42.8675708" lon="11.1867647"><ele>197.0</ele><time>2026-04-26T08:52:45.12Z</time></trkpt><trkpt lat="42.8676382" lon="11.1867514"><ele>197.0</ele><time>2026-04-26T08:52:46.12Z</time></trkpt><trkpt lat="42.8677124" lon="11.1867146"><ele>197.0</ele><time>2026-04-26T08:52:47.114Z</time></trkpt><trkpt lat="42.8677904" lon="11.1866702"><ele>197.00000000000003</ele><time>2026-04-26T08:52:48.116Z</time></trkpt><trkpt lat="42.8678763" lon="11.1866202"><ele>197.0</ele><time>2026-04-26T08:52:49.111Z</time></trkpt><trkpt lat="42.8679734" lon="11.1865587"><ele>200.39999999999998</ele><time>2026-04-26T08:52:50.116Z</time></trkpt><trkpt lat="42.8680796" lon="11.1864979"><ele>203.79999999999998</ele><time>2026-04-26T08:52:51.122Z</time></trkpt><trkpt lat="42.8681796" lon="11.1864466"><ele>207.2</ele><time>2026-04-26T08:52:52.112Z</time></trkpt><trkpt lat="42.8682707" lon="11.1864095"><ele>210.6</ele><time>2026-04-26T08:52:53.115Z</time></trkpt><trkpt lat="42.8683516" lon="11.1864103"><ele>214.0</ele><time>2026-04-26T08:52:54.169Z</time></trkpt><trkpt lat="42.868425" lon="11.1864332"><ele>214.16666666666666</ele><time>2026-04-26T08:52:55.111Z</time></trkpt><trkpt lat="42.8684889" lon="11.1864737"><ele>214.33333333333331</ele><time>2026-04-26T08:52:56.109Z</time></trkpt><trkpt lat="42.8685335" lon="11.1865424"><ele>214.5</ele><time>2026-04-26T08:52:57.111Z</time></trkpt><trkpt lat="42.8685842" lon="11.1866396"><ele>214.66666666666669</ele><time>2026-04-26T08:52:58.111Z</time></trkpt><trkpt lat="42.8686508" lon="11.1867388"><ele>214.83333333333334</ele><time>2026-04-26T08:52:59.119Z</time></trkpt><trkpt lat="42.8687143" lon="11.186862"><ele>215.0</ele><time>2026-04-26T08:53:00.112Z</time></trkpt><trkpt lat="42.8687842" lon="11.1869865"><ele>213.4</ele><time>2026-04-26T08:53:01.115Z</time></trkpt><trkpt lat="42.8688512" lon="11.1871071"><ele>211.8</ele><time>2026-04-26T08:53:02.109Z</time></trkpt><trkpt lat="42.8689205" lon="11.1872208"><ele>210.2</ele><time>2026-04-26T08:53:03.118Z</time></trkpt><trkpt lat="42.8689782" lon="11.1872961"><ele>208.6</ele><time>2026-04-26T08:53:04.117Z</time></trkpt><trkpt lat="42.8690364" lon="11.1873413"><ele>207.0</ele><time>2026-04-26T08:53:05.112Z</time></trkpt><trkpt lat="42.8691441" lon="11.187362"><ele>207.0</ele><time>2026-04-26T08:53:07.109Z</time></trkpt><trkpt lat="42.8692079" lon="11.1873392"><ele>207.0</ele><time>2026-04-26T08:53:08.133Z</time></trkpt><trkpt lat="42.8693279" lon="11.1872777"><ele>207.0</ele><time>2026-04-26T08:53:10.116Z</time></trkpt><trkpt lat="42.8693897" lon="11.1872318"><ele>207.0</ele><time>2026-04-26T08:53:11.113Z</time></trkpt><trkpt lat="42.8694591" lon="11.1871632"><ele>207.0</ele><time>2026-04-26T08:53:12.117Z</time></trkpt><trkpt lat="42.8695292" lon="11.1870794"><ele>207.0</ele><time>2026-04-26T08:53:13.108Z</time></trkpt><trkpt lat="42.8695994" lon="11.1869932"><ele>206.8</ele><time>2026-04-26T08:53:14.11Z</time></trkpt><trkpt lat="42.8696681" lon="11.1869005"><ele>206.6</ele><time>2026-04-26T08:53:15.116Z</time></trkpt><trkpt lat="42.8697394" lon="11.1868041"><ele>206.4</ele><time>2026-04-26T08:53:16.118Z</time></trkpt><trkpt lat="42.8698041" lon="11.1867003"><ele>206.20000000000002</ele><time>2026-04-26T08:53:17.115Z</time></trkpt><trkpt lat="42.8698664" lon="11.1865979"><ele>206.0</ele><time>2026-04-26T08:53:18.112Z</time></trkpt><trkpt lat="42.8699343" lon="11.1865085"><ele>206.0</ele><time>2026-04-26T08:53:19.108Z</time></trkpt><trkpt lat="42.8700142" lon="11.1864302"><ele>206.0</ele><time>2026-04-26T08:53:20.135Z</time></trkpt><trkpt lat="42.8700973" lon="11.1863522"><ele>206.0</ele><time>2026-04-26T08:53:21.106Z</time></trkpt><trkpt lat="42.8701825" lon="11.186282"><ele>206.0</ele><time>2026-04-26T08:53:22.113Z</time></trkpt><trkpt lat="42.8702659" lon="11.1862009"><ele>206.0</ele><time>2026-04-26T08:53:23.114Z</time></trkpt><trkpt lat="42.8703516" lon="11.1861182"><ele>204.16666666666669</ele><time>2026-04-26T08:53:24.111Z</time></trkpt><trkpt lat="42.8704322" lon="11.1860412"><ele>202.33333333333334</ele><time>2026-04-26T08:53:25.115Z</time></trkpt><trkpt lat="42.8705039" lon="11.185968"><ele>200.5</ele><time>2026-04-26T08:53:26.118Z</time></trkpt><trkpt lat="42.8705626" lon="11.1859048"><ele>198.66666666666669</ele><time>2026-04-26T08:53:27.115Z</time></trkpt><trkpt lat="42.8706067" lon="11.1858364"><ele>196.83333333333334</ele><time>2026-04-26T08:53:28.118Z</time></trkpt><trkpt lat="42.8706448" lon="11.1857545"><ele>195.0</ele><time>2026-04-26T08:53:29.131Z</time></trkpt><trkpt lat="42.8706832" lon="11.1856612"><ele>195.0</ele><time>2026-04-26T08:53:30.118Z</time></trkpt><trkpt lat="42.8707341" lon="11.1855607"><ele>195.0</ele><time>2026-04-26T08:53:31.117Z</time></trkpt><trkpt lat="42.8708024" lon="11.1854784"><ele>195.0</ele><time>2026-04-26T08:53:32.111Z</time></trkpt><trkpt lat="42.8708772" lon="11.185398"><ele>195.0</ele><time>2026-04-26T08:53:33.118Z</time></trkpt><trkpt lat="42.8709522" lon="11.1853139"><ele>195.0</ele><time>2026-04-26T08:53:34.112Z</time></trkpt><trkpt lat="42.8710171" lon="11.1852346"><ele>193.83333333333334</ele><time>2026-04-26T08:53:35.116Z</time></trkpt><trkpt lat="42.8710687" lon="11.1851496"><ele>192.66666666666666</ele><time>2026-04-26T08:53:36.117Z</time></trkpt><trkpt lat="42.8711111" lon="11.1850564"><ele>191.5</ele><time>2026-04-26T08:53:37.118Z</time></trkpt><trkpt lat="42.871145" lon="11.1849569"><ele>190.33333333333331</ele><time>2026-04-26T08:53:38.117Z</time></trkpt><trkpt lat="42.8711786" lon="11.1848724"><ele>189.16666666666666</ele><time>2026-04-26T08:53:39.117Z</time></trkpt><trkpt lat="42.8712157" lon="11.1847842"><ele>188.0</ele><time>2026-04-26T08:53:40.108Z</time></trkpt><trkpt lat="42.8712622" lon="11.1846916"><ele>188.0</ele><time>2026-04-26T08:53:41.117Z</time></trkpt><trkpt lat="42.8713123" lon="11.1845958"><ele>188.0</ele><time>2026-04-26T08:53:42.122Z</time></trkpt><trkpt lat="42.871361" lon="11.1845154"><ele>188.0</ele><time>2026-04-26T08:53:43.118Z</time></trkpt><trkpt lat="42.8714003" lon="11.1844283"><ele>188.0</ele><time>2026-04-26T08:53:44.116Z</time></trkpt><trkpt lat="42.8714136" lon="11.1843317"><ele>188.0</ele><time>2026-04-26T08:53:45.133Z</time></trkpt><trkpt lat="42.8714166" lon="11.1842355"><ele>188.0</ele><time>2026-04-26T08:53:46.115Z</time></trkpt><trkpt lat="42.8714099" lon="11.1840807"><ele>189.16666666666666</ele><time>2026-04-26T08:53:48.108Z</time></trkpt><trkpt lat="42.8714333" lon="11.1839467"><ele>190.33333333333331</ele><time>2026-04-26T08:53:50.108Z</time></trkpt><trkpt lat="42.8714437" lon="11.1838454"><ele>191.5</ele><time>2026-04-26T08:53:54.113Z</time></trkpt><trkpt lat="42.8713783" lon="11.1837631"><ele>192.66666666666666</ele><time>2026-04-26T08:55:21.106Z</time></trkpt><trkpt lat="42.8713887" lon="11.1836684"><ele>193.83333333333334</ele><time>2026-04-26T08:55:25.114Z</time></trkpt><trkpt lat="42.8713901" lon="11.1835499"><ele>195.0</ele><time>2026-04-26T08:55:28.157Z</time></trkpt><trkpt lat="42.8713969" lon="11.1834541"><ele>195.0</ele><time>2026-04-26T08:55:31.109Z</time></trkpt><trkpt lat="42.8714106" lon="11.1833697"><ele>195.0</ele><time>2026-04-26T08:55:33.118Z</time></trkpt><trkpt lat="42.871434" lon="11.1832654"><ele>195.0</ele><time>2026-04-26T08:55:36.118Z</time></trkpt><trkpt lat="42.8714425" lon="11.1831718"><ele>195.0</ele><time>2026-04-26T08:55:43.118Z</time></trkpt><trkpt lat="42.8714773" lon="11.1830616"><ele>195.0</ele><time>2026-04-26T08:55:46.108Z</time></trkpt><trkpt lat="42.871507" lon="11.1829616"><ele>195.0</ele><time>2026-04-26T08:55:49.116Z</time></trkpt><trkpt lat="42.8715424" lon="11.1828748"><ele>195.0</ele><time>2026-04-26T08:55:51.116Z</time></trkpt><trkpt lat="42.8715658" lon="11.1827631"><ele>195.0</ele><time>2026-04-26T08:55:54.112Z</time></trkpt><trkpt lat="42.8715754" lon="11.1826775"><ele>195.0</ele><time>2026-04-26T08:55:56.118Z</time></trkpt><trkpt lat="42.8715953" lon="11.1825574"><ele>195.0</ele><time>2026-04-26T08:55:59.108Z</time></trkpt><trkpt lat="42.8716195" lon="11.1824533"><ele>195.0</ele><time>2026-04-26T08:56:02.109Z</time></trkpt><trkpt lat="42.8716448" lon="11.1823578"><ele>195.0</ele><time>2026-04-26T08:56:05.127Z</time></trkpt><trkpt lat="42.8716939" lon="11.1822505"><ele>195.0</ele><time>2026-04-26T08:56:08.112Z</time></trkpt><trkpt lat="42.871735" lon="11.1821394"><ele>195.0</ele><time>2026-04-26T08:56:11.115Z</time></trkpt><trkpt lat="42.871767" lon="11.1820632"><ele>195.0</ele><time>2026-04-26T08:56:13.112Z</time></trkpt><trkpt lat="42.8718217" lon="11.1819714"><ele>195.0</ele><time>2026-04-26T08:56:16.114Z</time></trkpt><trkpt lat="42.8718643" lon="11.1818543"><ele>195.0</ele><time>2026-04-26T08:56:19.12Z</time></trkpt><trkpt lat="42.8719031" lon="11.1817643"><ele>195.0</ele><time>2026-04-26T08:56:21.119Z</time></trkpt><trkpt lat="42.8719335" lon="11.1816567"><ele>195.0</ele><time>2026-04-26T08:56:24.113Z</time></trkpt><trkpt lat="42.8719572" lon="11.1815558"><ele>195.0</ele><time>2026-04-26T08:56:37.115Z</time></trkpt><trkpt lat="42.8719884" lon="11.1814668"><ele>195.0</ele><time>2026-04-26T08:56:39.111Z</time></trkpt><trkpt lat="42.8719962" lon="11.1813705"><ele>195.0</ele><time>2026-04-26T08:56:41.115Z</time></trkpt><trkpt lat="42.8720267" lon="11.181293"><ele>195.0</ele><time>2026-04-26T08:56:43.111Z</time></trkpt><trkpt lat="42.8720652" lon="11.1812096"><ele>195.0</ele><time>2026-04-26T08:56:45.117Z</time></trkpt><trkpt lat="42.8720939" lon="11.1811075"><ele>195.0</ele><time>2026-04-26T08:56:47.132Z</time></trkpt><trkpt lat="42.8721295" lon="11.1810071"><ele>195.33333333333334</ele><time>2026-04-26T08:56:49.123Z</time></trkpt><trkpt lat="42.8721697" lon="11.1809191"><ele>195.66666666666669</ele><time>2026-04-26T08:56:51.109Z</time></trkpt><trkpt lat="42.8722154" lon="11.1808187"><ele>196.0</ele><time>2026-04-26T08:56:54.118Z</time></trkpt><trkpt lat="42.8722325" lon="11.1806986"><ele>196.33333333333334</ele><time>2026-04-26T08:56:58.123Z</time></trkpt><trkpt lat="42.8722043" lon="11.180608"><ele>196.66666666666669</ele><time>2026-04-26T08:57:38.109Z</time></trkpt><trkpt lat="42.8722562" lon="11.1806616"><ele>197.0</ele><time>2026-04-26T08:57:50.11Z</time></trkpt><trkpt lat="42.872284" lon="11.1807629"><ele>197.0</ele><time>2026-04-26T08:57:52.116Z</time></trkpt><trkpt lat="42.8723279" lon="11.1808853"><ele>197.0</ele><time>2026-04-26T08:57:54.107Z</time></trkpt><trkpt lat="42.8723752" lon="11.1809976"><ele>197.0</ele><time>2026-04-26T08:57:56.116Z</time></trkpt><trkpt lat="42.8724283" lon="11.1811333"><ele>197.0</ele><time>2026-04-26T08:57:58.147Z</time></trkpt><trkpt lat="42.87245" lon="11.1812144"><ele>197.0</ele><time>2026-04-26T08:57:59.117Z</time></trkpt><trkpt lat="42.8725008" lon="11.1813726"><ele>196.6</ele><time>2026-04-26T08:58:01.112Z</time></trkpt><trkpt lat="42.8725612" lon="11.1815198"><ele>196.2</ele><time>2026-04-26T08:58:03.114Z</time></trkpt><trkpt lat="42.8725994" lon="11.1815901"><ele>195.8</ele><time>2026-04-26T08:58:04.115Z</time></trkpt><trkpt lat="42.8727019" lon="11.1816495"><ele>195.4</ele><time>2026-04-26T08:58:06.118Z</time></trkpt><trkpt lat="42.8727706" lon="11.1816569"><ele>195.0</ele><time>2026-04-26T08:58:07.109Z</time></trkpt><trkpt lat="42.8728912" lon="11.181654"><ele>196.4</ele><time>2026-04-26T08:58:09.114Z</time></trkpt><trkpt lat="42.8729997" lon="11.1816454"><ele>197.8</ele><time>2026-04-26T08:58:11.118Z</time></trkpt><trkpt lat="42.8730817" lon="11.1815674"><ele>199.2</ele><time>2026-04-26T08:58:13.149Z</time></trkpt><trkpt lat="42.8731536" lon="11.1814729"><ele>200.6</ele><time>2026-04-26T08:58:15.117Z</time></trkpt><trkpt lat="42.8731975" lon="11.1813921"><ele>202.0</ele><time>2026-04-26T08:58:17.108Z</time></trkpt><trkpt lat="42.8732013" lon="11.1812976"><ele>202.14285714285714</ele><time>2026-04-26T09:01:09.114Z</time></trkpt><trkpt lat="42.8732309" lon="11.1812039"><ele>202.28571428571428</ele><time>2026-04-26T09:01:11.115Z</time></trkpt><trkpt lat="42.8732832" lon="11.181124"><ele>202.42857142857144</ele><time>2026-04-26T09:01:13.12Z</time></trkpt><trkpt lat="42.873334" lon="11.1810562"><ele>202.57142857142856</ele><time>2026-04-26T09:01:15.113Z</time></trkpt><trkpt lat="42.8733827" lon="11.1809881"><ele>202.71428571428572</ele><time>2026-04-26T09:01:17.13Z</time></trkpt><trkpt lat="42.8734346" lon="11.1809264"><ele>202.85714285714286</ele><time>2026-04-26T09:01:19.125Z</time></trkpt><trkpt lat="42.8734914" lon="11.1808767"><ele>203.0</ele><time>2026-04-26T09:01:21.122Z</time></trkpt><trkpt lat="42.8735549" lon="11.1807841"><ele>204.33333333333334</ele><time>2026-04-26T09:01:24.114Z</time></trkpt><trkpt lat="42.8735989" lon="11.1807175"><ele>205.66666666666669</ele><time>2026-04-26T09:01:27.114Z</time></trkpt><trkpt lat="42.8736371" lon="11.1806061"><ele>207.0</ele><time>2026-04-26T09:01:34.114Z</time></trkpt><trkpt lat="42.8736954" lon="11.1805076"><ele>208.33333333333331</ele><time>2026-04-26T09:01:37.117Z</time></trkpt><trkpt lat="42.8737735" lon="11.1804529"><ele>209.66666666666666</ele><time>2026-04-26T09:01:40.111Z</time></trkpt><trkpt lat="42.8738551" lon="11.1804284"><ele>211.0</ele><time>2026-04-26T09:01:43.117Z</time></trkpt><trkpt lat="42.8739205" lon="11.1804042"><ele>211.42857142857144</ele><time>2026-04-26T09:01:45.115Z</time></trkpt><trkpt lat="42.8739852" lon="11.1803878"><ele>211.85714285714286</ele><time>2026-04-26T09:01:47.112Z</time></trkpt><trkpt lat="42.8740491" lon="11.1803606"><ele>212.28571428571428</ele><time>2026-04-26T09:01:49.115Z</time></trkpt><trkpt lat="42.8741135" lon="11.1803428"><ele>212.71428571428572</ele><time>2026-04-26T09:01:51.11Z</time></trkpt><trkpt lat="42.8741867" lon="11.1803429"><ele>213.14285714285714</ele><time>2026-04-26T09:01:53.113Z</time></trkpt><trkpt lat="42.8742662" lon="11.1803386"><ele>213.57142857142858</ele><time>2026-04-26T09:01:55.113Z</time></trkpt><trkpt lat="42.8743456" lon="11.1803331"><ele>214.0</ele><time>2026-04-26T09:01:57.144Z</time></trkpt><trkpt lat="42.874417" lon="11.1803207"><ele>215.00000000000003</ele><time>2026-04-26T09:01:59.112Z</time></trkpt><trkpt lat="42.8744799" lon="11.1803093"><ele>216.0</ele><time>2026-04-26T09:02:01.111Z</time></trkpt><trkpt lat="42.8745449" lon="11.1803004"><ele>217.0</ele><time>2026-04-26T09:02:03.116Z</time></trkpt><trkpt lat="42.8746141" lon="11.1803158"><ele>218.0</ele><time>2026-04-26T09:02:05.11Z</time></trkpt><trkpt lat="42.8746893" lon="11.1803264"><ele>219.0</ele><time>2026-04-26T09:02:07.116Z</time></trkpt><trkpt lat="42.874776" lon="11.180321"><ele>220.00000000000003</ele><time>2026-04-26T09:02:09.115Z</time></trkpt><trkpt lat="42.8748606" lon="11.1803458"><ele>221.0</ele><time>2026-04-26T09:02:11.121Z</time></trkpt><trkpt lat="42.8749526" lon="11.1803569"><ele>221.00000000000003</ele><time>2026-04-26T09:02:13.114Z</time></trkpt><trkpt lat="42.8750381" lon="11.1803403"><ele>221.0</ele><time>2026-04-26T09:02:15.121Z</time></trkpt><trkpt lat="42.8751171" lon="11.1803243"><ele>221.0</ele><time>2026-04-26T09:02:17.118Z</time></trkpt><trkpt lat="42.8751997" lon="11.1803155"><ele>221.0</ele><time>2026-04-26T09:02:19.125Z</time></trkpt><trkpt lat="42.8752746" lon="11.1803301"><ele>221.00000000000003</ele><time>2026-04-26T09:02:21.114Z</time></trkpt><trkpt lat="42.8753459" lon="11.1803311"><ele>221.0</ele><time>2026-04-26T09:02:23.117Z</time></trkpt><trkpt lat="42.8754152" lon="11.1802703"><ele>222.4</ele><time>2026-04-26T09:02:27.12Z</time></trkpt><trkpt lat="42.875482" lon="11.180214"><ele>223.8</ele><time>2026-04-26T09:02:29.121Z</time></trkpt><trkpt lat="42.8755674" lon="11.1801704"><ele>225.20000000000002</ele><time>2026-04-26T09:02:31.122Z</time></trkpt><trkpt lat="42.8756508" lon="11.1801523"><ele>226.60000000000002</ele><time>2026-04-26T09:02:33.109Z</time></trkpt><trkpt lat="42.875757" lon="11.1801598"><ele>228.0</ele><time>2026-04-26T09:02:35.133Z</time></trkpt><trkpt lat="42.8758767" lon="11.1801642"><ele>229.25</ele><time>2026-04-26T09:02:37.117Z</time></trkpt><trkpt lat="42.8759915" lon="11.1801616"><ele>230.5</ele><time>2026-04-26T09:02:39.12Z</time></trkpt><trkpt lat="42.8761072" lon="11.1801389"><ele>231.75</ele><time>2026-04-26T09:02:41.112Z</time></trkpt><trkpt lat="42.8762259" lon="11.180132"><ele>233.0</ele><time>2026-04-26T09:02:43.107Z</time></trkpt><trkpt lat="42.8763467" lon="11.1801282"><ele>233.0</ele><time>2026-04-26T09:02:45.113Z</time></trkpt><trkpt lat="42.8764588" lon="11.1801394"><ele>233.0</ele><time>2026-04-26T09:02:47.124Z</time></trkpt><trkpt lat="42.8765615" lon="11.1801481"><ele>233.0</ele><time>2026-04-26T09:02:49.13Z</time></trkpt><trkpt lat="42.8766615" lon="11.1801312"><ele>233.0</ele><time>2026-04-26T09:02:51.115Z</time></trkpt><trkpt lat="42.8767667" lon="11.1801005"><ele>233.0</ele><time>2026-04-26T09:02:53.117Z</time></trkpt><trkpt lat="42.8768792" lon="11.1800575"><ele>232.50000000000003</ele><time>2026-04-26T09:02:55.119Z</time></trkpt><trkpt lat="42.8769436" lon="11.180043"><ele>232.0</ele><time>2026-04-26T09:02:56.121Z</time></trkpt><trkpt lat="42.87701" lon="11.1800337"><ele>231.5</ele><time>2026-04-26T09:02:57.111Z</time></trkpt><trkpt lat="42.877098" lon="11.1800135"><ele>231.0</ele><time>2026-04-26T09:02:59.117Z</time></trkpt><trkpt lat="42.8771659" lon="11.1800275"><ele>230.50000000000003</ele><time>2026-04-26T09:03:59.115Z</time></trkpt><trkpt lat="42.8772203" lon="11.1801097"><ele>230.0</ele><time>2026-04-26T09:04:01.107Z</time></trkpt><trkpt lat="42.8772786" lon="11.1802233"><ele>230.0</ele><time>2026-04-26T09:04:03.13Z</time></trkpt><trkpt lat="42.87733" lon="11.1803637"><ele>230.0</ele><time>2026-04-26T09:04:05.113Z</time></trkpt><trkpt lat="42.8773765" lon="11.1804934"><ele>230.0</ele><time>2026-04-26T09:04:07.113Z</time></trkpt><trkpt lat="42.8774284" lon="11.1806056"><ele>230.0</ele><time>2026-04-26T09:04:09.124Z</time></trkpt><trkpt lat="42.8774942" lon="11.1807067"><ele>230.0</ele><time>2026-04-26T09:04:11.116Z</time></trkpt><trkpt lat="42.8775455" lon="11.1808228"><ele>231.2</ele><time>2026-04-26T09:04:13.135Z</time></trkpt><trkpt lat="42.8775924" lon="11.1809341"><ele>232.4</ele><time>2026-04-26T09:04:15.12Z</time></trkpt><trkpt lat="42.8776513" lon="11.1810438"><ele>233.60000000000002</ele><time>2026-04-26T09:04:17.114Z</time></trkpt><trkpt lat="42.877703" lon="11.1811448"><ele>234.8</ele><time>2026-04-26T09:04:19.113Z</time></trkpt><trkpt lat="42.8777499" lon="11.1812464"><ele>236.0</ele><time>2026-04-26T09:04:21.143Z</time></trkpt><trkpt lat="42.8777871" lon="11.1813599"><ele>236.0</ele><time>2026-04-26T09:04:23.119Z</time></trkpt><trkpt lat="42.8778337" lon="11.1814665"><ele>236.00000000000003</ele><time>2026-04-26T09:04:25.116Z</time></trkpt><trkpt lat="42.8779038" lon="11.1815702"><ele>236.00000000000003</ele><time>2026-04-26T09:04:27.12Z</time></trkpt><trkpt lat="42.8779345" lon="11.1816601"><ele>236.0</ele><time>2026-04-26T09:04:29.12Z</time></trkpt><trkpt lat="42.8779854" lon="11.1817706"><ele>236.0</ele><time>2026-04-26T09:04:55.108Z</time></trkpt><trkpt lat="42.8780464" lon="11.1818813"><ele>238.20000000000002</ele><time>2026-04-26T09:04:57.123Z</time></trkpt><trkpt lat="42.8781091" lon="11.182022"><ele>240.40000000000003</ele><time>2026-04-26T09:04:59.109Z</time></trkpt><trkpt lat="42.8781625" lon="11.1821578"><ele>242.6</ele><time>2026-04-26T09:05:01.108Z</time></trkpt><trkpt lat="42.8781938" lon="11.1822626"><ele>244.8</ele><time>2026-04-26T09:05:03.11Z</time></trkpt><trkpt lat="42.8782309" lon="11.1823413"><ele>247.0</ele><time>2026-04-26T09:05:06.115Z</time></trkpt><trkpt lat="42.8782811" lon="11.1824331"><ele>247.16666666666666</ele><time>2026-04-26T09:05:26.111Z</time></trkpt><trkpt lat="42.8783445" lon="11.1825601"><ele>247.33333333333331</ele><time>2026-04-26T09:05:28.112Z</time></trkpt><trkpt lat="42.8783835" lon="11.1826433"><ele>247.5</ele><time>2026-04-26T09:05:29.117Z</time></trkpt><trkpt lat="42.8784239" lon="11.1827282"><ele>247.66666666666669</ele><time>2026-04-26T09:05:30.11Z</time></trkpt><trkpt lat="42.8784621" lon="11.1828144"><ele>247.83333333333334</ele><time>2026-04-26T09:05:31.12Z</time></trkpt><trkpt lat="42.8785023" lon="11.1828896"><ele>248.0</ele><time>2026-04-26T09:05:32.117Z</time></trkpt><trkpt lat="42.878541" lon="11.182961"><ele>248.0</ele><time>2026-04-26T09:05:33.114Z</time></trkpt><trkpt lat="42.8785778" lon="11.1830368"><ele>248.00000000000003</ele><time>2026-04-26T09:05:34.12Z</time></trkpt><trkpt lat="42.87861" lon="11.1831159"><ele>248.0</ele><time>2026-04-26T09:05:35.116Z</time></trkpt><trkpt lat="42.8786435" lon="11.1832041"><ele>248.0</ele><time>2026-04-26T09:05:36.11Z</time></trkpt><trkpt lat="42.8786814" lon="11.1832828"><ele>248.00000000000003</ele><time>2026-04-26T09:05:37.115Z</time></trkpt><trkpt lat="42.8787222" lon="11.1833555"><ele>248.0</ele><time>2026-04-26T09:05:38.121Z</time></trkpt><trkpt lat="42.8787606" lon="11.1834267"><ele>248.0</ele><time>2026-04-26T09:05:39.12Z</time></trkpt><trkpt lat="42.8788002" lon="11.1834974"><ele>248.42857142857144</ele><time>2026-04-26T09:05:40.116Z</time></trkpt><trkpt lat="42.8788677" lon="11.183627"><ele>248.8571428571429</ele><time>2026-04-26T09:05:42.116Z</time></trkpt><trkpt lat="42.8789035" lon="11.1837002"><ele>249.28571428571428</ele><time>2026-04-26T09:05:43.111Z</time></trkpt><trkpt lat="42.8789417" lon="11.1837758"><ele>249.71428571428572</ele><time>2026-04-26T09:05:44.117Z</time></trkpt><trkpt lat="42.8789766" lon="11.1838549"><ele>250.14285714285714</ele><time>2026-04-26T09:05:45.114Z</time></trkpt><trkpt lat="42.879009" lon="11.1839301"><ele>250.57142857142856</ele><time>2026-04-26T09:05:46.119Z</time></trkpt><trkpt lat="42.8790447" lon="11.1840069"><ele>250.99999999999997</ele><time>2026-04-26T09:05:47.119Z</time></trkpt><trkpt lat="42.879074" lon="11.1840888"><ele>252.00000000000003</ele><time>2026-04-26T09:05:48.12Z</time></trkpt><trkpt lat="42.8791052" lon="11.1841691"><ele>253.0</ele><time>2026-04-26T09:05:49.112Z</time></trkpt><trkpt lat="42.8791423" lon="11.184241"><ele>254.0</ele><time>2026-04-26T09:05:50.125Z</time></trkpt><trkpt lat="42.8792189" lon="11.1843689"><ele>255.0</ele><time>2026-04-26T09:05:52.114Z</time></trkpt><trkpt lat="42.8792594" lon="11.1844366"><ele>256.0</ele><time>2026-04-26T09:05:53.113Z</time></trkpt><trkpt lat="42.8792945" lon="11.1845549"><ele>257.0</ele><time>2026-04-26T09:05:55.115Z</time></trkpt><trkpt lat="42.8793101" lon="11.1846601"><ele>257.0</ele><time>2026-04-26T09:05:57.112Z</time></trkpt><trkpt lat="42.8793539" lon="11.1847519"><ele>257.0</ele><time>2026-04-26T09:05:59.11Z</time></trkpt><trkpt lat="42.8794046" lon="11.1848565"><ele>257.0</ele><time>2026-04-26T09:06:01.109Z</time></trkpt><trkpt lat="42.8794379" lon="11.1849367"><ele>257.0</ele><time>2026-04-26T09:06:03.119Z</time></trkpt><trkpt lat="42.8794953" lon="11.1850699"><ele>257.0</ele><time>2026-04-26T09:06:19.115Z</time></trkpt><trkpt lat="42.879567" lon="11.1851974"><ele>257.2</ele><time>2026-04-26T09:06:21.109Z</time></trkpt><trkpt lat="42.8796049" lon="11.1852686"><ele>257.4</ele><time>2026-04-26T09:06:22.113Z</time></trkpt><trkpt lat="42.879681" lon="11.1853977"><ele>257.6</ele><time>2026-04-26T09:06:24.14Z</time></trkpt><trkpt lat="42.8797508" lon="11.1855313"><ele>257.8</ele><time>2026-04-26T09:06:26.112Z</time></trkpt><trkpt lat="42.8798184" lon="11.1856719"><ele>258.0</ele><time>2026-04-26T09:06:28.113Z</time></trkpt><trkpt lat="42.8798745" lon="11.1858186"><ele>259.0</ele><time>2026-04-26T09:06:30.115Z</time></trkpt><trkpt lat="42.8799449" lon="11.1859496"><ele>260.0</ele><time>2026-04-26T09:06:32.108Z</time></trkpt><trkpt lat="42.8800045" lon="11.1860794"><ele>261.0</ele><time>2026-04-26T09:06:34.103Z</time></trkpt><trkpt lat="42.8800616" lon="11.1862152"><ele>262.0</ele><time>2026-04-26T09:06:36.106Z</time></trkpt><trkpt lat="42.8801252" lon="11.1863317"><ele>261.8</ele><time>2026-04-26T09:06:38.108Z</time></trkpt><trkpt lat="42.8801847" lon="11.1864417"><ele>261.6</ele><time>2026-04-26T09:06:40.124Z</time></trkpt><trkpt lat="42.8802398" lon="11.186558"><ele>261.40000000000003</ele><time>2026-04-26T09:06:42.116Z</time></trkpt><trkpt lat="42.880292" lon="11.186687"><ele>261.2</ele><time>2026-04-26T09:06:44.102Z</time></trkpt><trkpt lat="42.880349" lon="11.1868121"><ele>261.0</ele><time>2026-04-26T09:06:46.104Z</time></trkpt><trkpt lat="42.8804073" lon="11.1869473"><ele>261.0</ele><time>2026-04-26T09:06:48.108Z</time></trkpt><trkpt lat="42.8804715" lon="11.1870747"><ele>261.0</ele><time>2026-04-26T09:06:50.102Z</time></trkpt><trkpt lat="42.8805443" lon="11.1872106"><ele>261.0</ele><time>2026-04-26T09:06:52.12Z</time></trkpt><trkpt lat="42.8805906" lon="11.1872958"><ele>261.0</ele><time>2026-04-26T09:06:53.114Z</time></trkpt><trkpt lat="42.88064" lon="11.1873861"><ele>261.0</ele><time>2026-04-26T09:06:54.11Z</time></trkpt><trkpt lat="42.8806852" lon="11.187471"><ele>263.42857142857144</ele><time>2026-04-26T09:06:55.106Z</time></trkpt><trkpt lat="42.8807311" lon="11.1875669"><ele>265.85714285714283</ele><time>2026-04-26T09:06:56.113Z</time></trkpt><trkpt lat="42.8807781" lon="11.1876602"><ele>268.2857142857143</ele><time>2026-04-26T09:06:57.111Z</time></trkpt><trkpt lat="42.8808113" lon="11.1877467"><ele>270.7142857142857</ele><time>2026-04-26T09:06:58.106Z</time></trkpt><trkpt lat="42.8808503" lon="11.1878172"><ele>273.14285714285717</ele><time>2026-04-26T09:06:59.106Z</time></trkpt><trkpt lat="42.8808932" lon="11.1878836"><ele>275.57142857142856</ele><time>2026-04-26T09:07:00.107Z</time></trkpt><trkpt lat="42.8809351" lon="11.1879517"><ele>278.0</ele><time>2026-04-26T09:07:01.123Z</time></trkpt><trkpt lat="42.8809943" lon="11.1881076"><ele>280.83333333333337</ele><time>2026-04-26T09:07:03.109Z</time></trkpt><trkpt lat="42.8810253" lon="11.1881922"><ele>283.6666666666667</ele><time>2026-04-26T09:07:05.113Z</time></trkpt><trkpt lat="42.8810624" lon="11.1882732"><ele>286.5</ele><time>2026-04-26T09:12:58.109Z</time></trkpt><trkpt lat="42.8811055" lon="11.1883955"><ele>289.3333333333333</ele><time>2026-04-26T09:13:00.123Z</time></trkpt><trkpt lat="42.8811369" lon="11.1884866"><ele>292.16666666666663</ele><time>2026-04-26T09:13:01.113Z</time></trkpt><trkpt lat="42.8811774" lon="11.1885729"><ele>295.0</ele><time>2026-04-26T09:13:02.11Z</time></trkpt><trkpt lat="42.8812261" lon="11.1886447"><ele>295.0</ele><time>2026-04-26T09:13:03.107Z</time></trkpt><trkpt lat="42.8812701" lon="11.1887113"><ele>295.0</ele><time>2026-04-26T09:13:04.111Z</time></trkpt><trkpt lat="42.8813427" lon="11.1888444"><ele>295.0</ele><time>2026-04-26T09:13:06.109Z</time></trkpt><trkpt lat="42.8814075" lon="11.1889943"><ele>295.0</ele><time>2026-04-26T09:13:08.133Z</time></trkpt><trkpt lat="42.8814314" lon="11.1890754"><ele>295.0</ele><time>2026-04-26T09:13:09.112Z</time></trkpt><trkpt lat="42.8814619" lon="11.1891579"><ele>295.0</ele><time>2026-04-26T09:13:10.108Z</time></trkpt><trkpt lat="42.8815003" lon="11.189249"><ele>298.16666666666663</ele><time>2026-04-26T09:13:11.114Z</time></trkpt><trkpt lat="42.8815324" lon="11.1893277"><ele>301.3333333333333</ele><time>2026-04-26T09:13:12.108Z</time></trkpt><trkpt lat="42.8815635" lon="11.1894495"><ele>304.5</ele><time>2026-04-26T09:13:14.107Z</time></trkpt><trkpt lat="42.8815922" lon="11.1895734"><ele>307.6666666666667</ele><time>2026-04-26T09:13:16.106Z</time></trkpt><trkpt lat="42.8816216" lon="11.1896938"><ele>310.83333333333337</ele><time>2026-04-26T09:13:18.11Z</time></trkpt><trkpt lat="42.8816745" lon="11.1897823"><ele>314.0</ele><time>2026-04-26T09:13:20.107Z</time></trkpt><trkpt lat="42.8817388" lon="11.1898869"><ele>319.0</ele><time>2026-04-26T09:13:22.111Z</time></trkpt><trkpt lat="42.8818017" lon="11.1899713"><ele>324.0</ele><time>2026-04-26T09:13:24.11Z</time></trkpt><trkpt lat="42.8818814" lon="11.1900522"><ele>329.0</ele><time>2026-04-26T09:13:59.107Z</time></trkpt><trkpt lat="42.8819831" lon="11.1901263"><ele>334.0</ele><time>2026-04-26T09:14:01.106Z</time></trkpt><trkpt lat="42.8820436" lon="11.1901618"><ele>339.0</ele><time>2026-04-26T09:14:02.098Z</time></trkpt><trkpt lat="42.8821069" lon="11.1901907"><ele>344.0</ele><time>2026-04-26T09:14:03.105Z</time></trkpt><trkpt lat="42.8821744" lon="11.190202"><ele>344.0</ele><time>2026-04-26T09:14:04.109Z</time></trkpt><trkpt lat="42.8822856" lon="11.1901675"><ele>344.0</ele><time>2026-04-26T09:14:06.124Z</time></trkpt><trkpt lat="42.8824013" lon="11.190139"><ele>344.0</ele><time>2026-04-26T09:14:08.112Z</time></trkpt><trkpt lat="42.8825116" lon="11.1900681"><ele>344.0</ele><time>2026-04-26T09:14:10.1Z</time></trkpt><trkpt lat="42.8825643" lon="11.1899968"><ele>344.0</ele><time>2026-04-26T09:14:11.104Z</time></trkpt><trkpt lat="42.8825996" lon="11.1899222"><ele>346.28571428571433</ele><time>2026-04-26T09:14:12.108Z</time></trkpt><trkpt lat="42.8826352" lon="11.1898232"><ele>348.57142857142856</ele><time>2026-04-26T09:14:13.111Z</time></trkpt><trkpt lat="42.882672" lon="11.1897318"><ele>350.8571428571429</ele><time>2026-04-26T09:14:14.111Z</time></trkpt><trkpt lat="42.8826998" lon="11.1896521"><ele>353.14285714285717</ele><time>2026-04-26T09:14:15.13Z</time></trkpt><trkpt lat="42.8827184" lon="11.1895679"><ele>355.42857142857144</ele><time>2026-04-26T09:14:16.109Z</time></trkpt><trkpt lat="42.8827419" lon="11.1894848"><ele>357.7142857142857</ele><time>2026-04-26T09:14:17.107Z</time></trkpt><trkpt lat="42.8827611" lon="11.189383"><ele>360.0</ele><time>2026-04-26T09:14:18.111Z</time></trkpt><trkpt lat="42.8827828" lon="11.1892902"><ele>360.0</ele><time>2026-04-26T09:14:19.111Z</time></trkpt><trkpt lat="42.8828065" lon="11.1891921"><ele>360.0</ele><time>2026-04-26T09:14:20.129Z</time></trkpt><trkpt lat="42.8828311" lon="11.1890898"><ele>360.0</ele><time>2026-04-26T09:14:21.113Z</time></trkpt><trkpt lat="42.8828576" lon="11.1889822"><ele>360.0</ele><time>2026-04-26T09:14:22.111Z</time></trkpt><trkpt lat="42.8828973" lon="11.1888715"><ele>360.0</ele><time>2026-04-26T09:14:23.114Z</time></trkpt><trkpt lat="42.882931" lon="11.1887595"><ele>360.0</ele><time>2026-04-26T09:14:24.113Z</time></trkpt><trkpt lat="42.882965" lon="11.1886568"><ele>357.8</ele><time>2026-04-26T09:14:25.106Z</time></trkpt><trkpt lat="42.882993" lon="11.1885525"><ele>355.6</ele><time>2026-04-26T09:14:26.11Z</time></trkpt><trkpt lat="42.8830341" lon="11.1884616"><ele>353.4</ele><time>2026-04-26T09:14:27.107Z</time></trkpt><trkpt lat="42.8831265" lon="11.1883562"><ele>351.2</ele><time>2026-04-26T09:14:29.123Z</time></trkpt><trkpt lat="42.8832392" lon="11.188331"><ele>349.0</ele><time>2026-04-26T09:14:31.11Z</time></trkpt><trkpt lat="42.8833271" lon="11.1883592"><ele>349.0</ele><time>2026-04-26T09:14:33.099Z</time></trkpt><trkpt lat="42.883417" lon="11.1884089"><ele>349.0</ele><time>2026-04-26T09:14:36.113Z</time></trkpt><trkpt lat="42.8834893" lon="11.1884471"><ele>349.0</ele><time>2026-04-26T09:14:38.12Z</time></trkpt><trkpt lat="42.8835656" lon="11.1885106"><ele>349.0</ele><time>2026-04-26T09:14:40.107Z</time></trkpt><trkpt lat="42.88365" lon="11.1885896"><ele>349.0</ele><time>2026-04-26T09:14:42.112Z</time></trkpt><trkpt lat="42.8837431" lon="11.1886695"><ele>347.6</ele><time>2026-04-26T09:14:44.106Z</time></trkpt><trkpt lat="42.8838544" lon="11.1887611"><ele>346.2</ele><time>2026-04-26T09:14:46.114Z</time></trkpt><trkpt lat="42.8839095" lon="11.1888098"><ele>344.8</ele><time>2026-04-26T09:14:47.109Z</time></trkpt><trkpt lat="42.8839636" lon="11.1888634"><ele>343.40000000000003</ele><time>2026-04-26T09:14:48.111Z</time></trkpt><trkpt lat="42.8840604" lon="11.1889574"><ele>342.0</ele><time>2026-04-26T09:14:50.109Z</time></trkpt><trkpt lat="42.8841541" lon="11.1890602"><ele>344.6</ele><time>2026-04-26T09:14:52.115Z</time></trkpt><trkpt lat="42.8842401" lon="11.1891552"><ele>347.20000000000005</ele><time>2026-04-26T09:14:54.108Z</time></trkpt><trkpt lat="42.8842869" lon="11.1892132"><ele>349.8</ele><time>2026-04-26T09:14:56.111Z</time></trkpt><trkpt lat="42.8843362" lon="11.1893319"><ele>352.4</ele><time>2026-04-26T09:16:18.11Z</time></trkpt><trkpt lat="42.8843931" lon="11.1894331"><ele>355.0</ele><time>2026-04-26T09:16:20.152Z</time></trkpt><trkpt lat="42.8844608" lon="11.1894988"><ele>355.0</ele><time>2026-04-26T09:16:22.115Z</time></trkpt><trkpt lat="42.8845372" lon="11.1894879"><ele>355.0</ele><time>2026-04-26T09:16:24.109Z</time></trkpt><trkpt lat="42.8845955" lon="11.189448"><ele>355.0</ele><time>2026-04-26T09:16:25.112Z</time></trkpt><trkpt lat="42.8846523" lon="11.1894055"><ele>355.0</ele><time>2026-04-26T09:16:26.108Z</time></trkpt><trkpt lat="42.8847054" lon="11.1893535"><ele>355.0</ele><time>2026-04-26T09:16:27.149Z</time></trkpt><trkpt lat="42.8847544" lon="11.1892961"><ele>355.0</ele><time>2026-04-26T09:16:28.117Z</time></trkpt><trkpt lat="42.8848401" lon="11.1891781"><ele>355.0</ele><time>2026-04-26T09:16:30.114Z</time></trkpt><trkpt lat="42.8848951" lon="11.1891156"><ele>355.0</ele><time>2026-04-26T09:16:31.108Z</time></trkpt><trkpt lat="42.8849569" lon="11.1890551"><ele>355.0</ele><time>2026-04-26T09:16:32.11Z</time></trkpt><trkpt lat="42.8850173" lon="11.1889833"><ele>355.0</ele><time>2026-04-26T09:16:33.11Z</time></trkpt><trkpt lat="42.8850821" lon="11.1889212"><ele>355.0</ele><time>2026-04-26T09:16:34.102Z</time></trkpt><trkpt lat="42.8851567" lon="11.1888586"><ele>355.0</ele><time>2026-04-26T09:16:35.108Z</time></trkpt><trkpt lat="42.8852354" lon="11.1888131"><ele>357.0</ele><time>2026-04-26T09:16:36.115Z</time></trkpt><trkpt lat="42.885312" lon="11.1887811"><ele>359.0</ele><time>2026-04-26T09:16:37.117Z</time></trkpt><trkpt lat="42.8853952" lon="11.1887502"><ele>361.0</ele><time>2026-04-26T09:16:38.109Z</time></trkpt><trkpt lat="42.8854634" lon="11.1887123"><ele>363.0</ele><time>2026-04-26T09:16:39.11Z</time></trkpt><trkpt lat="42.8855199" lon="11.1885812"><ele>365.0</ele><time>2026-04-26T09:16:41.106Z</time></trkpt><trkpt lat="42.8854691" lon="11.1884413"><ele>365.0</ele><time>2026-04-26T09:16:43.116Z</time></trkpt><trkpt lat="42.8854279" lon="11.1883563"><ele>365.0</ele><time>2026-04-26T09:16:44.143Z</time></trkpt><trkpt lat="42.8853813" lon="11.1882754"><ele>365.0</ele><time>2026-04-26T09:16:45.113Z</time></trkpt><trkpt lat="42.8853406" lon="11.1881914"><ele>365.0</ele><time>2026-04-26T09:16:46.109Z</time></trkpt><trkpt lat="42.8853137" lon="11.1880183"><ele>365.0</ele><time>2026-04-26T09:16:48.104Z</time></trkpt><trkpt lat="42.8853453" lon="11.1878883"><ele>364.1666666666667</ele><time>2026-04-26T09:16:50.102Z</time></trkpt><trkpt lat="42.8854301" lon="11.1877597"><ele>363.33333333333337</ele><time>2026-04-26T09:16:52.115Z</time></trkpt><trkpt lat="42.8854854" lon="11.1877126"><ele>362.5</ele><time>2026-04-26T09:16:53.111Z</time></trkpt><trkpt lat="42.8855397" lon="11.1876652"><ele>361.6666666666667</ele><time>2026-04-26T09:16:54.126Z</time></trkpt><trkpt lat="42.8855953" lon="11.1876117"><ele>360.8333333333333</ele><time>2026-04-26T09:16:55.108Z</time></trkpt><trkpt lat="42.8856506" lon="11.1875474"><ele>360.0</ele><time>2026-04-26T09:16:56.11Z</time></trkpt><trkpt lat="42.8857007" lon="11.1874895"><ele>360.0</ele><time>2026-04-26T09:16:57.117Z</time></trkpt><trkpt lat="42.8857499" lon="11.187424"><ele>360.0</ele><time>2026-04-26T09:16:58.118Z</time></trkpt><trkpt lat="42.8857985" lon="11.1873598"><ele>360.0</ele><time>2026-04-26T09:16:59.11Z</time></trkpt><trkpt lat="42.8858868" lon="11.1872443"><ele>360.0</ele><time>2026-04-26T09:17:01.112Z</time></trkpt><trkpt lat="42.8859813" lon="11.1871219"><ele>360.0</ele><time>2026-04-26T09:17:03.109Z</time></trkpt><trkpt lat="42.8860283" lon="11.1870602"><ele>359.2857142857143</ele><time>2026-04-26T09:17:04.108Z</time></trkpt><trkpt lat="42.8860747" lon="11.1869951"><ele>358.5714285714286</ele><time>2026-04-26T09:17:05.108Z</time></trkpt><trkpt lat="42.8861294" lon="11.1869379"><ele>357.8571428571429</ele><time>2026-04-26T09:17:06.105Z</time></trkpt><trkpt lat="42.8861873" lon="11.1868861"><ele>357.1428571428571</ele><time>2026-04-26T09:17:07.112Z</time></trkpt><trkpt lat="42.886249" lon="11.1868303"><ele>356.42857142857144</ele><time>2026-04-26T09:17:08.109Z</time></trkpt><trkpt lat="42.8863069" lon="11.1867864"><ele>355.7142857142857</ele><time>2026-04-26T09:17:09.146Z</time></trkpt><trkpt lat="42.8863806" lon="11.186765"><ele>355.0</ele><time>2026-04-26T09:17:10.109Z</time></trkpt><trkpt lat="42.8864609" lon="11.1867662"><ele>355.0</ele><time>2026-04-26T09:17:11.109Z</time></trkpt><trkpt lat="42.8865458" lon="11.1867818"><ele>355.0</ele><time>2026-04-26T09:17:12.115Z</time></trkpt><trkpt lat="42.8866413" lon="11.1868025"><ele>355.0</ele><time>2026-04-26T09:17:13.107Z</time></trkpt><trkpt lat="42.8867334" lon="11.1868251"><ele>355.0</ele><time>2026-04-26T09:17:14.134Z</time></trkpt><trkpt lat="42.8868306" lon="11.1868544"><ele>355.0</ele><time>2026-04-26T09:17:15.112Z</time></trkpt><trkpt lat="42.8869308" lon="11.1868728"><ele>353.8</ele><time>2026-04-26T09:17:16.113Z</time></trkpt><trkpt lat="42.8870292" lon="11.1868951"><ele>352.6</ele><time>2026-04-26T09:17:17.117Z</time></trkpt><trkpt lat="42.8871226" lon="11.1869097"><ele>351.4</ele><time>2026-04-26T09:17:18.116Z</time></trkpt><trkpt lat="42.8872113" lon="11.1869305"><ele>350.2</ele><time>2026-04-26T09:17:19.133Z</time></trkpt><trkpt lat="42.8872979" lon="11.186961"><ele>349.0</ele><time>2026-04-26T09:17:20.118Z</time></trkpt><trkpt lat="42.8873824" lon="11.1869964"><ele>349.0</ele><time>2026-04-26T09:17:21.111Z</time></trkpt><trkpt lat="42.8874667" lon="11.1870403"><ele>349.0</ele><time>2026-04-26T09:17:22.109Z</time></trkpt><trkpt lat="42.8875442" lon="11.1870998"><ele>349.0</ele><time>2026-04-26T09:17:23.11Z</time></trkpt><trkpt lat="42.8876163" lon="11.1871754"><ele>349.0</ele><time>2026-04-26T09:17:24.107Z</time></trkpt><trkpt lat="42.8876917" lon="11.1872581"><ele>349.0</ele><time>2026-04-26T09:17:25.118Z</time></trkpt><trkpt lat="42.8877652" lon="11.187335"><ele>349.0</ele><time>2026-04-26T09:17:26.113Z</time></trkpt><trkpt lat="42.8878353" lon="11.1874137"><ele>349.0</ele><time>2026-04-26T09:17:27.116Z</time></trkpt><trkpt lat="42.8879076" lon="11.1874982"><ele>349.0</ele><time>2026-04-26T09:17:28.111Z</time></trkpt><trkpt lat="42.8879819" lon="11.1875912"><ele>349.0</ele><time>2026-04-26T09:17:29.141Z</time></trkpt><trkpt lat="42.8880536" lon="11.1876821"><ele>349.0</ele><time>2026-04-26T09:17:30.106Z</time></trkpt><trkpt lat="42.8881273" lon="11.1877707"><ele>349.0</ele><time>2026-04-26T09:17:31.11Z</time></trkpt><trkpt lat="42.8882051" lon="11.1878633"><ele>349.0</ele><time>2026-04-26T09:17:32.107Z</time></trkpt><trkpt lat="42.8882819" lon="11.1879547"><ele>349.0</ele><time>2026-04-26T09:17:33.108Z</time></trkpt><trkpt lat="42.8883619" lon="11.1880397"><ele>349.0</ele><time>2026-04-26T09:17:34.103Z</time></trkpt><trkpt lat="42.888451" lon="11.1881146"><ele>349.0</ele><time>2026-04-26T09:17:35.098Z</time></trkpt><trkpt lat="42.8885382" lon="11.1881868"><ele>349.79999999999995</ele><time>2026-04-26T09:17:36.156Z</time></trkpt><trkpt lat="42.8886257" lon="11.1882597"><ele>350.59999999999997</ele><time>2026-04-26T09:17:37.112Z</time></trkpt><trkpt lat="42.8887018" lon="11.1883327"><ele>351.4</ele><time>2026-04-26T09:17:38.108Z</time></trkpt><trkpt lat="42.8887804" lon="11.1884078"><ele>352.2</ele><time>2026-04-26T09:17:39.106Z</time></trkpt><trkpt lat="42.8888589" lon="11.1884653"><ele>353.0</ele><time>2026-04-26T09:17:40.105Z</time></trkpt><trkpt lat="42.8889386" lon="11.1884915"><ele>353.0</ele><time>2026-04-26T09:17:41.126Z</time></trkpt><trkpt lat="42.8890216" lon="11.1885092"><ele>353.0</ele><time>2026-04-26T09:17:42.11Z</time></trkpt><trkpt lat="42.8891098" lon="11.1885316"><ele>353.0</ele><time>2026-04-26T09:17:43.104Z</time></trkpt><trkpt lat="42.8891911" lon="11.1885619"><ele>353.0</ele><time>2026-04-26T09:17:44.1Z</time></trkpt><trkpt lat="42.8892768" lon="11.1885845"><ele>353.0</ele><time>2026-04-26T09:17:45.105Z</time></trkpt><trkpt lat="42.8893621" lon="11.1886097"><ele>353.0</ele><time>2026-04-26T09:17:46.108Z</time></trkpt><trkpt lat="42.889444" lon="11.1886217"><ele>351.33333333333337</ele><time>2026-04-26T09:17:47.11Z</time></trkpt><trkpt lat="42.8895293" lon="11.1886044"><ele>349.6666666666667</ele><time>2026-04-26T09:17:48.107Z</time></trkpt><trkpt lat="42.8896017" lon="11.1885792"><ele>348.0</ele><time>2026-04-26T09:17:49.124Z</time></trkpt><trkpt lat="42.8896661" lon="11.1885596"><ele>346.3333333333333</ele><time>2026-04-26T09:17:50.114Z</time></trkpt><trkpt lat="42.8897311" lon="11.1885565"><ele>344.66666666666663</ele><time>2026-04-26T09:17:51.109Z</time></trkpt><trkpt lat="42.8898596" lon="11.1886161"><ele>343.0</ele><time>2026-04-26T09:17:53.112Z</time></trkpt><trkpt lat="42.8899275" lon="11.1886378"><ele>343.0</ele><time>2026-04-26T09:17:54.105Z</time></trkpt><trkpt lat="42.8899965" lon="11.1886648"><ele>343.0</ele><time>2026-04-26T09:17:55.116Z</time></trkpt><trkpt lat="42.8900617" lon="11.1887008"><ele>343.0</ele><time>2026-04-26T09:17:56.105Z</time></trkpt><trkpt lat="42.8901197" lon="11.1887367"><ele>343.0</ele><time>2026-04-26T09:17:57.109Z</time></trkpt><trkpt lat="42.8901734" lon="11.1887849"><ele>343.0</ele><time>2026-04-26T09:17:58.116Z</time></trkpt><trkpt lat="42.8902208" lon="11.1888439"><ele>343.0</ele><time>2026-04-26T09:17:59.113Z</time></trkpt><trkpt lat="42.8902622" lon="11.1889139"><ele>343.0</ele><time>2026-04-26T09:18:00.111Z</time></trkpt><trkpt lat="42.8903044" lon="11.1889826"><ele>342.4</ele><time>2026-04-26T09:18:01.109Z</time></trkpt><trkpt lat="42.8903471" lon="11.1890476"><ele>341.79999999999995</ele><time>2026-04-26T09:18:02.127Z</time></trkpt><trkpt lat="42.8904108" lon="11.1891919"><ele>341.2</ele><time>2026-04-26T09:18:04.106Z</time></trkpt><trkpt lat="42.8904586" lon="11.1893578"><ele>340.6</ele><time>2026-04-26T09:18:06.107Z</time></trkpt><trkpt lat="42.8905404" lon="11.1894786"><ele>340.0</ele><time>2026-04-26T09:18:08.112Z</time></trkpt><trkpt lat="42.8906603" lon="11.1895103"><ele>340.0</ele><time>2026-04-26T09:18:10.141Z</time></trkpt><trkpt lat="42.8907227" lon="11.1895276"><ele>340.0</ele><time>2026-04-26T09:18:11.105Z</time></trkpt><trkpt lat="42.8907895" lon="11.1895559"><ele>340.0</ele><time>2026-04-26T09:18:12.11Z</time></trkpt><trkpt lat="42.8908497" lon="11.1895932"><ele>340.0</ele><time>2026-04-26T09:18:13.108Z</time></trkpt><trkpt lat="42.8909078" lon="11.1896347"><ele>340.0</ele><time>2026-04-26T09:18:14.108Z</time></trkpt><trkpt lat="42.890965" lon="11.1896818"><ele>340.0</ele><time>2026-04-26T09:18:15.105Z</time></trkpt><trkpt lat="42.8910271" lon="11.1897296"><ele>340.0</ele><time>2026-04-26T09:18:16.107Z</time></trkpt><trkpt lat="42.8910884" lon="11.1897902"><ele>340.14285714285717</ele><time>2026-04-26T09:18:17.105Z</time></trkpt><trkpt lat="42.8911497" lon="11.1898365"><ele>340.2857142857143</ele><time>2026-04-26T09:18:18.112Z</time></trkpt><trkpt lat="42.8912131" lon="11.1898846"><ele>340.42857142857144</ele><time>2026-04-26T09:18:19.11Z</time></trkpt><trkpt lat="42.8912765" lon="11.189936"><ele>340.57142857142856</ele><time>2026-04-26T09:18:20.107Z</time></trkpt><trkpt lat="42.8913386" lon="11.189979"><ele>340.7142857142857</ele><time>2026-04-26T09:18:21.103Z</time></trkpt><trkpt lat="42.8913987" lon="11.1900241"><ele>340.85714285714283</ele><time>2026-04-26T09:18:22.107Z</time></trkpt><trkpt lat="42.8914619" lon="11.1900651"><ele>341.0</ele><time>2026-04-26T09:18:23.11Z</time></trkpt><trkpt lat="42.8915215" lon="11.1901058"><ele>341.0</ele><time>2026-04-26T09:18:24.107Z</time></trkpt><trkpt lat="42.8915843" lon="11.1901327"><ele>341.0</ele><time>2026-04-26T09:18:25.109Z</time></trkpt><trkpt lat="42.8916475" lon="11.1901547"><ele>341.0</ele><time>2026-04-26T09:18:26.134Z</time></trkpt><trkpt lat="42.8917131" lon="11.1901711"><ele>341.0</ele><time>2026-04-26T09:18:27.108Z</time></trkpt><trkpt lat="42.8917771" lon="11.1901802"><ele>341.0</ele><time>2026-04-26T09:18:28.112Z</time></trkpt><trkpt lat="42.8918968" lon="11.1901974"><ele>341.0</ele><time>2026-04-26T09:18:30.114Z</time></trkpt><trkpt lat="42.8920168" lon="11.1901942"><ele>340.0</ele><time>2026-04-26T09:18:32.11Z</time></trkpt><trkpt lat="42.8921166" lon="11.1901538"><ele>339.0</ele><time>2026-04-26T09:18:34.108Z</time></trkpt><trkpt lat="42.8921937" lon="11.1900959"><ele>338.0</ele><time>2026-04-26T09:18:36.108Z</time></trkpt><trkpt lat="42.8922395" lon="11.1900359"><ele>337.0</ele><time>2026-04-26T09:18:38.111Z</time></trkpt><trkpt lat="42.8922532" lon="11.1899099"><ele>336.0</ele><time>2026-04-26T09:18:49.105Z</time></trkpt><trkpt lat="42.8922926" lon="11.1897957"><ele>335.0</ele><time>2026-04-26T09:18:51.118Z</time></trkpt><trkpt lat="42.8923513" lon="11.1896319"><ele>334.99999999999994</ele><time>2026-04-26T09:18:53.127Z</time></trkpt><trkpt lat="42.8923827" lon="11.1895319"><ele>335.0</ele><time>2026-04-26T09:18:54.115Z</time></trkpt><trkpt lat="42.8924256" lon="11.1894383"><ele>335.0</ele><time>2026-04-26T09:18:55.115Z</time></trkpt><trkpt lat="42.8924721" lon="11.1893576"><ele>335.0</ele><time>2026-04-26T09:18:56.111Z</time></trkpt><trkpt lat="42.8925111" lon="11.1892782"><ele>335.0</ele><time>2026-04-26T09:18:57.112Z</time></trkpt><trkpt lat="42.8925569" lon="11.1892171"><ele>334.99999999999994</ele><time>2026-04-26T09:18:58.104Z</time></trkpt><trkpt lat="42.8926146" lon="11.1891728"><ele>335.0</ele><time>2026-04-26T09:18:59.104Z</time></trkpt><trkpt lat="42.8926737" lon="11.1891318"><ele>335.71428571428567</ele><time>2026-04-26T09:19:00.112Z</time></trkpt><trkpt lat="42.8927381" lon="11.1890819"><ele>336.42857142857144</ele><time>2026-04-26T09:19:01.109Z</time></trkpt><trkpt lat="42.8927946" lon="11.189029"><ele>337.1428571428571</ele><time>2026-04-26T09:19:02.125Z</time></trkpt><trkpt lat="42.8928522" lon="11.1889598"><ele>337.85714285714283</ele><time>2026-04-26T09:19:03.106Z</time></trkpt><trkpt lat="42.8929101" lon="11.1888909"><ele>338.57142857142856</ele><time>2026-04-26T09:19:04.106Z</time></trkpt><trkpt lat="42.8929595" lon="11.1888228"><ele>339.2857142857143</ele><time>2026-04-26T09:19:05.104Z</time></trkpt><trkpt lat="42.8930127" lon="11.1887426"><ele>340.0</ele><time>2026-04-26T09:19:06.113Z</time></trkpt><trkpt lat="42.8930573" lon="11.1886599"><ele>340.0</ele><time>2026-04-26T09:19:07.11Z</time></trkpt><trkpt lat="42.8930968" lon="11.1885676"><ele>340.0</ele><time>2026-04-26T09:19:08.107Z</time></trkpt><trkpt lat="42.8931276" lon="11.1884823"><ele>340.0</ele><time>2026-04-26T09:19:09.109Z</time></trkpt><trkpt lat="42.893164" lon="11.1883972"><ele>340.0</ele><time>2026-04-26T09:19:10.143Z</time></trkpt><trkpt lat="42.8931967" lon="11.1883144"><ele>340.0</ele><time>2026-04-26T09:19:11.11Z</time></trkpt><trkpt lat="42.8932356" lon="11.1882343"><ele>340.0</ele><time>2026-04-26T09:19:12.111Z</time></trkpt><trkpt lat="42.8932779" lon="11.1881512"><ele>340.0</ele><time>2026-04-26T09:19:13.105Z</time></trkpt><trkpt lat="42.8933215" lon="11.1880616"><ele>341.7142857142857</ele><time>2026-04-26T09:19:14.111Z</time></trkpt><trkpt lat="42.8933641" lon="11.1879918"><ele>343.4285714285714</ele><time>2026-04-26T09:19:15.105Z</time></trkpt><trkpt lat="42.8934134" lon="11.1879255"><ele>345.1428571428571</ele><time>2026-04-26T09:19:16.106Z</time></trkpt><trkpt lat="42.8934693" lon="11.1878659"><ele>346.8571428571429</ele><time>2026-04-26T09:19:17.11Z</time></trkpt><trkpt lat="42.8935234" lon="11.1878087"><ele>348.57142857142856</ele><time>2026-04-26T09:19:18.107Z</time></trkpt><trkpt lat="42.8935916" lon="11.187772"><ele>350.2857142857143</ele><time>2026-04-26T09:19:19.11Z</time></trkpt><trkpt lat="42.8936574" lon="11.1877691"><ele>352.0</ele><time>2026-04-26T09:19:20.104Z</time></trkpt><trkpt lat="42.893725" lon="11.1877839"><ele>352.5</ele><time>2026-04-26T09:19:21.11Z</time></trkpt><trkpt lat="42.8938058" lon="11.1878076"><ele>353.0</ele><time>2026-04-26T09:19:22.137Z</time></trkpt><trkpt lat="42.8938853" lon="11.1878427"><ele>353.5</ele><time>2026-04-26T09:19:23.109Z</time></trkpt><trkpt lat="42.8939704" lon="11.1878903"><ele>354.0</ele><time>2026-04-26T09:19:24.105Z</time></trkpt><trkpt lat="42.894048" lon="11.1879339"><ele>354.5</ele><time>2026-04-26T09:19:25.116Z</time></trkpt><trkpt lat="42.8941209" lon="11.1879679"><ele>355.0</ele><time>2026-04-26T09:19:26.109Z</time></trkpt><trkpt lat="42.8941987" lon="11.1879903"><ele>354.57142857142856</ele><time>2026-04-26T09:19:27.12Z</time></trkpt><trkpt lat="42.8942752" lon="11.1880161"><ele>354.14285714285717</ele><time>2026-04-26T09:19:28.11Z</time></trkpt><trkpt lat="42.8943487" lon="11.1880455"><ele>353.7142857142857</ele><time>2026-04-26T09:19:29.105Z</time></trkpt><trkpt lat="42.8944216" lon="11.1880711"><ele>353.2857142857143</ele><time>2026-04-26T09:19:30.111Z</time></trkpt><trkpt lat="42.8944916" lon="11.1880978"><ele>352.85714285714283</ele><time>2026-04-26T09:19:31.113Z</time></trkpt><trkpt lat="42.8945607" lon="11.1881245"><ele>352.42857142857144</ele><time>2026-04-26T09:19:32.112Z</time></trkpt><trkpt lat="42.8946283" lon="11.1881512"><ele>352.0</ele><time>2026-04-26T09:19:33.112Z</time></trkpt><trkpt lat="42.8946916" lon="11.188187"><ele>352.0</ele><time>2026-04-26T09:19:34.113Z</time></trkpt><trkpt lat="42.8947569" lon="11.1882305"><ele>352.0</ele><time>2026-04-26T09:19:35.111Z</time></trkpt><trkpt lat="42.8948337" lon="11.1882837"><ele>352.0</ele><time>2026-04-26T09:19:36.106Z</time></trkpt><trkpt lat="42.8949254" lon="11.1883314"><ele>352.0</ele><time>2026-04-26T09:19:37.111Z</time></trkpt><trkpt lat="42.8950176" lon="11.1883915"><ele>352.0</ele><time>2026-04-26T09:19:38.113Z</time></trkpt><trkpt lat="42.8951098" lon="11.1884518"><ele>352.8</ele><time>2026-04-26T09:19:39.109Z</time></trkpt><trkpt lat="42.8952004" lon="11.1885195"><ele>353.6</ele><time>2026-04-26T09:19:40.12Z</time></trkpt><trkpt lat="42.8952902" lon="11.1885902"><ele>354.40000000000003</ele><time>2026-04-26T09:19:41.109Z</time></trkpt><trkpt lat="42.8953785" lon="11.1886561"><ele>355.20000000000005</ele><time>2026-04-26T09:19:42.125Z</time></trkpt><trkpt lat="42.8954615" lon="11.1887175"><ele>356.0</ele><time>2026-04-26T09:19:43.111Z</time></trkpt><trkpt lat="42.8955355" lon="11.1887649"><ele>356.0</ele><time>2026-04-26T09:19:44.112Z</time></trkpt><trkpt lat="42.8956169" lon="11.1887941"><ele>356.0</ele><time>2026-04-26T09:19:45.111Z</time></trkpt><trkpt lat="42.8956917" lon="11.1888118"><ele>356.0</ele><time>2026-04-26T09:19:46.112Z</time></trkpt><trkpt lat="42.8957623" lon="11.1888117"><ele>356.0</ele><time>2026-04-26T09:19:47.11Z</time></trkpt><trkpt lat="42.8958368" lon="11.1887945"><ele>356.0</ele><time>2026-04-26T09:19:48.114Z</time></trkpt><trkpt lat="42.8959133" lon="11.1887653"><ele>356.0</ele><time>2026-04-26T09:19:49.112Z</time></trkpt><trkpt lat="42.8960086" lon="11.1887176"><ele>355.33333333333337</ele><time>2026-04-26T09:19:50.107Z</time></trkpt><trkpt lat="42.8960978" lon="11.1886819"><ele>354.6666666666667</ele><time>2026-04-26T09:19:51.115Z</time></trkpt><trkpt lat="42.896187" lon="11.1886518"><ele>354.0</ele><time>2026-04-26T09:19:52.115Z</time></trkpt><trkpt lat="42.8962702" lon="11.1886244"><ele>353.3333333333333</ele><time>2026-04-26T09:19:53.109Z</time></trkpt><trkpt lat="42.8963386" lon="11.188577"><ele>352.66666666666663</ele><time>2026-04-26T09:19:54.116Z</time></trkpt><trkpt lat="42.8963977" lon="11.188521"><ele>352.0</ele><time>2026-04-26T09:19:55.107Z</time></trkpt><trkpt lat="42.8964553" lon="11.1884557"><ele>352.0</ele><time>2026-04-26T09:19:56.121Z</time></trkpt><trkpt lat="42.8965114" lon="11.1883997"><ele>352.0</ele><time>2026-04-26T09:19:57.111Z</time></trkpt><trkpt lat="42.8965654" lon="11.188341"><ele>352.0</ele><time>2026-04-26T09:19:58.11Z</time></trkpt><trkpt lat="42.8966222" lon="11.1882858"><ele>352.0</ele><time>2026-04-26T09:19:59.108Z</time></trkpt><trkpt lat="42.8966828" lon="11.1882359"><ele>352.0</ele><time>2026-04-26T09:20:00.11Z</time></trkpt><trkpt lat="42.8967437" lon="11.1881917"><ele>352.0</ele><time>2026-04-26T09:20:01.106Z</time></trkpt><trkpt lat="42.8968047" lon="11.1881323"><ele>352.0</ele><time>2026-04-26T09:20:02.11Z</time></trkpt><trkpt lat="42.8968465" lon="11.1880605"><ele>352.16666666666663</ele><time>2026-04-26T09:20:03.115Z</time></trkpt><trkpt lat="42.8968849" lon="11.1879862"><ele>352.3333333333333</ele><time>2026-04-26T09:20:04.103Z</time></trkpt><trkpt lat="42.8969736" lon="11.1878483"><ele>352.5</ele><time>2026-04-26T09:20:06.105Z</time></trkpt><trkpt lat="42.897024" lon="11.1877778"><ele>352.6666666666667</ele><time>2026-04-26T09:20:07.15Z</time></trkpt><trkpt lat="42.8970747" lon="11.1877141"><ele>352.83333333333337</ele><time>2026-04-26T09:20:08.111Z</time></trkpt><trkpt lat="42.8971187" lon="11.1876522"><ele>353.0</ele><time>2026-04-26T09:20:09.11Z</time></trkpt><trkpt lat="42.8971769" lon="11.1875428"><ele>353.0</ele><time>2026-04-26T09:20:11.111Z</time></trkpt><trkpt lat="42.8971845" lon="11.1874488"><ele>353.0</ele><time>2026-04-26T09:20:14.107Z</time></trkpt><trkpt lat="42.8972132" lon="11.1873124"><ele>353.0</ele><time>2026-04-26T09:20:16.105Z</time></trkpt><trkpt lat="42.8972404" lon="11.1871725"><ele>353.0</ele><time>2026-04-26T09:20:18.102Z</time></trkpt><trkpt lat="42.8972721" lon="11.1870185"><ele>353.0</ele><time>2026-04-26T09:20:20.107Z</time></trkpt><trkpt lat="42.8972849" lon="11.186852"><ele>354.4285714285714</ele><time>2026-04-26T09:20:22.114Z</time></trkpt><trkpt lat="42.8972724" lon="11.1867664"><ele>355.8571428571429</ele><time>2026-04-26T09:20:23.108Z</time></trkpt><trkpt lat="42.897247" lon="11.186683"><ele>357.2857142857143</ele><time>2026-04-26T09:20:24.119Z</time></trkpt><trkpt lat="42.8972182" lon="11.1865937"><ele>358.71428571428567</ele><time>2026-04-26T09:20:25.102Z</time></trkpt><trkpt lat="42.8971859" lon="11.1865086"><ele>360.1428571428571</ele><time>2026-04-26T09:20:26.113Z</time></trkpt><trkpt lat="42.8971545" lon="11.186419"><ele>361.57142857142856</ele><time>2026-04-26T09:20:27.107Z</time></trkpt><trkpt lat="42.8971236" lon="11.1863394"><ele>363.0</ele><time>2026-04-26T09:20:28.108Z</time></trkpt><trkpt lat="42.8970901" lon="11.1862577"><ele>362.99999999999994</ele><time>2026-04-26T09:20:29.108Z</time></trkpt><trkpt lat="42.8970606" lon="11.1861739"><ele>363.0</ele><time>2026-04-26T09:20:30.104Z</time></trkpt><trkpt lat="42.8970292" lon="11.1860928"><ele>363.0</ele><time>2026-04-26T09:20:31.107Z</time></trkpt><trkpt lat="42.8969989" lon="11.1860116"><ele>363.0</ele><time>2026-04-26T09:20:32.1Z</time></trkpt><trkpt lat="42.8969718" lon="11.1859237"><ele>363.0</ele><time>2026-04-26T09:20:33.139Z</time></trkpt><trkpt lat="42.8969504" lon="11.1858424"><ele>362.99999999999994</ele><time>2026-04-26T09:20:34.11Z</time></trkpt><trkpt lat="42.8969233" lon="11.1857641"><ele>363.0</ele><time>2026-04-26T09:20:35.102Z</time></trkpt><trkpt lat="42.8968938" lon="11.185681"><ele>360.75</ele><time>2026-04-26T09:20:36.107Z</time></trkpt><trkpt lat="42.8968163" lon="11.1855572"><ele>358.5</ele><time>2026-04-26T09:20:38.123Z</time></trkpt><trkpt lat="42.8967146" lon="11.1854743"><ele>356.25</ele><time>2026-04-26T09:20:40.101Z</time></trkpt><trkpt lat="42.8966108" lon="11.1854291"><ele>354.0</ele><time>2026-04-26T09:20:42.109Z</time></trkpt><trkpt lat="42.8965011" lon="11.1854505"><ele>360.0</ele><time>2026-04-26T09:20:44.145Z</time></trkpt><trkpt lat="42.8964451" lon="11.185512"><ele>366.0</ele><time>2026-04-26T09:20:45.108Z</time></trkpt><trkpt lat="42.8963938" lon="11.1855748"><ele>372.0</ele><time>2026-04-26T09:20:46.108Z</time></trkpt><trkpt lat="42.8963112" lon="11.1856495"><ele>378.0</ele><time>2026-04-26T09:20:48.105Z</time></trkpt><trkpt lat="42.8962314" lon="11.1856474"><ele>384.0</ele><time>2026-04-26T09:20:50.13Z</time></trkpt><trkpt lat="42.8961446" lon="11.1855311"><ele>390.0</ele><time>2026-04-26T09:20:52.109Z</time></trkpt><trkpt lat="42.8960754" lon="11.1853947"><ele>390.0</ele><time>2026-04-26T09:20:54.108Z</time></trkpt><trkpt lat="42.8960119" lon="11.1852549"><ele>390.0</ele><time>2026-04-26T09:20:56.107Z</time></trkpt><trkpt lat="42.8959856" lon="11.1851747"><ele>390.0</ele><time>2026-04-26T09:20:57.106Z</time></trkpt><trkpt lat="42.8959258" lon="11.1850175"><ele>390.0</ele><time>2026-04-26T09:20:59.14Z</time></trkpt><trkpt lat="42.8958904" lon="11.1849416"><ele>390.0</ele><time>2026-04-26T09:21:00.104Z</time></trkpt><trkpt lat="42.895853" lon="11.1848655"><ele>390.0</ele><time>2026-04-26T09:21:01.099Z</time></trkpt><trkpt lat="42.895821" lon="11.1847898"><ele>395.4</ele><time>2026-04-26T09:21:02.103Z</time></trkpt><trkpt lat="42.8957859" lon="11.1847165"><ele>400.8</ele><time>2026-04-26T09:21:03.108Z</time></trkpt><trkpt lat="42.8957202" lon="11.1845816"><ele>406.20000000000005</ele><time>2026-04-26T09:21:05.106Z</time></trkpt><trkpt lat="42.8956523" lon="11.1844422"><ele>411.6</ele><time>2026-04-26T09:21:07.103Z</time></trkpt><trkpt lat="42.8955883" lon="11.184299"><ele>417.0</ele><time>2026-04-26T09:21:09.104Z</time></trkpt><trkpt lat="42.8955381" lon="11.1841574"><ele>417.0</ele><time>2026-04-26T09:21:11.108Z</time></trkpt><trkpt lat="42.8954841" lon="11.1840178"><ele>417.0</ele><time>2026-04-26T09:21:13.105Z</time></trkpt><trkpt lat="42.8954484" lon="11.1838747"><ele>417.0</ele><time>2026-04-26T09:21:15.116Z</time></trkpt><trkpt lat="42.8954112" lon="11.1837305"><ele>417.0</ele><time>2026-04-26T09:21:17.111Z</time></trkpt><trkpt lat="42.895354" lon="11.1835667"><ele>417.6</ele><time>2026-04-26T09:21:19.147Z</time></trkpt><trkpt lat="42.895272" lon="11.1834369"><ele>418.20000000000005</ele><time>2026-04-26T09:21:21.115Z</time></trkpt><trkpt lat="42.8951914" lon="11.1833343"><ele>418.8</ele><time>2026-04-26T09:21:23.112Z</time></trkpt><trkpt lat="42.8951033" lon="11.1832426"><ele>419.4</ele><time>2026-04-26T09:21:25.112Z</time></trkpt><trkpt lat="42.895033" lon="11.1831415"><ele>420.0</ele><time>2026-04-26T09:21:27.114Z</time></trkpt><trkpt lat="42.8949714" lon="11.1829932"><ele>423.8</ele><time>2026-04-26T09:21:29.107Z</time></trkpt><trkpt lat="42.8949372" lon="11.182835"><ele>427.6</ele><time>2026-04-26T09:21:31.107Z</time></trkpt><trkpt lat="42.8949294" lon="11.1827466"><ele>431.4</ele><time>2026-04-26T09:21:32.105Z</time></trkpt><trkpt lat="42.8949114" lon="11.1825894"><ele>435.2</ele><time>2026-04-26T09:21:34.114Z</time></trkpt><trkpt lat="42.8948895" lon="11.1824433"><ele>439.0</ele><time>2026-04-26T09:21:36.1Z</time></trkpt><trkpt lat="42.8948609" lon="11.1822885"><ele>440.75</ele><time>2026-04-26T09:21:38.102Z</time></trkpt><trkpt lat="42.894832" lon="11.1821353"><ele>442.5</ele><time>2026-04-26T09:21:40.13Z</time></trkpt><trkpt lat="42.8948181" lon="11.181987"><ele>444.25</ele><time>2026-04-26T09:21:42.112Z</time></trkpt><trkpt lat="42.8948279" lon="11.181843"><ele>446.0</ele><time>2026-04-26T09:21:44.111Z</time></trkpt><trkpt lat="42.8948657" lon="11.1816882"><ele>446.0</ele><time>2026-04-26T09:21:46.13Z</time></trkpt><trkpt lat="42.8948847" lon="11.1816026"><ele>446.0</ele><time>2026-04-26T09:21:47.118Z</time></trkpt><trkpt lat="42.8949041" lon="11.1815185"><ele>446.0</ele><time>2026-04-26T09:21:48.106Z</time></trkpt><trkpt lat="42.8949287" lon="11.18143"><ele>446.0</ele><time>2026-04-26T09:21:49.111Z</time></trkpt><trkpt lat="42.8949543" lon="11.1813498"><ele>446.0</ele><time>2026-04-26T09:21:50.117Z</time></trkpt><trkpt lat="42.894975" lon="11.1812649"><ele>446.0</ele><time>2026-04-26T09:21:51.147Z</time></trkpt><trkpt lat="42.8950177" lon="11.1811157"><ele>446.0</ele><time>2026-04-26T09:21:53.109Z</time></trkpt><trkpt lat="42.8950449" lon="11.1810371"><ele>444.6</ele><time>2026-04-26T09:21:54.112Z</time></trkpt><trkpt lat="42.8950884" lon="11.1808774"><ele>443.20000000000005</ele><time>2026-04-26T09:21:56.112Z</time></trkpt><trkpt lat="42.8951283" lon="11.1807192"><ele>441.79999999999995</ele><time>2026-04-26T09:21:58.108Z</time></trkpt><trkpt lat="42.8951587" lon="11.1805594"><ele>440.4</ele><time>2026-04-26T09:22:00.111Z</time></trkpt><trkpt lat="42.8951786" lon="11.1804536"><ele>439.0</ele><time>2026-04-26T09:22:01.119Z</time></trkpt><trkpt lat="42.8952028" lon="11.1803312"><ele>442.0</ele><time>2026-04-26T09:22:02.109Z</time></trkpt><trkpt lat="42.8952272" lon="11.1802054"><ele>445.0</ele><time>2026-04-26T09:22:03.123Z</time></trkpt><trkpt lat="42.8952547" lon="11.1800735"><ele>448.0</ele><time>2026-04-26T09:22:04.104Z</time></trkpt><trkpt lat="42.8952824" lon="11.1799359"><ele>451.0</ele><time>2026-04-26T09:22:05.111Z</time></trkpt><trkpt lat="42.8953095" lon="11.1797995"><ele>454.0</ele><time>2026-04-26T09:22:06.119Z</time></trkpt><trkpt lat="42.8953386" lon="11.1796642"><ele>456.6</ele><time>2026-04-26T09:22:07.103Z</time></trkpt><trkpt lat="42.8953705" lon="11.1795418"><ele>459.2</ele><time>2026-04-26T09:22:08.108Z</time></trkpt><trkpt lat="42.8954018" lon="11.1794186"><ele>461.80000000000007</ele><time>2026-04-26T09:22:09.122Z</time></trkpt><trkpt lat="42.8954236" lon="11.1792981"><ele>464.40000000000003</ele><time>2026-04-26T09:22:10.109Z</time></trkpt><trkpt lat="42.8954529" lon="11.1791733"><ele>467.0</ele><time>2026-04-26T09:22:11.108Z</time></trkpt><trkpt lat="42.8954783" lon="11.1790592"><ele>468.71428571428567</ele><time>2026-04-26T09:22:12.108Z</time></trkpt><trkpt lat="42.8955048" lon="11.1789549"><ele>470.42857142857144</ele><time>2026-04-26T09:22:13.111Z</time></trkpt><trkpt lat="42.8955279" lon="11.1788522"><ele>472.1428571428571</ele><time>2026-04-26T09:22:14.111Z</time></trkpt><trkpt lat="42.895544" lon="11.1787578"><ele>473.85714285714283</ele><time>2026-04-26T09:22:15.11Z</time></trkpt><trkpt lat="42.8955609" lon="11.1786703"><ele>475.57142857142856</ele><time>2026-04-26T09:22:16.107Z</time></trkpt><trkpt lat="42.895581" lon="11.1785841"><ele>477.2857142857143</ele><time>2026-04-26T09:22:17.12Z</time></trkpt><trkpt lat="42.8956015" lon="11.1784926"><ele>479.0</ele><time>2026-04-26T09:22:18.108Z</time></trkpt><trkpt lat="42.8956263" lon="11.1784093"><ele>478.99999999999994</ele><time>2026-04-26T09:22:19.101Z</time></trkpt><trkpt lat="42.8956561" lon="11.1783249"><ele>479.0</ele><time>2026-04-26T09:22:20.107Z</time></trkpt><trkpt lat="42.8956873" lon="11.1782305"><ele>479.0</ele><time>2026-04-26T09:22:21.104Z</time></trkpt><trkpt lat="42.8957189" lon="11.1781283"><ele>479.0</ele><time>2026-04-26T09:22:22.145Z</time></trkpt><trkpt lat="42.8957436" lon="11.178032"><ele>478.99999999999994</ele><time>2026-04-26T09:22:23.111Z</time></trkpt><trkpt lat="42.895767" lon="11.1779312"><ele>479.0</ele><time>2026-04-26T09:22:24.111Z</time></trkpt><trkpt lat="42.8957837" lon="11.1778306"><ele>479.1428571428571</ele><time>2026-04-26T09:22:25.112Z</time></trkpt><trkpt lat="42.8958077" lon="11.1777251"><ele>479.28571428571433</ele><time>2026-04-26T09:22:26.107Z</time></trkpt><trkpt lat="42.8958288" lon="11.1776264"><ele>479.42857142857144</ele><time>2026-04-26T09:22:27.104Z</time></trkpt><trkpt lat="42.8958579" lon="11.1775369"><ele>479.57142857142856</ele><time>2026-04-26T09:22:28.108Z</time></trkpt><trkpt lat="42.895889" lon="11.1774502"><ele>479.71428571428567</ele><time>2026-04-26T09:22:29.111Z</time></trkpt><trkpt lat="42.8959266" lon="11.1773639"><ele>479.8571428571429</ele><time>2026-04-26T09:22:30.137Z</time></trkpt><trkpt lat="42.8959547" lon="11.1772799"><ele>480.0</ele><time>2026-04-26T09:22:31.112Z</time></trkpt><trkpt lat="42.8959796" lon="11.177117"><ele>482.1666666666667</ele><time>2026-04-26T09:22:33.109Z</time></trkpt><trkpt lat="42.8960069" lon="11.1769474"><ele>484.33333333333337</ele><time>2026-04-26T09:22:35.106Z</time></trkpt><trkpt lat="42.8960279" lon="11.1768649"><ele>486.5</ele><time>2026-04-26T09:22:36.107Z</time></trkpt><trkpt lat="42.8960466" lon="11.1767787"><ele>488.6666666666667</ele><time>2026-04-26T09:22:37.111Z</time></trkpt><trkpt lat="42.8960764" lon="11.176691"><ele>490.83333333333337</ele><time>2026-04-26T09:22:38.11Z</time></trkpt><trkpt lat="42.8961114" lon="11.1765955"><ele>493.0</ele><time>2026-04-26T09:22:39.113Z</time></trkpt><trkpt lat="42.896151" lon="11.1764974"><ele>493.1666666666667</ele><time>2026-04-26T09:22:40.133Z</time></trkpt><trkpt lat="42.8961858" lon="11.1764023"><ele>493.33333333333337</ele><time>2026-04-26T09:22:41.111Z</time></trkpt><trkpt lat="42.8962212" lon="11.1763133"><ele>493.5</ele><time>2026-04-26T09:22:42.107Z</time></trkpt><trkpt lat="42.8962582" lon="11.1762131"><ele>493.66666666666663</ele><time>2026-04-26T09:22:43.115Z</time></trkpt><trkpt lat="42.8962982" lon="11.1761211"><ele>493.8333333333333</ele><time>2026-04-26T09:22:44.098Z</time></trkpt><trkpt lat="42.8963389" lon="11.1760173"><ele>494.0</ele><time>2026-04-26T09:22:45.15Z</time></trkpt><trkpt lat="42.896383" lon="11.1759139"><ele>493.99999999999994</ele><time>2026-04-26T09:22:46.104Z</time></trkpt><trkpt lat="42.896428" lon="11.175812"><ele>494.0</ele><time>2026-04-26T09:22:47.109Z</time></trkpt><trkpt lat="42.8964678" lon="11.1757108"><ele>494.0</ele><time>2026-04-26T09:22:48.114Z</time></trkpt><trkpt lat="42.8965054" lon="11.1756069"><ele>494.0</ele><time>2026-04-26T09:22:49.111Z</time></trkpt><trkpt lat="42.8965419" lon="11.1754941"><ele>493.99999999999994</ele><time>2026-04-26T09:22:50.119Z</time></trkpt><trkpt lat="42.8965832" lon="11.1753763"><ele>494.0</ele><time>2026-04-26T09:22:51.111Z</time></trkpt><trkpt lat="42.8966179" lon="11.1752521"><ele>494.16666666666663</ele><time>2026-04-26T09:22:52.108Z</time></trkpt><trkpt lat="42.8966562" lon="11.1751337"><ele>494.3333333333333</ele><time>2026-04-26T09:22:53.11Z</time></trkpt><trkpt lat="42.8966929" lon="11.1750169"><ele>494.5</ele><time>2026-04-26T09:22:54.109Z</time></trkpt><trkpt lat="42.8967354" lon="11.1749073"><ele>494.66666666666663</ele><time>2026-04-26T09:22:55.116Z</time></trkpt><trkpt lat="42.8967739" lon="11.1748103"><ele>494.8333333333333</ele><time>2026-04-26T09:22:56.108Z</time></trkpt><trkpt lat="42.8968076" lon="11.1747257"><ele>495.0</ele><time>2026-04-26T09:22:57.11Z</time></trkpt><trkpt lat="42.8968462" lon="11.1746135"><ele>497.3333333333333</ele><time>2026-04-26T09:22:59.104Z</time></trkpt><trkpt lat="42.8968888" lon="11.1744849"><ele>499.66666666666663</ele><time>2026-04-26T09:23:01.108Z</time></trkpt><trkpt lat="42.8969121" lon="11.174404"><ele>502.0</ele><time>2026-04-26T09:23:02.112Z</time></trkpt><trkpt lat="42.896922" lon="11.1742733"><ele>504.3333333333333</ele><time>2026-04-26T09:23:04.154Z</time></trkpt><trkpt lat="42.8969164" lon="11.1741741"><ele>506.66666666666663</ele><time>2026-04-26T09:23:06.109Z</time></trkpt><trkpt lat="42.8968913" lon="11.1740917"><ele>509.0</ele><time>2026-04-26T09:23:09.112Z</time></trkpt><trkpt lat="42.8968731" lon="11.1739667"><ele>510.99999999999994</ele><time>2026-04-26T09:23:12.107Z</time></trkpt><trkpt lat="42.8968582" lon="11.1738812"><ele>513.0</ele><time>2026-04-26T09:23:13.109Z</time></trkpt><trkpt lat="42.8968462" lon="11.1737938"><ele>515.0</ele><time>2026-04-26T09:23:14.11Z</time></trkpt><trkpt lat="42.8968287" lon="11.1736856"><ele>517.0</ele><time>2026-04-26T09:23:15.108Z</time></trkpt><trkpt lat="42.8968083" lon="11.173575"><ele>519.0</ele><time>2026-04-26T09:23:16.111Z</time></trkpt><trkpt lat="42.896783" lon="11.1734726"><ele>521.0</ele><time>2026-04-26T09:23:17.105Z</time></trkpt><trkpt lat="42.8967574" lon="11.1733734"><ele>518.8333333333333</ele><time>2026-04-26T09:23:18.108Z</time></trkpt><trkpt lat="42.896731" lon="11.1732595"><ele>516.6666666666666</ele><time>2026-04-26T09:23:19.109Z</time></trkpt><trkpt lat="42.8967121" lon="11.1731519"><ele>514.5</ele><time>2026-04-26T09:23:20.107Z</time></trkpt><trkpt lat="42.8967041" lon="11.1730426"><ele>512.3333333333334</ele><time>2026-04-26T09:23:21.112Z</time></trkpt><trkpt lat="42.8966981" lon="11.1729376"><ele>510.1666666666667</ele><time>2026-04-26T09:23:22.11Z</time></trkpt><trkpt lat="42.8966976" lon="11.1728385"><ele>508.0</ele><time>2026-04-26T09:23:23.114Z</time></trkpt><trkpt lat="42.8967002" lon="11.1727474"><ele>508.00000000000006</ele><time>2026-04-26T09:23:24.109Z</time></trkpt><trkpt lat="42.8967141" lon="11.1725779"><ele>508.0</ele><time>2026-04-26T09:23:26.12Z</time></trkpt><trkpt lat="42.8967371" lon="11.1724966"><ele>508.0</ele><time>2026-04-26T09:23:27.117Z</time></trkpt><trkpt lat="42.896819" lon="11.1723623"><ele>508.0</ele><time>2026-04-26T09:23:29.106Z</time></trkpt><trkpt lat="42.8968779" lon="11.1723199"><ele>508.00000000000006</ele><time>2026-04-26T09:23:30.115Z</time></trkpt><trkpt lat="42.8969376" lon="11.1722904"><ele>508.0</ele><time>2026-04-26T09:23:31.113Z</time></trkpt><trkpt lat="42.8970458" lon="11.1722585"><ele>508.79999999999995</ele><time>2026-04-26T09:23:33.108Z</time></trkpt><trkpt lat="42.8971586" lon="11.1722333"><ele>509.59999999999997</ele><time>2026-04-26T09:23:35.116Z</time></trkpt><trkpt lat="42.8972642" lon="11.1721866"><ele>510.40000000000003</ele><time>2026-04-26T09:23:37.107Z</time></trkpt><trkpt lat="42.8973827" lon="11.1721019"><ele>511.20000000000005</ele><time>2026-04-26T09:23:39.104Z</time></trkpt><trkpt lat="42.8974409" lon="11.17206"><ele>512.0</ele><time>2026-04-26T09:23:40.126Z</time></trkpt><trkpt lat="42.8975045" lon="11.1720199"><ele>512.0</ele><time>2026-04-26T09:23:41.109Z</time></trkpt><trkpt lat="42.897575" lon="11.1719838"><ele>511.99999999999994</ele><time>2026-04-26T09:23:42.105Z</time></trkpt><trkpt lat="42.8976483" lon="11.1719472"><ele>512.0</ele><time>2026-04-26T09:23:43.11Z</time></trkpt><trkpt lat="42.8977187" lon="11.1719143"><ele>512.0</ele><time>2026-04-26T09:23:44.102Z</time></trkpt><trkpt lat="42.8977829" lon="11.1718849"><ele>511.99999999999994</ele><time>2026-04-26T09:23:45.106Z</time></trkpt><trkpt lat="42.8978468" lon="11.1718427"><ele>512.0</ele><time>2026-04-26T09:23:46.111Z</time></trkpt><trkpt lat="42.8979116" lon="11.1717851"><ele>512.0</ele><time>2026-04-26T09:23:47.106Z</time></trkpt><trkpt lat="42.8979745" lon="11.1717153"><ele>512.8333333333333</ele><time>2026-04-26T09:23:48.105Z</time></trkpt><trkpt lat="42.8980403" lon="11.1716329"><ele>513.6666666666666</ele><time>2026-04-26T09:23:49.112Z</time></trkpt><trkpt lat="42.8980963" lon="11.1715547"><ele>514.5</ele><time>2026-04-26T09:23:50.104Z</time></trkpt><trkpt lat="42.8981431" lon="11.1714637"><ele>515.3333333333334</ele><time>2026-04-26T09:23:51.145Z</time></trkpt><trkpt lat="42.8981877" lon="11.1713602"><ele>516.1666666666667</ele><time>2026-04-26T09:23:52.108Z</time></trkpt><trkpt lat="42.8982312" lon="11.1712557"><ele>517.0</ele><time>2026-04-26T09:23:53.107Z</time></trkpt><trkpt lat="42.8982774" lon="11.1711559"><ele>517.0</ele><time>2026-04-26T09:23:54.11Z</time></trkpt><trkpt lat="42.8983323" lon="11.1710594"><ele>517.0</ele><time>2026-04-26T09:23:55.113Z</time></trkpt><trkpt lat="42.8983915" lon="11.1709565"><ele>517.0</ele><time>2026-04-26T09:23:56.114Z</time></trkpt><trkpt lat="42.8984503" lon="11.170853"><ele>517.0</ele><time>2026-04-26T09:23:57.118Z</time></trkpt><trkpt lat="42.8985085" lon="11.1707482"><ele>517.0</ele><time>2026-04-26T09:23:58.108Z</time></trkpt><trkpt lat="42.8985628" lon="11.1706433"><ele>518.4</ele><time>2026-04-26T09:23:59.113Z</time></trkpt><trkpt lat="42.898612" lon="11.1705314"><ele>519.8000000000001</ele><time>2026-04-26T09:24:00.108Z</time></trkpt><trkpt lat="42.8986652" lon="11.1704222"><ele>521.2</ele><time>2026-04-26T09:24:01.117Z</time></trkpt><trkpt lat="42.8987043" lon="11.1703067"><ele>522.6</ele><time>2026-04-26T09:24:02.105Z</time></trkpt><trkpt lat="42.898743" lon="11.1701999"><ele>524.0</ele><time>2026-04-26T09:24:03.102Z</time></trkpt><trkpt lat="42.8987798" lon="11.170089"><ele>524.0</ele><time>2026-04-26T09:24:04.107Z</time></trkpt><trkpt lat="42.8988089" lon="11.169979"><ele>524.0</ele><time>2026-04-26T09:24:05.104Z</time></trkpt><trkpt lat="42.8988394" lon="11.1698703"><ele>524.0</ele><time>2026-04-26T09:24:06.119Z</time></trkpt><trkpt lat="42.8988691" lon="11.1697599"><ele>524.0</ele><time>2026-04-26T09:24:07.112Z</time></trkpt><trkpt lat="42.8988943" lon="11.1696434"><ele>524.0</ele><time>2026-04-26T09:24:08.114Z</time></trkpt><trkpt lat="42.8989254" lon="11.1695264"><ele>524.0</ele><time>2026-04-26T09:24:09.108Z</time></trkpt><trkpt lat="42.8989571" lon="11.1694145"><ele>523.0</ele><time>2026-04-26T09:24:10.103Z</time></trkpt><trkpt lat="42.8989918" lon="11.1693007"><ele>522.0</ele><time>2026-04-26T09:24:11.111Z</time></trkpt><trkpt lat="42.8990199" lon="11.1691886"><ele>521.0</ele><time>2026-04-26T09:24:12.107Z</time></trkpt><trkpt lat="42.8990434" lon="11.1690847"><ele>520.0</ele><time>2026-04-26T09:24:13.105Z</time></trkpt><trkpt lat="42.8991136" lon="11.1689477"><ele>519.0</ele><time>2026-04-26T09:24:15.137Z</time></trkpt><trkpt lat="42.8991666" lon="11.1688999"><ele>518.0</ele><time>2026-04-26T09:24:16.106Z</time></trkpt><trkpt lat="42.899223" lon="11.1688575"><ele>517.0</ele><time>2026-04-26T09:24:17.115Z</time></trkpt><trkpt lat="42.8992859" lon="11.1688216"><ele>516.0</ele><time>2026-04-26T09:24:18.108Z</time></trkpt><trkpt lat="42.8993484" lon="11.1687876"><ele>515.0</ele><time>2026-04-26T09:24:19.111Z</time></trkpt><trkpt lat="42.8994109" lon="11.1687505"><ele>514.0</ele><time>2026-04-26T09:24:20.103Z</time></trkpt><trkpt lat="42.8994682" lon="11.1687137"><ele>513.0</ele><time>2026-04-26T09:24:21.114Z</time></trkpt><trkpt lat="42.8995293" lon="11.168676"><ele>512.0</ele><time>2026-04-26T09:24:22.107Z</time></trkpt><trkpt lat="42.8995914" lon="11.1686408"><ele>511.0</ele><time>2026-04-26T09:24:23.102Z</time></trkpt><trkpt lat="42.8996577" lon="11.1686071"><ele>511.0</ele><time>2026-04-26T09:24:24.103Z</time></trkpt><trkpt lat="42.8997237" lon="11.1685748"><ele>511.0</ele><time>2026-04-26T09:24:25.108Z</time></trkpt><trkpt lat="42.8997903" lon="11.1685494"><ele>511.0</ele><time>2026-04-26T09:24:26.108Z</time></trkpt><trkpt lat="42.899867" lon="11.1685233"><ele>511.0</ele><time>2026-04-26T09:24:27.11Z</time></trkpt><trkpt lat="42.8999398" lon="11.1684955"><ele>511.0</ele><time>2026-04-26T09:24:28.101Z</time></trkpt><trkpt lat="42.9000111" lon="11.1684688"><ele>511.0</ele><time>2026-04-26T09:24:29.117Z</time></trkpt><trkpt lat="42.900082" lon="11.1684418"><ele>511.0</ele><time>2026-04-26T09:24:30.105Z</time></trkpt><trkpt lat="42.9001527" lon="11.1684238"><ele>511.42857142857144</ele><time>2026-04-26T09:24:31.13Z</time></trkpt><trkpt lat="42.900221" lon="11.1684085"><ele>511.8571428571429</ele><time>2026-04-26T09:24:32.11Z</time></trkpt><trkpt lat="42.9002864" lon="11.1683995"><ele>512.2857142857142</ele><time>2026-04-26T09:24:33.104Z</time></trkpt><trkpt lat="42.9003515" lon="11.1683944"><ele>512.7142857142858</ele><time>2026-04-26T09:24:34.104Z</time></trkpt><trkpt lat="42.9004215" lon="11.1683894"><ele>513.1428571428571</ele><time>2026-04-26T09:24:35.111Z</time></trkpt><trkpt lat="42.9004992" lon="11.1683945"><ele>513.5714285714286</ele><time>2026-04-26T09:24:36.107Z</time></trkpt><trkpt lat="42.9005859" lon="11.1684075"><ele>514.0</ele><time>2026-04-26T09:24:37.113Z</time></trkpt><trkpt lat="42.9006736" lon="11.1684079"><ele>514.0</ele><time>2026-04-26T09:24:38.104Z</time></trkpt><trkpt lat="42.9007594" lon="11.1684013"><ele>514.0</ele><time>2026-04-26T09:24:39.111Z</time></trkpt><trkpt lat="42.9008369" lon="11.1683748"><ele>514.0</ele><time>2026-04-26T09:24:40.109Z</time></trkpt><trkpt lat="42.9009176" lon="11.1683274"><ele>514.0</ele><time>2026-04-26T09:24:41.105Z</time></trkpt><trkpt lat="42.9009825" lon="11.1682635"><ele>514.0</ele><time>2026-04-26T09:24:42.111Z</time></trkpt><trkpt lat="42.9010264" lon="11.1681888"><ele>514.0</ele><time>2026-04-26T09:24:43.106Z</time></trkpt><trkpt lat="42.9010821" lon="11.1680416"><ele>514.0</ele><time>2026-04-26T09:24:45.107Z</time></trkpt><trkpt lat="42.9011407" lon="11.1678901"><ele>514.0</ele><time>2026-04-26T09:24:47.105Z</time></trkpt><trkpt lat="42.9011911" lon="11.1677585"><ele>514.0</ele><time>2026-04-26T09:24:49.11Z</time></trkpt><trkpt lat="42.9012168" lon="11.1676678"><ele>514.0</ele><time>2026-04-26T09:24:52.104Z</time></trkpt><trkpt lat="42.9012757" lon="11.1675833"><ele>514.0</ele><time>2026-04-26T09:24:54.114Z</time></trkpt><trkpt lat="42.9013594" lon="11.1674686"><ele>514.0</ele><time>2026-04-26T09:24:56.11Z</time></trkpt><trkpt lat="42.901415" lon="11.1674112"><ele>514.0</ele><time>2026-04-26T09:24:57.109Z</time></trkpt><trkpt lat="42.9014956" lon="11.1673131"><ele>514.0</ele><time>2026-04-26T09:24:59.106Z</time></trkpt><trkpt lat="42.9016048" lon="11.1672052"><ele>514.0</ele><time>2026-04-26T09:25:01.113Z</time></trkpt><trkpt lat="42.9016647" lon="11.1671351"><ele>514.0</ele><time>2026-04-26T09:25:02.109Z</time></trkpt><trkpt lat="42.9017136" lon="11.1670666"><ele>514.1666666666667</ele><time>2026-04-26T09:25:03.103Z</time></trkpt><trkpt lat="42.9017647" lon="11.1669841"><ele>514.3333333333334</ele><time>2026-04-26T09:25:05.099Z</time></trkpt><trkpt lat="42.9018148" lon="11.1668824"><ele>514.5</ele><time>2026-04-26T09:25:09.111Z</time></trkpt><trkpt lat="42.9018571" lon="11.1668104"><ele>514.6666666666666</ele><time>2026-04-26T09:25:11.105Z</time></trkpt><trkpt lat="42.9019194" lon="11.1667356"><ele>514.8333333333333</ele><time>2026-04-26T09:25:13.107Z</time></trkpt><trkpt lat="42.9020073" lon="11.1666084"><ele>515.0</ele><time>2026-04-26T09:25:15.104Z</time></trkpt><trkpt lat="42.902043" lon="11.1665266"><ele>512.6</ele><time>2026-04-26T09:25:16.108Z</time></trkpt><trkpt lat="42.9021124" lon="11.1663854"><ele>510.2</ele><time>2026-04-26T09:25:18.106Z</time></trkpt><trkpt lat="42.9021525" lon="11.1663184"><ele>507.79999999999995</ele><time>2026-04-26T09:25:19.096Z</time></trkpt><trkpt lat="42.9022309" lon="11.166199"><ele>505.4</ele><time>2026-04-26T09:25:21.105Z</time></trkpt><trkpt lat="42.9023135" lon="11.1660645"><ele>503.0</ele><time>2026-04-26T09:25:23.139Z</time></trkpt><trkpt lat="42.9023519" lon="11.1659843"><ele>503.0</ele><time>2026-04-26T09:25:24.105Z</time></trkpt><trkpt lat="42.9023914" lon="11.1658936"><ele>503.00000000000006</ele><time>2026-04-26T09:25:25.108Z</time></trkpt><trkpt lat="42.9024384" lon="11.1658301"><ele>503.0</ele><time>2026-04-26T09:25:26.098Z</time></trkpt><trkpt lat="42.9024848" lon="11.165763"><ele>503.0</ele><time>2026-04-26T09:25:27.106Z</time></trkpt><trkpt lat="42.9025316" lon="11.1656888"><ele>503.00000000000006</ele><time>2026-04-26T09:25:28.106Z</time></trkpt><trkpt lat="42.9025845" lon="11.1656183"><ele>503.0</ele><time>2026-04-26T09:25:29.096Z</time></trkpt><trkpt lat="42.9026414" lon="11.1655517"><ele>503.0</ele><time>2026-04-26T09:25:30.109Z</time></trkpt><trkpt lat="42.9026928" lon="11.1654864"><ele>503.8333333333333</ele><time>2026-04-26T09:25:31.102Z</time></trkpt><trkpt lat="42.9027513" lon="11.1654108"><ele>504.66666666666663</ele><time>2026-04-26T09:25:32.117Z</time></trkpt><trkpt lat="42.9028215" lon="11.1653348"><ele>505.5</ele><time>2026-04-26T09:25:33.108Z</time></trkpt><trkpt lat="42.902898" lon="11.1652524"><ele>506.33333333333337</ele><time>2026-04-26T09:25:34.106Z</time></trkpt><trkpt lat="42.9029736" lon="11.165186"><ele>507.1666666666667</ele><time>2026-04-26T09:25:35.1Z</time></trkpt><trkpt lat="42.9030537" lon="11.1651311"><ele>508.0</ele><time>2026-04-26T09:25:36.101Z</time></trkpt><trkpt lat="42.9031468" lon="11.1650795"><ele>508.0</ele><time>2026-04-26T09:25:37.103Z</time></trkpt><trkpt lat="42.9032431" lon="11.1650285"><ele>507.99999999999994</ele><time>2026-04-26T09:25:38.101Z</time></trkpt><trkpt lat="42.9033391" lon="11.1649773"><ele>507.99999999999994</ele><time>2026-04-26T09:25:39.1Z</time></trkpt><trkpt lat="42.9034163" lon="11.1649107"><ele>508.0</ele><time>2026-04-26T09:25:40.109Z</time></trkpt><trkpt lat="42.9034779" lon="11.1648194"><ele>508.0</ele><time>2026-04-26T09:25:41.105Z</time></trkpt><trkpt lat="42.9035364" lon="11.1646962"><ele>509.1666666666667</ele><time>2026-04-26T09:25:42.102Z</time></trkpt><trkpt lat="42.9035975" lon="11.1645788"><ele>510.33333333333337</ele><time>2026-04-26T09:25:43.137Z</time></trkpt><trkpt lat="42.9036478" lon="11.1644716"><ele>511.5</ele><time>2026-04-26T09:25:44.106Z</time></trkpt><trkpt lat="42.9036908" lon="11.1643811"><ele>512.6666666666666</ele><time>2026-04-26T09:25:45.106Z</time></trkpt><trkpt lat="42.9037147" lon="11.1642855"><ele>513.8333333333333</ele><time>2026-04-26T09:25:47.1Z</time></trkpt><trkpt lat="42.9037537" lon="11.1642158"><ele>515.0</ele><time>2026-04-26T09:25:52.121Z</time></trkpt><trkpt lat="42.9038067" lon="11.1641318"><ele>515.0</ele><time>2026-04-26T09:46:01.128Z</time></trkpt><trkpt lat="42.9038646" lon="11.1640331"><ele>515.0</ele><time>2026-04-26T09:46:04.099Z</time></trkpt><trkpt lat="42.9039062" lon="11.1639519"><ele>515.0</ele><time>2026-04-26T09:46:06.097Z</time></trkpt><trkpt lat="42.9039588" lon="11.1638365"><ele>515.0</ele><time>2026-04-26T09:46:09.104Z</time></trkpt><trkpt lat="42.9040391" lon="11.1637629"><ele>515.0</ele><time>2026-04-26T09:46:12.102Z</time></trkpt><trkpt lat="42.9041233" lon="11.1637347"><ele>515.0</ele><time>2026-04-26T09:46:14.101Z</time></trkpt><trkpt lat="42.9042226" lon="11.1637049"><ele>512.2</ele><time>2026-04-26T09:46:16.1Z</time></trkpt><trkpt lat="42.9043176" lon="11.1636991"><ele>509.4</ele><time>2026-04-26T09:46:18.112Z</time></trkpt><trkpt lat="42.9044105" lon="11.1636967"><ele>506.6</ele><time>2026-04-26T09:46:20.104Z</time></trkpt><trkpt lat="42.9044975" lon="11.163691"><ele>503.8</ele><time>2026-04-26T09:46:22.128Z</time></trkpt><trkpt lat="42.90458" lon="11.1636892"><ele>501.0</ele><time>2026-04-26T09:46:24.105Z</time></trkpt><trkpt lat="42.9046721" lon="11.1636765"><ele>501.0</ele><time>2026-04-26T09:46:26.104Z</time></trkpt><trkpt lat="42.9047574" lon="11.1636565"><ele>501.0</ele><time>2026-04-26T09:46:28.116Z</time></trkpt><trkpt lat="42.9048506" lon="11.1636092"><ele>501.0</ele><time>2026-04-26T09:46:30.109Z</time></trkpt><trkpt lat="42.9049314" lon="11.1635496"><ele>501.0</ele><time>2026-04-26T09:46:32.098Z</time></trkpt><trkpt lat="42.9050047" lon="11.163471"><ele>501.0</ele><time>2026-04-26T09:46:34.102Z</time></trkpt><trkpt lat="42.9050873" lon="11.16338"><ele>502.0</ele><time>2026-04-26T09:46:36.106Z</time></trkpt><trkpt lat="42.9051845" lon="11.1632957"><ele>503.0</ele><time>2026-04-26T09:46:38.11Z</time></trkpt><trkpt lat="42.9052744" lon="11.1632078"><ele>504.0</ele><time>2026-04-26T09:46:40.124Z</time></trkpt><trkpt lat="42.9053645" lon="11.1631239"><ele>505.0</ele><time>2026-04-26T09:46:42.109Z</time></trkpt><trkpt lat="42.9054431" lon="11.163027"><ele>506.0</ele><time>2026-04-26T09:46:44.108Z</time></trkpt><trkpt lat="42.9055188" lon="11.162928"><ele>502.25</ele><time>2026-04-26T09:46:46.107Z</time></trkpt><trkpt lat="42.9056052" lon="11.1628266"><ele>498.5</ele><time>2026-04-26T09:46:48.105Z</time></trkpt><trkpt lat="42.905699" lon="11.1627278"><ele>494.75</ele><time>2026-04-26T09:46:50.112Z</time></trkpt><trkpt lat="42.9057832" lon="11.1626409"><ele>491.0</ele><time>2026-04-26T09:46:52.104Z</time></trkpt><trkpt lat="42.9058791" lon="11.1625556"><ele>491.20000000000005</ele><time>2026-04-26T09:46:54.117Z</time></trkpt><trkpt lat="42.905986" lon="11.1624742"><ele>491.40000000000003</ele><time>2026-04-26T09:46:56.105Z</time></trkpt><trkpt lat="42.9060429" lon="11.1624361"><ele>491.6</ele><time>2026-04-26T09:46:57.107Z</time></trkpt><trkpt lat="42.9061599" lon="11.1623747"><ele>491.8</ele><time>2026-04-26T09:46:59.111Z</time></trkpt><trkpt lat="42.9062245" lon="11.1623493"><ele>492.0</ele><time>2026-04-26T09:47:00.107Z</time></trkpt><trkpt lat="42.9062983" lon="11.1623295"><ele>490.1428571428572</ele><time>2026-04-26T09:47:01.111Z</time></trkpt><trkpt lat="42.9063634" lon="11.1623198"><ele>488.28571428571433</ele><time>2026-04-26T09:47:02.111Z</time></trkpt><trkpt lat="42.9064269" lon="11.162311"><ele>486.42857142857144</ele><time>2026-04-26T09:47:03.103Z</time></trkpt><trkpt lat="42.9064976" lon="11.1623028"><ele>484.5714285714286</ele><time>2026-04-26T09:47:04.124Z</time></trkpt><trkpt lat="42.9065617" lon="11.1622993"><ele>482.7142857142858</ele><time>2026-04-26T09:47:05.109Z</time></trkpt><trkpt lat="42.9066249" lon="11.162286"><ele>480.85714285714283</ele><time>2026-04-26T09:47:06.105Z</time></trkpt><trkpt lat="42.9066856" lon="11.1622627"><ele>479.0</ele><time>2026-04-26T09:47:07.113Z</time></trkpt><trkpt lat="42.9067478" lon="11.162234"><ele>478.71428571428567</ele><time>2026-04-26T09:47:08.11Z</time></trkpt><trkpt lat="42.9068118" lon="11.1622068"><ele>478.42857142857144</ele><time>2026-04-26T09:47:09.107Z</time></trkpt><trkpt lat="42.9068791" lon="11.1621731"><ele>478.1428571428571</ele><time>2026-04-26T09:47:10.108Z</time></trkpt><trkpt lat="42.9069345" lon="11.1621282"><ele>477.85714285714283</ele><time>2026-04-26T09:47:11.111Z</time></trkpt><trkpt lat="42.9069899" lon="11.1620872"><ele>477.57142857142856</ele><time>2026-04-26T09:47:12.11Z</time></trkpt><trkpt lat="42.9070524" lon="11.1620442"><ele>477.2857142857143</ele><time>2026-04-26T09:47:13.105Z</time></trkpt><trkpt lat="42.9071184" lon="11.1620015"><ele>477.0</ele><time>2026-04-26T09:47:14.101Z</time></trkpt><trkpt lat="42.9071897" lon="11.1619533"><ele>477.0</ele><time>2026-04-26T09:47:15.117Z</time></trkpt><trkpt lat="42.9072622" lon="11.1618989"><ele>477.0</ele><time>2026-04-26T09:47:16.103Z</time></trkpt><trkpt lat="42.9073352" lon="11.1618392"><ele>477.0</ele><time>2026-04-26T09:47:17.108Z</time></trkpt><trkpt lat="42.9074048" lon="11.1617841"><ele>477.0</ele><time>2026-04-26T09:47:18.102Z</time></trkpt><trkpt lat="42.9074711" lon="11.1617234"><ele>477.0</ele><time>2026-04-26T09:47:19.112Z</time></trkpt><trkpt lat="42.907538" lon="11.1616621"><ele>477.0</ele><time>2026-04-26T09:47:20.114Z</time></trkpt><trkpt lat="42.9075989" lon="11.1615954"><ele>476.6666666666667</ele><time>2026-04-26T09:47:21.102Z</time></trkpt><trkpt lat="42.9076572" lon="11.16154"><ele>476.33333333333337</ele><time>2026-04-26T09:47:22.118Z</time></trkpt><trkpt lat="42.9077163" lon="11.1614726"><ele>476.0</ele><time>2026-04-26T09:47:23.112Z</time></trkpt><trkpt lat="42.9077684" lon="11.16141"><ele>475.6666666666667</ele><time>2026-04-26T09:47:24.112Z</time></trkpt><trkpt lat="42.9078433" lon="11.1613009"><ele>475.33333333333337</ele><time>2026-04-26T09:47:26.11Z</time></trkpt><trkpt lat="42.9078929" lon="11.1611859"><ele>475.0</ele><time>2026-04-26T09:47:28.102Z</time></trkpt><trkpt lat="42.9079368" lon="11.161061"><ele>476.0</ele><time>2026-04-26T09:47:30.12Z</time></trkpt><trkpt lat="42.9079825" lon="11.1609367"><ele>477.0</ele><time>2026-04-26T09:47:32.11Z</time></trkpt><trkpt lat="42.9080044" lon="11.1608002"><ele>478.0</ele><time>2026-04-26T09:47:34.103Z</time></trkpt><trkpt lat="42.9080147" lon="11.1606611"><ele>479.0</ele><time>2026-04-26T09:47:36.103Z</time></trkpt><trkpt lat="42.9080183" lon="11.1605061"><ele>480.0</ele><time>2026-04-26T09:47:38.106Z</time></trkpt><trkpt lat="42.9080239" lon="11.16035"><ele>480.0</ele><time>2026-04-26T09:47:40.098Z</time></trkpt><trkpt lat="42.9079826" lon="11.1602"><ele>480.0</ele><time>2026-04-26T09:47:42.098Z</time></trkpt><trkpt lat="42.9079254" lon="11.1600596"><ele>480.0</ele><time>2026-04-26T09:47:44.108Z</time></trkpt><trkpt lat="42.9078636" lon="11.1599053"><ele>480.0</ele><time>2026-04-26T09:47:46.112Z</time></trkpt><trkpt lat="42.9078238" lon="11.1597489"><ele>478.75</ele><time>2026-04-26T09:47:48.11Z</time></trkpt><trkpt lat="42.9077868" lon="11.1595868"><ele>477.5</ele><time>2026-04-26T09:47:50.11Z</time></trkpt><trkpt lat="42.9077666" lon="11.1594158"><ele>476.25</ele><time>2026-04-26T09:47:52.103Z</time></trkpt><trkpt lat="42.9077628" lon="11.1592551"><ele>475.0</ele><time>2026-04-26T09:47:54.104Z</time></trkpt><trkpt lat="42.9077644" lon="11.1591154"><ele>473.14285714285717</ele><time>2026-04-26T09:47:56.107Z</time></trkpt><trkpt lat="42.9077487" lon="11.1590211"><ele>471.28571428571433</ele><time>2026-04-26T09:47:58.105Z</time></trkpt><trkpt lat="42.9077517" lon="11.1589174"><ele>469.42857142857144</ele><time>2026-04-26T09:48:01.106Z</time></trkpt><trkpt lat="42.9077763" lon="11.1588341"><ele>467.57142857142856</ele><time>2026-04-26T09:48:03.11Z</time></trkpt><trkpt lat="42.9077835" lon="11.1587278"><ele>465.7142857142857</ele><time>2026-04-26T09:48:06.099Z</time></trkpt><trkpt lat="42.9077372" lon="11.1586674"><ele>463.8571428571429</ele><time>2026-04-26T09:48:23.109Z</time></trkpt><trkpt lat="42.9077113" lon="11.1585778"><ele>462.0</ele><time>2026-04-26T09:48:34.111Z</time></trkpt><trkpt lat="42.9076724" lon="11.158468"><ele>462.0</ele><time>2026-04-26T09:48:38.114Z</time></trkpt><trkpt lat="42.9076282" lon="11.158365"><ele>462.0</ele><time>2026-04-26T09:48:41.113Z</time></trkpt><trkpt lat="42.9075896" lon="11.1582724"><ele>462.0</ele><time>2026-04-26T09:48:43.101Z</time></trkpt><trkpt lat="42.9075454" lon="11.1581928"><ele>462.0</ele><time>2026-04-26T09:48:45.104Z</time></trkpt><trkpt lat="42.9074973" lon="11.158086"><ele>462.0</ele><time>2026-04-26T09:48:48.111Z</time></trkpt><trkpt lat="42.9074646" lon="11.1579987"><ele>462.0</ele><time>2026-04-26T09:48:51.108Z</time></trkpt><trkpt lat="42.9074188" lon="11.1579073"><ele>460.8571428571429</ele><time>2026-04-26T09:49:11.107Z</time></trkpt><trkpt lat="42.9073854" lon="11.1578219"><ele>459.7142857142857</ele><time>2026-04-26T09:49:14.099Z</time></trkpt><trkpt lat="42.9073755" lon="11.1577309"><ele>458.57142857142856</ele><time>2026-04-26T09:49:17.112Z</time></trkpt><trkpt lat="42.9073463" lon="11.1576441"><ele>457.42857142857144</ele><time>2026-04-26T09:49:22.11Z</time></trkpt><trkpt lat="42.9073089" lon="11.1575578"><ele>456.28571428571433</ele><time>2026-04-26T09:49:26.107Z</time></trkpt><trkpt lat="42.9072704" lon="11.1574641"><ele>455.14285714285717</ele><time>2026-04-26T09:49:30.103Z</time></trkpt><trkpt lat="42.9072281" lon="11.1573779"><ele>454.0</ele><time>2026-04-26T09:49:35.131Z</time></trkpt><trkpt lat="42.9071938" lon="11.1572834"><ele>452.7142857142857</ele><time>2026-04-26T09:49:55.109Z</time></trkpt><trkpt lat="42.9071645" lon="11.1571869"><ele>451.42857142857144</ele><time>2026-04-26T09:49:58.1Z</time></trkpt><trkpt lat="42.9071294" lon="11.1571154"><ele>450.14285714285717</ele><time>2026-04-26T09:50:00.11Z</time></trkpt><trkpt lat="42.9070908" lon="11.1570436"><ele>448.8571428571429</ele><time>2026-04-26T09:50:35.108Z</time></trkpt><trkpt lat="42.9070527" lon="11.1569385"><ele>447.57142857142856</ele><time>2026-04-26T09:50:40.111Z</time></trkpt><trkpt lat="42.9070157" lon="11.1568492"><ele>446.28571428571433</ele><time>2026-04-26T09:50:43.11Z</time></trkpt><trkpt lat="42.9069875" lon="11.1567565"><ele>445.0</ele><time>2026-04-26T09:50:46.109Z</time></trkpt><trkpt lat="42.9069484" lon="11.1566523"><ele>445.00000000000006</ele><time>2026-04-26T09:50:49.122Z</time></trkpt><trkpt lat="42.9069305" lon="11.1565669"><ele>445.0</ele><time>2026-04-26T09:50:51.113Z</time></trkpt><trkpt lat="42.9069231" lon="11.1564641"><ele>445.0</ele><time>2026-04-26T09:50:53.105Z</time></trkpt><trkpt lat="42.9069011" lon="11.1563603"><ele>445.0</ele><time>2026-04-26T09:50:55.11Z</time></trkpt><trkpt lat="42.9068744" lon="11.15626"><ele>445.00000000000006</ele><time>2026-04-26T09:50:57.114Z</time></trkpt><trkpt lat="42.9068547" lon="11.1561642"><ele>445.0</ele><time>2026-04-26T09:50:59.107Z</time></trkpt><trkpt lat="42.9068111" lon="11.1560538"><ele>443.1666666666667</ele><time>2026-04-26T09:51:02.129Z</time></trkpt><trkpt lat="42.9067731" lon="11.1559561"><ele>441.33333333333337</ele><time>2026-04-26T09:51:05.107Z</time></trkpt><trkpt lat="42.9067482" lon="11.1558675"><ele>439.5</ele><time>2026-04-26T09:51:08.115Z</time></trkpt><trkpt lat="42.9066859" lon="11.1557772"><ele>437.66666666666663</ele><time>2026-04-26T09:51:11.103Z</time></trkpt><trkpt lat="42.9066338" lon="11.1556997"><ele>435.8333333333333</ele><time>2026-04-26T09:51:14.101Z</time></trkpt><trkpt lat="42.9065938" lon="11.1556222"><ele>434.0</ele><time>2026-04-26T09:51:17.105Z</time></trkpt><trkpt lat="42.9065388" lon="11.155551"><ele>432.3333333333333</ele><time>2026-04-26T09:51:20.109Z</time></trkpt><trkpt lat="42.9064751" lon="11.1554835"><ele>430.66666666666663</ele><time>2026-04-26T09:51:22.11Z</time></trkpt><trkpt lat="42.9064315" lon="11.1554097"><ele>429.0</ele><time>2026-04-26T09:51:24.108Z</time></trkpt><trkpt lat="42.9063987" lon="11.1553103"><ele>427.33333333333337</ele><time>2026-04-26T09:52:51.106Z</time></trkpt><trkpt lat="42.906364" lon="11.1551907"><ele>425.6666666666667</ele><time>2026-04-26T09:52:54.11Z</time></trkpt><trkpt lat="42.9063472" lon="11.1550701"><ele>424.0</ele><time>2026-04-26T09:52:56.106Z</time></trkpt><trkpt lat="42.9063223" lon="11.1549488"><ele>422.1666666666667</ele><time>2026-04-26T09:52:58.108Z</time></trkpt><trkpt lat="42.9062883" lon="11.1548599"><ele>420.33333333333337</ele><time>2026-04-26T09:53:00.104Z</time></trkpt><trkpt lat="42.9063392" lon="11.1547726"><ele>418.5</ele><time>2026-04-26T09:53:08.102Z</time></trkpt><trkpt lat="42.9064108" lon="11.1547213"><ele>416.66666666666663</ele><time>2026-04-26T09:53:11.108Z</time></trkpt><trkpt lat="42.9065087" lon="11.1546855"><ele>414.8333333333333</ele><time>2026-04-26T09:53:14.102Z</time></trkpt><trkpt lat="42.9065845" lon="11.1546577"><ele>413.0</ele><time>2026-04-26T09:53:16.103Z</time></trkpt><trkpt lat="42.9066615" lon="11.1546388"><ele>412.99999999999994</ele><time>2026-04-26T09:53:18.106Z</time></trkpt><trkpt lat="42.906739" lon="11.1546372"><ele>413.0</ele><time>2026-04-26T09:53:20.13Z</time></trkpt><trkpt lat="42.9068152" lon="11.1546236"><ele>413.0</ele><time>2026-04-26T09:53:22.104Z</time></trkpt><trkpt lat="42.9068826" lon="11.1546107"><ele>413.0</ele><time>2026-04-26T09:53:24.106Z</time></trkpt><trkpt lat="42.9069732" lon="11.1545891"><ele>412.99999999999994</ele><time>2026-04-26T09:53:27.102Z</time></trkpt><trkpt lat="42.9070582" lon="11.1545481"><ele>413.0</ele><time>2026-04-26T09:53:29.113Z</time></trkpt><trkpt lat="42.9071436" lon="11.1545173"><ele>410.66666666666663</ele><time>2026-04-26T09:53:31.102Z</time></trkpt><trkpt lat="42.9072217" lon="11.1544825"><ele>408.3333333333333</ele><time>2026-04-26T09:53:33.108Z</time></trkpt><trkpt lat="42.9073003" lon="11.1544558"><ele>406.0</ele><time>2026-04-26T09:53:35.113Z</time></trkpt><trkpt lat="42.9073672" lon="11.1544552"><ele>403.66666666666663</ele><time>2026-04-26T09:53:37.106Z</time></trkpt><trkpt lat="42.9074585" lon="11.1544785"><ele>401.3333333333333</ele><time>2026-04-26T09:53:40.103Z</time></trkpt><trkpt lat="42.9075268" lon="11.1544821"><ele>399.0</ele><time>2026-04-26T09:53:42.099Z</time></trkpt><trkpt lat="42.9076081" lon="11.1544963"><ele>396.8333333333333</ele><time>2026-04-26T09:53:45.106Z</time></trkpt><trkpt lat="42.9076962" lon="11.1544807"><ele>394.66666666666663</ele><time>2026-04-26T09:53:48.104Z</time></trkpt><trkpt lat="42.9077779" lon="11.1544856"><ele>392.5</ele><time>2026-04-26T09:53:50.11Z</time></trkpt><trkpt lat="42.9078428" lon="11.1544983"><ele>390.3333333333333</ele><time>2026-04-26T09:53:52.096Z</time></trkpt><trkpt lat="42.9079251" lon="11.1545008"><ele>388.16666666666663</ele><time>2026-04-26T09:53:55.102Z</time></trkpt><trkpt lat="42.9079955" lon="11.1544994"><ele>386.0</ele><time>2026-04-26T09:53:58.098Z</time></trkpt><trkpt lat="42.9080627" lon="11.1544935"><ele>385.99999999999994</ele><time>2026-04-26T09:54:01.103Z</time></trkpt><trkpt lat="42.9081362" lon="11.1545214"><ele>386.0</ele><time>2026-04-26T09:54:13.096Z</time></trkpt><trkpt lat="42.9082189" lon="11.1545704"><ele>386.0</ele><time>2026-04-26T09:54:16.098Z</time></trkpt><trkpt lat="42.9082863" lon="11.1546312"><ele>386.0</ele><time>2026-04-26T09:54:28.107Z</time></trkpt><trkpt lat="42.9083444" lon="11.1546965"><ele>385.99999999999994</ele><time>2026-04-26T09:54:30.102Z</time></trkpt><trkpt lat="42.9084014" lon="11.1547557"><ele>386.0</ele><time>2026-04-26T09:54:32.103Z</time></trkpt><trkpt lat="42.9084658" lon="11.1548211"><ele>383.14285714285717</ele><time>2026-04-26T09:54:34.107Z</time></trkpt><trkpt lat="42.9085208" lon="11.1548656"><ele>380.2857142857143</ele><time>2026-04-26T09:54:36.116Z</time></trkpt><trkpt lat="42.9085852" lon="11.1548231"><ele>377.42857142857144</ele><time>2026-04-26T09:54:40.097Z</time></trkpt><trkpt lat="42.9085979" lon="11.1547259"><ele>374.57142857142856</ele><time>2026-04-26T09:54:44.102Z</time></trkpt><trkpt lat="42.9085781" lon="11.1546268"><ele>371.7142857142857</ele><time>2026-04-26T09:54:47.098Z</time></trkpt><trkpt lat="42.9085512" lon="11.1545313"><ele>368.8571428571429</ele><time>2026-04-26T09:54:49.106Z</time></trkpt><trkpt lat="42.9085204" lon="11.1544408"><ele>366.0</ele><time>2026-04-26T09:54:51.111Z</time></trkpt><trkpt lat="42.9084719" lon="11.1543265"><ele>366.0</ele><time>2026-04-26T09:54:54.102Z</time></trkpt><trkpt lat="42.9084355" lon="11.1542358"><ele>366.0</ele><time>2026-04-26T09:54:56.108Z</time></trkpt><trkpt lat="42.9083748" lon="11.1541535"><ele>366.0</ele><time>2026-04-26T09:54:58.107Z</time></trkpt><trkpt lat="42.9083353" lon="11.1540708"><ele>366.0</ele><time>2026-04-26T09:55:00.095Z</time></trkpt><trkpt lat="42.9082937" lon="11.1539796"><ele>366.0</ele><time>2026-04-26T09:55:03.103Z</time></trkpt><trkpt lat="42.9082485" lon="11.1538882"><ele>366.0</ele><time>2026-04-26T09:55:06.102Z</time></trkpt><trkpt lat="42.9082111" lon="11.1538147"><ele>366.6666666666667</ele><time>2026-04-26T09:55:08.097Z</time></trkpt><trkpt lat="42.9081734" lon="11.1537218"><ele>367.3333333333333</ele><time>2026-04-26T09:55:10.102Z</time></trkpt><trkpt lat="42.9081264" lon="11.1536177"><ele>368.0</ele><time>2026-04-26T09:55:12.102Z</time></trkpt><trkpt lat="42.9080865" lon="11.1535195"><ele>368.66666666666663</ele><time>2026-04-26T09:55:14.101Z</time></trkpt><trkpt lat="42.9080518" lon="11.153434"><ele>369.3333333333333</ele><time>2026-04-26T09:55:16.111Z</time></trkpt><trkpt lat="42.9080099" lon="11.1533322"><ele>370.0</ele><time>2026-04-26T09:55:18.092Z</time></trkpt><trkpt lat="42.9079548" lon="11.1532165"><ele>367.8</ele><time>2026-04-26T09:55:20.091Z</time></trkpt><trkpt lat="42.9079062" lon="11.1531037"><ele>365.6</ele><time>2026-04-26T09:55:22.104Z</time></trkpt><trkpt lat="42.9078666" lon="11.1529962"><ele>363.4</ele><time>2026-04-26T09:55:24.154Z</time></trkpt><trkpt lat="42.9078158" lon="11.1528869"><ele>361.2</ele><time>2026-04-26T09:55:26.106Z</time></trkpt><trkpt lat="42.9077919" lon="11.1527606"><ele>359.0</ele><time>2026-04-26T09:55:28.105Z</time></trkpt><trkpt lat="42.9078732" lon="11.1527743"><ele>359.0</ele><time>2026-04-26T09:55:47.097Z</time></trkpt><trkpt lat="42.9079446" lon="11.1528182"><ele>359.0</ele><time>2026-04-26T09:55:49.1Z</time></trkpt><trkpt lat="42.9080344" lon="11.1528765"><ele>359.0</ele><time>2026-04-26T09:55:51.104Z</time></trkpt><trkpt lat="42.908143" lon="11.1529505"><ele>359.0</ele><time>2026-04-26T09:55:53.134Z</time></trkpt><trkpt lat="42.9082598" lon="11.1530033"><ele>359.0</ele><time>2026-04-26T09:55:55.099Z</time></trkpt><trkpt lat="42.9083693" lon="11.1530345"><ele>356.6666666666667</ele><time>2026-04-26T09:55:57.1Z</time></trkpt><trkpt lat="42.908463" lon="11.1530546"><ele>354.33333333333337</ele><time>2026-04-26T09:55:59.096Z</time></trkpt><trkpt lat="42.9085482" lon="11.1531065"><ele>352.0</ele><time>2026-04-26T09:56:02.1Z</time></trkpt><trkpt lat="42.9086324" lon="11.1531484"><ele>349.6666666666667</ele><time>2026-04-26T09:56:05.101Z</time></trkpt><trkpt lat="42.9087177" lon="11.1531636"><ele>347.3333333333333</ele><time>2026-04-26T09:56:08.127Z</time></trkpt><trkpt lat="42.9087862" lon="11.1531783"><ele>345.0</ele><time>2026-04-26T09:56:11.098Z</time></trkpt><trkpt lat="42.9088675" lon="11.1532049"><ele>343.8571428571429</ele><time>2026-04-26T09:56:15.094Z</time></trkpt><trkpt lat="42.9089506" lon="11.1532289"><ele>342.7142857142857</ele><time>2026-04-26T09:56:18.094Z</time></trkpt><trkpt lat="42.9090132" lon="11.1532662"><ele>341.57142857142856</ele><time>2026-04-26T09:56:20.094Z</time></trkpt><trkpt lat="42.9090856" lon="11.1533071"><ele>340.42857142857144</ele><time>2026-04-26T09:56:22.099Z</time></trkpt><trkpt lat="42.9091464" lon="11.1533524"><ele>339.2857142857143</ele><time>2026-04-26T09:56:24.142Z</time></trkpt><trkpt lat="42.9092096" lon="11.1534105"><ele>338.14285714285717</ele><time>2026-04-26T09:56:31.094Z</time></trkpt><trkpt lat="42.9092599" lon="11.1534665"><ele>337.0</ele><time>2026-04-26T09:56:33.096Z</time></trkpt><trkpt lat="42.9093274" lon="11.1535469"><ele>337.0</ele><time>2026-04-26T09:56:35.1Z</time></trkpt><trkpt lat="42.9094088" lon="11.1536108"><ele>337.0</ele><time>2026-04-26T09:56:37.095Z</time></trkpt><trkpt lat="42.9094982" lon="11.1536919"><ele>337.0</ele><time>2026-04-26T09:56:39.107Z</time></trkpt><trkpt lat="42.9095532" lon="11.1537998"><ele>337.0</ele><time>2026-04-26T09:56:41.101Z</time></trkpt><trkpt lat="42.909601" lon="11.1539124"><ele>337.0</ele><time>2026-04-26T09:56:43.1Z</time></trkpt><trkpt lat="42.9096509" lon="11.1540183"><ele>339.0</ele><time>2026-04-26T09:56:45.099Z</time></trkpt><trkpt lat="42.9097124" lon="11.1541116"><ele>341.0</ele><time>2026-04-26T09:56:47.111Z</time></trkpt><trkpt lat="42.9097896" lon="11.1541869"><ele>343.0</ele><time>2026-04-26T09:56:49.104Z</time></trkpt><trkpt lat="42.9098727" lon="11.1541851"><ele>345.0</ele><time>2026-04-26T09:56:51.099Z</time></trkpt><trkpt lat="42.9099468" lon="11.1541311"><ele>347.0</ele><time>2026-04-26T09:56:53.096Z</time></trkpt><trkpt lat="42.9100209" lon="11.1540902"><ele>349.0</ele><time>2026-04-26T09:56:55.093Z</time></trkpt><trkpt lat="42.9101084" lon="11.154036"><ele>344.66666666666663</ele><time>2026-04-26T09:56:57.145Z</time></trkpt><trkpt lat="42.9101753" lon="11.1539889"><ele>340.3333333333333</ele><time>2026-04-26T09:56:59.096Z</time></trkpt><trkpt lat="42.9102419" lon="11.1539264"><ele>336.0</ele><time>2026-04-26T09:57:02.103Z</time></trkpt><trkpt lat="42.9103107" lon="11.1539182"><ele>331.6666666666667</ele><time>2026-04-26T09:57:20.105Z</time></trkpt><trkpt lat="42.9103872" lon="11.1539322"><ele>327.33333333333337</ele><time>2026-04-26T09:57:24.101Z</time></trkpt><trkpt lat="42.9104661" lon="11.1539686"><ele>323.0</ele><time>2026-04-26T09:57:26.095Z</time></trkpt><trkpt lat="42.9105538" lon="11.1539989"><ele>324.4</ele><time>2026-04-26T09:57:28.091Z</time></trkpt><trkpt lat="42.9106431" lon="11.1540433"><ele>325.79999999999995</ele><time>2026-04-26T09:57:30.123Z</time></trkpt><trkpt lat="42.910721" lon="11.1541385"><ele>327.2</ele><time>2026-04-26T09:57:32.097Z</time></trkpt><trkpt lat="42.9107966" lon="11.1542189"><ele>328.6</ele><time>2026-04-26T09:57:34.092Z</time></trkpt><trkpt lat="42.9108761" lon="11.1542753"><ele>330.0</ele><time>2026-04-26T09:57:36.099Z</time></trkpt><trkpt lat="42.9109537" lon="11.1542838"><ele>330.0</ele><time>2026-04-26T09:57:38.127Z</time></trkpt><trkpt lat="42.9110332" lon="11.1542509"><ele>330.0</ele><time>2026-04-26T09:57:40.091Z</time></trkpt><trkpt lat="42.9111452" lon="11.1542114"><ele>330.0</ele><time>2026-04-26T09:57:42.105Z</time></trkpt><trkpt lat="42.9112155" lon="11.1541946"><ele>330.0</ele><time>2026-04-26T09:57:43.112Z</time></trkpt><trkpt lat="42.9112952" lon="11.1541935"><ele>330.0</ele><time>2026-04-26T09:57:44.094Z</time></trkpt><trkpt lat="42.9113675" lon="11.1541963"><ele>330.0</ele><time>2026-04-26T09:57:45.097Z</time></trkpt><trkpt lat="42.9114379" lon="11.1541942"><ele>330.0</ele><time>2026-04-26T09:57:46.095Z</time></trkpt><trkpt lat="42.9115012" lon="11.154183"><ele>330.0</ele><time>2026-04-26T09:57:47.1Z</time></trkpt><trkpt lat="42.9115669" lon="11.1541699"><ele>330.0</ele><time>2026-04-26T09:57:48.097Z</time></trkpt><trkpt lat="42.911629" lon="11.1541557"><ele>330.0</ele><time>2026-04-26T09:57:49.087Z</time></trkpt><trkpt lat="42.911742" lon="11.1541321"><ele>330.0</ele><time>2026-04-26T09:57:51.104Z</time></trkpt><trkpt lat="42.9118242" lon="11.1541296"><ele>330.0</ele><time>2026-04-26T09:57:53.104Z</time></trkpt><trkpt lat="42.9118911" lon="11.1541244"><ele>329.8333333333333</ele><time>2026-04-26T09:57:55.105Z</time></trkpt><trkpt lat="42.911981" lon="11.1541198"><ele>329.6666666666667</ele><time>2026-04-26T09:57:58.096Z</time></trkpt><trkpt lat="42.9120441" lon="11.1541171"><ele>329.5</ele><time>2026-04-26T09:58:00.116Z</time></trkpt><trkpt lat="42.9121117" lon="11.1540614"><ele>329.33333333333337</ele><time>2026-04-26T09:58:03.088Z</time></trkpt><trkpt lat="42.9121763" lon="11.1539947"><ele>329.1666666666667</ele><time>2026-04-26T09:58:06.128Z</time></trkpt><trkpt lat="42.9122735" lon="11.1539588"><ele>329.0</ele><time>2026-04-26T09:58:09.112Z</time></trkpt><trkpt lat="42.9123488" lon="11.1539718"><ele>327.83333333333337</ele><time>2026-04-26T09:58:11.094Z</time></trkpt><trkpt lat="42.9123532" lon="11.153884"><ele>326.6666666666667</ele><time>2026-04-26T09:58:29.103Z</time></trkpt><trkpt lat="42.9123705" lon="11.1537696"><ele>325.5</ele><time>2026-04-26T09:58:33.098Z</time></trkpt><trkpt lat="42.9124199" lon="11.1536931"><ele>324.3333333333333</ele><time>2026-04-26T09:58:35.1Z</time></trkpt><trkpt lat="42.9124594" lon="11.1536105"><ele>323.16666666666663</ele><time>2026-04-26T09:58:37.105Z</time></trkpt><trkpt lat="42.9124837" lon="11.1535292"><ele>322.0</ele><time>2026-04-26T09:58:39.097Z</time></trkpt><trkpt lat="42.9125312" lon="11.1534223"><ele>325.0</ele><time>2026-04-26T09:58:41.103Z</time></trkpt><trkpt lat="42.9125768" lon="11.1533014"><ele>328.0</ele><time>2026-04-26T09:58:43.1Z</time></trkpt><trkpt lat="42.9126321" lon="11.1531749"><ele>331.0</ele><time>2026-04-26T09:58:45.099Z</time></trkpt><trkpt lat="42.9126782" lon="11.1530229"><ele>334.0</ele><time>2026-04-26T09:58:47.099Z</time></trkpt><trkpt lat="42.9126969" lon="11.1529377"><ele>337.0</ele><time>2026-04-26T09:58:48.099Z</time></trkpt><trkpt lat="42.9127186" lon="11.1528526"><ele>337.00000000000006</ele><time>2026-04-26T09:58:49.105Z</time></trkpt><trkpt lat="42.912751" lon="11.1527678"><ele>337.0</ele><time>2026-04-26T09:58:50.099Z</time></trkpt><trkpt lat="42.9127865" lon="11.1526865"><ele>337.0</ele><time>2026-04-26T09:58:51.102Z</time></trkpt><trkpt lat="42.9128199" lon="11.1526038"><ele>337.0</ele><time>2026-04-26T09:58:52.106Z</time></trkpt><trkpt lat="42.9128468" lon="11.1525138"><ele>337.0</ele><time>2026-04-26T09:58:53.106Z</time></trkpt><trkpt lat="42.9128697" lon="11.1524102"><ele>337.00000000000006</ele><time>2026-04-26T09:58:54.102Z</time></trkpt><trkpt lat="42.9128792" lon="11.1523016"><ele>337.0</ele><time>2026-04-26T09:58:55.095Z</time></trkpt><trkpt lat="42.912879" lon="11.1522034"><ele>335.3333333333333</ele><time>2026-04-26T09:58:56.106Z</time></trkpt><trkpt lat="42.9128695" lon="11.1521059"><ele>333.66666666666663</ele><time>2026-04-26T09:58:57.096Z</time></trkpt><trkpt lat="42.9128513" lon="11.1519317"><ele>332.0</ele><time>2026-04-26T09:58:59.096Z</time></trkpt><trkpt lat="42.9128388" lon="11.1518408"><ele>330.3333333333333</ele><time>2026-04-26T09:59:00.093Z</time></trkpt><trkpt lat="42.9128361" lon="11.1517529"><ele>328.6666666666667</ele><time>2026-04-26T09:59:01.104Z</time></trkpt><trkpt lat="42.9128334" lon="11.1516641"><ele>327.0</ele><time>2026-04-26T09:59:02.098Z</time></trkpt><trkpt lat="42.9128348" lon="11.1515043"><ele>325.0</ele><time>2026-04-26T09:59:04.105Z</time></trkpt><trkpt lat="42.9128136" lon="11.1513857"><ele>323.0</ele><time>2026-04-26T09:59:06.099Z</time></trkpt><trkpt lat="42.9127907" lon="11.1512531"><ele>321.0</ele><time>2026-04-26T09:59:08.096Z</time></trkpt><trkpt lat="42.9127841" lon="11.151119"><ele>319.0</ele><time>2026-04-26T09:59:10.101Z</time></trkpt><trkpt lat="42.9127822" lon="11.1510091"><ele>317.0</ele><time>2026-04-26T09:59:12.094Z</time></trkpt><trkpt lat="42.9127919" lon="11.1509102"><ele>315.0</ele><time>2026-04-26T09:59:14.096Z</time></trkpt><trkpt lat="42.9127981" lon="11.1507977"><ele>311.6666666666667</ele><time>2026-04-26T09:59:16.104Z</time></trkpt><trkpt lat="42.9128155" lon="11.1506919"><ele>308.3333333333333</ele><time>2026-04-26T09:59:18.101Z</time></trkpt><trkpt lat="42.9128375" lon="11.1505781"><ele>305.0</ele><time>2026-04-26T09:59:20.1Z</time></trkpt><trkpt lat="42.9128537" lon="11.1504518"><ele>301.66666666666663</ele><time>2026-04-26T09:59:22.101Z</time></trkpt><trkpt lat="42.912876" lon="11.1503649"><ele>298.3333333333333</ele><time>2026-04-26T09:59:24.106Z</time></trkpt><trkpt lat="42.9129035" lon="11.1502787"><ele>295.0</ele><time>2026-04-26T09:59:27.099Z</time></trkpt><trkpt lat="42.9129502" lon="11.150205"><ele>295.0</ele><time>2026-04-26T09:59:42.097Z</time></trkpt><trkpt lat="42.9130066" lon="11.1501499"><ele>295.0</ele><time>2026-04-26T09:59:44.102Z</time></trkpt><trkpt lat="42.9130587" lon="11.1500922"><ele>295.0</ele><time>2026-04-26T09:59:45.104Z</time></trkpt><trkpt lat="42.9131201" lon="11.1500321"><ele>295.0</ele><time>2026-04-26T09:59:46.103Z</time></trkpt><trkpt lat="42.9131832" lon="11.1499674"><ele>295.0</ele><time>2026-04-26T09:59:47.097Z</time></trkpt><trkpt lat="42.9132516" lon="11.1499026"><ele>295.0</ele><time>2026-04-26T09:59:48.103Z</time></trkpt><trkpt lat="42.9133158" lon="11.1498389"><ele>296.3333333333333</ele><time>2026-04-26T09:59:49.104Z</time></trkpt><trkpt lat="42.9133745" lon="11.1498038"><ele>297.66666666666663</ele><time>2026-04-26T09:59:50.098Z</time></trkpt><trkpt lat="42.913481" lon="11.1497151"><ele>299.0</ele><time>2026-04-26T09:59:52.104Z</time></trkpt><trkpt lat="42.9135345" lon="11.1496536"><ele>300.3333333333333</ele><time>2026-04-26T09:59:53.101Z</time></trkpt><trkpt lat="42.9135863" lon="11.1495891"><ele>301.6666666666667</ele><time>2026-04-26T09:59:54.125Z</time></trkpt><trkpt lat="42.9136408" lon="11.1495343"><ele>303.0</ele><time>2026-04-26T09:59:55.097Z</time></trkpt><trkpt lat="42.9136982" lon="11.1494866"><ele>303.0</ele><time>2026-04-26T09:59:56.101Z</time></trkpt><trkpt lat="42.9137509" lon="11.1494273"><ele>303.0</ele><time>2026-04-26T09:59:57.095Z</time></trkpt><trkpt lat="42.9137977" lon="11.1493657"><ele>303.0</ele><time>2026-04-26T09:59:58.101Z</time></trkpt><trkpt lat="42.9138496" lon="11.1492174"><ele>303.0</ele><time>2026-04-26T10:00:00.092Z</time></trkpt><trkpt lat="42.9138817" lon="11.149136"><ele>303.0</ele><time>2026-04-26T10:00:01.101Z</time></trkpt><trkpt lat="42.9139196" lon="11.1490559"><ele>303.0</ele><time>2026-04-26T10:00:02.098Z</time></trkpt><trkpt lat="42.9139594" lon="11.1489852"><ele>299.8</ele><time>2026-04-26T10:00:03.136Z</time></trkpt><trkpt lat="42.9140059" lon="11.1489173"><ele>296.6</ele><time>2026-04-26T10:00:04.099Z</time></trkpt><trkpt lat="42.9140562" lon="11.1488524"><ele>293.4</ele><time>2026-04-26T10:00:05.094Z</time></trkpt><trkpt lat="42.9141373" lon="11.1487293"><ele>290.2</ele><time>2026-04-26T10:00:07.101Z</time></trkpt><trkpt lat="42.9142198" lon="11.1486432"><ele>287.0</ele><time>2026-04-26T10:00:09.095Z</time></trkpt><trkpt lat="42.9143286" lon="11.1486044"><ele>287.0</ele><time>2026-04-26T10:00:11.096Z</time></trkpt><trkpt lat="42.9143944" lon="11.1485967"><ele>287.0</ele><time>2026-04-26T10:00:12.097Z</time></trkpt><trkpt lat="42.9144641" lon="11.1485963"><ele>287.0</ele><time>2026-04-26T10:00:13.097Z</time></trkpt><trkpt lat="42.9145291" lon="11.1485857"><ele>287.0</ele><time>2026-04-26T10:00:14.094Z</time></trkpt><trkpt lat="42.9146054" lon="11.1485841"><ele>287.0</ele><time>2026-04-26T10:00:15.098Z</time></trkpt><trkpt lat="42.9146735" lon="11.1485801"><ele>287.0</ele><time>2026-04-26T10:00:16.103Z</time></trkpt><trkpt lat="42.9147421" lon="11.1485946"><ele>287.0</ele><time>2026-04-26T10:00:17.103Z</time></trkpt><trkpt lat="42.9148067" lon="11.1486247"><ele>287.0</ele><time>2026-04-26T10:00:18.096Z</time></trkpt><trkpt lat="42.9149226" lon="11.1486837"><ele>287.0</ele><time>2026-04-26T10:00:20.107Z</time></trkpt><trkpt lat="42.9150408" lon="11.1486772"><ele>287.0</ele><time>2026-04-26T10:00:22.097Z</time></trkpt><trkpt lat="42.9151517" lon="11.1486431"><ele>287.0</ele><time>2026-04-26T10:00:24.101Z</time></trkpt><trkpt lat="42.9152649" lon="11.1485653"><ele>288.0</ele><time>2026-04-26T10:00:26.129Z</time></trkpt><trkpt lat="42.9153765" lon="11.1485229"><ele>289.0</ele><time>2026-04-26T10:00:28.095Z</time></trkpt><trkpt lat="42.9154902" lon="11.1485127"><ele>290.0</ele><time>2026-04-26T10:00:30.092Z</time></trkpt><trkpt lat="42.9156034" lon="11.1485451"><ele>291.0</ele><time>2026-04-26T10:00:32.099Z</time></trkpt><trkpt lat="42.9156918" lon="11.1486201"><ele>292.0</ele><time>2026-04-26T10:00:34.096Z</time></trkpt><trkpt lat="42.9157705" lon="11.1486964"><ele>292.0</ele><time>2026-04-26T10:00:36.104Z</time></trkpt><trkpt lat="42.9158608" lon="11.14875"><ele>292.0</ele><time>2026-04-26T10:00:38.149Z</time></trkpt><trkpt lat="42.9159794" lon="11.1487897"><ele>292.0</ele><time>2026-04-26T10:00:40.099Z</time></trkpt><trkpt lat="42.9160427" lon="11.1487874"><ele>292.0</ele><time>2026-04-26T10:00:41.106Z</time></trkpt><trkpt lat="42.9161093" lon="11.1487833"><ele>292.0</ele><time>2026-04-26T10:00:42.104Z</time></trkpt><trkpt lat="42.9161747" lon="11.1487734"><ele>292.0</ele><time>2026-04-26T10:00:43.104Z</time></trkpt><trkpt lat="42.916296" lon="11.1487614"><ele>291.0</ele><time>2026-04-26T10:00:45.098Z</time></trkpt><trkpt lat="42.9164047" lon="11.1487418"><ele>290.0</ele><time>2026-04-26T10:00:47.102Z</time></trkpt><trkpt lat="42.9165042" lon="11.1487405"><ele>289.0</ele><time>2026-04-26T10:00:49.098Z</time></trkpt><trkpt lat="42.916604" lon="11.1487758"><ele>288.0</ele><time>2026-04-26T10:00:51.101Z</time></trkpt><trkpt lat="42.9167111" lon="11.1488499"><ele>287.0</ele><time>2026-04-26T10:00:53.095Z</time></trkpt><trkpt lat="42.9167721" lon="11.1488763"><ele>287.0</ele><time>2026-04-26T10:00:54.098Z</time></trkpt><trkpt lat="42.9168361" lon="11.1488827"><ele>287.0</ele><time>2026-04-26T10:00:55.1Z</time></trkpt><trkpt lat="42.9169042" lon="11.1488879"><ele>287.0</ele><time>2026-04-26T10:00:56.145Z</time></trkpt><trkpt lat="42.9169733" lon="11.1488878"><ele>287.0</ele><time>2026-04-26T10:00:57.104Z</time></trkpt><trkpt lat="42.9170391" lon="11.1488821"><ele>287.0</ele><time>2026-04-26T10:00:58.102Z</time></trkpt><trkpt lat="42.9171645" lon="11.1488804"><ele>287.0</ele><time>2026-04-26T10:01:00.101Z</time></trkpt><trkpt lat="42.9172316" lon="11.1488777"><ele>287.0</ele><time>2026-04-26T10:01:01.101Z</time></trkpt><trkpt lat="42.9173012" lon="11.1488715"><ele>287.0</ele><time>2026-04-26T10:01:02.102Z</time></trkpt><trkpt lat="42.9173728" lon="11.1488573"><ele>287.0</ele><time>2026-04-26T10:01:03.113Z</time></trkpt><trkpt lat="42.9174413" lon="11.1488408"><ele>287.0</ele><time>2026-04-26T10:01:04.107Z</time></trkpt><trkpt lat="42.917509" lon="11.1488257"><ele>287.0</ele><time>2026-04-26T10:01:05.101Z</time></trkpt><trkpt lat="42.917574" lon="11.148814"><ele>287.0</ele><time>2026-04-26T10:01:06.1Z</time></trkpt><trkpt lat="42.9176426" lon="11.1487949"><ele>287.0</ele><time>2026-04-26T10:01:07.122Z</time></trkpt><trkpt lat="42.9177145" lon="11.1487904"><ele>286.83333333333337</ele><time>2026-04-26T10:01:08.101Z</time></trkpt><trkpt lat="42.9177873" lon="11.1487995"><ele>286.6666666666667</ele><time>2026-04-26T10:01:09.105Z</time></trkpt><trkpt lat="42.9178523" lon="11.1488095"><ele>286.5</ele><time>2026-04-26T10:01:10.093Z</time></trkpt><trkpt lat="42.9179182" lon="11.1488388"><ele>286.3333333333333</ele><time>2026-04-26T10:01:11.098Z</time></trkpt><trkpt lat="42.9180314" lon="11.148897"><ele>286.16666666666663</ele><time>2026-04-26T10:01:13.099Z</time></trkpt><trkpt lat="42.9181303" lon="11.1489428"><ele>286.0</ele><time>2026-04-26T10:01:15.104Z</time></trkpt><trkpt lat="42.9182434" lon="11.1489484"><ele>286.0</ele><time>2026-04-26T10:01:17.134Z</time></trkpt><trkpt lat="42.9183352" lon="11.1489328"><ele>286.0</ele><time>2026-04-26T10:01:19.099Z</time></trkpt><trkpt lat="42.9184214" lon="11.148888"><ele>286.0</ele><time>2026-04-26T10:01:21.102Z</time></trkpt><trkpt lat="42.9185066" lon="11.1488359"><ele>286.0</ele><time>2026-04-26T10:01:23.106Z</time></trkpt><trkpt lat="42.9185798" lon="11.1488133"><ele>286.0</ele><time>2026-04-26T10:01:25.097Z</time></trkpt><trkpt lat="42.9186467" lon="11.148817"><ele>286.0</ele><time>2026-04-26T10:01:27.102Z</time></trkpt><trkpt lat="42.9187016" lon="11.1488828"><ele>287.8</ele><time>2026-04-26T10:01:37.097Z</time></trkpt><trkpt lat="42.9187905" lon="11.1489017"><ele>289.6</ele><time>2026-04-26T10:01:39.1Z</time></trkpt><trkpt lat="42.9188975" lon="11.148959"><ele>291.4</ele><time>2026-04-26T10:01:41.108Z</time></trkpt><trkpt lat="42.9189881" lon="11.1490712"><ele>293.2</ele><time>2026-04-26T10:01:43.096Z</time></trkpt><trkpt lat="42.9190358" lon="11.1491469"><ele>295.0</ele><time>2026-04-26T10:01:44.105Z</time></trkpt><trkpt lat="42.9190844" lon="11.1492254"><ele>295.0</ele><time>2026-04-26T10:01:45.097Z</time></trkpt><trkpt lat="42.9191423" lon="11.1493013"><ele>295.0</ele><time>2026-04-26T10:01:46.111Z</time></trkpt><trkpt lat="42.9192115" lon="11.1493696"><ele>295.0</ele><time>2026-04-26T10:01:47.091Z</time></trkpt><trkpt lat="42.9192842" lon="11.1494444"><ele>295.0</ele><time>2026-04-26T10:01:48.095Z</time></trkpt><trkpt lat="42.9193506" lon="11.1495207"><ele>295.0</ele><time>2026-04-26T10:01:49.097Z</time></trkpt><trkpt lat="42.9193991" lon="11.1495786"><ele>295.0</ele><time>2026-04-26T10:01:50.099Z</time></trkpt><trkpt lat="42.9195171" lon="11.1496068"><ele>293.8333333333333</ele><time>2026-04-26T10:01:52.092Z</time></trkpt><trkpt lat="42.9196372" lon="11.1496174"><ele>292.66666666666663</ele><time>2026-04-26T10:01:54.101Z</time></trkpt><trkpt lat="42.9197087" lon="11.1496174"><ele>291.5</ele><time>2026-04-26T10:01:55.1Z</time></trkpt><trkpt lat="42.9197846" lon="11.1496245"><ele>290.3333333333333</ele><time>2026-04-26T10:01:56.103Z</time></trkpt><trkpt lat="42.9198607" lon="11.1496331"><ele>289.1666666666667</ele><time>2026-04-26T10:01:57.095Z</time></trkpt><trkpt lat="42.919939" lon="11.1496369"><ele>288.0</ele><time>2026-04-26T10:01:58.11Z</time></trkpt><trkpt lat="42.9200192" lon="11.1496493"><ele>288.3333333333333</ele><time>2026-04-26T10:01:59.099Z</time></trkpt><trkpt lat="42.9200906" lon="11.1496561"><ele>288.6666666666667</ele><time>2026-04-26T10:02:00.1Z</time></trkpt><trkpt lat="42.9201675" lon="11.1496556"><ele>289.0</ele><time>2026-04-26T10:02:01.099Z</time></trkpt><trkpt lat="42.9202329" lon="11.1496604"><ele>289.33333333333337</ele><time>2026-04-26T10:02:02.092Z</time></trkpt><trkpt lat="42.9203454" lon="11.1496332"><ele>289.6666666666667</ele><time>2026-04-26T10:02:04.095Z</time></trkpt><trkpt lat="42.9204013" lon="11.1495876"><ele>290.0</ele><time>2026-04-26T10:02:05.109Z</time></trkpt><trkpt lat="42.9204548" lon="11.1495332"><ele>290.0</ele><time>2026-04-26T10:02:06.099Z</time></trkpt><trkpt lat="42.9205597" lon="11.1494196"><ele>290.0</ele><time>2026-04-26T10:02:08.099Z</time></trkpt><trkpt lat="42.9206111" lon="11.1493665"><ele>290.0</ele><time>2026-04-26T10:02:09.1Z</time></trkpt><trkpt lat="42.920675" lon="11.1493268"><ele>290.0</ele><time>2026-04-26T10:02:10.139Z</time></trkpt><trkpt lat="42.9207355" lon="11.1492928"><ele>290.0</ele><time>2026-04-26T10:02:11.099Z</time></trkpt><trkpt lat="42.9208002" lon="11.1492634"><ele>290.0</ele><time>2026-04-26T10:02:12.099Z</time></trkpt><trkpt lat="42.9208594" lon="11.1492289"><ele>289.8571428571429</ele><time>2026-04-26T10:02:13.11Z</time></trkpt><trkpt lat="42.9209219" lon="11.1492109"><ele>289.7142857142857</ele><time>2026-04-26T10:02:14.092Z</time></trkpt><trkpt lat="42.9209886" lon="11.149191"><ele>289.57142857142856</ele><time>2026-04-26T10:02:15.104Z</time></trkpt><trkpt lat="42.9210656" lon="11.1491719"><ele>289.42857142857144</ele><time>2026-04-26T10:02:16.099Z</time></trkpt><trkpt lat="42.9211449" lon="11.1491569"><ele>289.2857142857143</ele><time>2026-04-26T10:02:17.128Z</time></trkpt><trkpt lat="42.921221" lon="11.1491494"><ele>289.14285714285717</ele><time>2026-04-26T10:02:18.097Z</time></trkpt><trkpt lat="42.9212998" lon="11.1491424"><ele>289.0</ele><time>2026-04-26T10:02:19.103Z</time></trkpt><trkpt lat="42.9213642" lon="11.1491485"><ele>289.0</ele><time>2026-04-26T10:02:20.098Z</time></trkpt><trkpt lat="42.9214458" lon="11.1491473"><ele>289.0</ele><time>2026-04-26T10:02:22.102Z</time></trkpt><trkpt lat="42.9215163" lon="11.1491569"><ele>289.0</ele><time>2026-04-26T10:02:27.099Z</time></trkpt><trkpt lat="42.9215938" lon="11.1491699"><ele>289.0</ele><time>2026-04-26T10:02:35.098Z</time></trkpt><trkpt lat="42.9216714" lon="11.149175"><ele>289.0</ele><time>2026-04-26T10:02:37.094Z</time></trkpt><trkpt lat="42.9217566" lon="11.1491819"><ele>289.0</ele><time>2026-04-26T10:02:39.104Z</time></trkpt><trkpt lat="42.9218251" lon="11.1491831"><ele>288.5</ele><time>2026-04-26T10:02:41.114Z</time></trkpt><trkpt lat="42.9219053" lon="11.149191"><ele>288.0</ele><time>2026-04-26T10:02:44.09Z</time></trkpt><trkpt lat="42.9220105" lon="11.1491988"><ele>287.5</ele><time>2026-04-26T10:02:46.102Z</time></trkpt><trkpt lat="42.9220772" lon="11.1491965"><ele>287.0</ele><time>2026-04-26T10:02:47.095Z</time></trkpt><trkpt lat="42.9221577" lon="11.1491903"><ele>286.5</ele><time>2026-04-26T10:02:48.148Z</time></trkpt><trkpt lat="42.9222368" lon="11.1491856"><ele>286.0</ele><time>2026-04-26T10:02:49.099Z</time></trkpt><trkpt lat="42.922318" lon="11.1491769"><ele>286.0</ele><time>2026-04-26T10:02:50.096Z</time></trkpt><trkpt lat="42.9224027" lon="11.1491664"><ele>286.0</ele><time>2026-04-26T10:02:51.099Z</time></trkpt><trkpt lat="42.922496" lon="11.1491499"><ele>286.0</ele><time>2026-04-26T10:02:52.098Z</time></trkpt><trkpt lat="42.9225886" lon="11.1491432"><ele>286.0</ele><time>2026-04-26T10:02:53.138Z</time></trkpt><trkpt lat="42.9226766" lon="11.1491387"><ele>286.0</ele><time>2026-04-26T10:02:54.101Z</time></trkpt><trkpt lat="42.9227719" lon="11.149135"><ele>285.40000000000003</ele><time>2026-04-26T10:02:55.103Z</time></trkpt><trkpt lat="42.9228686" lon="11.1491184"><ele>284.8</ele><time>2026-04-26T10:02:56.099Z</time></trkpt><trkpt lat="42.9229668" lon="11.149084"><ele>284.20000000000005</ele><time>2026-04-26T10:02:57.097Z</time></trkpt><trkpt lat="42.9230733" lon="11.1490361"><ele>283.6</ele><time>2026-04-26T10:02:58.104Z</time></trkpt><trkpt lat="42.9231737" lon="11.148974"><ele>283.0</ele><time>2026-04-26T10:02:59.102Z</time></trkpt><trkpt lat="42.9232691" lon="11.1489034"><ele>282.6</ele><time>2026-04-26T10:03:00.11Z</time></trkpt><trkpt lat="42.9233471" lon="11.1488244"><ele>282.20000000000005</ele><time>2026-04-26T10:03:01.104Z</time></trkpt><trkpt lat="42.9234159" lon="11.1487237"><ele>281.8</ele><time>2026-04-26T10:03:02.102Z</time></trkpt><trkpt lat="42.923486" lon="11.1486107"><ele>281.40000000000003</ele><time>2026-04-26T10:03:03.106Z</time></trkpt><trkpt lat="42.9235528" lon="11.1484871"><ele>281.0</ele><time>2026-04-26T10:03:04.103Z</time></trkpt><trkpt lat="42.9236127" lon="11.1483942"><ele>281.0</ele><time>2026-04-26T10:03:05.103Z</time></trkpt><trkpt lat="42.9236665" lon="11.1482953"><ele>281.0</ele><time>2026-04-26T10:03:06.101Z</time></trkpt><trkpt lat="42.9237109" lon="11.1482075"><ele>281.0</ele><time>2026-04-26T10:03:07.099Z</time></trkpt><trkpt lat="42.923727" lon="11.1481051"><ele>281.0</ele><time>2026-04-26T10:03:08.093Z</time></trkpt><trkpt lat="42.9237486" lon="11.1479946"><ele>281.0</ele><time>2026-04-26T10:03:09.103Z</time></trkpt><trkpt lat="42.923774" lon="11.1478888"><ele>281.0</ele><time>2026-04-26T10:03:10.102Z</time></trkpt><trkpt lat="42.9237927" lon="11.1477781"><ele>279.0</ele><time>2026-04-26T10:03:11.09Z</time></trkpt><trkpt lat="42.9238096" lon="11.1476617"><ele>277.0</ele><time>2026-04-26T10:03:12.096Z</time></trkpt><trkpt lat="42.9238126" lon="11.1475394"><ele>275.0</ele><time>2026-04-26T10:03:13.1Z</time></trkpt><trkpt lat="42.9237997" lon="11.1474132"><ele>273.0</ele><time>2026-04-26T10:03:14.102Z</time></trkpt><trkpt lat="42.923767" lon="11.1472963"><ele>271.0</ele><time>2026-04-26T10:03:15.111Z</time></trkpt><trkpt lat="42.9237305" lon="11.1471859"><ele>267.5</ele><time>2026-04-26T10:03:16.098Z</time></trkpt><trkpt lat="42.9236837" lon="11.1470603"><ele>264.0</ele><time>2026-04-26T10:03:17.099Z</time></trkpt><trkpt lat="42.9236167" lon="11.1469239"><ele>260.5</ele><time>2026-04-26T10:03:18.096Z</time></trkpt><trkpt lat="42.9235458" lon="11.1467821"><ele>257.0</ele><time>2026-04-26T10:03:19.103Z</time></trkpt><trkpt lat="42.9234956" lon="11.1466543"><ele>255.0</ele><time>2026-04-26T10:03:20.096Z</time></trkpt><trkpt lat="42.92346" lon="11.1465386"><ele>253.0</ele><time>2026-04-26T10:03:21.1Z</time></trkpt><trkpt lat="42.9234284" lon="11.1464154"><ele>251.0</ele><time>2026-04-26T10:03:22.098Z</time></trkpt><trkpt lat="42.9233994" lon="11.1462821"><ele>249.0</ele><time>2026-04-26T10:03:23.098Z</time></trkpt><trkpt lat="42.9233728" lon="11.1461325"><ele>247.0</ele><time>2026-04-26T10:03:24.096Z</time></trkpt><trkpt lat="42.9233444" lon="11.1459876"><ele>251.0</ele><time>2026-04-26T10:03:25.102Z</time></trkpt><trkpt lat="42.9233159" lon="11.1458477"><ele>255.0</ele><time>2026-04-26T10:03:26.099Z</time></trkpt><trkpt lat="42.9232959" lon="11.1457187"><ele>259.0</ele><time>2026-04-26T10:03:27.104Z</time></trkpt><trkpt lat="42.92327" lon="11.1455994"><ele>263.0</ele><time>2026-04-26T10:03:28.12Z</time></trkpt><trkpt lat="42.9232446" lon="11.1454848"><ele>267.0</ele><time>2026-04-26T10:03:29.089Z</time></trkpt><trkpt lat="42.9232306" lon="11.1453812"><ele>267.0</ele><time>2026-04-26T10:03:30.093Z</time></trkpt><trkpt lat="42.9232037" lon="11.1452429"><ele>267.0</ele><time>2026-04-26T10:03:32.096Z</time></trkpt><trkpt lat="42.9231835" lon="11.1451485"><ele>267.0</ele><time>2026-04-26T10:04:26.092Z</time></trkpt><trkpt lat="42.9232722" lon="11.1452105"><ele>267.0</ele><time>2026-04-26T10:04:29.09Z</time></trkpt><trkpt lat="42.9233554" lon="11.1453197"><ele>267.0</ele><time>2026-04-26T10:04:31.092Z</time></trkpt><trkpt lat="42.9233941" lon="11.1453912"><ele>263.6666666666667</ele><time>2026-04-26T10:04:32.097Z</time></trkpt><trkpt lat="42.9234456" lon="11.1454619"><ele>260.3333333333333</ele><time>2026-04-26T10:04:33.089Z</time></trkpt><trkpt lat="42.9235049" lon="11.1455449"><ele>257.0</ele><time>2026-04-26T10:04:34.094Z</time></trkpt><trkpt lat="42.923565" lon="11.1456309"><ele>253.66666666666666</ele><time>2026-04-26T10:04:35.092Z</time></trkpt><trkpt lat="42.9236249" lon="11.1457192"><ele>250.33333333333331</ele><time>2026-04-26T10:04:36.092Z</time></trkpt><trkpt lat="42.9236878" lon="11.1458188"><ele>247.0</ele><time>2026-04-26T10:04:37.14Z</time></trkpt><trkpt lat="42.9237592" lon="11.1459241"><ele>247.0</ele><time>2026-04-26T10:04:38.091Z</time></trkpt><trkpt lat="42.9238256" lon="11.1460354"><ele>247.0</ele><time>2026-04-26T10:04:39.098Z</time></trkpt><trkpt lat="42.9238996" lon="11.146153"><ele>247.0</ele><time>2026-04-26T10:04:40.096Z</time></trkpt><trkpt lat="42.9239724" lon="11.1462739"><ele>247.0</ele><time>2026-04-26T10:04:41.099Z</time></trkpt><trkpt lat="42.9240416" lon="11.1463948"><ele>247.0</ele><time>2026-04-26T10:04:42.092Z</time></trkpt><trkpt lat="42.9241154" lon="11.1464963"><ele>248.66666666666666</ele><time>2026-04-26T10:04:43.121Z</time></trkpt><trkpt lat="42.9241851" lon="11.1465697"><ele>250.33333333333331</ele><time>2026-04-26T10:04:44.096Z</time></trkpt><trkpt lat="42.9242483" lon="11.1466231"><ele>252.0</ele><time>2026-04-26T10:04:45.11Z</time></trkpt><trkpt lat="42.9243226" lon="11.1466749"><ele>253.66666666666669</ele><time>2026-04-26T10:04:46.099Z</time></trkpt><trkpt lat="42.9244118" lon="11.1467205"><ele>255.33333333333334</ele><time>2026-04-26T10:04:47.098Z</time></trkpt><trkpt lat="42.9245003" lon="11.1467731"><ele>257.0</ele><time>2026-04-26T10:04:48.098Z</time></trkpt><trkpt lat="42.9245861" lon="11.1468197"><ele>252.16666666666669</ele><time>2026-04-26T10:04:49.091Z</time></trkpt><trkpt lat="42.9246475" lon="11.1468712"><ele>247.33333333333334</ele><time>2026-04-26T10:04:50.092Z</time></trkpt><trkpt lat="42.9247132" lon="11.1469476"><ele>242.5</ele><time>2026-04-26T10:04:51.094Z</time></trkpt><trkpt lat="42.9247738" lon="11.1470454"><ele>237.66666666666669</ele><time>2026-04-26T10:04:52.094Z</time></trkpt><trkpt lat="42.9248393" lon="11.147135"><ele>232.83333333333334</ele><time>2026-04-26T10:04:53.096Z</time></trkpt><trkpt lat="42.9248929" lon="11.1471809"><ele>228.0</ele><time>2026-04-26T10:04:54.093Z</time></trkpt><trkpt lat="42.9250178" lon="11.147182"><ele>224.33333333333334</ele><time>2026-04-26T10:04:56.095Z</time></trkpt><trkpt lat="42.9250903" lon="11.1471733"><ele>220.66666666666669</ele><time>2026-04-26T10:04:57.089Z</time></trkpt><trkpt lat="42.9251704" lon="11.1471635"><ele>217.0</ele><time>2026-04-26T10:04:58.132Z</time></trkpt><trkpt lat="42.9252488" lon="11.1471561"><ele>213.33333333333334</ele><time>2026-04-26T10:04:59.09Z</time></trkpt><trkpt lat="42.9253338" lon="11.1471425"><ele>209.66666666666669</ele><time>2026-04-26T10:05:00.085Z</time></trkpt><trkpt lat="42.9254089" lon="11.1471613"><ele>206.0</ele><time>2026-04-26T10:05:01.095Z</time></trkpt><trkpt lat="42.9254897" lon="11.1471986"><ele>206.00000000000003</ele><time>2026-04-26T10:05:02.096Z</time></trkpt><trkpt lat="42.9255608" lon="11.1472468"><ele>206.0</ele><time>2026-04-26T10:05:03.091Z</time></trkpt><trkpt lat="42.9256306" lon="11.147272"><ele>206.0</ele><time>2026-04-26T10:05:04.103Z</time></trkpt><trkpt lat="42.9257063" lon="11.1472657"><ele>206.0</ele><time>2026-04-26T10:05:05.097Z</time></trkpt><trkpt lat="42.9257796" lon="11.147272"><ele>206.00000000000003</ele><time>2026-04-26T10:05:06.094Z</time></trkpt><trkpt lat="42.9258568" lon="11.1472836"><ele>206.0</ele><time>2026-04-26T10:05:07.101Z</time></trkpt><trkpt lat="42.925927" lon="11.1472989"><ele>206.57142857142856</ele><time>2026-04-26T10:05:08.097Z</time></trkpt><trkpt lat="42.9259922" lon="11.1473133"><ele>207.14285714285714</ele><time>2026-04-26T10:05:09.093Z</time></trkpt><trkpt lat="42.9260567" lon="11.14734"><ele>207.71428571428572</ele><time>2026-04-26T10:05:10.088Z</time></trkpt><trkpt lat="42.9261204" lon="11.147381"><ele>208.28571428571428</ele><time>2026-04-26T10:05:11.096Z</time></trkpt><trkpt lat="42.9261893" lon="11.1474112"><ele>208.85714285714286</ele><time>2026-04-26T10:05:12.093Z</time></trkpt><trkpt lat="42.9262617" lon="11.1474436"><ele>209.42857142857142</ele><time>2026-04-26T10:05:13.088Z</time></trkpt><trkpt lat="42.9263319" lon="11.1474865"><ele>210.0</ele><time>2026-04-26T10:05:14.094Z</time></trkpt><trkpt lat="42.9264014" lon="11.1475363"><ele>210.0</ele><time>2026-04-26T10:05:15.095Z</time></trkpt><trkpt lat="42.926478" lon="11.147589"><ele>210.0</ele><time>2026-04-26T10:05:16.13Z</time></trkpt><trkpt lat="42.9265572" lon="11.147635"><ele>210.0</ele><time>2026-04-26T10:05:17.096Z</time></trkpt><trkpt lat="42.926645" lon="11.1476903"><ele>210.0</ele><time>2026-04-26T10:05:18.099Z</time></trkpt><trkpt lat="42.9267302" lon="11.1477389"><ele>210.0</ele><time>2026-04-26T10:05:19.093Z</time></trkpt><trkpt lat="42.9268217" lon="11.1477936"><ele>207.16666666666666</ele><time>2026-04-26T10:05:20.091Z</time></trkpt><trkpt lat="42.9269054" lon="11.1478395"><ele>204.33333333333331</ele><time>2026-04-26T10:05:21.09Z</time></trkpt><trkpt lat="42.9269819" lon="11.1478895"><ele>201.5</ele><time>2026-04-26T10:05:22.093Z</time></trkpt><trkpt lat="42.9270556" lon="11.1479402"><ele>198.66666666666666</ele><time>2026-04-26T10:05:23.096Z</time></trkpt><trkpt lat="42.9271185" lon="11.1480021"><ele>195.83333333333331</ele><time>2026-04-26T10:05:24.103Z</time></trkpt><trkpt lat="42.927182" lon="11.1480762"><ele>193.0</ele><time>2026-04-26T10:05:25.115Z</time></trkpt><trkpt lat="42.9272422" lon="11.1481455"><ele>193.99999999999997</ele><time>2026-04-26T10:05:26.094Z</time></trkpt><trkpt lat="42.9272946" lon="11.1482206"><ele>195.0</ele><time>2026-04-26T10:05:27.101Z</time></trkpt><trkpt lat="42.927351" lon="11.1482995"><ele>196.0</ele><time>2026-04-26T10:05:28.089Z</time></trkpt><trkpt lat="42.9274113" lon="11.148386"><ele>197.0</ele><time>2026-04-26T10:05:29.09Z</time></trkpt><trkpt lat="42.9274678" lon="11.148477"><ele>197.99999999999997</ele><time>2026-04-26T10:05:30.095Z</time></trkpt><trkpt lat="42.92753" lon="11.1485658"><ele>199.0</ele><time>2026-04-26T10:05:31.09Z</time></trkpt><trkpt lat="42.927583" lon="11.1486435"><ele>199.0</ele><time>2026-04-26T10:05:32.097Z</time></trkpt><trkpt lat="42.927644" lon="11.1487158"><ele>199.0</ele><time>2026-04-26T10:05:33.097Z</time></trkpt><trkpt lat="42.9277192" lon="11.148783"><ele>199.0</ele><time>2026-04-26T10:05:34.096Z</time></trkpt><trkpt lat="42.9278068" lon="11.148832"><ele>199.0</ele><time>2026-04-26T10:05:35.099Z</time></trkpt><trkpt lat="42.9278996" lon="11.1488804"><ele>199.0</ele><time>2026-04-26T10:05:36.105Z</time></trkpt><trkpt lat="42.9279836" lon="11.1489141"><ele>199.0</ele><time>2026-04-26T10:05:37.097Z</time></trkpt><trkpt lat="42.928065" lon="11.1489309"><ele>199.0</ele><time>2026-04-26T10:05:38.101Z</time></trkpt><trkpt lat="42.9281469" lon="11.1489435"><ele>199.0</ele><time>2026-04-26T10:05:39.103Z</time></trkpt><trkpt lat="42.9282209" lon="11.1489593"><ele>199.0</ele><time>2026-04-26T10:05:40.092Z</time></trkpt><trkpt lat="42.9283227" lon="11.1490144"><ele>199.0</ele><time>2026-04-26T10:05:42.101Z</time></trkpt><trkpt lat="42.9283961" lon="11.1491157"><ele>199.83333333333331</ele><time>2026-04-26T10:05:44.101Z</time></trkpt><trkpt lat="42.928454" lon="11.1492103"><ele>200.66666666666666</ele><time>2026-04-26T10:05:46.103Z</time></trkpt><trkpt lat="42.9285064" lon="11.1491573"><ele>201.5</ele><time>2026-04-26T10:05:54.1Z</time></trkpt><trkpt lat="42.928576" lon="11.1490906"><ele>202.33333333333331</ele><time>2026-04-26T10:05:57.098Z</time></trkpt><trkpt lat="42.9286658" lon="11.1490513"><ele>203.16666666666666</ele><time>2026-04-26T10:06:12.097Z</time></trkpt><trkpt lat="42.9287671" lon="11.1490251"><ele>204.0</ele><time>2026-04-26T10:06:14.096Z</time></trkpt><trkpt lat="42.9288536" lon="11.1489614"><ele>204.0</ele><time>2026-04-26T10:06:16.135Z</time></trkpt><trkpt lat="42.9288983" lon="11.1487926"><ele>204.0</ele><time>2026-04-26T10:06:18.094Z</time></trkpt><trkpt lat="42.9289103" lon="11.1487029"><ele>204.0</ele><time>2026-04-26T10:06:19.106Z</time></trkpt><trkpt lat="42.9289047" lon="11.1486161"><ele>204.0</ele><time>2026-04-26T10:06:20.106Z</time></trkpt><trkpt lat="42.9289456" lon="11.148461"><ele>204.0</ele><time>2026-04-26T10:06:22.099Z</time></trkpt><trkpt lat="42.9290242" lon="11.1483661"><ele>204.0</ele><time>2026-04-26T10:06:24.097Z</time></trkpt><trkpt lat="42.9291233" lon="11.1483203"><ele>204.0</ele><time>2026-04-26T10:06:26.097Z</time></trkpt><trkpt lat="42.9292287" lon="11.1482952"><ele>204.0</ele><time>2026-04-26T10:06:28.103Z</time></trkpt><trkpt lat="42.9293444" lon="11.148255"><ele>204.0</ele><time>2026-04-26T10:06:30.131Z</time></trkpt><trkpt lat="42.9294038" lon="11.1482201"><ele>204.0</ele><time>2026-04-26T10:06:31.095Z</time></trkpt><trkpt lat="42.9294649" lon="11.1481916"><ele>202.83333333333334</ele><time>2026-04-26T10:06:32.098Z</time></trkpt><trkpt lat="42.9295265" lon="11.1481601"><ele>201.66666666666669</ele><time>2026-04-26T10:06:33.094Z</time></trkpt><trkpt lat="42.9295889" lon="11.1481398"><ele>200.5</ele><time>2026-04-26T10:06:34.098Z</time></trkpt><trkpt lat="42.929649" lon="11.1481112"><ele>199.33333333333334</ele><time>2026-04-26T10:06:35.095Z</time></trkpt><trkpt lat="42.9297118" lon="11.1480823"><ele>198.16666666666669</ele><time>2026-04-26T10:06:36.091Z</time></trkpt><trkpt lat="42.9298356" lon="11.1480335"><ele>197.0</ele><time>2026-04-26T10:06:38.095Z</time></trkpt><trkpt lat="42.9299459" lon="11.1479535"><ele>199.66666666666669</ele><time>2026-04-26T10:06:40.095Z</time></trkpt><trkpt lat="42.9300583" lon="11.1478776"><ele>202.33333333333334</ele><time>2026-04-26T10:06:42.09Z</time></trkpt><trkpt lat="42.9301178" lon="11.1478434"><ele>205.0</ele><time>2026-04-26T10:06:43.091Z</time></trkpt><trkpt lat="42.9301803" lon="11.1478072"><ele>207.66666666666669</ele><time>2026-04-26T10:06:44.102Z</time></trkpt><trkpt lat="42.9302411" lon="11.1477801"><ele>210.33333333333334</ele><time>2026-04-26T10:06:45.092Z</time></trkpt><trkpt lat="42.930303" lon="11.1477606"><ele>213.0</ele><time>2026-04-26T10:06:46.116Z</time></trkpt><trkpt lat="42.9304247" lon="11.1477364"><ele>213.0</ele><time>2026-04-26T10:06:48.097Z</time></trkpt><trkpt lat="42.9304953" lon="11.1477409"><ele>213.0</ele><time>2026-04-26T10:06:49.094Z</time></trkpt><trkpt lat="42.9305615" lon="11.1477497"><ele>213.0</ele><time>2026-04-26T10:06:50.1Z</time></trkpt><trkpt lat="42.930675" lon="11.1477624"><ele>213.0</ele><time>2026-04-26T10:06:52.096Z</time></trkpt><trkpt lat="42.9308091" lon="11.1477199"><ele>213.0</ele><time>2026-04-26T10:06:54.093Z</time></trkpt><trkpt lat="42.9308838" lon="11.1476884"><ele>213.83333333333334</ele><time>2026-04-26T10:06:55.097Z</time></trkpt><trkpt lat="42.9309632" lon="11.1476558"><ele>214.66666666666669</ele><time>2026-04-26T10:06:56.088Z</time></trkpt><trkpt lat="42.931042" lon="11.1476249"><ele>215.5</ele><time>2026-04-26T10:06:57.095Z</time></trkpt><trkpt lat="42.9311083" lon="11.1476102"><ele>216.33333333333334</ele><time>2026-04-26T10:06:58.097Z</time></trkpt><trkpt lat="42.9312303" lon="11.1476165"><ele>217.16666666666669</ele><time>2026-04-26T10:07:00.096Z</time></trkpt><trkpt lat="42.9313054" lon="11.1476254"><ele>218.0</ele><time>2026-04-26T10:07:01.107Z</time></trkpt><trkpt lat="42.9313826" lon="11.1476454"><ele>218.00000000000003</ele><time>2026-04-26T10:07:02.093Z</time></trkpt><trkpt lat="42.9314563" lon="11.1476569"><ele>218.0</ele><time>2026-04-26T10:07:03.116Z</time></trkpt><trkpt lat="42.9315304" lon="11.1476798"><ele>218.0</ele><time>2026-04-26T10:07:04.097Z</time></trkpt><trkpt lat="42.931604" lon="11.1476876"><ele>218.0</ele><time>2026-04-26T10:07:05.096Z</time></trkpt><trkpt lat="42.9316848" lon="11.1476931"><ele>218.00000000000003</ele><time>2026-04-26T10:07:06.102Z</time></trkpt><trkpt lat="42.9317681" lon="11.1476908"><ele>218.0</ele><time>2026-04-26T10:07:07.097Z</time></trkpt><trkpt lat="42.9318477" lon="11.147672"><ele>215.57142857142858</ele><time>2026-04-26T10:07:08.099Z</time></trkpt><trkpt lat="42.9319202" lon="11.1476461"><ele>213.14285714285717</ele><time>2026-04-26T10:07:09.099Z</time></trkpt><trkpt lat="42.9319828" lon="11.1476152"><ele>210.71428571428572</ele><time>2026-04-26T10:07:10.094Z</time></trkpt><trkpt lat="42.9320335" lon="11.1475614"><ele>208.28571428571428</ele><time>2026-04-26T10:07:11.136Z</time></trkpt><trkpt lat="42.9320817" lon="11.1474986"><ele>205.85714285714286</ele><time>2026-04-26T10:07:12.1Z</time></trkpt><trkpt lat="42.9321239" lon="11.1474213"><ele>203.42857142857142</ele><time>2026-04-26T10:07:13.1Z</time></trkpt><trkpt lat="42.9321614" lon="11.1473418"><ele>201.0</ele><time>2026-04-26T10:07:14.096Z</time></trkpt><trkpt lat="42.932192" lon="11.1472561"><ele>200.60000000000002</ele><time>2026-04-26T10:07:15.1Z</time></trkpt><trkpt lat="42.9322064" lon="11.1471659"><ele>200.2</ele><time>2026-04-26T10:07:16.121Z</time></trkpt><trkpt lat="42.9321938" lon="11.1470079"><ele>199.8</ele><time>2026-04-26T10:07:18.102Z</time></trkpt><trkpt lat="42.932154" lon="11.146868"><ele>199.39999999999998</ele><time>2026-04-26T10:07:20.106Z</time></trkpt><trkpt lat="42.9321181" lon="11.1467039"><ele>199.0</ele><time>2026-04-26T10:07:22.114Z</time></trkpt><trkpt lat="42.9321007" lon="11.1466184"><ele>198.0</ele><time>2026-04-26T10:07:23.103Z</time></trkpt><trkpt lat="42.9320743" lon="11.1464628"><ele>197.0</ele><time>2026-04-26T10:07:25.102Z</time></trkpt><trkpt lat="42.9320194" lon="11.1463024"><ele>196.0</ele><time>2026-04-26T10:07:27.092Z</time></trkpt><trkpt lat="42.9319775" lon="11.1462168"><ele>195.0</ele><time>2026-04-26T10:07:28.105Z</time></trkpt><trkpt lat="42.9319427" lon="11.146144"><ele>194.0</ele><time>2026-04-26T10:07:29.107Z</time></trkpt><trkpt lat="42.9318994" lon="11.1460051"><ele>194.0</ele><time>2026-04-26T10:07:31.097Z</time></trkpt><trkpt lat="42.9319005" lon="11.1458611"><ele>194.0</ele><time>2026-04-26T10:07:33.096Z</time></trkpt><trkpt lat="42.9319363" lon="11.145716"><ele>194.0</ele><time>2026-04-26T10:07:35.099Z</time></trkpt><trkpt lat="42.9320009" lon="11.1456"><ele>194.0</ele><time>2026-04-26T10:07:37.094Z</time></trkpt><trkpt lat="42.9320672" lon="11.1454925"><ele>194.0</ele><time>2026-04-26T10:07:39.094Z</time></trkpt><trkpt lat="42.9321225" lon="11.14538"><ele>192.79999999999998</ele><time>2026-04-26T10:07:41.1Z</time></trkpt><trkpt lat="42.9321637" lon="11.145254"><ele>191.6</ele><time>2026-04-26T10:07:43.104Z</time></trkpt><trkpt lat="42.9321599" lon="11.1451311"><ele>190.4</ele><time>2026-04-26T10:07:45.1Z</time></trkpt><trkpt lat="42.932157" lon="11.1449826"><ele>189.2</ele><time>2026-04-26T10:07:47.139Z</time></trkpt><trkpt lat="42.9322267" lon="11.1448634"><ele>188.0</ele><time>2026-04-26T10:07:49.101Z</time></trkpt><trkpt lat="42.9323119" lon="11.144793"><ele>186.0</ele><time>2026-04-26T10:07:51.097Z</time></trkpt><trkpt lat="42.932407" lon="11.1447281"><ele>184.0</ele><time>2026-04-26T10:07:53.098Z</time></trkpt><trkpt lat="42.9324955" lon="11.1446562"><ele>182.0</ele><time>2026-04-26T10:07:55.097Z</time></trkpt><trkpt lat="42.9325957" lon="11.1446043"><ele>180.0</ele><time>2026-04-26T10:07:57.117Z</time></trkpt><trkpt lat="42.9326994" lon="11.1445783"><ele>178.0</ele><time>2026-04-26T10:07:59.091Z</time></trkpt><trkpt lat="42.9328023" lon="11.14455"><ele>178.0</ele><time>2026-04-26T10:08:01.096Z</time></trkpt><trkpt lat="42.9328953" lon="11.1444926"><ele>178.0</ele><time>2026-04-26T10:08:03.1Z</time></trkpt><trkpt lat="42.932982" lon="11.1443902"><ele>178.0</ele><time>2026-04-26T10:08:05.101Z</time></trkpt><trkpt lat="42.9330262" lon="11.1443256"><ele>178.0</ele><time>2026-04-26T10:08:06.097Z</time></trkpt><trkpt lat="42.9331194" lon="11.1442244"><ele>178.0</ele><time>2026-04-26T10:08:08.093Z</time></trkpt><trkpt lat="42.9332234" lon="11.1441742"><ele>178.0</ele><time>2026-04-26T10:08:10.096Z</time></trkpt><trkpt lat="42.9333047" lon="11.1441013"><ele>178.0</ele><time>2026-04-26T10:08:12.098Z</time></trkpt><trkpt lat="42.9333493" lon="11.1439729"><ele>178.0</ele><time>2026-04-26T10:08:14.093Z</time></trkpt><trkpt lat="42.9333914" lon="11.1438545"><ele>178.0</ele><time>2026-04-26T10:08:16.099Z</time></trkpt><trkpt lat="42.9334376" lon="11.1437468"><ele>178.0</ele><time>2026-04-26T10:08:18.099Z</time></trkpt><trkpt lat="42.9334706" lon="11.143646"><ele>178.5</ele><time>2026-04-26T10:08:20.115Z</time></trkpt><trkpt lat="42.9335284" lon="11.1436943"><ele>179.0</ele><time>2026-04-26T10:08:26.106Z</time></trkpt><trkpt lat="42.9335947" lon="11.1437177"><ele>179.5</ele><time>2026-04-26T10:08:28.103Z</time></trkpt><trkpt lat="42.9336691" lon="11.1437389"><ele>180.0</ele><time>2026-04-26T10:08:30.104Z</time></trkpt><trkpt lat="42.9337666" lon="11.1437035"><ele>180.5</ele><time>2026-04-26T10:08:32.098Z</time></trkpt><trkpt lat="42.9338845" lon="11.143668"><ele>181.0</ele><time>2026-04-26T10:08:34.101Z</time></trkpt><trkpt lat="42.9340002" lon="11.1436361"><ele>181.0</ele><time>2026-04-26T10:08:36.101Z</time></trkpt><trkpt lat="42.9341238" lon="11.1435996"><ele>181.0</ele><time>2026-04-26T10:08:38.105Z</time></trkpt><trkpt lat="42.9341922" lon="11.1435722"><ele>181.0</ele><time>2026-04-26T10:08:39.111Z</time></trkpt><trkpt lat="42.9342631" lon="11.1435337"><ele>181.0</ele><time>2026-04-26T10:08:40.105Z</time></trkpt><trkpt lat="42.9343432" lon="11.1435057"><ele>181.0</ele><time>2026-04-26T10:08:41.102Z</time></trkpt><trkpt lat="42.9344234" lon="11.1434741"><ele>181.0</ele><time>2026-04-26T10:08:42.126Z</time></trkpt><trkpt lat="42.934509" lon="11.1434356"><ele>179.8</ele><time>2026-04-26T10:08:43.103Z</time></trkpt><trkpt lat="42.9345965" lon="11.1434104"><ele>178.60000000000002</ele><time>2026-04-26T10:08:44.114Z</time></trkpt><trkpt lat="42.9346902" lon="11.1433876"><ele>177.4</ele><time>2026-04-26T10:08:45.11Z</time></trkpt><trkpt lat="42.9347816" lon="11.1433628"><ele>176.2</ele><time>2026-04-26T10:08:46.102Z</time></trkpt><trkpt lat="42.9348777" lon="11.1433446"><ele>175.0</ele><time>2026-04-26T10:08:47.113Z</time></trkpt><trkpt lat="42.9349783" lon="11.143342"><ele>174.2</ele><time>2026-04-26T10:08:48.099Z</time></trkpt><trkpt lat="42.9350851" lon="11.1433372"><ele>173.4</ele><time>2026-04-26T10:08:49.098Z</time></trkpt><trkpt lat="42.9351969" lon="11.1433312"><ele>172.60000000000002</ele><time>2026-04-26T10:08:50.101Z</time></trkpt><trkpt lat="42.935302" lon="11.1433192"><ele>171.8</ele><time>2026-04-26T10:08:51.103Z</time></trkpt><trkpt lat="42.9353914" lon="11.143308"><ele>171.0</ele><time>2026-04-26T10:08:52.104Z</time></trkpt><trkpt lat="42.935476" lon="11.1432954"><ele>171.0</ele><time>2026-04-26T10:08:53.138Z</time></trkpt><trkpt lat="42.9355538" lon="11.1432833"><ele>171.0</ele><time>2026-04-26T10:08:54.101Z</time></trkpt><trkpt lat="42.935622" lon="11.1432736"><ele>171.0</ele><time>2026-04-26T10:08:55.109Z</time></trkpt><trkpt lat="42.9356965" lon="11.1432793"><ele>171.0</ele><time>2026-04-26T10:08:56.112Z</time></trkpt><trkpt lat="42.935774" lon="11.1432938"><ele>171.0</ele><time>2026-04-26T10:08:57.114Z</time></trkpt><trkpt lat="42.9358547" lon="11.1432912"><ele>171.0</ele><time>2026-04-26T10:08:58.106Z</time></trkpt><trkpt lat="42.9359431" lon="11.1432802"><ele>170.5</ele><time>2026-04-26T10:08:59.126Z</time></trkpt><trkpt lat="42.9360113" lon="11.1432668"><ele>170.0</ele><time>2026-04-26T10:09:00.115Z</time></trkpt><trkpt lat="42.9361296" lon="11.1432425"><ele>169.5</ele><time>2026-04-26T10:09:02.1Z</time></trkpt><trkpt lat="42.9362034" lon="11.1432504"><ele>169.0</ele><time>2026-04-26T10:09:03.11Z</time></trkpt><trkpt lat="42.936282" lon="11.1432572"><ele>168.5</ele><time>2026-04-26T10:09:04.144Z</time></trkpt><trkpt lat="42.9363594" lon="11.1432474"><ele>168.0</ele><time>2026-04-26T10:09:05.106Z</time></trkpt><trkpt lat="42.9364402" lon="11.1432465"><ele>168.0</ele><time>2026-04-26T10:09:06.108Z</time></trkpt><trkpt lat="42.9365176" lon="11.1432501"><ele>168.0</ele><time>2026-04-26T10:09:07.111Z</time></trkpt><trkpt lat="42.9366113" lon="11.1432688"><ele>168.0</ele><time>2026-04-26T10:09:08.113Z</time></trkpt><trkpt lat="42.9367169" lon="11.1432821"><ele>168.0</ele><time>2026-04-26T10:09:09.124Z</time></trkpt><trkpt lat="42.9368208" lon="11.1433037"><ele>168.0</ele><time>2026-04-26T10:09:10.102Z</time></trkpt><trkpt lat="42.9369105" lon="11.1433197"><ele>168.33333333333334</ele><time>2026-04-26T10:09:11.111Z</time></trkpt><trkpt lat="42.9370031" lon="11.1433327"><ele>168.66666666666666</ele><time>2026-04-26T10:09:12.105Z</time></trkpt><trkpt lat="42.9370899" lon="11.1433495"><ele>169.0</ele><time>2026-04-26T10:09:13.118Z</time></trkpt><trkpt lat="42.9371683" lon="11.1433676"><ele>169.33333333333331</ele><time>2026-04-26T10:09:14.106Z</time></trkpt><trkpt lat="42.9372394" lon="11.1433598"><ele>169.66666666666666</ele><time>2026-04-26T10:09:15.103Z</time></trkpt><trkpt lat="42.9373522" lon="11.1433489"><ele>170.0</ele><time>2026-04-26T10:09:17.113Z</time></trkpt><trkpt lat="42.9374193" lon="11.1433565"><ele>170.0</ele><time>2026-04-26T10:09:18.111Z</time></trkpt><trkpt lat="42.9374944" lon="11.1433659"><ele>170.0</ele><time>2026-04-26T10:09:19.148Z</time></trkpt><trkpt lat="42.9375682" lon="11.1433731"><ele>170.0</ele><time>2026-04-26T10:09:20.099Z</time></trkpt><trkpt lat="42.9376357" lon="11.1433876"><ele>170.0</ele><time>2026-04-26T10:09:21.11Z</time></trkpt><trkpt lat="42.9377077" lon="11.1434122"><ele>170.0</ele><time>2026-04-26T10:09:22.113Z</time></trkpt><trkpt lat="42.937822" lon="11.1434494"><ele>170.0</ele><time>2026-04-26T10:09:24.108Z</time></trkpt><trkpt lat="42.937942" lon="11.1435027"><ele>169.71428571428572</ele><time>2026-04-26T10:09:26.123Z</time></trkpt><trkpt lat="42.9380056" lon="11.143539"><ele>169.42857142857142</ele><time>2026-04-26T10:09:27.107Z</time></trkpt><trkpt lat="42.9380651" lon="11.1435796"><ele>169.14285714285714</ele><time>2026-04-26T10:09:28.105Z</time></trkpt><trkpt lat="42.9381265" lon="11.1436251"><ele>168.85714285714286</ele><time>2026-04-26T10:09:29.104Z</time></trkpt><trkpt lat="42.9381949" lon="11.1436569"><ele>168.57142857142856</ele><time>2026-04-26T10:09:30.109Z</time></trkpt><trkpt lat="42.9382574" lon="11.1436886"><ele>168.28571428571428</ele><time>2026-04-26T10:09:31.119Z</time></trkpt><trkpt lat="42.9383193" lon="11.1437245"><ele>168.0</ele><time>2026-04-26T10:09:32.103Z</time></trkpt><trkpt lat="42.9384331" lon="11.1437813"><ele>167.60000000000002</ele><time>2026-04-26T10:09:34.109Z</time></trkpt><trkpt lat="42.9385637" lon="11.1438367"><ele>167.20000000000002</ele><time>2026-04-26T10:09:36.104Z</time></trkpt><trkpt lat="42.938651" lon="11.1438659"><ele>166.8</ele><time>2026-04-26T10:09:37.1Z</time></trkpt><trkpt lat="42.9387523" lon="11.1438958"><ele>166.4</ele><time>2026-04-26T10:09:38.105Z</time></trkpt><trkpt lat="42.9388546" lon="11.1439168"><ele>166.0</ele><time>2026-04-26T10:09:39.095Z</time></trkpt><trkpt lat="42.9389426" lon="11.1439357"><ele>166.0</ele><time>2026-04-26T10:09:40.099Z</time></trkpt><trkpt lat="42.9390356" lon="11.1439414"><ele>166.0</ele><time>2026-04-26T10:09:41.098Z</time></trkpt><trkpt lat="42.939121" lon="11.143941"><ele>166.0</ele><time>2026-04-26T10:09:42.104Z</time></trkpt><trkpt lat="42.9392042" lon="11.1439467"><ele>166.0</ele><time>2026-04-26T10:09:43.122Z</time></trkpt><trkpt lat="42.9392884" lon="11.1439519"><ele>166.0</ele><time>2026-04-26T10:09:44.1Z</time></trkpt><trkpt lat="42.9393773" lon="11.1439544"><ele>166.0</ele><time>2026-04-26T10:09:45.1Z</time></trkpt><trkpt lat="42.9394653" lon="11.1439585"><ele>166.66666666666669</ele><time>2026-04-26T10:09:46.108Z</time></trkpt><trkpt lat="42.9395485" lon="11.1439647"><ele>167.33333333333334</ele><time>2026-04-26T10:09:47.106Z</time></trkpt><trkpt lat="42.939625" lon="11.143971"><ele>168.0</ele><time>2026-04-26T10:09:48.107Z</time></trkpt><trkpt lat="42.9397131" lon="11.1439713"><ele>168.66666666666666</ele><time>2026-04-26T10:09:50.106Z</time></trkpt><trkpt lat="42.9397918" lon="11.1438988"><ele>169.33333333333331</ele><time>2026-04-26T10:09:53.101Z</time></trkpt><trkpt lat="42.9398285" lon="11.1438191"><ele>170.0</ele><time>2026-04-26T10:09:55.101Z</time></trkpt><trkpt lat="42.939892" lon="11.1437748"><ele>170.0</ele><time>2026-04-26T10:09:57.097Z</time></trkpt><trkpt lat="42.9399623" lon="11.1437647"><ele>170.0</ele><time>2026-04-26T10:09:59.105Z</time></trkpt><trkpt lat="42.9400395" lon="11.1437621"><ele>170.0</ele><time>2026-04-26T10:10:01.11Z</time></trkpt><trkpt lat="42.9401187" lon="11.1438029"><ele>170.0</ele><time>2026-04-26T10:10:03.101Z</time></trkpt><trkpt lat="42.9402088" lon="11.1438393"><ele>170.0</ele><time>2026-04-26T10:10:05.101Z</time></trkpt><trkpt lat="42.9403434" lon="11.1438661"><ele>170.16666666666666</ele><time>2026-04-26T10:10:07.104Z</time></trkpt><trkpt lat="42.9404248" lon="11.1438678"><ele>170.33333333333331</ele><time>2026-04-26T10:10:08.097Z</time></trkpt><trkpt lat="42.9405051" lon="11.1438697"><ele>170.5</ele><time>2026-04-26T10:10:09.13Z</time></trkpt><trkpt lat="42.9405856" lon="11.1438718"><ele>170.66666666666666</ele><time>2026-04-26T10:10:10.099Z</time></trkpt><trkpt lat="42.9406604" lon="11.1438749"><ele>170.83333333333334</ele><time>2026-04-26T10:10:11.101Z</time></trkpt><trkpt lat="42.940735" lon="11.1438978"><ele>171.0</ele><time>2026-04-26T10:10:12.104Z</time></trkpt><trkpt lat="42.9408033" lon="11.1439401"><ele>171.0</ele><time>2026-04-26T10:10:13.108Z</time></trkpt><trkpt lat="42.9408713" lon="11.1439901"><ele>171.0</ele><time>2026-04-26T10:10:14.106Z</time></trkpt><trkpt lat="42.9409386" lon="11.1440343"><ele>171.0</ele><time>2026-04-26T10:10:15.102Z</time></trkpt><trkpt lat="42.9410125" lon="11.1440712"><ele>171.0</ele><time>2026-04-26T10:10:16.107Z</time></trkpt><trkpt lat="42.9410865" lon="11.1440936"><ele>171.0</ele><time>2026-04-26T10:10:17.102Z</time></trkpt><trkpt lat="42.9411602" lon="11.1441024"><ele>171.0</ele><time>2026-04-26T10:10:18.107Z</time></trkpt><trkpt lat="42.9412359" lon="11.1441102"><ele>171.42857142857142</ele><time>2026-04-26T10:10:19.101Z</time></trkpt><trkpt lat="42.9413051" lon="11.1441314"><ele>171.85714285714286</ele><time>2026-04-26T10:10:20.104Z</time></trkpt><trkpt lat="42.9413675" lon="11.1441642"><ele>172.28571428571428</ele><time>2026-04-26T10:10:21.109Z</time></trkpt><trkpt lat="42.9414317" lon="11.1442093"><ele>172.71428571428572</ele><time>2026-04-26T10:10:22.103Z</time></trkpt><trkpt lat="42.9414992" lon="11.1442684"><ele>173.14285714285714</ele><time>2026-04-26T10:10:23.152Z</time></trkpt><trkpt lat="42.9415596" lon="11.1443339"><ele>173.57142857142856</ele><time>2026-04-26T10:10:24.112Z</time></trkpt><trkpt lat="42.9416067" lon="11.1444049"><ele>174.0</ele><time>2026-04-26T10:10:25.109Z</time></trkpt><trkpt lat="42.9416461" lon="11.1444931"><ele>174.0</ele><time>2026-04-26T10:10:26.108Z</time></trkpt><trkpt lat="42.9416821" lon="11.144578"><ele>174.0</ele><time>2026-04-26T10:10:27.106Z</time></trkpt><trkpt lat="42.9417243" lon="11.1446477"><ele>174.0</ele><time>2026-04-26T10:10:28.134Z</time></trkpt><trkpt lat="42.9417769" lon="11.1447079"><ele>174.0</ele><time>2026-04-26T10:10:29.111Z</time></trkpt><trkpt lat="42.9418431" lon="11.144758"><ele>174.0</ele><time>2026-04-26T10:10:30.108Z</time></trkpt><trkpt lat="42.9419137" lon="11.1448052"><ele>174.0</ele><time>2026-04-26T10:10:31.112Z</time></trkpt><trkpt lat="42.9419796" lon="11.144862"><ele>174.0</ele><time>2026-04-26T10:10:32.107Z</time></trkpt><trkpt lat="42.9420353" lon="11.1449331"><ele>173.33333333333334</ele><time>2026-04-26T10:10:33.099Z</time></trkpt><trkpt lat="42.9420922" lon="11.1449979"><ele>172.66666666666666</ele><time>2026-04-26T10:10:34.118Z</time></trkpt><trkpt lat="42.9421555" lon="11.145051"><ele>172.0</ele><time>2026-04-26T10:10:35.103Z</time></trkpt><trkpt lat="42.9422221" lon="11.1450971"><ele>171.33333333333331</ele><time>2026-04-26T10:10:36.105Z</time></trkpt><trkpt lat="42.9422964" lon="11.1451304"><ele>170.66666666666666</ele><time>2026-04-26T10:10:37.098Z</time></trkpt><trkpt lat="42.9423739" lon="11.1451608"><ele>170.0</ele><time>2026-04-26T10:10:38.098Z</time></trkpt><trkpt lat="42.9424449" lon="11.1451776"><ele>169.2</ele><time>2026-04-26T10:10:39.101Z</time></trkpt><trkpt lat="42.9425646" lon="11.1451904"><ele>168.4</ele><time>2026-04-26T10:10:41.13Z</time></trkpt><trkpt lat="42.9426688" lon="11.14521"><ele>167.60000000000002</ele><time>2026-04-26T10:10:43.102Z</time></trkpt><trkpt lat="42.9427314" lon="11.1451805"><ele>166.8</ele><time>2026-04-26T10:10:45.101Z</time></trkpt><trkpt lat="42.9427649" lon="11.145049"><ele>166.0</ele><time>2026-04-26T10:10:47.104Z</time></trkpt><trkpt lat="42.9427728" lon="11.1449301"><ele>163.33333333333334</ele><time>2026-04-26T10:10:49.109Z</time></trkpt><trkpt lat="42.9427464" lon="11.1448331"><ele>160.66666666666669</ele><time>2026-04-26T10:10:51.107Z</time></trkpt><trkpt lat="42.9427108" lon="11.1447443"><ele>158.0</ele><time>2026-04-26T10:10:53.127Z</time></trkpt><trkpt lat="42.9426702" lon="11.1446651"><ele>155.33333333333334</ele><time>2026-04-26T10:10:55.099Z</time></trkpt><trkpt lat="42.9426208" lon="11.1445357"><ele>152.66666666666666</ele><time>2026-04-26T10:10:57.095Z</time></trkpt><trkpt lat="42.9425978" lon="11.1444468"><ele>150.0</ele><time>2026-04-26T10:10:58.103Z</time></trkpt><trkpt lat="42.9425794" lon="11.1443615"><ele>150.0</ele><time>2026-04-26T10:10:59.101Z</time></trkpt><trkpt lat="42.9425555" lon="11.1442209"><ele>150.0</ele><time>2026-04-26T10:11:01.118Z</time></trkpt><trkpt lat="42.9425324" lon="11.1440957"><ele>150.0</ele><time>2026-04-26T10:11:03.103Z</time></trkpt><trkpt lat="42.942526" lon="11.1439708"><ele>150.0</ele><time>2026-04-26T10:11:05.097Z</time></trkpt><trkpt lat="42.942514" lon="11.1438535"><ele>150.0</ele><time>2026-04-26T10:11:07.101Z</time></trkpt><trkpt lat="42.9424875" lon="11.1437551"><ele>151.33333333333334</ele><time>2026-04-26T10:11:09.089Z</time></trkpt><trkpt lat="42.9424754" lon="11.143667"><ele>152.66666666666666</ele><time>2026-04-26T10:11:11.121Z</time></trkpt><trkpt lat="42.9424655" lon="11.143568"><ele>154.0</ele><time>2026-04-26T10:11:13.098Z</time></trkpt><trkpt lat="42.9424419" lon="11.1434484"><ele>155.33333333333331</ele><time>2026-04-26T10:11:15.096Z</time></trkpt><trkpt lat="42.9424259" lon="11.1433158"><ele>156.66666666666666</ele><time>2026-04-26T10:11:17.095Z</time></trkpt><trkpt lat="42.9424573" lon="11.1431948"><ele>158.0</ele><time>2026-04-26T10:11:19.096Z</time></trkpt><trkpt lat="42.9424949" lon="11.143077"><ele>158.0</ele><time>2026-04-26T10:11:21.096Z</time></trkpt><trkpt lat="42.9424954" lon="11.1429903"><ele>158.0</ele><time>2026-04-26T10:11:22.09Z</time></trkpt><trkpt lat="42.9424536" lon="11.1428404"><ele>158.0</ele><time>2026-04-26T10:11:24.099Z</time></trkpt><trkpt lat="42.9424127" lon="11.1427606"><ele>158.0</ele><time>2026-04-26T10:11:25.094Z</time></trkpt><trkpt lat="42.9423706" lon="11.1426853"><ele>158.0</ele><time>2026-04-26T10:11:26.099Z</time></trkpt><trkpt lat="42.9423087" lon="11.1425626"><ele>158.0</ele><time>2026-04-26T10:11:28.095Z</time></trkpt><trkpt lat="42.942262" lon="11.142433"><ele>156.66666666666666</ele><time>2026-04-26T10:11:30.121Z</time></trkpt><trkpt lat="42.9422316" lon="11.1423011"><ele>155.33333333333331</ele><time>2026-04-26T10:11:32.097Z</time></trkpt><trkpt lat="42.9422321" lon="11.1421777"><ele>154.0</ele><time>2026-04-26T10:11:34.105Z</time></trkpt><trkpt lat="42.9422375" lon="11.1420646"><ele>152.66666666666666</ele><time>2026-04-26T10:11:36.097Z</time></trkpt><trkpt lat="42.9422687" lon="11.1419524"><ele>151.33333333333334</ele><time>2026-04-26T10:11:38.099Z</time></trkpt><trkpt lat="42.9423139" lon="11.1418513"><ele>150.0</ele><time>2026-04-26T10:11:40.096Z</time></trkpt><trkpt lat="42.9423637" lon="11.1417659"><ele>150.0</ele><time>2026-04-26T10:11:42.103Z</time></trkpt><trkpt lat="42.9424159" lon="11.1416935"><ele>150.0</ele><time>2026-04-26T10:11:44.099Z</time></trkpt><trkpt lat="42.9424764" lon="11.1416221"><ele>150.0</ele><time>2026-04-26T10:11:46.103Z</time></trkpt><trkpt lat="42.9425384" lon="11.141561"><ele>150.0</ele><time>2026-04-26T10:11:48.108Z</time></trkpt><trkpt lat="42.9426075" lon="11.1414831"><ele>150.0</ele><time>2026-04-26T10:11:50.095Z</time></trkpt><trkpt lat="42.9426791" lon="11.1414166"><ele>150.0</ele><time>2026-04-26T10:11:52.098Z</time></trkpt><trkpt lat="42.9427337" lon="11.141351"><ele>149.28571428571428</ele><time>2026-04-26T10:11:54.113Z</time></trkpt><trkpt lat="42.9427868" lon="11.1412921"><ele>148.57142857142856</ele><time>2026-04-26T10:11:56.099Z</time></trkpt><trkpt lat="42.9428431" lon="11.1412446"><ele>147.85714285714286</ele><time>2026-04-26T10:11:58.093Z</time></trkpt><trkpt lat="42.9429018" lon="11.1411928"><ele>147.14285714285714</ele><time>2026-04-26T10:12:00.105Z</time></trkpt><trkpt lat="42.9429631" lon="11.1411197"><ele>146.42857142857144</ele><time>2026-04-26T10:12:03.102Z</time></trkpt><trkpt lat="42.9430178" lon="11.1410463"><ele>145.71428571428572</ele><time>2026-04-26T10:12:06.099Z</time></trkpt><trkpt lat="42.9430723" lon="11.1409725"><ele>145.0</ele><time>2026-04-26T10:12:09.118Z</time></trkpt><trkpt lat="42.9431216" lon="11.1408923"><ele>145.0</ele><time>2026-04-26T10:12:11.107Z</time></trkpt><trkpt lat="42.9431792" lon="11.1407979"><ele>145.0</ele><time>2026-04-26T10:12:13.102Z</time></trkpt><trkpt lat="42.9432317" lon="11.1407221"><ele>145.0</ele><time>2026-04-26T10:12:15.112Z</time></trkpt><trkpt lat="42.9432893" lon="11.1406384"><ele>145.0</ele><time>2026-04-26T10:12:17.101Z</time></trkpt><trkpt lat="42.9433363" lon="11.1405308"><ele>145.0</ele><time>2026-04-26T10:12:19.106Z</time></trkpt><trkpt lat="42.9433699" lon="11.1404108"><ele>145.0</ele><time>2026-04-26T10:12:21.102Z</time></trkpt><trkpt lat="42.9434066" lon="11.1403153"><ele>143.66666666666669</ele><time>2026-04-26T10:12:23.109Z</time></trkpt><trkpt lat="42.9434447" lon="11.1402251"><ele>142.33333333333334</ele><time>2026-04-26T10:12:25.103Z</time></trkpt><trkpt lat="42.9434812" lon="11.1401486"><ele>141.0</ele><time>2026-04-26T10:12:27.105Z</time></trkpt><trkpt lat="42.9435479" lon="11.1400698"><ele>139.66666666666666</ele><time>2026-04-26T10:12:30.108Z</time></trkpt><trkpt lat="42.943619" lon="11.1399906"><ele>138.33333333333331</ele><time>2026-04-26T10:12:33.124Z</time></trkpt><trkpt lat="42.9436707" lon="11.1399242"><ele>137.0</ele><time>2026-04-26T10:12:35.105Z</time></trkpt><trkpt lat="42.9437267" lon="11.1398558"><ele>134.83333333333331</ele><time>2026-04-26T10:12:37.105Z</time></trkpt><trkpt lat="42.9437994" lon="11.1397864"><ele>132.66666666666666</ele><time>2026-04-26T10:12:40.097Z</time></trkpt><trkpt lat="42.9438714" lon="11.1397238"><ele>130.5</ele><time>2026-04-26T10:12:43.103Z</time></trkpt><trkpt lat="42.9439358" lon="11.1396689"><ele>128.33333333333334</ele><time>2026-04-26T10:12:45.102Z</time></trkpt><trkpt lat="42.9439975" lon="11.1395911"><ele>126.16666666666667</ele><time>2026-04-26T10:12:47.108Z</time></trkpt><trkpt lat="42.9440497" lon="11.1395279"><ele>124.0</ele><time>2026-04-26T10:12:49.103Z</time></trkpt><trkpt lat="42.9440941" lon="11.1394428"><ele>124.00000000000001</ele><time>2026-04-26T10:12:51.102Z</time></trkpt><trkpt lat="42.944135" lon="11.1393726"><ele>124.0</ele><time>2026-04-26T10:12:53.099Z</time></trkpt><trkpt lat="42.944194" lon="11.139306"><ele>124.0</ele><time>2026-04-26T10:12:55.098Z</time></trkpt><trkpt lat="42.9442649" lon="11.1392357"><ele>124.0</ele><time>2026-04-26T10:12:57.099Z</time></trkpt><trkpt lat="42.9443321" lon="11.1391623"><ele>124.00000000000001</ele><time>2026-04-26T10:12:59.092Z</time></trkpt><trkpt lat="42.9443923" lon="11.1390697"><ele>124.0</ele><time>2026-04-26T10:13:01.097Z</time></trkpt><trkpt lat="42.9444303" lon="11.1389844"><ele>121.83333333333334</ele><time>2026-04-26T10:13:03.097Z</time></trkpt><trkpt lat="42.9444457" lon="11.1388822"><ele>119.66666666666667</ele><time>2026-04-26T10:13:31.09Z</time></trkpt><trkpt lat="42.9444572" lon="11.138784"><ele>117.5</ele><time>2026-04-26T10:13:34.097Z</time></trkpt><trkpt lat="42.94444" lon="11.138675"><ele>115.33333333333334</ele><time>2026-04-26T10:13:37.113Z</time></trkpt><trkpt lat="42.9444234" lon="11.1385628"><ele>113.16666666666667</ele><time>2026-04-26T10:13:40.096Z</time></trkpt><trkpt lat="42.9444418" lon="11.1384551"><ele>111.0</ele><time>2026-04-26T10:13:43.1Z</time></trkpt><trkpt lat="42.9444747" lon="11.1383692"><ele>111.0</ele><time>2026-04-26T10:13:45.101Z</time></trkpt><trkpt lat="42.9445051" lon="11.1382778"><ele>111.0</ele><time>2026-04-26T10:13:47.095Z</time></trkpt><trkpt lat="42.9445863" lon="11.1382467"><ele>111.0</ele><time>2026-04-26T10:13:50.09Z</time></trkpt><trkpt lat="42.9446426" lon="11.1382057"><ele>111.0</ele><time>2026-04-26T10:15:17.099Z</time></trkpt><trkpt lat="42.9447198" lon="11.1381703"><ele>111.0</ele><time>2026-04-26T10:15:20.093Z</time></trkpt><trkpt lat="42.944786" lon="11.1381095"><ele>111.0</ele><time>2026-04-26T10:15:22.098Z</time></trkpt><trkpt lat="42.9448582" lon="11.1380413"><ele>108.6</ele><time>2026-04-26T10:15:24.098Z</time></trkpt><trkpt lat="42.9449236" lon="11.1379635"><ele>106.19999999999999</ele><time>2026-04-26T10:15:26.102Z</time></trkpt><trkpt lat="42.9450122" lon="11.1378975"><ele>103.80000000000001</ele><time>2026-04-26T10:15:28.122Z</time></trkpt><trkpt lat="42.9451075" lon="11.1378273"><ele>101.4</ele><time>2026-04-26T10:15:30.104Z</time></trkpt><trkpt lat="42.9451817" lon="11.1377532"><ele>99.0</ele><time>2026-04-26T10:15:32.102Z</time></trkpt><trkpt lat="42.9452705" lon="11.1377128"><ele>98.66666666666667</ele><time>2026-04-26T10:15:34.099Z</time></trkpt><trkpt lat="42.9453626" lon="11.1377052"><ele>98.33333333333334</ele><time>2026-04-26T10:15:36.092Z</time></trkpt><trkpt lat="42.9454414" lon="11.1377524"><ele>98.0</ele><time>2026-04-26T10:15:38.099Z</time></trkpt><trkpt lat="42.9455206" lon="11.1377734"><ele>97.66666666666667</ele><time>2026-04-26T10:15:40.104Z</time></trkpt><trkpt lat="42.9456004" lon="11.1377588"><ele>97.33333333333334</ele><time>2026-04-26T10:15:42.095Z</time></trkpt><trkpt lat="42.945665" lon="11.1376963"><ele>97.0</ele><time>2026-04-26T10:15:44.098Z</time></trkpt><trkpt lat="42.9457209" lon="11.1376506"><ele>97.0</ele><time>2026-04-26T10:15:47.099Z</time></trkpt><trkpt lat="42.9457542" lon="11.1375765"><ele>97.0</ele><time>2026-04-26T10:15:50.112Z</time></trkpt><trkpt lat="42.9457791" lon="11.1374907"><ele>97.0</ele><time>2026-04-26T10:16:04.091Z</time></trkpt><trkpt lat="42.9458076" lon="11.1374089"><ele>97.0</ele><time>2026-04-26T10:16:07.096Z</time></trkpt><trkpt lat="42.9458583" lon="11.137287"><ele>97.0</ele><time>2026-04-26T10:16:10.091Z</time></trkpt><trkpt lat="42.9459018" lon="11.1372065"><ele>97.0</ele><time>2026-04-26T10:16:12.1Z</time></trkpt><trkpt lat="42.9459392" lon="11.1371184"><ele>97.0</ele><time>2026-04-26T10:16:15.099Z</time></trkpt><trkpt lat="42.9459704" lon="11.1370285"><ele>92.33333333333334</ele><time>2026-04-26T10:16:24.1Z</time></trkpt><trkpt lat="42.9459823" lon="11.1369056"><ele>87.66666666666667</ele><time>2026-04-26T10:16:26.101Z</time></trkpt><trkpt lat="42.945968" lon="11.1367607"><ele>83.0</ele><time>2026-04-26T10:16:28.094Z</time></trkpt><trkpt lat="42.9459612" lon="11.1366405"><ele>78.33333333333334</ele><time>2026-04-26T10:16:31.121Z</time></trkpt><trkpt lat="42.9459903" lon="11.1365609"><ele>73.66666666666667</ele><time>2026-04-26T10:16:34.096Z</time></trkpt><trkpt lat="42.9460395" lon="11.1364572"><ele>69.0</ele><time>2026-04-26T10:16:37.096Z</time></trkpt><trkpt lat="42.9460613" lon="11.1363551"><ele>68.16666666666667</ele><time>2026-04-26T10:16:39.102Z</time></trkpt><trkpt lat="42.9460779" lon="11.1362715"><ele>67.33333333333333</ele><time>2026-04-26T10:16:41.103Z</time></trkpt><trkpt lat="42.9461513" lon="11.1362339"><ele>66.5</ele><time>2026-04-26T10:16:47.091Z</time></trkpt><trkpt lat="42.9462377" lon="11.1362279"><ele>65.66666666666666</ele><time>2026-04-26T10:17:08.102Z</time></trkpt><trkpt lat="42.9463046" lon="11.1362396"><ele>64.83333333333333</ele><time>2026-04-26T10:17:10.101Z</time></trkpt><trkpt lat="42.9463908" lon="11.1362497"><ele>64.0</ele><time>2026-04-26T10:17:18.109Z</time></trkpt><trkpt lat="42.9464535" lon="11.1362072"><ele>63.99999999999999</ele><time>2026-04-26T10:17:20.097Z</time></trkpt><trkpt lat="42.9465044" lon="11.1361507"><ele>64.0</ele><time>2026-04-26T10:17:22.099Z</time></trkpt><trkpt lat="42.94658" lon="11.1360723"><ele>64.0</ele><time>2026-04-26T10:17:25.106Z</time></trkpt><trkpt lat="42.9466388" lon="11.136003"><ele>64.0</ele><time>2026-04-26T10:17:27.106Z</time></trkpt><trkpt lat="42.9466846" lon="11.1359222"><ele>63.99999999999999</ele><time>2026-04-26T10:17:29.106Z</time></trkpt><trkpt lat="42.9467226" lon="11.1358388"><ele>64.0</ele><time>2026-04-26T10:17:31.107Z</time></trkpt><trkpt lat="42.946769" lon="11.1357717"><ele>63.57142857142857</ele><time>2026-04-26T10:17:34.098Z</time></trkpt><trkpt lat="42.9468278" lon="11.1357072"><ele>63.14285714285714</ele><time>2026-04-26T10:17:37.105Z</time></trkpt><trkpt lat="42.9469082" lon="11.1357001"><ele>62.71428571428571</ele><time>2026-04-26T10:17:41.101Z</time></trkpt><trkpt lat="42.9469715" lon="11.1357024"><ele>62.28571428571428</ele><time>2026-04-26T10:17:45.095Z</time></trkpt><trkpt lat="42.9470401" lon="11.1357139"><ele>61.857142857142854</ele><time>2026-04-26T10:17:50.1Z</time></trkpt><trkpt lat="42.9471091" lon="11.1357239"><ele>61.428571428571416</ele><time>2026-04-26T10:18:10.095Z</time></trkpt><trkpt lat="42.9471689" lon="11.1357646"><ele>60.99999999999999</ele><time>2026-04-26T10:18:18.095Z</time></trkpt><trkpt lat="42.9472368" lon="11.1357609"><ele>60.33333333333333</ele><time>2026-04-26T10:18:30.097Z</time></trkpt><trkpt lat="42.9473102" lon="11.1356832"><ele>59.666666666666664</ele><time>2026-04-26T10:18:33.097Z</time></trkpt><trkpt lat="42.947387" lon="11.1356182"><ele>59.0</ele><time>2026-04-26T10:18:36.093Z</time></trkpt><trkpt lat="42.9474661" lon="11.1355896"><ele>58.33333333333333</ele><time>2026-04-26T10:18:39.096Z</time></trkpt><trkpt lat="42.9475353" lon="11.1355454"><ele>57.666666666666664</ele><time>2026-04-26T10:18:41.094Z</time></trkpt><trkpt lat="42.9475776" lon="11.1354467"><ele>57.0</ele><time>2026-04-26T10:18:43.095Z</time></trkpt><trkpt lat="42.9475203" lon="11.1352841"><ele>57.0</ele><time>2026-04-26T10:18:45.104Z</time></trkpt><trkpt lat="42.9474867" lon="11.1351906"><ele>57.0</ele><time>2026-04-26T10:18:46.095Z</time></trkpt><trkpt lat="42.9474751" lon="11.1350734"><ele>57.0</ele><time>2026-04-26T10:18:48.099Z</time></trkpt><trkpt lat="42.9474863" lon="11.1349744"><ele>57.0</ele><time>2026-04-26T10:18:51.102Z</time></trkpt><trkpt lat="42.9475358" lon="11.1348756"><ele>57.0</ele><time>2026-04-26T10:18:54.105Z</time></trkpt><trkpt lat="42.947561" lon="11.1347856"><ele>57.0</ele><time>2026-04-26T10:18:56.102Z</time></trkpt><trkpt lat="42.9475502" lon="11.1346955"><ele>56.6</ele><time>2026-04-26T10:24:51.099Z</time></trkpt><trkpt lat="42.9475825" lon="11.1345944"><ele>56.2</ele><time>2026-04-26T10:24:54.09Z</time></trkpt><trkpt lat="42.9476161" lon="11.1344663"><ele>55.8</ele><time>2026-04-26T10:24:56.103Z</time></trkpt><trkpt lat="42.9476518" lon="11.1343321"><ele>55.4</ele><time>2026-04-26T10:24:58.119Z</time></trkpt><trkpt lat="42.9476882" lon="11.1341687"><ele>55.0</ele><time>2026-04-26T10:25:00.102Z</time></trkpt><trkpt lat="42.9477101" lon="11.1340865"><ele>54.857142857142854</ele><time>2026-04-26T10:25:01.106Z</time></trkpt><trkpt lat="42.9477333" lon="11.134002"><ele>54.714285714285715</ele><time>2026-04-26T10:25:02.11Z</time></trkpt><trkpt lat="42.9477533" lon="11.1339103"><ele>54.57142857142857</ele><time>2026-04-26T10:25:03.104Z</time></trkpt><trkpt lat="42.9477732" lon="11.1338127"><ele>54.42857142857143</ele><time>2026-04-26T10:25:04.139Z</time></trkpt><trkpt lat="42.9477978" lon="11.1337169"><ele>54.285714285714285</ele><time>2026-04-26T10:25:05.099Z</time></trkpt><trkpt lat="42.9478228" lon="11.1336208"><ele>54.14285714285714</ele><time>2026-04-26T10:25:06.107Z</time></trkpt><trkpt lat="42.9478445" lon="11.1335148"><ele>54.0</ele><time>2026-04-26T10:25:07.111Z</time></trkpt><trkpt lat="42.9478687" lon="11.1334014"><ele>54.0</ele><time>2026-04-26T10:25:08.099Z</time></trkpt><trkpt lat="42.9478936" lon="11.1332904"><ele>54.0</ele><time>2026-04-26T10:25:09.147Z</time></trkpt><trkpt lat="42.9479187" lon="11.1331805"><ele>54.0</ele><time>2026-04-26T10:25:10.101Z</time></trkpt><trkpt lat="42.9479437" lon="11.1330671"><ele>54.0</ele><time>2026-04-26T10:25:11.111Z</time></trkpt><trkpt lat="42.9479708" lon="11.1329575"><ele>54.0</ele><time>2026-04-26T10:25:12.099Z</time></trkpt><trkpt lat="42.9479966" lon="11.132853"><ele>54.0</ele><time>2026-04-26T10:25:13.114Z</time></trkpt><trkpt lat="42.948025" lon="11.1327554"><ele>54.0</ele><time>2026-04-26T10:25:14.116Z</time></trkpt><trkpt lat="42.9480668" lon="11.1326757"><ele>54.0</ele><time>2026-04-26T10:25:15.138Z</time></trkpt><trkpt lat="42.9481274" lon="11.1326026"><ele>54.0</ele><time>2026-04-26T10:25:16.1Z</time></trkpt><trkpt lat="42.9482001" lon="11.1325349"><ele>54.0</ele><time>2026-04-26T10:25:17.108Z</time></trkpt><trkpt lat="42.9482775" lon="11.1324636"><ele>54.0</ele><time>2026-04-26T10:25:18.106Z</time></trkpt><trkpt lat="42.9483543" lon="11.1323881"><ele>54.0</ele><time>2026-04-26T10:25:19.111Z</time></trkpt><trkpt lat="42.9484247" lon="11.1323053"><ele>54.333333333333336</ele><time>2026-04-26T10:25:20.138Z</time></trkpt><trkpt lat="42.94849" lon="11.1322293"><ele>54.66666666666667</ele><time>2026-04-26T10:25:21.109Z</time></trkpt><trkpt lat="42.948547" lon="11.1321354"><ele>55.0</ele><time>2026-04-26T10:25:22.111Z</time></trkpt><trkpt lat="42.9485919" lon="11.1320297"><ele>55.333333333333336</ele><time>2026-04-26T10:25:23.104Z</time></trkpt><trkpt lat="42.9486281" lon="11.1319231"><ele>55.66666666666667</ele><time>2026-04-26T10:25:24.106Z</time></trkpt><trkpt lat="42.9486614" lon="11.1318187"><ele>56.0</ele><time>2026-04-26T10:25:25.102Z</time></trkpt><trkpt lat="42.9486984" lon="11.1317086"><ele>56.0</ele><time>2026-04-26T10:25:26.112Z</time></trkpt><trkpt lat="42.9487401" lon="11.1315937"><ele>55.99999999999999</ele><time>2026-04-26T10:25:27.11Z</time></trkpt><trkpt lat="42.9487833" lon="11.131474"><ele>55.99999999999999</ele><time>2026-04-26T10:25:28.113Z</time></trkpt><trkpt lat="42.9488223" lon="11.1313512"><ele>56.0</ele><time>2026-04-26T10:25:29.111Z</time></trkpt><trkpt lat="42.9488648" lon="11.1312361"><ele>56.0</ele><time>2026-04-26T10:25:30.106Z</time></trkpt><trkpt lat="42.9489042" lon="11.1311206"><ele>56.16666666666667</ele><time>2026-04-26T10:25:31.112Z</time></trkpt><trkpt lat="42.9489467" lon="11.1310056"><ele>56.333333333333336</ele><time>2026-04-26T10:25:32.147Z</time></trkpt><trkpt lat="42.9489857" lon="11.1308948"><ele>56.5</ele><time>2026-04-26T10:25:33.115Z</time></trkpt><trkpt lat="42.9490213" lon="11.1307822"><ele>56.66666666666667</ele><time>2026-04-26T10:25:34.114Z</time></trkpt><trkpt lat="42.9490576" lon="11.1306738"><ele>56.833333333333336</ele><time>2026-04-26T10:25:35.11Z</time></trkpt><trkpt lat="42.9490925" lon="11.1305743"><ele>57.0</ele><time>2026-04-26T10:25:36.104Z</time></trkpt><trkpt lat="42.9491256" lon="11.1304799"><ele>57.0</ele><time>2026-04-26T10:25:37.108Z</time></trkpt><trkpt lat="42.9491605" lon="11.1303837"><ele>57.0</ele><time>2026-04-26T10:25:38.111Z</time></trkpt><trkpt lat="42.9491954" lon="11.1302871"><ele>57.0</ele><time>2026-04-26T10:25:39.118Z</time></trkpt><trkpt lat="42.9492332" lon="11.1301835"><ele>57.0</ele><time>2026-04-26T10:25:40.114Z</time></trkpt><trkpt lat="42.9492653" lon="11.1300782"><ele>57.0</ele><time>2026-04-26T10:25:41.106Z</time></trkpt><trkpt lat="42.9492936" lon="11.1299737"><ele>57.0</ele><time>2026-04-26T10:25:42.103Z</time></trkpt><trkpt lat="42.9493273" lon="11.1298705"><ele>57.166666666666664</ele><time>2026-04-26T10:25:43.113Z</time></trkpt><trkpt lat="42.9493659" lon="11.1297748"><ele>57.33333333333333</ele><time>2026-04-26T10:25:44.11Z</time></trkpt><trkpt lat="42.9494015" lon="11.1296799"><ele>57.5</ele><time>2026-04-26T10:25:45.116Z</time></trkpt><trkpt lat="42.9494401" lon="11.1295873"><ele>57.666666666666664</ele><time>2026-04-26T10:25:46.11Z</time></trkpt><trkpt lat="42.9494773" lon="11.1294871"><ele>57.83333333333333</ele><time>2026-04-26T10:25:47.109Z</time></trkpt><trkpt lat="42.9495151" lon="11.1293893"><ele>58.0</ele><time>2026-04-26T10:25:48.107Z</time></trkpt><trkpt lat="42.9495457" lon="11.1292931"><ele>57.99999999999999</ele><time>2026-04-26T10:25:49.112Z</time></trkpt><trkpt lat="42.9495748" lon="11.1291936"><ele>58.0</ele><time>2026-04-26T10:25:50.111Z</time></trkpt><trkpt lat="42.9496035" lon="11.1290944"><ele>58.0</ele><time>2026-04-26T10:25:51.157Z</time></trkpt><trkpt lat="42.9496368" lon="11.1289905"><ele>58.0</ele><time>2026-04-26T10:25:52.116Z</time></trkpt><trkpt lat="42.9496742" lon="11.1288854"><ele>57.99999999999999</ele><time>2026-04-26T10:25:53.119Z</time></trkpt><trkpt lat="42.9497142" lon="11.1287807"><ele>58.0</ele><time>2026-04-26T10:25:54.122Z</time></trkpt><trkpt lat="42.949753" lon="11.1286778"><ele>57.99999999999999</ele><time>2026-04-26T10:25:55.113Z</time></trkpt><trkpt lat="42.9497962" lon="11.1285777"><ele>58.0</ele><time>2026-04-26T10:25:56.134Z</time></trkpt><trkpt lat="42.9498328" lon="11.1284718"><ele>58.0</ele><time>2026-04-26T10:25:57.108Z</time></trkpt><trkpt lat="42.9498714" lon="11.1283654"><ele>58.0</ele><time>2026-04-26T10:25:58.108Z</time></trkpt><trkpt lat="42.9499106" lon="11.1282581"><ele>57.99999999999999</ele><time>2026-04-26T10:25:59.105Z</time></trkpt><trkpt lat="42.9499485" lon="11.128148"><ele>58.0</ele><time>2026-04-26T10:26:00.107Z</time></trkpt><trkpt lat="42.9499883" lon="11.128039"><ele>58.0</ele><time>2026-04-26T10:26:01.111Z</time></trkpt><trkpt lat="42.9500276" lon="11.1279251"><ele>58.0</ele><time>2026-04-26T10:26:02.106Z</time></trkpt><trkpt lat="42.9500771" lon="11.1278115"><ele>58.0</ele><time>2026-04-26T10:26:03.159Z</time></trkpt><trkpt lat="42.9501204" lon="11.1276996"><ele>58.0</ele><time>2026-04-26T10:26:04.106Z</time></trkpt><trkpt lat="42.9501586" lon="11.1275858"><ele>58.0</ele><time>2026-04-26T10:26:05.109Z</time></trkpt><trkpt lat="42.9501983" lon="11.1274717"><ele>58.2</ele><time>2026-04-26T10:26:06.096Z</time></trkpt><trkpt lat="42.9502411" lon="11.1273597"><ele>58.4</ele><time>2026-04-26T10:26:07.107Z</time></trkpt><trkpt lat="42.9502835" lon="11.1272462"><ele>58.60000000000001</ele><time>2026-04-26T10:26:08.105Z</time></trkpt><trkpt lat="42.9503221" lon="11.1271325"><ele>58.800000000000004</ele><time>2026-04-26T10:26:09.11Z</time></trkpt><trkpt lat="42.9503595" lon="11.1270247"><ele>59.0</ele><time>2026-04-26T10:26:10.108Z</time></trkpt><trkpt lat="42.9503976" lon="11.1269117"><ele>59.00000000000001</ele><time>2026-04-26T10:26:11.106Z</time></trkpt><trkpt lat="42.9504315" lon="11.1268018"><ele>59.0</ele><time>2026-04-26T10:26:12.101Z</time></trkpt><trkpt lat="42.9504541" lon="11.1266903"><ele>59.0</ele><time>2026-04-26T10:26:13.099Z</time></trkpt><trkpt lat="42.9504648" lon="11.1265716"><ele>59.0</ele><time>2026-04-26T10:26:14.104Z</time></trkpt><trkpt lat="42.9504529" lon="11.1264526"><ele>59.00000000000001</ele><time>2026-04-26T10:26:15.103Z</time></trkpt><trkpt lat="42.9504328" lon="11.126335"><ele>59.0</ele><time>2026-04-26T10:26:16.117Z</time></trkpt><trkpt lat="42.9504147" lon="11.126217"><ele>59.0</ele><time>2026-04-26T10:26:17.113Z</time></trkpt><trkpt lat="42.950394" lon="11.1260935"><ele>59.00000000000001</ele><time>2026-04-26T10:26:18.108Z</time></trkpt><trkpt lat="42.9503745" lon="11.1259714"><ele>59.00000000000001</ele><time>2026-04-26T10:26:19.138Z</time></trkpt><trkpt lat="42.9503589" lon="11.1258336"><ele>59.0</ele><time>2026-04-26T10:26:20.109Z</time></trkpt><trkpt lat="42.9503383" lon="11.1256691"><ele>59.0</ele><time>2026-04-26T10:26:21.112Z</time></trkpt><trkpt lat="42.950314" lon="11.1254951"><ele>59.0</ele><time>2026-04-26T10:26:22.108Z</time></trkpt><trkpt lat="42.9502846" lon="11.1253068"><ele>59.0</ele><time>2026-04-26T10:26:23.103Z</time></trkpt><trkpt lat="42.9502645" lon="11.1250978"><ele>59.0</ele><time>2026-04-26T10:26:24.14Z</time></trkpt><trkpt lat="42.9502588" lon="11.1248634"><ele>59.333333333333336</ele><time>2026-04-26T10:26:25.109Z</time></trkpt><trkpt lat="42.9502655" lon="11.1246351"><ele>59.66666666666667</ele><time>2026-04-26T10:26:26.102Z</time></trkpt><trkpt lat="42.9502733" lon="11.124404"><ele>60.0</ele><time>2026-04-26T10:26:27.107Z</time></trkpt><trkpt lat="42.9502789" lon="11.1241844"><ele>60.33333333333333</ele><time>2026-04-26T10:26:28.107Z</time></trkpt><trkpt lat="42.9502863" lon="11.1239682"><ele>60.666666666666664</ele><time>2026-04-26T10:26:29.108Z</time></trkpt><trkpt lat="42.9502974" lon="11.1237531"><ele>61.0</ele><time>2026-04-26T10:26:30.11Z</time></trkpt><trkpt lat="42.9503001" lon="11.1235457"><ele>61.0</ele><time>2026-04-26T10:26:31.105Z</time></trkpt><trkpt lat="42.9503043" lon="11.1233491"><ele>61.0</ele><time>2026-04-26T10:26:32.119Z</time></trkpt><trkpt lat="42.9503054" lon="11.1231663"><ele>61.0</ele><time>2026-04-26T10:26:33.107Z</time></trkpt><trkpt lat="42.9503105" lon="11.1229946"><ele>61.0</ele><time>2026-04-26T10:26:34.105Z</time></trkpt><trkpt lat="42.9503107" lon="11.1228279"><ele>60.75</ele><time>2026-04-26T10:26:35.105Z</time></trkpt><trkpt lat="42.9503153" lon="11.1226571"><ele>60.5</ele><time>2026-04-26T10:26:36.108Z</time></trkpt><trkpt lat="42.9503195" lon="11.1224771"><ele>60.25</ele><time>2026-04-26T10:26:37.117Z</time></trkpt><trkpt lat="42.9503194" lon="11.1223032"><ele>60.0</ele><time>2026-04-26T10:26:38.11Z</time></trkpt><trkpt lat="42.9503228" lon="11.122131"><ele>59.75</ele><time>2026-04-26T10:26:39.107Z</time></trkpt><trkpt lat="42.9503271" lon="11.1219594"><ele>59.5</ele><time>2026-04-26T10:26:40.104Z</time></trkpt><trkpt lat="42.9503311" lon="11.1217925"><ele>59.25</ele><time>2026-04-26T10:26:41.107Z</time></trkpt><trkpt lat="42.9503399" lon="11.1216203"><ele>59.0</ele><time>2026-04-26T10:26:42.106Z</time></trkpt><trkpt lat="42.9503417" lon="11.1214428"><ele>59.0</ele><time>2026-04-26T10:26:43.111Z</time></trkpt><trkpt lat="42.9503443" lon="11.1212755"><ele>59.0</ele><time>2026-04-26T10:26:44.109Z</time></trkpt><trkpt lat="42.9503474" lon="11.1211029"><ele>59.0</ele><time>2026-04-26T10:26:45.11Z</time></trkpt><trkpt lat="42.9503548" lon="11.1209363"><ele>59.0</ele><time>2026-04-26T10:26:46.111Z</time></trkpt><trkpt lat="42.9503557" lon="11.1207635"><ele>59.25</ele><time>2026-04-26T10:26:47.109Z</time></trkpt><trkpt lat="42.9503566" lon="11.1205894"><ele>59.5</ele><time>2026-04-26T10:26:48.107Z</time></trkpt><trkpt lat="42.9503628" lon="11.1204097"><ele>59.75</ele><time>2026-04-26T10:26:49.106Z</time></trkpt><trkpt lat="42.9503704" lon="11.1202185"><ele>60.0</ele><time>2026-04-26T10:26:50.145Z</time></trkpt><trkpt lat="42.9503715" lon="11.1200252"><ele>59.75</ele><time>2026-04-26T10:26:51.103Z</time></trkpt><trkpt lat="42.9503701" lon="11.1198264"><ele>59.5</ele><time>2026-04-26T10:26:52.107Z</time></trkpt><trkpt lat="42.9503656" lon="11.1196276"><ele>59.25</ele><time>2026-04-26T10:26:53.105Z</time></trkpt><trkpt lat="42.9503646" lon="11.1194306"><ele>59.0</ele><time>2026-04-26T10:26:54.111Z</time></trkpt><trkpt lat="42.9503648" lon="11.1192317"><ele>58.75</ele><time>2026-04-26T10:26:55.115Z</time></trkpt><trkpt lat="42.9503675" lon="11.1190336"><ele>58.5</ele><time>2026-04-26T10:26:56.115Z</time></trkpt><trkpt lat="42.9503738" lon="11.1188365"><ele>58.25</ele><time>2026-04-26T10:26:57.108Z</time></trkpt><trkpt lat="42.9503784" lon="11.1186356"><ele>58.0</ele><time>2026-04-26T10:26:58.107Z</time></trkpt><trkpt lat="42.9503854" lon="11.1184327"><ele>58.0</ele><time>2026-04-26T10:26:59.108Z</time></trkpt><trkpt lat="42.9503907" lon="11.1182301"><ele>58.0</ele><time>2026-04-26T10:27:00.101Z</time></trkpt><trkpt lat="42.9503969" lon="11.1180345"><ele>58.0</ele><time>2026-04-26T10:27:01.127Z</time></trkpt><trkpt lat="42.9503972" lon="11.1178266"><ele>58.0</ele><time>2026-04-26T10:27:02.109Z</time></trkpt><trkpt lat="42.9504007" lon="11.1176238"><ele>58.0</ele><time>2026-04-26T10:27:03.108Z</time></trkpt><trkpt lat="42.950403" lon="11.1174227"><ele>58.0</ele><time>2026-04-26T10:27:04.106Z</time></trkpt><trkpt lat="42.9504055" lon="11.1172203"><ele>58.0</ele><time>2026-04-26T10:27:05.105Z</time></trkpt><trkpt lat="42.9504091" lon="11.1170235"><ele>58.0</ele><time>2026-04-26T10:27:06.125Z</time></trkpt><trkpt lat="42.9504122" lon="11.116824"><ele>58.0</ele><time>2026-04-26T10:27:07.116Z</time></trkpt><trkpt lat="42.950415" lon="11.1166291"><ele>58.0</ele><time>2026-04-26T10:27:08.103Z</time></trkpt><trkpt lat="42.9504182" lon="11.1164333"><ele>58.0</ele><time>2026-04-26T10:27:09.108Z</time></trkpt><trkpt lat="42.9504232" lon="11.1162375"><ele>58.0</ele><time>2026-04-26T10:27:10.11Z</time></trkpt><trkpt lat="42.9504297" lon="11.1160419"><ele>57.75</ele><time>2026-04-26T10:27:11.106Z</time></trkpt><trkpt lat="42.9504316" lon="11.1158459"><ele>57.5</ele><time>2026-04-26T10:27:12.105Z</time></trkpt><trkpt lat="42.9504328" lon="11.1156485"><ele>57.25</ele><time>2026-04-26T10:27:13.112Z</time></trkpt><trkpt lat="42.950434" lon="11.1154558"><ele>57.0</ele><time>2026-04-26T10:27:14.11Z</time></trkpt><trkpt lat="42.9504404" lon="11.1152646"><ele>57.0</ele><time>2026-04-26T10:27:15.111Z</time></trkpt><trkpt lat="42.9504477" lon="11.115072"><ele>57.0</ele><time>2026-04-26T10:27:16.105Z</time></trkpt><trkpt lat="42.9504522" lon="11.1148717"><ele>57.0</ele><time>2026-04-26T10:27:17.107Z</time></trkpt><trkpt lat="42.9504553" lon="11.114673"><ele>57.0</ele><time>2026-04-26T10:27:18.104Z</time></trkpt><trkpt lat="42.9504584" lon="11.1144742"><ele>57.5</ele><time>2026-04-26T10:27:19.121Z</time></trkpt><trkpt lat="42.9504631" lon="11.1142813"><ele>58.0</ele><time>2026-04-26T10:27:20.1Z</time></trkpt><trkpt lat="42.9504713" lon="11.1140822"><ele>58.5</ele><time>2026-04-26T10:27:21.099Z</time></trkpt><trkpt lat="42.95048" lon="11.1138885"><ele>59.0</ele><time>2026-04-26T10:27:22.108Z</time></trkpt><trkpt lat="42.9504862" lon="11.1136937"><ele>59.0</ele><time>2026-04-26T10:27:23.105Z</time></trkpt><trkpt lat="42.950489" lon="11.1134956"><ele>59.0</ele><time>2026-04-26T10:27:24.101Z</time></trkpt><trkpt lat="42.9504913" lon="11.1132997"><ele>59.0</ele><time>2026-04-26T10:27:25.115Z</time></trkpt><trkpt lat="42.9504989" lon="11.113106"><ele>59.0</ele><time>2026-04-26T10:27:26.106Z</time></trkpt><trkpt lat="42.9505089" lon="11.1129079"><ele>59.0</ele><time>2026-04-26T10:27:27.106Z</time></trkpt><trkpt lat="42.9505142" lon="11.112702"><ele>59.0</ele><time>2026-04-26T10:27:28.101Z</time></trkpt><trkpt lat="42.9505196" lon="11.1124869"><ele>59.0</ele><time>2026-04-26T10:27:29.105Z</time></trkpt><trkpt lat="42.9505211" lon="11.112278"><ele>59.0</ele><time>2026-04-26T10:27:30.106Z</time></trkpt><trkpt lat="42.9505193" lon="11.112064"><ele>59.0</ele><time>2026-04-26T10:27:31.103Z</time></trkpt><trkpt lat="42.9505219" lon="11.1118544"><ele>59.0</ele><time>2026-04-26T10:27:32.096Z</time></trkpt><trkpt lat="42.9505246" lon="11.1116502"><ele>59.0</ele><time>2026-04-26T10:27:33.13Z</time></trkpt><trkpt lat="42.9505279" lon="11.1114465"><ele>59.0</ele><time>2026-04-26T10:27:34.11Z</time></trkpt><trkpt lat="42.9505306" lon="11.111244"><ele>59.0</ele><time>2026-04-26T10:27:35.108Z</time></trkpt><trkpt lat="42.9505323" lon="11.1110424"><ele>59.0</ele><time>2026-04-26T10:27:36.102Z</time></trkpt><trkpt lat="42.9505329" lon="11.1108467"><ele>58.75</ele><time>2026-04-26T10:27:37.101Z</time></trkpt><trkpt lat="42.9505366" lon="11.1106544"><ele>58.5</ele><time>2026-04-26T10:27:38.104Z</time></trkpt><trkpt lat="42.9505383" lon="11.1104678"><ele>58.25</ele><time>2026-04-26T10:27:39.1Z</time></trkpt><trkpt lat="42.9505407" lon="11.1102854"><ele>58.0</ele><time>2026-04-26T10:27:40.107Z</time></trkpt><trkpt lat="42.9505473" lon="11.1101169"><ele>58.0</ele><time>2026-04-26T10:27:41.113Z</time></trkpt><trkpt lat="42.9505563" lon="11.1099616"><ele>58.0</ele><time>2026-04-26T10:27:42.125Z</time></trkpt><trkpt lat="42.9505588" lon="11.1098145"><ele>58.0</ele><time>2026-04-26T10:27:43.108Z</time></trkpt><trkpt lat="42.9505619" lon="11.1096851"><ele>58.0</ele><time>2026-04-26T10:27:44.103Z</time></trkpt><trkpt lat="42.9505715" lon="11.1095972"><ele>58.0</ele><time>2026-04-26T10:27:45.112Z</time></trkpt><trkpt lat="42.9506281" lon="11.109521"><ele>57.5</ele><time>2026-04-26T10:27:47.108Z</time></trkpt><trkpt lat="42.950773" lon="11.1095152"><ele>57.0</ele><time>2026-04-26T10:27:49.111Z</time></trkpt><trkpt lat="42.9508675" lon="11.1095296"><ele>56.5</ele><time>2026-04-26T10:27:50.111Z</time></trkpt><trkpt lat="42.950966" lon="11.1095475"><ele>56.0</ele><time>2026-04-26T10:27:51.107Z</time></trkpt><trkpt lat="42.9510794" lon="11.1095553"><ele>57.0</ele><time>2026-04-26T10:27:52.105Z</time></trkpt><trkpt lat="42.9512049" lon="11.1095645"><ele>58.0</ele><time>2026-04-26T10:27:53.102Z</time></trkpt><trkpt lat="42.9513387" lon="11.1095802"><ele>59.0</ele><time>2026-04-26T10:27:54.103Z</time></trkpt><trkpt lat="42.9514753" lon="11.1096052"><ele>60.0</ele><time>2026-04-26T10:27:55.149Z</time></trkpt><trkpt lat="42.9516191" lon="11.1096277"><ele>60.33333333333333</ele><time>2026-04-26T10:27:56.112Z</time></trkpt><trkpt lat="42.951777" lon="11.1096438"><ele>60.666666666666664</ele><time>2026-04-26T10:27:57.104Z</time></trkpt><trkpt lat="42.9519401" lon="11.1096634"><ele>61.0</ele><time>2026-04-26T10:27:58.098Z</time></trkpt><trkpt lat="42.9521074" lon="11.1096902"><ele>61.0</ele><time>2026-04-26T10:27:59.104Z</time></trkpt><trkpt lat="42.9522795" lon="11.1097257"><ele>61.0</ele><time>2026-04-26T10:28:00.108Z</time></trkpt><trkpt lat="42.952445" lon="11.1097552"><ele>61.0</ele><time>2026-04-26T10:28:01.109Z</time></trkpt><trkpt lat="42.9526045" lon="11.1097828"><ele>60.666666666666664</ele><time>2026-04-26T10:28:02.102Z</time></trkpt><trkpt lat="42.9527639" lon="11.1098119"><ele>60.33333333333333</ele><time>2026-04-26T10:28:03.139Z</time></trkpt><trkpt lat="42.9529174" lon="11.1098343"><ele>60.0</ele><time>2026-04-26T10:28:04.105Z</time></trkpt><trkpt lat="42.9530611" lon="11.109842"><ele>60.0</ele><time>2026-04-26T10:28:05.107Z</time></trkpt><trkpt lat="42.9532075" lon="11.1098345"><ele>60.0</ele><time>2026-04-26T10:28:06.106Z</time></trkpt><trkpt lat="42.9533522" lon="11.109832"><ele>60.0</ele><time>2026-04-26T10:28:07.107Z</time></trkpt><trkpt lat="42.9534934" lon="11.1098421"><ele>60.0</ele><time>2026-04-26T10:28:08.103Z</time></trkpt><trkpt lat="42.9536384" lon="11.109883"><ele>60.66666666666667</ele><time>2026-04-26T10:28:09.11Z</time></trkpt><trkpt lat="42.9537893" lon="11.1099507"><ele>61.333333333333336</ele><time>2026-04-26T10:28:10.106Z</time></trkpt><trkpt lat="42.9539327" lon="11.1100191"><ele>62.0</ele><time>2026-04-26T10:28:11.112Z</time></trkpt><trkpt lat="42.9540749" lon="11.1100931"><ele>62.0</ele><time>2026-04-26T10:28:12.107Z</time></trkpt><trkpt lat="42.9542175" lon="11.1101732"><ele>62.0</ele><time>2026-04-26T10:28:13.096Z</time></trkpt><trkpt lat="42.9543661" lon="11.1102505"><ele>62.0</ele><time>2026-04-26T10:28:14.121Z</time></trkpt><trkpt lat="42.9545186" lon="11.1103205"><ele>62.0</ele><time>2026-04-26T10:28:15.105Z</time></trkpt><trkpt lat="42.9546699" lon="11.1103944"><ele>62.0</ele><time>2026-04-26T10:28:16.108Z</time></trkpt><trkpt lat="42.9548234" lon="11.1104706"><ele>62.0</ele><time>2026-04-26T10:28:17.102Z</time></trkpt><trkpt lat="42.9549776" lon="11.1105473"><ele>62.0</ele><time>2026-04-26T10:28:18.106Z</time></trkpt><trkpt lat="42.9551325" lon="11.1106243"><ele>62.0</ele><time>2026-04-26T10:28:19.097Z</time></trkpt><trkpt lat="42.9552836" lon="11.1106995"><ele>62.0</ele><time>2026-04-26T10:28:20.112Z</time></trkpt><trkpt lat="42.9554358" lon="11.1107696"><ele>61.66666666666667</ele><time>2026-04-26T10:28:21.105Z</time></trkpt><trkpt lat="42.955591" lon="11.1108413"><ele>61.33333333333333</ele><time>2026-04-26T10:28:22.102Z</time></trkpt><trkpt lat="42.9557442" lon="11.1109161"><ele>61.0</ele><time>2026-04-26T10:28:23.121Z</time></trkpt><trkpt lat="42.9558976" lon="11.1109881"><ele>61.666666666666664</ele><time>2026-04-26T10:28:24.105Z</time></trkpt><trkpt lat="42.9560508" lon="11.1110607"><ele>62.33333333333333</ele><time>2026-04-26T10:28:25.104Z</time></trkpt><trkpt lat="42.9562031" lon="11.1111344"><ele>63.0</ele><time>2026-04-26T10:28:26.108Z</time></trkpt><trkpt lat="42.9563564" lon="11.1112083"><ele>63.0</ele><time>2026-04-26T10:28:27.106Z</time></trkpt><trkpt lat="42.9565139" lon="11.1112799"><ele>63.0</ele><time>2026-04-26T10:28:28.104Z</time></trkpt><trkpt lat="42.9566729" lon="11.1113536"><ele>63.0</ele><time>2026-04-26T10:28:29.102Z</time></trkpt><trkpt lat="42.9568297" lon="11.1114289"><ele>63.33333333333333</ele><time>2026-04-26T10:28:30.123Z</time></trkpt><trkpt lat="42.9569844" lon="11.1115096"><ele>63.666666666666664</ele><time>2026-04-26T10:28:31.103Z</time></trkpt><trkpt lat="42.9571421" lon="11.1115863"><ele>64.0</ele><time>2026-04-26T10:28:32.101Z</time></trkpt><trkpt lat="42.9572953" lon="11.1116665"><ele>64.33333333333333</ele><time>2026-04-26T10:28:33.104Z</time></trkpt><trkpt lat="42.9574516" lon="11.1117437"><ele>64.66666666666667</ele><time>2026-04-26T10:28:34.098Z</time></trkpt><trkpt lat="42.9576114" lon="11.1118217"><ele>65.0</ele><time>2026-04-26T10:28:35.101Z</time></trkpt><trkpt lat="42.9577731" lon="11.1118965"><ele>65.33333333333334</ele><time>2026-04-26T10:28:36.104Z</time></trkpt><trkpt lat="42.9579321" lon="11.1119762"><ele>65.66666666666667</ele><time>2026-04-26T10:28:37.124Z</time></trkpt><trkpt lat="42.9580895" lon="11.1120513"><ele>66.0</ele><time>2026-04-26T10:28:38.098Z</time></trkpt><trkpt lat="42.958245" lon="11.1121228"><ele>66.66666666666667</ele><time>2026-04-26T10:28:39.101Z</time></trkpt><trkpt lat="42.9584034" lon="11.1121956"><ele>67.33333333333334</ele><time>2026-04-26T10:28:40.109Z</time></trkpt><trkpt lat="42.9585546" lon="11.1122692"><ele>68.0</ele><time>2026-04-26T10:28:41.106Z</time></trkpt><trkpt lat="42.9587062" lon="11.1123471"><ele>68.33333333333334</ele><time>2026-04-26T10:28:42.158Z</time></trkpt><trkpt lat="42.9588585" lon="11.1124189"><ele>68.66666666666667</ele><time>2026-04-26T10:28:43.095Z</time></trkpt><trkpt lat="42.9590069" lon="11.1124972"><ele>69.0</ele><time>2026-04-26T10:28:44.099Z</time></trkpt><trkpt lat="42.9591559" lon="11.112574"><ele>69.33333333333333</ele><time>2026-04-26T10:28:45.107Z</time></trkpt><trkpt lat="42.9593061" lon="11.1126494"><ele>69.66666666666666</ele><time>2026-04-26T10:28:46.102Z</time></trkpt><trkpt lat="42.9594589" lon="11.1127198"><ele>70.0</ele><time>2026-04-26T10:28:47.103Z</time></trkpt><trkpt lat="42.959612" lon="11.1127952"><ele>70.0</ele><time>2026-04-26T10:28:48.109Z</time></trkpt><trkpt lat="42.959761" lon="11.1128714"><ele>70.0</ele><time>2026-04-26T10:28:49.106Z</time></trkpt><trkpt lat="42.959908" lon="11.1129447"><ele>70.0</ele><time>2026-04-26T10:28:50.154Z</time></trkpt><trkpt lat="42.9600595" lon="11.1130129"><ele>69.66666666666666</ele><time>2026-04-26T10:28:51.11Z</time></trkpt><trkpt lat="42.9602067" lon="11.1130897"><ele>69.33333333333333</ele><time>2026-04-26T10:28:52.106Z</time></trkpt><trkpt lat="42.9603512" lon="11.1131675"><ele>69.0</ele><time>2026-04-26T10:28:53.099Z</time></trkpt><trkpt lat="42.9605044" lon="11.1132528"><ele>68.66666666666667</ele><time>2026-04-26T10:28:54.102Z</time></trkpt><trkpt lat="42.9606579" lon="11.1133255"><ele>68.33333333333334</ele><time>2026-04-26T10:28:55.106Z</time></trkpt><trkpt lat="42.960813" lon="11.1133992"><ele>68.0</ele><time>2026-04-26T10:28:56.112Z</time></trkpt><trkpt lat="42.9609645" lon="11.1134714"><ele>68.5</ele><time>2026-04-26T10:28:57.108Z</time></trkpt><trkpt lat="42.9611096" lon="11.1135456"><ele>69.0</ele><time>2026-04-26T10:28:58.153Z</time></trkpt><trkpt lat="42.9612462" lon="11.1136048"><ele>69.5</ele><time>2026-04-26T10:28:59.107Z</time></trkpt><trkpt lat="42.9613742" lon="11.1136636"><ele>70.0</ele><time>2026-04-26T10:29:00.107Z</time></trkpt><trkpt lat="42.9614914" lon="11.1137254"><ele>70.0</ele><time>2026-04-26T10:29:01.108Z</time></trkpt><trkpt lat="42.9615988" lon="11.1137862"><ele>70.0</ele><time>2026-04-26T10:29:02.099Z</time></trkpt><trkpt lat="42.9617012" lon="11.1138267"><ele>70.0</ele><time>2026-04-26T10:29:03.121Z</time></trkpt><trkpt lat="42.9617715" lon="11.1138345"><ele>70.0</ele><time>2026-04-26T10:29:04.106Z</time></trkpt><trkpt lat="42.9618361" lon="11.1137184"><ele>70.0</ele><time>2026-04-26T10:29:06.099Z</time></trkpt><trkpt lat="42.9618379" lon="11.1136176"><ele>70.25</ele><time>2026-04-26T10:29:07.101Z</time></trkpt><trkpt lat="42.9618325" lon="11.1134946"><ele>70.5</ele><time>2026-04-26T10:29:08.096Z</time></trkpt><trkpt lat="42.9618301" lon="11.1133426"><ele>70.75</ele><time>2026-04-26T10:29:09.099Z</time></trkpt><trkpt lat="42.9618349" lon="11.1131774"><ele>71.0</ele><time>2026-04-26T10:29:10.11Z</time></trkpt><trkpt lat="42.9618378" lon="11.112991"><ele>71.0</ele><time>2026-04-26T10:29:11.103Z</time></trkpt><trkpt lat="42.961845" lon="11.112804"><ele>71.0</ele><time>2026-04-26T10:29:12.104Z</time></trkpt><trkpt lat="42.9618467" lon="11.1126117"><ele>71.0</ele><time>2026-04-26T10:29:13.107Z</time></trkpt><trkpt lat="42.9618485" lon="11.1124084"><ele>71.0</ele><time>2026-04-26T10:29:14.137Z</time></trkpt><trkpt lat="42.9618536" lon="11.1121925"><ele>71.0</ele><time>2026-04-26T10:29:15.11Z</time></trkpt><trkpt lat="42.9618569" lon="11.1119732"><ele>71.0</ele><time>2026-04-26T10:29:16.096Z</time></trkpt><trkpt lat="42.9618591" lon="11.1117506"><ele>71.0</ele><time>2026-04-26T10:29:17.141Z</time></trkpt><trkpt lat="42.9618642" lon="11.1115368"><ele>71.0</ele><time>2026-04-26T10:29:18.1Z</time></trkpt><trkpt lat="42.9618684" lon="11.1113193"><ele>71.0</ele><time>2026-04-26T10:29:19.106Z</time></trkpt><trkpt lat="42.9618725" lon="11.1111018"><ele>71.0</ele><time>2026-04-26T10:29:20.098Z</time></trkpt><trkpt lat="42.961876" lon="11.1108814"><ele>70.33333333333334</ele><time>2026-04-26T10:29:21.093Z</time></trkpt><trkpt lat="42.961883" lon="11.1106677"><ele>69.66666666666667</ele><time>2026-04-26T10:29:22.1Z</time></trkpt><trkpt lat="42.961886" lon="11.1104598"><ele>69.0</ele><time>2026-04-26T10:29:23.101Z</time></trkpt><trkpt lat="42.9618925" lon="11.1102587"><ele>69.0</ele><time>2026-04-26T10:29:24.1Z</time></trkpt><trkpt lat="42.9618945" lon="11.1100645"><ele>69.0</ele><time>2026-04-26T10:29:25.1Z</time></trkpt><trkpt lat="42.961896" lon="11.10988"><ele>69.0</ele><time>2026-04-26T10:29:26.16Z</time></trkpt><trkpt lat="42.9618944" lon="11.1097118"><ele>69.0</ele><time>2026-04-26T10:29:27.096Z</time></trkpt><trkpt lat="42.9618983" lon="11.1095606"><ele>68.8</ele><time>2026-04-26T10:29:28.102Z</time></trkpt><trkpt lat="42.9619164" lon="11.1094146"><ele>68.60000000000001</ele><time>2026-04-26T10:29:29.097Z</time></trkpt><trkpt lat="42.9619568" lon="11.1092767"><ele>68.4</ele><time>2026-04-26T10:29:30.1Z</time></trkpt><trkpt lat="42.9620101" lon="11.1091553"><ele>68.2</ele><time>2026-04-26T10:29:31.092Z</time></trkpt><trkpt lat="42.9620538" lon="11.1090611"><ele>68.0</ele><time>2026-04-26T10:29:32.101Z</time></trkpt><trkpt lat="42.9621605" lon="11.1089834"><ele>68.0</ele><time>2026-04-26T10:29:34.102Z</time></trkpt><trkpt lat="42.9622334" lon="11.1090209"><ele>68.0</ele><time>2026-04-26T10:29:35.094Z</time></trkpt><trkpt lat="42.9623107" lon="11.1090859"><ele>68.0</ele><time>2026-04-26T10:29:36.095Z</time></trkpt><trkpt lat="42.9623942" lon="11.1091575"><ele>68.0</ele><time>2026-04-26T10:29:37.098Z</time></trkpt><trkpt lat="42.9624909" lon="11.1092093"><ele>68.0</ele><time>2026-04-26T10:29:38.094Z</time></trkpt><trkpt lat="42.9625982" lon="11.1092373"><ele>68.4</ele><time>2026-04-26T10:29:39.102Z</time></trkpt><trkpt lat="42.9627069" lon="11.1092282"><ele>68.8</ele><time>2026-04-26T10:29:40.096Z</time></trkpt><trkpt lat="42.9628085" lon="11.1091741"><ele>69.2</ele><time>2026-04-26T10:29:41.131Z</time></trkpt><trkpt lat="42.9628865" lon="11.1090725"><ele>69.6</ele><time>2026-04-26T10:29:42.106Z</time></trkpt><trkpt lat="42.9629668" lon="11.108962"><ele>70.0</ele><time>2026-04-26T10:29:43.104Z</time></trkpt><trkpt lat="42.9630481" lon="11.1088572"><ele>71.0</ele><time>2026-04-26T10:29:44.101Z</time></trkpt><trkpt lat="42.963143" lon="11.1087861"><ele>72.0</ele><time>2026-04-26T10:29:45.101Z</time></trkpt><trkpt lat="42.9632389" lon="11.1087265"><ele>73.0</ele><time>2026-04-26T10:29:46.096Z</time></trkpt><trkpt lat="42.9633191" lon="11.1086278"><ele>74.0</ele><time>2026-04-26T10:29:47.1Z</time></trkpt><trkpt lat="42.9633826" lon="11.1085152"><ele>75.0</ele><time>2026-04-26T10:29:48.098Z</time></trkpt><trkpt lat="42.9634372" lon="11.1084137"><ele>75.0</ele><time>2026-04-26T10:29:49.103Z</time></trkpt><trkpt lat="42.9634823" lon="11.1083242"><ele>75.0</ele><time>2026-04-26T10:29:50.1Z</time></trkpt><trkpt lat="42.9635314" lon="11.108245"><ele>75.0</ele><time>2026-04-26T10:29:51.132Z</time></trkpt><trkpt lat="42.9635953" lon="11.1081717"><ele>75.0</ele><time>2026-04-26T10:29:52.097Z</time></trkpt><trkpt lat="42.963677" lon="11.1080985"><ele>75.0</ele><time>2026-04-26T10:29:53.098Z</time></trkpt><trkpt lat="42.9637763" lon="11.1080203"><ele>74.75</ele><time>2026-04-26T10:29:54.107Z</time></trkpt><trkpt lat="42.9638794" lon="11.1079387"><ele>74.5</ele><time>2026-04-26T10:29:55.103Z</time></trkpt><trkpt lat="42.9639887" lon="11.1078555"><ele>74.25</ele><time>2026-04-26T10:29:56.139Z</time></trkpt><trkpt lat="42.9641005" lon="11.1077626"><ele>74.0</ele><time>2026-04-26T10:29:57.099Z</time></trkpt><trkpt lat="42.964215" lon="11.1076727"><ele>74.75</ele><time>2026-04-26T10:29:58.098Z</time></trkpt><trkpt lat="42.9643337" lon="11.1075833"><ele>75.5</ele><time>2026-04-26T10:29:59.097Z</time></trkpt><trkpt lat="42.9644546" lon="11.10749"><ele>76.25</ele><time>2026-04-26T10:30:00.105Z</time></trkpt><trkpt lat="42.9645777" lon="11.1074041"><ele>77.0</ele><time>2026-04-26T10:30:01.096Z</time></trkpt><trkpt lat="42.9646993" lon="11.1073139"><ele>77.25</ele><time>2026-04-26T10:30:02.101Z</time></trkpt><trkpt lat="42.9648207" lon="11.1072191"><ele>77.5</ele><time>2026-04-26T10:30:03.164Z</time></trkpt><trkpt lat="42.9649391" lon="11.1071199"><ele>77.75</ele><time>2026-04-26T10:30:04.101Z</time></trkpt><trkpt lat="42.9650627" lon="11.1070168"><ele>78.0</ele><time>2026-04-26T10:30:05.098Z</time></trkpt><trkpt lat="42.9651902" lon="11.1069175"><ele>78.33333333333333</ele><time>2026-04-26T10:30:06.099Z</time></trkpt><trkpt lat="42.9653189" lon="11.1068157"><ele>78.66666666666666</ele><time>2026-04-26T10:30:07.091Z</time></trkpt><trkpt lat="42.9654537" lon="11.1067091"><ele>79.0</ele><time>2026-04-26T10:30:08.122Z</time></trkpt><trkpt lat="42.9655842" lon="11.1066067"><ele>79.5</ele><time>2026-04-26T10:30:09.097Z</time></trkpt><trkpt lat="42.9657153" lon="11.1065039"><ele>80.0</ele><time>2026-04-26T10:30:10.093Z</time></trkpt><trkpt lat="42.9658423" lon="11.1064032"><ele>80.5</ele><time>2026-04-26T10:30:11.092Z</time></trkpt><trkpt lat="42.9659701" lon="11.1063092"><ele>81.0</ele><time>2026-04-26T10:30:12.097Z</time></trkpt><trkpt lat="42.9660959" lon="11.1062138"><ele>81.25</ele><time>2026-04-26T10:30:13.119Z</time></trkpt><trkpt lat="42.9662189" lon="11.1061188"><ele>81.5</ele><time>2026-04-26T10:30:14.092Z</time></trkpt><trkpt lat="42.9663496" lon="11.1060222"><ele>81.75</ele><time>2026-04-26T10:30:15.096Z</time></trkpt><trkpt lat="42.9664801" lon="11.1059234"><ele>82.0</ele><time>2026-04-26T10:30:16.1Z</time></trkpt><trkpt lat="42.9666044" lon="11.105827"><ele>82.0</ele><time>2026-04-26T10:30:17.099Z</time></trkpt><trkpt lat="42.9667267" lon="11.1057298"><ele>82.0</ele><time>2026-04-26T10:30:18.104Z</time></trkpt><trkpt lat="42.966855" lon="11.1056326"><ele>82.0</ele><time>2026-04-26T10:30:19.124Z</time></trkpt><trkpt lat="42.9669815" lon="11.1055304"><ele>82.0</ele><time>2026-04-26T10:30:20.099Z</time></trkpt><trkpt lat="42.9671076" lon="11.1054358"><ele>82.0</ele><time>2026-04-26T10:30:21.101Z</time></trkpt><trkpt lat="42.9672322" lon="11.1053417"><ele>82.0</ele><time>2026-04-26T10:30:22.101Z</time></trkpt><trkpt lat="42.9673533" lon="11.1052514"><ele>82.0</ele><time>2026-04-26T10:30:23.1Z</time></trkpt><trkpt lat="42.9674761" lon="11.1051665"><ele>82.0</ele><time>2026-04-26T10:30:24.149Z</time></trkpt><trkpt lat="42.9676008" lon="11.1050711"><ele>82.0</ele><time>2026-04-26T10:30:25.103Z</time></trkpt><trkpt lat="42.9677285" lon="11.1049709"><ele>82.0</ele><time>2026-04-26T10:30:26.098Z</time></trkpt><trkpt lat="42.9678568" lon="11.1048719"><ele>82.0</ele><time>2026-04-26T10:30:27.098Z</time></trkpt><trkpt lat="42.9679877" lon="11.1047718"><ele>82.0</ele><time>2026-04-26T10:30:28.101Z</time></trkpt><trkpt lat="42.9681204" lon="11.1046764"><ele>82.33333333333333</ele><time>2026-04-26T10:30:29.101Z</time></trkpt><trkpt lat="42.9682573" lon="11.1045814"><ele>82.66666666666667</ele><time>2026-04-26T10:30:30.105Z</time></trkpt><trkpt lat="42.9683981" lon="11.1044738"><ele>83.0</ele><time>2026-04-26T10:30:31.141Z</time></trkpt><trkpt lat="42.9685395" lon="11.1043649"><ele>83.0</ele><time>2026-04-26T10:30:32.096Z</time></trkpt><trkpt lat="42.96868" lon="11.1042593"><ele>83.0</ele><time>2026-04-26T10:30:33.1Z</time></trkpt><trkpt lat="42.9688214" lon="11.10416"><ele>83.0</ele><time>2026-04-26T10:30:34.094Z</time></trkpt><trkpt lat="42.9689635" lon="11.1040792"><ele>82.66666666666667</ele><time>2026-04-26T10:30:35.102Z</time></trkpt><trkpt lat="42.9691105" lon="11.1040081"><ele>82.33333333333333</ele><time>2026-04-26T10:30:36.099Z</time></trkpt><trkpt lat="42.9692556" lon="11.1039518"><ele>82.0</ele><time>2026-04-26T10:30:37.098Z</time></trkpt><trkpt lat="42.9693937" lon="11.1038927"><ele>82.75</ele><time>2026-04-26T10:30:38.142Z</time></trkpt><trkpt lat="42.9695309" lon="11.1038389"><ele>83.5</ele><time>2026-04-26T10:30:39.098Z</time></trkpt><trkpt lat="42.9696692" lon="11.1037837"><ele>84.25</ele><time>2026-04-26T10:30:40.101Z</time></trkpt><trkpt lat="42.9698052" lon="11.1037262"><ele>85.0</ele><time>2026-04-26T10:30:41.093Z</time></trkpt><trkpt lat="42.9699425" lon="11.1036747"><ele>85.0</ele><time>2026-04-26T10:30:42.097Z</time></trkpt><trkpt lat="42.9700786" lon="11.1036272"><ele>85.0</ele><time>2026-04-26T10:30:43.096Z</time></trkpt><trkpt lat="42.9702131" lon="11.103566"><ele>85.0</ele><time>2026-04-26T10:30:44.101Z</time></trkpt><trkpt lat="42.970348" lon="11.1035101"><ele>85.0</ele><time>2026-04-26T10:30:45.095Z</time></trkpt><trkpt lat="42.9704822" lon="11.1034577"><ele>85.0</ele><time>2026-04-26T10:30:46.095Z</time></trkpt><trkpt lat="42.9706152" lon="11.1034036"><ele>85.0</ele><time>2026-04-26T10:30:47.109Z</time></trkpt><trkpt lat="42.9707514" lon="11.1033479"><ele>85.0</ele><time>2026-04-26T10:30:48.096Z</time></trkpt><trkpt lat="42.9708887" lon="11.1032887"><ele>85.0</ele><time>2026-04-26T10:30:49.093Z</time></trkpt><trkpt lat="42.9710237" lon="11.1032334"><ele>84.25</ele><time>2026-04-26T10:30:50.094Z</time></trkpt><trkpt lat="42.9711611" lon="11.1031789"><ele>83.5</ele><time>2026-04-26T10:30:51.112Z</time></trkpt><trkpt lat="42.9712947" lon="11.103129"><ele>82.75</ele><time>2026-04-26T10:30:52.132Z</time></trkpt><trkpt lat="42.9714295" lon="11.1030776"><ele>82.0</ele><time>2026-04-26T10:30:53.135Z</time></trkpt><trkpt lat="42.9715611" lon="11.1030306"><ele>82.0</ele><time>2026-04-26T10:30:54.15Z</time></trkpt><trkpt lat="42.9716846" lon="11.1029854"><ele>82.0</ele><time>2026-04-26T10:30:55.15Z</time></trkpt><trkpt lat="42.9718019" lon="11.1029371"><ele>82.0</ele><time>2026-04-26T10:30:56.145Z</time></trkpt><trkpt lat="42.9719181" lon="11.1028826"><ele>82.0</ele><time>2026-04-26T10:30:57.135Z</time></trkpt><trkpt lat="42.9720377" lon="11.102824"><ele>82.39999999999999</ele><time>2026-04-26T10:30:58.145Z</time></trkpt><trkpt lat="42.9721478" lon="11.1027555"><ele>82.8</ele><time>2026-04-26T10:30:59.133Z</time></trkpt><trkpt lat="42.9722414" lon="11.1026738"><ele>83.2</ele><time>2026-04-26T10:31:00.104Z</time></trkpt><trkpt lat="42.9723215" lon="11.1025735"><ele>83.6</ele><time>2026-04-26T10:31:01.125Z</time></trkpt><trkpt lat="42.9723878" lon="11.1024661"><ele>84.0</ele><time>2026-04-26T10:31:02.154Z</time></trkpt><trkpt lat="42.9724523" lon="11.1023422"><ele>83.0</ele><time>2026-04-26T10:31:03.133Z</time></trkpt><trkpt lat="42.9725198" lon="11.1022088"><ele>82.0</ele><time>2026-04-26T10:31:04.152Z</time></trkpt><trkpt lat="42.9725818" lon="11.10207"><ele>81.0</ele><time>2026-04-26T10:31:05.146Z</time></trkpt><trkpt lat="42.9726337" lon="11.1019154"><ele>80.0</ele><time>2026-04-26T10:31:06.138Z</time></trkpt><trkpt lat="42.9726775" lon="11.1017536"><ele>79.75</ele><time>2026-04-26T10:31:07.133Z</time></trkpt><trkpt lat="42.9727151" lon="11.1015899"><ele>79.5</ele><time>2026-04-26T10:31:08.162Z</time></trkpt><trkpt lat="42.9727491" lon="11.1014209"><ele>79.25</ele><time>2026-04-26T10:31:09.153Z</time></trkpt><trkpt lat="42.9727796" lon="11.1012574"><ele>79.0</ele><time>2026-04-26T10:31:10.146Z</time></trkpt><trkpt lat="42.9728016" lon="11.1010833"><ele>78.0</ele><time>2026-04-26T10:31:11.136Z</time></trkpt><trkpt lat="42.9728189" lon="11.1009124"><ele>77.0</ele><time>2026-04-26T10:31:12.143Z</time></trkpt><trkpt lat="42.972832" lon="11.1007441"><ele>76.0</ele><time>2026-04-26T10:31:13.136Z</time></trkpt><trkpt lat="42.9728559" lon="11.1005744"><ele>75.0</ele><time>2026-04-26T10:31:14.124Z</time></trkpt><trkpt lat="42.9729019" lon="11.1004097"><ele>74.75</ele><time>2026-04-26T10:31:15.139Z</time></trkpt><trkpt lat="42.9729713" lon="11.1002816"><ele>74.5</ele><time>2026-04-26T10:31:16.153Z</time></trkpt><trkpt lat="42.9730598" lon="11.10017"><ele>74.25</ele><time>2026-04-26T10:31:17.142Z</time></trkpt><trkpt lat="42.9731603" lon="11.1000718"><ele>74.0</ele><time>2026-04-26T10:31:18.154Z</time></trkpt><trkpt lat="42.9732645" lon="11.0999638"><ele>74.75</ele><time>2026-04-26T10:31:19.134Z</time></trkpt><trkpt lat="42.9733703" lon="11.099852"><ele>75.5</ele><time>2026-04-26T10:31:20.145Z</time></trkpt><trkpt lat="42.9734866" lon="11.0997484"><ele>76.25</ele><time>2026-04-26T10:31:21.103Z</time></trkpt><trkpt lat="42.9736138" lon="11.0996688"><ele>77.0</ele><time>2026-04-26T10:31:22.158Z</time></trkpt><trkpt lat="42.9737481" lon="11.0995947"><ele>77.0</ele><time>2026-04-26T10:31:23.144Z</time></trkpt><trkpt lat="42.9738809" lon="11.099507"><ele>77.0</ele><time>2026-04-26T10:31:24.138Z</time></trkpt><trkpt lat="42.9740114" lon="11.0994268"><ele>77.0</ele><time>2026-04-26T10:31:25.157Z</time></trkpt><trkpt lat="42.9741347" lon="11.0993388"><ele>77.0</ele><time>2026-04-26T10:31:26.096Z</time></trkpt><trkpt lat="42.9742626" lon="11.0992531"><ele>77.0</ele><time>2026-04-26T10:31:27.143Z</time></trkpt><trkpt lat="42.9743838" lon="11.0991433"><ele>77.0</ele><time>2026-04-26T10:31:28.155Z</time></trkpt><trkpt lat="42.974506" lon="11.0990242"><ele>77.0</ele><time>2026-04-26T10:31:29.162Z</time></trkpt><trkpt lat="42.9746263" lon="11.098903"><ele>77.0</ele><time>2026-04-26T10:31:30.147Z</time></trkpt><trkpt lat="42.9747469" lon="11.0987864"><ele>77.0</ele><time>2026-04-26T10:31:31.151Z</time></trkpt><trkpt lat="42.9748692" lon="11.0986716"><ele>77.0</ele><time>2026-04-26T10:31:32.112Z</time></trkpt><trkpt lat="42.9749948" lon="11.098554"><ele>77.0</ele><time>2026-04-26T10:31:33.153Z</time></trkpt><trkpt lat="42.9751172" lon="11.0984262"><ele>77.66666666666667</ele><time>2026-04-26T10:31:34.137Z</time></trkpt><trkpt lat="42.9752433" lon="11.0983052"><ele>78.33333333333333</ele><time>2026-04-26T10:31:35.156Z</time></trkpt><trkpt lat="42.9753691" lon="11.0981883"><ele>79.0</ele><time>2026-04-26T10:31:36.112Z</time></trkpt><trkpt lat="42.9754953" lon="11.0980721"><ele>79.25</ele><time>2026-04-26T10:31:37.143Z</time></trkpt><trkpt lat="42.9756184" lon="11.0979568"><ele>79.5</ele><time>2026-04-26T10:31:38.153Z</time></trkpt><trkpt lat="42.9757386" lon="11.0978401"><ele>79.75</ele><time>2026-04-26T10:31:39.145Z</time></trkpt><trkpt lat="42.9758596" lon="11.0977208"><ele>80.0</ele><time>2026-04-26T10:31:40.15Z</time></trkpt><trkpt lat="42.9759826" lon="11.0976073"><ele>80.25</ele><time>2026-04-26T10:31:41.148Z</time></trkpt><trkpt lat="42.9761028" lon="11.0974959"><ele>80.5</ele><time>2026-04-26T10:31:42.138Z</time></trkpt><trkpt lat="42.9762218" lon="11.0973795"><ele>80.75</ele><time>2026-04-26T10:31:43.151Z</time></trkpt><trkpt lat="42.9763432" lon="11.0972619"><ele>81.0</ele><time>2026-04-26T10:31:44.138Z</time></trkpt><trkpt lat="42.9764672" lon="11.0971505"><ele>81.5</ele><time>2026-04-26T10:31:45.153Z</time></trkpt><trkpt lat="42.9765906" lon="11.0970382"><ele>82.0</ele><time>2026-04-26T10:31:46.139Z</time></trkpt><trkpt lat="42.9767126" lon="11.0969182"><ele>82.5</ele><time>2026-04-26T10:31:47.135Z</time></trkpt><trkpt lat="42.9768314" lon="11.0968049"><ele>83.0</ele><time>2026-04-26T10:31:48.151Z</time></trkpt><trkpt lat="42.9769488" lon="11.0966907"><ele>83.0</ele><time>2026-04-26T10:31:49.162Z</time></trkpt><trkpt lat="42.9770648" lon="11.096577"><ele>83.0</ele><time>2026-04-26T10:31:50.15Z</time></trkpt><trkpt lat="42.9771838" lon="11.0964638"><ele>83.0</ele><time>2026-04-26T10:31:51.145Z</time></trkpt><trkpt lat="42.977304" lon="11.0963469"><ele>83.0</ele><time>2026-04-26T10:31:52.115Z</time></trkpt><trkpt lat="42.9774266" lon="11.09623"><ele>83.0</ele><time>2026-04-26T10:31:53.155Z</time></trkpt><trkpt lat="42.9775493" lon="11.0961117"><ele>83.0</ele><time>2026-04-26T10:31:54.167Z</time></trkpt><trkpt lat="42.9776711" lon="11.0959931"><ele>83.0</ele><time>2026-04-26T10:31:55.163Z</time></trkpt><trkpt lat="42.9777921" lon="11.0958819"><ele>83.0</ele><time>2026-04-26T10:31:56.11Z</time></trkpt><trkpt lat="42.977911" lon="11.0957755"><ele>83.25</ele><time>2026-04-26T10:31:57.157Z</time></trkpt><trkpt lat="42.978027" lon="11.0956644"><ele>83.5</ele><time>2026-04-26T10:31:58.159Z</time></trkpt><trkpt lat="42.9781449" lon="11.0955604"><ele>83.75</ele><time>2026-04-26T10:31:59.104Z</time></trkpt><trkpt lat="42.978262" lon="11.0954568"><ele>84.0</ele><time>2026-04-26T10:32:00.159Z</time></trkpt><trkpt lat="42.9783758" lon="11.0953607"><ele>84.25</ele><time>2026-04-26T10:32:01.162Z</time></trkpt><trkpt lat="42.978489" lon="11.0952586"><ele>84.5</ele><time>2026-04-26T10:32:02.152Z</time></trkpt><trkpt lat="42.9785979" lon="11.0951613"><ele>84.75</ele><time>2026-04-26T10:32:03.145Z</time></trkpt><trkpt lat="42.978709" lon="11.0950547"><ele>85.0</ele><time>2026-04-26T10:32:04.147Z</time></trkpt><trkpt lat="42.978819" lon="11.094956"><ele>85.25</ele><time>2026-04-26T10:32:05.157Z</time></trkpt><trkpt lat="42.978931" lon="11.094863"><ele>85.5</ele><time>2026-04-26T10:32:06.136Z</time></trkpt><trkpt lat="42.9790401" lon="11.0947767"><ele>85.75</ele><time>2026-04-26T10:32:07.147Z</time></trkpt><trkpt lat="42.979141" lon="11.0946969"><ele>86.0</ele><time>2026-04-26T10:32:08.149Z</time></trkpt><trkpt lat="42.9792313" lon="11.0946126"><ele>86.19999999999999</ele><time>2026-04-26T10:32:09.149Z</time></trkpt><trkpt lat="42.9793158" lon="11.0945374"><ele>86.39999999999999</ele><time>2026-04-26T10:32:10.159Z</time></trkpt><trkpt lat="42.979396" lon="11.0944766"><ele>86.6</ele><time>2026-04-26T10:32:11.124Z</time></trkpt><trkpt lat="42.979459" lon="11.0944439"><ele>86.8</ele><time>2026-04-26T10:32:12.15Z</time></trkpt><trkpt lat="42.979585" lon="11.0943985"><ele>87.0</ele><time>2026-04-26T10:32:14.15Z</time></trkpt><trkpt lat="42.979667" lon="11.0944122"><ele>87.0</ele><time>2026-04-26T10:32:15.14Z</time></trkpt><trkpt lat="42.9797564" lon="11.0944414"><ele>87.0</ele><time>2026-04-26T10:32:16.164Z</time></trkpt><trkpt lat="42.9798583" lon="11.094478"><ele>87.0</ele><time>2026-04-26T10:32:17.158Z</time></trkpt><trkpt lat="42.9799728" lon="11.0944935"><ele>87.0</ele><time>2026-04-26T10:32:18.157Z</time></trkpt><trkpt lat="42.9800897" lon="11.0944934"><ele>87.0</ele><time>2026-04-26T10:32:19.158Z</time></trkpt><trkpt lat="42.9802074" lon="11.0944864"><ele>87.25</ele><time>2026-04-26T10:32:20.149Z</time></trkpt><trkpt lat="42.9803265" lon="11.0944746"><ele>87.5</ele><time>2026-04-26T10:32:21.141Z</time></trkpt><trkpt lat="42.9804528" lon="11.0944615"><ele>87.75</ele><time>2026-04-26T10:32:22.155Z</time></trkpt><trkpt lat="42.980579" lon="11.0944446"><ele>88.0</ele><time>2026-04-26T10:32:23.119Z</time></trkpt><trkpt lat="42.9807047" lon="11.0944179"><ele>88.0</ele><time>2026-04-26T10:32:24.148Z</time></trkpt><trkpt lat="42.9808338" lon="11.0943805"><ele>88.0</ele><time>2026-04-26T10:32:25.151Z</time></trkpt><trkpt lat="42.9809622" lon="11.0943377"><ele>88.0</ele><time>2026-04-26T10:32:26.136Z</time></trkpt><trkpt lat="42.9810897" lon="11.094295"><ele>88.0</ele><time>2026-04-26T10:32:27.158Z</time></trkpt><trkpt lat="42.9812176" lon="11.0942544"><ele>88.5</ele><time>2026-04-26T10:32:28.15Z</time></trkpt><trkpt lat="42.9813483" lon="11.0942424"><ele>89.0</ele><time>2026-04-26T10:32:29.162Z</time></trkpt><trkpt lat="42.9814779" lon="11.0942679"><ele>89.5</ele><time>2026-04-26T10:32:30.156Z</time></trkpt><trkpt lat="42.9816033" lon="11.0943212"><ele>90.0</ele><time>2026-04-26T10:32:31.147Z</time></trkpt><trkpt lat="42.981722" lon="11.0943929"><ele>90.5</ele><time>2026-04-26T10:32:32.153Z</time></trkpt><trkpt lat="42.9818294" lon="11.0944797"><ele>91.0</ele><time>2026-04-26T10:32:33.144Z</time></trkpt><trkpt lat="42.9819394" lon="11.0945665"><ele>91.5</ele><time>2026-04-26T10:32:34.151Z</time></trkpt><trkpt lat="42.9820487" lon="11.0946321"><ele>92.0</ele><time>2026-04-26T10:32:35.166Z</time></trkpt><trkpt lat="42.9821613" lon="11.094652"><ele>92.0</ele><time>2026-04-26T10:32:36.138Z</time></trkpt><trkpt lat="42.9822707" lon="11.0946247"><ele>92.0</ele><time>2026-04-26T10:32:37.139Z</time></trkpt><trkpt lat="42.9823758" lon="11.0945671"><ele>92.0</ele><time>2026-04-26T10:32:38.151Z</time></trkpt><trkpt lat="42.9824582" lon="11.094453"><ele>92.0</ele><time>2026-04-26T10:32:39.152Z</time></trkpt><trkpt lat="42.982522" lon="11.0943175"><ele>92.25</ele><time>2026-04-26T10:32:40.125Z</time></trkpt><trkpt lat="42.9825577" lon="11.0941632"><ele>92.5</ele><time>2026-04-26T10:32:41.154Z</time></trkpt><trkpt lat="42.9825866" lon="11.0939904"><ele>92.75</ele><time>2026-04-26T10:32:42.146Z</time></trkpt><trkpt lat="42.9826181" lon="11.0938139"><ele>93.0</ele><time>2026-04-26T10:32:43.151Z</time></trkpt><trkpt lat="42.9826416" lon="11.0936268"><ele>93.0</ele><time>2026-04-26T10:32:44.161Z</time></trkpt><trkpt lat="42.9826718" lon="11.0934271"><ele>93.0</ele><time>2026-04-26T10:32:45.141Z</time></trkpt><trkpt lat="42.9827078" lon="11.0932202"><ele>93.0</ele><time>2026-04-26T10:32:46.144Z</time></trkpt><trkpt lat="42.9827606" lon="11.0930159"><ele>92.66666666666667</ele><time>2026-04-26T10:32:47.144Z</time></trkpt><trkpt lat="42.9828388" lon="11.0928279"><ele>92.33333333333334</ele><time>2026-04-26T10:32:48.153Z</time></trkpt><trkpt lat="42.9829423" lon="11.0926458"><ele>92.0</ele><time>2026-04-26T10:32:49.144Z</time></trkpt><trkpt lat="42.98306" lon="11.0924926"><ele>92.0</ele><time>2026-04-26T10:32:50.144Z</time></trkpt><trkpt lat="42.9831872" lon="11.0923456"><ele>92.0</ele><time>2026-04-26T10:32:51.151Z</time></trkpt><trkpt lat="42.9833244" lon="11.092205"><ele>92.0</ele><time>2026-04-26T10:32:52.153Z</time></trkpt><trkpt lat="42.983456" lon="11.0920614"><ele>92.33333333333334</ele><time>2026-04-26T10:32:53.144Z</time></trkpt><trkpt lat="42.9835897" lon="11.0919189"><ele>92.66666666666667</ele><time>2026-04-26T10:32:54.158Z</time></trkpt><trkpt lat="42.9837237" lon="11.0917728"><ele>93.0</ele><time>2026-04-26T10:32:55.163Z</time></trkpt><trkpt lat="42.9838591" lon="11.0916255"><ele>93.0</ele><time>2026-04-26T10:32:56.112Z</time></trkpt><trkpt lat="42.9839953" lon="11.0914807"><ele>93.0</ele><time>2026-04-26T10:32:57.136Z</time></trkpt><trkpt lat="42.9841318" lon="11.0913363"><ele>93.0</ele><time>2026-04-26T10:32:58.151Z</time></trkpt><trkpt lat="42.98427" lon="11.0911912"><ele>93.33333333333333</ele><time>2026-04-26T10:32:59.152Z</time></trkpt><trkpt lat="42.9844083" lon="11.0910397"><ele>93.66666666666666</ele><time>2026-04-26T10:33:00.134Z</time></trkpt><trkpt lat="42.9845475" lon="11.0908961"><ele>94.0</ele><time>2026-04-26T10:33:01.143Z</time></trkpt><trkpt lat="42.9846772" lon="11.0907499"><ele>94.33333333333333</ele><time>2026-04-26T10:33:02.141Z</time></trkpt><trkpt lat="42.9848081" lon="11.0906039"><ele>94.66666666666667</ele><time>2026-04-26T10:33:03.143Z</time></trkpt><trkpt lat="42.9849406" lon="11.0904677"><ele>95.0</ele><time>2026-04-26T10:33:04.154Z</time></trkpt><trkpt lat="42.9850753" lon="11.0903258"><ele>96.0</ele><time>2026-04-26T10:33:05.133Z</time></trkpt><trkpt lat="42.9852115" lon="11.0901849"><ele>97.0</ele><time>2026-04-26T10:33:06.135Z</time></trkpt><trkpt lat="42.9853462" lon="11.0900386"><ele>98.0</ele><time>2026-04-26T10:33:07.136Z</time></trkpt><trkpt lat="42.9854859" lon="11.0898916"><ele>98.0</ele><time>2026-04-26T10:33:08.146Z</time></trkpt><trkpt lat="42.9856272" lon="11.0897387"><ele>98.0</ele><time>2026-04-26T10:33:09.145Z</time></trkpt><trkpt lat="42.9857689" lon="11.0895861"><ele>98.0</ele><time>2026-04-26T10:33:10.146Z</time></trkpt><trkpt lat="42.9859063" lon="11.0894388"><ele>98.66666666666666</ele><time>2026-04-26T10:33:11.145Z</time></trkpt><trkpt lat="42.9860453" lon="11.0892889"><ele>99.33333333333334</ele><time>2026-04-26T10:33:12.153Z</time></trkpt><trkpt lat="42.9861879" lon="11.0891333"><ele>100.0</ele><time>2026-04-26T10:33:13.161Z</time></trkpt><trkpt lat="42.9863294" lon="11.0889782"><ele>100.33333333333334</ele><time>2026-04-26T10:33:14.151Z</time></trkpt><trkpt lat="42.986472" lon="11.0888279"><ele>100.66666666666666</ele><time>2026-04-26T10:33:15.135Z</time></trkpt><trkpt lat="42.9866182" lon="11.088676"><ele>101.0</ele><time>2026-04-26T10:33:16.149Z</time></trkpt><trkpt lat="42.9867635" lon="11.0885191"><ele>101.33333333333333</ele><time>2026-04-26T10:33:17.152Z</time></trkpt><trkpt lat="42.9869067" lon="11.0883646"><ele>101.66666666666666</ele><time>2026-04-26T10:33:18.139Z</time></trkpt><trkpt lat="42.9870507" lon="11.0882138"><ele>102.0</ele><time>2026-04-26T10:33:19.16Z</time></trkpt><trkpt lat="42.987192" lon="11.0880578"><ele>102.33333333333334</ele><time>2026-04-26T10:33:20.151Z</time></trkpt><trkpt lat="42.9873329" lon="11.0879061"><ele>102.66666666666667</ele><time>2026-04-26T10:33:21.144Z</time></trkpt><trkpt lat="42.987473" lon="11.0877524"><ele>103.0</ele><time>2026-04-26T10:33:22.179Z</time></trkpt><trkpt lat="42.9876114" lon="11.0875981"><ele>103.66666666666667</ele><time>2026-04-26T10:33:23.122Z</time></trkpt><trkpt lat="42.9877567" lon="11.0874481"><ele>104.33333333333334</ele><time>2026-04-26T10:33:24.142Z</time></trkpt><trkpt lat="42.9878965" lon="11.0873012"><ele>105.0</ele><time>2026-04-26T10:33:25.116Z</time></trkpt><trkpt lat="42.9880334" lon="11.0871535"><ele>106.0</ele><time>2026-04-26T10:33:26.13Z</time></trkpt><trkpt lat="42.988169" lon="11.0870094"><ele>107.0</ele><time>2026-04-26T10:33:27.141Z</time></trkpt><trkpt lat="42.9883032" lon="11.0868619"><ele>108.0</ele><time>2026-04-26T10:33:28.148Z</time></trkpt><trkpt lat="42.9884381" lon="11.0867147"><ele>109.0</ele><time>2026-04-26T10:33:29.162Z</time></trkpt><trkpt lat="42.9885743" lon="11.0865737"><ele>110.0</ele><time>2026-04-26T10:33:30.152Z</time></trkpt><trkpt lat="42.9887019" lon="11.0864432"><ele>111.0</ele><time>2026-04-26T10:33:31.156Z</time></trkpt><trkpt lat="42.9888191" lon="11.0863129"><ele>111.0</ele><time>2026-04-26T10:33:32.139Z</time></trkpt><trkpt lat="42.9889222" lon="11.0861687"><ele>111.0</ele><time>2026-04-26T10:33:33.148Z</time></trkpt><trkpt lat="42.9890063" lon="11.0860196"><ele>111.0</ele><time>2026-04-26T10:33:34.151Z</time></trkpt><trkpt lat="42.9890823" lon="11.0858951"><ele>111.0</ele><time>2026-04-26T10:33:35.153Z</time></trkpt><trkpt lat="42.9891702" lon="11.0857998"><ele>111.19999999999999</ele><time>2026-04-26T10:33:36.143Z</time></trkpt><trkpt lat="42.9892583" lon="11.0857322"><ele>111.39999999999999</ele><time>2026-04-26T10:33:37.148Z</time></trkpt><trkpt lat="42.9893535" lon="11.0856632"><ele>111.6</ele><time>2026-04-26T10:33:38.153Z</time></trkpt><trkpt lat="42.9894547" lon="11.0855767"><ele>111.8</ele><time>2026-04-26T10:33:39.135Z</time></trkpt><trkpt lat="42.9895498" lon="11.0854869"><ele>112.0</ele><time>2026-04-26T10:33:40.122Z</time></trkpt><trkpt lat="42.989645" lon="11.0853833"><ele>112.0</ele><time>2026-04-26T10:33:41.15Z</time></trkpt><trkpt lat="42.9897431" lon="11.0852832"><ele>112.0</ele><time>2026-04-26T10:33:42.146Z</time></trkpt><trkpt lat="42.9898382" lon="11.0851798"><ele>112.0</ele><time>2026-04-26T10:33:43.158Z</time></trkpt><trkpt lat="42.9899344" lon="11.0850742"><ele>112.0</ele><time>2026-04-26T10:33:44.143Z</time></trkpt><trkpt lat="42.9900325" lon="11.0849656"><ele>113.25</ele><time>2026-04-26T10:33:45.14Z</time></trkpt><trkpt lat="42.9901297" lon="11.0848603"><ele>114.5</ele><time>2026-04-26T10:33:46.152Z</time></trkpt><trkpt lat="42.9902243" lon="11.0847507"><ele>115.75</ele><time>2026-04-26T10:33:47.143Z</time></trkpt><trkpt lat="42.9903199" lon="11.0846448"><ele>117.0</ele><time>2026-04-26T10:33:48.137Z</time></trkpt><trkpt lat="42.9904119" lon="11.0845407"><ele>117.0</ele><time>2026-04-26T10:33:49.164Z</time></trkpt><trkpt lat="42.9905069" lon="11.08445"><ele>116.99999999999999</ele><time>2026-04-26T10:33:50.145Z</time></trkpt><trkpt lat="42.9906025" lon="11.0844087"><ele>116.99999999999999</ele><time>2026-04-26T10:33:51.141Z</time></trkpt><trkpt lat="42.9907037" lon="11.0844049"><ele>117.0</ele><time>2026-04-26T10:33:52.141Z</time></trkpt><trkpt lat="42.9908059" lon="11.0844463"><ele>117.0</ele><time>2026-04-26T10:33:53.146Z</time></trkpt><trkpt lat="42.9909021" lon="11.0845015"><ele>117.5</ele><time>2026-04-26T10:33:54.138Z</time></trkpt><trkpt lat="42.9910011" lon="11.0845789"><ele>118.0</ele><time>2026-04-26T10:33:55.144Z</time></trkpt><trkpt lat="42.9911085" lon="11.0846502"><ele>118.5</ele><time>2026-04-26T10:33:56.142Z</time></trkpt><trkpt lat="42.9912163" lon="11.0847189"><ele>119.0</ele><time>2026-04-26T10:33:57.142Z</time></trkpt><trkpt lat="42.9913237" lon="11.0847877"><ele>119.0</ele><time>2026-04-26T10:33:58.155Z</time></trkpt><trkpt lat="42.991432" lon="11.0848587"><ele>119.0</ele><time>2026-04-26T10:33:59.143Z</time></trkpt><trkpt lat="42.9915399" lon="11.0849275"><ele>119.0</ele><time>2026-04-26T10:34:00.134Z</time></trkpt><trkpt lat="42.9916434" lon="11.0849822"><ele>119.0</ele><time>2026-04-26T10:34:01.174Z</time></trkpt><trkpt lat="42.9917299" lon="11.0850089"><ele>119.0</ele><time>2026-04-26T10:34:02.137Z</time></trkpt><trkpt lat="42.9918077" lon="11.0850111"><ele>118.80000000000001</ele><time>2026-04-26T10:34:03.141Z</time></trkpt><trkpt lat="42.9918696" lon="11.0849633"><ele>118.60000000000001</ele><time>2026-04-26T10:34:04.144Z</time></trkpt><trkpt lat="42.9919042" lon="11.0848452"><ele>118.4</ele><time>2026-04-26T10:34:05.159Z</time></trkpt><trkpt lat="42.9919384" lon="11.084734"><ele>118.2</ele><time>2026-04-26T10:34:06.138Z</time></trkpt><trkpt lat="42.9919884" lon="11.0846084"><ele>118.0</ele><time>2026-04-26T10:34:07.123Z</time></trkpt><trkpt lat="42.9920433" lon="11.0844555"><ele>118.5</ele><time>2026-04-26T10:34:08.134Z</time></trkpt><trkpt lat="42.9920934" lon="11.0843007"><ele>119.0</ele><time>2026-04-26T10:34:09.145Z</time></trkpt><trkpt lat="42.9921468" lon="11.0841442"><ele>119.5</ele><time>2026-04-26T10:34:10.157Z</time></trkpt><trkpt lat="42.9922016" lon="11.0839869"><ele>120.0</ele><time>2026-04-26T10:34:11.148Z</time></trkpt><trkpt lat="42.992255" lon="11.0838262"><ele>120.25</ele><time>2026-04-26T10:34:12.15Z</time></trkpt><trkpt lat="42.9923108" lon="11.0836621"><ele>120.5</ele><time>2026-04-26T10:34:13.144Z</time></trkpt><trkpt lat="42.9923676" lon="11.0834955"><ele>120.75</ele><time>2026-04-26T10:34:14.134Z</time></trkpt><trkpt lat="42.9924342" lon="11.0833422"><ele>121.0</ele><time>2026-04-26T10:34:15.128Z</time></trkpt><trkpt lat="42.9925034" lon="11.0831917"><ele>122.0</ele><time>2026-04-26T10:34:16.142Z</time></trkpt><trkpt lat="42.9925805" lon="11.0830472"><ele>123.0</ele><time>2026-04-26T10:34:17.135Z</time></trkpt><trkpt lat="42.9926605" lon="11.0828996"><ele>124.0</ele><time>2026-04-26T10:34:18.16Z</time></trkpt><trkpt lat="42.9927422" lon="11.0827524"><ele>125.0</ele><time>2026-04-26T10:34:19.145Z</time></trkpt><trkpt lat="42.9928313" lon="11.0826229"><ele>125.0</ele><time>2026-04-26T10:34:20.143Z</time></trkpt><trkpt lat="42.992924" lon="11.0825062"><ele>125.0</ele><time>2026-04-26T10:34:21.146Z</time></trkpt><trkpt lat="42.9930147" lon="11.0823823"><ele>125.0</ele><time>2026-04-26T10:34:22.147Z</time></trkpt><trkpt lat="42.993098" lon="11.0822577"><ele>125.0</ele><time>2026-04-26T10:34:23.151Z</time></trkpt><trkpt lat="42.9931669" lon="11.0821284"><ele>125.0</ele><time>2026-04-26T10:34:24.146Z</time></trkpt><trkpt lat="42.9932433" lon="11.0820039"><ele>125.0</ele><time>2026-04-26T10:34:25.137Z</time></trkpt><trkpt lat="42.9933277" lon="11.0818941"><ele>125.0</ele><time>2026-04-26T10:34:26.161Z</time></trkpt><trkpt lat="42.9934269" lon="11.0818138"><ele>125.0</ele><time>2026-04-26T10:34:27.14Z</time></trkpt><trkpt lat="42.9935525" lon="11.0817718"><ele>126.5</ele><time>2026-04-26T10:34:28.16Z</time></trkpt><trkpt lat="42.9936843" lon="11.0817398"><ele>128.0</ele><time>2026-04-26T10:34:29.151Z</time></trkpt><trkpt lat="42.9938182" lon="11.0817207"><ele>129.5</ele><time>2026-04-26T10:34:30.154Z</time></trkpt><trkpt lat="42.9939574" lon="11.0816975"><ele>131.0</ele><time>2026-04-26T10:34:31.136Z</time></trkpt><trkpt lat="42.9940914" lon="11.0816719"><ele>133.25</ele><time>2026-04-26T10:34:32.157Z</time></trkpt><trkpt lat="42.9942265" lon="11.0816439"><ele>135.5</ele><time>2026-04-26T10:34:33.147Z</time></trkpt><trkpt lat="42.994357" lon="11.0816118"><ele>137.75</ele><time>2026-04-26T10:34:34.145Z</time></trkpt><trkpt lat="42.9944866" lon="11.0815826"><ele>140.0</ele><time>2026-04-26T10:34:35.161Z</time></trkpt><trkpt lat="42.9946114" lon="11.0815532"><ele>140.0</ele><time>2026-04-26T10:34:36.179Z</time></trkpt><trkpt lat="42.9947397" lon="11.0815142"><ele>140.0</ele><time>2026-04-26T10:34:37.146Z</time></trkpt><trkpt lat="42.9948606" lon="11.0814432"><ele>140.0</ele><time>2026-04-26T10:34:38.14Z</time></trkpt><trkpt lat="42.9949799" lon="11.0813613"><ele>140.0</ele><time>2026-04-26T10:34:39.135Z</time></trkpt><trkpt lat="42.995097" lon="11.0813076"><ele>144.0</ele><time>2026-04-26T10:34:40.148Z</time></trkpt><trkpt lat="42.9952146" lon="11.0813055"><ele>148.0</ele><time>2026-04-26T10:34:41.146Z</time></trkpt><trkpt lat="42.9953257" lon="11.0813287"><ele>152.0</ele><time>2026-04-26T10:34:42.142Z</time></trkpt><trkpt lat="42.9954542" lon="11.0813171"><ele>156.0</ele><time>2026-04-26T10:34:43.147Z</time></trkpt><trkpt lat="42.995563" lon="11.081288"><ele>156.0</ele><time>2026-04-26T10:34:44.152Z</time></trkpt><trkpt lat="42.9956674" lon="11.0812638"><ele>156.0</ele><time>2026-04-26T10:34:45.105Z</time></trkpt><trkpt lat="42.9957647" lon="11.0812644"><ele>156.0</ele><time>2026-04-26T10:34:46.136Z</time></trkpt><trkpt lat="42.9958547" lon="11.081294"><ele>156.0</ele><time>2026-04-26T10:34:47.146Z</time></trkpt><trkpt lat="42.9959436" lon="11.0813205"><ele>156.0</ele><time>2026-04-26T10:34:48.142Z</time></trkpt><trkpt lat="42.9960355" lon="11.0813336"><ele>157.4</ele><time>2026-04-26T10:34:49.16Z</time></trkpt><trkpt lat="42.9961369" lon="11.0813406"><ele>158.8</ele><time>2026-04-26T10:34:50.15Z</time></trkpt><trkpt lat="42.9962431" lon="11.0813396"><ele>160.20000000000002</ele><time>2026-04-26T10:34:51.147Z</time></trkpt><trkpt lat="42.9963492" lon="11.081304"><ele>161.6</ele><time>2026-04-26T10:34:52.154Z</time></trkpt><trkpt lat="42.9964446" lon="11.0812404"><ele>163.0</ele><time>2026-04-26T10:34:53.156Z</time></trkpt><trkpt lat="42.996541" lon="11.0811506"><ele>163.0</ele><time>2026-04-26T10:34:54.14Z</time></trkpt><trkpt lat="42.9966415" lon="11.0810366"><ele>163.0</ele><time>2026-04-26T10:34:55.148Z</time></trkpt><trkpt lat="42.9967425" lon="11.0809241"><ele>163.0</ele><time>2026-04-26T10:34:56.146Z</time></trkpt><trkpt lat="42.9968456" lon="11.0808159"><ele>163.0</ele><time>2026-04-26T10:34:57.149Z</time></trkpt><trkpt lat="42.9969454" lon="11.0807135"><ele>165.0</ele><time>2026-04-26T10:34:58.152Z</time></trkpt><trkpt lat="42.9970392" lon="11.0806205"><ele>167.0</ele><time>2026-04-26T10:34:59.133Z</time></trkpt><trkpt lat="42.9971227" lon="11.0805638"><ele>169.0</ele><time>2026-04-26T10:35:00.147Z</time></trkpt><trkpt lat="42.9972082" lon="11.0805385"><ele>171.0</ele><time>2026-04-26T10:35:01.148Z</time></trkpt><trkpt lat="42.9973093" lon="11.080549"><ele>173.0</ele><time>2026-04-26T10:35:02.143Z</time></trkpt><trkpt lat="42.997415" lon="11.0805681"><ele>174.4</ele><time>2026-04-26T10:35:03.146Z</time></trkpt><trkpt lat="42.9975259" lon="11.080599"><ele>175.8</ele><time>2026-04-26T10:35:04.138Z</time></trkpt><trkpt lat="42.997631" lon="11.0806492"><ele>177.2</ele><time>2026-04-26T10:35:05.139Z</time></trkpt><trkpt lat="42.9977342" lon="11.0807133"><ele>178.6</ele><time>2026-04-26T10:35:06.143Z</time></trkpt><trkpt lat="42.9978253" lon="11.0807924"><ele>180.0</ele><time>2026-04-26T10:35:07.141Z</time></trkpt><trkpt lat="42.9979173" lon="11.0808972"><ele>181.0</ele><time>2026-04-26T10:35:08.135Z</time></trkpt><trkpt lat="42.9980015" lon="11.0809878"><ele>182.0</ele><time>2026-04-26T10:35:09.135Z</time></trkpt><trkpt lat="42.9980845" lon="11.0810809"><ele>183.0</ele><time>2026-04-26T10:35:10.146Z</time></trkpt><trkpt lat="42.9981711" lon="11.0811658"><ele>184.0</ele><time>2026-04-26T10:35:11.135Z</time></trkpt><trkpt lat="42.9982774" lon="11.081225"><ele>185.0</ele><time>2026-04-26T10:35:12.151Z</time></trkpt><trkpt lat="42.9983895" lon="11.0812779"><ele>187.6</ele><time>2026-04-26T10:35:13.133Z</time></trkpt><trkpt lat="42.9984931" lon="11.0813359"><ele>190.2</ele><time>2026-04-26T10:35:14.143Z</time></trkpt><trkpt lat="42.998603" lon="11.0813932"><ele>192.8</ele><time>2026-04-26T10:35:15.152Z</time></trkpt><trkpt lat="42.998712" lon="11.0814385"><ele>195.4</ele><time>2026-04-26T10:35:16.154Z</time></trkpt><trkpt lat="42.9988139" lon="11.0814649"><ele>198.0</ele><time>2026-04-26T10:35:17.177Z</time></trkpt><trkpt lat="42.998916" lon="11.0814797"><ele>198.0</ele><time>2026-04-26T10:35:18.156Z</time></trkpt><trkpt lat="42.9990166" lon="11.0814711"><ele>198.0</ele><time>2026-04-26T10:35:19.143Z</time></trkpt><trkpt lat="42.9991113" lon="11.0814121"><ele>198.0</ele><time>2026-04-26T10:35:20.125Z</time></trkpt><trkpt lat="42.9991914" lon="11.0813201"><ele>198.0</ele><time>2026-04-26T10:35:21.154Z</time></trkpt><trkpt lat="42.9992762" lon="11.0812141"><ele>198.0</ele><time>2026-04-26T10:35:22.139Z</time></trkpt><trkpt lat="42.9993632" lon="11.0811228"><ele>200.0</ele><time>2026-04-26T10:35:23.15Z</time></trkpt><trkpt lat="42.9994553" lon="11.0810612"><ele>202.0</ele><time>2026-04-26T10:35:24.137Z</time></trkpt><trkpt lat="42.9995575" lon="11.0810466"><ele>204.0</ele><time>2026-04-26T10:35:25.154Z</time></trkpt><trkpt lat="42.9996723" lon="11.0810716"><ele>206.0</ele><time>2026-04-26T10:35:26.157Z</time></trkpt><trkpt lat="42.9997894" lon="11.0811048"><ele>208.0</ele><time>2026-04-26T10:35:27.144Z</time></trkpt><trkpt lat="42.9999052" lon="11.0811508"><ele>208.0</ele><time>2026-04-26T10:35:28.167Z</time></trkpt><trkpt lat="43.0000209" lon="11.0811931"><ele>208.0</ele><time>2026-04-26T10:35:29.151Z</time></trkpt><trkpt lat="43.0001388" lon="11.0812309"><ele>208.0</ele><time>2026-04-26T10:35:30.15Z</time></trkpt><trkpt lat="43.0002621" lon="11.0812642"><ele>208.0</ele><time>2026-04-26T10:35:31.148Z</time></trkpt><trkpt lat="43.0003904" lon="11.0812857"><ele>208.0</ele><time>2026-04-26T10:35:32.144Z</time></trkpt><trkpt lat="43.0005231" lon="11.0813259"><ele>208.0</ele><time>2026-04-26T10:35:33.13Z</time></trkpt><trkpt lat="43.0006468" lon="11.0813627"><ele>208.0</ele><time>2026-04-26T10:35:34.163Z</time></trkpt><trkpt lat="43.0007629" lon="11.0814112"><ele>208.0</ele><time>2026-04-26T10:35:35.131Z</time></trkpt><trkpt lat="43.0008773" lon="11.0814608"><ele>209.2</ele><time>2026-04-26T10:35:36.156Z</time></trkpt><trkpt lat="43.0009854" lon="11.0814996"><ele>210.4</ele><time>2026-04-26T10:35:37.153Z</time></trkpt><trkpt lat="43.0010908" lon="11.0815279"><ele>211.59999999999997</ele><time>2026-04-26T10:35:38.103Z</time></trkpt><trkpt lat="43.0011955" lon="11.0815731"><ele>212.79999999999998</ele><time>2026-04-26T10:35:39.135Z</time></trkpt><trkpt lat="43.0012888" lon="11.0816456"><ele>214.0</ele><time>2026-04-26T10:35:40.143Z</time></trkpt><trkpt lat="43.0013836" lon="11.081736"><ele>214.0</ele><time>2026-04-26T10:35:41.158Z</time></trkpt><trkpt lat="43.0014766" lon="11.0818339"><ele>214.0</ele><time>2026-04-26T10:35:42.148Z</time></trkpt><trkpt lat="43.0015602" lon="11.0819625"><ele>214.0</ele><time>2026-04-26T10:35:43.15Z</time></trkpt><trkpt lat="43.0016436" lon="11.082068"><ele>214.0</ele><time>2026-04-26T10:35:44.146Z</time></trkpt><trkpt lat="43.001735" lon="11.0821479"><ele>217.79999999999998</ele><time>2026-04-26T10:35:45.174Z</time></trkpt><trkpt lat="43.0018278" lon="11.082191"><ele>221.59999999999997</ele><time>2026-04-26T10:35:46.154Z</time></trkpt><trkpt lat="43.0019221" lon="11.0822242"><ele>225.4</ele><time>2026-04-26T10:35:47.144Z</time></trkpt><trkpt lat="43.0020346" lon="11.0822337"><ele>229.2</ele><time>2026-04-26T10:35:48.153Z</time></trkpt><trkpt lat="43.0021617" lon="11.0822365"><ele>233.0</ele><time>2026-04-26T10:35:49.145Z</time></trkpt><trkpt lat="43.0022789" lon="11.0822241"><ele>233.0</ele><time>2026-04-26T10:35:50.143Z</time></trkpt><trkpt lat="43.0023924" lon="11.0821993"><ele>233.0</ele><time>2026-04-26T10:35:51.166Z</time></trkpt><trkpt lat="43.0024958" lon="11.0822034"><ele>233.0</ele><time>2026-04-26T10:35:52.144Z</time></trkpt><trkpt lat="43.0026019" lon="11.0822126"><ele>233.0</ele><time>2026-04-26T10:35:53.159Z</time></trkpt><trkpt lat="43.0027138" lon="11.082252"><ele>233.0</ele><time>2026-04-26T10:35:54.147Z</time></trkpt><trkpt lat="43.0028222" lon="11.0823238"><ele>233.5</ele><time>2026-04-26T10:35:55.143Z</time></trkpt><trkpt lat="43.0029287" lon="11.0823945"><ele>234.0</ele><time>2026-04-26T10:35:56.146Z</time></trkpt><trkpt lat="43.0030375" lon="11.082448"><ele>234.5</ele><time>2026-04-26T10:35:57.158Z</time></trkpt><trkpt lat="43.0031489" lon="11.0824929"><ele>235.0</ele><time>2026-04-26T10:35:58.154Z</time></trkpt><trkpt lat="43.0032684" lon="11.0825324"><ele>236.75</ele><time>2026-04-26T10:35:59.153Z</time></trkpt><trkpt lat="43.003388" lon="11.0825961"><ele>238.5</ele><time>2026-04-26T10:36:00.162Z</time></trkpt><trkpt lat="43.0035025" lon="11.0826792"><ele>240.25</ele><time>2026-04-26T10:36:01.147Z</time></trkpt><trkpt lat="43.0036119" lon="11.0827892"><ele>242.0</ele><time>2026-04-26T10:36:02.157Z</time></trkpt><trkpt lat="43.0037188" lon="11.0829151"><ele>242.0</ele><time>2026-04-26T10:36:03.148Z</time></trkpt><trkpt lat="43.0038178" lon="11.0830325"><ele>242.0</ele><time>2026-04-26T10:36:04.153Z</time></trkpt><trkpt lat="43.0039112" lon="11.083135"><ele>242.0</ele><time>2026-04-26T10:36:05.149Z</time></trkpt><trkpt lat="43.0040073" lon="11.0832006"><ele>242.0</ele><time>2026-04-26T10:36:06.156Z</time></trkpt><trkpt lat="43.004133" lon="11.0832464"><ele>244.25</ele><time>2026-04-26T10:36:07.138Z</time></trkpt><trkpt lat="43.0042671" lon="11.083298"><ele>246.5</ele><time>2026-04-26T10:36:08.161Z</time></trkpt><trkpt lat="43.0044105" lon="11.0833406"><ele>248.75</ele><time>2026-04-26T10:36:09.152Z</time></trkpt><trkpt lat="43.0045478" lon="11.0833799"><ele>251.0</ele><time>2026-04-26T10:36:10.158Z</time></trkpt><trkpt lat="43.0046822" lon="11.0834207"><ele>251.0</ele><time>2026-04-26T10:36:11.16Z</time></trkpt><trkpt lat="43.004812" lon="11.0834628"><ele>251.0</ele><time>2026-04-26T10:36:12.154Z</time></trkpt><trkpt lat="43.0049313" lon="11.0835165"><ele>251.0</ele><time>2026-04-26T10:36:13.153Z</time></trkpt><trkpt lat="43.0050523" lon="11.0835869"><ele>251.0</ele><time>2026-04-26T10:36:14.147Z</time></trkpt><trkpt lat="43.0051609" lon="11.0836773"><ele>251.75</ele><time>2026-04-26T10:36:15.13Z</time></trkpt><trkpt lat="43.005258" lon="11.0837788"><ele>252.5</ele><time>2026-04-26T10:36:16.153Z</time></trkpt><trkpt lat="43.0053427" lon="11.0838964"><ele>253.25</ele><time>2026-04-26T10:36:17.145Z</time></trkpt><trkpt lat="43.0054363" lon="11.0840126"><ele>254.0</ele><time>2026-04-26T10:36:18.145Z</time></trkpt><trkpt lat="43.0055375" lon="11.0841034"><ele>255.75</ele><time>2026-04-26T10:36:19.143Z</time></trkpt><trkpt lat="43.005646" lon="11.0841873"><ele>257.5</ele><time>2026-04-26T10:36:20.15Z</time></trkpt><trkpt lat="43.005751" lon="11.084271"><ele>259.25</ele><time>2026-04-26T10:36:21.148Z</time></trkpt><trkpt lat="43.005851" lon="11.0843515"><ele>261.0</ele><time>2026-04-26T10:36:22.143Z</time></trkpt><trkpt lat="43.0059505" lon="11.0844292"><ele>262.0</ele><time>2026-04-26T10:36:23.16Z</time></trkpt><trkpt lat="43.0060439" lon="11.0845"><ele>263.0</ele><time>2026-04-26T10:36:24.132Z</time></trkpt><trkpt lat="43.0061319" lon="11.0845827"><ele>264.0</ele><time>2026-04-26T10:36:25.152Z</time></trkpt><trkpt lat="43.0062083" lon="11.0846789"><ele>265.0</ele><time>2026-04-26T10:36:26.141Z</time></trkpt><trkpt lat="43.0062917" lon="11.084797"><ele>266.0</ele><time>2026-04-26T10:36:27.147Z</time></trkpt><trkpt lat="43.0063703" lon="11.0849176"><ele>267.6</ele><time>2026-04-26T10:36:28.149Z</time></trkpt><trkpt lat="43.0064412" lon="11.0850383"><ele>269.20000000000005</ele><time>2026-04-26T10:36:29.134Z</time></trkpt><trkpt lat="43.0065113" lon="11.0851581"><ele>270.79999999999995</ele><time>2026-04-26T10:36:30.163Z</time></trkpt><trkpt lat="43.0065798" lon="11.0852504"><ele>272.4</ele><time>2026-04-26T10:36:31.154Z</time></trkpt><trkpt lat="43.0066733" lon="11.0852974"><ele>274.0</ele><time>2026-04-26T10:36:32.15Z</time></trkpt><trkpt lat="43.0067739" lon="11.0853115"><ele>275.4</ele><time>2026-04-26T10:36:33.149Z</time></trkpt><trkpt lat="43.0068654" lon="11.085312"><ele>276.79999999999995</ele><time>2026-04-26T10:36:34.145Z</time></trkpt><trkpt lat="43.0069597" lon="11.0853033"><ele>278.20000000000005</ele><time>2026-04-26T10:36:35.143Z</time></trkpt><trkpt lat="43.0070615" lon="11.0853088"><ele>279.6</ele><time>2026-04-26T10:36:36.148Z</time></trkpt><trkpt lat="43.0071645" lon="11.0853347"><ele>281.0</ele><time>2026-04-26T10:36:37.151Z</time></trkpt><trkpt lat="43.007257" lon="11.0853797"><ele>281.0</ele><time>2026-04-26T10:36:38.149Z</time></trkpt><trkpt lat="43.0073561" lon="11.0854303"><ele>281.0</ele><time>2026-04-26T10:36:39.155Z</time></trkpt><trkpt lat="43.0074564" lon="11.0854742"><ele>281.0</ele><time>2026-04-26T10:36:40.155Z</time></trkpt><trkpt lat="43.0075598" lon="11.0855111"><ele>281.0</ele><time>2026-04-26T10:36:41.146Z</time></trkpt><trkpt lat="43.0076639" lon="11.0855633"><ele>281.0</ele><time>2026-04-26T10:36:42.16Z</time></trkpt><trkpt lat="43.0077648" lon="11.0856025"><ele>282.8</ele><time>2026-04-26T10:36:43.141Z</time></trkpt><trkpt lat="43.0078682" lon="11.0856264"><ele>284.6</ele><time>2026-04-26T10:36:44.153Z</time></trkpt><trkpt lat="43.0079651" lon="11.0856604"><ele>286.4</ele><time>2026-04-26T10:36:45.142Z</time></trkpt><trkpt lat="43.00806" lon="11.0856994"><ele>288.2</ele><time>2026-04-26T10:36:46.147Z</time></trkpt><trkpt lat="43.0081579" lon="11.0857688"><ele>290.0</ele><time>2026-04-26T10:36:47.146Z</time></trkpt><trkpt lat="43.0082588" lon="11.0858362"><ele>294.75</ele><time>2026-04-26T10:36:48.155Z</time></trkpt><trkpt lat="43.0083725" lon="11.0859042"><ele>299.5</ele><time>2026-04-26T10:36:49.156Z</time></trkpt><trkpt lat="43.0084854" lon="11.0859688"><ele>304.25</ele><time>2026-04-26T10:36:50.135Z</time></trkpt><trkpt lat="43.0085986" lon="11.086019"><ele>309.0</ele><time>2026-04-26T10:36:51.152Z</time></trkpt><trkpt lat="43.0087022" lon="11.0860682"><ele>309.0</ele><time>2026-04-26T10:36:52.146Z</time></trkpt><trkpt lat="43.008809" lon="11.086095"><ele>309.0</ele><time>2026-04-26T10:36:53.154Z</time></trkpt><trkpt lat="43.0089205" lon="11.0861125"><ele>309.0</ele><time>2026-04-26T10:36:54.15Z</time></trkpt><trkpt lat="43.0090297" lon="11.0861356"><ele>309.0</ele><time>2026-04-26T10:36:55.158Z</time></trkpt><trkpt lat="43.0091234" lon="11.0861826"><ele>309.0</ele><time>2026-04-26T10:36:56.155Z</time></trkpt><trkpt lat="43.009219" lon="11.0862444"><ele>310.4</ele><time>2026-04-26T10:36:57.138Z</time></trkpt><trkpt lat="43.0093206" lon="11.0863099"><ele>311.79999999999995</ele><time>2026-04-26T10:36:58.151Z</time></trkpt><trkpt lat="43.0094111" lon="11.0863704"><ele>313.20000000000005</ele><time>2026-04-26T10:36:59.143Z</time></trkpt><trkpt lat="43.0094972" lon="11.0864258"><ele>314.6</ele><time>2026-04-26T10:37:00.14Z</time></trkpt><trkpt lat="43.0095917" lon="11.0864729"><ele>316.0</ele><time>2026-04-26T10:37:01.145Z</time></trkpt><trkpt lat="43.0096749" lon="11.0865371"><ele>317.6</ele><time>2026-04-26T10:37:02.141Z</time></trkpt><trkpt lat="43.00974" lon="11.0866303"><ele>319.20000000000005</ele><time>2026-04-26T10:37:03.157Z</time></trkpt><trkpt lat="43.0097973" lon="11.0867314"><ele>320.79999999999995</ele><time>2026-04-26T10:37:04.132Z</time></trkpt><trkpt lat="43.0098488" lon="11.0868407"><ele>322.4</ele><time>2026-04-26T10:37:05.162Z</time></trkpt><trkpt lat="43.0099193" lon="11.0869396"><ele>324.0</ele><time>2026-04-26T10:37:06.156Z</time></trkpt><trkpt lat="43.0100105" lon="11.0870317"><ele>324.0</ele><time>2026-04-26T10:37:07.151Z</time></trkpt><trkpt lat="43.0101121" lon="11.087117"><ele>324.0</ele><time>2026-04-26T10:37:08.145Z</time></trkpt><trkpt lat="43.0102032" lon="11.087201"><ele>324.0</ele><time>2026-04-26T10:37:09.135Z</time></trkpt><trkpt lat="43.0102973" lon="11.0872652"><ele>324.0</ele><time>2026-04-26T10:37:10.158Z</time></trkpt><trkpt lat="43.0104008" lon="11.0873114"><ele>324.0</ele><time>2026-04-26T10:37:11.148Z</time></trkpt><trkpt lat="43.0105127" lon="11.0873422"><ele>324.0</ele><time>2026-04-26T10:37:12.146Z</time></trkpt><trkpt lat="43.0106272" lon="11.0873685"><ele>324.0</ele><time>2026-04-26T10:37:13.162Z</time></trkpt><trkpt lat="43.0107412" lon="11.0873869"><ele>324.0</ele><time>2026-04-26T10:37:14.138Z</time></trkpt><trkpt lat="43.0108526" lon="11.0873967"><ele>324.0</ele><time>2026-04-26T10:37:15.146Z</time></trkpt><trkpt lat="43.0109572" lon="11.0874013"><ele>324.0</ele><time>2026-04-26T10:37:16.139Z</time></trkpt><trkpt lat="43.0110548" lon="11.0874053"><ele>322.8</ele><time>2026-04-26T10:37:17.149Z</time></trkpt><trkpt lat="43.0111469" lon="11.087413"><ele>321.59999999999997</ele><time>2026-04-26T10:37:18.144Z</time></trkpt><trkpt lat="43.0112435" lon="11.087414"><ele>320.4</ele><time>2026-04-26T10:37:19.14Z</time></trkpt><trkpt lat="43.0113502" lon="11.0874083"><ele>319.2</ele><time>2026-04-26T10:37:20.14Z</time></trkpt><trkpt lat="43.0114633" lon="11.0873984"><ele>318.0</ele><time>2026-04-26T10:37:21.141Z</time></trkpt><trkpt lat="43.0115717" lon="11.0873825"><ele>319.6</ele><time>2026-04-26T10:37:22.145Z</time></trkpt><trkpt lat="43.0116819" lon="11.0873645"><ele>321.20000000000005</ele><time>2026-04-26T10:37:23.146Z</time></trkpt><trkpt lat="43.0117876" lon="11.0873327"><ele>322.8</ele><time>2026-04-26T10:37:24.147Z</time></trkpt><trkpt lat="43.0118948" lon="11.0872995"><ele>324.40000000000003</ele><time>2026-04-26T10:37:25.142Z</time></trkpt><trkpt lat="43.0119978" lon="11.0872541"><ele>326.0</ele><time>2026-04-26T10:37:26.142Z</time></trkpt><trkpt lat="43.0120976" lon="11.0872099"><ele>326.0</ele><time>2026-04-26T10:37:27.142Z</time></trkpt><trkpt lat="43.0121968" lon="11.0871818"><ele>326.0</ele><time>2026-04-26T10:37:28.155Z</time></trkpt><trkpt lat="43.0122877" lon="11.0872029"><ele>326.0</ele><time>2026-04-26T10:37:29.142Z</time></trkpt><trkpt lat="43.0123718" lon="11.0872544"><ele>326.0</ele><time>2026-04-26T10:37:30.135Z</time></trkpt><trkpt lat="43.0124543" lon="11.0873136"><ele>326.0</ele><time>2026-04-26T10:37:31.137Z</time></trkpt><trkpt lat="43.0125349" lon="11.0873716"><ele>327.0</ele><time>2026-04-26T10:37:32.14Z</time></trkpt><trkpt lat="43.0126104" lon="11.0873996"><ele>328.0</ele><time>2026-04-26T10:37:33.142Z</time></trkpt><trkpt lat="43.0127054" lon="11.0873882"><ele>329.0</ele><time>2026-04-26T10:37:34.136Z</time></trkpt><trkpt lat="43.0128175" lon="11.0873369"><ele>330.0</ele><time>2026-04-26T10:37:35.133Z</time></trkpt><trkpt lat="43.0129363" lon="11.0872738"><ele>331.0</ele><time>2026-04-26T10:37:36.144Z</time></trkpt><trkpt lat="43.0130515" lon="11.0872134"><ele>331.0</ele><time>2026-04-26T10:37:37.134Z</time></trkpt><trkpt lat="43.0131778" lon="11.0871765"><ele>331.0</ele><time>2026-04-26T10:37:38.127Z</time></trkpt><trkpt lat="43.0132948" lon="11.0871509"><ele>331.0</ele><time>2026-04-26T10:37:39.139Z</time></trkpt><trkpt lat="43.0133972" lon="11.0871313"><ele>331.0</ele><time>2026-04-26T10:37:40.142Z</time></trkpt><trkpt lat="43.0134897" lon="11.0870785"><ele>332.6</ele><time>2026-04-26T10:37:41.155Z</time></trkpt><trkpt lat="43.0135808" lon="11.0870063"><ele>334.20000000000005</ele><time>2026-04-26T10:37:42.126Z</time></trkpt><trkpt lat="43.0136767" lon="11.0869238"><ele>335.79999999999995</ele><time>2026-04-26T10:37:43.145Z</time></trkpt><trkpt lat="43.013773" lon="11.0868438"><ele>337.4</ele><time>2026-04-26T10:37:44.142Z</time></trkpt><trkpt lat="43.0138679" lon="11.0867607"><ele>339.0</ele><time>2026-04-26T10:37:45.145Z</time></trkpt><trkpt lat="43.0139676" lon="11.0866897"><ele>339.0</ele><time>2026-04-26T10:37:46.154Z</time></trkpt><trkpt lat="43.0140717" lon="11.0866308"><ele>339.0</ele><time>2026-04-26T10:37:47.141Z</time></trkpt><trkpt lat="43.0141774" lon="11.0865821"><ele>339.0</ele><time>2026-04-26T10:37:48.142Z</time></trkpt><trkpt lat="43.0142851" lon="11.0865069"><ele>339.0</ele><time>2026-04-26T10:37:49.152Z</time></trkpt><trkpt lat="43.0143773" lon="11.0864201"><ele>338.79999999999995</ele><time>2026-04-26T10:37:50.159Z</time></trkpt><trkpt lat="43.0144749" lon="11.0863381"><ele>338.59999999999997</ele><time>2026-04-26T10:37:51.143Z</time></trkpt><trkpt lat="43.0145759" lon="11.0862662"><ele>338.4</ele><time>2026-04-26T10:37:52.145Z</time></trkpt><trkpt lat="43.014683" lon="11.0862109"><ele>338.2</ele><time>2026-04-26T10:37:53.155Z</time></trkpt><trkpt lat="43.0147714" lon="11.0861837"><ele>338.0</ele><time>2026-04-26T10:37:54.159Z</time></trkpt><trkpt lat="43.0148623" lon="11.0861703"><ele>338.0</ele><time>2026-04-26T10:37:55.144Z</time></trkpt><trkpt lat="43.0149546" lon="11.0861612"><ele>338.0</ele><time>2026-04-26T10:37:56.153Z</time></trkpt><trkpt lat="43.0150518" lon="11.0861586"><ele>338.0</ele><time>2026-04-26T10:37:57.154Z</time></trkpt><trkpt lat="43.0151523" lon="11.0861627"><ele>338.0</ele><time>2026-04-26T10:37:58.142Z</time></trkpt><trkpt lat="43.0152481" lon="11.0861578"><ele>338.0</ele><time>2026-04-26T10:37:59.136Z</time></trkpt><trkpt lat="43.0153343" lon="11.0861367"><ele>338.83333333333337</ele><time>2026-04-26T10:38:00.15Z</time></trkpt><trkpt lat="43.0154043" lon="11.0860669"><ele>339.6666666666667</ele><time>2026-04-26T10:38:01.146Z</time></trkpt><trkpt lat="43.0154777" lon="11.0859948"><ele>340.5</ele><time>2026-04-26T10:38:02.157Z</time></trkpt><trkpt lat="43.0155623" lon="11.0859449"><ele>341.3333333333333</ele><time>2026-04-26T10:38:03.143Z</time></trkpt><trkpt lat="43.015646" lon="11.0859141"><ele>342.16666666666663</ele><time>2026-04-26T10:38:04.154Z</time></trkpt><trkpt lat="43.0157243" lon="11.0858679"><ele>343.0</ele><time>2026-04-26T10:38:05.135Z</time></trkpt><trkpt lat="43.0158078" lon="11.0858106"><ele>341.4</ele><time>2026-04-26T10:38:06.131Z</time></trkpt><trkpt lat="43.0158953" lon="11.0857548"><ele>339.79999999999995</ele><time>2026-04-26T10:38:07.147Z</time></trkpt><trkpt lat="43.0159898" lon="11.0857036"><ele>338.2</ele><time>2026-04-26T10:38:08.136Z</time></trkpt><trkpt lat="43.0160945" lon="11.0856624"><ele>336.6</ele><time>2026-04-26T10:38:09.146Z</time></trkpt><trkpt lat="43.0161971" lon="11.0856265"><ele>335.0</ele><time>2026-04-26T10:38:10.146Z</time></trkpt><trkpt lat="43.0162999" lon="11.085593"><ele>335.0</ele><time>2026-04-26T10:38:11.147Z</time></trkpt><trkpt lat="43.0163974" lon="11.0855751"><ele>335.0</ele><time>2026-04-26T10:38:12.135Z</time></trkpt><trkpt lat="43.0164881" lon="11.0855792"><ele>335.0</ele><time>2026-04-26T10:38:13.132Z</time></trkpt><trkpt lat="43.0165838" lon="11.0855946"><ele>335.0</ele><time>2026-04-26T10:38:14.139Z</time></trkpt><trkpt lat="43.0166734" lon="11.0856109"><ele>335.0</ele><time>2026-04-26T10:38:15.098Z</time></trkpt><trkpt lat="43.0167634" lon="11.0856381"><ele>336.2</ele><time>2026-04-26T10:38:16.147Z</time></trkpt><trkpt lat="43.0168614" lon="11.0856686"><ele>337.4</ele><time>2026-04-26T10:38:17.148Z</time></trkpt><trkpt lat="43.016951" lon="11.0856967"><ele>338.6</ele><time>2026-04-26T10:38:18.141Z</time></trkpt><trkpt lat="43.0170337" lon="11.0856896"><ele>339.8</ele><time>2026-04-26T10:38:19.136Z</time></trkpt><trkpt lat="43.0170993" lon="11.0856426"><ele>341.0</ele><time>2026-04-26T10:38:20.099Z</time></trkpt><trkpt lat="43.0171405" lon="11.0855084"><ele>341.0</ele><time>2026-04-26T10:38:22.126Z</time></trkpt><trkpt lat="43.0170881" lon="11.0853901"><ele>341.0</ele><time>2026-04-26T10:38:24.117Z</time></trkpt><trkpt lat="43.0170238" lon="11.0852638"><ele>341.0</ele><time>2026-04-26T10:38:26.149Z</time></trkpt><trkpt lat="43.0170114" lon="11.0851232"><ele>341.0</ele><time>2026-04-26T10:38:28.128Z</time></trkpt><trkpt lat="43.0170536" lon="11.0850556"><ele>341.0</ele><time>2026-04-26T10:38:29.132Z</time></trkpt><trkpt lat="43.0171039" lon="11.0849776"><ele>341.0</ele><time>2026-04-26T10:38:30.107Z</time></trkpt><trkpt lat="43.0171471" lon="11.0849033"><ele>341.0</ele><time>2026-04-26T10:38:31.108Z</time></trkpt><trkpt lat="43.0171987" lon="11.0848229"><ele>341.0</ele><time>2026-04-26T10:38:32.098Z</time></trkpt><trkpt lat="43.0172516" lon="11.0847521"><ele>341.0</ele><time>2026-04-26T10:38:33.144Z</time></trkpt><trkpt lat="43.0173137" lon="11.0846925"><ele>341.0</ele><time>2026-04-26T10:38:34.109Z</time></trkpt><trkpt lat="43.0173859" lon="11.0846412"><ele>341.0</ele><time>2026-04-26T10:38:35.139Z</time></trkpt><trkpt lat="43.0174616" lon="11.0846081"><ele>343.5</ele><time>2026-04-26T10:38:36.134Z</time></trkpt><trkpt lat="43.0175363" lon="11.0845591"><ele>346.0</ele><time>2026-04-26T10:38:37.117Z</time></trkpt><trkpt lat="43.0176" lon="11.0844686"><ele>348.5</ele><time>2026-04-26T10:38:38.144Z</time></trkpt><trkpt lat="43.0176538" lon="11.0843626"><ele>351.0</ele><time>2026-04-26T10:38:39.139Z</time></trkpt><trkpt lat="43.0177209" lon="11.0842852"><ele>353.5</ele><time>2026-04-26T10:38:40.129Z</time></trkpt><trkpt lat="43.017802" lon="11.0842375"><ele>356.0</ele><time>2026-04-26T10:38:41.147Z</time></trkpt><trkpt lat="43.0178918" lon="11.0842549"><ele>356.0</ele><time>2026-04-26T10:38:42.133Z</time></trkpt><trkpt lat="43.0179791" lon="11.0843047"><ele>356.0</ele><time>2026-04-26T10:38:43.141Z</time></trkpt><trkpt lat="43.0180619" lon="11.0843404"><ele>356.0</ele><time>2026-04-26T10:38:44.142Z</time></trkpt><trkpt lat="43.018135" lon="11.0843357"><ele>356.0</ele><time>2026-04-26T10:38:45.127Z</time></trkpt><trkpt lat="43.0182352" lon="11.0841847"><ele>356.0</ele><time>2026-04-26T10:38:47.113Z</time></trkpt><trkpt lat="43.0182859" lon="11.0840786"><ele>358.6666666666667</ele><time>2026-04-26T10:38:48.127Z</time></trkpt><trkpt lat="43.0183431" lon="11.0839862"><ele>361.33333333333337</ele><time>2026-04-26T10:38:49.151Z</time></trkpt><trkpt lat="43.0184087" lon="11.0838975"><ele>364.0</ele><time>2026-04-26T10:38:50.154Z</time></trkpt><trkpt lat="43.0184737" lon="11.0838214"><ele>366.6666666666667</ele><time>2026-04-26T10:38:51.115Z</time></trkpt><trkpt lat="43.0185465" lon="11.0837682"><ele>369.3333333333333</ele><time>2026-04-26T10:38:52.119Z</time></trkpt><trkpt lat="43.0186326" lon="11.0837299"><ele>372.0</ele><time>2026-04-26T10:38:53.149Z</time></trkpt><trkpt lat="43.018726" lon="11.0837058"><ele>372.0</ele><time>2026-04-26T10:38:54.148Z</time></trkpt><trkpt lat="43.0188196" lon="11.0836621"><ele>372.0</ele><time>2026-04-26T10:38:55.15Z</time></trkpt><trkpt lat="43.0189027" lon="11.0836195"><ele>372.0</ele><time>2026-04-26T10:38:56.134Z</time></trkpt><trkpt lat="43.0189572" lon="11.0835474"><ele>372.0</ele><time>2026-04-26T10:38:57.138Z</time></trkpt><trkpt lat="43.018959" lon="11.0834436"><ele>372.0</ele><time>2026-04-26T10:38:58.152Z</time></trkpt><trkpt lat="43.0189204" lon="11.083337"><ele>372.0</ele><time>2026-04-26T10:38:59.127Z</time></trkpt><trkpt lat="43.01887" lon="11.0832436"><ele>370.20000000000005</ele><time>2026-04-26T10:39:00.133Z</time></trkpt><trkpt lat="43.0188928" lon="11.0830868"><ele>368.4</ele><time>2026-04-26T10:39:02.149Z</time></trkpt><trkpt lat="43.0189716" lon="11.0830294"><ele>366.6</ele><time>2026-04-26T10:39:03.135Z</time></trkpt><trkpt lat="43.0190658" lon="11.0829935"><ele>364.79999999999995</ele><time>2026-04-26T10:39:04.135Z</time></trkpt><trkpt lat="43.0191743" lon="11.0829513"><ele>363.0</ele><time>2026-04-26T10:39:05.15Z</time></trkpt><trkpt lat="43.0192794" lon="11.0829059"><ele>366.79999999999995</ele><time>2026-04-26T10:39:06.156Z</time></trkpt><trkpt lat="43.0193595" lon="11.0828576"><ele>370.6</ele><time>2026-04-26T10:39:07.141Z</time></trkpt><trkpt lat="43.0194219" lon="11.0828094"><ele>374.4</ele><time>2026-04-26T10:39:08.152Z</time></trkpt><trkpt lat="43.0195102" lon="11.0827245"><ele>378.20000000000005</ele><time>2026-04-26T10:39:10.158Z</time></trkpt><trkpt lat="43.0196395" lon="11.0826484"><ele>382.0</ele><time>2026-04-26T10:39:12.142Z</time></trkpt><trkpt lat="43.0197338" lon="11.0826418"><ele>382.0</ele><time>2026-04-26T10:39:13.144Z</time></trkpt><trkpt lat="43.0198254" lon="11.0826562"><ele>382.0</ele><time>2026-04-26T10:39:14.124Z</time></trkpt><trkpt lat="43.0199089" lon="11.082684"><ele>382.0</ele><time>2026-04-26T10:39:15.154Z</time></trkpt><trkpt lat="43.0199874" lon="11.0827109"><ele>382.0</ele><time>2026-04-26T10:39:16.149Z</time></trkpt><trkpt lat="43.020072" lon="11.0827076"><ele>382.0</ele><time>2026-04-26T10:39:17.125Z</time></trkpt><trkpt lat="43.0201513" lon="11.0826413"><ele>382.0</ele><time>2026-04-26T10:39:18.145Z</time></trkpt><trkpt lat="43.0202586" lon="11.0825805"><ele>380.75</ele><time>2026-04-26T10:39:19.133Z</time></trkpt><trkpt lat="43.0203705" lon="11.0825273"><ele>379.5</ele><time>2026-04-26T10:39:20.137Z</time></trkpt><trkpt lat="43.0204835" lon="11.0824829"><ele>378.25</ele><time>2026-04-26T10:39:21.133Z</time></trkpt><trkpt lat="43.0205953" lon="11.0824307"><ele>377.0</ele><time>2026-04-26T10:39:22.12Z</time></trkpt><trkpt lat="43.0207181" lon="11.0823651"><ele>380.25</ele><time>2026-04-26T10:39:23.13Z</time></trkpt><trkpt lat="43.0208424" lon="11.0823279"><ele>383.5</ele><time>2026-04-26T10:39:24.152Z</time></trkpt><trkpt lat="43.0209655" lon="11.0823138"><ele>386.75</ele><time>2026-04-26T10:39:25.139Z</time></trkpt><trkpt lat="43.0210765" lon="11.082313"><ele>390.0</ele><time>2026-04-26T10:39:26.133Z</time></trkpt><trkpt lat="43.0211685" lon="11.0822846"><ele>390.0</ele><time>2026-04-26T10:39:27.147Z</time></trkpt><trkpt lat="43.0212551" lon="11.082228"><ele>390.0</ele><time>2026-04-26T10:39:28.149Z</time></trkpt><trkpt lat="43.0213447" lon="11.0821578"><ele>390.0</ele><time>2026-04-26T10:39:29.151Z</time></trkpt><trkpt lat="43.0214426" lon="11.0821228"><ele>390.0</ele><time>2026-04-26T10:39:30.147Z</time></trkpt><trkpt lat="43.0215429" lon="11.0821333"><ele>390.0</ele><time>2026-04-26T10:39:31.127Z</time></trkpt><trkpt lat="43.0216422" lon="11.0821647"><ele>391.8333333333333</ele><time>2026-04-26T10:39:32.138Z</time></trkpt><trkpt lat="43.0217369" lon="11.0822003"><ele>393.66666666666663</ele><time>2026-04-26T10:39:33.137Z</time></trkpt><trkpt lat="43.0218202" lon="11.0822133"><ele>395.5</ele><time>2026-04-26T10:39:34.154Z</time></trkpt><trkpt lat="43.0218985" lon="11.0821906"><ele>397.3333333333333</ele><time>2026-04-26T10:39:35.137Z</time></trkpt><trkpt lat="43.0219664" lon="11.0821391"><ele>399.16666666666663</ele><time>2026-04-26T10:39:36.128Z</time></trkpt><trkpt lat="43.0220259" lon="11.0820698"><ele>401.0</ele><time>2026-04-26T10:39:37.14Z</time></trkpt><trkpt lat="43.0220904" lon="11.0819953"><ele>400.99999999999994</ele><time>2026-04-26T10:39:38.14Z</time></trkpt><trkpt lat="43.0221644" lon="11.0819289"><ele>401.0</ele><time>2026-04-26T10:39:39.131Z</time></trkpt><trkpt lat="43.0222466" lon="11.0818807"><ele>401.0</ele><time>2026-04-26T10:39:40.154Z</time></trkpt><trkpt lat="43.022318" lon="11.0818568"><ele>401.0</ele><time>2026-04-26T10:39:41.134Z</time></trkpt><trkpt lat="43.0223938" lon="11.0818758"><ele>400.99999999999994</ele><time>2026-04-26T10:39:42.135Z</time></trkpt><trkpt lat="43.0224747" lon="11.0819304"><ele>401.0</ele><time>2026-04-26T10:39:43.144Z</time></trkpt><trkpt lat="43.0225539" lon="11.0819946"><ele>404.0</ele><time>2026-04-26T10:39:44.13Z</time></trkpt><trkpt lat="43.0226357" lon="11.082059"><ele>407.0</ele><time>2026-04-26T10:39:45.131Z</time></trkpt><trkpt lat="43.0227154" lon="11.0821295"><ele>410.0</ele><time>2026-04-26T10:39:46.14Z</time></trkpt><trkpt lat="43.022795" lon="11.0822072"><ele>413.0</ele><time>2026-04-26T10:39:47.151Z</time></trkpt><trkpt lat="43.0228798" lon="11.0822732"><ele>416.0</ele><time>2026-04-26T10:39:48.137Z</time></trkpt><trkpt lat="43.0229679" lon="11.0823425"><ele>416.0</ele><time>2026-04-26T10:39:49.13Z</time></trkpt><trkpt lat="43.023054" lon="11.0824145"><ele>416.0</ele><time>2026-04-26T10:39:50.136Z</time></trkpt><trkpt lat="43.0231391" lon="11.0824857"><ele>416.0</ele><time>2026-04-26T10:39:51.127Z</time></trkpt><trkpt lat="43.0232284" lon="11.0825461"><ele>416.0</ele><time>2026-04-26T10:39:52.142Z</time></trkpt><trkpt lat="43.0233172" lon="11.0826009"><ele>416.0</ele><time>2026-04-26T10:39:53.148Z</time></trkpt><trkpt lat="43.0234177" lon="11.082645"><ele>420.0</ele><time>2026-04-26T10:39:54.132Z</time></trkpt><trkpt lat="43.0235127" lon="11.0826857"><ele>424.0</ele><time>2026-04-26T10:39:55.137Z</time></trkpt><trkpt lat="43.0236095" lon="11.0827224"><ele>428.0</ele><time>2026-04-26T10:39:56.135Z</time></trkpt><trkpt lat="43.0236992" lon="11.0827536"><ele>432.0</ele><time>2026-04-26T10:39:57.133Z</time></trkpt><trkpt lat="43.0237892" lon="11.0827844"><ele>436.0</ele><time>2026-04-26T10:39:58.114Z</time></trkpt><trkpt lat="43.0238833" lon="11.082799"><ele>436.0</ele><time>2026-04-26T10:39:59.147Z</time></trkpt><trkpt lat="43.0239815" lon="11.0827583"><ele>436.0</ele><time>2026-04-26T10:40:00.136Z</time></trkpt><trkpt lat="43.0240839" lon="11.0827039"><ele>436.0</ele><time>2026-04-26T10:40:01.151Z</time></trkpt><trkpt lat="43.0241861" lon="11.0826725"><ele>436.0</ele><time>2026-04-26T10:40:02.135Z</time></trkpt><trkpt lat="43.0242954" lon="11.0826773"><ele>436.0</ele><time>2026-04-26T10:40:03.143Z</time></trkpt><trkpt lat="43.0244008" lon="11.082682"><ele>437.0</ele><time>2026-04-26T10:40:04.136Z</time></trkpt><trkpt lat="43.0244889" lon="11.082738"><ele>438.0</ele><time>2026-04-26T10:40:05.145Z</time></trkpt><trkpt lat="43.0245671" lon="11.0828172"><ele>439.0</ele><time>2026-04-26T10:40:06.135Z</time></trkpt><trkpt lat="43.0246428" lon="11.0828996"><ele>440.0</ele><time>2026-04-26T10:40:07.126Z</time></trkpt><trkpt lat="43.0247196" lon="11.0829805"><ele>441.0</ele><time>2026-04-26T10:40:08.146Z</time></trkpt><trkpt lat="43.0247952" lon="11.0830515"><ele>441.0</ele><time>2026-04-26T10:40:09.151Z</time></trkpt><trkpt lat="43.0248688" lon="11.0831178"><ele>441.0</ele><time>2026-04-26T10:40:10.142Z</time></trkpt><trkpt lat="43.0249512" lon="11.0831793"><ele>441.0</ele><time>2026-04-26T10:40:11.142Z</time></trkpt><trkpt lat="43.0250387" lon="11.0832325"><ele>441.0</ele><time>2026-04-26T10:40:12.161Z</time></trkpt><trkpt lat="43.0251215" lon="11.0832774"><ele>441.0</ele><time>2026-04-26T10:40:13.135Z</time></trkpt><trkpt lat="43.0251885" lon="11.0833103"><ele>441.0</ele><time>2026-04-26T10:40:14.142Z</time></trkpt><trkpt lat="43.0252532" lon="11.0833181"><ele>442.6</ele><time>2026-04-26T10:40:15.134Z</time></trkpt><trkpt lat="43.0253407" lon="11.0832479"><ele>444.20000000000005</ele><time>2026-04-26T10:40:17.143Z</time></trkpt><trkpt lat="43.0253661" lon="11.083125"><ele>445.79999999999995</ele><time>2026-04-26T10:40:19.133Z</time></trkpt><trkpt lat="43.0253769" lon="11.0829602"><ele>447.4</ele><time>2026-04-26T10:40:21.149Z</time></trkpt><trkpt lat="43.0254712" lon="11.0829379"><ele>449.0</ele><time>2026-04-26T10:40:23.143Z</time></trkpt><trkpt lat="43.0255582" lon="11.0830401"><ele>448.99999999999994</ele><time>2026-04-26T10:40:25.151Z</time></trkpt><trkpt lat="43.0256054" lon="11.0831056"><ele>449.0</ele><time>2026-04-26T10:40:26.137Z</time></trkpt><trkpt lat="43.0256609" lon="11.0831648"><ele>449.0</ele><time>2026-04-26T10:40:27.147Z</time></trkpt><trkpt lat="43.0257223" lon="11.083211"><ele>449.0</ele><time>2026-04-26T10:40:28.142Z</time></trkpt><trkpt lat="43.0257869" lon="11.0832699"><ele>448.99999999999994</ele><time>2026-04-26T10:40:29.122Z</time></trkpt><trkpt lat="43.0258556" lon="11.0833518"><ele>449.0</ele><time>2026-04-26T10:40:30.149Z</time></trkpt><trkpt lat="43.0259204" lon="11.083448"><ele>451.2</ele><time>2026-04-26T10:40:31.142Z</time></trkpt><trkpt lat="43.0259909" lon="11.0835507"><ele>453.4</ele><time>2026-04-26T10:40:32.143Z</time></trkpt><trkpt lat="43.0260715" lon="11.0836431"><ele>455.6</ele><time>2026-04-26T10:40:33.129Z</time></trkpt><trkpt lat="43.0261615" lon="11.0837186"><ele>457.8</ele><time>2026-04-26T10:40:34.141Z</time></trkpt><trkpt lat="43.026251" lon="11.0837786"><ele>460.0</ele><time>2026-04-26T10:40:35.138Z</time></trkpt><trkpt lat="43.0263534" lon="11.0838145"><ele>460.00000000000006</ele><time>2026-04-26T10:40:36.143Z</time></trkpt><trkpt lat="43.0264567" lon="11.0838512"><ele>460.0</ele><time>2026-04-26T10:40:37.124Z</time></trkpt><trkpt lat="43.0265459" lon="11.0838848"><ele>460.0</ele><time>2026-04-26T10:40:38.122Z</time></trkpt><trkpt lat="43.026624" lon="11.0839215"><ele>460.0</ele><time>2026-04-26T10:40:39.139Z</time></trkpt><trkpt lat="43.0266995" lon="11.0839559"><ele>460.00000000000006</ele><time>2026-04-26T10:40:40.136Z</time></trkpt><trkpt lat="43.0267709" lon="11.0839424"><ele>460.0</ele><time>2026-04-26T10:40:41.16Z</time></trkpt><trkpt lat="43.0268534" lon="11.0838866"><ele>462.4</ele><time>2026-04-26T10:40:42.145Z</time></trkpt><trkpt lat="43.0269268" lon="11.0838048"><ele>464.8</ele><time>2026-04-26T10:40:43.135Z</time></trkpt><trkpt lat="43.0269992" lon="11.0837117"><ele>467.20000000000005</ele><time>2026-04-26T10:40:44.129Z</time></trkpt><trkpt lat="43.0270779" lon="11.0836196"><ele>469.6</ele><time>2026-04-26T10:40:45.141Z</time></trkpt><trkpt lat="43.027161" lon="11.0835316"><ele>472.0</ele><time>2026-04-26T10:40:46.111Z</time></trkpt><trkpt lat="43.0272378" lon="11.0834439"><ele>472.00000000000006</ele><time>2026-04-26T10:40:47.143Z</time></trkpt><trkpt lat="43.0273145" lon="11.0833637"><ele>472.0</ele><time>2026-04-26T10:40:48.137Z</time></trkpt><trkpt lat="43.0273851" lon="11.0832917"><ele>472.0</ele><time>2026-04-26T10:40:49.149Z</time></trkpt><trkpt lat="43.0274373" lon="11.0832072"><ele>472.0</ele><time>2026-04-26T10:40:50.134Z</time></trkpt><trkpt lat="43.0274652" lon="11.0831242"><ele>472.00000000000006</ele><time>2026-04-26T10:40:51.143Z</time></trkpt><trkpt lat="43.0274687" lon="11.0830374"><ele>472.0</ele><time>2026-04-26T10:40:52.13Z</time></trkpt><trkpt lat="43.0273926" lon="11.0828966"><ele>473.42857142857144</ele><time>2026-04-26T10:40:54.141Z</time></trkpt><trkpt lat="43.0273304" lon="11.0828341"><ele>474.8571428571429</ele><time>2026-04-26T10:40:55.16Z</time></trkpt><trkpt lat="43.0272615" lon="11.0827868"><ele>476.28571428571433</ele><time>2026-04-26T10:40:56.144Z</time></trkpt><trkpt lat="43.027195" lon="11.0827378"><ele>477.7142857142857</ele><time>2026-04-26T10:40:57.128Z</time></trkpt><trkpt lat="43.0271528" lon="11.0826701"><ele>479.1428571428572</ele><time>2026-04-26T10:40:58.133Z</time></trkpt><trkpt lat="43.027139" lon="11.0825858"><ele>480.5714285714286</ele><time>2026-04-26T10:40:59.134Z</time></trkpt><trkpt lat="43.0271801" lon="11.0825199"><ele>482.0</ele><time>2026-04-26T10:41:00.139Z</time></trkpt><trkpt lat="43.0272482" lon="11.0824836"><ele>481.99999999999994</ele><time>2026-04-26T10:41:01.141Z</time></trkpt><trkpt lat="43.0273224" lon="11.0824505"><ele>482.0</ele><time>2026-04-26T10:41:02.129Z</time></trkpt><trkpt lat="43.0273915" lon="11.0824064"><ele>482.0</ele><time>2026-04-26T10:41:03.142Z</time></trkpt><trkpt lat="43.027457" lon="11.0823352"><ele>482.0</ele><time>2026-04-26T10:41:04.153Z</time></trkpt><trkpt lat="43.0275236" lon="11.0822566"><ele>481.99999999999994</ele><time>2026-04-26T10:41:05.135Z</time></trkpt><trkpt lat="43.0275866" lon="11.0821918"><ele>482.0</ele><time>2026-04-26T10:41:06.153Z</time></trkpt><trkpt lat="43.0276444" lon="11.0821262"><ele>486.3333333333333</ele><time>2026-04-26T10:41:07.14Z</time></trkpt><trkpt lat="43.0276942" lon="11.0820643"><ele>490.66666666666663</ele><time>2026-04-26T10:41:08.133Z</time></trkpt><trkpt lat="43.0277402" lon="11.0820028"><ele>495.0</ele><time>2026-04-26T10:41:09.133Z</time></trkpt><trkpt lat="43.0278428" lon="11.0818997"><ele>499.33333333333337</ele><time>2026-04-26T10:41:11.137Z</time></trkpt><trkpt lat="43.0279038" lon="11.081876"><ele>503.6666666666667</ele><time>2026-04-26T10:41:12.137Z</time></trkpt><trkpt lat="43.0280088" lon="11.0818527"><ele>508.0</ele><time>2026-04-26T10:41:14.142Z</time></trkpt><trkpt lat="43.0280809" lon="11.0818528"><ele>508.0</ele><time>2026-04-26T10:41:17.136Z</time></trkpt><trkpt lat="43.0281531" lon="11.0817992"><ele>507.99999999999994</ele><time>2026-04-26T10:41:19.14Z</time></trkpt><trkpt lat="43.0282334" lon="11.081749"><ele>507.99999999999994</ele><time>2026-04-26T10:41:20.116Z</time></trkpt><trkpt lat="43.0283298" lon="11.0816958"><ele>508.0</ele><time>2026-04-26T10:41:21.138Z</time></trkpt><trkpt lat="43.0284273" lon="11.0816528"><ele>508.0</ele><time>2026-04-26T10:41:22.144Z</time></trkpt><trkpt lat="43.0285126" lon="11.0816165"><ele>509.42857142857144</ele><time>2026-04-26T10:41:23.121Z</time></trkpt><trkpt lat="43.0285689" lon="11.0815758"><ele>510.85714285714283</ele><time>2026-04-26T10:41:24.135Z</time></trkpt><trkpt lat="43.0286327" lon="11.0815661"><ele>512.2857142857142</ele><time>2026-04-26T10:41:26.142Z</time></trkpt><trkpt lat="43.0287127" lon="11.0816475"><ele>513.7142857142858</ele><time>2026-04-26T10:41:28.133Z</time></trkpt><trkpt lat="43.0287651" lon="11.0816983"><ele>515.1428571428571</ele><time>2026-04-26T10:41:29.145Z</time></trkpt><trkpt lat="43.0288207" lon="11.081748"><ele>516.5714285714286</ele><time>2026-04-26T10:41:30.128Z</time></trkpt><trkpt lat="43.028891" lon="11.0817803"><ele>518.0</ele><time>2026-04-26T10:41:31.138Z</time></trkpt><trkpt lat="43.0289756" lon="11.0817978"><ele>518.0</ele><time>2026-04-26T10:41:32.145Z</time></trkpt><trkpt lat="43.0290603" lon="11.0818302"><ele>518.0</ele><time>2026-04-26T10:41:33.147Z</time></trkpt><trkpt lat="43.0291527" lon="11.0818682"><ele>518.0</ele><time>2026-04-26T10:41:34.163Z</time></trkpt><trkpt lat="43.0292505" lon="11.0819068"><ele>518.0</ele><time>2026-04-26T10:41:35.138Z</time></trkpt><trkpt lat="43.0293568" lon="11.081926"><ele>518.0</ele><time>2026-04-26T10:41:36.131Z</time></trkpt><trkpt lat="43.0294594" lon="11.081948"><ele>518.4</ele><time>2026-04-26T10:41:37.139Z</time></trkpt><trkpt lat="43.029559" lon="11.0819762"><ele>518.8</ele><time>2026-04-26T10:41:38.141Z</time></trkpt><trkpt lat="43.0296564" lon="11.0820184"><ele>519.2</ele><time>2026-04-26T10:41:39.145Z</time></trkpt><trkpt lat="43.0297509" lon="11.0820666"><ele>519.6</ele><time>2026-04-26T10:41:40.134Z</time></trkpt><trkpt lat="43.029847" lon="11.0821207"><ele>520.0</ele><time>2026-04-26T10:41:41.133Z</time></trkpt><trkpt lat="43.0299419" lon="11.0821728"><ele>520.8</ele><time>2026-04-26T10:41:42.139Z</time></trkpt><trkpt lat="43.0300447" lon="11.0822206"><ele>521.6</ele><time>2026-04-26T10:41:43.146Z</time></trkpt><trkpt lat="43.0301433" lon="11.0822604"><ele>522.4</ele><time>2026-04-26T10:41:44.141Z</time></trkpt><trkpt lat="43.0302401" lon="11.0822966"><ele>523.2</ele><time>2026-04-26T10:41:45.142Z</time></trkpt><trkpt lat="43.0303278" lon="11.0823301"><ele>524.0</ele><time>2026-04-26T10:41:46.118Z</time></trkpt><trkpt lat="43.0304164" lon="11.08237"><ele>524.0</ele><time>2026-04-26T10:41:47.131Z</time></trkpt><trkpt lat="43.0305074" lon="11.0824176"><ele>524.0</ele><time>2026-04-26T10:41:48.141Z</time></trkpt><trkpt lat="43.0305953" lon="11.0824819"><ele>524.0</ele><time>2026-04-26T10:41:49.147Z</time></trkpt><trkpt lat="43.0306809" lon="11.0825333"><ele>524.0</ele><time>2026-04-26T10:41:50.117Z</time></trkpt><trkpt lat="43.0307697" lon="11.0825959"><ele>524.0</ele><time>2026-04-26T10:41:51.14Z</time></trkpt><trkpt lat="43.030854" lon="11.0826551"><ele>525.0</ele><time>2026-04-26T10:41:52.135Z</time></trkpt><trkpt lat="43.0309375" lon="11.082724"><ele>526.0</ele><time>2026-04-26T10:41:53.131Z</time></trkpt><trkpt lat="43.0310086" lon="11.0828001"><ele>527.0</ele><time>2026-04-26T10:41:54.151Z</time></trkpt><trkpt lat="43.0310762" lon="11.0828702"><ele>528.0</ele><time>2026-04-26T10:41:55.143Z</time></trkpt><trkpt lat="43.031139" lon="11.082938"><ele>529.0</ele><time>2026-04-26T10:41:56.143Z</time></trkpt><trkpt lat="43.0312008" lon="11.0830064"><ele>530.0</ele><time>2026-04-26T10:41:57.133Z</time></trkpt><trkpt lat="43.0312697" lon="11.0830605"><ele>530.0</ele><time>2026-04-26T10:41:58.148Z</time></trkpt><trkpt lat="43.0313476" lon="11.0830975"><ele>530.0</ele><time>2026-04-26T10:41:59.152Z</time></trkpt><trkpt lat="43.0314399" lon="11.0831164"><ele>530.0</ele><time>2026-04-26T10:42:00.154Z</time></trkpt><trkpt lat="43.0315414" lon="11.0831243"><ele>530.0</ele><time>2026-04-26T10:42:01.141Z</time></trkpt><trkpt lat="43.0316353" lon="11.0831467"><ele>530.0</ele><time>2026-04-26T10:42:02.143Z</time></trkpt><trkpt lat="43.0317227" lon="11.0831882"><ele>530.1666666666666</ele><time>2026-04-26T10:42:03.132Z</time></trkpt><trkpt lat="43.0318041" lon="11.0832377"><ele>530.3333333333333</ele><time>2026-04-26T10:42:04.135Z</time></trkpt><trkpt lat="43.0318887" lon="11.0832895"><ele>530.5</ele><time>2026-04-26T10:42:05.141Z</time></trkpt><trkpt lat="43.0319709" lon="11.0833436"><ele>530.6666666666666</ele><time>2026-04-26T10:42:06.154Z</time></trkpt><trkpt lat="43.0320472" lon="11.0833922"><ele>530.8333333333334</ele><time>2026-04-26T10:42:07.148Z</time></trkpt><trkpt lat="43.032126" lon="11.0834386"><ele>531.0</ele><time>2026-04-26T10:42:08.146Z</time></trkpt><trkpt lat="43.0322033" lon="11.0834897"><ele>532.6666666666666</ele><time>2026-04-26T10:42:09.134Z</time></trkpt><trkpt lat="43.0322813" lon="11.0835357"><ele>534.3333333333334</ele><time>2026-04-26T10:42:10.166Z</time></trkpt><trkpt lat="43.0323633" lon="11.0835797"><ele>536.0</ele><time>2026-04-26T10:42:11.147Z</time></trkpt><trkpt lat="43.0324472" lon="11.0836131"><ele>537.6666666666667</ele><time>2026-04-26T10:42:12.152Z</time></trkpt><trkpt lat="43.0325319" lon="11.0836388"><ele>539.3333333333334</ele><time>2026-04-26T10:42:13.153Z</time></trkpt><trkpt lat="43.0326216" lon="11.0836676"><ele>541.0</ele><time>2026-04-26T10:42:14.155Z</time></trkpt><trkpt lat="43.0327089" lon="11.083706"><ele>542.0</ele><time>2026-04-26T10:42:15.141Z</time></trkpt><trkpt lat="43.0327937" lon="11.0837474"><ele>543.0</ele><time>2026-04-26T10:42:16.144Z</time></trkpt><trkpt lat="43.0328734" lon="11.0837819"><ele>544.0</ele><time>2026-04-26T10:42:17.149Z</time></trkpt><trkpt lat="43.0329541" lon="11.0838205"><ele>545.0</ele><time>2026-04-26T10:42:18.136Z</time></trkpt><trkpt lat="43.0330375" lon="11.0838546"><ele>546.0</ele><time>2026-04-26T10:42:19.147Z</time></trkpt><trkpt lat="43.0331242" lon="11.0838822"><ele>547.0</ele><time>2026-04-26T10:42:20.152Z</time></trkpt><trkpt lat="43.0332152" lon="11.0838934"><ele>547.0</ele><time>2026-04-26T10:42:21.15Z</time></trkpt><trkpt lat="43.0333014" lon="11.0838875"><ele>547.0</ele><time>2026-04-26T10:42:22.156Z</time></trkpt><trkpt lat="43.0333825" lon="11.0838698"><ele>547.0</ele><time>2026-04-26T10:42:23.135Z</time></trkpt><trkpt lat="43.033466" lon="11.0838416"><ele>547.0</ele><time>2026-04-26T10:42:24.141Z</time></trkpt><trkpt lat="43.0335561" lon="11.0838167"><ele>547.0</ele><time>2026-04-26T10:42:25.143Z</time></trkpt><trkpt lat="43.0336532" lon="11.0837733"><ele>547.0</ele><time>2026-04-26T10:42:26.139Z</time></trkpt><trkpt lat="43.0337489" lon="11.0837346"><ele>546.8000000000001</ele><time>2026-04-26T10:42:27.121Z</time></trkpt><trkpt lat="43.0338476" lon="11.0836991"><ele>546.6</ele><time>2026-04-26T10:42:28.138Z</time></trkpt><trkpt lat="43.0339429" lon="11.0836678"><ele>546.4000000000001</ele><time>2026-04-26T10:42:29.141Z</time></trkpt><trkpt lat="43.0340294" lon="11.0836491"><ele>546.2</ele><time>2026-04-26T10:42:30.145Z</time></trkpt><trkpt lat="43.0341137" lon="11.08364"><ele>546.0</ele><time>2026-04-26T10:42:31.142Z</time></trkpt><trkpt lat="43.0341943" lon="11.0836473"><ele>547.1666666666666</ele><time>2026-04-26T10:42:32.14Z</time></trkpt><trkpt lat="43.0342772" lon="11.083673"><ele>548.3333333333334</ele><time>2026-04-26T10:42:33.157Z</time></trkpt><trkpt lat="43.0343598" lon="11.0837015"><ele>549.5</ele><time>2026-04-26T10:42:34.149Z</time></trkpt><trkpt lat="43.0344454" lon="11.0837294"><ele>550.6666666666667</ele><time>2026-04-26T10:42:35.131Z</time></trkpt><trkpt lat="43.0345296" lon="11.0837647"><ele>551.8333333333334</ele><time>2026-04-26T10:42:36.146Z</time></trkpt><trkpt lat="43.034611" lon="11.0838045"><ele>553.0</ele><time>2026-04-26T10:42:37.152Z</time></trkpt><trkpt lat="43.0346927" lon="11.0838349"><ele>553.0</ele><time>2026-04-26T10:42:38.146Z</time></trkpt><trkpt lat="43.0347693" lon="11.0838632"><ele>553.0</ele><time>2026-04-26T10:42:39.15Z</time></trkpt><trkpt lat="43.0348462" lon="11.0838657"><ele>553.0</ele><time>2026-04-26T10:42:40.139Z</time></trkpt><trkpt lat="43.034926" lon="11.0838454"><ele>553.0</ele><time>2026-04-26T10:42:41.11Z</time></trkpt><trkpt lat="43.035013" lon="11.0838221"><ele>553.0</ele><time>2026-04-26T10:42:42.138Z</time></trkpt><trkpt lat="43.0350954" lon="11.0838021"><ele>553.0</ele><time>2026-04-26T10:42:43.139Z</time></trkpt><trkpt lat="43.0351705" lon="11.0837936"><ele>553.5</ele><time>2026-04-26T10:42:44.148Z</time></trkpt><trkpt lat="43.0352438" lon="11.0837945"><ele>554.0</ele><time>2026-04-26T10:42:45.137Z</time></trkpt><trkpt lat="43.0353216" lon="11.0838144"><ele>554.5</ele><time>2026-04-26T10:42:46.137Z</time></trkpt><trkpt lat="43.0353974" lon="11.0838344"><ele>555.0</ele><time>2026-04-26T10:42:47.136Z</time></trkpt><trkpt lat="43.0354652" lon="11.0838557"><ele>555.5</ele><time>2026-04-26T10:42:48.146Z</time></trkpt><trkpt lat="43.035574" lon="11.083935"><ele>556.0</ele><time>2026-04-26T10:42:50.145Z</time></trkpt><trkpt lat="43.0356659" lon="11.0840139"><ele>556.0</ele><time>2026-04-26T10:42:52.15Z</time></trkpt><trkpt lat="43.0357775" lon="11.0840112"><ele>556.0</ele><time>2026-04-26T10:42:54.148Z</time></trkpt><trkpt lat="43.0358381" lon="11.0839627"><ele>556.0</ele><time>2026-04-26T10:42:55.139Z</time></trkpt><trkpt lat="43.0358909" lon="11.0838998"><ele>556.0</ele><time>2026-04-26T10:42:56.13Z</time></trkpt><trkpt lat="43.0359477" lon="11.0838266"><ele>556.0</ele><time>2026-04-26T10:42:57.13Z</time></trkpt><trkpt lat="43.0360038" lon="11.0837588"><ele>556.0</ele><time>2026-04-26T10:42:58.153Z</time></trkpt><trkpt lat="43.0361159" lon="11.0836939"><ele>557.8571428571429</ele><time>2026-04-26T10:43:00.148Z</time></trkpt><trkpt lat="43.0361803" lon="11.083718"><ele>559.7142857142858</ele><time>2026-04-26T10:43:01.145Z</time></trkpt><trkpt lat="43.0362355" lon="11.0837781"><ele>561.5714285714287</ele><time>2026-04-26T10:43:02.156Z</time></trkpt><trkpt lat="43.0362846" lon="11.0838434"><ele>563.4285714285714</ele><time>2026-04-26T10:43:03.141Z</time></trkpt><trkpt lat="43.0363441" lon="11.083914"><ele>565.2857142857143</ele><time>2026-04-26T10:43:04.099Z</time></trkpt><trkpt lat="43.0364049" lon="11.083987"><ele>567.1428571428572</ele><time>2026-04-26T10:43:05.137Z</time></trkpt><trkpt lat="43.0364686" lon="11.084034"><ele>569.0</ele><time>2026-04-26T10:43:06.169Z</time></trkpt><trkpt lat="43.0365391" lon="11.0840501"><ele>569.0</ele><time>2026-04-26T10:43:07.139Z</time></trkpt><trkpt lat="43.0366018" lon="11.0840217"><ele>569.0</ele><time>2026-04-26T10:43:08.146Z</time></trkpt><trkpt lat="43.0366738" lon="11.0839558"><ele>569.0</ele><time>2026-04-26T10:43:09.126Z</time></trkpt><trkpt lat="43.0367416" lon="11.0838768"><ele>569.0</ele><time>2026-04-26T10:43:10.132Z</time></trkpt><trkpt lat="43.036802" lon="11.0838101"><ele>569.0</ele><time>2026-04-26T10:43:11.139Z</time></trkpt><trkpt lat="43.0368702" lon="11.0837541"><ele>569.0</ele><time>2026-04-26T10:43:12.134Z</time></trkpt><trkpt lat="43.036938" lon="11.0837007"><ele>572.3333333333333</ele><time>2026-04-26T10:43:13.13Z</time></trkpt><trkpt lat="43.0370034" lon="11.0836684"><ele>575.6666666666666</ele><time>2026-04-26T10:43:14.14Z</time></trkpt><trkpt lat="43.0370731" lon="11.0836516"><ele>579.0</ele><time>2026-04-26T10:43:15.134Z</time></trkpt><trkpt lat="43.0371373" lon="11.0836393"><ele>582.3333333333334</ele><time>2026-04-26T10:43:16.124Z</time></trkpt><trkpt lat="43.0371968" lon="11.0835659"><ele>585.6666666666667</ele><time>2026-04-26T10:43:18.137Z</time></trkpt><trkpt lat="43.0371705" lon="11.0834156"><ele>589.0</ele><time>2026-04-26T10:43:20.138Z</time></trkpt><trkpt lat="43.0371427" lon="11.0833151"><ele>588.6666666666667</ele><time>2026-04-26T10:43:21.123Z</time></trkpt><trkpt lat="43.037115" lon="11.0832134"><ele>588.3333333333334</ele><time>2026-04-26T10:43:22.133Z</time></trkpt><trkpt lat="43.0371046" lon="11.0830912"><ele>588.0</ele><time>2026-04-26T10:43:23.116Z</time></trkpt><trkpt lat="43.0371055" lon="11.0829699"><ele>587.6666666666666</ele><time>2026-04-26T10:43:24.125Z</time></trkpt><trkpt lat="43.0371024" lon="11.0828478"><ele>587.3333333333333</ele><time>2026-04-26T10:43:25.123Z</time></trkpt><trkpt lat="43.0370998" lon="11.0827223"><ele>587.0</ele><time>2026-04-26T10:43:26.117Z</time></trkpt><trkpt lat="43.0371038" lon="11.0825882"><ele>587.0</ele><time>2026-04-26T10:43:27.147Z</time></trkpt><trkpt lat="43.0371079" lon="11.0824641"><ele>587.0</ele><time>2026-04-26T10:43:28.136Z</time></trkpt><trkpt lat="43.0371202" lon="11.0823402"><ele>587.0</ele><time>2026-04-26T10:43:29.135Z</time></trkpt><trkpt lat="43.0371395" lon="11.0822205"><ele>587.0</ele><time>2026-04-26T10:43:30.127Z</time></trkpt><trkpt lat="43.0371651" lon="11.082101"><ele>587.0</ele><time>2026-04-26T10:43:31.13Z</time></trkpt><trkpt lat="43.0371967" lon="11.0819932"><ele>587.0</ele><time>2026-04-26T10:43:32.139Z</time></trkpt><trkpt lat="43.03723" lon="11.0818937"><ele>586.5</ele><time>2026-04-26T10:43:33.122Z</time></trkpt><trkpt lat="43.0372758" lon="11.0818123"><ele>586.0</ele><time>2026-04-26T10:43:34.129Z</time></trkpt><trkpt lat="43.0373387" lon="11.0817605"><ele>585.5</ele><time>2026-04-26T10:43:35.123Z</time></trkpt><trkpt lat="43.0374118" lon="11.0817238"><ele>585.0</ele><time>2026-04-26T10:43:36.134Z</time></trkpt><trkpt lat="43.0374899" lon="11.0816885"><ele>584.5</ele><time>2026-04-26T10:43:37.14Z</time></trkpt><trkpt lat="43.0375702" lon="11.0816547"><ele>584.0</ele><time>2026-04-26T10:43:38.145Z</time></trkpt><trkpt lat="43.0376538" lon="11.0816175"><ele>588.0</ele><time>2026-04-26T10:43:39.137Z</time></trkpt><trkpt lat="43.0377414" lon="11.081594"><ele>592.0</ele><time>2026-04-26T10:43:40.147Z</time></trkpt><trkpt lat="43.0378328" lon="11.0816003"><ele>596.0</ele><time>2026-04-26T10:43:41.11Z</time></trkpt><trkpt lat="43.0379234" lon="11.0816101"><ele>600.0</ele><time>2026-04-26T10:43:42.141Z</time></trkpt><trkpt lat="43.0380141" lon="11.0816346"><ele>604.0</ele><time>2026-04-26T10:43:43.129Z</time></trkpt><trkpt lat="43.0381012" lon="11.0816705"><ele>604.0</ele><time>2026-04-26T10:43:44.133Z</time></trkpt><trkpt lat="43.0381883" lon="11.0817229"><ele>604.0</ele><time>2026-04-26T10:43:45.133Z</time></trkpt><trkpt lat="43.0382641" lon="11.0817882"><ele>604.0</ele><time>2026-04-26T10:43:46.12Z</time></trkpt><trkpt lat="43.0383419" lon="11.0818438"><ele>604.0</ele><time>2026-04-26T10:43:47.139Z</time></trkpt><trkpt lat="43.0384143" lon="11.0819079"><ele>604.0</ele><time>2026-04-26T10:43:48.145Z</time></trkpt><trkpt lat="43.0384773" lon="11.0819778"><ele>604.0</ele><time>2026-04-26T10:43:49.14Z</time></trkpt><trkpt lat="43.0385372" lon="11.0820464"><ele>605.1666666666667</ele><time>2026-04-26T10:43:50.133Z</time></trkpt><trkpt lat="43.0386015" lon="11.0821093"><ele>606.3333333333334</ele><time>2026-04-26T10:43:51.142Z</time></trkpt><trkpt lat="43.0386723" lon="11.0821774"><ele>607.5</ele><time>2026-04-26T10:43:52.144Z</time></trkpt><trkpt lat="43.0387339" lon="11.0822414"><ele>608.6666666666666</ele><time>2026-04-26T10:43:53.145Z</time></trkpt><trkpt lat="43.0388007" lon="11.082315"><ele>609.8333333333333</ele><time>2026-04-26T10:43:54.14Z</time></trkpt><trkpt lat="43.0388686" lon="11.0823814"><ele>611.0</ele><time>2026-04-26T10:43:55.116Z</time></trkpt><trkpt lat="43.0389323" lon="11.0824505"><ele>611.3333333333333</ele><time>2026-04-26T10:43:56.142Z</time></trkpt><trkpt lat="43.0389869" lon="11.0825293"><ele>611.6666666666666</ele><time>2026-04-26T10:43:57.139Z</time></trkpt><trkpt lat="43.0390364" lon="11.0826178"><ele>612.0</ele><time>2026-04-26T10:43:58.147Z</time></trkpt><trkpt lat="43.0390811" lon="11.0827125"><ele>612.3333333333334</ele><time>2026-04-26T10:43:59.154Z</time></trkpt><trkpt lat="43.0391322" lon="11.0827992"><ele>612.6666666666667</ele><time>2026-04-26T10:44:00.144Z</time></trkpt><trkpt lat="43.0391877" lon="11.0828804"><ele>613.0</ele><time>2026-04-26T10:44:01.142Z</time></trkpt><trkpt lat="43.0392462" lon="11.0829691"><ele>613.0</ele><time>2026-04-26T10:44:02.153Z</time></trkpt><trkpt lat="43.0393033" lon="11.0830626"><ele>613.0</ele><time>2026-04-26T10:44:03.149Z</time></trkpt><trkpt lat="43.039363" lon="11.0831566"><ele>613.0</ele><time>2026-04-26T10:44:04.147Z</time></trkpt><trkpt lat="43.0394193" lon="11.0832401"><ele>613.0</ele><time>2026-04-26T10:44:05.142Z</time></trkpt><trkpt lat="43.0394698" lon="11.0833247"><ele>613.0</ele><time>2026-04-26T10:44:06.154Z</time></trkpt><trkpt lat="43.0395219" lon="11.0834093"><ele>613.0</ele><time>2026-04-26T10:44:07.151Z</time></trkpt><trkpt lat="43.0395725" lon="11.0835101"><ele>615.1999999999999</ele><time>2026-04-26T10:44:08.14Z</time></trkpt><trkpt lat="43.0396218" lon="11.0836114"><ele>617.4</ele><time>2026-04-26T10:44:09.153Z</time></trkpt><trkpt lat="43.0396651" lon="11.0837182"><ele>619.5999999999999</ele><time>2026-04-26T10:44:10.142Z</time></trkpt><trkpt lat="43.0397099" lon="11.0838232"><ele>621.8</ele><time>2026-04-26T10:44:11.152Z</time></trkpt><trkpt lat="43.0397526" lon="11.083934"><ele>624.0</ele><time>2026-04-26T10:44:12.146Z</time></trkpt><trkpt lat="43.0397903" lon="11.0840495"><ele>625.6</ele><time>2026-04-26T10:44:13.131Z</time></trkpt><trkpt lat="43.0398191" lon="11.0841715"><ele>627.2</ele><time>2026-04-26T10:44:14.142Z</time></trkpt><trkpt lat="43.0398534" lon="11.0842905"><ele>628.8000000000001</ele><time>2026-04-26T10:44:15.146Z</time></trkpt><trkpt lat="43.0398913" lon="11.0844048"><ele>630.4</ele><time>2026-04-26T10:44:16.138Z</time></trkpt><trkpt lat="43.0399457" lon="11.0845026"><ele>632.0</ele><time>2026-04-26T10:44:17.137Z</time></trkpt><trkpt lat="43.0400063" lon="11.0845889"><ele>630.8333333333333</ele><time>2026-04-26T10:44:18.158Z</time></trkpt><trkpt lat="43.0400593" lon="11.084686"><ele>629.6666666666666</ele><time>2026-04-26T10:44:19.151Z</time></trkpt><trkpt lat="43.0401123" lon="11.0847784"><ele>628.5</ele><time>2026-04-26T10:44:20.128Z</time></trkpt><trkpt lat="43.040161" lon="11.0848721"><ele>627.3333333333334</ele><time>2026-04-26T10:44:21.146Z</time></trkpt><trkpt lat="43.040201" lon="11.0849673"><ele>626.1666666666667</ele><time>2026-04-26T10:44:22.142Z</time></trkpt><trkpt lat="43.0402467" lon="11.0850619"><ele>625.0</ele><time>2026-04-26T10:44:23.143Z</time></trkpt><trkpt lat="43.0402872" lon="11.0851596"><ele>625.0</ele><time>2026-04-26T10:44:24.16Z</time></trkpt><trkpt lat="43.0403182" lon="11.0852628"><ele>625.0</ele><time>2026-04-26T10:44:25.142Z</time></trkpt><trkpt lat="43.040345" lon="11.0853616"><ele>625.0</ele><time>2026-04-26T10:44:26.138Z</time></trkpt><trkpt lat="43.0403685" lon="11.0854528"><ele>625.0</ele><time>2026-04-26T10:44:27.135Z</time></trkpt><trkpt lat="43.0403827" lon="11.0855577"><ele>625.0</ele><time>2026-04-26T10:44:28.137Z</time></trkpt><trkpt lat="43.0403817" lon="11.0856613"><ele>625.0</ele><time>2026-04-26T10:44:29.147Z</time></trkpt><trkpt lat="43.0403721" lon="11.0857709"><ele>626.3333333333334</ele><time>2026-04-26T10:44:30.142Z</time></trkpt><trkpt lat="43.0403647" lon="11.0858776"><ele>627.6666666666667</ele><time>2026-04-26T10:44:31.148Z</time></trkpt><trkpt lat="43.0403664" lon="11.0859789"><ele>629.0</ele><time>2026-04-26T10:44:32.154Z</time></trkpt><trkpt lat="43.0403674" lon="11.0860744"><ele>630.3333333333334</ele><time>2026-04-26T10:44:33.148Z</time></trkpt><trkpt lat="43.0403743" lon="11.086178"><ele>631.6666666666666</ele><time>2026-04-26T10:44:34.151Z</time></trkpt><trkpt lat="43.0403895" lon="11.0862813"><ele>633.0</ele><time>2026-04-26T10:44:35.152Z</time></trkpt><trkpt lat="43.0404072" lon="11.0863873"><ele>633.0</ele><time>2026-04-26T10:44:36.141Z</time></trkpt><trkpt lat="43.0404312" lon="11.0864862"><ele>633.0</ele><time>2026-04-26T10:44:37.151Z</time></trkpt><trkpt lat="43.0404574" lon="11.0865764"><ele>633.0</ele><time>2026-04-26T10:44:38.142Z</time></trkpt><trkpt lat="43.0404863" lon="11.0866545"><ele>633.0</ele><time>2026-04-26T10:44:39.145Z</time></trkpt><trkpt lat="43.0405195" lon="11.0867393"><ele>633.0</ele><time>2026-04-26T10:44:40.135Z</time></trkpt><trkpt lat="43.0405578" lon="11.0868188"><ele>633.0</ele><time>2026-04-26T10:44:41.141Z</time></trkpt><trkpt lat="43.0406017" lon="11.086896"><ele>633.0</ele><time>2026-04-26T10:44:42.148Z</time></trkpt><trkpt lat="43.0406455" lon="11.0869823"><ele>634.8333333333334</ele><time>2026-04-26T10:44:43.137Z</time></trkpt><trkpt lat="43.0406835" lon="11.0870732"><ele>636.6666666666666</ele><time>2026-04-26T10:44:44.151Z</time></trkpt><trkpt lat="43.0407225" lon="11.0871641"><ele>638.5</ele><time>2026-04-26T10:44:45.15Z</time></trkpt><trkpt lat="43.0407583" lon="11.0872467"><ele>640.3333333333333</ele><time>2026-04-26T10:44:46.112Z</time></trkpt><trkpt lat="43.0408096" lon="11.0873712"><ele>642.1666666666666</ele><time>2026-04-26T10:44:48.142Z</time></trkpt><trkpt lat="43.0408668" lon="11.0875119"><ele>644.0</ele><time>2026-04-26T10:44:50.144Z</time></trkpt><trkpt lat="43.0409069" lon="11.0875907"><ele>639.8333333333333</ele><time>2026-04-26T10:44:51.14Z</time></trkpt><trkpt lat="43.0409565" lon="11.0876642"><ele>635.6666666666666</ele><time>2026-04-26T10:44:52.159Z</time></trkpt><trkpt lat="43.0410027" lon="11.0877424"><ele>631.5</ele><time>2026-04-26T10:44:53.137Z</time></trkpt><trkpt lat="43.0410617" lon="11.0878214"><ele>627.3333333333334</ele><time>2026-04-26T10:44:54.147Z</time></trkpt><trkpt lat="43.0411136" lon="11.0879108"><ele>623.1666666666667</ele><time>2026-04-26T10:44:55.14Z</time></trkpt><trkpt lat="43.0411603" lon="11.0880074"><ele>619.0</ele><time>2026-04-26T10:44:56.147Z</time></trkpt><trkpt lat="43.0411827" lon="11.0881141"><ele>619.0</ele><time>2026-04-26T10:44:57.109Z</time></trkpt><trkpt lat="43.0411849" lon="11.0882263"><ele>619.0</ele><time>2026-04-26T10:44:58.139Z</time></trkpt><trkpt lat="43.0411791" lon="11.0883418"><ele>619.0</ele><time>2026-04-26T10:44:59.147Z</time></trkpt><trkpt lat="43.0411738" lon="11.0884698"><ele>619.0</ele><time>2026-04-26T10:45:00.145Z</time></trkpt><trkpt lat="43.0411898" lon="11.0885823"><ele>619.0</ele><time>2026-04-26T10:45:01.147Z</time></trkpt><trkpt lat="43.0412279" lon="11.0886992"><ele>619.0</ele><time>2026-04-26T10:45:02.137Z</time></trkpt><trkpt lat="43.0412695" lon="11.0887976"><ele>620.3333333333334</ele><time>2026-04-26T10:45:03.143Z</time></trkpt><trkpt lat="43.0413182" lon="11.0888872"><ele>621.6666666666667</ele><time>2026-04-26T10:45:04.149Z</time></trkpt><trkpt lat="43.0413694" lon="11.0889762"><ele>623.0</ele><time>2026-04-26T10:45:05.142Z</time></trkpt><trkpt lat="43.0414293" lon="11.0890663"><ele>624.3333333333334</ele><time>2026-04-26T10:45:06.155Z</time></trkpt><trkpt lat="43.0414821" lon="11.0891631"><ele>625.6666666666666</ele><time>2026-04-26T10:45:07.141Z</time></trkpt><trkpt lat="43.0415262" lon="11.0892597"><ele>627.0</ele><time>2026-04-26T10:45:08.143Z</time></trkpt><trkpt lat="43.0415626" lon="11.0893668"><ele>627.6666666666666</ele><time>2026-04-26T10:45:09.144Z</time></trkpt><trkpt lat="43.0415913" lon="11.0894702"><ele>628.3333333333334</ele><time>2026-04-26T10:45:10.148Z</time></trkpt><trkpt lat="43.0416135" lon="11.0895773"><ele>629.0</ele><time>2026-04-26T10:45:11.138Z</time></trkpt><trkpt lat="43.0416278" lon="11.0896864"><ele>629.6666666666667</ele><time>2026-04-26T10:45:12.139Z</time></trkpt><trkpt lat="43.0416489" lon="11.0897974"><ele>630.3333333333334</ele><time>2026-04-26T10:45:13.149Z</time></trkpt><trkpt lat="43.0416734" lon="11.089904"><ele>631.0</ele><time>2026-04-26T10:45:14.13Z</time></trkpt><trkpt lat="43.0417" lon="11.0900032"><ele>626.2</ele><time>2026-04-26T10:45:15.141Z</time></trkpt><trkpt lat="43.041721" lon="11.0900926"><ele>621.4000000000001</ele><time>2026-04-26T10:45:16.153Z</time></trkpt><trkpt lat="43.0417417" lon="11.0901821"><ele>616.6</ele><time>2026-04-26T10:45:17.151Z</time></trkpt><trkpt lat="43.0417583" lon="11.0903423"><ele>611.8000000000001</ele><time>2026-04-26T10:45:19.134Z</time></trkpt><trkpt lat="43.0417614" lon="11.090505"><ele>607.0</ele><time>2026-04-26T10:45:21.139Z</time></trkpt><trkpt lat="43.0417636" lon="11.090634"><ele>606.0</ele><time>2026-04-26T10:45:23.143Z</time></trkpt><trkpt lat="43.0417578" lon="11.0907723"><ele>605.0</ele><time>2026-04-26T10:45:25.151Z</time></trkpt><trkpt lat="43.0417909" lon="11.0909094"><ele>604.0</ele><time>2026-04-26T10:45:27.145Z</time></trkpt><trkpt lat="43.0418147" lon="11.091051"><ele>603.0</ele><time>2026-04-26T10:45:29.154Z</time></trkpt><trkpt lat="43.0418064" lon="11.0912157"><ele>602.0</ele><time>2026-04-26T10:45:31.158Z</time></trkpt><trkpt lat="43.0417988" lon="11.0913172"><ele>602.0</ele><time>2026-04-26T10:45:33.152Z</time></trkpt><trkpt lat="43.0417769" lon="11.0914163"><ele>602.0</ele><time>2026-04-26T10:45:37.134Z</time></trkpt><trkpt lat="43.0417686" lon="11.0915363"><ele>602.0</ele><time>2026-04-26T10:45:40.157Z</time></trkpt><trkpt lat="43.0417679" lon="11.0916313"><ele>602.0</ele><time>2026-04-26T10:45:42.142Z</time></trkpt><trkpt lat="43.04178" lon="11.0917576"><ele>602.0</ele><time>2026-04-26T10:45:44.149Z</time></trkpt><trkpt lat="43.0417641" lon="11.0918843"><ele>602.0</ele><time>2026-04-26T10:45:46.137Z</time></trkpt><trkpt lat="43.0417869" lon="11.0920033"><ele>600.5</ele><time>2026-04-26T10:45:48.143Z</time></trkpt><trkpt lat="43.0418292" lon="11.0921405"><ele>599.0</ele><time>2026-04-26T10:45:50.142Z</time></trkpt><trkpt lat="43.0418576" lon="11.0922251"><ele>597.5</ele><time>2026-04-26T10:45:52.159Z</time></trkpt><trkpt lat="43.0419101" lon="11.0922911"><ele>596.0</ele><time>2026-04-26T10:45:55.145Z</time></trkpt><trkpt lat="43.0419704" lon="11.0923283"><ele>594.5</ele><time>2026-04-26T10:45:59.14Z</time></trkpt><trkpt lat="43.0420357" lon="11.0923104"><ele>593.0</ele><time>2026-04-26T10:46:33.144Z</time></trkpt><trkpt lat="43.0421189" lon="11.0922928"><ele>593.0</ele><time>2026-04-26T10:46:36.16Z</time></trkpt><trkpt lat="43.0422037" lon="11.092274"><ele>593.0</ele><time>2026-04-26T10:46:38.159Z</time></trkpt><trkpt lat="43.0423197" lon="11.0922665"><ele>593.0</ele><time>2026-04-26T10:46:40.141Z</time></trkpt><trkpt lat="43.0424115" lon="11.0923599"><ele>593.0</ele><time>2026-04-26T10:46:42.146Z</time></trkpt><trkpt lat="43.0424487" lon="11.0925008"><ele>593.0</ele><time>2026-04-26T10:46:44.134Z</time></trkpt><trkpt lat="43.0424647" lon="11.0926495"><ele>589.6</ele><time>2026-04-26T10:46:46.144Z</time></trkpt><trkpt lat="43.0424687" lon="11.0928086"><ele>586.1999999999999</ele><time>2026-04-26T10:46:48.158Z</time></trkpt><trkpt lat="43.0424842" lon="11.0929688"><ele>582.8</ele><time>2026-04-26T10:46:50.157Z</time></trkpt><trkpt lat="43.0425345" lon="11.0931264"><ele>579.4</ele><time>2026-04-26T10:46:52.118Z</time></trkpt><trkpt lat="43.0425794" lon="11.0932011"><ele>576.0</ele><time>2026-04-26T10:46:53.142Z</time></trkpt><trkpt lat="43.0426297" lon="11.0932555"><ele>575.1428571428572</ele><time>2026-04-26T10:46:54.147Z</time></trkpt><trkpt lat="43.0426874" lon="11.0932981"><ele>574.2857142857143</ele><time>2026-04-26T10:46:55.142Z</time></trkpt><trkpt lat="43.0427498" lon="11.0933429"><ele>573.4285714285714</ele><time>2026-04-26T10:46:56.144Z</time></trkpt><trkpt lat="43.0428184" lon="11.0933849"><ele>572.5714285714287</ele><time>2026-04-26T10:46:57.135Z</time></trkpt><trkpt lat="43.042881" lon="11.0934174"><ele>571.7142857142858</ele><time>2026-04-26T10:46:58.136Z</time></trkpt><trkpt lat="43.0429466" lon="11.0934418"><ele>570.8571428571429</ele><time>2026-04-26T10:46:59.141Z</time></trkpt><trkpt lat="43.0430107" lon="11.0934544"><ele>570.0</ele><time>2026-04-26T10:47:00.159Z</time></trkpt><trkpt lat="43.0431052" lon="11.0934633"><ele>570.0</ele><time>2026-04-26T10:47:02.14Z</time></trkpt><trkpt lat="43.0431763" lon="11.0934955"><ele>570.0</ele><time>2026-04-26T10:47:05.143Z</time></trkpt><trkpt lat="43.0432417" lon="11.0934877"><ele>570.0</ele><time>2026-04-26T10:47:08.146Z</time></trkpt><trkpt lat="43.0433401" lon="11.093451"><ele>570.0</ele><time>2026-04-26T10:47:10.129Z</time></trkpt><trkpt lat="43.0434403" lon="11.0934079"><ele>570.0</ele><time>2026-04-26T10:47:12.143Z</time></trkpt><trkpt lat="43.0435353" lon="11.0933587"><ele>570.0</ele><time>2026-04-26T10:47:14.14Z</time></trkpt><trkpt lat="43.0436325" lon="11.0932804"><ele>569.4285714285714</ele><time>2026-04-26T10:47:16.146Z</time></trkpt><trkpt lat="43.0436928" lon="11.0932473"><ele>568.8571428571429</ele><time>2026-04-26T10:47:17.13Z</time></trkpt><trkpt lat="43.0437557" lon="11.0932316"><ele>568.2857142857143</ele><time>2026-04-26T10:47:18.154Z</time></trkpt><trkpt lat="43.0438202" lon="11.0932323"><ele>567.7142857142858</ele><time>2026-04-26T10:47:19.135Z</time></trkpt><trkpt lat="43.0439434" lon="11.0932268"><ele>567.1428571428572</ele><time>2026-04-26T10:47:21.129Z</time></trkpt><trkpt lat="43.0440066" lon="11.093226"><ele>566.5714285714286</ele><time>2026-04-26T10:47:22.145Z</time></trkpt><trkpt lat="43.0440735" lon="11.0932449"><ele>566.0</ele><time>2026-04-26T10:47:23.152Z</time></trkpt><trkpt lat="43.0441489" lon="11.0932687"><ele>566.0</ele><time>2026-04-26T10:47:24.109Z</time></trkpt><trkpt lat="43.0442186" lon="11.0932952"><ele>566.0</ele><time>2026-04-26T10:47:25.138Z</time></trkpt><trkpt lat="43.0442891" lon="11.0933305"><ele>566.0</ele><time>2026-04-26T10:47:26.142Z</time></trkpt><trkpt lat="43.0443517" lon="11.0933627"><ele>566.0</ele><time>2026-04-26T10:47:27.161Z</time></trkpt><trkpt lat="43.0444218" lon="11.0933892"><ele>566.0</ele><time>2026-04-26T10:47:28.161Z</time></trkpt><trkpt lat="43.0445004" lon="11.0934024"><ele>566.0</ele><time>2026-04-26T10:47:29.128Z</time></trkpt><trkpt lat="43.0445789" lon="11.0934095"><ele>566.0</ele><time>2026-04-26T10:47:30.143Z</time></trkpt><trkpt lat="43.0446506" lon="11.0934208"><ele>566.0</ele><time>2026-04-26T10:47:31.155Z</time></trkpt><trkpt lat="43.0447226" lon="11.0934405"><ele>566.0</ele><time>2026-04-26T10:47:33.15Z</time></trkpt><trkpt lat="43.0447753" lon="11.0935092"><ele>566.0</ele><time>2026-04-26T10:47:36.145Z</time></trkpt><trkpt lat="43.04481" lon="11.0935929"><ele>566.0</ele><time>2026-04-26T10:47:38.128Z</time></trkpt><trkpt lat="43.0448931" lon="11.0937255"><ele>566.0</ele><time>2026-04-26T10:47:40.148Z</time></trkpt><trkpt lat="43.0449547" lon="11.0937881"><ele>566.0</ele><time>2026-04-26T10:47:41.145Z</time></trkpt><trkpt lat="43.0450212" lon="11.0938466"><ele>565.8333333333333</ele><time>2026-04-26T10:47:42.152Z</time></trkpt><trkpt lat="43.0450949" lon="11.0938964"><ele>565.6666666666666</ele><time>2026-04-26T10:47:43.15Z</time></trkpt><trkpt lat="43.0451722" lon="11.0939303"><ele>565.5</ele><time>2026-04-26T10:47:44.145Z</time></trkpt><trkpt lat="43.0452381" lon="11.0939643"><ele>565.3333333333334</ele><time>2026-04-26T10:47:45.115Z</time></trkpt><trkpt lat="43.0452953" lon="11.0940099"><ele>565.1666666666667</ele><time>2026-04-26T10:47:46.142Z</time></trkpt><trkpt lat="43.045386" lon="11.0941238"><ele>565.0</ele><time>2026-04-26T10:47:48.154Z</time></trkpt><trkpt lat="43.0454752" lon="11.0942284"><ele>565.8</ele><time>2026-04-26T10:47:50.134Z</time></trkpt><trkpt lat="43.0455772" lon="11.0943057"><ele>566.6</ele><time>2026-04-26T10:47:52.143Z</time></trkpt><trkpt lat="43.0456923" lon="11.0943411"><ele>567.4</ele><time>2026-04-26T10:47:54.144Z</time></trkpt><trkpt lat="43.0458224" lon="11.0943614"><ele>568.2</ele><time>2026-04-26T10:47:56.139Z</time></trkpt><trkpt lat="43.0458932" lon="11.0943626"><ele>569.0</ele><time>2026-04-26T10:47:57.153Z</time></trkpt><trkpt lat="43.0459656" lon="11.0943715"><ele>569.0000000000001</ele><time>2026-04-26T10:47:58.158Z</time></trkpt><trkpt lat="43.0460297" lon="11.0943858"><ele>569.0</ele><time>2026-04-26T10:47:59.155Z</time></trkpt><trkpt lat="43.0460971" lon="11.094393"><ele>569.0</ele><time>2026-04-26T10:48:00.148Z</time></trkpt><trkpt lat="43.0461642" lon="11.0944049"><ele>569.0</ele><time>2026-04-26T10:48:01.135Z</time></trkpt><trkpt lat="43.0462308" lon="11.0944175"><ele>569.0</ele><time>2026-04-26T10:48:02.162Z</time></trkpt><trkpt lat="43.0462949" lon="11.0944242"><ele>569.0000000000001</ele><time>2026-04-26T10:48:03.15Z</time></trkpt><trkpt lat="43.0463605" lon="11.0944367"><ele>569.0</ele><time>2026-04-26T10:48:04.142Z</time></trkpt><trkpt lat="43.0464248" lon="11.0944434"><ele>569.0</ele><time>2026-04-26T10:48:05.135Z</time></trkpt><trkpt lat="43.0465596" lon="11.0944669"><ele>569.0</ele><time>2026-04-26T10:48:07.151Z</time></trkpt><trkpt lat="43.0466284" lon="11.0944692"><ele>569.0</ele><time>2026-04-26T10:48:08.146Z</time></trkpt><trkpt lat="43.0467036" lon="11.0944706"><ele>569.0</ele><time>2026-04-26T10:48:09.133Z</time></trkpt><trkpt lat="43.0467833" lon="11.0944786"><ele>569.0</ele><time>2026-04-26T10:48:10.129Z</time></trkpt><trkpt lat="43.0468626" lon="11.0944902"><ele>569.0</ele><time>2026-04-26T10:48:11.154Z</time></trkpt><trkpt lat="43.0469405" lon="11.0945081"><ele>568.6666666666666</ele><time>2026-04-26T10:48:12.147Z</time></trkpt><trkpt lat="43.0470082" lon="11.0945366"><ele>568.3333333333333</ele><time>2026-04-26T10:48:13.15Z</time></trkpt><trkpt lat="43.0471253" lon="11.0945807"><ele>568.0</ele><time>2026-04-26T10:48:15.139Z</time></trkpt><trkpt lat="43.0472292" lon="11.0946576"><ele>567.6666666666666</ele><time>2026-04-26T10:48:17.146Z</time></trkpt><trkpt lat="43.0472816" lon="11.0947174"><ele>567.3333333333334</ele><time>2026-04-26T10:48:18.155Z</time></trkpt><trkpt lat="43.0473349" lon="11.0947677"><ele>567.0</ele><time>2026-04-26T10:48:19.115Z</time></trkpt><trkpt lat="43.0473899" lon="11.0948151"><ele>566.8000000000001</ele><time>2026-04-26T10:48:20.151Z</time></trkpt><trkpt lat="43.0474864" lon="11.0949132"><ele>566.6</ele><time>2026-04-26T10:48:22.138Z</time></trkpt><trkpt lat="43.0475652" lon="11.0950204"><ele>566.4000000000001</ele><time>2026-04-26T10:48:24.156Z</time></trkpt><trkpt lat="43.0475934" lon="11.0950993"><ele>566.2</ele><time>2026-04-26T10:48:25.148Z</time></trkpt><trkpt lat="43.0476443" lon="11.095263"><ele>566.0</ele><time>2026-04-26T10:48:27.138Z</time></trkpt><trkpt lat="43.0476809" lon="11.0953658"><ele>566.0</ele><time>2026-04-26T10:48:28.158Z</time></trkpt><trkpt lat="43.0477185" lon="11.0954485"><ele>566.0</ele><time>2026-04-26T10:48:29.142Z</time></trkpt><trkpt lat="43.0477684" lon="11.0955245"><ele>566.0</ele><time>2026-04-26T10:48:30.147Z</time></trkpt><trkpt lat="43.0478128" lon="11.0955895"><ele>566.0</ele><time>2026-04-26T10:48:31.142Z</time></trkpt><trkpt lat="43.0478939" lon="11.0956996"><ele>566.0</ele><time>2026-04-26T10:48:33.146Z</time></trkpt><trkpt lat="43.0479918" lon="11.0958032"><ele>566.0</ele><time>2026-04-26T10:48:35.141Z</time></trkpt><trkpt lat="43.0480468" lon="11.095866"><ele>565.6666666666666</ele><time>2026-04-26T10:48:36.133Z</time></trkpt><trkpt lat="43.0481012" lon="11.0959198"><ele>565.3333333333333</ele><time>2026-04-26T10:48:37.128Z</time></trkpt><trkpt lat="43.048156" lon="11.0959775"><ele>565.0</ele><time>2026-04-26T10:48:38.146Z</time></trkpt><trkpt lat="43.0482093" lon="11.0960334"><ele>564.6666666666666</ele><time>2026-04-26T10:48:39.151Z</time></trkpt><trkpt lat="43.0483038" lon="11.0961408"><ele>564.3333333333334</ele><time>2026-04-26T10:48:41.125Z</time></trkpt><trkpt lat="43.0483812" lon="11.0962454"><ele>564.0</ele><time>2026-04-26T10:48:43.133Z</time></trkpt><trkpt lat="43.0484565" lon="11.096347"><ele>564.0</ele><time>2026-04-26T10:48:45.13Z</time></trkpt><trkpt lat="43.0485478" lon="11.0964232"><ele>564.0</ele><time>2026-04-26T10:48:47.156Z</time></trkpt><trkpt lat="43.0486423" lon="11.0965168"><ele>564.0</ele><time>2026-04-26T10:48:49.159Z</time></trkpt><trkpt lat="43.0486903" lon="11.0965777"><ele>564.0</ele><time>2026-04-26T10:48:50.154Z</time></trkpt><trkpt lat="43.0487439" lon="11.0966471"><ele>564.0</ele><time>2026-04-26T10:48:51.145Z</time></trkpt><trkpt lat="43.0488016" lon="11.0967152"><ele>564.0</ele><time>2026-04-26T10:48:52.147Z</time></trkpt><trkpt lat="43.0488593" lon="11.0967789"><ele>561.8333333333334</ele><time>2026-04-26T10:48:53.138Z</time></trkpt><trkpt lat="43.0489221" lon="11.0968439"><ele>559.6666666666666</ele><time>2026-04-26T10:48:54.14Z</time></trkpt><trkpt lat="43.0489884" lon="11.0969087"><ele>557.5</ele><time>2026-04-26T10:48:55.148Z</time></trkpt><trkpt lat="43.0490536" lon="11.0969769"><ele>555.3333333333333</ele><time>2026-04-26T10:48:56.15Z</time></trkpt><trkpt lat="43.0491184" lon="11.0970453"><ele>553.1666666666666</ele><time>2026-04-26T10:48:57.134Z</time></trkpt><trkpt lat="43.0491792" lon="11.0971098"><ele>551.0</ele><time>2026-04-26T10:48:58.154Z</time></trkpt><trkpt lat="43.0492336" lon="11.0971757"><ele>551.0</ele><time>2026-04-26T10:48:59.126Z</time></trkpt><trkpt lat="43.0492729" lon="11.0973219"><ele>551.0</ele><time>2026-04-26T10:49:01.129Z</time></trkpt><trkpt lat="43.0492972" lon="11.0974646"><ele>551.0</ele><time>2026-04-26T10:49:03.151Z</time></trkpt><trkpt lat="43.0493661" lon="11.0975579"><ele>551.0</ele><time>2026-04-26T10:49:05.145Z</time></trkpt><trkpt lat="43.0494535" lon="11.0976212"><ele>551.0</ele><time>2026-04-26T10:49:07.133Z</time></trkpt><trkpt lat="43.0495498" lon="11.0976919"><ele>546.75</ele><time>2026-04-26T10:49:09.141Z</time></trkpt><trkpt lat="43.049637" lon="11.0977991"><ele>542.5</ele><time>2026-04-26T10:49:11.128Z</time></trkpt><trkpt lat="43.0497014" lon="11.0979243"><ele>538.25</ele><time>2026-04-26T10:49:13.148Z</time></trkpt><trkpt lat="43.0497591" lon="11.0980612"><ele>534.0</ele><time>2026-04-26T10:49:15.136Z</time></trkpt><trkpt lat="43.0498277" lon="11.0981958"><ele>533.3333333333334</ele><time>2026-04-26T10:49:17.127Z</time></trkpt><trkpt lat="43.0499126" lon="11.0983147"><ele>532.6666666666666</ele><time>2026-04-26T10:49:19.148Z</time></trkpt><trkpt lat="43.049959" lon="11.0983738"><ele>532.0</ele><time>2026-04-26T10:49:20.145Z</time></trkpt><trkpt lat="43.0500163" lon="11.0984279"><ele>531.3333333333333</ele><time>2026-04-26T10:49:21.146Z</time></trkpt><trkpt lat="43.050069" lon="11.0984842"><ele>530.6666666666666</ele><time>2026-04-26T10:49:22.142Z</time></trkpt><trkpt lat="43.0501244" lon="11.0985456"><ele>530.0</ele><time>2026-04-26T10:49:23.148Z</time></trkpt><trkpt lat="43.050159" lon="11.0986261"><ele>530.0</ele><time>2026-04-26T10:49:24.147Z</time></trkpt><trkpt lat="43.0501731" lon="11.0987121"><ele>530.0</ele><time>2026-04-26T10:49:25.153Z</time></trkpt><trkpt lat="43.0501424" lon="11.0987909"><ele>530.0</ele><time>2026-04-26T10:49:27.16Z</time></trkpt><trkpt lat="43.0500594" lon="11.0987974"><ele>530.0</ele><time>2026-04-26T10:49:31.13Z</time></trkpt><trkpt lat="43.0499924" lon="11.0987937"><ele>530.0</ele><time>2026-04-26T10:50:38.134Z</time></trkpt><trkpt lat="43.0499253" lon="11.0988102"><ele>530.0</ele><time>2026-04-26T10:50:41.147Z</time></trkpt><trkpt lat="43.0498095" lon="11.0988275"><ele>528.0</ele><time>2026-04-26T10:50:43.097Z</time></trkpt><trkpt lat="43.0497473" lon="11.0988441"><ele>526.0</ele><time>2026-04-26T10:50:44.09Z</time></trkpt><trkpt lat="43.0496833" lon="11.0988662"><ele>524.0</ele><time>2026-04-26T10:50:45.095Z</time></trkpt><trkpt lat="43.0496188" lon="11.0988947"><ele>522.0</ele><time>2026-04-26T10:50:46.141Z</time></trkpt><trkpt lat="43.0495286" lon="11.0989402"><ele>520.0</ele><time>2026-04-26T10:50:48.106Z</time></trkpt><trkpt lat="43.0494726" lon="11.0990257"><ele>518.0</ele><time>2026-04-26T10:50:50.093Z</time></trkpt><trkpt lat="43.0494782" lon="11.0991651"><ele>516.3333333333333</ele><time>2026-04-26T10:50:52.156Z</time></trkpt><trkpt lat="43.0495608" lon="11.0992837"><ele>514.6666666666666</ele><time>2026-04-26T10:50:54.149Z</time></trkpt><trkpt lat="43.0496172" lon="11.0993364"><ele>513.0</ele><time>2026-04-26T10:50:55.134Z</time></trkpt><trkpt lat="43.0496791" lon="11.0993947"><ele>511.33333333333337</ele><time>2026-04-26T10:50:56.152Z</time></trkpt><trkpt lat="43.0497356" lon="11.0994578"><ele>509.6666666666667</ele><time>2026-04-26T10:50:57.135Z</time></trkpt><trkpt lat="43.0497885" lon="11.0995212"><ele>508.0</ele><time>2026-04-26T10:50:58.127Z</time></trkpt><trkpt lat="43.0498351" lon="11.0995832"><ele>508.00000000000006</ele><time>2026-04-26T10:50:59.149Z</time></trkpt><trkpt lat="43.0498876" lon="11.0996416"><ele>508.0</ele><time>2026-04-26T10:51:00.123Z</time></trkpt><trkpt lat="43.0499466" lon="11.0996988"><ele>508.0</ele><time>2026-04-26T10:51:01.146Z</time></trkpt><trkpt lat="43.0499996" lon="11.0997586"><ele>508.0</ele><time>2026-04-26T10:51:02.152Z</time></trkpt><trkpt lat="43.0500634" lon="11.099811"><ele>508.00000000000006</ele><time>2026-04-26T10:51:03.14Z</time></trkpt><trkpt lat="43.0501207" lon="11.0998659"><ele>508.0</ele><time>2026-04-26T10:51:04.138Z</time></trkpt><trkpt lat="43.0501877" lon="11.0999811"><ele>507.1666666666667</ele><time>2026-04-26T10:51:06.142Z</time></trkpt><trkpt lat="43.0502461" lon="11.1000886"><ele>506.33333333333337</ele><time>2026-04-26T10:51:08.156Z</time></trkpt><trkpt lat="43.0502949" lon="11.1002092"><ele>505.5</ele><time>2026-04-26T10:51:10.148Z</time></trkpt><trkpt lat="43.0503462" lon="11.1003415"><ele>504.66666666666663</ele><time>2026-04-26T10:51:12.142Z</time></trkpt><trkpt lat="43.050375" lon="11.1004352"><ele>503.8333333333333</ele><time>2026-04-26T10:51:14.152Z</time></trkpt><trkpt lat="43.0504303" lon="11.1004865"><ele>503.0</ele><time>2026-04-26T10:56:33.132Z</time></trkpt><trkpt lat="43.0505003" lon="11.1005143"><ele>502.99999999999994</ele><time>2026-04-26T10:56:39.14Z</time></trkpt><trkpt lat="43.0505654" lon="11.1005197"><ele>503.0</ele><time>2026-04-26T10:57:11.135Z</time></trkpt><trkpt lat="43.0506425" lon="11.1005387"><ele>503.0</ele><time>2026-04-26T10:57:56.135Z</time></trkpt><trkpt lat="43.0507085" lon="11.1005352"><ele>503.0</ele><time>2026-04-26T10:57:58.118Z</time></trkpt><trkpt lat="43.050775" lon="11.1005136"><ele>502.99999999999994</ele><time>2026-04-26T10:58:00.155Z</time></trkpt><trkpt lat="43.0508587" lon="11.1004829"><ele>503.0</ele><time>2026-04-26T10:58:02.135Z</time></trkpt><trkpt lat="43.050961" lon="11.1004219"><ele>503.4</ele><time>2026-04-26T10:58:04.142Z</time></trkpt><trkpt lat="43.0510599" lon="11.1003716"><ele>503.79999999999995</ele><time>2026-04-26T10:58:06.15Z</time></trkpt><trkpt lat="43.0511624" lon="11.100357"><ele>504.2</ele><time>2026-04-26T10:58:08.152Z</time></trkpt><trkpt lat="43.0512536" lon="11.1004097"><ele>504.6</ele><time>2026-04-26T10:58:10.151Z</time></trkpt><trkpt lat="43.0513461" lon="11.1004497"><ele>505.0</ele><time>2026-04-26T10:58:12.146Z</time></trkpt><trkpt lat="43.0514337" lon="11.1005291"><ele>505.0</ele><time>2026-04-26T10:58:14.123Z</time></trkpt><trkpt lat="43.0515255" lon="11.1006057"><ele>505.0</ele><time>2026-04-26T10:58:16.152Z</time></trkpt><trkpt lat="43.0515857" lon="11.1006357"><ele>505.0</ele><time>2026-04-26T10:58:17.134Z</time></trkpt><trkpt lat="43.0516502" lon="11.1006695"><ele>505.0</ele><time>2026-04-26T10:58:18.159Z</time></trkpt><trkpt lat="43.0517614" lon="11.1007354"><ele>505.0</ele><time>2026-04-26T10:58:20.135Z</time></trkpt><trkpt lat="43.0518587" lon="11.1008285"><ele>501.0</ele><time>2026-04-26T10:58:22.14Z</time></trkpt><trkpt lat="43.0519018" lon="11.1008934"><ele>497.0</ele><time>2026-04-26T10:58:23.149Z</time></trkpt><trkpt lat="43.0519833" lon="11.1010182"><ele>493.0</ele><time>2026-04-26T10:58:25.148Z</time></trkpt><trkpt lat="43.0520695" lon="11.1011326"><ele>489.0</ele><time>2026-04-26T10:58:27.14Z</time></trkpt><trkpt lat="43.052143" lon="11.1011818"><ele>485.0</ele><time>2026-04-26T10:58:29.145Z</time></trkpt><trkpt lat="43.0522314" lon="11.1011461"><ele>485.0</ele><time>2026-04-26T10:58:31.141Z</time></trkpt><trkpt lat="43.0523153" lon="11.1010457"><ele>485.0</ele><time>2026-04-26T10:58:33.132Z</time></trkpt><trkpt lat="43.0523896" lon="11.1009385"><ele>485.0</ele><time>2026-04-26T10:58:35.138Z</time></trkpt><trkpt lat="43.0524658" lon="11.1008516"><ele>485.0</ele><time>2026-04-26T10:58:37.127Z</time></trkpt><trkpt lat="43.0525562" lon="11.1007896"><ele>485.0</ele><time>2026-04-26T10:58:39.143Z</time></trkpt><trkpt lat="43.0526429" lon="11.1007561"><ele>486.66666666666663</ele><time>2026-04-26T10:58:41.127Z</time></trkpt><trkpt lat="43.0527306" lon="11.1007112"><ele>488.3333333333333</ele><time>2026-04-26T10:58:43.146Z</time></trkpt><trkpt lat="43.0527964" lon="11.1006638"><ele>490.0</ele><time>2026-04-26T10:58:45.132Z</time></trkpt><trkpt lat="43.0528535" lon="11.1006163"><ele>491.66666666666663</ele><time>2026-04-26T10:58:47.144Z</time></trkpt><trkpt lat="43.0529091" lon="11.1005521"><ele>493.3333333333333</ele><time>2026-04-26T10:58:49.138Z</time></trkpt><trkpt lat="43.0529631" lon="11.1004756"><ele>495.0</ele><time>2026-04-26T10:58:51.134Z</time></trkpt><trkpt lat="43.0530218" lon="11.1003877"><ele>495.0</ele><time>2026-04-26T10:58:53.139Z</time></trkpt><trkpt lat="43.0530812" lon="11.1003164"><ele>495.0</ele><time>2026-04-26T10:58:55.151Z</time></trkpt><trkpt lat="43.0531498" lon="11.1002759"><ele>495.0</ele><time>2026-04-26T10:58:57.131Z</time></trkpt><trkpt lat="43.0532426" lon="11.1002751"><ele>495.0</ele><time>2026-04-26T10:59:00.158Z</time></trkpt><trkpt lat="43.0533079" lon="11.1002788"><ele>495.0</ele><time>2026-04-26T10:59:02.14Z</time></trkpt><trkpt lat="43.0533922" lon="11.1002742"><ele>495.0</ele><time>2026-04-26T10:59:04.134Z</time></trkpt><trkpt lat="43.0534555" lon="11.1002799"><ele>491.3333333333333</ele><time>2026-04-26T10:59:05.153Z</time></trkpt><trkpt lat="43.053572" lon="11.1003104"><ele>487.66666666666663</ele><time>2026-04-26T10:59:07.139Z</time></trkpt><trkpt lat="43.0536358" lon="11.1003539"><ele>484.0</ele><time>2026-04-26T10:59:08.129Z</time></trkpt><trkpt lat="43.0536938" lon="11.1004264"><ele>480.3333333333333</ele><time>2026-04-26T10:59:09.151Z</time></trkpt><trkpt lat="43.0537507" lon="11.1005093"><ele>476.66666666666663</ele><time>2026-04-26T10:59:10.139Z</time></trkpt><trkpt lat="43.0538062" lon="11.1005908"><ele>473.0</ele><time>2026-04-26T10:59:11.121Z</time></trkpt><trkpt lat="43.0538596" lon="11.100669"><ele>472.99999999999994</ele><time>2026-04-26T10:59:12.132Z</time></trkpt><trkpt lat="43.0539068" lon="11.1007414"><ele>473.0</ele><time>2026-04-26T10:59:13.144Z</time></trkpt><trkpt lat="43.0539486" lon="11.1008199"><ele>473.0</ele><time>2026-04-26T10:59:14.141Z</time></trkpt><trkpt lat="43.0539861" lon="11.1009024"><ele>473.0</ele><time>2026-04-26T10:59:15.143Z</time></trkpt><trkpt lat="43.0540218" lon="11.1010036"><ele>472.99999999999994</ele><time>2026-04-26T10:59:16.141Z</time></trkpt><trkpt lat="43.0540553" lon="11.1011137"><ele>473.0</ele><time>2026-04-26T10:59:17.137Z</time></trkpt><trkpt lat="43.0541022" lon="11.1012162"><ele>470.66666666666663</ele><time>2026-04-26T10:59:18.123Z</time></trkpt><trkpt lat="43.054154" lon="11.1013124"><ele>468.3333333333333</ele><time>2026-04-26T10:59:19.159Z</time></trkpt><trkpt lat="43.054215" lon="11.1014055"><ele>466.0</ele><time>2026-04-26T10:59:20.149Z</time></trkpt><trkpt lat="43.0542742" lon="11.1014944"><ele>463.66666666666663</ele><time>2026-04-26T10:59:21.13Z</time></trkpt><trkpt lat="43.0543267" lon="11.1015928"><ele>461.3333333333333</ele><time>2026-04-26T10:59:22.145Z</time></trkpt><trkpt lat="43.0543804" lon="11.1016814"><ele>459.0</ele><time>2026-04-26T10:59:23.143Z</time></trkpt><trkpt lat="43.054434" lon="11.1017483"><ele>456.7142857142857</ele><time>2026-04-26T10:59:24.131Z</time></trkpt><trkpt lat="43.0544956" lon="11.1018089"><ele>454.4285714285714</ele><time>2026-04-26T10:59:25.138Z</time></trkpt><trkpt lat="43.0545651" lon="11.1018655"><ele>452.1428571428571</ele><time>2026-04-26T10:59:26.131Z</time></trkpt><trkpt lat="43.0546273" lon="11.1019102"><ele>449.8571428571429</ele><time>2026-04-26T10:59:27.132Z</time></trkpt><trkpt lat="43.0546912" lon="11.1019468"><ele>447.57142857142856</ele><time>2026-04-26T10:59:28.129Z</time></trkpt><trkpt lat="43.054759" lon="11.1019771"><ele>445.2857142857143</ele><time>2026-04-26T10:59:29.133Z</time></trkpt><trkpt lat="43.0548246" lon="11.1019981"><ele>443.0</ele><time>2026-04-26T10:59:30.135Z</time></trkpt><trkpt lat="43.054942" lon="11.1020021"><ele>445.2</ele><time>2026-04-26T10:59:32.144Z</time></trkpt><trkpt lat="43.055051" lon="11.1019883"><ele>447.4</ele><time>2026-04-26T10:59:34.127Z</time></trkpt><trkpt lat="43.055146" lon="11.1019554"><ele>449.59999999999997</ele><time>2026-04-26T10:59:36.125Z</time></trkpt><trkpt lat="43.0552118" lon="11.1019336"><ele>451.79999999999995</ele><time>2026-04-26T10:59:37.144Z</time></trkpt><trkpt lat="43.0552773" lon="11.1019304"><ele>454.0</ele><time>2026-04-26T10:59:38.141Z</time></trkpt><trkpt lat="43.0553947" lon="11.1019489"><ele>454.00000000000006</ele><time>2026-04-26T10:59:40.137Z</time></trkpt><trkpt lat="43.055497" lon="11.101969"><ele>454.0</ele><time>2026-04-26T10:59:42.146Z</time></trkpt><trkpt lat="43.0555926" lon="11.1020422"><ele>454.0</ele><time>2026-04-26T10:59:44.141Z</time></trkpt><trkpt lat="43.0556491" lon="11.1020905"><ele>454.0</ele><time>2026-04-26T10:59:45.141Z</time></trkpt><trkpt lat="43.0557171" lon="11.1021508"><ele>454.00000000000006</ele><time>2026-04-26T10:59:46.14Z</time></trkpt><trkpt lat="43.0557834" lon="11.1022129"><ele>454.0</ele><time>2026-04-26T10:59:47.149Z</time></trkpt><trkpt lat="43.0558508" lon="11.1022694"><ele>452.00000000000006</ele><time>2026-04-26T10:59:48.132Z</time></trkpt><trkpt lat="43.0559154" lon="11.1023218"><ele>450.0</ele><time>2026-04-26T10:59:49.145Z</time></trkpt><trkpt lat="43.0559795" lon="11.1023841"><ele>448.0</ele><time>2026-04-26T10:59:50.135Z</time></trkpt><trkpt lat="43.0560407" lon="11.1024495"><ele>446.0</ele><time>2026-04-26T10:59:51.149Z</time></trkpt><trkpt lat="43.0561035" lon="11.1025179"><ele>444.00000000000006</ele><time>2026-04-26T10:59:52.138Z</time></trkpt><trkpt lat="43.0561649" lon="11.102583"><ele>442.0</ele><time>2026-04-26T10:59:53.149Z</time></trkpt><trkpt lat="43.056224" lon="11.1026498"><ele>440.5714285714286</ele><time>2026-04-26T10:59:54.15Z</time></trkpt><trkpt lat="43.0562851" lon="11.1027104"><ele>439.14285714285717</ele><time>2026-04-26T10:59:55.145Z</time></trkpt><trkpt lat="43.0563416" lon="11.1027712"><ele>437.7142857142857</ele><time>2026-04-26T10:59:56.156Z</time></trkpt><trkpt lat="43.0563983" lon="11.1028276"><ele>436.28571428571433</ele><time>2026-04-26T10:59:57.148Z</time></trkpt><trkpt lat="43.0564568" lon="11.1028896"><ele>434.85714285714283</ele><time>2026-04-26T10:59:58.147Z</time></trkpt><trkpt lat="43.0565181" lon="11.1029491"><ele>433.42857142857144</ele><time>2026-04-26T10:59:59.157Z</time></trkpt><trkpt lat="43.0565811" lon="11.1030149"><ele>432.0</ele><time>2026-04-26T11:00:00.144Z</time></trkpt><trkpt lat="43.0566433" lon="11.103074"><ele>430.7142857142857</ele><time>2026-04-26T11:00:01.139Z</time></trkpt><trkpt lat="43.0566994" lon="11.1031282"><ele>429.42857142857144</ele><time>2026-04-26T11:00:02.172Z</time></trkpt><trkpt lat="43.0567537" lon="11.1031995"><ele>428.1428571428571</ele><time>2026-04-26T11:00:03.15Z</time></trkpt><trkpt lat="43.0567982" lon="11.103262"><ele>426.8571428571429</ele><time>2026-04-26T11:00:04.155Z</time></trkpt><trkpt lat="43.0568228" lon="11.1033453"><ele>425.5714285714286</ele><time>2026-04-26T11:00:05.142Z</time></trkpt><trkpt lat="43.0568422" lon="11.1034413"><ele>424.2857142857143</ele><time>2026-04-26T11:00:06.139Z</time></trkpt><trkpt lat="43.0568611" lon="11.103535"><ele>423.0</ele><time>2026-04-26T11:00:07.148Z</time></trkpt><trkpt lat="43.056886" lon="11.1036201"><ele>422.0</ele><time>2026-04-26T11:00:08.142Z</time></trkpt><trkpt lat="43.0569421" lon="11.103737"><ele>421.0</ele><time>2026-04-26T11:00:10.147Z</time></trkpt><trkpt lat="43.0570373" lon="11.1038479"><ele>420.0</ele><time>2026-04-26T11:00:12.144Z</time></trkpt><trkpt lat="43.0571144" lon="11.1039714"><ele>419.0</ele><time>2026-04-26T11:00:14.148Z</time></trkpt><trkpt lat="43.0571815" lon="11.1040749"><ele>418.0</ele><time>2026-04-26T11:00:16.136Z</time></trkpt><trkpt lat="43.0572809" lon="11.1041451"><ele>417.50000000000006</ele><time>2026-04-26T11:00:18.147Z</time></trkpt><trkpt lat="43.057392" lon="11.1042196"><ele>417.0</ele><time>2026-04-26T11:00:20.155Z</time></trkpt><trkpt lat="43.0574492" lon="11.1042622"><ele>416.5</ele><time>2026-04-26T11:00:21.141Z</time></trkpt><trkpt lat="43.0575116" lon="11.1042882"><ele>416.0</ele><time>2026-04-26T11:00:22.156Z</time></trkpt><trkpt lat="43.0575781" lon="11.1043037"><ele>415.50000000000006</ele><time>2026-04-26T11:00:23.139Z</time></trkpt><trkpt lat="43.0576425" lon="11.1043194"><ele>415.0</ele><time>2026-04-26T11:00:24.123Z</time></trkpt><trkpt lat="43.0577043" lon="11.1043457"><ele>415.00000000000006</ele><time>2026-04-26T11:00:25.149Z</time></trkpt><trkpt lat="43.0577662" lon="11.1043731"><ele>415.0</ele><time>2026-04-26T11:00:26.153Z</time></trkpt><trkpt lat="43.057828" lon="11.104398"><ele>415.0</ele><time>2026-04-26T11:00:27.138Z</time></trkpt><trkpt lat="43.0579483" lon="11.1044607"><ele>415.0</ele><time>2026-04-26T11:00:29.143Z</time></trkpt><trkpt lat="43.058014" lon="11.1044905"><ele>415.00000000000006</ele><time>2026-04-26T11:00:30.147Z</time></trkpt><trkpt lat="43.0580806" lon="11.1045125"><ele>415.0</ele><time>2026-04-26T11:00:31.153Z</time></trkpt><trkpt lat="43.0581792" lon="11.1045245"><ele>415.00000000000006</ele><time>2026-04-26T11:00:33.142Z</time></trkpt><trkpt lat="43.0582457" lon="11.104448"><ele>415.0</ele><time>2026-04-26T11:00:52.148Z</time></trkpt><trkpt lat="43.058297" lon="11.1043931"><ele>415.0</ele><time>2026-04-26T11:00:53.158Z</time></trkpt><trkpt lat="43.0583499" lon="11.1043332"><ele>415.0</ele><time>2026-04-26T11:00:54.149Z</time></trkpt><trkpt lat="43.0584036" lon="11.1042642"><ele>415.00000000000006</ele><time>2026-04-26T11:00:55.142Z</time></trkpt><trkpt lat="43.058443" lon="11.1041608"><ele>415.0</ele><time>2026-04-26T11:00:56.144Z</time></trkpt><trkpt lat="43.0584693" lon="11.1040588"><ele>417.33333333333337</ele><time>2026-04-26T11:00:57.144Z</time></trkpt><trkpt lat="43.0585123" lon="11.103929"><ele>419.6666666666667</ele><time>2026-04-26T11:00:59.157Z</time></trkpt><trkpt lat="43.0585806" lon="11.1038634"><ele>422.0</ele><time>2026-04-26T11:01:01.157Z</time></trkpt><trkpt lat="43.0586474" lon="11.103849"><ele>424.33333333333337</ele><time>2026-04-26T11:01:02.157Z</time></trkpt><trkpt lat="43.0587162" lon="11.103848"><ele>426.6666666666667</ele><time>2026-04-26T11:01:03.137Z</time></trkpt><trkpt lat="43.0587866" lon="11.1038417"><ele>429.0</ele><time>2026-04-26T11:01:04.11Z</time></trkpt><trkpt lat="43.0588569" lon="11.1038285"><ele>429.0</ele><time>2026-04-26T11:01:05.124Z</time></trkpt><trkpt lat="43.0589341" lon="11.1038237"><ele>429.0</ele><time>2026-04-26T11:01:06.146Z</time></trkpt><trkpt lat="43.0590147" lon="11.1038096"><ele>429.0</ele><time>2026-04-26T11:01:07.122Z</time></trkpt><trkpt lat="43.0590912" lon="11.1037908"><ele>429.0</ele><time>2026-04-26T11:01:08.157Z</time></trkpt><trkpt lat="43.0591655" lon="11.1037914"><ele>429.0</ele><time>2026-04-26T11:01:09.142Z</time></trkpt><trkpt lat="43.0592341" lon="11.1037857"><ele>429.0</ele><time>2026-04-26T11:01:10.143Z</time></trkpt><trkpt lat="43.0593052" lon="11.1037893"><ele>431.14285714285717</ele><time>2026-04-26T11:01:11.136Z</time></trkpt><trkpt lat="43.0593742" lon="11.1038075"><ele>433.28571428571433</ele><time>2026-04-26T11:01:12.149Z</time></trkpt><trkpt lat="43.0594434" lon="11.1038342"><ele>435.42857142857144</ele><time>2026-04-26T11:01:13.146Z</time></trkpt><trkpt lat="43.0595156" lon="11.1038582"><ele>437.57142857142856</ele><time>2026-04-26T11:01:14.156Z</time></trkpt><trkpt lat="43.0595828" lon="11.1038813"><ele>439.7142857142857</ele><time>2026-04-26T11:01:15.149Z</time></trkpt><trkpt lat="43.0596477" lon="11.1039027"><ele>441.85714285714283</ele><time>2026-04-26T11:01:16.148Z</time></trkpt><trkpt lat="43.0597132" lon="11.1039257"><ele>444.0</ele><time>2026-04-26T11:01:17.147Z</time></trkpt><trkpt lat="43.059786" lon="11.1039422"><ele>444.0</ele><time>2026-04-26T11:01:18.155Z</time></trkpt><trkpt lat="43.0598556" lon="11.1039598"><ele>444.0</ele><time>2026-04-26T11:01:19.157Z</time></trkpt><trkpt lat="43.059923" lon="11.1039753"><ele>444.0</ele><time>2026-04-26T11:01:20.135Z</time></trkpt><trkpt lat="43.0599945" lon="11.1039951"><ele>444.0</ele><time>2026-04-26T11:01:21.14Z</time></trkpt><trkpt lat="43.0600651" lon="11.1040115"><ele>444.0</ele><time>2026-04-26T11:01:22.153Z</time></trkpt><trkpt lat="43.0601329" lon="11.104027"><ele>444.0</ele><time>2026-04-26T11:01:23.152Z</time></trkpt><trkpt lat="43.0601964" lon="11.1040377"><ele>444.0</ele><time>2026-04-26T11:01:24.147Z</time></trkpt><trkpt lat="43.0602606" lon="11.1040463"><ele>444.0</ele><time>2026-04-26T11:01:25.15Z</time></trkpt><trkpt lat="43.0603253" lon="11.1040508"><ele>444.0</ele><time>2026-04-26T11:01:26.13Z</time></trkpt><trkpt lat="43.0603947" lon="11.1040603"><ele>444.0</ele><time>2026-04-26T11:01:27.157Z</time></trkpt><trkpt lat="43.0604653" lon="11.1040768"><ele>444.0</ele><time>2026-04-26T11:01:28.143Z</time></trkpt><trkpt lat="43.0605375" lon="11.1040974"><ele>444.0</ele><time>2026-04-26T11:01:29.153Z</time></trkpt><trkpt lat="43.0606115" lon="11.1041102"><ele>444.0</ele><time>2026-04-26T11:01:30.127Z</time></trkpt><trkpt lat="43.0606791" lon="11.1041302"><ele>444.0</ele><time>2026-04-26T11:01:31.135Z</time></trkpt><trkpt lat="43.0607953" lon="11.1041462"><ele>446.4</ele><time>2026-04-26T11:01:33.15Z</time></trkpt><trkpt lat="43.0609194" lon="11.1041672"><ele>448.79999999999995</ele><time>2026-04-26T11:01:35.142Z</time></trkpt><trkpt lat="43.0609824" lon="11.1041797"><ele>451.20000000000005</ele><time>2026-04-26T11:01:36.141Z</time></trkpt><trkpt lat="43.0610942" lon="11.104217"><ele>453.6</ele><time>2026-04-26T11:01:38.141Z</time></trkpt><trkpt lat="43.0612111" lon="11.1042423"><ele>456.0</ele><time>2026-04-26T11:01:40.153Z</time></trkpt><trkpt lat="43.0612787" lon="11.1042575"><ele>456.0</ele><time>2026-04-26T11:01:41.139Z</time></trkpt><trkpt lat="43.0613435" lon="11.1042741"><ele>455.99999999999994</ele><time>2026-04-26T11:01:42.151Z</time></trkpt><trkpt lat="43.0614124" lon="11.1042874"><ele>456.0</ele><time>2026-04-26T11:01:43.14Z</time></trkpt><trkpt lat="43.0614777" lon="11.104307"><ele>456.0</ele><time>2026-04-26T11:01:44.167Z</time></trkpt><trkpt lat="43.0615467" lon="11.1043239"><ele>455.99999999999994</ele><time>2026-04-26T11:01:45.144Z</time></trkpt><trkpt lat="43.0616174" lon="11.1043421"><ele>456.0</ele><time>2026-04-26T11:01:46.133Z</time></trkpt><trkpt lat="43.0616876" lon="11.1043529"><ele>456.0</ele><time>2026-04-26T11:01:47.154Z</time></trkpt><trkpt lat="43.0617612" lon="11.1043715"><ele>456.3333333333333</ele><time>2026-04-26T11:01:48.142Z</time></trkpt><trkpt lat="43.0618334" lon="11.1043929"><ele>456.66666666666663</ele><time>2026-04-26T11:01:49.144Z</time></trkpt><trkpt lat="43.061913" lon="11.1044074"><ele>457.0</ele><time>2026-04-26T11:01:50.146Z</time></trkpt><trkpt lat="43.0619907" lon="11.1044275"><ele>457.3333333333333</ele><time>2026-04-26T11:01:51.139Z</time></trkpt><trkpt lat="43.0620732" lon="11.1044477"><ele>457.66666666666663</ele><time>2026-04-26T11:01:52.141Z</time></trkpt><trkpt lat="43.0621653" lon="11.1044596"><ele>458.0</ele><time>2026-04-26T11:01:53.158Z</time></trkpt><trkpt lat="43.0622569" lon="11.104475"><ele>458.0</ele><time>2026-04-26T11:01:54.158Z</time></trkpt><trkpt lat="43.0623476" lon="11.1044887"><ele>457.99999999999994</ele><time>2026-04-26T11:01:55.152Z</time></trkpt><trkpt lat="43.0624335" lon="11.104504"><ele>457.99999999999994</ele><time>2026-04-26T11:01:56.142Z</time></trkpt><trkpt lat="43.0625243" lon="11.1045226"><ele>458.0</ele><time>2026-04-26T11:01:57.141Z</time></trkpt><trkpt lat="43.0626158" lon="11.1045537"><ele>458.0</ele><time>2026-04-26T11:01:58.148Z</time></trkpt><trkpt lat="43.0627086" lon="11.1045907"><ele>459.0</ele><time>2026-04-26T11:01:59.151Z</time></trkpt><trkpt lat="43.0627955" lon="11.1046328"><ele>459.99999999999994</ele><time>2026-04-26T11:02:00.154Z</time></trkpt><trkpt lat="43.062884" lon="11.1046769"><ele>460.99999999999994</ele><time>2026-04-26T11:02:01.133Z</time></trkpt><trkpt lat="43.0629717" lon="11.1047344"><ele>462.0</ele><time>2026-04-26T11:02:02.147Z</time></trkpt><trkpt lat="43.0630604" lon="11.1047777"><ele>463.0</ele><time>2026-04-26T11:02:03.148Z</time></trkpt><trkpt lat="43.0631434" lon="11.1048004"><ele>463.00000000000006</ele><time>2026-04-26T11:02:04.158Z</time></trkpt><trkpt lat="43.0632253" lon="11.1048212"><ele>463.0</ele><time>2026-04-26T11:02:05.156Z</time></trkpt><trkpt lat="43.0633124" lon="11.1048304"><ele>463.0</ele><time>2026-04-26T11:02:06.147Z</time></trkpt><trkpt lat="43.0633953" lon="11.1048437"><ele>463.0</ele><time>2026-04-26T11:02:07.148Z</time></trkpt><trkpt lat="43.0634599" lon="11.1048591"><ele>463.00000000000006</ele><time>2026-04-26T11:02:08.145Z</time></trkpt><trkpt lat="43.0635679" lon="11.1049136"><ele>463.0</ele><time>2026-04-26T11:02:10.137Z</time></trkpt><trkpt lat="43.0636738" lon="11.1049844"><ele>463.00000000000006</ele><time>2026-04-26T11:02:12.152Z</time></trkpt><trkpt lat="43.0637754" lon="11.1050718"><ele>463.0</ele><time>2026-04-26T11:02:14.144Z</time></trkpt><trkpt lat="43.0638227" lon="11.10513"><ele>463.0</ele><time>2026-04-26T11:02:15.145Z</time></trkpt><trkpt lat="43.06386" lon="11.1052018"><ele>463.0</ele><time>2026-04-26T11:02:16.148Z</time></trkpt><trkpt lat="43.0639193" lon="11.105352"><ele>463.00000000000006</ele><time>2026-04-26T11:02:18.138Z</time></trkpt><trkpt lat="43.0639599" lon="11.1054227"><ele>463.0</ele><time>2026-04-26T11:02:19.146Z</time></trkpt><trkpt lat="43.0640036" lon="11.1054868"><ele>463.00000000000006</ele><time>2026-04-26T11:02:20.141Z</time></trkpt><trkpt lat="43.0640429" lon="11.1055586"><ele>463.0</ele><time>2026-04-26T11:02:21.135Z</time></trkpt><trkpt lat="43.0640879" lon="11.1056195"><ele>463.0</ele><time>2026-04-26T11:02:22.158Z</time></trkpt><trkpt lat="43.0641403" lon="11.105675"><ele>463.0</ele><time>2026-04-26T11:02:23.134Z</time></trkpt><trkpt lat="43.0641957" lon="11.1057241"><ele>463.00000000000006</ele><time>2026-04-26T11:02:24.121Z</time></trkpt><trkpt lat="43.0642575" lon="11.1057672"><ele>463.0</ele><time>2026-04-26T11:02:25.103Z</time></trkpt><trkpt lat="43.064371" lon="11.1058412"><ele>463.4</ele><time>2026-04-26T11:02:27.109Z</time></trkpt><trkpt lat="43.0644847" lon="11.1059002"><ele>463.79999999999995</ele><time>2026-04-26T11:02:29.091Z</time></trkpt><trkpt lat="43.064597" lon="11.1059602"><ele>464.2</ele><time>2026-04-26T11:02:31.091Z</time></trkpt><trkpt lat="43.0647091" lon="11.1060277"><ele>464.6</ele><time>2026-04-26T11:02:33.101Z</time></trkpt><trkpt lat="43.0647671" lon="11.1060636"><ele>465.0</ele><time>2026-04-26T11:02:34.101Z</time></trkpt><trkpt lat="43.0648296" lon="11.1061071"><ele>465.0</ele><time>2026-04-26T11:02:35.091Z</time></trkpt><trkpt lat="43.0648914" lon="11.1061442"><ele>465.0</ele><time>2026-04-26T11:02:36.091Z</time></trkpt><trkpt lat="43.0649577" lon="11.106167"><ele>465.0</ele><time>2026-04-26T11:02:37.097Z</time></trkpt><trkpt lat="43.0650283" lon="11.1061702"><ele>465.0</ele><time>2026-04-26T11:02:38.096Z</time></trkpt><trkpt lat="43.0651049" lon="11.1061741"><ele>465.0</ele><time>2026-04-26T11:02:39.097Z</time></trkpt><trkpt lat="43.0651917" lon="11.1061795"><ele>465.0</ele><time>2026-04-26T11:02:40.107Z</time></trkpt><trkpt lat="43.0652711" lon="11.1061998"><ele>465.3333333333333</ele><time>2026-04-26T11:02:41.094Z</time></trkpt><trkpt lat="43.0653474" lon="11.1062323"><ele>465.66666666666663</ele><time>2026-04-26T11:02:42.094Z</time></trkpt><trkpt lat="43.0654231" lon="11.1062709"><ele>466.0</ele><time>2026-04-26T11:02:43.096Z</time></trkpt><trkpt lat="43.0654992" lon="11.1062887"><ele>466.3333333333333</ele><time>2026-04-26T11:02:44.097Z</time></trkpt><trkpt lat="43.0655768" lon="11.1062867"><ele>466.66666666666663</ele><time>2026-04-26T11:02:45.098Z</time></trkpt><trkpt lat="43.0656534" lon="11.1062642"><ele>467.0</ele><time>2026-04-26T11:02:46.098Z</time></trkpt><trkpt lat="43.0657274" lon="11.1062227"><ele>466.16666666666663</ele><time>2026-04-26T11:02:47.091Z</time></trkpt><trkpt lat="43.0657976" lon="11.1061708"><ele>465.3333333333333</ele><time>2026-04-26T11:02:48.101Z</time></trkpt><trkpt lat="43.0658709" lon="11.1061227"><ele>464.5</ele><time>2026-04-26T11:02:49.097Z</time></trkpt><trkpt lat="43.0659577" lon="11.1060791"><ele>463.66666666666663</ele><time>2026-04-26T11:02:50.096Z</time></trkpt><trkpt lat="43.0660496" lon="11.1060355"><ele>462.8333333333333</ele><time>2026-04-26T11:02:51.098Z</time></trkpt><trkpt lat="43.0661384" lon="11.1060093"><ele>462.0</ele><time>2026-04-26T11:02:52.094Z</time></trkpt><trkpt lat="43.0662265" lon="11.1059897"><ele>462.0</ele><time>2026-04-26T11:02:53.105Z</time></trkpt><trkpt lat="43.0663125" lon="11.1059861"><ele>462.0</ele><time>2026-04-26T11:02:54.102Z</time></trkpt><trkpt lat="43.0663967" lon="11.1059964"><ele>462.0</ele><time>2026-04-26T11:02:55.099Z</time></trkpt><trkpt lat="43.0664809" lon="11.1060113"><ele>462.0</ele><time>2026-04-26T11:02:56.092Z</time></trkpt><trkpt lat="43.0665674" lon="11.1060359"><ele>462.0</ele><time>2026-04-26T11:02:57.096Z</time></trkpt><trkpt lat="43.0666527" lon="11.1060702"><ele>462.0</ele><time>2026-04-26T11:02:58.093Z</time></trkpt><trkpt lat="43.0667369" lon="11.1061073"><ele>461.6</ele><time>2026-04-26T11:02:59.101Z</time></trkpt><trkpt lat="43.0668207" lon="11.106151"><ele>461.20000000000005</ele><time>2026-04-26T11:03:00.091Z</time></trkpt><trkpt lat="43.0669046" lon="11.1061926"><ele>460.8</ele><time>2026-04-26T11:03:01.101Z</time></trkpt><trkpt lat="43.0669921" lon="11.1062146"><ele>460.4</ele><time>2026-04-26T11:03:02.096Z</time></trkpt><trkpt lat="43.0670829" lon="11.1062261"><ele>460.0</ele><time>2026-04-26T11:03:03.098Z</time></trkpt><trkpt lat="43.0671762" lon="11.1062258"><ele>460.0</ele><time>2026-04-26T11:03:04.115Z</time></trkpt><trkpt lat="43.0672759" lon="11.1062111"><ele>460.0</ele><time>2026-04-26T11:03:05.092Z</time></trkpt><trkpt lat="43.0673736" lon="11.1061918"><ele>460.0</ele><time>2026-04-26T11:03:06.097Z</time></trkpt><trkpt lat="43.0674702" lon="11.1061685"><ele>460.0</ele><time>2026-04-26T11:03:07.098Z</time></trkpt><trkpt lat="43.0675659" lon="11.1061516"><ele>460.0</ele><time>2026-04-26T11:03:08.102Z</time></trkpt><trkpt lat="43.0676586" lon="11.1061651"><ele>459.6666666666667</ele><time>2026-04-26T11:03:09.105Z</time></trkpt><trkpt lat="43.0677352" lon="11.1062004"><ele>459.33333333333337</ele><time>2026-04-26T11:03:10.1Z</time></trkpt><trkpt lat="43.0677964" lon="11.1062563"><ele>459.0</ele><time>2026-04-26T11:03:11.105Z</time></trkpt><trkpt lat="43.0678543" lon="11.1063312"><ele>458.66666666666663</ele><time>2026-04-26T11:03:12.091Z</time></trkpt><trkpt lat="43.0679099" lon="11.1064027"><ele>458.3333333333333</ele><time>2026-04-26T11:03:13.095Z</time></trkpt><trkpt lat="43.067976" lon="11.1064753"><ele>458.0</ele><time>2026-04-26T11:03:14.097Z</time></trkpt><trkpt lat="43.0680386" lon="11.106541"><ele>457.59999999999997</ele><time>2026-04-26T11:03:15.106Z</time></trkpt><trkpt lat="43.068104" lon="11.1066167"><ele>457.19999999999993</ele><time>2026-04-26T11:03:16.094Z</time></trkpt><trkpt lat="43.0681693" lon="11.1066968"><ele>456.8</ele><time>2026-04-26T11:03:17.1Z</time></trkpt><trkpt lat="43.0682351" lon="11.1067839"><ele>456.4</ele><time>2026-04-26T11:03:18.096Z</time></trkpt><trkpt lat="43.0683009" lon="11.1068701"><ele>456.0</ele><time>2026-04-26T11:03:19.092Z</time></trkpt><trkpt lat="43.06837" lon="11.10696"><ele>456.0</ele><time>2026-04-26T11:03:20.1Z</time></trkpt><trkpt lat="43.0684419" lon="11.1070438"><ele>456.0</ele><time>2026-04-26T11:03:21.105Z</time></trkpt><trkpt lat="43.0685214" lon="11.1071327"><ele>456.0</ele><time>2026-04-26T11:03:22.101Z</time></trkpt><trkpt lat="43.0685997" lon="11.1072267"><ele>456.0</ele><time>2026-04-26T11:03:23.092Z</time></trkpt><trkpt lat="43.0686767" lon="11.107319"><ele>456.0</ele><time>2026-04-26T11:03:24.095Z</time></trkpt><trkpt lat="43.0687401" lon="11.1074091"><ele>454.3333333333333</ele><time>2026-04-26T11:03:25.1Z</time></trkpt><trkpt lat="43.068803" lon="11.1074965"><ele>452.66666666666663</ele><time>2026-04-26T11:03:26.101Z</time></trkpt><trkpt lat="43.0688668" lon="11.1075713"><ele>451.0</ele><time>2026-04-26T11:03:27.096Z</time></trkpt><trkpt lat="43.0689361" lon="11.1076303"><ele>449.3333333333333</ele><time>2026-04-26T11:03:28.096Z</time></trkpt><trkpt lat="43.0690153" lon="11.1076711"><ele>447.66666666666663</ele><time>2026-04-26T11:03:29.099Z</time></trkpt><trkpt lat="43.0690988" lon="11.1077079"><ele>446.0</ele><time>2026-04-26T11:03:30.097Z</time></trkpt><trkpt lat="43.0691863" lon="11.1077485"><ele>446.0</ele><time>2026-04-26T11:03:31.102Z</time></trkpt><trkpt lat="43.0692744" lon="11.1077837"><ele>446.0</ele><time>2026-04-26T11:03:32.092Z</time></trkpt><trkpt lat="43.069362" lon="11.1078148"><ele>446.0</ele><time>2026-04-26T11:03:33.107Z</time></trkpt><trkpt lat="43.0694527" lon="11.1078355"><ele>446.0</ele><time>2026-04-26T11:03:34.096Z</time></trkpt><trkpt lat="43.069541" lon="11.1078666"><ele>446.0</ele><time>2026-04-26T11:03:35.102Z</time></trkpt><trkpt lat="43.0696239" lon="11.1079066"><ele>446.0</ele><time>2026-04-26T11:03:36.106Z</time></trkpt><trkpt lat="43.0697075" lon="11.1079542"><ele>446.0</ele><time>2026-04-26T11:03:37.102Z</time></trkpt><trkpt lat="43.0697976" lon="11.1080043"><ele>446.0</ele><time>2026-04-26T11:03:38.097Z</time></trkpt><trkpt lat="43.0698844" lon="11.1080438"><ele>446.0</ele><time>2026-04-26T11:03:39.101Z</time></trkpt><trkpt lat="43.0699749" lon="11.1080755"><ele>446.0</ele><time>2026-04-26T11:03:40.098Z</time></trkpt><trkpt lat="43.070066" lon="11.1081"><ele>444.3333333333333</ele><time>2026-04-26T11:03:41.097Z</time></trkpt><trkpt lat="43.0701493" lon="11.1081142"><ele>442.66666666666663</ele><time>2026-04-26T11:03:42.092Z</time></trkpt><trkpt lat="43.070227" lon="11.108127"><ele>441.0</ele><time>2026-04-26T11:03:43.1Z</time></trkpt><trkpt lat="43.0703007" lon="11.1081519"><ele>439.33333333333337</ele><time>2026-04-26T11:03:44.1Z</time></trkpt><trkpt lat="43.0703696" lon="11.1081906"><ele>437.6666666666667</ele><time>2026-04-26T11:03:45.092Z</time></trkpt><trkpt lat="43.0704303" lon="11.108259"><ele>436.0</ele><time>2026-04-26T11:03:46.1Z</time></trkpt><trkpt lat="43.0704888" lon="11.1083438"><ele>434.83333333333337</ele><time>2026-04-26T11:03:47.095Z</time></trkpt><trkpt lat="43.0705449" lon="11.1084302"><ele>433.6666666666667</ele><time>2026-04-26T11:03:48.106Z</time></trkpt><trkpt lat="43.0705959" lon="11.1085092"><ele>432.5</ele><time>2026-04-26T11:03:49.104Z</time></trkpt><trkpt lat="43.0706379" lon="11.1085878"><ele>431.33333333333337</ele><time>2026-04-26T11:03:50.105Z</time></trkpt><trkpt lat="43.070676" lon="11.1086769"><ele>430.1666666666667</ele><time>2026-04-26T11:03:51.093Z</time></trkpt><trkpt lat="43.0707164" lon="11.1087665"><ele>429.0</ele><time>2026-04-26T11:03:52.098Z</time></trkpt><trkpt lat="43.070756" lon="11.1088639"><ele>429.6666666666667</ele><time>2026-04-26T11:03:53.098Z</time></trkpt><trkpt lat="43.0707994" lon="11.1089493"><ele>430.33333333333337</ele><time>2026-04-26T11:03:54.1Z</time></trkpt><trkpt lat="43.0708439" lon="11.1090281"><ele>431.0</ele><time>2026-04-26T11:03:55.1Z</time></trkpt><trkpt lat="43.070887" lon="11.1091063"><ele>431.6666666666667</ele><time>2026-04-26T11:03:56.106Z</time></trkpt><trkpt lat="43.0709311" lon="11.1091829"><ele>432.33333333333337</ele><time>2026-04-26T11:03:57.097Z</time></trkpt><trkpt lat="43.0709746" lon="11.1092741"><ele>433.0</ele><time>2026-04-26T11:03:58.099Z</time></trkpt><trkpt lat="43.0710164" lon="11.1093735"><ele>430.50000000000006</ele><time>2026-04-26T11:03:59.099Z</time></trkpt><trkpt lat="43.0710612" lon="11.1094745"><ele>428.0</ele><time>2026-04-26T11:04:00.097Z</time></trkpt><trkpt lat="43.0711171" lon="11.1095524"><ele>425.5</ele><time>2026-04-26T11:04:01.104Z</time></trkpt><trkpt lat="43.0711879" lon="11.109616"><ele>423.0</ele><time>2026-04-26T11:04:02.099Z</time></trkpt><trkpt lat="43.071264" lon="11.1096594"><ele>420.50000000000006</ele><time>2026-04-26T11:04:03.092Z</time></trkpt><trkpt lat="43.0713389" lon="11.1096819"><ele>418.0</ele><time>2026-04-26T11:04:04.086Z</time></trkpt><trkpt lat="43.0714156" lon="11.1096918"><ele>418.00000000000006</ele><time>2026-04-26T11:04:05.088Z</time></trkpt><trkpt lat="43.0714975" lon="11.1096822"><ele>418.0</ele><time>2026-04-26T11:04:06.096Z</time></trkpt><trkpt lat="43.0715788" lon="11.1096786"><ele>418.0</ele><time>2026-04-26T11:04:07.099Z</time></trkpt><trkpt lat="43.0716521" lon="11.1096939"><ele>418.0</ele><time>2026-04-26T11:04:08.092Z</time></trkpt><trkpt lat="43.0717249" lon="11.1097218"><ele>418.00000000000006</ele><time>2026-04-26T11:04:09.1Z</time></trkpt><trkpt lat="43.0718037" lon="11.1097646"><ele>418.0</ele><time>2026-04-26T11:04:10.096Z</time></trkpt><trkpt lat="43.0718798" lon="11.1098257"><ele>417.00000000000006</ele><time>2026-04-26T11:04:11.092Z</time></trkpt><trkpt lat="43.0719492" lon="11.1098797"><ele>416.0</ele><time>2026-04-26T11:04:12.098Z</time></trkpt><trkpt lat="43.0720199" lon="11.1099272"><ele>415.0</ele><time>2026-04-26T11:04:13.103Z</time></trkpt><trkpt lat="43.0720892" lon="11.1099785"><ele>414.0</ele><time>2026-04-26T11:04:14.096Z</time></trkpt><trkpt lat="43.0721514" lon="11.1100206"><ele>413.00000000000006</ele><time>2026-04-26T11:04:15.101Z</time></trkpt><trkpt lat="43.0722186" lon="11.1101418"><ele>412.0</ele><time>2026-04-26T11:04:17.104Z</time></trkpt><trkpt lat="43.0722043" lon="11.1103094"><ele>409.50000000000006</ele><time>2026-04-26T11:04:19.101Z</time></trkpt><trkpt lat="43.0721706" lon="11.1103877"><ele>407.0</ele><time>2026-04-26T11:04:20.092Z</time></trkpt><trkpt lat="43.0721328" lon="11.110517"><ele>404.5</ele><time>2026-04-26T11:04:22.1Z</time></trkpt><trkpt lat="43.0721203" lon="11.1106314"><ele>402.0</ele><time>2026-04-26T11:04:24.103Z</time></trkpt><trkpt lat="43.0721256" lon="11.1107577"><ele>399.50000000000006</ele><time>2026-04-26T11:04:26.097Z</time></trkpt><trkpt lat="43.0721362" lon="11.1108491"><ele>397.0</ele><time>2026-04-26T11:04:28.093Z</time></trkpt><trkpt lat="43.0721997" lon="11.110909"><ele>397.00000000000006</ele><time>2026-04-26T11:04:31.1Z</time></trkpt><trkpt lat="43.0722812" lon="11.1108459"><ele>397.0</ele><time>2026-04-26T11:05:02.105Z</time></trkpt><trkpt lat="43.0723341" lon="11.1107426"><ele>397.0</ele><time>2026-04-26T11:05:04.096Z</time></trkpt><trkpt lat="43.0723664" lon="11.1106659"><ele>397.0</ele><time>2026-04-26T11:05:05.099Z</time></trkpt><trkpt lat="43.0724122" lon="11.1105897"><ele>397.00000000000006</ele><time>2026-04-26T11:05:06.101Z</time></trkpt><trkpt lat="43.0724685" lon="11.1105041"><ele>397.0</ele><time>2026-04-26T11:05:07.094Z</time></trkpt><trkpt lat="43.0725336" lon="11.1104276"><ele>393.6</ele><time>2026-04-26T11:05:08.088Z</time></trkpt><trkpt lat="43.0726032" lon="11.110346"><ele>390.20000000000005</ele><time>2026-04-26T11:05:09.097Z</time></trkpt><trkpt lat="43.0726766" lon="11.1102584"><ele>386.8</ele><time>2026-04-26T11:05:10.099Z</time></trkpt><trkpt lat="43.0727409" lon="11.1101738"><ele>383.4</ele><time>2026-04-26T11:05:11.097Z</time></trkpt><trkpt lat="43.0727947" lon="11.1100775"><ele>380.0</ele><time>2026-04-26T11:05:12.118Z</time></trkpt><trkpt lat="43.0728298" lon="11.1099736"><ele>380.33333333333337</ele><time>2026-04-26T11:05:13.102Z</time></trkpt><trkpt lat="43.0728432" lon="11.109867"><ele>380.6666666666667</ele><time>2026-04-26T11:05:14.1Z</time></trkpt><trkpt lat="43.072845" lon="11.1097512"><ele>381.0</ele><time>2026-04-26T11:05:15.098Z</time></trkpt><trkpt lat="43.0728552" lon="11.1096537"><ele>381.3333333333333</ele><time>2026-04-26T11:05:16.101Z</time></trkpt><trkpt lat="43.0728945" lon="11.1095454"><ele>381.66666666666663</ele><time>2026-04-26T11:05:18.095Z</time></trkpt><trkpt lat="43.0729332" lon="11.1096622"><ele>382.0</ele><time>2026-04-26T11:05:21.097Z</time></trkpt><trkpt lat="43.0729541" lon="11.1097966"><ele>381.6</ele><time>2026-04-26T11:05:23.101Z</time></trkpt><trkpt lat="43.0730054" lon="11.1099528"><ele>381.20000000000005</ele><time>2026-04-26T11:05:25.098Z</time></trkpt><trkpt lat="43.0730681" lon="11.1100661"><ele>380.8</ele><time>2026-04-26T11:05:27.097Z</time></trkpt><trkpt lat="43.0731557" lon="11.1100625"><ele>380.4</ele><time>2026-04-26T11:05:29.099Z</time></trkpt><trkpt lat="43.0732513" lon="11.1099664"><ele>380.0</ele><time>2026-04-26T11:05:31.109Z</time></trkpt><trkpt lat="43.0733207" lon="11.1098547"><ele>376.0</ele><time>2026-04-26T11:05:33.098Z</time></trkpt><trkpt lat="43.0733864" lon="11.1098262"><ele>372.0</ele><time>2026-04-26T11:05:36.095Z</time></trkpt><trkpt lat="43.0734306" lon="11.1099609"><ele>368.0</ele><time>2026-04-26T11:05:39.101Z</time></trkpt><trkpt lat="43.0734849" lon="11.1100601"><ele>364.0</ele><time>2026-04-26T11:05:41.095Z</time></trkpt><trkpt lat="43.0735772" lon="11.110028"><ele>360.0</ele><time>2026-04-26T11:05:43.108Z</time></trkpt><trkpt lat="43.0736431" lon="11.1099775"><ele>356.0</ele><time>2026-04-26T11:05:45.096Z</time></trkpt><trkpt lat="43.0737193" lon="11.1099759"><ele>355.83333333333337</ele><time>2026-04-26T11:05:47.099Z</time></trkpt><trkpt lat="43.0737583" lon="11.1100878"><ele>355.6666666666667</ele><time>2026-04-26T11:05:50.096Z</time></trkpt><trkpt lat="43.0737797" lon="11.1101698"><ele>355.5</ele><time>2026-04-26T11:05:52.098Z</time></trkpt><trkpt lat="43.073852" lon="11.1101976"><ele>355.3333333333333</ele><time>2026-04-26T11:05:55.096Z</time></trkpt><trkpt lat="43.0738831" lon="11.1101136"><ele>355.16666666666663</ele><time>2026-04-26T11:05:57.096Z</time></trkpt><trkpt lat="43.0739192" lon="11.1100209"><ele>355.0</ele><time>2026-04-26T11:05:59.101Z</time></trkpt><trkpt lat="43.073943" lon="11.1099102"><ele>355.16666666666663</ele><time>2026-04-26T11:06:01.089Z</time></trkpt><trkpt lat="43.0739596" lon="11.1097928"><ele>355.3333333333333</ele><time>2026-04-26T11:06:03.095Z</time></trkpt><trkpt lat="43.0739589" lon="11.1096785"><ele>355.5</ele><time>2026-04-26T11:06:05.092Z</time></trkpt><trkpt lat="43.0739493" lon="11.1095439"><ele>355.6666666666667</ele><time>2026-04-26T11:06:07.108Z</time></trkpt><trkpt lat="43.0739442" lon="11.1094141"><ele>355.83333333333337</ele><time>2026-04-26T11:06:09.109Z</time></trkpt><trkpt lat="43.0739909" lon="11.1093305"><ele>356.0</ele><time>2026-04-26T11:06:12.094Z</time></trkpt><trkpt lat="43.0739433" lon="11.1094232"><ele>355.99999999999994</ele><time>2026-04-26T11:07:03.1Z</time></trkpt><trkpt lat="43.073948" lon="11.1095343"><ele>356.0</ele><time>2026-04-26T11:07:09.103Z</time></trkpt><trkpt lat="43.0740123" lon="11.109568"><ele>356.0</ele><time>2026-04-26T11:07:15.093Z</time></trkpt><trkpt lat="43.0740763" lon="11.1095319"><ele>356.0</ele><time>2026-04-26T11:07:52.108Z</time></trkpt><trkpt lat="43.0741314" lon="11.1094528"><ele>356.0</ele><time>2026-04-26T11:07:56.103Z</time></trkpt><trkpt lat="43.0741875" lon="11.1093854"><ele>355.99999999999994</ele><time>2026-04-26T11:08:05.097Z</time></trkpt><trkpt lat="43.0742474" lon="11.1093312"><ele>356.0</ele><time>2026-04-26T11:08:08.096Z</time></trkpt><trkpt lat="43.0741952" lon="11.1092025"><ele>356.0</ele><time>2026-04-26T11:08:11.095Z</time></trkpt><trkpt lat="43.0741344" lon="11.1091352"><ele>356.0</ele><time>2026-04-26T11:08:13.103Z</time></trkpt><trkpt lat="43.0740716" lon="11.109111"><ele>356.0</ele><time>2026-04-26T11:08:15.096Z</time></trkpt><trkpt lat="43.0740029" lon="11.1090508"><ele>356.0</ele><time>2026-04-26T11:08:20.1Z</time></trkpt><trkpt lat="43.0739486" lon="11.1089639"><ele>356.0</ele><time>2026-04-26T11:08:23.096Z</time></trkpt><trkpt lat="43.0739581" lon="11.1090601"><ele>356.0</ele><time>2026-04-26T11:08:28.093Z</time></trkpt><trkpt lat="43.0740065" lon="11.1091427"><ele>355.99999999999994</ele><time>2026-04-26T11:08:31.096Z</time></trkpt><trkpt lat="43.0740771" lon="11.1091714"><ele>356.0</ele><time>2026-04-26T11:08:37.089Z</time></trkpt><trkpt lat="43.0741535" lon="11.109175"><ele>356.0</ele><time>2026-04-26T11:08:40.098Z</time></trkpt><trkpt lat="43.0740819" lon="11.1091312"><ele>356.0</ele><time>2026-04-26T11:09:05.101Z</time></trkpt><trkpt lat="43.0740141" lon="11.1091037"><ele>356.0</ele><time>2026-04-26T11:09:08.094Z</time></trkpt><trkpt lat="43.0739659" lon="11.1090302"><ele>355.99999999999994</ele><time>2026-04-26T11:09:13.091Z</time></trkpt><trkpt lat="43.0739148" lon="11.1089703"><ele>356.0</ele><time>2026-04-26T11:09:17.101Z</time></trkpt><trkpt lat="43.0739283" lon="11.109063"><ele>356.0</ele><time>2026-04-26T11:09:23.096Z</time></trkpt><trkpt lat="43.0739804" lon="11.1091385"><ele>356.0</ele><time>2026-04-26T11:20:22.096Z</time></trkpt><trkpt lat="43.0740912" lon="11.109179"><ele>356.0</ele><time>2026-04-26T11:20:24.095Z</time></trkpt><trkpt lat="43.0741619" lon="11.1091767"><ele>356.0</ele><time>2026-04-26T11:20:26.098Z</time></trkpt><trkpt lat="43.0740974" lon="11.1091502"><ele>356.0</ele><time>2026-04-26T11:20:30.096Z</time></trkpt><trkpt lat="43.0740152" lon="11.1091398"><ele>356.0</ele><time>2026-04-26T11:20:34.106Z</time></trkpt><trkpt lat="43.0739714" lon="11.1090754"><ele>356.0</ele><time>2026-04-26T11:20:36.12Z</time></trkpt><trkpt lat="43.0739251" lon="11.1089881"><ele>356.0</ele><time>2026-04-26T11:20:39.102Z</time></trkpt><trkpt lat="43.0739698" lon="11.1090796"><ele>356.0</ele><time>2026-04-26T11:20:54.104Z</time></trkpt><trkpt lat="43.0740411" lon="11.1091282"><ele>356.0</ele><time>2026-04-26T11:20:56.09Z</time></trkpt><trkpt lat="43.0741158" lon="11.1091482"><ele>356.0</ele><time>2026-04-26T11:20:58.092Z</time></trkpt><trkpt lat="43.0741679" lon="11.1092216"><ele>356.0</ele><time>2026-04-26T11:21:01.102Z</time></trkpt><trkpt lat="43.0742171" lon="11.1093078"><ele>356.0</ele><time>2026-04-26T11:21:05.096Z</time></trkpt><trkpt lat="43.0741766" lon="11.1091889"><ele>356.0</ele><time>2026-04-26T11:21:19.113Z</time></trkpt><trkpt lat="43.0741194" lon="11.1091342"><ele>356.0</ele><time>2026-04-26T11:21:21.091Z</time></trkpt><trkpt lat="43.0740407" lon="11.1091411"><ele>356.0</ele><time>2026-04-26T11:21:23.087Z</time></trkpt><trkpt lat="43.0739738" lon="11.1090807"><ele>356.0</ele><time>2026-04-26T11:21:26.097Z</time></trkpt><trkpt lat="43.0740359" lon="11.1091498"><ele>356.0</ele><time>2026-04-26T11:22:01.092Z</time></trkpt><trkpt lat="43.0741235" lon="11.1091368"><ele>354.6666666666667</ele><time>2026-04-26T11:22:04.097Z</time></trkpt><trkpt lat="43.0741805" lon="11.1092071"><ele>353.33333333333337</ele><time>2026-04-26T11:22:07.091Z</time></trkpt><trkpt lat="43.0742197" lon="11.1092916"><ele>352.0</ele><time>2026-04-26T11:22:10.098Z</time></trkpt><trkpt lat="43.074261" lon="11.1093678"><ele>350.6666666666667</ele><time>2026-04-26T11:22:12.095Z</time></trkpt><trkpt lat="43.0742951" lon="11.1094828"><ele>349.3333333333333</ele><time>2026-04-26T11:22:15.107Z</time></trkpt><trkpt lat="43.0743244" lon="11.1095607"><ele>348.0</ele><time>2026-04-26T11:22:17.097Z</time></trkpt><trkpt lat="43.074347" lon="11.1096697"><ele>348.0</ele><time>2026-04-26T11:22:20.107Z</time></trkpt><trkpt lat="43.0743772" lon="11.1097663"><ele>348.0</ele><time>2026-04-26T11:22:23.094Z</time></trkpt><trkpt lat="43.0744095" lon="11.1098599"><ele>348.0</ele><time>2026-04-26T11:22:26.09Z</time></trkpt><trkpt lat="43.0744411" lon="11.1099521"><ele>348.0</ele><time>2026-04-26T11:22:29.099Z</time></trkpt><trkpt lat="43.0744368" lon="11.1100725"><ele>348.0</ele><time>2026-04-26T11:22:32.093Z</time></trkpt><trkpt lat="43.0744442" lon="11.1101727"><ele>348.0</ele><time>2026-04-26T11:22:34.098Z</time></trkpt><trkpt lat="43.0744653" lon="11.1102655"><ele>348.3333333333333</ele><time>2026-04-26T11:22:36.102Z</time></trkpt><trkpt lat="43.074503" lon="11.1103531"><ele>348.6666666666667</ele><time>2026-04-26T11:22:38.098Z</time></trkpt><trkpt lat="43.0745346" lon="11.1104574"><ele>349.0</ele><time>2026-04-26T11:22:40.094Z</time></trkpt><trkpt lat="43.0745686" lon="11.110551"><ele>349.33333333333337</ele><time>2026-04-26T11:22:42.097Z</time></trkpt><trkpt lat="43.0745805" lon="11.1106755"><ele>349.6666666666667</ele><time>2026-04-26T11:22:44.097Z</time></trkpt><trkpt lat="43.0745551" lon="11.1108186"><ele>350.0</ele><time>2026-04-26T11:22:46.094Z</time></trkpt><trkpt lat="43.0745019" lon="11.1109659"><ele>350.0</ele><time>2026-04-26T11:22:48.091Z</time></trkpt><trkpt lat="43.0744405" lon="11.1111098"><ele>350.0</ele><time>2026-04-26T11:22:50.099Z</time></trkpt><trkpt lat="43.0744137" lon="11.1112742"><ele>350.0</ele><time>2026-04-26T11:22:52.095Z</time></trkpt><trkpt lat="43.0744248" lon="11.1113766"><ele>350.0</ele><time>2026-04-26T11:22:53.093Z</time></trkpt><trkpt lat="43.0744584" lon="11.1114766"><ele>350.0</ele><time>2026-04-26T11:22:54.097Z</time></trkpt><trkpt lat="43.0744894" lon="11.1115787"><ele>350.85714285714283</ele><time>2026-04-26T11:22:55.093Z</time></trkpt><trkpt lat="43.0745144" lon="11.1116697"><ele>351.7142857142857</ele><time>2026-04-26T11:22:56.092Z</time></trkpt><trkpt lat="43.0745377" lon="11.111758"><ele>352.57142857142856</ele><time>2026-04-26T11:22:57.096Z</time></trkpt><trkpt lat="43.0745682" lon="11.1118403"><ele>353.42857142857144</ele><time>2026-04-26T11:22:58.093Z</time></trkpt><trkpt lat="43.0746011" lon="11.1119242"><ele>354.2857142857143</ele><time>2026-04-26T11:22:59.101Z</time></trkpt><trkpt lat="43.0746356" lon="11.1120071"><ele>355.1428571428571</ele><time>2026-04-26T11:23:00.095Z</time></trkpt><trkpt lat="43.0746648" lon="11.1120967"><ele>356.0</ele><time>2026-04-26T11:23:01.099Z</time></trkpt><trkpt lat="43.0746912" lon="11.1122013"><ele>356.0</ele><time>2026-04-26T11:23:02.094Z</time></trkpt><trkpt lat="43.0747071" lon="11.1122868"><ele>356.0</ele><time>2026-04-26T11:23:03.109Z</time></trkpt><trkpt lat="43.0747124" lon="11.1123799"><ele>356.0</ele><time>2026-04-26T11:23:04.09Z</time></trkpt><trkpt lat="43.0747209" lon="11.1124719"><ele>356.0</ele><time>2026-04-26T11:23:05.096Z</time></trkpt><trkpt lat="43.0747516" lon="11.1126402"><ele>356.0</ele><time>2026-04-26T11:23:07.091Z</time></trkpt><trkpt lat="43.0747786" lon="11.1127215"><ele>356.0</ele><time>2026-04-26T11:23:08.096Z</time></trkpt><trkpt lat="43.0748075" lon="11.1128006"><ele>355.71428571428567</ele><time>2026-04-26T11:23:09.092Z</time></trkpt><trkpt lat="43.074839" lon="11.1128829"><ele>355.42857142857144</ele><time>2026-04-26T11:23:10.097Z</time></trkpt><trkpt lat="43.0748695" lon="11.1129713"><ele>355.1428571428571</ele><time>2026-04-26T11:23:11.098Z</time></trkpt><trkpt lat="43.0748898" lon="11.1130716"><ele>354.85714285714283</ele><time>2026-04-26T11:23:12.09Z</time></trkpt><trkpt lat="43.0749077" lon="11.113167"><ele>354.57142857142856</ele><time>2026-04-26T11:23:13.091Z</time></trkpt><trkpt lat="43.0749241" lon="11.1132725"><ele>354.2857142857143</ele><time>2026-04-26T11:23:14.098Z</time></trkpt><trkpt lat="43.0749417" lon="11.1133711"><ele>354.0</ele><time>2026-04-26T11:23:15.096Z</time></trkpt><trkpt lat="43.0749392" lon="11.113468"><ele>357.2</ele><time>2026-04-26T11:23:16.101Z</time></trkpt><trkpt lat="43.0749396" lon="11.1135662"><ele>360.4</ele><time>2026-04-26T11:23:17.109Z</time></trkpt><trkpt lat="43.0749446" lon="11.1136704"><ele>363.6</ele><time>2026-04-26T11:23:18.095Z</time></trkpt><trkpt lat="43.0749633" lon="11.1137961"><ele>366.8</ele><time>2026-04-26T11:23:19.09Z</time></trkpt><trkpt lat="43.0749911" lon="11.1139262"><ele>370.0</ele><time>2026-04-26T11:23:20.093Z</time></trkpt><trkpt lat="43.0750045" lon="11.1140846"><ele>370.0</ele><time>2026-04-26T11:23:21.088Z</time></trkpt><trkpt lat="43.0750088" lon="11.1142534"><ele>370.0</ele><time>2026-04-26T11:23:22.094Z</time></trkpt><trkpt lat="43.0749889" lon="11.1144149"><ele>370.0</ele><time>2026-04-26T11:23:23.099Z</time></trkpt><trkpt lat="43.0749719" lon="11.1145683"><ele>370.0</ele><time>2026-04-26T11:23:24.1Z</time></trkpt><trkpt lat="43.074961" lon="11.1146991"><ele>370.0</ele><time>2026-04-26T11:23:25.102Z</time></trkpt><trkpt lat="43.0749604" lon="11.114823"><ele>370.0</ele><time>2026-04-26T11:23:26.101Z</time></trkpt><trkpt lat="43.0749683" lon="11.1149674"><ele>370.0</ele><time>2026-04-26T11:23:27.091Z</time></trkpt><trkpt lat="43.0749674" lon="11.1151106"><ele>370.0</ele><time>2026-04-26T11:23:28.096Z</time></trkpt><trkpt lat="43.0749567" lon="11.1152607"><ele>370.0</ele><time>2026-04-26T11:23:29.094Z</time></trkpt><trkpt lat="43.0749424" lon="11.1153981"><ele>369.8</ele><time>2026-04-26T11:23:30.099Z</time></trkpt><trkpt lat="43.0749421" lon="11.1155296"><ele>369.6</ele><time>2026-04-26T11:23:31.1Z</time></trkpt><trkpt lat="43.0749476" lon="11.1156541"><ele>369.4</ele><time>2026-04-26T11:23:32.092Z</time></trkpt><trkpt lat="43.0749573" lon="11.1157844"><ele>369.2</ele><time>2026-04-26T11:23:33.098Z</time></trkpt><trkpt lat="43.0749765" lon="11.1159289"><ele>369.0</ele><time>2026-04-26T11:23:34.104Z</time></trkpt><trkpt lat="43.0749892" lon="11.1160711"><ele>369.0</ele><time>2026-04-26T11:23:35.096Z</time></trkpt><trkpt lat="43.0750019" lon="11.116204"><ele>369.0</ele><time>2026-04-26T11:23:36.091Z</time></trkpt><trkpt lat="43.0750166" lon="11.1163336"><ele>369.0</ele><time>2026-04-26T11:23:37.101Z</time></trkpt><trkpt lat="43.0750352" lon="11.1164557"><ele>369.0</ele><time>2026-04-26T11:23:38.093Z</time></trkpt><trkpt lat="43.0750622" lon="11.1165643"><ele>369.0</ele><time>2026-04-26T11:23:39.103Z</time></trkpt><trkpt lat="43.0750966" lon="11.1166637"><ele>369.0</ele><time>2026-04-26T11:23:40.106Z</time></trkpt><trkpt lat="43.0751338" lon="11.116754"><ele>368.42857142857144</ele><time>2026-04-26T11:23:41.099Z</time></trkpt><trkpt lat="43.0751817" lon="11.1168282"><ele>367.85714285714283</ele><time>2026-04-26T11:23:42.105Z</time></trkpt><trkpt lat="43.07524" lon="11.1168722"><ele>367.28571428571433</ele><time>2026-04-26T11:23:43.097Z</time></trkpt><trkpt lat="43.0753084" lon="11.1169057"><ele>366.7142857142857</ele><time>2026-04-26T11:23:44.098Z</time></trkpt><trkpt lat="43.0753836" lon="11.1169386"><ele>366.14285714285717</ele><time>2026-04-26T11:23:45.101Z</time></trkpt><trkpt lat="43.075457" lon="11.1169657"><ele>365.5714285714286</ele><time>2026-04-26T11:23:46.096Z</time></trkpt><trkpt lat="43.0755367" lon="11.1169898"><ele>365.0</ele><time>2026-04-26T11:23:47.096Z</time></trkpt><trkpt lat="43.0756244" lon="11.1170148"><ele>365.0</ele><time>2026-04-26T11:23:48.102Z</time></trkpt><trkpt lat="43.0757121" lon="11.1170419"><ele>365.0</ele><time>2026-04-26T11:23:49.089Z</time></trkpt><trkpt lat="43.0757954" lon="11.117078"><ele>365.0</ele><time>2026-04-26T11:23:50.095Z</time></trkpt><trkpt lat="43.0758799" lon="11.1171209"><ele>365.0</ele><time>2026-04-26T11:23:51.095Z</time></trkpt><trkpt lat="43.0759691" lon="11.1171721"><ele>365.0</ele><time>2026-04-26T11:23:52.099Z</time></trkpt><trkpt lat="43.0760583" lon="11.1172323"><ele>367.83333333333337</ele><time>2026-04-26T11:23:53.092Z</time></trkpt><trkpt lat="43.0761408" lon="11.1172686"><ele>370.6666666666667</ele><time>2026-04-26T11:23:54.098Z</time></trkpt><trkpt lat="43.0762139" lon="11.1172786"><ele>373.5</ele><time>2026-04-26T11:23:55.101Z</time></trkpt><trkpt lat="43.076287" lon="11.1172821"><ele>376.3333333333333</ele><time>2026-04-26T11:23:56.097Z</time></trkpt><trkpt lat="43.076362" lon="11.1172935"><ele>379.16666666666663</ele><time>2026-04-26T11:23:57.095Z</time></trkpt><trkpt lat="43.0764451" lon="11.117301"><ele>382.0</ele><time>2026-04-26T11:23:58.105Z</time></trkpt><trkpt lat="43.0765148" lon="11.1173289"><ele>382.0</ele><time>2026-04-26T11:23:59.096Z</time></trkpt><trkpt lat="43.0765716" lon="11.1173711"><ele>382.0</ele><time>2026-04-26T11:24:00.098Z</time></trkpt><trkpt lat="43.0766087" lon="11.1175195"><ele>382.0</ele><time>2026-04-26T11:24:02.1Z</time></trkpt><trkpt lat="43.0765964" lon="11.1176093"><ele>382.0</ele><time>2026-04-26T11:24:03.096Z</time></trkpt><trkpt lat="43.0765833" lon="11.1177052"><ele>382.0</ele><time>2026-04-26T11:24:04.093Z</time></trkpt><trkpt lat="43.0765754" lon="11.117803"><ele>382.0</ele><time>2026-04-26T11:24:05.101Z</time></trkpt><trkpt lat="43.0765648" lon="11.1178986"><ele>379.8333333333333</ele><time>2026-04-26T11:24:06.097Z</time></trkpt><trkpt lat="43.0765683" lon="11.1179925"><ele>377.66666666666663</ele><time>2026-04-26T11:24:07.104Z</time></trkpt><trkpt lat="43.0766012" lon="11.1180802"><ele>375.5</ele><time>2026-04-26T11:24:08.101Z</time></trkpt><trkpt lat="43.0766526" lon="11.1181497"><ele>373.3333333333333</ele><time>2026-04-26T11:24:09.098Z</time></trkpt><trkpt lat="43.0767235" lon="11.118213"><ele>371.1666666666667</ele><time>2026-04-26T11:24:10.097Z</time></trkpt><trkpt lat="43.076799" lon="11.1182887"><ele>369.0</ele><time>2026-04-26T11:24:11.099Z</time></trkpt><trkpt lat="43.0768692" lon="11.118382"><ele>368.0</ele><time>2026-04-26T11:24:12.11Z</time></trkpt><trkpt lat="43.0769332" lon="11.1184916"><ele>367.0</ele><time>2026-04-26T11:24:13.094Z</time></trkpt><trkpt lat="43.0769853" lon="11.1185961"><ele>366.0</ele><time>2026-04-26T11:24:14.102Z</time></trkpt><trkpt lat="43.0770339" lon="11.1186731"><ele>365.0</ele><time>2026-04-26T11:24:15.106Z</time></trkpt><trkpt lat="43.0770976" lon="11.1187015"><ele>364.0</ele><time>2026-04-26T11:24:16.104Z</time></trkpt><trkpt lat="43.077203" lon="11.1186517"><ele>363.0</ele><time>2026-04-26T11:24:18.098Z</time></trkpt><trkpt lat="43.0772509" lon="11.1185825"><ele>363.0</ele><time>2026-04-26T11:24:19.099Z</time></trkpt><trkpt lat="43.077307" lon="11.1185024"><ele>363.0</ele><time>2026-04-26T11:24:20.096Z</time></trkpt><trkpt lat="43.0773725" lon="11.1184489"><ele>363.0</ele><time>2026-04-26T11:24:21.11Z</time></trkpt><trkpt lat="43.0774572" lon="11.1184615"><ele>363.0</ele><time>2026-04-26T11:24:23.101Z</time></trkpt><trkpt lat="43.0775143" lon="11.1185739"><ele>363.0</ele><time>2026-04-26T11:24:25.095Z</time></trkpt><trkpt lat="43.0775929" lon="11.118663"><ele>363.0</ele><time>2026-04-26T11:24:27.102Z</time></trkpt><trkpt lat="43.0776672" lon="11.1187505"><ele>365.0</ele><time>2026-04-26T11:24:29.096Z</time></trkpt><trkpt lat="43.0775603" lon="11.1187634"><ele>367.0</ele><time>2026-04-26T11:24:40.094Z</time></trkpt><trkpt lat="43.0776281" lon="11.118917"><ele>369.0</ele><time>2026-04-26T11:24:44.1Z</time></trkpt><trkpt lat="43.0776769" lon="11.1190067"><ele>371.0</ele><time>2026-04-26T11:24:46.097Z</time></trkpt><trkpt lat="43.0777337" lon="11.1191333"><ele>373.0</ele><time>2026-04-26T11:24:48.092Z</time></trkpt><trkpt lat="43.0778047" lon="11.1192773"><ele>373.0</ele><time>2026-04-26T11:24:50.1Z</time></trkpt><trkpt lat="43.0778504" lon="11.1193597"><ele>373.0</ele><time>2026-04-26T11:24:51.1Z</time></trkpt><trkpt lat="43.0779024" lon="11.1194424"><ele>373.0</ele><time>2026-04-26T11:24:52.105Z</time></trkpt><trkpt lat="43.0779541" lon="11.1195318"><ele>373.0</ele><time>2026-04-26T11:24:53.097Z</time></trkpt><trkpt lat="43.0780037" lon="11.1196266"><ele>373.0</ele><time>2026-04-26T11:24:54.098Z</time></trkpt><trkpt lat="43.0780391" lon="11.1197313"><ele>373.0</ele><time>2026-04-26T11:24:55.093Z</time></trkpt><trkpt lat="43.0780597" lon="11.1198461"><ele>372.0</ele><time>2026-04-26T11:24:56.094Z</time></trkpt><trkpt lat="43.0780782" lon="11.1199677"><ele>371.0</ele><time>2026-04-26T11:24:57.101Z</time></trkpt><trkpt lat="43.0781055" lon="11.1200777"><ele>370.0</ele><time>2026-04-26T11:24:58.097Z</time></trkpt><trkpt lat="43.0781457" lon="11.1201928"><ele>369.0</ele><time>2026-04-26T11:24:59.094Z</time></trkpt><trkpt lat="43.0781877" lon="11.1203142"><ele>368.0</ele><time>2026-04-26T11:25:00.089Z</time></trkpt><trkpt lat="43.0782256" lon="11.1204312"><ele>368.0</ele><time>2026-04-26T11:25:01.101Z</time></trkpt><trkpt lat="43.0782445" lon="11.1205482"><ele>368.0</ele><time>2026-04-26T11:25:02.102Z</time></trkpt><trkpt lat="43.0782511" lon="11.1206665"><ele>368.0</ele><time>2026-04-26T11:25:03.093Z</time></trkpt><trkpt lat="43.0782491" lon="11.1207809"><ele>368.0</ele><time>2026-04-26T11:25:04.094Z</time></trkpt><trkpt lat="43.0782494" lon="11.120887"><ele>368.0</ele><time>2026-04-26T11:25:05.094Z</time></trkpt><trkpt lat="43.0782798" lon="11.1209762"><ele>368.0</ele><time>2026-04-26T11:25:06.098Z</time></trkpt><trkpt lat="43.078326" lon="11.1210719"><ele>368.83333333333337</ele><time>2026-04-26T11:25:07.102Z</time></trkpt><trkpt lat="43.0783729" lon="11.1211685"><ele>369.6666666666667</ele><time>2026-04-26T11:25:08.094Z</time></trkpt><trkpt lat="43.0784083" lon="11.1212756"><ele>370.5</ele><time>2026-04-26T11:25:09.091Z</time></trkpt><trkpt lat="43.0784352" lon="11.1213958"><ele>371.3333333333333</ele><time>2026-04-26T11:25:10.095Z</time></trkpt><trkpt lat="43.0784528" lon="11.1215198"><ele>372.16666666666663</ele><time>2026-04-26T11:25:11.098Z</time></trkpt><trkpt lat="43.0784576" lon="11.1216479"><ele>373.0</ele><time>2026-04-26T11:25:12.111Z</time></trkpt><trkpt lat="43.0784657" lon="11.1217628"><ele>373.0</ele><time>2026-04-26T11:25:13.097Z</time></trkpt><trkpt lat="43.0784746" lon="11.1218775"><ele>373.0</ele><time>2026-04-26T11:25:14.1Z</time></trkpt><trkpt lat="43.0785102" lon="11.1219854"><ele>373.0</ele><time>2026-04-26T11:25:15.113Z</time></trkpt><trkpt lat="43.0785622" lon="11.1220864"><ele>373.0</ele><time>2026-04-26T11:25:16.099Z</time></trkpt><trkpt lat="43.0786036" lon="11.122196"><ele>373.0</ele><time>2026-04-26T11:25:17.092Z</time></trkpt><trkpt lat="43.0786318" lon="11.1223168"><ele>373.0</ele><time>2026-04-26T11:25:18.091Z</time></trkpt><trkpt lat="43.0786583" lon="11.1224438"><ele>371.79999999999995</ele><time>2026-04-26T11:25:19.098Z</time></trkpt><trkpt lat="43.0786868" lon="11.1225775"><ele>370.6</ele><time>2026-04-26T11:25:20.091Z</time></trkpt><trkpt lat="43.0787315" lon="11.1227012"><ele>369.4</ele><time>2026-04-26T11:25:21.089Z</time></trkpt><trkpt lat="43.0787803" lon="11.1228137"><ele>368.20000000000005</ele><time>2026-04-26T11:25:22.101Z</time></trkpt><trkpt lat="43.0788255" lon="11.1229158"><ele>367.0</ele><time>2026-04-26T11:25:23.091Z</time></trkpt><trkpt lat="43.0788726" lon="11.1230075"><ele>367.0</ele><time>2026-04-26T11:25:24.091Z</time></trkpt><trkpt lat="43.0789332" lon="11.1230712"><ele>367.0</ele><time>2026-04-26T11:25:25.099Z</time></trkpt><trkpt lat="43.0790219" lon="11.1231106"><ele>367.0</ele><time>2026-04-26T11:25:26.096Z</time></trkpt><trkpt lat="43.0791255" lon="11.1231537"><ele>367.0</ele><time>2026-04-26T11:25:27.089Z</time></trkpt><trkpt lat="43.079227" lon="11.1232046"><ele>367.0</ele><time>2026-04-26T11:25:28.106Z</time></trkpt><trkpt lat="43.079324" lon="11.1232725"><ele>367.6</ele><time>2026-04-26T11:25:29.1Z</time></trkpt><trkpt lat="43.0794124" lon="11.123334"><ele>368.20000000000005</ele><time>2026-04-26T11:25:30.102Z</time></trkpt><trkpt lat="43.0795036" lon="11.1233837"><ele>368.8</ele><time>2026-04-26T11:25:31.095Z</time></trkpt><trkpt lat="43.0795904" lon="11.123426"><ele>369.4</ele><time>2026-04-26T11:25:32.093Z</time></trkpt><trkpt lat="43.0796524" lon="11.1234929"><ele>370.0</ele><time>2026-04-26T11:25:33.099Z</time></trkpt><trkpt lat="43.0797048" lon="11.1236467"><ele>370.0</ele><time>2026-04-26T11:25:35.091Z</time></trkpt><trkpt lat="43.0797144" lon="11.123739"><ele>370.0</ele><time>2026-04-26T11:25:36.089Z</time></trkpt><trkpt lat="43.0797156" lon="11.1238467"><ele>370.0</ele><time>2026-04-26T11:25:37.091Z</time></trkpt><trkpt lat="43.0797183" lon="11.1239727"><ele>370.0</ele><time>2026-04-26T11:25:38.099Z</time></trkpt><trkpt lat="43.0797306" lon="11.1241059"><ele>370.0</ele><time>2026-04-26T11:25:39.096Z</time></trkpt><trkpt lat="43.079745" lon="11.1242423"><ele>370.0</ele><time>2026-04-26T11:25:40.103Z</time></trkpt><trkpt lat="43.0797587" lon="11.1243735"><ele>368.0</ele><time>2026-04-26T11:25:41.1Z</time></trkpt><trkpt lat="43.0797471" lon="11.1245089"><ele>366.0</ele><time>2026-04-26T11:25:42.099Z</time></trkpt><trkpt lat="43.0797076" lon="11.124635"><ele>364.0</ele><time>2026-04-26T11:25:43.113Z</time></trkpt><trkpt lat="43.0796657" lon="11.1247596"><ele>362.0</ele><time>2026-04-26T11:25:44.1Z</time></trkpt><trkpt lat="43.07962" lon="11.1248771"><ele>360.0</ele><time>2026-04-26T11:25:45.095Z</time></trkpt><trkpt lat="43.0795621" lon="11.1249853"><ele>359.1666666666667</ele><time>2026-04-26T11:25:46.097Z</time></trkpt><trkpt lat="43.0794871" lon="11.1250747"><ele>358.3333333333333</ele><time>2026-04-26T11:25:47.1Z</time></trkpt><trkpt lat="43.0794151" lon="11.125151"><ele>357.5</ele><time>2026-04-26T11:25:48.092Z</time></trkpt><trkpt lat="43.0793511" lon="11.1252416"><ele>356.66666666666663</ele><time>2026-04-26T11:25:49.099Z</time></trkpt><trkpt lat="43.0793208" lon="11.125343"><ele>355.8333333333333</ele><time>2026-04-26T11:25:50.108Z</time></trkpt><trkpt lat="43.0793189" lon="11.1254386"><ele>355.0</ele><time>2026-04-26T11:25:51.089Z</time></trkpt><trkpt lat="43.0793351" lon="11.12553"><ele>355.0</ele><time>2026-04-26T11:25:52.096Z</time></trkpt><trkpt lat="43.0793677" lon="11.1256173"><ele>355.0</ele><time>2026-04-26T11:25:53.101Z</time></trkpt><trkpt lat="43.079419" lon="11.1256882"><ele>355.0</ele><time>2026-04-26T11:25:54.097Z</time></trkpt><trkpt lat="43.0794909" lon="11.1257617"><ele>355.0</ele><time>2026-04-26T11:25:55.092Z</time></trkpt><trkpt lat="43.0795721" lon="11.1258385"><ele>355.0</ele><time>2026-04-26T11:25:56.099Z</time></trkpt><trkpt lat="43.0796323" lon="11.1259182"><ele>355.0</ele><time>2026-04-26T11:25:57.095Z</time></trkpt><trkpt lat="43.079682" lon="11.1259994"><ele>353.4</ele><time>2026-04-26T11:25:58.099Z</time></trkpt><trkpt lat="43.0797162" lon="11.1260934"><ele>351.8</ele><time>2026-04-26T11:25:59.106Z</time></trkpt><trkpt lat="43.0797341" lon="11.1262264"><ele>350.20000000000005</ele><time>2026-04-26T11:26:00.099Z</time></trkpt><trkpt lat="43.0797425" lon="11.1263688"><ele>348.6</ele><time>2026-04-26T11:26:01.098Z</time></trkpt><trkpt lat="43.0797628" lon="11.1265014"><ele>347.0</ele><time>2026-04-26T11:26:02.09Z</time></trkpt><trkpt lat="43.0798061" lon="11.1266154"><ele>344.6</ele><time>2026-04-26T11:26:03.102Z</time></trkpt><trkpt lat="43.0798524" lon="11.1267258"><ele>342.20000000000005</ele><time>2026-04-26T11:26:04.099Z</time></trkpt><trkpt lat="43.0798805" lon="11.1268425"><ele>339.8</ele><time>2026-04-26T11:26:05.096Z</time></trkpt><trkpt lat="43.0798853" lon="11.1269702"><ele>337.4</ele><time>2026-04-26T11:26:06.089Z</time></trkpt><trkpt lat="43.0798789" lon="11.1270927"><ele>335.0</ele><time>2026-04-26T11:26:07.096Z</time></trkpt><trkpt lat="43.0798805" lon="11.1272201"><ele>335.0</ele><time>2026-04-26T11:26:08.089Z</time></trkpt><trkpt lat="43.0798818" lon="11.1273438"><ele>335.0</ele><time>2026-04-26T11:26:09.092Z</time></trkpt><trkpt lat="43.0798863" lon="11.1274658"><ele>335.0</ele><time>2026-04-26T11:26:10.091Z</time></trkpt><trkpt lat="43.079892" lon="11.1275798"><ele>335.0</ele><time>2026-04-26T11:26:11.101Z</time></trkpt><trkpt lat="43.0798976" lon="11.1276844"><ele>335.0</ele><time>2026-04-26T11:26:12.093Z</time></trkpt><trkpt lat="43.0799007" lon="11.1277815"><ele>335.0</ele><time>2026-04-26T11:26:13.098Z</time></trkpt><trkpt lat="43.0799109" lon="11.1279302"><ele>335.5</ele><time>2026-04-26T11:26:15.097Z</time></trkpt><trkpt lat="43.0799377" lon="11.1280268"><ele>336.0</ele><time>2026-04-26T11:26:17.101Z</time></trkpt><trkpt lat="43.0799752" lon="11.1281472"><ele>336.5</ele><time>2026-04-26T11:26:20.088Z</time></trkpt><trkpt lat="43.0800027" lon="11.1282568"><ele>337.0</ele><time>2026-04-26T11:26:22.097Z</time></trkpt><trkpt lat="43.0800305" lon="11.1283874"><ele>337.5</ele><time>2026-04-26T11:26:24.098Z</time></trkpt><trkpt lat="43.0800502" lon="11.1284738"><ele>338.0</ele><time>2026-04-26T11:26:26.091Z</time></trkpt><trkpt lat="43.0800597" lon="11.128566"><ele>336.4</ele><time>2026-04-26T11:26:29.098Z</time></trkpt><trkpt lat="43.0801194" lon="11.1286667"><ele>334.79999999999995</ele><time>2026-04-26T11:26:34.104Z</time></trkpt><trkpt lat="43.0801672" lon="11.1287492"><ele>333.2</ele><time>2026-04-26T11:26:36.101Z</time></trkpt><trkpt lat="43.0802053" lon="11.1289123"><ele>331.6</ele><time>2026-04-26T11:26:39.104Z</time></trkpt><trkpt lat="43.0802324" lon="11.1290047"><ele>330.0</ele><time>2026-04-26T11:26:41.097Z</time></trkpt><trkpt lat="43.080278" lon="11.1291227"><ele>328.6</ele><time>2026-04-26T11:26:50.09Z</time></trkpt><trkpt lat="43.0803498" lon="11.1292725"><ele>327.2</ele><time>2026-04-26T11:26:52.103Z</time></trkpt><trkpt lat="43.0803976" lon="11.1293708"><ele>325.79999999999995</ele><time>2026-04-26T11:26:53.093Z</time></trkpt><trkpt lat="43.0804403" lon="11.1294669"><ele>324.4</ele><time>2026-04-26T11:26:54.098Z</time></trkpt><trkpt lat="43.0804827" lon="11.1295786"><ele>323.0</ele><time>2026-04-26T11:26:55.108Z</time></trkpt><trkpt lat="43.0805232" lon="11.1297048"><ele>323.0</ele><time>2026-04-26T11:26:56.102Z</time></trkpt><trkpt lat="43.0805645" lon="11.1298422"><ele>323.0</ele><time>2026-04-26T11:26:57.099Z</time></trkpt><trkpt lat="43.0806066" lon="11.129962"><ele>323.0</ele><time>2026-04-26T11:26:58.097Z</time></trkpt><trkpt lat="43.0806477" lon="11.130082"><ele>323.0</ele><time>2026-04-26T11:26:59.092Z</time></trkpt><trkpt lat="43.0806733" lon="11.1302224"><ele>323.0</ele><time>2026-04-26T11:27:00.094Z</time></trkpt><trkpt lat="43.0807041" lon="11.1303746"><ele>322.25</ele><time>2026-04-26T11:27:01.099Z</time></trkpt><trkpt lat="43.0807528" lon="11.1305175"><ele>321.5</ele><time>2026-04-26T11:27:02.095Z</time></trkpt><trkpt lat="43.0808018" lon="11.1306594"><ele>320.75</ele><time>2026-04-26T11:27:03.096Z</time></trkpt><trkpt lat="43.0808517" lon="11.1308006"><ele>320.0</ele><time>2026-04-26T11:27:04.097Z</time></trkpt><trkpt lat="43.0809127" lon="11.1309338"><ele>319.8</ele><time>2026-04-26T11:27:05.1Z</time></trkpt><trkpt lat="43.0809725" lon="11.1310719"><ele>319.6</ele><time>2026-04-26T11:27:06.091Z</time></trkpt><trkpt lat="43.0810421" lon="11.1312031"><ele>319.4</ele><time>2026-04-26T11:27:07.103Z</time></trkpt><trkpt lat="43.081107" lon="11.1313094"><ele>319.2</ele><time>2026-04-26T11:27:08.1Z</time></trkpt><trkpt lat="43.0811569" lon="11.1313848"><ele>319.0</ele><time>2026-04-26T11:27:09.093Z</time></trkpt><trkpt lat="43.081218" lon="11.131458"><ele>319.0</ele><time>2026-04-26T11:27:11.094Z</time></trkpt><trkpt lat="43.0812754" lon="11.1315398"><ele>319.0</ele><time>2026-04-26T11:27:13.092Z</time></trkpt><trkpt lat="43.0813191" lon="11.1316029"><ele>319.0</ele><time>2026-04-26T11:27:14.098Z</time></trkpt><trkpt lat="43.0813769" lon="11.1316825"><ele>319.0</ele><time>2026-04-26T11:27:15.095Z</time></trkpt><trkpt lat="43.0814525" lon="11.1317675"><ele>319.0</ele><time>2026-04-26T11:27:16.095Z</time></trkpt><trkpt lat="43.081543" lon="11.1318415"><ele>319.0</ele><time>2026-04-26T11:27:17.094Z</time></trkpt><trkpt lat="43.0816354" lon="11.1319254"><ele>319.2</ele><time>2026-04-26T11:27:18.094Z</time></trkpt><trkpt lat="43.0817237" lon="11.1320156"><ele>319.4</ele><time>2026-04-26T11:27:19.099Z</time></trkpt><trkpt lat="43.0818048" lon="11.1321064"><ele>319.6</ele><time>2026-04-26T11:27:20.094Z</time></trkpt><trkpt lat="43.0818844" lon="11.1321872"><ele>319.8</ele><time>2026-04-26T11:27:21.087Z</time></trkpt><trkpt lat="43.0819593" lon="11.1322675"><ele>320.0</ele><time>2026-04-26T11:27:22.094Z</time></trkpt><trkpt lat="43.082041" lon="11.1323357"><ele>320.1666666666667</ele><time>2026-04-26T11:27:23.095Z</time></trkpt><trkpt lat="43.0821139" lon="11.1324102"><ele>320.33333333333337</ele><time>2026-04-26T11:27:24.101Z</time></trkpt><trkpt lat="43.0821937" lon="11.1324435"><ele>320.5</ele><time>2026-04-26T11:27:25.094Z</time></trkpt><trkpt lat="43.0822717" lon="11.1324763"><ele>320.6666666666667</ele><time>2026-04-26T11:27:26.094Z</time></trkpt><trkpt lat="43.0823373" lon="11.1325011"><ele>320.8333333333333</ele><time>2026-04-26T11:27:27.09Z</time></trkpt><trkpt lat="43.0823987" lon="11.1325523"><ele>321.0</ele><time>2026-04-26T11:27:29.091Z</time></trkpt><trkpt lat="43.0823754" lon="11.1326344"><ele>321.0</ele><time>2026-04-26T11:27:35.101Z</time></trkpt><trkpt lat="43.0823634" lon="11.1327392"><ele>321.0</ele><time>2026-04-26T11:27:42.094Z</time></trkpt><trkpt lat="43.0823988" lon="11.132816"><ele>321.0</ele><time>2026-04-26T11:27:45.092Z</time></trkpt><trkpt lat="43.0824778" lon="11.1328631"><ele>321.0</ele><time>2026-04-26T11:27:48.093Z</time></trkpt><trkpt lat="43.0825421" lon="11.1328953"><ele>321.0</ele><time>2026-04-26T11:27:51.103Z</time></trkpt><trkpt lat="43.0826307" lon="11.1328486"><ele>321.0</ele><time>2026-04-26T11:27:54.094Z</time></trkpt><trkpt lat="43.0826084" lon="11.1327456"><ele>321.0</ele><time>2026-04-26T11:27:57.093Z</time></trkpt><trkpt lat="43.0825015" lon="11.1326353"><ele>321.0</ele><time>2026-04-26T11:27:59.092Z</time></trkpt><trkpt lat="43.082409" lon="11.1325762"><ele>321.0</ele><time>2026-04-26T11:28:01.106Z</time></trkpt><trkpt lat="43.082368" lon="11.1326782"><ele>321.0</ele><time>2026-04-26T11:28:04.1Z</time></trkpt><trkpt lat="43.0823854" lon="11.1327846"><ele>321.0</ele><time>2026-04-26T11:28:14.096Z</time></trkpt><trkpt lat="43.0824612" lon="11.1328471"><ele>320.99999999999994</ele><time>2026-04-26T11:28:17.096Z</time></trkpt><trkpt lat="43.0825307" lon="11.1328856"><ele>321.0</ele><time>2026-04-26T11:28:20.101Z</time></trkpt><trkpt lat="43.0825522" lon="11.1329813"><ele>321.0</ele><time>2026-04-26T11:28:24.091Z</time></trkpt><trkpt lat="43.0825524" lon="11.1330735"><ele>321.0</ele><time>2026-04-26T11:30:58.096Z</time></trkpt><trkpt lat="43.0825713" lon="11.1331728"><ele>321.0</ele><time>2026-04-26T11:33:12.095Z</time></trkpt><trkpt lat="43.0826014" lon="11.1332687"><ele>320.99999999999994</ele><time>2026-04-26T11:33:17.101Z</time></trkpt><trkpt lat="43.0826413" lon="11.1333631"><ele>321.0</ele><time>2026-04-26T11:33:20.099Z</time></trkpt><trkpt lat="43.0826581" lon="11.1334825"><ele>320.99999999999994</ele><time>2026-04-26T11:33:23.1Z</time></trkpt><trkpt lat="43.0826309" lon="11.1335753"><ele>321.0</ele><time>2026-04-26T11:33:26.096Z</time></trkpt><trkpt lat="43.0825866" lon="11.1336644"><ele>321.0</ele><time>2026-04-26T11:33:28.095Z</time></trkpt><trkpt lat="43.0825459" lon="11.1337385"><ele>321.0</ele><time>2026-04-26T11:33:30.1Z</time></trkpt><trkpt lat="43.0824898" lon="11.1337894"><ele>321.0</ele><time>2026-04-26T11:33:32.115Z</time></trkpt><trkpt lat="43.0824325" lon="11.1338271"><ele>320.99999999999994</ele><time>2026-04-26T11:33:34.105Z</time></trkpt><trkpt lat="43.0823433" lon="11.1338736"><ele>321.0</ele><time>2026-04-26T11:33:37.095Z</time></trkpt><trkpt lat="43.0822744" lon="11.1339016"><ele>321.6666666666667</ele><time>2026-04-26T11:33:39.105Z</time></trkpt><trkpt lat="43.082188" lon="11.1339259"><ele>322.3333333333333</ele><time>2026-04-26T11:33:41.123Z</time></trkpt><trkpt lat="43.082107" lon="11.133953"><ele>323.0</ele><time>2026-04-26T11:33:43.103Z</time></trkpt><trkpt lat="43.0820408" lon="11.1339831"><ele>323.66666666666663</ele><time>2026-04-26T11:33:45.101Z</time></trkpt><trkpt lat="43.0820264" lon="11.1341013"><ele>324.3333333333333</ele><time>2026-04-26T11:33:48.112Z</time></trkpt><trkpt lat="43.0820698" lon="11.1341806"><ele>325.0</ele><time>2026-04-26T11:33:50.096Z</time></trkpt><trkpt lat="43.0821117" lon="11.1342613"><ele>327.2857142857143</ele><time>2026-04-26T11:33:52.103Z</time></trkpt><trkpt lat="43.0821537" lon="11.1343404"><ele>329.5714285714286</ele><time>2026-04-26T11:33:54.093Z</time></trkpt><trkpt lat="43.0821877" lon="11.1344237"><ele>331.8571428571429</ele><time>2026-04-26T11:33:56.098Z</time></trkpt><trkpt lat="43.0822006" lon="11.1345086"><ele>334.1428571428571</ele><time>2026-04-26T11:33:58.1Z</time></trkpt><trkpt lat="43.0822098" lon="11.1345945"><ele>336.42857142857144</ele><time>2026-04-26T11:34:00.099Z</time></trkpt><trkpt lat="43.0822151" lon="11.1346824"><ele>338.7142857142857</ele><time>2026-04-26T11:34:02.095Z</time></trkpt><trkpt lat="43.0822141" lon="11.1347735"><ele>341.0</ele><time>2026-04-26T11:34:04.097Z</time></trkpt><trkpt lat="43.0822195" lon="11.1348635"><ele>345.0</ele><time>2026-04-26T11:34:06.097Z</time></trkpt><trkpt lat="43.0822291" lon="11.1349564"><ele>349.0</ele><time>2026-04-26T11:34:08.095Z</time></trkpt><trkpt lat="43.082211" lon="11.1350664"><ele>353.0</ele><time>2026-04-26T11:34:11.088Z</time></trkpt><trkpt lat="43.0821177" lon="11.1350988"><ele>357.0</ele><time>2026-04-26T11:34:14.094Z</time></trkpt><trkpt lat="43.0820557" lon="11.1350735"><ele>361.0</ele><time>2026-04-26T11:34:16.101Z</time></trkpt><trkpt lat="43.0820021" lon="11.1350278"><ele>365.0</ele><time>2026-04-26T11:34:18.096Z</time></trkpt><trkpt lat="43.0819377" lon="11.1349585"><ele>365.0</ele><time>2026-04-26T11:34:21.094Z</time></trkpt><trkpt lat="43.0818625" lon="11.1348929"><ele>365.0</ele><time>2026-04-26T11:34:24.09Z</time></trkpt><trkpt lat="43.0818084" lon="11.1348417"><ele>365.0</ele><time>2026-04-26T11:34:26.091Z</time></trkpt><trkpt lat="43.0817673" lon="11.1347695"><ele>365.0</ele><time>2026-04-26T11:34:28.109Z</time></trkpt><trkpt lat="43.0817189" lon="11.1347104"><ele>365.0</ele><time>2026-04-26T11:34:30.102Z</time></trkpt><trkpt lat="43.0816606" lon="11.1346166"><ele>365.0</ele><time>2026-04-26T11:34:33.125Z</time></trkpt><trkpt lat="43.0815853" lon="11.1345329"><ele>362.5</ele><time>2026-04-26T11:34:36.104Z</time></trkpt><trkpt lat="43.0815327" lon="11.13448"><ele>360.0</ele><time>2026-04-26T11:34:38.091Z</time></trkpt><trkpt lat="43.0814723" lon="11.1344458"><ele>357.5</ele><time>2026-04-26T11:34:41.102Z</time></trkpt><trkpt lat="43.0814068" lon="11.134422"><ele>355.0</ele><time>2026-04-26T11:34:44.091Z</time></trkpt><trkpt lat="43.0813263" lon="11.1344176"><ele>352.5</ele><time>2026-04-26T11:34:47.094Z</time></trkpt><trkpt lat="43.0812459" lon="11.1344176"><ele>350.0</ele><time>2026-04-26T11:34:50.091Z</time></trkpt><trkpt lat="43.0811523" lon="11.1344037"><ele>350.0</ele><time>2026-04-26T11:34:53.102Z</time></trkpt><trkpt lat="43.0810704" lon="11.1343939"><ele>350.0</ele><time>2026-04-26T11:34:56.098Z</time></trkpt><trkpt lat="43.0809993" lon="11.1344027"><ele>350.0</ele><time>2026-04-26T11:35:07.099Z</time></trkpt><trkpt lat="43.080924" lon="11.1344447"><ele>350.0</ele><time>2026-04-26T11:35:10.098Z</time></trkpt><trkpt lat="43.0808665" lon="11.1345027"><ele>350.0</ele><time>2026-04-26T11:35:12.093Z</time></trkpt><trkpt lat="43.0808229" lon="11.1345793"><ele>350.0</ele><time>2026-04-26T11:35:14.098Z</time></trkpt><trkpt lat="43.0807937" lon="11.1346572"><ele>350.0</ele><time>2026-04-26T11:35:16.098Z</time></trkpt><trkpt lat="43.080745" lon="11.1347656"><ele>350.14285714285717</ele><time>2026-04-26T11:35:19.097Z</time></trkpt><trkpt lat="43.0807056" lon="11.134847"><ele>350.2857142857143</ele><time>2026-04-26T11:35:21.093Z</time></trkpt><trkpt lat="43.0806818" lon="11.1349321"><ele>350.42857142857144</ele><time>2026-04-26T11:35:23.095Z</time></trkpt><trkpt lat="43.0806481" lon="11.1350468"><ele>350.57142857142856</ele><time>2026-04-26T11:35:26.105Z</time></trkpt><trkpt lat="43.0806152" lon="11.1351277"><ele>350.7142857142857</ele><time>2026-04-26T11:35:28.1Z</time></trkpt><trkpt lat="43.080576" lon="11.1351972"><ele>350.8571428571429</ele><time>2026-04-26T11:35:30.096Z</time></trkpt><trkpt lat="43.080521" lon="11.1352665"><ele>351.0</ele><time>2026-04-26T11:35:32.089Z</time></trkpt><trkpt lat="43.0804519" lon="11.1353298"><ele>352.8333333333333</ele><time>2026-04-26T11:35:35.092Z</time></trkpt><trkpt lat="43.0803743" lon="11.135376"><ele>354.6666666666667</ele><time>2026-04-26T11:35:38.094Z</time></trkpt><trkpt lat="43.0803122" lon="11.13542"><ele>356.5</ele><time>2026-04-26T11:35:41.103Z</time></trkpt><trkpt lat="43.0802641" lon="11.1355055"><ele>358.33333333333337</ele><time>2026-04-26T11:43:05.099Z</time></trkpt><trkpt lat="43.0802171" lon="11.1355904"><ele>360.1666666666667</ele><time>2026-04-26T11:43:08.099Z</time></trkpt><trkpt lat="43.0801807" lon="11.1356801"><ele>362.0</ele><time>2026-04-26T11:43:37.095Z</time></trkpt><trkpt lat="43.0801334" lon="11.1357642"><ele>363.8</ele><time>2026-04-26T11:43:39.093Z</time></trkpt><trkpt lat="43.0800951" lon="11.1358645"><ele>365.6</ele><time>2026-04-26T11:43:41.091Z</time></trkpt><trkpt lat="43.0800483" lon="11.1360032"><ele>367.40000000000003</ele><time>2026-04-26T11:43:43.099Z</time></trkpt><trkpt lat="43.0800009" lon="11.1361567"><ele>369.20000000000005</ele><time>2026-04-26T11:43:45.093Z</time></trkpt><trkpt lat="43.0799711" lon="11.1362583"><ele>371.0</ele><time>2026-04-26T11:43:46.096Z</time></trkpt><trkpt lat="43.0799397" lon="11.1363553"><ele>371.1666666666667</ele><time>2026-04-26T11:43:47.092Z</time></trkpt><trkpt lat="43.0799056" lon="11.1364557"><ele>371.33333333333337</ele><time>2026-04-26T11:43:48.1Z</time></trkpt><trkpt lat="43.0798719" lon="11.1365558"><ele>371.5</ele><time>2026-04-26T11:43:49.099Z</time></trkpt><trkpt lat="43.0798388" lon="11.1366606"><ele>371.6666666666667</ele><time>2026-04-26T11:43:50.101Z</time></trkpt><trkpt lat="43.079816" lon="11.1367639"><ele>371.8333333333333</ele><time>2026-04-26T11:43:51.105Z</time></trkpt><trkpt lat="43.0798009" lon="11.1368687"><ele>372.0</ele><time>2026-04-26T11:43:52.094Z</time></trkpt><trkpt lat="43.0798029" lon="11.1369673"><ele>374.0</ele><time>2026-04-26T11:43:53.098Z</time></trkpt><trkpt lat="43.0797965" lon="11.1370592"><ele>376.0</ele><time>2026-04-26T11:43:54.094Z</time></trkpt><trkpt lat="43.0797846" lon="11.137144"><ele>378.0</ele><time>2026-04-26T11:43:55.096Z</time></trkpt><trkpt lat="43.0797068" lon="11.1372445"><ele>380.0</ele><time>2026-04-26T11:43:57.096Z</time></trkpt><trkpt lat="43.0796074" lon="11.1373208"><ele>382.0</ele><time>2026-04-26T11:43:59.098Z</time></trkpt><trkpt lat="43.0795521" lon="11.1373624"><ele>384.0</ele><time>2026-04-26T11:44:00.093Z</time></trkpt><trkpt lat="43.0794911" lon="11.1374097"><ele>384.8333333333333</ele><time>2026-04-26T11:44:01.088Z</time></trkpt><trkpt lat="43.079424" lon="11.1374714"><ele>385.66666666666663</ele><time>2026-04-26T11:44:02.097Z</time></trkpt><trkpt lat="43.0793536" lon="11.1375419"><ele>386.5</ele><time>2026-04-26T11:44:03.1Z</time></trkpt><trkpt lat="43.0792796" lon="11.1376074"><ele>387.3333333333333</ele><time>2026-04-26T11:44:04.091Z</time></trkpt><trkpt lat="43.079213" lon="11.1376658"><ele>388.16666666666663</ele><time>2026-04-26T11:44:05.1Z</time></trkpt><trkpt lat="43.0791468" lon="11.1377207"><ele>389.0</ele><time>2026-04-26T11:44:06.099Z</time></trkpt><trkpt lat="43.0790859" lon="11.1377542"><ele>391.0</ele><time>2026-04-26T11:44:07.092Z</time></trkpt><trkpt lat="43.0790174" lon="11.1377649"><ele>393.0</ele><time>2026-04-26T11:44:08.096Z</time></trkpt><trkpt lat="43.0789473" lon="11.1377562"><ele>395.0</ele><time>2026-04-26T11:44:09.104Z</time></trkpt><trkpt lat="43.0788845" lon="11.1377283"><ele>397.0</ele><time>2026-04-26T11:44:10.099Z</time></trkpt><trkpt lat="43.0788169" lon="11.1377008"><ele>399.0</ele><time>2026-04-26T11:44:11.099Z</time></trkpt><trkpt lat="43.0787409" lon="11.1376806"><ele>401.0</ele><time>2026-04-26T11:44:12.102Z</time></trkpt><trkpt lat="43.0786621" lon="11.1376743"><ele>403.0</ele><time>2026-04-26T11:44:13.096Z</time></trkpt><trkpt lat="43.0785881" lon="11.1376776"><ele>403.00000000000006</ele><time>2026-04-26T11:44:14.098Z</time></trkpt><trkpt lat="43.0785165" lon="11.1376688"><ele>403.0</ele><time>2026-04-26T11:44:15.108Z</time></trkpt><trkpt lat="43.078445" lon="11.137656"><ele>403.0</ele><time>2026-04-26T11:44:16.099Z</time></trkpt><trkpt lat="43.078366" lon="11.1376444"><ele>403.0</ele><time>2026-04-26T11:44:17.095Z</time></trkpt><trkpt lat="43.0782805" lon="11.1376368"><ele>403.00000000000006</ele><time>2026-04-26T11:44:18.093Z</time></trkpt><trkpt lat="43.0781982" lon="11.1376313"><ele>403.0</ele><time>2026-04-26T11:44:19.087Z</time></trkpt><trkpt lat="43.0780728" lon="11.1376465"><ele>404.0</ele><time>2026-04-26T11:44:21.088Z</time></trkpt><trkpt lat="43.0779585" lon="11.1376864"><ele>405.0</ele><time>2026-04-26T11:44:23.1Z</time></trkpt><trkpt lat="43.0778369" lon="11.1377138"><ele>406.0</ele><time>2026-04-26T11:44:25.094Z</time></trkpt><trkpt lat="43.0777152" lon="11.1377575"><ele>407.0</ele><time>2026-04-26T11:44:27.095Z</time></trkpt><trkpt lat="43.0776354" lon="11.1378312"><ele>407.0</ele><time>2026-04-26T11:44:29.1Z</time></trkpt><trkpt lat="43.0775533" lon="11.137934"><ele>407.0</ele><time>2026-04-26T11:44:31.09Z</time></trkpt><trkpt lat="43.0774588" lon="11.1380542"><ele>407.0</ele><time>2026-04-26T11:44:33.091Z</time></trkpt><trkpt lat="43.0774055" lon="11.1381051"><ele>407.0</ele><time>2026-04-26T11:44:34.095Z</time></trkpt><trkpt lat="43.0773091" lon="11.1381926"><ele>407.0</ele><time>2026-04-26T11:44:36.089Z</time></trkpt><trkpt lat="43.0772166" lon="11.1382966"><ele>410.16666666666663</ele><time>2026-04-26T11:44:38.093Z</time></trkpt><trkpt lat="43.0771353" lon="11.1383844"><ele>413.3333333333333</ele><time>2026-04-26T11:44:40.096Z</time></trkpt><trkpt lat="43.0770674" lon="11.1384294"><ele>416.5</ele><time>2026-04-26T11:44:42.098Z</time></trkpt><trkpt lat="43.0770071" lon="11.1384553"><ele>419.66666666666663</ele><time>2026-04-26T11:44:44.095Z</time></trkpt><trkpt lat="43.0769426" lon="11.1384748"><ele>422.8333333333333</ele><time>2026-04-26T11:44:46.092Z</time></trkpt><trkpt lat="43.0768524" lon="11.1385025"><ele>426.0</ele><time>2026-04-26T11:44:49.089Z</time></trkpt><trkpt lat="43.0767637" lon="11.1385326"><ele>426.0</ele><time>2026-04-26T11:44:52.086Z</time></trkpt><trkpt lat="43.0766943" lon="11.1385541"><ele>426.0</ele><time>2026-04-26T11:44:54.095Z</time></trkpt><trkpt lat="43.0766105" lon="11.1385869"><ele>426.0</ele><time>2026-04-26T11:44:56.1Z</time></trkpt><trkpt lat="43.0765249" lon="11.1385899"><ele>426.0</ele><time>2026-04-26T11:44:59.096Z</time></trkpt><trkpt lat="43.0764315" lon="11.1385915"><ele>426.0</ele><time>2026-04-26T11:45:02.094Z</time></trkpt><trkpt lat="43.0763523" lon="11.1386241"><ele>426.0</ele><time>2026-04-26T11:45:14.091Z</time></trkpt><trkpt lat="43.0762868" lon="11.1387022"><ele>428.3333333333333</ele><time>2026-04-26T11:45:16.086Z</time></trkpt><trkpt lat="43.0762041" lon="11.1387495"><ele>430.66666666666663</ele><time>2026-04-26T11:45:18.096Z</time></trkpt><trkpt lat="43.0761223" lon="11.1387555"><ele>433.0</ele><time>2026-04-26T11:45:20.087Z</time></trkpt><trkpt lat="43.0760584" lon="11.1387167"><ele>435.3333333333333</ele><time>2026-04-26T11:45:22.092Z</time></trkpt><trkpt lat="43.0760475" lon="11.1386156"><ele>437.66666666666663</ele><time>2026-04-26T11:45:24.099Z</time></trkpt><trkpt lat="43.0760529" lon="11.1385084"><ele>440.0</ele><time>2026-04-26T11:45:26.085Z</time></trkpt><trkpt lat="43.0760451" lon="11.1384038"><ele>439.99999999999994</ele><time>2026-04-26T11:45:28.099Z</time></trkpt><trkpt lat="43.0759879" lon="11.1382722"><ele>440.0</ele><time>2026-04-26T11:45:30.086Z</time></trkpt><trkpt lat="43.0759622" lon="11.1381709"><ele>440.0</ele><time>2026-04-26T11:45:32.099Z</time></trkpt><trkpt lat="43.0759462" lon="11.13805"><ele>440.0</ele><time>2026-04-26T11:45:34.091Z</time></trkpt><trkpt lat="43.0758829" lon="11.1379775"><ele>439.99999999999994</ele><time>2026-04-26T11:45:36.091Z</time></trkpt><trkpt lat="43.0758041" lon="11.138002"><ele>440.0</ele><time>2026-04-26T11:45:38.098Z</time></trkpt><trkpt lat="43.0757523" lon="11.1380973"><ele>440.3333333333333</ele><time>2026-04-26T11:45:40.098Z</time></trkpt><trkpt lat="43.0757121" lon="11.1381759"><ele>440.66666666666663</ele><time>2026-04-26T11:45:42.1Z</time></trkpt><trkpt lat="43.0756701" lon="11.1382628"><ele>441.0</ele><time>2026-04-26T11:45:56.094Z</time></trkpt><trkpt lat="43.0756042" lon="11.1383304"><ele>441.33333333333337</ele><time>2026-04-26T11:45:58.093Z</time></trkpt><trkpt lat="43.0755336" lon="11.138366"><ele>441.6666666666667</ele><time>2026-04-26T11:46:00.091Z</time></trkpt><trkpt lat="43.0754627" lon="11.1383792"><ele>442.0</ele><time>2026-04-26T11:46:02.103Z</time></trkpt><trkpt lat="43.0753783" lon="11.1383712"><ele>443.50000000000006</ele><time>2026-04-26T11:46:05.098Z</time></trkpt><trkpt lat="43.0753145" lon="11.1383549"><ele>445.0</ele><time>2026-04-26T11:46:07.094Z</time></trkpt><trkpt lat="43.0752399" lon="11.1383318"><ele>446.5</ele><time>2026-04-26T11:46:09.091Z</time></trkpt><trkpt lat="43.0751743" lon="11.1382935"><ele>448.0</ele><time>2026-04-26T11:46:11.096Z</time></trkpt><trkpt lat="43.07509" lon="11.1382603"><ele>449.50000000000006</ele><time>2026-04-26T11:46:13.097Z</time></trkpt><trkpt lat="43.075004" lon="11.138252"><ele>451.0</ele><time>2026-04-26T11:46:15.097Z</time></trkpt><trkpt lat="43.0749307" lon="11.1382698"><ele>451.00000000000006</ele><time>2026-04-26T11:46:17.096Z</time></trkpt><trkpt lat="43.0748685" lon="11.1383026"><ele>451.0</ele><time>2026-04-26T11:46:19.096Z</time></trkpt><trkpt lat="43.0748143" lon="11.1383525"><ele>451.0</ele><time>2026-04-26T11:46:21.105Z</time></trkpt><trkpt lat="43.0747468" lon="11.1384367"><ele>451.0</ele><time>2026-04-26T11:46:23.094Z</time></trkpt><trkpt lat="43.0746774" lon="11.1384849"><ele>451.00000000000006</ele><time>2026-04-26T11:46:25.101Z</time></trkpt><trkpt lat="43.0745993" lon="11.1385467"><ele>451.0</ele><time>2026-04-26T11:46:27.099Z</time></trkpt><trkpt lat="43.0745057" lon="11.1386162"><ele>451.0</ele><time>2026-04-26T11:46:29.093Z</time></trkpt><trkpt lat="43.0744123" lon="11.1386835"><ele>451.0</ele><time>2026-04-26T11:46:31.095Z</time></trkpt><trkpt lat="43.0743237" lon="11.1387771"><ele>451.0</ele><time>2026-04-26T11:46:33.095Z</time></trkpt><trkpt lat="43.0742333" lon="11.1388783"><ele>451.0</ele><time>2026-04-26T11:46:35.093Z</time></trkpt><trkpt lat="43.0741653" lon="11.1389726"><ele>451.0</ele><time>2026-04-26T11:46:37.108Z</time></trkpt><trkpt lat="43.0741146" lon="11.1390577"><ele>452.20000000000005</ele><time>2026-04-26T11:46:39.092Z</time></trkpt><trkpt lat="43.0740525" lon="11.1391138"><ele>453.40000000000003</ele><time>2026-04-26T11:46:41.09Z</time></trkpt><trkpt lat="43.0739855" lon="11.1391836"><ele>454.6</ele><time>2026-04-26T11:46:43.094Z</time></trkpt><trkpt lat="43.0739074" lon="11.1392843"><ele>455.8</ele><time>2026-04-26T11:46:45.092Z</time></trkpt><trkpt lat="43.0738289" lon="11.1393675"><ele>457.0</ele><time>2026-04-26T11:46:47.09Z</time></trkpt><trkpt lat="43.0737518" lon="11.1394186"><ele>457.0</ele><time>2026-04-26T11:46:49.09Z</time></trkpt><trkpt lat="43.0736728" lon="11.1394889"><ele>457.00000000000006</ele><time>2026-04-26T11:46:51.094Z</time></trkpt><trkpt lat="43.0736661" lon="11.1396079"><ele>457.00000000000006</ele><time>2026-04-26T11:46:53.085Z</time></trkpt><trkpt lat="43.073714" lon="11.1397385"><ele>457.0</ele><time>2026-04-26T11:46:55.093Z</time></trkpt><trkpt lat="43.0737933" lon="11.1398482"><ele>457.0</ele><time>2026-04-26T11:46:57.086Z</time></trkpt><trkpt lat="43.0738658" lon="11.1399709"><ele>459.28571428571433</ele><time>2026-04-26T11:46:59.091Z</time></trkpt><trkpt lat="43.0738977" lon="11.1400714"><ele>461.57142857142856</ele><time>2026-04-26T11:47:01.093Z</time></trkpt><trkpt lat="43.0739244" lon="11.1401591"><ele>463.8571428571429</ele><time>2026-04-26T11:47:03.089Z</time></trkpt><trkpt lat="43.0739493" lon="11.1402466"><ele>466.14285714285717</ele><time>2026-04-26T11:47:05.088Z</time></trkpt><trkpt lat="43.0739801" lon="11.1403475"><ele>468.42857142857144</ele><time>2026-04-26T11:47:07.101Z</time></trkpt><trkpt lat="43.0739959" lon="11.1404495"><ele>470.7142857142857</ele><time>2026-04-26T11:47:09.094Z</time></trkpt><trkpt lat="43.0739929" lon="11.1405444"><ele>473.0</ele><time>2026-04-26T11:47:11.09Z</time></trkpt><trkpt lat="43.0739793" lon="11.1406385"><ele>474.16666666666663</ele><time>2026-04-26T11:47:13.097Z</time></trkpt><trkpt lat="43.0739404" lon="11.1407571"><ele>475.3333333333333</ele><time>2026-04-26T11:47:15.092Z</time></trkpt><trkpt lat="43.0738922" lon="11.1408947"><ele>476.5</ele><time>2026-04-26T11:47:17.092Z</time></trkpt><trkpt lat="43.07386" lon="11.1409857"><ele>477.66666666666663</ele><time>2026-04-26T11:47:19.1Z</time></trkpt><trkpt lat="43.0739182" lon="11.140938"><ele>478.8333333333333</ele><time>2026-04-26T11:47:52.096Z</time></trkpt><trkpt lat="43.073955" lon="11.1408551"><ele>480.0</ele><time>2026-04-26T11:47:55.097Z</time></trkpt><trkpt lat="43.0739775" lon="11.1407725"><ele>478.8333333333333</ele><time>2026-04-26T11:47:58.094Z</time></trkpt><trkpt lat="43.0739975" lon="11.1406582"><ele>477.66666666666663</ele><time>2026-04-26T11:48:02.096Z</time></trkpt><trkpt lat="43.0740306" lon="11.140565"><ele>476.5</ele><time>2026-04-26T11:48:04.095Z</time></trkpt><trkpt lat="43.0740394" lon="11.1404608"><ele>475.3333333333333</ele><time>2026-04-26T11:48:06.097Z</time></trkpt><trkpt lat="43.0740077" lon="11.140345"><ele>474.16666666666663</ele><time>2026-04-26T11:48:08.093Z</time></trkpt><trkpt lat="43.0739792" lon="11.140265"><ele>473.0</ele><time>2026-04-26T11:48:09.088Z</time></trkpt><trkpt lat="43.0739504" lon="11.1401844"><ele>473.0</ele><time>2026-04-26T11:48:10.094Z</time></trkpt><trkpt lat="43.0739257" lon="11.1401039"><ele>473.0</ele><time>2026-04-26T11:48:11.09Z</time></trkpt><trkpt lat="43.0738985" lon="11.1400237"><ele>473.0</ele><time>2026-04-26T11:48:12.092Z</time></trkpt><trkpt lat="43.0738635" lon="11.1399438"><ele>473.0</ele><time>2026-04-26T11:48:13.089Z</time></trkpt><trkpt lat="43.0738192" lon="11.1398628"><ele>473.0</ele><time>2026-04-26T11:48:14.086Z</time></trkpt><trkpt lat="43.0737821" lon="11.1397845"><ele>473.0</ele><time>2026-04-26T11:48:15.098Z</time></trkpt><trkpt lat="43.073743" lon="11.1397108"><ele>473.0</ele><time>2026-04-26T11:48:16.095Z</time></trkpt><trkpt lat="43.0736889" lon="11.1395774"><ele>471.66666666666663</ele><time>2026-04-26T11:48:18.094Z</time></trkpt><trkpt lat="43.0736872" lon="11.1394824"><ele>470.3333333333333</ele><time>2026-04-26T11:48:20.106Z</time></trkpt><trkpt lat="43.0736303" lon="11.1394321"><ele>469.0</ele><time>2026-04-26T11:50:07.091Z</time></trkpt><trkpt lat="43.0735467" lon="11.1393904"><ele>467.66666666666663</ele><time>2026-04-26T11:50:10.085Z</time></trkpt><trkpt lat="43.07346" lon="11.1393873"><ele>466.3333333333333</ele><time>2026-04-26T11:50:12.092Z</time></trkpt><trkpt lat="43.0733581" lon="11.1393884"><ele>465.0</ele><time>2026-04-26T11:50:14.095Z</time></trkpt><trkpt lat="43.0732543" lon="11.1394066"><ele>465.0</ele><time>2026-04-26T11:50:16.09Z</time></trkpt><trkpt lat="43.0731494" lon="11.1394036"><ele>465.0</ele><time>2026-04-26T11:50:18.096Z</time></trkpt><trkpt lat="43.0730793" lon="11.1393653"><ele>465.0</ele><time>2026-04-26T11:50:20.082Z</time></trkpt><trkpt lat="43.0729897" lon="11.1393265"><ele>465.0</ele><time>2026-04-26T11:50:23.088Z</time></trkpt><trkpt lat="43.0729335" lon="11.1392848"><ele>465.0</ele><time>2026-04-26T11:50:28.092Z</time></trkpt><trkpt lat="43.0729926" lon="11.1393508"><ele>465.0</ele><time>2026-04-26T11:50:35.085Z</time></trkpt><trkpt lat="43.0730647" lon="11.1393985"><ele>465.0</ele><time>2026-04-26T11:50:37.087Z</time></trkpt><trkpt lat="43.0731643" lon="11.13941"><ele>465.0</ele><time>2026-04-26T11:50:39.087Z</time></trkpt><trkpt lat="43.0732366" lon="11.139407"><ele>465.0</ele><time>2026-04-26T11:50:41.087Z</time></trkpt><trkpt lat="43.0733295" lon="11.1393888"><ele>465.0</ele><time>2026-04-26T11:50:43.098Z</time></trkpt><trkpt lat="43.0733981" lon="11.1394001"><ele>465.0</ele><time>2026-04-26T11:50:45.085Z</time></trkpt><trkpt lat="43.0734763" lon="11.1394014"><ele>465.0</ele><time>2026-04-26T11:50:48.081Z</time></trkpt><trkpt lat="43.0735412" lon="11.1394194"><ele>463.6666666666667</ele><time>2026-04-26T11:50:59.083Z</time></trkpt><trkpt lat="43.0736496" lon="11.1394089"><ele>462.33333333333337</ele><time>2026-04-26T11:51:02.079Z</time></trkpt><trkpt lat="43.0737264" lon="11.1393555"><ele>461.0</ele><time>2026-04-26T11:51:03.097Z</time></trkpt><trkpt lat="43.0737913" lon="11.1392913"><ele>459.6666666666667</ele><time>2026-04-26T11:51:04.083Z</time></trkpt><trkpt lat="43.0738605" lon="11.1392295"><ele>458.33333333333337</ele><time>2026-04-26T11:51:05.082Z</time></trkpt><trkpt lat="43.073929" lon="11.1391753"><ele>457.0</ele><time>2026-04-26T11:51:06.091Z</time></trkpt><trkpt lat="43.0739871" lon="11.1391138"><ele>457.00000000000006</ele><time>2026-04-26T11:51:07.082Z</time></trkpt><trkpt lat="43.074049" lon="11.1390472"><ele>457.0</ele><time>2026-04-26T11:51:09.086Z</time></trkpt><trkpt lat="43.0741011" lon="11.1389881"><ele>457.0</ele><time>2026-04-26T11:52:18.091Z</time></trkpt><trkpt lat="43.0741605" lon="11.1388951"><ele>457.0</ele><time>2026-04-26T11:52:20.094Z</time></trkpt><trkpt lat="43.0740959" lon="11.1388991"><ele>457.00000000000006</ele><time>2026-04-26T11:52:26.083Z</time></trkpt><trkpt lat="43.074061" lon="11.1390029"><ele>457.0</ele><time>2026-04-26T11:52:28.084Z</time></trkpt><trkpt lat="43.0740068" lon="11.1390968"><ele>457.00000000000006</ele><time>2026-04-26T11:52:30.083Z</time></trkpt><trkpt lat="43.0739361" lon="11.1392035"><ele>457.0</ele><time>2026-04-26T11:52:32.091Z</time></trkpt><trkpt lat="43.0738818" lon="11.1392743"><ele>457.0</ele><time>2026-04-26T11:52:34.088Z</time></trkpt><trkpt lat="43.0738258" lon="11.1393152"><ele>457.0</ele><time>2026-04-26T11:52:36.083Z</time></trkpt><trkpt lat="43.0737639" lon="11.1393495"><ele>457.00000000000006</ele><time>2026-04-26T11:52:38.087Z</time></trkpt><trkpt lat="43.0736808" lon="11.1393754"><ele>457.0</ele><time>2026-04-26T11:52:41.084Z</time></trkpt><trkpt lat="43.0736545" lon="11.1394557"><ele>457.00000000000006</ele><time>2026-04-26T11:54:28.085Z</time></trkpt><trkpt lat="43.0736741" lon="11.1395433"><ele>457.0</ele><time>2026-04-26T11:54:30.097Z</time></trkpt><trkpt lat="43.0737024" lon="11.1396326"><ele>457.00000000000006</ele><time>2026-04-26T11:54:32.094Z</time></trkpt><trkpt lat="43.0737391" lon="11.139707"><ele>457.00000000000006</ele><time>2026-04-26T11:54:34.092Z</time></trkpt><trkpt lat="43.0737672" lon="11.1398164"><ele>457.0</ele><time>2026-04-26T11:54:36.082Z</time></trkpt><trkpt lat="43.0737917" lon="11.1399049"><ele>457.00000000000006</ele><time>2026-04-26T11:54:38.086Z</time></trkpt><trkpt lat="43.0738099" lon="11.1399959"><ele>457.00000000000006</ele><time>2026-04-26T11:54:40.091Z</time></trkpt><trkpt lat="43.0738313" lon="11.140093"><ele>459.6666666666667</ele><time>2026-04-26T11:54:42.082Z</time></trkpt><trkpt lat="43.0738602" lon="11.1401827"><ele>462.33333333333337</ele><time>2026-04-26T11:54:44.088Z</time></trkpt><trkpt lat="43.0738828" lon="11.1402914"><ele>465.0</ele><time>2026-04-26T11:54:47.088Z</time></trkpt><trkpt lat="43.0739154" lon="11.14037"><ele>467.66666666666663</ele><time>2026-04-26T11:54:49.094Z</time></trkpt><trkpt lat="43.0739318" lon="11.1404762"><ele>470.3333333333333</ele><time>2026-04-26T11:54:51.09Z</time></trkpt><trkpt lat="43.0739239" lon="11.1406169"><ele>473.0</ele><time>2026-04-26T11:54:53.083Z</time></trkpt><trkpt lat="43.0739122" lon="11.1407328"><ele>474.4</ele><time>2026-04-26T11:54:55.088Z</time></trkpt><trkpt lat="43.0738966" lon="11.1408557"><ele>475.79999999999995</ele><time>2026-04-26T11:54:57.086Z</time></trkpt><trkpt lat="43.0738729" lon="11.1409839"><ele>477.2</ele><time>2026-04-26T11:54:59.086Z</time></trkpt><trkpt lat="43.0738143" lon="11.1411214"><ele>478.6</ele><time>2026-04-26T11:55:01.093Z</time></trkpt><trkpt lat="43.0737511" lon="11.1412605"><ele>480.0</ele><time>2026-04-26T11:55:03.092Z</time></trkpt><trkpt lat="43.0736911" lon="11.1413959"><ele>481.0</ele><time>2026-04-26T11:55:05.092Z</time></trkpt><trkpt lat="43.0736296" lon="11.1415493"><ele>482.0</ele><time>2026-04-26T11:55:07.09Z</time></trkpt><trkpt lat="43.0736173" lon="11.1416383"><ele>483.0</ele><time>2026-04-26T11:55:08.096Z</time></trkpt><trkpt lat="43.0736076" lon="11.1417258"><ele>484.0</ele><time>2026-04-26T11:55:09.096Z</time></trkpt><trkpt lat="43.0735662" lon="11.1418766"><ele>485.0</ele><time>2026-04-26T11:55:11.093Z</time></trkpt><trkpt lat="43.0735149" lon="11.1420029"><ele>484.99999999999994</ele><time>2026-04-26T11:55:13.095Z</time></trkpt><trkpt lat="43.0734685" lon="11.1421284"><ele>485.0</ele><time>2026-04-26T11:55:15.093Z</time></trkpt><trkpt lat="43.0733893" lon="11.1422231"><ele>485.0</ele><time>2026-04-26T11:55:17.101Z</time></trkpt><trkpt lat="43.0733313" lon="11.1422609"><ele>485.0</ele><time>2026-04-26T11:55:18.09Z</time></trkpt><trkpt lat="43.0732685" lon="11.1422848"><ele>484.99999999999994</ele><time>2026-04-26T11:55:19.096Z</time></trkpt><trkpt lat="43.0732064" lon="11.1423031"><ele>485.0</ele><time>2026-04-26T11:55:20.089Z</time></trkpt><trkpt lat="43.0731418" lon="11.1423161"><ele>485.16666666666663</ele><time>2026-04-26T11:55:21.096Z</time></trkpt><trkpt lat="43.07308" lon="11.1423367"><ele>485.3333333333333</ele><time>2026-04-26T11:55:22.092Z</time></trkpt><trkpt lat="43.0729671" lon="11.142369"><ele>485.5</ele><time>2026-04-26T11:55:24.094Z</time></trkpt><trkpt lat="43.0729066" lon="11.142393"><ele>485.66666666666663</ele><time>2026-04-26T11:55:25.096Z</time></trkpt><trkpt lat="43.0728391" lon="11.142428"><ele>485.8333333333333</ele><time>2026-04-26T11:55:26.095Z</time></trkpt><trkpt lat="43.0727744" lon="11.1424783"><ele>486.0</ele><time>2026-04-26T11:55:27.083Z</time></trkpt><trkpt lat="43.0727133" lon="11.1425245"><ele>486.0</ele><time>2026-04-26T11:55:28.094Z</time></trkpt><trkpt lat="43.0726578" lon="11.1425805"><ele>486.0</ele><time>2026-04-26T11:55:29.1Z</time></trkpt><trkpt lat="43.0726044" lon="11.1426458"><ele>486.0</ele><time>2026-04-26T11:55:30.096Z</time></trkpt><trkpt lat="43.0725612" lon="11.1427163"><ele>486.0</ele><time>2026-04-26T11:55:31.094Z</time></trkpt><trkpt lat="43.0724657" lon="11.1428193"><ele>486.0</ele><time>2026-04-26T11:55:33.093Z</time></trkpt><trkpt lat="43.0724097" lon="11.1428701"><ele>486.0</ele><time>2026-04-26T11:55:34.089Z</time></trkpt><trkpt lat="43.0723307" lon="11.1429873"><ele>488.0</ele><time>2026-04-26T11:55:36.086Z</time></trkpt><trkpt lat="43.0722968" lon="11.1430738"><ele>490.0</ele><time>2026-04-26T11:55:38.091Z</time></trkpt><trkpt lat="43.0722595" lon="11.14296"><ele>492.0</ele><time>2026-04-26T11:55:46.087Z</time></trkpt><trkpt lat="43.0721947" lon="11.1428542"><ele>494.0</ele><time>2026-04-26T11:55:49.084Z</time></trkpt><trkpt lat="43.0720888" lon="11.1427699"><ele>496.0</ele><time>2026-04-26T11:55:51.086Z</time></trkpt><trkpt lat="43.0720247" lon="11.1427406"><ele>496.0</ele><time>2026-04-26T11:55:52.093Z</time></trkpt><trkpt lat="43.0719625" lon="11.1427034"><ele>496.0</ele><time>2026-04-26T11:55:53.087Z</time></trkpt><trkpt lat="43.0719025" lon="11.142667"><ele>496.0</ele><time>2026-04-26T11:55:54.093Z</time></trkpt><trkpt lat="43.0718016" lon="11.1426008"><ele>496.0</ele><time>2026-04-26T11:55:56.093Z</time></trkpt><trkpt lat="43.0716963" lon="11.1425323"><ele>496.0</ele><time>2026-04-26T11:55:58.083Z</time></trkpt><trkpt lat="43.071598" lon="11.1424842"><ele>498.1666666666667</ele><time>2026-04-26T11:56:00.089Z</time></trkpt><trkpt lat="43.0715279" lon="11.1424999"><ele>500.33333333333337</ele><time>2026-04-26T11:56:02.086Z</time></trkpt><trkpt lat="43.0714666" lon="11.1425484"><ele>502.5</ele><time>2026-04-26T11:56:04.089Z</time></trkpt><trkpt lat="43.0714151" lon="11.142648"><ele>504.66666666666663</ele><time>2026-04-26T11:56:06.089Z</time></trkpt><trkpt lat="43.0713558" lon="11.1427617"><ele>506.8333333333333</ele><time>2026-04-26T11:56:08.09Z</time></trkpt><trkpt lat="43.0712902" lon="11.1428722"><ele>509.0</ele><time>2026-04-26T11:56:10.088Z</time></trkpt><trkpt lat="43.0712048" lon="11.1429592"><ele>509.0</ele><time>2026-04-26T11:56:12.092Z</time></trkpt><trkpt lat="43.0711047" lon="11.143012"><ele>509.0</ele><time>2026-04-26T11:56:14.084Z</time></trkpt><trkpt lat="43.0710029" lon="11.1429808"><ele>509.0</ele><time>2026-04-26T11:56:16.081Z</time></trkpt><trkpt lat="43.0709042" lon="11.1429368"><ele>509.0</ele><time>2026-04-26T11:56:18.092Z</time></trkpt><trkpt lat="43.0707997" lon="11.1429191"><ele>509.0</ele><time>2026-04-26T11:56:20.094Z</time></trkpt><trkpt lat="43.0707003" lon="11.1429081"><ele>509.5</ele><time>2026-04-26T11:56:22.086Z</time></trkpt><trkpt lat="43.0705846" lon="11.14291"><ele>510.0</ele><time>2026-04-26T11:56:24.092Z</time></trkpt><trkpt lat="43.0704658" lon="11.1429185"><ele>510.5</ele><time>2026-04-26T11:56:26.094Z</time></trkpt><trkpt lat="43.0703338" lon="11.1429276"><ele>511.0</ele><time>2026-04-26T11:56:28.086Z</time></trkpt><trkpt lat="43.0702507" lon="11.142927"><ele>511.0</ele><time>2026-04-26T11:56:29.084Z</time></trkpt><trkpt lat="43.0701603" lon="11.1429214"><ele>511.0</ele><time>2026-04-26T11:56:30.088Z</time></trkpt><trkpt lat="43.0700853" lon="11.1429307"><ele>511.0</ele><time>2026-04-26T11:56:31.086Z</time></trkpt><trkpt lat="43.0700278" lon="11.1429672"><ele>511.0</ele><time>2026-04-26T11:56:32.102Z</time></trkpt><trkpt lat="43.0699645" lon="11.1430177"><ele>511.0</ele><time>2026-04-26T11:56:33.085Z</time></trkpt><trkpt lat="43.0699102" lon="11.1430805"><ele>511.0</ele><time>2026-04-26T11:56:34.084Z</time></trkpt><trkpt lat="43.0698523" lon="11.1431415"><ele>511.0</ele><time>2026-04-26T11:56:35.092Z</time></trkpt><trkpt lat="43.0697886" lon="11.1432032"><ele>511.1666666666667</ele><time>2026-04-26T11:56:36.09Z</time></trkpt><trkpt lat="43.0697187" lon="11.143265"><ele>511.33333333333337</ele><time>2026-04-26T11:56:37.11Z</time></trkpt><trkpt lat="43.0696518" lon="11.1433461"><ele>511.5</ele><time>2026-04-26T11:56:38.088Z</time></trkpt><trkpt lat="43.0695791" lon="11.1434385"><ele>511.66666666666663</ele><time>2026-04-26T11:56:39.096Z</time></trkpt><trkpt lat="43.0695042" lon="11.1435099"><ele>511.8333333333333</ele><time>2026-04-26T11:56:40.086Z</time></trkpt><trkpt lat="43.06943" lon="11.143566"><ele>512.0</ele><time>2026-04-26T11:56:41.086Z</time></trkpt><trkpt lat="43.0693608" lon="11.1436066"><ele>511.99999999999994</ele><time>2026-04-26T11:56:42.087Z</time></trkpt><trkpt lat="43.0692886" lon="11.1436245"><ele>512.0</ele><time>2026-04-26T11:56:43.094Z</time></trkpt><trkpt lat="43.0692126" lon="11.1436192"><ele>512.0</ele><time>2026-04-26T11:56:44.09Z</time></trkpt><trkpt lat="43.0691324" lon="11.1435959"><ele>512.0</ele><time>2026-04-26T11:56:45.087Z</time></trkpt><trkpt lat="43.0690505" lon="11.143585"><ele>511.99999999999994</ele><time>2026-04-26T11:56:46.099Z</time></trkpt><trkpt lat="43.0689724" lon="11.1435822"><ele>512.0</ele><time>2026-04-26T11:56:47.09Z</time></trkpt><trkpt lat="43.0688913" lon="11.1435809"><ele>513.3333333333333</ele><time>2026-04-26T11:56:48.083Z</time></trkpt><trkpt lat="43.0688066" lon="11.1435768"><ele>514.6666666666666</ele><time>2026-04-26T11:56:49.093Z</time></trkpt><trkpt lat="43.0687241" lon="11.1435538"><ele>516.0</ele><time>2026-04-26T11:56:50.087Z</time></trkpt><trkpt lat="43.0686419" lon="11.1435117"><ele>517.3333333333334</ele><time>2026-04-26T11:56:51.093Z</time></trkpt><trkpt lat="43.0685645" lon="11.1434911"><ele>518.6666666666667</ele><time>2026-04-26T11:56:52.089Z</time></trkpt><trkpt lat="43.0684972" lon="11.1434937"><ele>520.0</ele><time>2026-04-26T11:56:53.087Z</time></trkpt><trkpt lat="43.0684272" lon="11.1436107"><ele>520.0</ele><time>2026-04-26T11:56:55.085Z</time></trkpt><trkpt lat="43.0683863" lon="11.1437412"><ele>520.0</ele><time>2026-04-26T11:56:57.092Z</time></trkpt><trkpt lat="43.06839" lon="11.1439176"><ele>520.0</ele><time>2026-04-26T11:56:59.099Z</time></trkpt><trkpt lat="43.0684165" lon="11.1440163"><ele>520.0</ele><time>2026-04-26T11:57:00.082Z</time></trkpt><trkpt lat="43.0684544" lon="11.1441232"><ele>520.0</ele><time>2026-04-26T11:57:01.088Z</time></trkpt><trkpt lat="43.0684932" lon="11.1442314"><ele>520.3333333333334</ele><time>2026-04-26T11:57:02.093Z</time></trkpt><trkpt lat="43.0685238" lon="11.144345"><ele>520.6666666666667</ele><time>2026-04-26T11:57:03.088Z</time></trkpt><trkpt lat="43.0685443" lon="11.1444574"><ele>521.0</ele><time>2026-04-26T11:57:04.083Z</time></trkpt><trkpt lat="43.0685456" lon="11.1445661"><ele>521.3333333333334</ele><time>2026-04-26T11:57:05.086Z</time></trkpt><trkpt lat="43.0685466" lon="11.1446698"><ele>521.6666666666666</ele><time>2026-04-26T11:57:06.084Z</time></trkpt><trkpt lat="43.0685304" lon="11.1447733"><ele>522.0</ele><time>2026-04-26T11:57:07.084Z</time></trkpt><trkpt lat="43.0685052" lon="11.1448758"><ele>520.3333333333334</ele><time>2026-04-26T11:57:08.085Z</time></trkpt><trkpt lat="43.0684732" lon="11.1449876"><ele>518.6666666666666</ele><time>2026-04-26T11:57:09.086Z</time></trkpt><trkpt lat="43.0684348" lon="11.1450964"><ele>517.0</ele><time>2026-04-26T11:57:10.086Z</time></trkpt><trkpt lat="43.0684007" lon="11.1452027"><ele>515.3333333333333</ele><time>2026-04-26T11:57:11.091Z</time></trkpt><trkpt lat="43.0683753" lon="11.1453083"><ele>513.6666666666666</ele><time>2026-04-26T11:57:12.086Z</time></trkpt><trkpt lat="43.0683491" lon="11.1454132"><ele>512.0</ele><time>2026-04-26T11:57:13.099Z</time></trkpt><trkpt lat="43.0683297" lon="11.1455119"><ele>512.0</ele><time>2026-04-26T11:57:14.087Z</time></trkpt><trkpt lat="43.0683146" lon="11.1456085"><ele>511.99999999999994</ele><time>2026-04-26T11:57:15.093Z</time></trkpt><trkpt lat="43.0682902" lon="11.1457025"><ele>512.0</ele><time>2026-04-26T11:57:16.084Z</time></trkpt><trkpt lat="43.0682483" lon="11.1457935"><ele>512.0</ele><time>2026-04-26T11:57:17.095Z</time></trkpt><trkpt lat="43.0682" lon="11.1458712"><ele>511.99999999999994</ele><time>2026-04-26T11:57:18.086Z</time></trkpt><trkpt lat="43.0681403" lon="11.1459255"><ele>512.0</ele><time>2026-04-26T11:57:19.087Z</time></trkpt><trkpt lat="43.068081" lon="11.1459795"><ele>512.0</ele><time>2026-04-26T11:57:20.087Z</time></trkpt><trkpt lat="43.0680352" lon="11.1460471"><ele>511.49999999999994</ele><time>2026-04-26T11:57:21.088Z</time></trkpt><trkpt lat="43.0680066" lon="11.1461976"><ele>511.0</ele><time>2026-04-26T11:57:23.085Z</time></trkpt><trkpt lat="43.0680197" lon="11.1462825"><ele>510.5</ele><time>2026-04-26T11:57:24.091Z</time></trkpt><trkpt lat="43.0680412" lon="11.1463862"><ele>510.0</ele><time>2026-04-26T11:57:25.083Z</time></trkpt><trkpt lat="43.0680527" lon="11.1464943"><ele>509.49999999999994</ele><time>2026-04-26T11:57:26.088Z</time></trkpt><trkpt lat="43.0680763" lon="11.1465941"><ele>509.0</ele><time>2026-04-26T11:57:27.089Z</time></trkpt><trkpt lat="43.0681203" lon="11.1467543"><ele>508.99999999999994</ele><time>2026-04-26T11:57:29.098Z</time></trkpt><trkpt lat="43.0681623" lon="11.1468194"><ele>509.0</ele><time>2026-04-26T11:57:30.09Z</time></trkpt><trkpt lat="43.068213" lon="11.1468834"><ele>508.99999999999994</ele><time>2026-04-26T11:57:31.086Z</time></trkpt><trkpt lat="43.0682645" lon="11.1469637"><ele>508.99999999999994</ele><time>2026-04-26T11:57:32.088Z</time></trkpt><trkpt lat="43.0683029" lon="11.1470629"><ele>509.0</ele><time>2026-04-26T11:57:33.09Z</time></trkpt><trkpt lat="43.0683358" lon="11.14716"><ele>508.99999999999994</ele><time>2026-04-26T11:57:34.084Z</time></trkpt><trkpt lat="43.0683585" lon="11.1472595"><ele>508.99999999999994</ele><time>2026-04-26T11:57:35.085Z</time></trkpt><trkpt lat="43.0683722" lon="11.1473621"><ele>504.8333333333333</ele><time>2026-04-26T11:57:36.091Z</time></trkpt><trkpt lat="43.0683804" lon="11.1474744"><ele>500.66666666666663</ele><time>2026-04-26T11:57:37.088Z</time></trkpt><trkpt lat="43.0683815" lon="11.1475976"><ele>496.5</ele><time>2026-04-26T11:57:38.091Z</time></trkpt><trkpt lat="43.0683825" lon="11.1477108"><ele>492.33333333333337</ele><time>2026-04-26T11:57:39.09Z</time></trkpt><trkpt lat="43.0683858" lon="11.1478193"><ele>488.1666666666667</ele><time>2026-04-26T11:57:40.095Z</time></trkpt><trkpt lat="43.0683731" lon="11.1479215"><ele>484.0</ele><time>2026-04-26T11:57:41.085Z</time></trkpt><trkpt lat="43.0683511" lon="11.1480185"><ele>484.00000000000006</ele><time>2026-04-26T11:57:42.086Z</time></trkpt><trkpt lat="43.0683102" lon="11.1481051"><ele>484.0</ele><time>2026-04-26T11:57:43.096Z</time></trkpt><trkpt lat="43.0682581" lon="11.1481926"><ele>484.0</ele><time>2026-04-26T11:57:44.086Z</time></trkpt><trkpt lat="43.0681989" lon="11.1482776"><ele>484.0</ele><time>2026-04-26T11:57:45.105Z</time></trkpt><trkpt lat="43.0681388" lon="11.1483525"><ele>484.00000000000006</ele><time>2026-04-26T11:57:46.094Z</time></trkpt><trkpt lat="43.0680814" lon="11.148429"><ele>484.0</ele><time>2026-04-26T11:57:47.081Z</time></trkpt><trkpt lat="43.0680431" lon="11.148509"><ele>486.79999999999995</ele><time>2026-04-26T11:57:48.084Z</time></trkpt><trkpt lat="43.0680121" lon="11.148655"><ele>489.59999999999997</ele><time>2026-04-26T11:57:50.088Z</time></trkpt><trkpt lat="43.0680445" lon="11.1487926"><ele>492.4</ele><time>2026-04-26T11:57:52.083Z</time></trkpt><trkpt lat="43.068135" lon="11.1489065"><ele>495.2</ele><time>2026-04-26T11:57:54.084Z</time></trkpt><trkpt lat="43.0681918" lon="11.1489667"><ele>498.0</ele><time>2026-04-26T11:57:55.085Z</time></trkpt><trkpt lat="43.0682366" lon="11.1490412"><ele>497.71428571428567</ele><time>2026-04-26T11:57:56.085Z</time></trkpt><trkpt lat="43.0682739" lon="11.1491225"><ele>497.4285714285714</ele><time>2026-04-26T11:57:57.104Z</time></trkpt><trkpt lat="43.0683063" lon="11.1492044"><ele>497.1428571428571</ele><time>2026-04-26T11:57:58.092Z</time></trkpt><trkpt lat="43.0683338" lon="11.1492963"><ele>496.8571428571429</ele><time>2026-04-26T11:57:59.096Z</time></trkpt><trkpt lat="43.0683524" lon="11.1493924"><ele>496.5714285714286</ele><time>2026-04-26T11:58:00.088Z</time></trkpt><trkpt lat="43.0683574" lon="11.1494897"><ele>496.28571428571433</ele><time>2026-04-26T11:58:01.092Z</time></trkpt><trkpt lat="43.0683501" lon="11.149578"><ele>496.0</ele><time>2026-04-26T11:58:02.087Z</time></trkpt><trkpt lat="43.0683405" lon="11.1496643"><ele>493.8</ele><time>2026-04-26T11:58:03.094Z</time></trkpt><trkpt lat="43.0683321" lon="11.1497549"><ele>491.6</ele><time>2026-04-26T11:58:04.093Z</time></trkpt><trkpt lat="43.0683186" lon="11.1498407"><ele>489.4</ele><time>2026-04-26T11:58:05.096Z</time></trkpt><trkpt lat="43.0682844" lon="11.1499959"><ele>487.2</ele><time>2026-04-26T11:58:07.09Z</time></trkpt><trkpt lat="43.068228" lon="11.1501466"><ele>485.0</ele><time>2026-04-26T11:58:09.095Z</time></trkpt><trkpt lat="43.06816" lon="11.1502803"><ele>484.99999999999994</ele><time>2026-04-26T11:58:11.098Z</time></trkpt><trkpt lat="43.068104" lon="11.1503869"><ele>485.0</ele><time>2026-04-26T11:58:13.094Z</time></trkpt><trkpt lat="43.068065" lon="11.1504972"><ele>485.0</ele><time>2026-04-26T11:58:16.089Z</time></trkpt><trkpt lat="43.0680413" lon="11.1505852"><ele>485.0</ele><time>2026-04-26T11:58:19.088Z</time></trkpt><trkpt lat="43.0680366" lon="11.1506949"><ele>484.99999999999994</ele><time>2026-04-26T11:58:22.096Z</time></trkpt><trkpt lat="43.0680313" lon="11.1507874"><ele>485.0</ele><time>2026-04-26T11:58:24.093Z</time></trkpt><trkpt lat="43.0680369" lon="11.1508858"><ele>481.99999999999994</ele><time>2026-04-26T11:58:26.088Z</time></trkpt><trkpt lat="43.0680424" lon="11.1509823"><ele>479.0</ele><time>2026-04-26T11:58:28.087Z</time></trkpt><trkpt lat="43.0680533" lon="11.1510915"><ele>476.0</ele><time>2026-04-26T11:58:30.085Z</time></trkpt><trkpt lat="43.0680693" lon="11.1511961"><ele>473.0</ele><time>2026-04-26T11:58:32.083Z</time></trkpt><trkpt lat="43.0680576" lon="11.1513047"><ele>469.99999999999994</ele><time>2026-04-26T11:58:34.085Z</time></trkpt><trkpt lat="43.068018" lon="11.1513942"><ele>467.0</ele><time>2026-04-26T11:58:36.089Z</time></trkpt><trkpt lat="43.0679782" lon="11.1514944"><ele>465.16666666666663</ele><time>2026-04-26T11:58:39.087Z</time></trkpt><trkpt lat="43.0679932" lon="11.1515939"><ele>463.3333333333333</ele><time>2026-04-26T11:58:42.095Z</time></trkpt><trkpt lat="43.0680296" lon="11.1516828"><ele>461.5</ele><time>2026-04-26T11:58:45.089Z</time></trkpt><trkpt lat="43.0680822" lon="11.1517643"><ele>459.66666666666663</ele><time>2026-04-26T11:58:48.087Z</time></trkpt><trkpt lat="43.068125" lon="11.1518369"><ele>457.8333333333333</ele><time>2026-04-26T11:58:50.091Z</time></trkpt><trkpt lat="43.0681589" lon="11.1520176"><ele>456.0</ele><time>2026-04-26T11:58:53.1Z</time></trkpt><trkpt lat="43.06818" lon="11.1521461"><ele>456.0</ele><time>2026-04-26T11:58:55.09Z</time></trkpt><trkpt lat="43.0682509" lon="11.1522568"><ele>456.0</ele><time>2026-04-26T11:58:57.097Z</time></trkpt><trkpt lat="43.068362" lon="11.1522564"><ele>456.0</ele><time>2026-04-26T11:58:59.092Z</time></trkpt><trkpt lat="43.0684925" lon="11.1522471"><ele>456.0</ele><time>2026-04-26T11:59:01.093Z</time></trkpt><trkpt lat="43.0685578" lon="11.1522064"><ele>456.0</ele><time>2026-04-26T11:59:02.087Z</time></trkpt><trkpt lat="43.06862" lon="11.1521551"><ele>455.6666666666667</ele><time>2026-04-26T11:59:03.094Z</time></trkpt><trkpt lat="43.0686763" lon="11.1521077"><ele>455.33333333333337</ele><time>2026-04-26T11:59:04.093Z</time></trkpt><trkpt lat="43.0687984" lon="11.152072"><ele>455.0</ele><time>2026-04-26T11:59:06.09Z</time></trkpt><trkpt lat="43.0688595" lon="11.1521088"><ele>454.6666666666667</ele><time>2026-04-26T11:59:07.093Z</time></trkpt><trkpt lat="43.0689235" lon="11.1521777"><ele>454.33333333333337</ele><time>2026-04-26T11:59:08.093Z</time></trkpt><trkpt lat="43.0689747" lon="11.1522761"><ele>454.0</ele><time>2026-04-26T11:59:09.09Z</time></trkpt><trkpt lat="43.0690058" lon="11.1523878"><ele>452.33333333333337</ele><time>2026-04-26T11:59:10.093Z</time></trkpt><trkpt lat="43.0690243" lon="11.1525149"><ele>450.6666666666667</ele><time>2026-04-26T11:59:11.097Z</time></trkpt><trkpt lat="43.0690276" lon="11.1526459"><ele>449.0</ele><time>2026-04-26T11:59:12.101Z</time></trkpt><trkpt lat="43.0690274" lon="11.1527637"><ele>447.33333333333337</ele><time>2026-04-26T11:59:13.106Z</time></trkpt><trkpt lat="43.0690313" lon="11.152865"><ele>445.6666666666667</ele><time>2026-04-26T11:59:14.095Z</time></trkpt><trkpt lat="43.0690395" lon="11.1529521"><ele>444.0</ele><time>2026-04-26T11:59:15.098Z</time></trkpt><trkpt lat="43.069129" lon="11.15302"><ele>442.2</ele><time>2026-04-26T11:59:17.084Z</time></trkpt><trkpt lat="43.0692154" lon="11.1529704"><ele>440.4</ele><time>2026-04-26T11:59:19.088Z</time></trkpt><trkpt lat="43.069301" lon="11.152862"><ele>438.6</ele><time>2026-04-26T11:59:21.094Z</time></trkpt><trkpt lat="43.0693635" lon="11.1527284"><ele>436.8</ele><time>2026-04-26T11:59:23.1Z</time></trkpt><trkpt lat="43.0693949" lon="11.1526184"><ele>435.0</ele><time>2026-04-26T11:59:25.098Z</time></trkpt><trkpt lat="43.0694575" lon="11.1526744"><ele>435.0</ele><time>2026-04-26T11:59:28.088Z</time></trkpt><trkpt lat="43.0694366" lon="11.1528308"><ele>435.0</ele><time>2026-04-26T11:59:30.088Z</time></trkpt><trkpt lat="43.0694125" lon="11.152926"><ele>435.0</ele><time>2026-04-26T11:59:31.088Z</time></trkpt><trkpt lat="43.0693706" lon="11.1530267"><ele>435.0</ele><time>2026-04-26T11:59:32.09Z</time></trkpt><trkpt lat="43.0693231" lon="11.1531251"><ele>435.0</ele><time>2026-04-26T11:59:33.091Z</time></trkpt><trkpt lat="43.0692667" lon="11.1532185"><ele>435.0</ele><time>2026-04-26T11:59:34.088Z</time></trkpt><trkpt lat="43.0692063" lon="11.1533127"><ele>433.4</ele><time>2026-04-26T11:59:35.086Z</time></trkpt><trkpt lat="43.0691333" lon="11.153407"><ele>431.8</ele><time>2026-04-26T11:59:36.098Z</time></trkpt><trkpt lat="43.0690462" lon="11.1534641"><ele>430.20000000000005</ele><time>2026-04-26T11:59:37.091Z</time></trkpt><trkpt lat="43.0689446" lon="11.1534653"><ele>428.6</ele><time>2026-04-26T11:59:38.098Z</time></trkpt><trkpt lat="43.0688403" lon="11.1534278"><ele>427.0</ele><time>2026-04-26T11:59:39.095Z</time></trkpt><trkpt lat="43.0687425" lon="11.1533426"><ele>427.0</ele><time>2026-04-26T11:59:40.09Z</time></trkpt><trkpt lat="43.0686448" lon="11.1532617"><ele>427.00000000000006</ele><time>2026-04-26T11:59:41.09Z</time></trkpt><trkpt lat="43.0685433" lon="11.1531983"><ele>427.00000000000006</ele><time>2026-04-26T11:59:42.089Z</time></trkpt><trkpt lat="43.0684411" lon="11.1531349"><ele>427.0</ele><time>2026-04-26T11:59:43.091Z</time></trkpt><trkpt lat="43.068344" lon="11.1530755"><ele>427.0</ele><time>2026-04-26T11:59:44.091Z</time></trkpt><trkpt lat="43.0682447" lon="11.1530243"><ele>431.6</ele><time>2026-04-26T11:59:45.09Z</time></trkpt><trkpt lat="43.0681351" lon="11.1529804"><ele>436.20000000000005</ele><time>2026-04-26T11:59:46.103Z</time></trkpt><trkpt lat="43.0680282" lon="11.1529403"><ele>440.8</ele><time>2026-04-26T11:59:47.095Z</time></trkpt><trkpt lat="43.0679242" lon="11.1529304"><ele>445.4</ele><time>2026-04-26T11:59:48.086Z</time></trkpt><trkpt lat="43.06784" lon="11.1529703"><ele>450.0</ele><time>2026-04-26T11:59:49.094Z</time></trkpt><trkpt lat="43.0677631" lon="11.1530453"><ele>450.0</ele><time>2026-04-26T11:59:50.082Z</time></trkpt><trkpt lat="43.0677082" lon="11.1531458"><ele>450.0</ele><time>2026-04-26T11:59:51.095Z</time></trkpt><trkpt lat="43.0676803" lon="11.1532592"><ele>450.0</ele><time>2026-04-26T11:59:52.095Z</time></trkpt><trkpt lat="43.0676474" lon="11.1533905"><ele>450.0</ele><time>2026-04-26T11:59:53.086Z</time></trkpt><trkpt lat="43.0676127" lon="11.153503"><ele>450.0</ele><time>2026-04-26T11:59:54.097Z</time></trkpt><trkpt lat="43.0675577" lon="11.153596"><ele>450.6</ele><time>2026-04-26T11:59:55.092Z</time></trkpt><trkpt lat="43.067494" lon="11.1536805"><ele>451.2</ele><time>2026-04-26T11:59:56.09Z</time></trkpt><trkpt lat="43.0674028" lon="11.1537509"><ele>451.79999999999995</ele><time>2026-04-26T11:59:57.106Z</time></trkpt><trkpt lat="43.0673028" lon="11.1538117"><ele>452.4</ele><time>2026-04-26T11:59:58.098Z</time></trkpt><trkpt lat="43.0671915" lon="11.1538638"><ele>453.0</ele><time>2026-04-26T11:59:59.096Z</time></trkpt><trkpt lat="43.0670797" lon="11.153913"><ele>453.0</ele><time>2026-04-26T12:00:00.088Z</time></trkpt><trkpt lat="43.0669643" lon="11.1539717"><ele>453.0</ele><time>2026-04-26T12:00:01.087Z</time></trkpt><trkpt lat="43.0668525" lon="11.1540446"><ele>453.0</ele><time>2026-04-26T12:00:02.084Z</time></trkpt><trkpt lat="43.0667509" lon="11.1541397"><ele>453.0</ele><time>2026-04-26T12:00:03.088Z</time></trkpt><trkpt lat="43.0666657" lon="11.1542598"><ele>449.25</ele><time>2026-04-26T12:00:04.088Z</time></trkpt><trkpt lat="43.0666019" lon="11.1544045"><ele>445.5</ele><time>2026-04-26T12:00:05.091Z</time></trkpt><trkpt lat="43.0665473" lon="11.1545554"><ele>441.75</ele><time>2026-04-26T12:00:06.099Z</time></trkpt><trkpt lat="43.0664933" lon="11.1547032"><ele>438.0</ele><time>2026-04-26T12:00:07.083Z</time></trkpt><trkpt lat="43.0664203" lon="11.1548185"><ele>438.0</ele><time>2026-04-26T12:00:08.092Z</time></trkpt><trkpt lat="43.0663248" lon="11.1548916"><ele>438.0</ele><time>2026-04-26T12:00:09.089Z</time></trkpt><trkpt lat="43.06621" lon="11.1549196"><ele>438.0</ele><time>2026-04-26T12:00:10.09Z</time></trkpt><trkpt lat="43.0661006" lon="11.1549026"><ele>438.0</ele><time>2026-04-26T12:00:11.091Z</time></trkpt><trkpt lat="43.0659799" lon="11.1548683"><ele>438.0</ele><time>2026-04-26T12:00:12.092Z</time></trkpt><trkpt lat="43.0658545" lon="11.1547977"><ele>438.0</ele><time>2026-04-26T12:00:13.094Z</time></trkpt><trkpt lat="43.0657323" lon="11.1547078"><ele>438.0</ele><time>2026-04-26T12:00:14.094Z</time></trkpt><trkpt lat="43.0656124" lon="11.1546028"><ele>438.0</ele><time>2026-04-26T12:00:15.089Z</time></trkpt><trkpt lat="43.065499" lon="11.1545125"><ele>434.5</ele><time>2026-04-26T12:00:16.09Z</time></trkpt><trkpt lat="43.0653864" lon="11.1544195"><ele>431.0</ele><time>2026-04-26T12:00:17.094Z</time></trkpt><trkpt lat="43.0652661" lon="11.154331"><ele>427.5</ele><time>2026-04-26T12:00:18.097Z</time></trkpt><trkpt lat="43.0651535" lon="11.1542567"><ele>424.0</ele><time>2026-04-26T12:00:19.112Z</time></trkpt><trkpt lat="43.0650395" lon="11.1542393"><ele>430.0</ele><time>2026-04-26T12:00:20.086Z</time></trkpt><trkpt lat="43.0649105" lon="11.154284"><ele>436.0</ele><time>2026-04-26T12:00:21.09Z</time></trkpt><trkpt lat="43.0647912" lon="11.1543371"><ele>442.0</ele><time>2026-04-26T12:00:22.097Z</time></trkpt><trkpt lat="43.0646819" lon="11.1543994"><ele>448.0</ele><time>2026-04-26T12:00:23.093Z</time></trkpt><trkpt lat="43.0646026" lon="11.1544971"><ele>448.0</ele><time>2026-04-26T12:00:24.093Z</time></trkpt><trkpt lat="43.0645456" lon="11.1546222"><ele>447.99999999999994</ele><time>2026-04-26T12:00:25.088Z</time></trkpt><trkpt lat="43.0645337" lon="11.1547707"><ele>447.99999999999994</ele><time>2026-04-26T12:00:26.087Z</time></trkpt><trkpt lat="43.0645494" lon="11.1549181"><ele>448.0</ele><time>2026-04-26T12:00:27.085Z</time></trkpt><trkpt lat="43.0645957" lon="11.1550656"><ele>448.0</ele><time>2026-04-26T12:00:28.082Z</time></trkpt><trkpt lat="43.0646553" lon="11.1552226"><ele>446.25</ele><time>2026-04-26T12:00:29.088Z</time></trkpt><trkpt lat="43.0647313" lon="11.1553819"><ele>444.5</ele><time>2026-04-26T12:00:30.093Z</time></trkpt><trkpt lat="43.0647874" lon="11.1555393"><ele>442.75</ele><time>2026-04-26T12:00:31.089Z</time></trkpt><trkpt lat="43.0648252" lon="11.1557143"><ele>441.0</ele><time>2026-04-26T12:00:32.081Z</time></trkpt><trkpt lat="43.0648725" lon="11.1558913"><ele>440.0</ele><time>2026-04-26T12:00:33.083Z</time></trkpt><trkpt lat="43.0649098" lon="11.1560794"><ele>439.0</ele><time>2026-04-26T12:00:34.087Z</time></trkpt><trkpt lat="43.0649457" lon="11.1562709"><ele>438.0</ele><time>2026-04-26T12:00:35.093Z</time></trkpt><trkpt lat="43.0649794" lon="11.1564607"><ele>437.0</ele><time>2026-04-26T12:00:36.081Z</time></trkpt><trkpt lat="43.0650168" lon="11.1566479"><ele>432.75</ele><time>2026-04-26T12:00:37.105Z</time></trkpt><trkpt lat="43.0650554" lon="11.1568378"><ele>428.5</ele><time>2026-04-26T12:00:38.087Z</time></trkpt><trkpt lat="43.0650915" lon="11.1570281"><ele>424.25</ele><time>2026-04-26T12:00:39.088Z</time></trkpt><trkpt lat="43.065135" lon="11.1572227"><ele>420.0</ele><time>2026-04-26T12:00:40.086Z</time></trkpt><trkpt lat="43.0651757" lon="11.1574159"><ele>419.75</ele><time>2026-04-26T12:00:41.084Z</time></trkpt><trkpt lat="43.0652146" lon="11.1576062"><ele>419.5</ele><time>2026-04-26T12:00:42.086Z</time></trkpt><trkpt lat="43.0652375" lon="11.1577906"><ele>419.25</ele><time>2026-04-26T12:00:43.093Z</time></trkpt><trkpt lat="43.0652434" lon="11.1579711"><ele>419.0</ele><time>2026-04-26T12:00:44.086Z</time></trkpt><trkpt lat="43.0652091" lon="11.1581373"><ele>419.0</ele><time>2026-04-26T12:00:45.097Z</time></trkpt><trkpt lat="43.0651428" lon="11.1582858"><ele>419.0</ele><time>2026-04-26T12:00:46.084Z</time></trkpt><trkpt lat="43.0650478" lon="11.1583976"><ele>419.0</ele><time>2026-04-26T12:00:47.089Z</time></trkpt><trkpt lat="43.0649288" lon="11.1584761"><ele>419.0</ele><time>2026-04-26T12:00:48.095Z</time></trkpt><trkpt lat="43.0648108" lon="11.1585322"><ele>419.0</ele><time>2026-04-26T12:00:49.089Z</time></trkpt><trkpt lat="43.0647084" lon="11.1585778"><ele>419.0</ele><time>2026-04-26T12:00:50.101Z</time></trkpt><trkpt lat="43.0646151" lon="11.1586705"><ele>419.0</ele><time>2026-04-26T12:00:51.09Z</time></trkpt><trkpt lat="43.0645683" lon="11.1588034"><ele>419.0</ele><time>2026-04-26T12:00:52.098Z</time></trkpt><trkpt lat="43.0645389" lon="11.1589348"><ele>419.0</ele><time>2026-04-26T12:00:53.093Z</time></trkpt><trkpt lat="43.0645194" lon="11.1590766"><ele>418.25</ele><time>2026-04-26T12:00:54.093Z</time></trkpt><trkpt lat="43.064497" lon="11.1592262"><ele>417.5</ele><time>2026-04-26T12:00:55.088Z</time></trkpt><trkpt lat="43.0644765" lon="11.1593775"><ele>416.75</ele><time>2026-04-26T12:00:56.098Z</time></trkpt><trkpt lat="43.0644578" lon="11.1595404"><ele>416.0</ele><time>2026-04-26T12:00:57.097Z</time></trkpt><trkpt lat="43.0644306" lon="11.1596927"><ele>415.99999999999994</ele><time>2026-04-26T12:00:58.09Z</time></trkpt><trkpt lat="43.0643961" lon="11.1598277"><ele>416.0</ele><time>2026-04-26T12:00:59.1Z</time></trkpt><trkpt lat="43.0643534" lon="11.1599392"><ele>416.0</ele><time>2026-04-26T12:01:00.093Z</time></trkpt><trkpt lat="43.0643008" lon="11.1600392"><ele>416.0</ele><time>2026-04-26T12:01:01.09Z</time></trkpt><trkpt lat="43.064246" lon="11.1601149"><ele>415.99999999999994</ele><time>2026-04-26T12:01:02.093Z</time></trkpt><trkpt lat="43.0641968" lon="11.1601816"><ele>416.0</ele><time>2026-04-26T12:01:03.09Z</time></trkpt><trkpt lat="43.0641837" lon="11.1602664"><ele>415.3333333333333</ele><time>2026-04-26T12:01:04.094Z</time></trkpt><trkpt lat="43.0641956" lon="11.1603652"><ele>414.66666666666663</ele><time>2026-04-26T12:01:05.095Z</time></trkpt><trkpt lat="43.0642137" lon="11.1604664"><ele>414.0</ele><time>2026-04-26T12:01:06.084Z</time></trkpt><trkpt lat="43.0642364" lon="11.1605765"><ele>413.33333333333337</ele><time>2026-04-26T12:01:07.093Z</time></trkpt><trkpt lat="43.0642595" lon="11.1606926"><ele>412.6666666666667</ele><time>2026-04-26T12:01:08.097Z</time></trkpt><trkpt lat="43.0642823" lon="11.1608233"><ele>412.0</ele><time>2026-04-26T12:01:09.093Z</time></trkpt><trkpt lat="43.0643066" lon="11.1609629"><ele>410.20000000000005</ele><time>2026-04-26T12:01:10.09Z</time></trkpt><trkpt lat="43.0643325" lon="11.161107"><ele>408.4</ele><time>2026-04-26T12:01:11.09Z</time></trkpt><trkpt lat="43.0643615" lon="11.1612605"><ele>406.6</ele><time>2026-04-26T12:01:12.096Z</time></trkpt><trkpt lat="43.0643934" lon="11.161405"><ele>404.79999999999995</ele><time>2026-04-26T12:01:13.096Z</time></trkpt><trkpt lat="43.0644268" lon="11.1615531"><ele>403.0</ele><time>2026-04-26T12:01:14.091Z</time></trkpt><trkpt lat="43.064468" lon="11.1616982"><ele>402.2</ele><time>2026-04-26T12:01:15.094Z</time></trkpt><trkpt lat="43.0645107" lon="11.1618409"><ele>401.4</ele><time>2026-04-26T12:01:16.1Z</time></trkpt><trkpt lat="43.0645617" lon="11.1619697"><ele>400.59999999999997</ele><time>2026-04-26T12:01:17.094Z</time></trkpt><trkpt lat="43.0646064" lon="11.1620906"><ele>399.79999999999995</ele><time>2026-04-26T12:01:18.095Z</time></trkpt><trkpt lat="43.0646435" lon="11.162195"><ele>399.0</ele><time>2026-04-26T12:01:19.09Z</time></trkpt><trkpt lat="43.0646802" lon="11.1622949"><ele>398.8333333333333</ele><time>2026-04-26T12:01:20.092Z</time></trkpt><trkpt lat="43.064709" lon="11.1623994"><ele>398.66666666666663</ele><time>2026-04-26T12:01:21.093Z</time></trkpt><trkpt lat="43.064733" lon="11.1624987"><ele>398.5</ele><time>2026-04-26T12:01:22.094Z</time></trkpt><trkpt lat="43.064752" lon="11.1625934"><ele>398.3333333333333</ele><time>2026-04-26T12:01:23.094Z</time></trkpt><trkpt lat="43.0647691" lon="11.1626863"><ele>398.16666666666663</ele><time>2026-04-26T12:01:24.094Z</time></trkpt><trkpt lat="43.0647833" lon="11.1627895"><ele>398.0</ele><time>2026-04-26T12:01:25.09Z</time></trkpt><trkpt lat="43.0647856" lon="11.1629001"><ele>398.0</ele><time>2026-04-26T12:01:26.091Z</time></trkpt><trkpt lat="43.0647891" lon="11.1630162"><ele>398.0</ele><time>2026-04-26T12:01:27.091Z</time></trkpt><trkpt lat="43.0647984" lon="11.1631405"><ele>398.0</ele><time>2026-04-26T12:01:28.097Z</time></trkpt><trkpt lat="43.0648028" lon="11.1632724"><ele>398.0</ele><time>2026-04-26T12:01:29.091Z</time></trkpt><trkpt lat="43.0648082" lon="11.1634073"><ele>398.0</ele><time>2026-04-26T12:01:30.11Z</time></trkpt><trkpt lat="43.0648095" lon="11.1635511"><ele>396.4</ele><time>2026-04-26T12:01:31.091Z</time></trkpt><trkpt lat="43.0648167" lon="11.1636918"><ele>394.79999999999995</ele><time>2026-04-26T12:01:32.086Z</time></trkpt><trkpt lat="43.0648222" lon="11.1638333"><ele>393.2</ele><time>2026-04-26T12:01:33.087Z</time></trkpt><trkpt lat="43.0648312" lon="11.1639838"><ele>391.6</ele><time>2026-04-26T12:01:34.092Z</time></trkpt><trkpt lat="43.0648341" lon="11.1641321"><ele>390.0</ele><time>2026-04-26T12:01:35.09Z</time></trkpt><trkpt lat="43.0648305" lon="11.1642837"><ele>390.6</ele><time>2026-04-26T12:01:36.089Z</time></trkpt><trkpt lat="43.0648306" lon="11.1644234"><ele>391.2</ele><time>2026-04-26T12:01:37.089Z</time></trkpt><trkpt lat="43.0648432" lon="11.1645548"><ele>391.79999999999995</ele><time>2026-04-26T12:01:38.09Z</time></trkpt><trkpt lat="43.0648612" lon="11.1646902"><ele>392.4</ele><time>2026-04-26T12:01:39.095Z</time></trkpt><trkpt lat="43.0648993" lon="11.1648259"><ele>393.0</ele><time>2026-04-26T12:01:40.088Z</time></trkpt><trkpt lat="43.0649597" lon="11.1649492"><ele>393.0</ele><time>2026-04-26T12:01:41.1Z</time></trkpt><trkpt lat="43.0650348" lon="11.1650774"><ele>393.0</ele><time>2026-04-26T12:01:42.089Z</time></trkpt><trkpt lat="43.0651059" lon="11.1652057"><ele>393.0</ele><time>2026-04-26T12:01:43.103Z</time></trkpt><trkpt lat="43.0651751" lon="11.165332"><ele>393.0</ele><time>2026-04-26T12:01:44.091Z</time></trkpt><trkpt lat="43.0652431" lon="11.1654642"><ele>393.0</ele><time>2026-04-26T12:01:45.091Z</time></trkpt><trkpt lat="43.0653044" lon="11.1655999"><ele>393.0</ele><time>2026-04-26T12:01:46.089Z</time></trkpt><trkpt lat="43.0653473" lon="11.1657527"><ele>393.0</ele><time>2026-04-26T12:01:47.088Z</time></trkpt><trkpt lat="43.0653808" lon="11.1659114"><ele>393.0</ele><time>2026-04-26T12:01:48.099Z</time></trkpt><trkpt lat="43.0654187" lon="11.1660635"><ele>394.0</ele><time>2026-04-26T12:01:49.092Z</time></trkpt><trkpt lat="43.0654639" lon="11.1662122"><ele>395.0</ele><time>2026-04-26T12:01:50.102Z</time></trkpt><trkpt lat="43.0655253" lon="11.166351"><ele>396.0</ele><time>2026-04-26T12:01:51.096Z</time></trkpt><trkpt lat="43.0656024" lon="11.1664892"><ele>397.0</ele><time>2026-04-26T12:01:52.099Z</time></trkpt><trkpt lat="43.0656908" lon="11.1666058"><ele>397.0</ele><time>2026-04-26T12:01:53.094Z</time></trkpt><trkpt lat="43.06578" lon="11.1667174"><ele>397.0</ele><time>2026-04-26T12:01:54.091Z</time></trkpt><trkpt lat="43.0658689" lon="11.1668214"><ele>397.0</ele><time>2026-04-26T12:01:55.095Z</time></trkpt><trkpt lat="43.0659509" lon="11.1669218"><ele>397.0</ele><time>2026-04-26T12:01:56.098Z</time></trkpt><trkpt lat="43.066019" lon="11.1670391"><ele>397.0</ele><time>2026-04-26T12:01:57.092Z</time></trkpt><trkpt lat="43.0660602" lon="11.1671724"><ele>397.0</ele><time>2026-04-26T12:01:58.09Z</time></trkpt><trkpt lat="43.0660872" lon="11.1673159"><ele>397.0</ele><time>2026-04-26T12:01:59.095Z</time></trkpt><trkpt lat="43.0661135" lon="11.1674652"><ele>397.0</ele><time>2026-04-26T12:02:00.091Z</time></trkpt><trkpt lat="43.0661297" lon="11.1676065"><ele>397.0</ele><time>2026-04-26T12:02:01.101Z</time></trkpt><trkpt lat="43.0661273" lon="11.1677543"><ele>397.20000000000005</ele><time>2026-04-26T12:02:02.092Z</time></trkpt><trkpt lat="43.0661163" lon="11.1679008"><ele>397.4</ele><time>2026-04-26T12:02:03.094Z</time></trkpt><trkpt lat="43.0660978" lon="11.1680469"><ele>397.6</ele><time>2026-04-26T12:02:04.096Z</time></trkpt><trkpt lat="43.066069" lon="11.1681951"><ele>397.79999999999995</ele><time>2026-04-26T12:02:05.099Z</time></trkpt><trkpt lat="43.0660418" lon="11.1683418"><ele>398.0</ele><time>2026-04-26T12:02:06.102Z</time></trkpt><trkpt lat="43.0660095" lon="11.1684918"><ele>398.0</ele><time>2026-04-26T12:02:07.094Z</time></trkpt><trkpt lat="43.0659797" lon="11.1686476"><ele>398.0</ele><time>2026-04-26T12:02:08.098Z</time></trkpt><trkpt lat="43.0659541" lon="11.1688083"><ele>398.0</ele><time>2026-04-26T12:02:09.097Z</time></trkpt><trkpt lat="43.0659289" lon="11.1689732"><ele>398.0</ele><time>2026-04-26T12:02:10.095Z</time></trkpt><trkpt lat="43.0658992" lon="11.169142"><ele>398.0</ele><time>2026-04-26T12:02:11.101Z</time></trkpt><trkpt lat="43.0658675" lon="11.1693145"><ele>398.0</ele><time>2026-04-26T12:02:12.092Z</time></trkpt><trkpt lat="43.0658403" lon="11.1694693"><ele>398.0</ele><time>2026-04-26T12:02:13.09Z</time></trkpt><trkpt lat="43.06581" lon="11.1696252"><ele>398.0</ele><time>2026-04-26T12:02:14.103Z</time></trkpt><trkpt lat="43.065778" lon="11.169775"><ele>397.59999999999997</ele><time>2026-04-26T12:02:15.089Z</time></trkpt><trkpt lat="43.0657407" lon="11.1699135"><ele>397.2</ele><time>2026-04-26T12:02:16.094Z</time></trkpt><trkpt lat="43.0657027" lon="11.1700521"><ele>396.8</ele><time>2026-04-26T12:02:17.089Z</time></trkpt><trkpt lat="43.0656588" lon="11.1701954"><ele>396.4</ele><time>2026-04-26T12:02:18.094Z</time></trkpt><trkpt lat="43.0656125" lon="11.1703273"><ele>396.0</ele><time>2026-04-26T12:02:19.1Z</time></trkpt><trkpt lat="43.0655508" lon="11.1704586"><ele>396.0</ele><time>2026-04-26T12:02:20.092Z</time></trkpt><trkpt lat="43.0654901" lon="11.1705927"><ele>396.0</ele><time>2026-04-26T12:02:21.123Z</time></trkpt><trkpt lat="43.0654298" lon="11.1707347"><ele>396.0</ele><time>2026-04-26T12:02:22.095Z</time></trkpt><trkpt lat="43.0653669" lon="11.1708716"><ele>396.0</ele><time>2026-04-26T12:02:23.096Z</time></trkpt><trkpt lat="43.0653024" lon="11.1710098"><ele>396.0</ele><time>2026-04-26T12:02:24.095Z</time></trkpt><trkpt lat="43.0652391" lon="11.1711472"><ele>396.0</ele><time>2026-04-26T12:02:25.097Z</time></trkpt><trkpt lat="43.0651718" lon="11.1712847"><ele>396.0</ele><time>2026-04-26T12:02:26.104Z</time></trkpt><trkpt lat="43.0651041" lon="11.1714183"><ele>396.0</ele><time>2026-04-26T12:02:27.094Z</time></trkpt><trkpt lat="43.0650214" lon="11.1715355"><ele>395.25</ele><time>2026-04-26T12:02:28.091Z</time></trkpt><trkpt lat="43.0649272" lon="11.1716298"><ele>394.5</ele><time>2026-04-26T12:02:29.089Z</time></trkpt><trkpt lat="43.0648221" lon="11.1717001"><ele>393.75</ele><time>2026-04-26T12:02:30.09Z</time></trkpt><trkpt lat="43.064715" lon="11.1717756"><ele>393.0</ele><time>2026-04-26T12:02:31.096Z</time></trkpt><trkpt lat="43.0646169" lon="11.1718552"><ele>393.0</ele><time>2026-04-26T12:02:32.095Z</time></trkpt><trkpt lat="43.064514" lon="11.1719523"><ele>393.0</ele><time>2026-04-26T12:02:33.09Z</time></trkpt><trkpt lat="43.0644101" lon="11.1720474"><ele>393.0</ele><time>2026-04-26T12:02:34.091Z</time></trkpt><trkpt lat="43.0643082" lon="11.1721423"><ele>393.0</ele><time>2026-04-26T12:02:35.096Z</time></trkpt><trkpt lat="43.0642133" lon="11.1722328"><ele>393.0</ele><time>2026-04-26T12:02:36.085Z</time></trkpt><trkpt lat="43.0641192" lon="11.1723254"><ele>393.0</ele><time>2026-04-26T12:02:37.09Z</time></trkpt><trkpt lat="43.0640328" lon="11.1724283"><ele>393.0</ele><time>2026-04-26T12:02:38.085Z</time></trkpt><trkpt lat="43.0639626" lon="11.1725358"><ele>393.0</ele><time>2026-04-26T12:02:39.104Z</time></trkpt><trkpt lat="43.0639002" lon="11.1726441"><ele>393.0</ele><time>2026-04-26T12:02:40.095Z</time></trkpt><trkpt lat="43.0638511" lon="11.1727548"><ele>393.79999999999995</ele><time>2026-04-26T12:02:41.09Z</time></trkpt><trkpt lat="43.0638068" lon="11.1728696"><ele>394.6</ele><time>2026-04-26T12:02:42.094Z</time></trkpt><trkpt lat="43.0637763" lon="11.1729996"><ele>395.4</ele><time>2026-04-26T12:02:43.094Z</time></trkpt><trkpt lat="43.0637668" lon="11.1731483"><ele>396.20000000000005</ele><time>2026-04-26T12:02:44.097Z</time></trkpt><trkpt lat="43.0637673" lon="11.1732951"><ele>397.0</ele><time>2026-04-26T12:02:45.093Z</time></trkpt><trkpt lat="43.0637771" lon="11.1734513"><ele>397.0</ele><time>2026-04-26T12:02:46.099Z</time></trkpt><trkpt lat="43.0637925" lon="11.1736016"><ele>397.0</ele><time>2026-04-26T12:02:47.098Z</time></trkpt><trkpt lat="43.0638045" lon="11.1737507"><ele>397.0</ele><time>2026-04-26T12:02:48.099Z</time></trkpt><trkpt lat="43.0638225" lon="11.1739064"><ele>397.0</ele><time>2026-04-26T12:02:49.09Z</time></trkpt><trkpt lat="43.0638392" lon="11.1740649"><ele>397.75</ele><time>2026-04-26T12:02:50.092Z</time></trkpt><trkpt lat="43.0638519" lon="11.1742201"><ele>398.5</ele><time>2026-04-26T12:02:51.092Z</time></trkpt><trkpt lat="43.0638662" lon="11.1743775"><ele>399.25</ele><time>2026-04-26T12:02:52.096Z</time></trkpt><trkpt lat="43.0638768" lon="11.1745351"><ele>400.0</ele><time>2026-04-26T12:02:53.097Z</time></trkpt><trkpt lat="43.0638913" lon="11.174692"><ele>400.0</ele><time>2026-04-26T12:02:54.099Z</time></trkpt><trkpt lat="43.0638877" lon="11.1748446"><ele>400.0</ele><time>2026-04-26T12:02:55.1Z</time></trkpt><trkpt lat="43.0638642" lon="11.1749847"><ele>400.0</ele><time>2026-04-26T12:02:56.096Z</time></trkpt><trkpt lat="43.0638364" lon="11.1751341"><ele>400.0</ele><time>2026-04-26T12:02:57.096Z</time></trkpt><trkpt lat="43.0638219" lon="11.1752847"><ele>400.0</ele><time>2026-04-26T12:02:58.092Z</time></trkpt><trkpt lat="43.0638157" lon="11.1754316"><ele>402.0</ele><time>2026-04-26T12:02:59.094Z</time></trkpt><trkpt lat="43.0638271" lon="11.1755846"><ele>404.0</ele><time>2026-04-26T12:03:00.101Z</time></trkpt><trkpt lat="43.0638372" lon="11.1757323"><ele>406.0</ele><time>2026-04-26T12:03:01.089Z</time></trkpt><trkpt lat="43.0638453" lon="11.1758746"><ele>408.0</ele><time>2026-04-26T12:03:02.093Z</time></trkpt><trkpt lat="43.063839" lon="11.1760085"><ele>410.0</ele><time>2026-04-26T12:03:03.101Z</time></trkpt><trkpt lat="43.0638256" lon="11.1761322"><ele>412.0</ele><time>2026-04-26T12:03:04.089Z</time></trkpt><trkpt lat="43.0637675" lon="11.1762613"><ele>414.0</ele><time>2026-04-26T12:03:05.097Z</time></trkpt><trkpt lat="43.0637094" lon="11.1763993"><ele>416.0</ele><time>2026-04-26T12:03:06.09Z</time></trkpt><trkpt lat="43.0636627" lon="11.1765469"><ele>418.0</ele><time>2026-04-26T12:03:07.089Z</time></trkpt><trkpt lat="43.0636214" lon="11.1767044"><ele>418.0</ele><time>2026-04-26T12:03:08.093Z</time></trkpt><trkpt lat="43.0635829" lon="11.1768675"><ele>418.0</ele><time>2026-04-26T12:03:09.097Z</time></trkpt><trkpt lat="43.0635414" lon="11.1770375"><ele>418.0</ele><time>2026-04-26T12:03:10.095Z</time></trkpt><trkpt lat="43.0635003" lon="11.1772034"><ele>418.0</ele><time>2026-04-26T12:03:11.093Z</time></trkpt><trkpt lat="43.0634573" lon="11.1773691"><ele>418.5</ele><time>2026-04-26T12:03:12.093Z</time></trkpt><trkpt lat="43.0634164" lon="11.1775374"><ele>419.0</ele><time>2026-04-26T12:03:13.093Z</time></trkpt><trkpt lat="43.0633833" lon="11.1777045"><ele>419.5</ele><time>2026-04-26T12:03:14.087Z</time></trkpt><trkpt lat="43.0633515" lon="11.177871"><ele>420.0</ele><time>2026-04-26T12:03:15.09Z</time></trkpt><trkpt lat="43.0633194" lon="11.1780274"><ele>420.0</ele><time>2026-04-26T12:03:16.088Z</time></trkpt><trkpt lat="43.0632926" lon="11.1781744"><ele>420.0</ele><time>2026-04-26T12:03:17.092Z</time></trkpt><trkpt lat="43.0632806" lon="11.1783265"><ele>420.0</ele><time>2026-04-26T12:03:18.102Z</time></trkpt><trkpt lat="43.0632794" lon="11.1784671"><ele>420.0</ele><time>2026-04-26T12:03:19.088Z</time></trkpt><trkpt lat="43.0633057" lon="11.178589"><ele>420.0</ele><time>2026-04-26T12:03:20.084Z</time></trkpt><trkpt lat="43.0633527" lon="11.1786996"><ele>421.8</ele><time>2026-04-26T12:03:21.091Z</time></trkpt><trkpt lat="43.0634065" lon="11.1788027"><ele>423.6</ele><time>2026-04-26T12:03:22.086Z</time></trkpt><trkpt lat="43.0634693" lon="11.1788998"><ele>425.4</ele><time>2026-04-26T12:03:23.091Z</time></trkpt><trkpt lat="43.0635483" lon="11.1789989"><ele>427.2</ele><time>2026-04-26T12:03:24.092Z</time></trkpt><trkpt lat="43.0636344" lon="11.179091"><ele>429.0</ele><time>2026-04-26T12:03:25.102Z</time></trkpt><trkpt lat="43.0637263" lon="11.1791707"><ele>430.75</ele><time>2026-04-26T12:03:26.086Z</time></trkpt><trkpt lat="43.0638226" lon="11.179238"><ele>432.5</ele><time>2026-04-26T12:03:27.085Z</time></trkpt><trkpt lat="43.0639353" lon="11.1792921"><ele>434.25</ele><time>2026-04-26T12:03:28.091Z</time></trkpt><trkpt lat="43.0640547" lon="11.1793444"><ele>436.0</ele><time>2026-04-26T12:03:29.086Z</time></trkpt><trkpt lat="43.0641721" lon="11.1793942"><ele>436.0</ele><time>2026-04-26T12:03:30.093Z</time></trkpt><trkpt lat="43.0642799" lon="11.1794577"><ele>436.0</ele><time>2026-04-26T12:03:31.087Z</time></trkpt><trkpt lat="43.0643924" lon="11.179531"><ele>436.0</ele><time>2026-04-26T12:03:32.09Z</time></trkpt><trkpt lat="43.0644878" lon="11.1796198"><ele>436.0</ele><time>2026-04-26T12:03:33.084Z</time></trkpt><trkpt lat="43.0645626" lon="11.1797258"><ele>438.8</ele><time>2026-04-26T12:03:34.086Z</time></trkpt><trkpt lat="43.0646264" lon="11.179856"><ele>441.6</ele><time>2026-04-26T12:03:35.084Z</time></trkpt><trkpt lat="43.0646753" lon="11.1799933"><ele>444.4</ele><time>2026-04-26T12:03:36.087Z</time></trkpt><trkpt lat="43.064704" lon="11.1801291"><ele>447.2</ele><time>2026-04-26T12:03:37.093Z</time></trkpt><trkpt lat="43.0647042" lon="11.1802528"><ele>450.0</ele><time>2026-04-26T12:03:38.09Z</time></trkpt><trkpt lat="43.0646773" lon="11.1803526"><ele>450.0</ele><time>2026-04-26T12:03:39.101Z</time></trkpt><trkpt lat="43.0646347" lon="11.1804481"><ele>450.0</ele><time>2026-04-26T12:03:40.09Z</time></trkpt><trkpt lat="43.0645739" lon="11.1805425"><ele>450.0</ele><time>2026-04-26T12:03:41.08Z</time></trkpt><trkpt lat="43.0645109" lon="11.1806657"><ele>450.0</ele><time>2026-04-26T12:03:42.082Z</time></trkpt><trkpt lat="43.0644373" lon="11.1808012"><ele>450.0</ele><time>2026-04-26T12:03:43.091Z</time></trkpt><trkpt lat="43.0643676" lon="11.1809334"><ele>450.25</ele><time>2026-04-26T12:03:44.091Z</time></trkpt><trkpt lat="43.0642943" lon="11.181059"><ele>450.5</ele><time>2026-04-26T12:03:45.1Z</time></trkpt><trkpt lat="43.0642145" lon="11.1811882"><ele>450.75</ele><time>2026-04-26T12:03:46.083Z</time></trkpt><trkpt lat="43.0641314" lon="11.181305"><ele>451.0</ele><time>2026-04-26T12:03:47.075Z</time></trkpt><trkpt lat="43.0640518" lon="11.1814179"><ele>452.4</ele><time>2026-04-26T12:03:48.091Z</time></trkpt><trkpt lat="43.0639852" lon="11.1815304"><ele>453.8</ele><time>2026-04-26T12:03:49.085Z</time></trkpt><trkpt lat="43.0639357" lon="11.181647"><ele>455.19999999999993</ele><time>2026-04-26T12:03:50.087Z</time></trkpt><trkpt lat="43.0639057" lon="11.1817681"><ele>456.59999999999997</ele><time>2026-04-26T12:03:51.09Z</time></trkpt><trkpt lat="43.0638957" lon="11.1818985"><ele>458.0</ele><time>2026-04-26T12:03:52.088Z</time></trkpt><trkpt lat="43.0639155" lon="11.1820418"><ele>458.0</ele><time>2026-04-26T12:03:53.081Z</time></trkpt><trkpt lat="43.0639496" lon="11.1821902"><ele>457.99999999999994</ele><time>2026-04-26T12:03:54.092Z</time></trkpt><trkpt lat="43.0639788" lon="11.1823172"><ele>457.99999999999994</ele><time>2026-04-26T12:03:55.088Z</time></trkpt><trkpt lat="43.0640024" lon="11.182415"><ele>458.0</ele><time>2026-04-26T12:03:56.1Z</time></trkpt><trkpt lat="43.0640262" lon="11.1824985"><ele>458.0</ele><time>2026-04-26T12:03:57.086Z</time></trkpt><trkpt lat="43.0640778" lon="11.1826321"><ele>455.8333333333333</ele><time>2026-04-26T12:03:59.085Z</time></trkpt><trkpt lat="43.064168" lon="11.182726"><ele>453.66666666666663</ele><time>2026-04-26T12:04:01.085Z</time></trkpt><trkpt lat="43.0642376" lon="11.1827447"><ele>451.5</ele><time>2026-04-26T12:04:02.077Z</time></trkpt><trkpt lat="43.0643137" lon="11.1827339"><ele>449.33333333333337</ele><time>2026-04-26T12:04:03.085Z</time></trkpt><trkpt lat="43.0643917" lon="11.1826831"><ele>447.1666666666667</ele><time>2026-04-26T12:04:04.088Z</time></trkpt><trkpt lat="43.0644741" lon="11.1826227"><ele>445.0</ele><time>2026-04-26T12:04:05.094Z</time></trkpt><trkpt lat="43.0645571" lon="11.1825581"><ele>445.0</ele><time>2026-04-26T12:04:06.08Z</time></trkpt><trkpt lat="43.0646492" lon="11.1825045"><ele>445.0</ele><time>2026-04-26T12:04:07.085Z</time></trkpt><trkpt lat="43.0647412" lon="11.1824785"><ele>445.0</ele><time>2026-04-26T12:04:08.083Z</time></trkpt><trkpt lat="43.0648248" lon="11.1824663"><ele>445.0</ele><time>2026-04-26T12:04:09.081Z</time></trkpt><trkpt lat="43.0649266" lon="11.1824606"><ele>445.0</ele><time>2026-04-26T12:04:10.088Z</time></trkpt><trkpt lat="43.0650346" lon="11.1824691"><ele>443.2</ele><time>2026-04-26T12:04:11.084Z</time></trkpt><trkpt lat="43.0651363" lon="11.1824868"><ele>441.4</ele><time>2026-04-26T12:04:12.085Z</time></trkpt><trkpt lat="43.0652373" lon="11.1825004"><ele>439.6</ele><time>2026-04-26T12:04:13.098Z</time></trkpt><trkpt lat="43.0653342" lon="11.1825113"><ele>437.8</ele><time>2026-04-26T12:04:14.084Z</time></trkpt><trkpt lat="43.0654324" lon="11.182511"><ele>436.0</ele><time>2026-04-26T12:04:15.079Z</time></trkpt><trkpt lat="43.0655332" lon="11.1825144"><ele>436.0</ele><time>2026-04-26T12:04:16.083Z</time></trkpt><trkpt lat="43.0656295" lon="11.1825268"><ele>436.0</ele><time>2026-04-26T12:04:17.083Z</time></trkpt><trkpt lat="43.0657184" lon="11.1825539"><ele>436.0</ele><time>2026-04-26T12:04:18.086Z</time></trkpt><trkpt lat="43.0658047" lon="11.1826111"><ele>436.0</ele><time>2026-04-26T12:04:19.088Z</time></trkpt><trkpt lat="43.0658825" lon="11.1826995"><ele>436.0</ele><time>2026-04-26T12:04:20.091Z</time></trkpt><trkpt lat="43.0659465" lon="11.1828061"><ele>436.4</ele><time>2026-04-26T12:04:21.083Z</time></trkpt><trkpt lat="43.0660103" lon="11.1829145"><ele>436.8</ele><time>2026-04-26T12:04:22.09Z</time></trkpt><trkpt lat="43.0660773" lon="11.1830198"><ele>437.19999999999993</ele><time>2026-04-26T12:04:23.084Z</time></trkpt><trkpt lat="43.0661562" lon="11.1831131"><ele>437.59999999999997</ele><time>2026-04-26T12:04:24.087Z</time></trkpt><trkpt lat="43.0662466" lon="11.1831963"><ele>438.0</ele><time>2026-04-26T12:04:25.085Z</time></trkpt><trkpt lat="43.0663268" lon="11.1832723"><ele>438.0</ele><time>2026-04-26T12:04:26.085Z</time></trkpt><trkpt lat="43.0663888" lon="11.1833537"><ele>438.0</ele><time>2026-04-26T12:04:27.087Z</time></trkpt><trkpt lat="43.0664301" lon="11.1834441"><ele>438.0</ele><time>2026-04-26T12:04:28.087Z</time></trkpt><trkpt lat="43.0664346" lon="11.1835526"><ele>438.0</ele><time>2026-04-26T12:04:29.088Z</time></trkpt><trkpt lat="43.0664018" lon="11.1836696"><ele>438.0</ele><time>2026-04-26T12:04:30.087Z</time></trkpt><trkpt lat="43.0663654" lon="11.1837852"><ele>438.0</ele><time>2026-04-26T12:04:31.093Z</time></trkpt><trkpt lat="43.0663412" lon="11.1839006"><ele>438.59999999999997</ele><time>2026-04-26T12:04:32.085Z</time></trkpt><trkpt lat="43.066356" lon="11.1840189"><ele>439.19999999999993</ele><time>2026-04-26T12:04:33.085Z</time></trkpt><trkpt lat="43.0663888" lon="11.1841505"><ele>439.8</ele><time>2026-04-26T12:04:34.084Z</time></trkpt><trkpt lat="43.0664248" lon="11.1842817"><ele>440.4</ele><time>2026-04-26T12:04:35.08Z</time></trkpt><trkpt lat="43.066457" lon="11.1844178"><ele>441.0</ele><time>2026-04-26T12:04:36.089Z</time></trkpt><trkpt lat="43.0664924" lon="11.1845493"><ele>441.0</ele><time>2026-04-26T12:04:37.091Z</time></trkpt><trkpt lat="43.0665154" lon="11.1846802"><ele>441.0</ele><time>2026-04-26T12:04:38.085Z</time></trkpt><trkpt lat="43.0665446" lon="11.184808"><ele>441.0</ele><time>2026-04-26T12:04:39.103Z</time></trkpt><trkpt lat="43.0665795" lon="11.1849333"><ele>441.0</ele><time>2026-04-26T12:04:40.085Z</time></trkpt><trkpt lat="43.0666131" lon="11.1850622"><ele>441.0</ele><time>2026-04-26T12:04:41.088Z</time></trkpt><trkpt lat="43.0666474" lon="11.1851926"><ele>435.8</ele><time>2026-04-26T12:04:42.082Z</time></trkpt><trkpt lat="43.0666607" lon="11.1853301"><ele>430.6</ele><time>2026-04-26T12:04:43.084Z</time></trkpt><trkpt lat="43.0666666" lon="11.1854641"><ele>425.4</ele><time>2026-04-26T12:04:44.084Z</time></trkpt><trkpt lat="43.0666628" lon="11.1855998"><ele>420.2</ele><time>2026-04-26T12:04:45.083Z</time></trkpt><trkpt lat="43.0666488" lon="11.1857324"><ele>415.0</ele><time>2026-04-26T12:04:46.083Z</time></trkpt><trkpt lat="43.0666267" lon="11.1858652"><ele>414.8</ele><time>2026-04-26T12:04:47.073Z</time></trkpt><trkpt lat="43.0666118" lon="11.1859893"><ele>414.6</ele><time>2026-04-26T12:04:48.084Z</time></trkpt><trkpt lat="43.066603" lon="11.1861176"><ele>414.4</ele><time>2026-04-26T12:04:49.078Z</time></trkpt><trkpt lat="43.0666006" lon="11.1862415"><ele>414.2</ele><time>2026-04-26T12:04:50.081Z</time></trkpt><trkpt lat="43.0666115" lon="11.1863606"><ele>414.0</ele><time>2026-04-26T12:04:51.083Z</time></trkpt><trkpt lat="43.0666427" lon="11.1864804"><ele>413.4</ele><time>2026-04-26T12:04:52.08Z</time></trkpt><trkpt lat="43.066701" lon="11.1865824"><ele>412.79999999999995</ele><time>2026-04-26T12:04:53.083Z</time></trkpt><trkpt lat="43.0667803" lon="11.1866719"><ele>412.20000000000005</ele><time>2026-04-26T12:04:54.078Z</time></trkpt><trkpt lat="43.0668598" lon="11.186761"><ele>411.6</ele><time>2026-04-26T12:04:55.082Z</time></trkpt><trkpt lat="43.0669345" lon="11.1868546"><ele>411.0</ele><time>2026-04-26T12:04:56.085Z</time></trkpt><trkpt lat="43.0669952" lon="11.1869504"><ele>411.0</ele><time>2026-04-26T12:04:57.078Z</time></trkpt><trkpt lat="43.0670385" lon="11.1870385"><ele>411.0</ele><time>2026-04-26T12:04:58.078Z</time></trkpt><trkpt lat="43.0670636" lon="11.1871372"><ele>411.0</ele><time>2026-04-26T12:04:59.072Z</time></trkpt><trkpt lat="43.0670707" lon="11.187249"><ele>411.0</ele><time>2026-04-26T12:05:00.087Z</time></trkpt><trkpt lat="43.0670602" lon="11.1873708"><ele>411.0</ele><time>2026-04-26T12:05:01.081Z</time></trkpt><trkpt lat="43.0670401" lon="11.1875034"><ele>411.0</ele><time>2026-04-26T12:05:02.079Z</time></trkpt><trkpt lat="43.0670143" lon="11.1876334"><ele>410.8</ele><time>2026-04-26T12:05:03.08Z</time></trkpt><trkpt lat="43.0669869" lon="11.1877604"><ele>410.6</ele><time>2026-04-26T12:05:04.082Z</time></trkpt><trkpt lat="43.0669646" lon="11.1878905"><ele>410.4</ele><time>2026-04-26T12:05:05.079Z</time></trkpt><trkpt lat="43.0669439" lon="11.1880153"><ele>410.2</ele><time>2026-04-26T12:05:06.086Z</time></trkpt><trkpt lat="43.0669173" lon="11.1881335"><ele>410.0</ele><time>2026-04-26T12:05:07.093Z</time></trkpt><trkpt lat="43.0668855" lon="11.1882441"><ele>410.0</ele><time>2026-04-26T12:05:08.081Z</time></trkpt><trkpt lat="43.0668421" lon="11.1883519"><ele>410.0</ele><time>2026-04-26T12:05:09.077Z</time></trkpt><trkpt lat="43.0667773" lon="11.1884596"><ele>410.0</ele><time>2026-04-26T12:05:10.085Z</time></trkpt><trkpt lat="43.0667017" lon="11.1885538"><ele>410.0</ele><time>2026-04-26T12:05:11.08Z</time></trkpt><trkpt lat="43.0666161" lon="11.1886477"><ele>410.0</ele><time>2026-04-26T12:05:12.086Z</time></trkpt><trkpt lat="43.0665141" lon="11.1887407"><ele>408.75</ele><time>2026-04-26T12:05:13.081Z</time></trkpt><trkpt lat="43.0664098" lon="11.1888348"><ele>407.5</ele><time>2026-04-26T12:05:14.094Z</time></trkpt><trkpt lat="43.0663073" lon="11.188928"><ele>406.25</ele><time>2026-04-26T12:05:15.087Z</time></trkpt><trkpt lat="43.0662103" lon="11.1890294"><ele>405.0</ele><time>2026-04-26T12:05:16.081Z</time></trkpt><trkpt lat="43.066124" lon="11.1891346"><ele>404.6</ele><time>2026-04-26T12:05:17.089Z</time></trkpt><trkpt lat="43.0660378" lon="11.1892417"><ele>404.2</ele><time>2026-04-26T12:05:18.079Z</time></trkpt><trkpt lat="43.0659596" lon="11.1893483"><ele>403.79999999999995</ele><time>2026-04-26T12:05:19.096Z</time></trkpt><trkpt lat="43.0658851" lon="11.1894564"><ele>403.4</ele><time>2026-04-26T12:05:20.085Z</time></trkpt><trkpt lat="43.0658163" lon="11.1895607"><ele>403.0</ele><time>2026-04-26T12:05:21.08Z</time></trkpt><trkpt lat="43.0657436" lon="11.1896752"><ele>403.0</ele><time>2026-04-26T12:05:22.083Z</time></trkpt><trkpt lat="43.0656577" lon="11.1897898"><ele>403.0</ele><time>2026-04-26T12:05:23.095Z</time></trkpt><trkpt lat="43.0655878" lon="11.1899091"><ele>403.0</ele><time>2026-04-26T12:05:24.083Z</time></trkpt><trkpt lat="43.0655117" lon="11.1900378"><ele>403.0</ele><time>2026-04-26T12:05:25.084Z</time></trkpt><trkpt lat="43.065438" lon="11.1901737"><ele>402.5</ele><time>2026-04-26T12:05:26.108Z</time></trkpt><trkpt lat="43.0653775" lon="11.190315"><ele>402.0</ele><time>2026-04-26T12:05:27.08Z</time></trkpt><trkpt lat="43.0653196" lon="11.1904515"><ele>401.5</ele><time>2026-04-26T12:05:28.08Z</time></trkpt><trkpt lat="43.065289" lon="11.1906011"><ele>401.0</ele><time>2026-04-26T12:05:29.086Z</time></trkpt><trkpt lat="43.0652624" lon="11.1907565"><ele>400.5</ele><time>2026-04-26T12:05:30.082Z</time></trkpt><trkpt lat="43.0652545" lon="11.1909256"><ele>400.0</ele><time>2026-04-26T12:05:31.086Z</time></trkpt><trkpt lat="43.0652469" lon="11.1910981"><ele>399.5</ele><time>2026-04-26T12:05:32.085Z</time></trkpt><trkpt lat="43.0652421" lon="11.191262"><ele>399.0</ele><time>2026-04-26T12:05:33.094Z</time></trkpt><trkpt lat="43.0652454" lon="11.1914309"><ele>398.75</ele><time>2026-04-26T12:05:34.087Z</time></trkpt><trkpt lat="43.0652541" lon="11.1915958"><ele>398.5</ele><time>2026-04-26T12:05:35.084Z</time></trkpt><trkpt lat="43.0652658" lon="11.1917646"><ele>398.25</ele><time>2026-04-26T12:05:36.084Z</time></trkpt><trkpt lat="43.065286" lon="11.1919394"><ele>398.0</ele><time>2026-04-26T12:05:37.079Z</time></trkpt><trkpt lat="43.0653064" lon="11.1921204"><ele>398.0</ele><time>2026-04-26T12:05:38.086Z</time></trkpt><trkpt lat="43.0653274" lon="11.1923005"><ele>398.0</ele><time>2026-04-26T12:05:39.085Z</time></trkpt><trkpt lat="43.065339" lon="11.1924784"><ele>398.0</ele><time>2026-04-26T12:05:40.08Z</time></trkpt><trkpt lat="43.0653438" lon="11.1926608"><ele>398.0</ele><time>2026-04-26T12:05:41.083Z</time></trkpt><trkpt lat="43.0653441" lon="11.1928308"><ele>397.79999999999995</ele><time>2026-04-26T12:05:42.081Z</time></trkpt><trkpt lat="43.0653497" lon="11.1929873"><ele>397.6</ele><time>2026-04-26T12:05:43.083Z</time></trkpt><trkpt lat="43.0653462" lon="11.193142"><ele>397.4</ele><time>2026-04-26T12:05:44.079Z</time></trkpt><trkpt lat="43.0653521" lon="11.1932922"><ele>397.20000000000005</ele><time>2026-04-26T12:05:45.086Z</time></trkpt><trkpt lat="43.065361" lon="11.1934451"><ele>397.0</ele><time>2026-04-26T12:05:46.098Z</time></trkpt><trkpt lat="43.0653708" lon="11.1935973"><ele>396.8</ele><time>2026-04-26T12:05:47.088Z</time></trkpt><trkpt lat="43.0653833" lon="11.193749"><ele>396.6</ele><time>2026-04-26T12:05:48.081Z</time></trkpt><trkpt lat="43.0653914" lon="11.1939025"><ele>396.40000000000003</ele><time>2026-04-26T12:05:49.083Z</time></trkpt><trkpt lat="43.0654026" lon="11.1940512"><ele>396.20000000000005</ele><time>2026-04-26T12:05:50.08Z</time></trkpt><trkpt lat="43.0654049" lon="11.1941954"><ele>396.0</ele><time>2026-04-26T12:05:51.084Z</time></trkpt><trkpt lat="43.0653966" lon="11.1943199"><ele>396.0</ele><time>2026-04-26T12:05:52.078Z</time></trkpt><trkpt lat="43.0653662" lon="11.1944186"><ele>396.0</ele><time>2026-04-26T12:05:53.1Z</time></trkpt><trkpt lat="43.0653223" lon="11.1945071"><ele>396.0</ele><time>2026-04-26T12:05:54.08Z</time></trkpt><trkpt lat="43.0652776" lon="11.1945874"><ele>396.0</ele><time>2026-04-26T12:05:55.096Z</time></trkpt><trkpt lat="43.0652217" lon="11.1946667"><ele>396.0</ele><time>2026-04-26T12:05:56.089Z</time></trkpt><trkpt lat="43.0651598" lon="11.1947572"><ele>396.0</ele><time>2026-04-26T12:05:57.08Z</time></trkpt><trkpt lat="43.0651041" lon="11.1948653"><ele>395.8</ele><time>2026-04-26T12:05:58.083Z</time></trkpt><trkpt lat="43.0650529" lon="11.1949868"><ele>395.6</ele><time>2026-04-26T12:05:59.088Z</time></trkpt><trkpt lat="43.0650146" lon="11.1951106"><ele>395.4</ele><time>2026-04-26T12:06:00.081Z</time></trkpt><trkpt lat="43.0649801" lon="11.1952363"><ele>395.2</ele><time>2026-04-26T12:06:01.087Z</time></trkpt><trkpt lat="43.0649673" lon="11.1953572"><ele>395.0</ele><time>2026-04-26T12:06:02.091Z</time></trkpt><trkpt lat="43.0649634" lon="11.1954796"><ele>395.0</ele><time>2026-04-26T12:06:03.089Z</time></trkpt><trkpt lat="43.0649804" lon="11.1956044"><ele>395.0</ele><time>2026-04-26T12:06:04.084Z</time></trkpt><trkpt lat="43.0650178" lon="11.1957179"><ele>395.0</ele><time>2026-04-26T12:06:05.083Z</time></trkpt><trkpt lat="43.0650732" lon="11.1958333"><ele>395.0</ele><time>2026-04-26T12:06:06.086Z</time></trkpt><trkpt lat="43.0651382" lon="11.1959362"><ele>395.0</ele><time>2026-04-26T12:06:07.081Z</time></trkpt><trkpt lat="43.0652158" lon="11.1960443"><ele>394.6</ele><time>2026-04-26T12:06:08.087Z</time></trkpt><trkpt lat="43.065306" lon="11.1961373"><ele>394.2</ele><time>2026-04-26T12:06:09.082Z</time></trkpt><trkpt lat="43.0653919" lon="11.1962179"><ele>393.79999999999995</ele><time>2026-04-26T12:06:10.085Z</time></trkpt><trkpt lat="43.0654894" lon="11.1962932"><ele>393.4</ele><time>2026-04-26T12:06:11.087Z</time></trkpt><trkpt lat="43.0655793" lon="11.1963714"><ele>393.0</ele><time>2026-04-26T12:06:12.091Z</time></trkpt><trkpt lat="43.0656665" lon="11.1964525"><ele>393.79999999999995</ele><time>2026-04-26T12:06:13.086Z</time></trkpt><trkpt lat="43.0657334" lon="11.1965446"><ele>394.6</ele><time>2026-04-26T12:06:14.094Z</time></trkpt><trkpt lat="43.0657816" lon="11.1966447"><ele>395.4</ele><time>2026-04-26T12:06:15.088Z</time></trkpt><trkpt lat="43.0658108" lon="11.1967722"><ele>396.20000000000005</ele><time>2026-04-26T12:06:16.079Z</time></trkpt><trkpt lat="43.0658213" lon="11.196923"><ele>397.0</ele><time>2026-04-26T12:06:17.082Z</time></trkpt><trkpt lat="43.0658221" lon="11.197087"><ele>397.0</ele><time>2026-04-26T12:06:18.088Z</time></trkpt><trkpt lat="43.0658243" lon="11.1972521"><ele>397.0</ele><time>2026-04-26T12:06:19.081Z</time></trkpt><trkpt lat="43.0658483" lon="11.197421"><ele>397.0</ele><time>2026-04-26T12:06:20.095Z</time></trkpt><trkpt lat="43.0658783" lon="11.197575"><ele>397.0</ele><time>2026-04-26T12:06:21.08Z</time></trkpt><trkpt lat="43.0659011" lon="11.1977237"><ele>396.0</ele><time>2026-04-26T12:06:22.086Z</time></trkpt><trkpt lat="43.0659" lon="11.1978826"><ele>395.0</ele><time>2026-04-26T12:06:23.081Z</time></trkpt><trkpt lat="43.065882" lon="11.1980402"><ele>394.0</ele><time>2026-04-26T12:06:24.078Z</time></trkpt><trkpt lat="43.065853" lon="11.1981863"><ele>393.0</ele><time>2026-04-26T12:06:25.092Z</time></trkpt><trkpt lat="43.0658148" lon="11.1983315"><ele>389.79999999999995</ele><time>2026-04-26T12:06:26.085Z</time></trkpt><trkpt lat="43.0657701" lon="11.1984733"><ele>386.6</ele><time>2026-04-26T12:06:27.083Z</time></trkpt><trkpt lat="43.0657313" lon="11.1986132"><ele>383.4</ele><time>2026-04-26T12:06:28.082Z</time></trkpt><trkpt lat="43.0656929" lon="11.1987527"><ele>380.20000000000005</ele><time>2026-04-26T12:06:29.076Z</time></trkpt><trkpt lat="43.0656616" lon="11.198891"><ele>377.0</ele><time>2026-04-26T12:06:30.086Z</time></trkpt><trkpt lat="43.0656194" lon="11.1990267"><ele>377.0</ele><time>2026-04-26T12:06:31.081Z</time></trkpt><trkpt lat="43.065564" lon="11.1991552"><ele>377.0</ele><time>2026-04-26T12:06:32.101Z</time></trkpt><trkpt lat="43.0655033" lon="11.1992806"><ele>377.0</ele><time>2026-04-26T12:06:33.078Z</time></trkpt><trkpt lat="43.065447" lon="11.1994069"><ele>377.0</ele><time>2026-04-26T12:06:34.084Z</time></trkpt><trkpt lat="43.0653832" lon="11.1995326"><ele>377.0</ele><time>2026-04-26T12:06:35.079Z</time></trkpt><trkpt lat="43.0653195" lon="11.1996683"><ele>377.0</ele><time>2026-04-26T12:06:36.083Z</time></trkpt><trkpt lat="43.0652521" lon="11.1997878"><ele>377.0</ele><time>2026-04-26T12:06:37.085Z</time></trkpt><trkpt lat="43.0651809" lon="11.1999041"><ele>377.0</ele><time>2026-04-26T12:06:38.075Z</time></trkpt><trkpt lat="43.0651109" lon="11.20002"><ele>377.0</ele><time>2026-04-26T12:06:39.097Z</time></trkpt><trkpt lat="43.0650417" lon="11.2001305"><ele>377.0</ele><time>2026-04-26T12:06:40.087Z</time></trkpt><trkpt lat="43.0649708" lon="11.2002462"><ele>375.8</ele><time>2026-04-26T12:06:41.08Z</time></trkpt><trkpt lat="43.0649023" lon="11.2003621"><ele>374.6</ele><time>2026-04-26T12:06:42.079Z</time></trkpt><trkpt lat="43.0648363" lon="11.2004843"><ele>373.40000000000003</ele><time>2026-04-26T12:06:43.082Z</time></trkpt><trkpt lat="43.0647778" lon="11.2006126"><ele>372.20000000000005</ele><time>2026-04-26T12:06:44.09Z</time></trkpt><trkpt lat="43.0647195" lon="11.2007435"><ele>371.0</ele><time>2026-04-26T12:06:45.082Z</time></trkpt><trkpt lat="43.0646682" lon="11.2008623"><ele>371.0</ele><time>2026-04-26T12:06:46.088Z</time></trkpt><trkpt lat="43.0646356" lon="11.2009815"><ele>371.0</ele><time>2026-04-26T12:06:47.082Z</time></trkpt><trkpt lat="43.0646116" lon="11.2011024"><ele>371.0</ele><time>2026-04-26T12:06:48.084Z</time></trkpt><trkpt lat="43.064584" lon="11.2012151"><ele>371.0</ele><time>2026-04-26T12:06:49.085Z</time></trkpt><trkpt lat="43.0645414" lon="11.20133"><ele>371.0</ele><time>2026-04-26T12:06:50.085Z</time></trkpt><trkpt lat="43.0644956" lon="11.2014193"><ele>371.0</ele><time>2026-04-26T12:06:51.085Z</time></trkpt><trkpt lat="43.0644422" lon="11.2015102"><ele>370.8</ele><time>2026-04-26T12:06:52.081Z</time></trkpt><trkpt lat="43.0643878" lon="11.2016081"><ele>370.6</ele><time>2026-04-26T12:06:53.099Z</time></trkpt><trkpt lat="43.0643312" lon="11.2017157"><ele>370.4</ele><time>2026-04-26T12:06:54.079Z</time></trkpt><trkpt lat="43.0642739" lon="11.2018318"><ele>370.2</ele><time>2026-04-26T12:06:55.088Z</time></trkpt><trkpt lat="43.0642241" lon="11.2019624"><ele>370.0</ele><time>2026-04-26T12:06:56.085Z</time></trkpt><trkpt lat="43.0641921" lon="11.2020945"><ele>370.0</ele><time>2026-04-26T12:06:57.086Z</time></trkpt><trkpt lat="43.0641586" lon="11.2022343"><ele>370.0</ele><time>2026-04-26T12:06:58.092Z</time></trkpt><trkpt lat="43.0641314" lon="11.2023714"><ele>370.0</ele><time>2026-04-26T12:06:59.084Z</time></trkpt><trkpt lat="43.0641086" lon="11.2025081"><ele>370.0</ele><time>2026-04-26T12:07:00.081Z</time></trkpt><trkpt lat="43.0640951" lon="11.202642"><ele>370.0</ele><time>2026-04-26T12:07:01.092Z</time></trkpt><trkpt lat="43.0640937" lon="11.2027727"><ele>368.0</ele><time>2026-04-26T12:07:02.084Z</time></trkpt><trkpt lat="43.0640874" lon="11.2028949"><ele>366.0</ele><time>2026-04-26T12:07:03.095Z</time></trkpt><trkpt lat="43.064083" lon="11.2030157"><ele>364.0</ele><time>2026-04-26T12:07:04.086Z</time></trkpt><trkpt lat="43.0640779" lon="11.2031376"><ele>362.0</ele><time>2026-04-26T12:07:05.089Z</time></trkpt><trkpt lat="43.0640783" lon="11.2032621"><ele>360.0</ele><time>2026-04-26T12:07:06.091Z</time></trkpt><trkpt lat="43.0640841" lon="11.2033844"><ele>358.0</ele><time>2026-04-26T12:07:07.085Z</time></trkpt><trkpt lat="43.0641027" lon="11.2035078"><ele>359.5</ele><time>2026-04-26T12:07:08.082Z</time></trkpt><trkpt lat="43.0641226" lon="11.203625"><ele>361.0</ele><time>2026-04-26T12:07:09.085Z</time></trkpt><trkpt lat="43.0641485" lon="11.2037448"><ele>362.5</ele><time>2026-04-26T12:07:10.091Z</time></trkpt><trkpt lat="43.0641764" lon="11.203857"><ele>364.0</ele><time>2026-04-26T12:07:11.086Z</time></trkpt><trkpt lat="43.0641985" lon="11.203968"><ele>365.5</ele><time>2026-04-26T12:07:12.099Z</time></trkpt><trkpt lat="43.0642258" lon="11.2040797"><ele>367.0</ele><time>2026-04-26T12:07:13.089Z</time></trkpt><trkpt lat="43.0642495" lon="11.2041871"><ele>367.0</ele><time>2026-04-26T12:07:14.084Z</time></trkpt><trkpt lat="43.0642765" lon="11.2042961"><ele>367.0</ele><time>2026-04-26T12:07:15.099Z</time></trkpt><trkpt lat="43.0643049" lon="11.2044004"><ele>367.0</ele><time>2026-04-26T12:07:16.092Z</time></trkpt><trkpt lat="43.064338" lon="11.2045038"><ele>367.0</ele><time>2026-04-26T12:07:17.097Z</time></trkpt><trkpt lat="43.064366" lon="11.2045989"><ele>367.0</ele><time>2026-04-26T12:07:18.088Z</time></trkpt><trkpt lat="43.0644025" lon="11.2047009"><ele>367.0</ele><time>2026-04-26T12:07:19.091Z</time></trkpt><trkpt lat="43.0644336" lon="11.204791"><ele>366.4285714285714</ele><time>2026-04-26T12:07:20.096Z</time></trkpt><trkpt lat="43.0644578" lon="11.2048751"><ele>365.8571428571429</ele><time>2026-04-26T12:07:21.092Z</time></trkpt><trkpt lat="43.0644852" lon="11.2049603"><ele>365.2857142857143</ele><time>2026-04-26T12:07:22.098Z</time></trkpt><trkpt lat="43.064514" lon="11.2050504"><ele>364.71428571428567</ele><time>2026-04-26T12:07:23.091Z</time></trkpt><trkpt lat="43.064546" lon="11.2051407"><ele>364.1428571428571</ele><time>2026-04-26T12:07:24.091Z</time></trkpt><trkpt lat="43.0645743" lon="11.2052364"><ele>363.57142857142856</ele><time>2026-04-26T12:07:25.089Z</time></trkpt><trkpt lat="43.0646043" lon="11.2053323"><ele>363.0</ele><time>2026-04-26T12:07:26.094Z</time></trkpt><trkpt lat="43.0646388" lon="11.2054361"><ele>363.0</ele><time>2026-04-26T12:07:27.097Z</time></trkpt><trkpt lat="43.0646738" lon="11.2055409"><ele>363.0</ele><time>2026-04-26T12:07:28.098Z</time></trkpt><trkpt lat="43.0647107" lon="11.2056436"><ele>363.0</ele><time>2026-04-26T12:07:29.088Z</time></trkpt><trkpt lat="43.0647496" lon="11.2057483"><ele>363.0</ele><time>2026-04-26T12:07:30.089Z</time></trkpt><trkpt lat="43.0647859" lon="11.205856"><ele>363.0</ele><time>2026-04-26T12:07:31.099Z</time></trkpt><trkpt lat="43.0648236" lon="11.20597"><ele>363.0</ele><time>2026-04-26T12:07:32.088Z</time></trkpt><trkpt lat="43.0648627" lon="11.2060834"><ele>362.6666666666667</ele><time>2026-04-26T12:07:33.107Z</time></trkpt><trkpt lat="43.0648996" lon="11.2061969"><ele>362.3333333333333</ele><time>2026-04-26T12:07:34.095Z</time></trkpt><trkpt lat="43.064934" lon="11.2063073"><ele>362.0</ele><time>2026-04-26T12:07:35.087Z</time></trkpt><trkpt lat="43.0649611" lon="11.2064166"><ele>361.66666666666663</ele><time>2026-04-26T12:07:36.091Z</time></trkpt><trkpt lat="43.0649914" lon="11.2065258"><ele>361.3333333333333</ele><time>2026-04-26T12:07:37.095Z</time></trkpt><trkpt lat="43.0650112" lon="11.2066402"><ele>361.0</ele><time>2026-04-26T12:07:38.093Z</time></trkpt><trkpt lat="43.0650192" lon="11.206753"><ele>361.0</ele><time>2026-04-26T12:07:39.092Z</time></trkpt><trkpt lat="43.0650159" lon="11.2068702"><ele>361.0</ele><time>2026-04-26T12:07:40.097Z</time></trkpt><trkpt lat="43.0649911" lon="11.2069733"><ele>361.0</ele><time>2026-04-26T12:07:41.087Z</time></trkpt><trkpt lat="43.0649551" lon="11.2070799"><ele>361.0</ele><time>2026-04-26T12:07:42.094Z</time></trkpt><trkpt lat="43.0649142" lon="11.2071769"><ele>361.0</ele><time>2026-04-26T12:07:43.091Z</time></trkpt><trkpt lat="43.0648735" lon="11.2072757"><ele>361.0</ele><time>2026-04-26T12:07:44.084Z</time></trkpt><trkpt lat="43.0648241" lon="11.2073677"><ele>359.66666666666663</ele><time>2026-04-26T12:07:45.09Z</time></trkpt><trkpt lat="43.0647688" lon="11.2074619"><ele>358.3333333333333</ele><time>2026-04-26T12:07:46.087Z</time></trkpt><trkpt lat="43.0647127" lon="11.207553"><ele>357.0</ele><time>2026-04-26T12:07:47.1Z</time></trkpt><trkpt lat="43.0646515" lon="11.2076287"><ele>355.6666666666667</ele><time>2026-04-26T12:07:48.09Z</time></trkpt><trkpt lat="43.0645913" lon="11.207711"><ele>354.33333333333337</ele><time>2026-04-26T12:07:49.09Z</time></trkpt><trkpt lat="43.0645321" lon="11.2077968"><ele>353.0</ele><time>2026-04-26T12:07:50.102Z</time></trkpt><trkpt lat="43.0644769" lon="11.2078753"><ele>353.0</ele><time>2026-04-26T12:07:51.096Z</time></trkpt><trkpt lat="43.064444" lon="11.2079663"><ele>353.0</ele><time>2026-04-26T12:07:52.093Z</time></trkpt><trkpt lat="43.0644339" lon="11.2080699"><ele>353.0</ele><time>2026-04-26T12:07:53.087Z</time></trkpt><trkpt lat="43.0644345" lon="11.2081683"><ele>353.0</ele><time>2026-04-26T12:07:54.092Z</time></trkpt><trkpt lat="43.0644524" lon="11.2082676"><ele>353.0</ele><time>2026-04-26T12:07:55.094Z</time></trkpt><trkpt lat="43.064477" lon="11.2083643"><ele>353.0</ele><time>2026-04-26T12:07:56.097Z</time></trkpt><trkpt lat="43.0645207" lon="11.2084622"><ele>351.59999999999997</ele><time>2026-04-26T12:07:57.088Z</time></trkpt><trkpt lat="43.0645901" lon="11.2085642"><ele>350.2</ele><time>2026-04-26T12:07:58.101Z</time></trkpt><trkpt lat="43.0646689" lon="11.2086717"><ele>348.8</ele><time>2026-04-26T12:07:59.09Z</time></trkpt><trkpt lat="43.0647515" lon="11.2087813"><ele>347.4</ele><time>2026-04-26T12:08:00.096Z</time></trkpt><trkpt lat="43.0648373" lon="11.2088884"><ele>346.0</ele><time>2026-04-26T12:08:01.094Z</time></trkpt><trkpt lat="43.0649177" lon="11.209003"><ele>346.5</ele><time>2026-04-26T12:08:02.092Z</time></trkpt><trkpt lat="43.0650043" lon="11.2091308"><ele>347.0</ele><time>2026-04-26T12:08:03.097Z</time></trkpt><trkpt lat="43.0650948" lon="11.2092643"><ele>347.5</ele><time>2026-04-26T12:08:04.099Z</time></trkpt><trkpt lat="43.0651913" lon="11.2093953"><ele>348.0</ele><time>2026-04-26T12:08:05.091Z</time></trkpt><trkpt lat="43.0652845" lon="11.2095255"><ele>348.0</ele><time>2026-04-26T12:08:06.088Z</time></trkpt><trkpt lat="43.0653793" lon="11.2096526"><ele>348.0</ele><time>2026-04-26T12:08:07.093Z</time></trkpt><trkpt lat="43.0654721" lon="11.2097724"><ele>348.0</ele><time>2026-04-26T12:08:08.094Z</time></trkpt><trkpt lat="43.0655702" lon="11.2098849"><ele>348.0</ele><time>2026-04-26T12:08:09.099Z</time></trkpt><trkpt lat="43.0656563" lon="11.209986"><ele>348.2</ele><time>2026-04-26T12:08:10.091Z</time></trkpt><trkpt lat="43.0657356" lon="11.2100869"><ele>348.4</ele><time>2026-04-26T12:08:11.095Z</time></trkpt><trkpt lat="43.0658112" lon="11.2101758"><ele>348.59999999999997</ele><time>2026-04-26T12:08:12.101Z</time></trkpt><trkpt lat="43.0658965" lon="11.210228"><ele>348.79999999999995</ele><time>2026-04-26T12:08:13.087Z</time></trkpt><trkpt lat="43.0659877" lon="11.2102473"><ele>349.0</ele><time>2026-04-26T12:08:14.087Z</time></trkpt><trkpt lat="43.066081" lon="11.2102596"><ele>349.6</ele><time>2026-04-26T12:08:15.094Z</time></trkpt><trkpt lat="43.066177" lon="11.2102599"><ele>350.2</ele><time>2026-04-26T12:08:16.091Z</time></trkpt><trkpt lat="43.066278" lon="11.2102616"><ele>350.8</ele><time>2026-04-26T12:08:17.112Z</time></trkpt><trkpt lat="43.0663757" lon="11.2102714"><ele>351.40000000000003</ele><time>2026-04-26T12:08:18.089Z</time></trkpt><trkpt lat="43.066478" lon="11.2102814"><ele>352.0</ele><time>2026-04-26T12:08:19.09Z</time></trkpt><trkpt lat="43.0665867" lon="11.2103"><ele>351.5</ele><time>2026-04-26T12:08:20.094Z</time></trkpt><trkpt lat="43.066698" lon="11.2103243"><ele>351.0</ele><time>2026-04-26T12:08:21.102Z</time></trkpt><trkpt lat="43.0668174" lon="11.2103645"><ele>350.5</ele><time>2026-04-26T12:08:22.092Z</time></trkpt><trkpt lat="43.0669293" lon="11.2104115"><ele>350.0</ele><time>2026-04-26T12:08:23.107Z</time></trkpt><trkpt lat="43.0670443" lon="11.2104656"><ele>350.0</ele><time>2026-04-26T12:08:24.093Z</time></trkpt><trkpt lat="43.0671529" lon="11.2105341"><ele>350.0</ele><time>2026-04-26T12:08:25.087Z</time></trkpt><trkpt lat="43.0672568" lon="11.2106027"><ele>350.0</ele><time>2026-04-26T12:08:26.089Z</time></trkpt><trkpt lat="43.0673609" lon="11.2106745"><ele>350.0</ele><time>2026-04-26T12:08:27.088Z</time></trkpt><trkpt lat="43.067463" lon="11.210746"><ele>349.75</ele><time>2026-04-26T12:08:28.096Z</time></trkpt><trkpt lat="43.0675684" lon="11.2108106"><ele>349.5</ele><time>2026-04-26T12:08:29.096Z</time></trkpt><trkpt lat="43.0676762" lon="11.2108829"><ele>349.25</ele><time>2026-04-26T12:08:30.096Z</time></trkpt><trkpt lat="43.0677807" lon="11.210954"><ele>349.0</ele><time>2026-04-26T12:08:31.094Z</time></trkpt><trkpt lat="43.0678772" lon="11.2110252"><ele>349.0</ele><time>2026-04-26T12:08:32.091Z</time></trkpt><trkpt lat="43.0679729" lon="11.2110967"><ele>349.0</ele><time>2026-04-26T12:08:33.098Z</time></trkpt><trkpt lat="43.0680641" lon="11.2111721"><ele>349.0</ele><time>2026-04-26T12:08:34.093Z</time></trkpt><trkpt lat="43.0681599" lon="11.2112608"><ele>349.0</ele><time>2026-04-26T12:08:35.088Z</time></trkpt><trkpt lat="43.0682513" lon="11.21135"><ele>349.0</ele><time>2026-04-26T12:08:36.09Z</time></trkpt><trkpt lat="43.068342" lon="11.2114434"><ele>349.2</ele><time>2026-04-26T12:08:37.089Z</time></trkpt><trkpt lat="43.0684366" lon="11.2115302"><ele>349.4</ele><time>2026-04-26T12:08:38.095Z</time></trkpt><trkpt lat="43.0685238" lon="11.2116002"><ele>349.6</ele><time>2026-04-26T12:08:39.093Z</time></trkpt><trkpt lat="43.0686127" lon="11.2116566"><ele>349.8</ele><time>2026-04-26T12:08:40.099Z</time></trkpt><trkpt lat="43.0687116" lon="11.2116898"><ele>350.0</ele><time>2026-04-26T12:08:41.091Z</time></trkpt><trkpt lat="43.0688121" lon="11.2117118"><ele>350.0</ele><time>2026-04-26T12:08:42.088Z</time></trkpt><trkpt lat="43.0689127" lon="11.2117343"><ele>350.0</ele><time>2026-04-26T12:08:43.091Z</time></trkpt><trkpt lat="43.0690074" lon="11.2117417"><ele>350.0</ele><time>2026-04-26T12:08:44.096Z</time></trkpt><trkpt lat="43.069106" lon="11.2117368"><ele>350.0</ele><time>2026-04-26T12:08:45.087Z</time></trkpt><trkpt lat="43.0692057" lon="11.2117211"><ele>350.0</ele><time>2026-04-26T12:08:46.095Z</time></trkpt><trkpt lat="43.0693032" lon="11.2116877"><ele>350.8</ele><time>2026-04-26T12:08:47.092Z</time></trkpt><trkpt lat="43.0694" lon="11.2116617"><ele>351.6</ele><time>2026-04-26T12:08:48.093Z</time></trkpt><trkpt lat="43.0694892" lon="11.211624"><ele>352.4</ele><time>2026-04-26T12:08:49.092Z</time></trkpt><trkpt lat="43.0695721" lon="11.2115698"><ele>353.2</ele><time>2026-04-26T12:08:50.092Z</time></trkpt><trkpt lat="43.0696619" lon="11.2115145"><ele>354.0</ele><time>2026-04-26T12:08:51.103Z</time></trkpt><trkpt lat="43.0697461" lon="11.2114495"><ele>354.0</ele><time>2026-04-26T12:08:52.091Z</time></trkpt><trkpt lat="43.0698303" lon="11.2113539"><ele>354.0</ele><time>2026-04-26T12:08:53.092Z</time></trkpt><trkpt lat="43.0699128" lon="11.2112415"><ele>354.0</ele><time>2026-04-26T12:08:54.089Z</time></trkpt><trkpt lat="43.0699901" lon="11.2111448"><ele>354.0</ele><time>2026-04-26T12:08:55.09Z</time></trkpt><trkpt lat="43.0700663" lon="11.2110855"><ele>354.0</ele><time>2026-04-26T12:08:56.102Z</time></trkpt><trkpt lat="43.0701437" lon="11.2110457"><ele>355.79999999999995</ele><time>2026-04-26T12:08:57.095Z</time></trkpt><trkpt lat="43.0702295" lon="11.2110372"><ele>357.59999999999997</ele><time>2026-04-26T12:08:58.091Z</time></trkpt><trkpt lat="43.0703133" lon="11.2110476"><ele>359.4</ele><time>2026-04-26T12:08:59.089Z</time></trkpt><trkpt lat="43.0703946" lon="11.2110807"><ele>361.2</ele><time>2026-04-26T12:09:00.1Z</time></trkpt><trkpt lat="43.0704854" lon="11.2111319"><ele>363.0</ele><time>2026-04-26T12:09:01.093Z</time></trkpt><trkpt lat="43.0705925" lon="11.2112105"><ele>363.0</ele><time>2026-04-26T12:09:02.091Z</time></trkpt><trkpt lat="43.0706995" lon="11.2112929"><ele>363.0</ele><time>2026-04-26T12:09:03.093Z</time></trkpt><trkpt lat="43.0708006" lon="11.2114018"><ele>363.0</ele><time>2026-04-26T12:09:04.093Z</time></trkpt><trkpt lat="43.0708816" lon="11.2115271"><ele>363.0</ele><time>2026-04-26T12:09:05.091Z</time></trkpt><trkpt lat="43.0709454" lon="11.2116734"><ele>365.25</ele><time>2026-04-26T12:09:06.09Z</time></trkpt><trkpt lat="43.0710018" lon="11.2118209"><ele>367.5</ele><time>2026-04-26T12:09:07.101Z</time></trkpt><trkpt lat="43.0710397" lon="11.2119918"><ele>369.75</ele><time>2026-04-26T12:09:08.093Z</time></trkpt><trkpt lat="43.0710771" lon="11.2121709"><ele>372.0</ele><time>2026-04-26T12:09:09.087Z</time></trkpt><trkpt lat="43.071128" lon="11.2123236"><ele>372.0</ele><time>2026-04-26T12:09:10.091Z</time></trkpt><trkpt lat="43.0711928" lon="11.2124578"><ele>372.0</ele><time>2026-04-26T12:09:11.098Z</time></trkpt><trkpt lat="43.0712715" lon="11.2125626"><ele>372.0</ele><time>2026-04-26T12:09:12.085Z</time></trkpt><trkpt lat="43.0713611" lon="11.2126616"><ele>372.0</ele><time>2026-04-26T12:09:13.091Z</time></trkpt><trkpt lat="43.0714579" lon="11.2127523"><ele>372.0</ele><time>2026-04-26T12:09:14.087Z</time></trkpt><trkpt lat="43.0715521" lon="11.2128362"><ele>372.0</ele><time>2026-04-26T12:09:15.098Z</time></trkpt><trkpt lat="43.0716519" lon="11.2129177"><ele>372.0</ele><time>2026-04-26T12:09:16.089Z</time></trkpt><trkpt lat="43.071753" lon="11.212988"><ele>372.0</ele><time>2026-04-26T12:09:17.091Z</time></trkpt><trkpt lat="43.0718583" lon="11.2130491"><ele>373.0</ele><time>2026-04-26T12:09:18.096Z</time></trkpt><trkpt lat="43.0719628" lon="11.2131094"><ele>374.0</ele><time>2026-04-26T12:09:19.091Z</time></trkpt><trkpt lat="43.0720646" lon="11.2131804"><ele>375.0</ele><time>2026-04-26T12:09:20.092Z</time></trkpt><trkpt lat="43.072156" lon="11.2132502"><ele>376.0</ele><time>2026-04-26T12:09:21.09Z</time></trkpt><trkpt lat="43.0722383" lon="11.2133375"><ele>377.0</ele><time>2026-04-26T12:09:22.091Z</time></trkpt><trkpt lat="43.0723181" lon="11.213431"><ele>377.0</ele><time>2026-04-26T12:09:23.101Z</time></trkpt><trkpt lat="43.0723965" lon="11.2135356"><ele>377.0</ele><time>2026-04-26T12:09:24.088Z</time></trkpt><trkpt lat="43.0724686" lon="11.2136411"><ele>377.0</ele><time>2026-04-26T12:09:25.09Z</time></trkpt><trkpt lat="43.0725442" lon="11.2137527"><ele>377.0</ele><time>2026-04-26T12:09:26.09Z</time></trkpt><trkpt lat="43.072624" lon="11.2138613"><ele>377.0</ele><time>2026-04-26T12:09:27.084Z</time></trkpt><trkpt lat="43.0726991" lon="11.2139785"><ele>378.8</ele><time>2026-04-26T12:09:28.092Z</time></trkpt><trkpt lat="43.0727697" lon="11.2140879"><ele>380.6</ele><time>2026-04-26T12:09:29.094Z</time></trkpt><trkpt lat="43.0728249" lon="11.2141869"><ele>382.40000000000003</ele><time>2026-04-26T12:09:30.101Z</time></trkpt><trkpt lat="43.0728511" lon="11.2142794"><ele>384.20000000000005</ele><time>2026-04-26T12:09:31.095Z</time></trkpt><trkpt lat="43.0728613" lon="11.2144022"><ele>386.0</ele><time>2026-04-26T12:09:32.086Z</time></trkpt><trkpt lat="43.0728545" lon="11.2145471"><ele>386.0</ele><time>2026-04-26T12:09:33.089Z</time></trkpt><trkpt lat="43.0728459" lon="11.2147029"><ele>386.0</ele><time>2026-04-26T12:09:34.09Z</time></trkpt><trkpt lat="43.0728254" lon="11.2148561"><ele>386.0</ele><time>2026-04-26T12:09:35.082Z</time></trkpt><trkpt lat="43.0728104" lon="11.2150119"><ele>386.0</ele><time>2026-04-26T12:09:36.091Z</time></trkpt><trkpt lat="43.0728051" lon="11.2151561"><ele>386.0</ele><time>2026-04-26T12:09:37.094Z</time></trkpt><trkpt lat="43.0728099" lon="11.2152972"><ele>386.20000000000005</ele><time>2026-04-26T12:09:38.079Z</time></trkpt><trkpt lat="43.0728226" lon="11.215439"><ele>386.40000000000003</ele><time>2026-04-26T12:09:39.086Z</time></trkpt><trkpt lat="43.0728513" lon="11.215576"><ele>386.6</ele><time>2026-04-26T12:09:40.091Z</time></trkpt><trkpt lat="43.0728889" lon="11.2157044"><ele>386.8</ele><time>2026-04-26T12:09:41.087Z</time></trkpt><trkpt lat="43.072939" lon="11.2158098"><ele>387.0</ele><time>2026-04-26T12:09:42.085Z</time></trkpt><trkpt lat="43.0729849" lon="11.2159076"><ele>387.1666666666667</ele><time>2026-04-26T12:09:43.092Z</time></trkpt><trkpt lat="43.073037" lon="11.2160013"><ele>387.33333333333337</ele><time>2026-04-26T12:09:44.085Z</time></trkpt><trkpt lat="43.0730976" lon="11.2160902"><ele>387.5</ele><time>2026-04-26T12:09:45.092Z</time></trkpt><trkpt lat="43.0731612" lon="11.2161739"><ele>387.6666666666667</ele><time>2026-04-26T12:09:46.089Z</time></trkpt><trkpt lat="43.0732259" lon="11.2162567"><ele>387.83333333333337</ele><time>2026-04-26T12:09:47.091Z</time></trkpt><trkpt lat="43.0732976" lon="11.2163453"><ele>388.0</ele><time>2026-04-26T12:09:48.091Z</time></trkpt><trkpt lat="43.0733642" lon="11.2164431"><ele>391.59999999999997</ele><time>2026-04-26T12:09:49.094Z</time></trkpt><trkpt lat="43.0734287" lon="11.2165501"><ele>395.2</ele><time>2026-04-26T12:09:50.092Z</time></trkpt><trkpt lat="43.0734858" lon="11.2166671"><ele>398.8</ele><time>2026-04-26T12:09:51.089Z</time></trkpt><trkpt lat="43.0735445" lon="11.2167844"><ele>402.4</ele><time>2026-04-26T12:09:52.09Z</time></trkpt><trkpt lat="43.0736006" lon="11.2169016"><ele>406.0</ele><time>2026-04-26T12:09:53.089Z</time></trkpt><trkpt lat="43.0736571" lon="11.2170159"><ele>406.0</ele><time>2026-04-26T12:09:54.098Z</time></trkpt><trkpt lat="43.0737207" lon="11.2171404"><ele>406.0</ele><time>2026-04-26T12:09:55.093Z</time></trkpt><trkpt lat="43.0737849" lon="11.2172588"><ele>406.0</ele><time>2026-04-26T12:09:56.093Z</time></trkpt><trkpt lat="43.0738494" lon="11.2173656"><ele>406.0</ele><time>2026-04-26T12:09:57.095Z</time></trkpt><trkpt lat="43.0739108" lon="11.2174674"><ele>406.0</ele><time>2026-04-26T12:09:58.089Z</time></trkpt><trkpt lat="43.0739761" lon="11.2175642"><ele>407.0</ele><time>2026-04-26T12:09:59.086Z</time></trkpt><trkpt lat="43.0740444" lon="11.2176532"><ele>408.0</ele><time>2026-04-26T12:10:00.098Z</time></trkpt><trkpt lat="43.0741204" lon="11.2177375"><ele>409.0</ele><time>2026-04-26T12:10:01.089Z</time></trkpt><trkpt lat="43.0742029" lon="11.2178189"><ele>410.0</ele><time>2026-04-26T12:10:02.087Z</time></trkpt><trkpt lat="43.0742935" lon="11.2178913"><ele>411.0</ele><time>2026-04-26T12:10:03.102Z</time></trkpt><trkpt lat="43.0743744" lon="11.2179646"><ele>412.0</ele><time>2026-04-26T12:10:04.092Z</time></trkpt><trkpt lat="43.0744401" lon="11.2180438"><ele>413.0</ele><time>2026-04-26T12:10:05.098Z</time></trkpt><trkpt lat="43.0744927" lon="11.2181192"><ele>414.0</ele><time>2026-04-26T12:10:06.089Z</time></trkpt><trkpt lat="43.0745634" lon="11.2182042"><ele>415.0</ele><time>2026-04-26T12:10:08.085Z</time></trkpt><trkpt lat="43.0746322" lon="11.2182089"><ele>416.0</ele><time>2026-04-26T12:10:10.099Z</time></trkpt><trkpt lat="43.0747201" lon="11.2182048"><ele>417.0</ele><time>2026-04-26T12:10:12.086Z</time></trkpt><trkpt lat="43.0748291" lon="11.2181686"><ele>417.0</ele><time>2026-04-26T12:10:14.094Z</time></trkpt><trkpt lat="43.0749213" lon="11.2181267"><ele>417.0</ele><time>2026-04-26T12:10:16.091Z</time></trkpt><trkpt lat="43.0748518" lon="11.2181369"><ele>417.0</ele><time>2026-04-26T12:10:24.086Z</time></trkpt><trkpt lat="43.074778" lon="11.2181708"><ele>417.0</ele><time>2026-04-26T12:10:40.105Z</time></trkpt><trkpt lat="43.0746743" lon="11.2181919"><ele>417.0</ele><time>2026-04-26T12:10:42.084Z</time></trkpt><trkpt lat="43.0745786" lon="11.2181955"><ele>417.0</ele><time>2026-04-26T12:10:44.089Z</time></trkpt><trkpt lat="43.0744823" lon="11.2182224"><ele>417.0</ele><time>2026-04-26T12:10:46.081Z</time></trkpt><trkpt lat="43.0743883" lon="11.2182537"><ele>417.0</ele><time>2026-04-26T12:10:48.09Z</time></trkpt><trkpt lat="43.074292" lon="11.2183006"><ele>417.0</ele><time>2026-04-26T12:10:50.092Z</time></trkpt><trkpt lat="43.0742171" lon="11.2183877"><ele>417.0</ele><time>2026-04-26T12:10:52.092Z</time></trkpt><trkpt lat="43.0741854" lon="11.2185077"><ele>417.0</ele><time>2026-04-26T12:10:54.09Z</time></trkpt><trkpt lat="43.0741949" lon="11.2186485"><ele>417.0</ele><time>2026-04-26T12:10:56.088Z</time></trkpt><trkpt lat="43.0742088" lon="11.2187329"><ele>417.0</ele><time>2026-04-26T12:10:57.092Z</time></trkpt><trkpt lat="43.0742376" lon="11.218815"><ele>417.0</ele><time>2026-04-26T12:10:58.091Z</time></trkpt><trkpt lat="43.0742874" lon="11.2188881"><ele>417.0</ele><time>2026-04-26T12:10:59.089Z</time></trkpt><trkpt lat="43.0743425" lon="11.2189557"><ele>417.0</ele><time>2026-04-26T12:11:00.09Z</time></trkpt><trkpt lat="43.074419" lon="11.2190242"><ele>417.0</ele><time>2026-04-26T12:11:01.096Z</time></trkpt><trkpt lat="43.0745006" lon="11.2190864"><ele>416.0</ele><time>2026-04-26T12:11:02.082Z</time></trkpt><trkpt lat="43.0745794" lon="11.2191416"><ele>415.0</ele><time>2026-04-26T12:11:03.089Z</time></trkpt><trkpt lat="43.0746513" lon="11.21919"><ele>414.0</ele><time>2026-04-26T12:11:04.093Z</time></trkpt><trkpt lat="43.0747221" lon="11.2192347"><ele>413.0</ele><time>2026-04-26T12:11:05.092Z</time></trkpt><trkpt lat="43.0747905" lon="11.2192812"><ele>412.0</ele><time>2026-04-26T12:11:06.093Z</time></trkpt><trkpt lat="43.0748593" lon="11.219333"><ele>411.0</ele><time>2026-04-26T12:11:07.086Z</time></trkpt><trkpt lat="43.0749262" lon="11.2193947"><ele>410.7142857142857</ele><time>2026-04-26T12:11:08.096Z</time></trkpt><trkpt lat="43.0749881" lon="11.2194545"><ele>410.42857142857144</ele><time>2026-04-26T12:11:09.086Z</time></trkpt><trkpt lat="43.0750461" lon="11.2195241"><ele>410.1428571428571</ele><time>2026-04-26T12:11:10.086Z</time></trkpt><trkpt lat="43.075098" lon="11.2196008"><ele>409.8571428571429</ele><time>2026-04-26T12:11:11.088Z</time></trkpt><trkpt lat="43.0751372" lon="11.2196751"><ele>409.5714285714286</ele><time>2026-04-26T12:11:12.095Z</time></trkpt><trkpt lat="43.0751744" lon="11.2197488"><ele>409.2857142857143</ele><time>2026-04-26T12:11:13.094Z</time></trkpt><trkpt lat="43.0752015" lon="11.2198338"><ele>409.0</ele><time>2026-04-26T12:11:14.093Z</time></trkpt><trkpt lat="43.075223" lon="11.219921"><ele>408.1666666666667</ele><time>2026-04-26T12:11:15.092Z</time></trkpt><trkpt lat="43.0752419" lon="11.2200129"><ele>407.33333333333337</ele><time>2026-04-26T12:11:16.09Z</time></trkpt><trkpt lat="43.075271" lon="11.2201075"><ele>406.5</ele><time>2026-04-26T12:11:17.091Z</time></trkpt><trkpt lat="43.0752966" lon="11.2202056"><ele>405.66666666666663</ele><time>2026-04-26T12:11:18.087Z</time></trkpt><trkpt lat="43.075321" lon="11.2203028"><ele>404.8333333333333</ele><time>2026-04-26T12:11:19.096Z</time></trkpt><trkpt lat="43.0753474" lon="11.2204094"><ele>404.0</ele><time>2026-04-26T12:11:20.092Z</time></trkpt><trkpt lat="43.0753829" lon="11.220538"><ele>404.0</ele><time>2026-04-26T12:11:21.093Z</time></trkpt><trkpt lat="43.0754149" lon="11.2206795"><ele>404.0</ele><time>2026-04-26T12:11:22.092Z</time></trkpt><trkpt lat="43.0754448" lon="11.2208268"><ele>404.0</ele><time>2026-04-26T12:11:23.088Z</time></trkpt><trkpt lat="43.0754779" lon="11.220962"><ele>404.0</ele><time>2026-04-26T12:11:24.094Z</time></trkpt><trkpt lat="43.0755123" lon="11.2210943"><ele>404.0</ele><time>2026-04-26T12:11:25.088Z</time></trkpt><trkpt lat="43.0755436" lon="11.2212216"><ele>403.99999999999994</ele><time>2026-04-26T12:11:26.088Z</time></trkpt><trkpt lat="43.0755719" lon="11.2213424"><ele>404.0</ele><time>2026-04-26T12:11:27.092Z</time></trkpt><trkpt lat="43.0755953" lon="11.2214532"><ele>404.0</ele><time>2026-04-26T12:11:28.088Z</time></trkpt><trkpt lat="43.0756155" lon="11.2215652"><ele>404.0</ele><time>2026-04-26T12:11:29.096Z</time></trkpt><trkpt lat="43.0756343" lon="11.2216769"><ele>403.99999999999994</ele><time>2026-04-26T12:11:30.088Z</time></trkpt><trkpt lat="43.0756548" lon="11.2217896"><ele>404.0</ele><time>2026-04-26T12:11:31.091Z</time></trkpt><trkpt lat="43.0756716" lon="11.2218979"><ele>404.3333333333333</ele><time>2026-04-26T12:11:32.093Z</time></trkpt><trkpt lat="43.0756888" lon="11.2220026"><ele>404.66666666666663</ele><time>2026-04-26T12:11:33.091Z</time></trkpt><trkpt lat="43.0757117" lon="11.222108"><ele>405.0</ele><time>2026-04-26T12:11:34.093Z</time></trkpt><trkpt lat="43.0757357" lon="11.2222144"><ele>405.33333333333337</ele><time>2026-04-26T12:11:35.094Z</time></trkpt><trkpt lat="43.0757722" lon="11.2223183"><ele>405.6666666666667</ele><time>2026-04-26T12:11:36.093Z</time></trkpt><trkpt lat="43.0758198" lon="11.2224231"><ele>406.0</ele><time>2026-04-26T12:11:37.097Z</time></trkpt><trkpt lat="43.0758828" lon="11.2225286"><ele>407.0</ele><time>2026-04-26T12:11:38.098Z</time></trkpt><trkpt lat="43.0759544" lon="11.2226471"><ele>408.0</ele><time>2026-04-26T12:11:39.106Z</time></trkpt><trkpt lat="43.0760252" lon="11.2227706"><ele>409.0</ele><time>2026-04-26T12:11:40.084Z</time></trkpt><trkpt lat="43.076101" lon="11.2228988"><ele>410.0</ele><time>2026-04-26T12:11:41.086Z</time></trkpt><trkpt lat="43.0761749" lon="11.2230288"><ele>409.5</ele><time>2026-04-26T12:11:42.085Z</time></trkpt><trkpt lat="43.0762527" lon="11.2231608"><ele>409.0</ele><time>2026-04-26T12:11:43.097Z</time></trkpt><trkpt lat="43.0763305" lon="11.2232849"><ele>408.5</ele><time>2026-04-26T12:11:44.085Z</time></trkpt><trkpt lat="43.0764074" lon="11.2234099"><ele>408.0</ele><time>2026-04-26T12:11:45.101Z</time></trkpt><trkpt lat="43.0764808" lon="11.2235297"><ele>408.0</ele><time>2026-04-26T12:11:46.09Z</time></trkpt><trkpt lat="43.0765468" lon="11.2236382"><ele>408.0</ele><time>2026-04-26T12:11:47.09Z</time></trkpt><trkpt lat="43.0766013" lon="11.2237402"><ele>408.0</ele><time>2026-04-26T12:11:48.085Z</time></trkpt><trkpt lat="43.0766394" lon="11.2238349"><ele>408.0</ele><time>2026-04-26T12:11:49.084Z</time></trkpt><trkpt lat="43.0766442" lon="11.2239267"><ele>408.0</ele><time>2026-04-26T12:11:50.107Z</time></trkpt><trkpt lat="43.0766123" lon="11.2240933"><ele>407.79999999999995</ele><time>2026-04-26T12:11:52.087Z</time></trkpt><trkpt lat="43.0765872" lon="11.2241776"><ele>407.6</ele><time>2026-04-26T12:11:53.097Z</time></trkpt><trkpt lat="43.0765566" lon="11.2242768"><ele>407.4</ele><time>2026-04-26T12:11:54.093Z</time></trkpt><trkpt lat="43.0765178" lon="11.2243984"><ele>407.20000000000005</ele><time>2026-04-26T12:11:55.098Z</time></trkpt><trkpt lat="43.0764784" lon="11.2245301"><ele>407.0</ele><time>2026-04-26T12:11:56.091Z</time></trkpt><trkpt lat="43.0764365" lon="11.2246654"><ele>407.0</ele><time>2026-04-26T12:11:57.09Z</time></trkpt><trkpt lat="43.0763929" lon="11.2248043"><ele>407.0</ele><time>2026-04-26T12:11:58.085Z</time></trkpt><trkpt lat="43.0763499" lon="11.2249429"><ele>407.0</ele><time>2026-04-26T12:11:59.088Z</time></trkpt><trkpt lat="43.0763042" lon="11.2250783"><ele>407.0</ele><time>2026-04-26T12:12:00.084Z</time></trkpt><trkpt lat="43.0762573" lon="11.2252183"><ele>407.0</ele><time>2026-04-26T12:12:01.091Z</time></trkpt><trkpt lat="43.0762091" lon="11.2253581"><ele>408.75</ele><time>2026-04-26T12:12:02.101Z</time></trkpt><trkpt lat="43.0761586" lon="11.2255034"><ele>410.5</ele><time>2026-04-26T12:12:03.098Z</time></trkpt><trkpt lat="43.0761056" lon="11.225653"><ele>412.25</ele><time>2026-04-26T12:12:04.084Z</time></trkpt><trkpt lat="43.0760578" lon="11.225807"><ele>414.0</ele><time>2026-04-26T12:12:05.083Z</time></trkpt><trkpt lat="43.0760078" lon="11.2259579"><ele>416.0</ele><time>2026-04-26T12:12:06.086Z</time></trkpt><trkpt lat="43.0759597" lon="11.2261015"><ele>418.0</ele><time>2026-04-26T12:12:07.092Z</time></trkpt><trkpt lat="43.0759174" lon="11.2262407"><ele>420.0</ele><time>2026-04-26T12:12:08.096Z</time></trkpt><trkpt lat="43.0758679" lon="11.2263692"><ele>422.0</ele><time>2026-04-26T12:12:09.092Z</time></trkpt><trkpt lat="43.0758059" lon="11.2264709"><ele>424.0</ele><time>2026-04-26T12:12:10.088Z</time></trkpt><trkpt lat="43.07573" lon="11.2265372"><ele>425.4</ele><time>2026-04-26T12:12:11.092Z</time></trkpt><trkpt lat="43.0756434" lon="11.2265723"><ele>426.79999999999995</ele><time>2026-04-26T12:12:12.081Z</time></trkpt><trkpt lat="43.0755492" lon="11.2265886"><ele>428.20000000000005</ele><time>2026-04-26T12:12:13.092Z</time></trkpt><trkpt lat="43.0754531" lon="11.2265859"><ele>429.6</ele><time>2026-04-26T12:12:14.089Z</time></trkpt><trkpt lat="43.0753537" lon="11.2265945"><ele>431.0</ele><time>2026-04-26T12:12:15.087Z</time></trkpt><trkpt lat="43.0752573" lon="11.2266157"><ele>431.0</ele><time>2026-04-26T12:12:16.092Z</time></trkpt><trkpt lat="43.0751647" lon="11.2266573"><ele>431.0</ele><time>2026-04-26T12:12:17.087Z</time></trkpt><trkpt lat="43.0750783" lon="11.226714"><ele>431.0</ele><time>2026-04-26T12:12:18.093Z</time></trkpt><trkpt lat="43.0749961" lon="11.2267815"><ele>431.0</ele><time>2026-04-26T12:12:19.084Z</time></trkpt><trkpt lat="43.0749173" lon="11.2268654"><ele>431.0</ele><time>2026-04-26T12:12:20.087Z</time></trkpt><trkpt lat="43.0748409" lon="11.2269607"><ele>430.0</ele><time>2026-04-26T12:12:21.09Z</time></trkpt><trkpt lat="43.0747764" lon="11.2270664"><ele>429.0</ele><time>2026-04-26T12:12:22.09Z</time></trkpt><trkpt lat="43.0747194" lon="11.2271829"><ele>428.0</ele><time>2026-04-26T12:12:23.098Z</time></trkpt><trkpt lat="43.0746725" lon="11.2273082"><ele>427.0</ele><time>2026-04-26T12:12:24.093Z</time></trkpt><trkpt lat="43.0746269" lon="11.2274399"><ele>426.0</ele><time>2026-04-26T12:12:25.09Z</time></trkpt><trkpt lat="43.0745903" lon="11.2275682"><ele>426.0</ele><time>2026-04-26T12:12:26.098Z</time></trkpt><trkpt lat="43.0745749" lon="11.2276859"><ele>426.0</ele><time>2026-04-26T12:12:27.089Z</time></trkpt><trkpt lat="43.0745699" lon="11.2277989"><ele>426.0</ele><time>2026-04-26T12:12:28.088Z</time></trkpt><trkpt lat="43.07459" lon="11.2279108"><ele>426.0</ele><time>2026-04-26T12:12:29.088Z</time></trkpt><trkpt lat="43.0746286" lon="11.2280349"><ele>426.0</ele><time>2026-04-26T12:12:30.084Z</time></trkpt><trkpt lat="43.0746799" lon="11.2281608"><ele>428.0</ele><time>2026-04-26T12:12:31.085Z</time></trkpt><trkpt lat="43.0747287" lon="11.2282834"><ele>430.0</ele><time>2026-04-26T12:12:32.094Z</time></trkpt><trkpt lat="43.0747605" lon="11.2284063"><ele>432.0</ele><time>2026-04-26T12:12:33.085Z</time></trkpt><trkpt lat="43.0747878" lon="11.2285313"><ele>434.0</ele><time>2026-04-26T12:12:34.091Z</time></trkpt><trkpt lat="43.0747871" lon="11.2286596"><ele>436.0</ele><time>2026-04-26T12:12:35.087Z</time></trkpt><trkpt lat="43.0747673" lon="11.2287755"><ele>436.0</ele><time>2026-04-26T12:12:36.083Z</time></trkpt><trkpt lat="43.0747297" lon="11.2288923"><ele>436.0</ele><time>2026-04-26T12:12:37.081Z</time></trkpt><trkpt lat="43.0746792" lon="11.2290017"><ele>436.0</ele><time>2026-04-26T12:12:38.093Z</time></trkpt><trkpt lat="43.0746123" lon="11.2291074"><ele>436.0</ele><time>2026-04-26T12:12:39.089Z</time></trkpt><trkpt lat="43.0745348" lon="11.2291984"><ele>436.0</ele><time>2026-04-26T12:12:40.089Z</time></trkpt><trkpt lat="43.0744469" lon="11.2292685"><ele>438.20000000000005</ele><time>2026-04-26T12:12:41.096Z</time></trkpt><trkpt lat="43.07435" lon="11.2293053"><ele>440.40000000000003</ele><time>2026-04-26T12:12:42.089Z</time></trkpt><trkpt lat="43.0742582" lon="11.2293302"><ele>442.6</ele><time>2026-04-26T12:12:43.08Z</time></trkpt><trkpt lat="43.0741623" lon="11.2293369"><ele>444.8</ele><time>2026-04-26T12:12:44.082Z</time></trkpt><trkpt lat="43.0740673" lon="11.2293351"><ele>447.0</ele><time>2026-04-26T12:12:45.088Z</time></trkpt><trkpt lat="43.0739617" lon="11.2293061"><ele>447.0</ele><time>2026-04-26T12:12:46.093Z</time></trkpt><trkpt lat="43.0738518" lon="11.2292573"><ele>447.00000000000006</ele><time>2026-04-26T12:12:47.087Z</time></trkpt><trkpt lat="43.0737501" lon="11.2292348"><ele>447.00000000000006</ele><time>2026-04-26T12:12:48.089Z</time></trkpt><trkpt lat="43.0736644" lon="11.2292547"><ele>447.0</ele><time>2026-04-26T12:12:49.085Z</time></trkpt><trkpt lat="43.0735892" lon="11.2293023"><ele>447.0</ele><time>2026-04-26T12:12:50.089Z</time></trkpt><trkpt lat="43.0735198" lon="11.2293798"><ele>447.0</ele><time>2026-04-26T12:12:51.086Z</time></trkpt><trkpt lat="43.0734475" lon="11.229474"><ele>447.00000000000006</ele><time>2026-04-26T12:12:52.087Z</time></trkpt><trkpt lat="43.0733769" lon="11.229577"><ele>447.00000000000006</ele><time>2026-04-26T12:12:53.089Z</time></trkpt><trkpt lat="43.0733048" lon="11.229668"><ele>447.0</ele><time>2026-04-26T12:12:54.092Z</time></trkpt><trkpt lat="43.073222" lon="11.2297465"><ele>447.0</ele><time>2026-04-26T12:12:55.092Z</time></trkpt><trkpt lat="43.0731422" lon="11.2298233"><ele>448.40000000000003</ele><time>2026-04-26T12:12:56.093Z</time></trkpt><trkpt lat="43.0730622" lon="11.2298845"><ele>449.80000000000007</ele><time>2026-04-26T12:12:57.087Z</time></trkpt><trkpt lat="43.0729678" lon="11.2299448"><ele>451.2</ele><time>2026-04-26T12:12:58.09Z</time></trkpt><trkpt lat="43.0728841" lon="11.2300111"><ele>452.6</ele><time>2026-04-26T12:12:59.088Z</time></trkpt><trkpt lat="43.0727969" lon="11.2300791"><ele>454.0</ele><time>2026-04-26T12:13:00.087Z</time></trkpt><trkpt lat="43.0727262" lon="11.2301688"><ele>454.0</ele><time>2026-04-26T12:13:01.085Z</time></trkpt><trkpt lat="43.0726704" lon="11.230277"><ele>454.0</ele><time>2026-04-26T12:13:02.085Z</time></trkpt><trkpt lat="43.0726218" lon="11.2303849"><ele>454.0</ele><time>2026-04-26T12:13:03.091Z</time></trkpt><trkpt lat="43.0725847" lon="11.2305063"><ele>454.0</ele><time>2026-04-26T12:13:04.088Z</time></trkpt><trkpt lat="43.0725548" lon="11.2306401"><ele>454.0</ele><time>2026-04-26T12:13:05.095Z</time></trkpt><trkpt lat="43.0725364" lon="11.2307822"><ele>451.75</ele><time>2026-04-26T12:13:06.093Z</time></trkpt><trkpt lat="43.0725083" lon="11.2309312"><ele>449.5</ele><time>2026-04-26T12:13:07.089Z</time></trkpt><trkpt lat="43.0724747" lon="11.2310818"><ele>447.25</ele><time>2026-04-26T12:13:08.092Z</time></trkpt><trkpt lat="43.0724358" lon="11.2312296"><ele>445.0</ele><time>2026-04-26T12:13:09.084Z</time></trkpt><trkpt lat="43.0724072" lon="11.2313743"><ele>445.4</ele><time>2026-04-26T12:13:10.089Z</time></trkpt><trkpt lat="43.0723778" lon="11.2315067"><ele>445.8</ele><time>2026-04-26T12:13:11.097Z</time></trkpt><trkpt lat="43.0723486" lon="11.2316344"><ele>446.20000000000005</ele><time>2026-04-26T12:13:12.087Z</time></trkpt><trkpt lat="43.0723228" lon="11.2317688"><ele>446.6</ele><time>2026-04-26T12:13:13.095Z</time></trkpt><trkpt lat="43.0723049" lon="11.2319087"><ele>447.0</ele><time>2026-04-26T12:13:14.094Z</time></trkpt><trkpt lat="43.0722979" lon="11.2320564"><ele>447.0</ele><time>2026-04-26T12:13:15.093Z</time></trkpt><trkpt lat="43.0722999" lon="11.2322015"><ele>447.00000000000006</ele><time>2026-04-26T12:13:16.088Z</time></trkpt><trkpt lat="43.0722971" lon="11.2323517"><ele>447.00000000000006</ele><time>2026-04-26T12:13:17.086Z</time></trkpt><trkpt lat="43.0722952" lon="11.2324964"><ele>447.0</ele><time>2026-04-26T12:13:18.094Z</time></trkpt><trkpt lat="43.0723066" lon="11.2326389"><ele>447.0</ele><time>2026-04-26T12:13:19.091Z</time></trkpt><trkpt lat="43.0723412" lon="11.23274"><ele>447.0</ele><time>2026-04-26T12:13:20.089Z</time></trkpt><trkpt lat="43.0723747" lon="11.2328192"><ele>447.0</ele><time>2026-04-26T12:13:21.094Z</time></trkpt><trkpt lat="43.0724115" lon="11.2328976"><ele>447.0</ele><time>2026-04-26T12:13:22.088Z</time></trkpt><trkpt lat="43.0724768" lon="11.2330164"><ele>447.0</ele><time>2026-04-26T12:13:24.086Z</time></trkpt><trkpt lat="43.0725314" lon="11.2331291"><ele>447.0</ele><time>2026-04-26T12:13:26.088Z</time></trkpt><trkpt lat="43.0725721" lon="11.2332245"><ele>447.0</ele><time>2026-04-26T12:13:28.085Z</time></trkpt><trkpt lat="43.0726129" lon="11.233325"><ele>451.3333333333333</ele><time>2026-04-26T12:13:53.092Z</time></trkpt><trkpt lat="43.0726594" lon="11.2334568"><ele>455.66666666666663</ele><time>2026-04-26T12:13:55.092Z</time></trkpt><trkpt lat="43.0726764" lon="11.2335462"><ele>460.0</ele><time>2026-04-26T12:13:56.085Z</time></trkpt><trkpt lat="43.0726847" lon="11.2336446"><ele>464.3333333333333</ele><time>2026-04-26T12:13:57.084Z</time></trkpt><trkpt lat="43.0726833" lon="11.2337428"><ele>468.66666666666663</ele><time>2026-04-26T12:13:58.088Z</time></trkpt><trkpt lat="43.0726733" lon="11.2338445"><ele>473.0</ele><time>2026-04-26T12:13:59.084Z</time></trkpt><trkpt lat="43.0726427" lon="11.2339404"><ele>473.49999999999994</ele><time>2026-04-26T12:14:00.089Z</time></trkpt><trkpt lat="43.0725979" lon="11.2340264"><ele>474.0</ele><time>2026-04-26T12:14:01.088Z</time></trkpt><trkpt lat="43.0725432" lon="11.2341011"><ele>474.5</ele><time>2026-04-26T12:14:02.092Z</time></trkpt><trkpt lat="43.0724888" lon="11.2341796"><ele>475.0</ele><time>2026-04-26T12:14:03.093Z</time></trkpt><trkpt lat="43.0724349" lon="11.234254"><ele>475.49999999999994</ele><time>2026-04-26T12:14:04.081Z</time></trkpt><trkpt lat="43.0723691" lon="11.2343353"><ele>476.0</ele><time>2026-04-26T12:14:05.092Z</time></trkpt><trkpt lat="43.0722964" lon="11.23443"><ele>476.0</ele><time>2026-04-26T12:14:06.081Z</time></trkpt><trkpt lat="43.0722217" lon="11.2345274"><ele>476.0</ele><time>2026-04-26T12:14:07.093Z</time></trkpt><trkpt lat="43.0721429" lon="11.2346308"><ele>476.0</ele><time>2026-04-26T12:14:08.083Z</time></trkpt><trkpt lat="43.0720636" lon="11.2347442"><ele>476.0</ele><time>2026-04-26T12:14:09.086Z</time></trkpt><trkpt lat="43.0719786" lon="11.234855"><ele>476.0</ele><time>2026-04-26T12:14:10.082Z</time></trkpt><trkpt lat="43.0718918" lon="11.2349661"><ele>475.75</ele><time>2026-04-26T12:14:11.092Z</time></trkpt><trkpt lat="43.0718021" lon="11.2350758"><ele>475.5</ele><time>2026-04-26T12:14:12.091Z</time></trkpt><trkpt lat="43.0717155" lon="11.235184"><ele>475.25</ele><time>2026-04-26T12:14:13.081Z</time></trkpt><trkpt lat="43.071627" lon="11.2352841"><ele>475.0</ele><time>2026-04-26T12:14:14.085Z</time></trkpt><trkpt lat="43.0715429" lon="11.2353825"><ele>475.0</ele><time>2026-04-26T12:14:15.085Z</time></trkpt><trkpt lat="43.0714764" lon="11.2354874"><ele>475.0</ele><time>2026-04-26T12:14:16.088Z</time></trkpt><trkpt lat="43.071421" lon="11.2355929"><ele>475.0</ele><time>2026-04-26T12:14:17.083Z</time></trkpt><trkpt lat="43.0713815" lon="11.2357051"><ele>475.0</ele><time>2026-04-26T12:14:18.082Z</time></trkpt><trkpt lat="43.0713665" lon="11.2358322"><ele>475.0</ele><time>2026-04-26T12:14:19.084Z</time></trkpt><trkpt lat="43.0713873" lon="11.2359606"><ele>477.00000000000006</ele><time>2026-04-26T12:14:20.084Z</time></trkpt><trkpt lat="43.0714132" lon="11.2360793"><ele>479.0</ele><time>2026-04-26T12:14:21.077Z</time></trkpt><trkpt lat="43.0714502" lon="11.2361787"><ele>481.0</ele><time>2026-04-26T12:14:22.083Z</time></trkpt><trkpt lat="43.0714991" lon="11.2362771"><ele>483.0</ele><time>2026-04-26T12:14:23.091Z</time></trkpt><trkpt lat="43.0715579" lon="11.2363723"><ele>485.00000000000006</ele><time>2026-04-26T12:14:24.085Z</time></trkpt><trkpt lat="43.0716255" lon="11.2364674"><ele>487.0</ele><time>2026-04-26T12:14:25.098Z</time></trkpt><trkpt lat="43.0716967" lon="11.2365657"><ele>491.5</ele><time>2026-04-26T12:14:26.078Z</time></trkpt><trkpt lat="43.0717811" lon="11.2366674"><ele>496.0</ele><time>2026-04-26T12:14:27.083Z</time></trkpt><trkpt lat="43.0718868" lon="11.236758"><ele>500.5</ele><time>2026-04-26T12:14:28.081Z</time></trkpt><trkpt lat="43.0720023" lon="11.2368525"><ele>505.0</ele><time>2026-04-26T12:14:29.082Z</time></trkpt><trkpt lat="43.0721203" lon="11.2369414"><ele>505.0</ele><time>2026-04-26T12:14:30.088Z</time></trkpt><trkpt lat="43.0722367" lon="11.2370229"><ele>505.0</ele><time>2026-04-26T12:14:31.087Z</time></trkpt><trkpt lat="43.072346" lon="11.237107"><ele>505.0</ele><time>2026-04-26T12:14:32.109Z</time></trkpt><trkpt lat="43.0724401" lon="11.2371909"><ele>505.0</ele><time>2026-04-26T12:14:33.085Z</time></trkpt><trkpt lat="43.0725188" lon="11.2372676"><ele>507.8</ele><time>2026-04-26T12:14:34.083Z</time></trkpt><trkpt lat="43.0725705" lon="11.2373594"><ele>510.6</ele><time>2026-04-26T12:14:35.089Z</time></trkpt><trkpt lat="43.0725866" lon="11.2374888"><ele>513.4</ele><time>2026-04-26T12:14:36.079Z</time></trkpt><trkpt lat="43.0725831" lon="11.237624"><ele>516.2</ele><time>2026-04-26T12:14:37.084Z</time></trkpt><trkpt lat="43.0725672" lon="11.237757"><ele>519.0</ele><time>2026-04-26T12:14:38.086Z</time></trkpt><trkpt lat="43.0725543" lon="11.2378959"><ele>519.0</ele><time>2026-04-26T12:14:39.087Z</time></trkpt><trkpt lat="43.0725448" lon="11.2380512"><ele>519.0</ele><time>2026-04-26T12:14:40.081Z</time></trkpt><trkpt lat="43.0725315" lon="11.2382215"><ele>519.0</ele><time>2026-04-26T12:14:41.092Z</time></trkpt><trkpt lat="43.0725193" lon="11.238395"><ele>519.0</ele><time>2026-04-26T12:14:42.091Z</time></trkpt><trkpt lat="43.07251" lon="11.2385664"><ele>520.75</ele><time>2026-04-26T12:14:43.084Z</time></trkpt><trkpt lat="43.0724997" lon="11.2387351"><ele>522.5</ele><time>2026-04-26T12:14:44.083Z</time></trkpt><trkpt lat="43.0724864" lon="11.238914"><ele>524.25</ele><time>2026-04-26T12:14:45.088Z</time></trkpt><trkpt lat="43.0724763" lon="11.2390915"><ele>526.0</ele><time>2026-04-26T12:14:46.083Z</time></trkpt><trkpt lat="43.0724646" lon="11.2392698"><ele>527.25</ele><time>2026-04-26T12:14:47.092Z</time></trkpt><trkpt lat="43.0724545" lon="11.2394462"><ele>528.5</ele><time>2026-04-26T12:14:48.091Z</time></trkpt><trkpt lat="43.0724503" lon="11.2396225"><ele>529.75</ele><time>2026-04-26T12:14:49.092Z</time></trkpt><trkpt lat="43.0724513" lon="11.239795"><ele>531.0</ele><time>2026-04-26T12:14:50.08Z</time></trkpt><trkpt lat="43.0724498" lon="11.2399712"><ele>530.75</ele><time>2026-04-26T12:14:51.091Z</time></trkpt><trkpt lat="43.072446" lon="11.2401552"><ele>530.5</ele><time>2026-04-26T12:14:52.09Z</time></trkpt><trkpt lat="43.0724403" lon="11.2403471"><ele>530.25</ele><time>2026-04-26T12:14:53.081Z</time></trkpt><trkpt lat="43.0724363" lon="11.2405533"><ele>530.0</ele><time>2026-04-26T12:14:54.09Z</time></trkpt><trkpt lat="43.0724301" lon="11.2407609"><ele>530.0</ele><time>2026-04-26T12:14:55.092Z</time></trkpt><trkpt lat="43.0724236" lon="11.2409708"><ele>530.0</ele><time>2026-04-26T12:14:56.086Z</time></trkpt><trkpt lat="43.072418" lon="11.2411843"><ele>530.0</ele><time>2026-04-26T12:14:57.081Z</time></trkpt><trkpt lat="43.0724118" lon="11.2413938"><ele>531.6666666666666</ele><time>2026-04-26T12:14:58.082Z</time></trkpt><trkpt lat="43.0724051" lon="11.2416102"><ele>533.3333333333334</ele><time>2026-04-26T12:14:59.089Z</time></trkpt><trkpt lat="43.0724017" lon="11.2418276"><ele>535.0</ele><time>2026-04-26T12:15:00.088Z</time></trkpt><trkpt lat="43.0723959" lon="11.2420423"><ele>535.0</ele><time>2026-04-26T12:15:01.088Z</time></trkpt><trkpt lat="43.0723913" lon="11.2422577"><ele>535.0</ele><time>2026-04-26T12:15:02.084Z</time></trkpt><trkpt lat="43.0723913" lon="11.2424767"><ele>535.0</ele><time>2026-04-26T12:15:03.08Z</time></trkpt><trkpt lat="43.0723903" lon="11.2426928"><ele>535.5</ele><time>2026-04-26T12:15:04.098Z</time></trkpt><trkpt lat="43.0723876" lon="11.2429011"><ele>536.0</ele><time>2026-04-26T12:15:05.089Z</time></trkpt><trkpt lat="43.0723837" lon="11.2430997"><ele>536.5</ele><time>2026-04-26T12:15:06.088Z</time></trkpt><trkpt lat="43.0723789" lon="11.2432943"><ele>537.0</ele><time>2026-04-26T12:15:07.09Z</time></trkpt><trkpt lat="43.0723751" lon="11.2434759"><ele>537.0</ele><time>2026-04-26T12:15:08.085Z</time></trkpt><trkpt lat="43.0723656" lon="11.2436442"><ele>537.0</ele><time>2026-04-26T12:15:09.085Z</time></trkpt><trkpt lat="43.0723477" lon="11.2438012"><ele>537.0</ele><time>2026-04-26T12:15:10.089Z</time></trkpt><trkpt lat="43.0723225" lon="11.2439631"><ele>537.0</ele><time>2026-04-26T12:15:11.089Z</time></trkpt><trkpt lat="43.0722939" lon="11.2441168"><ele>537.0</ele><time>2026-04-26T12:15:12.098Z</time></trkpt><trkpt lat="43.072258" lon="11.2442545"><ele>537.0</ele><time>2026-04-26T12:15:13.084Z</time></trkpt><trkpt lat="43.0722287" lon="11.2443848"><ele>537.0</ele><time>2026-04-26T12:15:14.087Z</time></trkpt><trkpt lat="43.0722056" lon="11.2445192"><ele>537.0</ele><time>2026-04-26T12:15:15.089Z</time></trkpt><trkpt lat="43.0721959" lon="11.2446529"><ele>537.0</ele><time>2026-04-26T12:15:16.086Z</time></trkpt><trkpt lat="43.0722118" lon="11.2447963"><ele>537.6</ele><time>2026-04-26T12:15:17.091Z</time></trkpt><trkpt lat="43.0722439" lon="11.2449463"><ele>538.2</ele><time>2026-04-26T12:15:18.087Z</time></trkpt><trkpt lat="43.0722663" lon="11.2450911"><ele>538.8</ele><time>2026-04-26T12:15:19.085Z</time></trkpt><trkpt lat="43.0722716" lon="11.2452178"><ele>539.4</ele><time>2026-04-26T12:15:20.084Z</time></trkpt><trkpt lat="43.0722548" lon="11.2453415"><ele>540.0</ele><time>2026-04-26T12:15:21.088Z</time></trkpt><trkpt lat="43.0722144" lon="11.2454637"><ele>540.0</ele><time>2026-04-26T12:15:22.086Z</time></trkpt><trkpt lat="43.0721489" lon="11.2455822"><ele>540.0</ele><time>2026-04-26T12:15:23.085Z</time></trkpt><trkpt lat="43.0720777" lon="11.2457062"><ele>540.0</ele><time>2026-04-26T12:15:24.097Z</time></trkpt><trkpt lat="43.0719985" lon="11.2458391"><ele>540.0</ele><time>2026-04-26T12:15:25.091Z</time></trkpt><trkpt lat="43.0719248" lon="11.2459779"><ele>542.75</ele><time>2026-04-26T12:15:26.088Z</time></trkpt><trkpt lat="43.0718528" lon="11.2461298"><ele>545.5</ele><time>2026-04-26T12:15:27.087Z</time></trkpt><trkpt lat="43.0717751" lon="11.2462788"><ele>548.25</ele><time>2026-04-26T12:15:28.089Z</time></trkpt><trkpt lat="43.0717044" lon="11.2464399"><ele>551.0</ele><time>2026-04-26T12:15:29.083Z</time></trkpt><trkpt lat="43.0716221" lon="11.246587"><ele>550.5</ele><time>2026-04-26T12:15:30.092Z</time></trkpt><trkpt lat="43.0715407" lon="11.2467319"><ele>550.0</ele><time>2026-04-26T12:15:31.089Z</time></trkpt><trkpt lat="43.0714561" lon="11.2468653"><ele>549.5</ele><time>2026-04-26T12:15:32.095Z</time></trkpt><trkpt lat="43.0713729" lon="11.246993"><ele>549.0</ele><time>2026-04-26T12:15:33.085Z</time></trkpt><trkpt lat="43.0712948" lon="11.247115"><ele>549.0</ele><time>2026-04-26T12:15:34.087Z</time></trkpt><trkpt lat="43.071215" lon="11.2472421"><ele>549.0</ele><time>2026-04-26T12:15:35.084Z</time></trkpt><trkpt lat="43.0711372" lon="11.247373"><ele>549.0</ele><time>2026-04-26T12:15:36.096Z</time></trkpt><trkpt lat="43.0710655" lon="11.2475213"><ele>549.0</ele><time>2026-04-26T12:15:37.091Z</time></trkpt><trkpt lat="43.0709959" lon="11.2476771"><ele>548.75</ele><time>2026-04-26T12:15:38.09Z</time></trkpt><trkpt lat="43.0709316" lon="11.2478373"><ele>548.5</ele><time>2026-04-26T12:15:39.089Z</time></trkpt><trkpt lat="43.0708704" lon="11.2480004"><ele>548.25</ele><time>2026-04-26T12:15:40.088Z</time></trkpt><trkpt lat="43.0707936" lon="11.2481444"><ele>548.0</ele><time>2026-04-26T12:15:41.095Z</time></trkpt><trkpt lat="43.0706986" lon="11.2482713"><ele>548.0</ele><time>2026-04-26T12:15:42.082Z</time></trkpt><trkpt lat="43.0705891" lon="11.2483971"><ele>548.0</ele><time>2026-04-26T12:15:43.081Z</time></trkpt><trkpt lat="43.0704762" lon="11.2485187"><ele>548.0</ele><time>2026-04-26T12:15:44.084Z</time></trkpt><trkpt lat="43.070371" lon="11.2486458"><ele>548.0</ele><time>2026-04-26T12:15:45.088Z</time></trkpt><trkpt lat="43.0702734" lon="11.2487815"><ele>548.0</ele><time>2026-04-26T12:15:46.088Z</time></trkpt><trkpt lat="43.07018" lon="11.2489226"><ele>548.0</ele><time>2026-04-26T12:15:47.084Z</time></trkpt><trkpt lat="43.0700934" lon="11.2490616"><ele>548.0</ele><time>2026-04-26T12:15:48.096Z</time></trkpt><trkpt lat="43.0700117" lon="11.2491927"><ele>548.0</ele><time>2026-04-26T12:15:49.091Z</time></trkpt><trkpt lat="43.0699224" lon="11.2493124"><ele>549.1999999999999</ele><time>2026-04-26T12:15:50.079Z</time></trkpt><trkpt lat="43.0698312" lon="11.2494212"><ele>550.4</ele><time>2026-04-26T12:15:51.087Z</time></trkpt><trkpt lat="43.0697464" lon="11.2495218"><ele>551.5999999999999</ele><time>2026-04-26T12:15:52.085Z</time></trkpt><trkpt lat="43.0696621" lon="11.2496125"><ele>552.8</ele><time>2026-04-26T12:15:53.093Z</time></trkpt><trkpt lat="43.069578" lon="11.249702"><ele>554.0</ele><time>2026-04-26T12:15:54.102Z</time></trkpt><trkpt lat="43.0695002" lon="11.2497943"><ele>554.0</ele><time>2026-04-26T12:15:55.083Z</time></trkpt><trkpt lat="43.0694222" lon="11.2498925"><ele>554.0</ele><time>2026-04-26T12:15:56.093Z</time></trkpt><trkpt lat="43.0693468" lon="11.2499913"><ele>554.0</ele><time>2026-04-26T12:15:57.093Z</time></trkpt><trkpt lat="43.0692741" lon="11.2500903"><ele>554.0</ele><time>2026-04-26T12:15:58.092Z</time></trkpt><trkpt lat="43.0692069" lon="11.2501919"><ele>554.0</ele><time>2026-04-26T12:15:59.084Z</time></trkpt><trkpt lat="43.0691411" lon="11.2502961"><ele>551.6</ele><time>2026-04-26T12:16:00.091Z</time></trkpt><trkpt lat="43.0690783" lon="11.2503932"><ele>549.2</ele><time>2026-04-26T12:16:01.093Z</time></trkpt><trkpt lat="43.0690178" lon="11.2504922"><ele>546.8000000000001</ele><time>2026-04-26T12:16:02.091Z</time></trkpt><trkpt lat="43.0689656" lon="11.2506016"><ele>544.4</ele><time>2026-04-26T12:16:03.102Z</time></trkpt><trkpt lat="43.0689125" lon="11.250722"><ele>542.0</ele><time>2026-04-26T12:16:04.087Z</time></trkpt><trkpt lat="43.0688602" lon="11.2508477"><ele>542.0</ele><time>2026-04-26T12:16:05.087Z</time></trkpt><trkpt lat="43.0688088" lon="11.2509789"><ele>542.0</ele><time>2026-04-26T12:16:06.085Z</time></trkpt><trkpt lat="43.0687552" lon="11.2511154"><ele>542.0</ele><time>2026-04-26T12:16:07.09Z</time></trkpt><trkpt lat="43.0687006" lon="11.2512508"><ele>542.0</ele><time>2026-04-26T12:16:08.089Z</time></trkpt><trkpt lat="43.0686505" lon="11.2513825"><ele>542.0</ele><time>2026-04-26T12:16:09.095Z</time></trkpt><trkpt lat="43.0686061" lon="11.2515143"><ele>543.2</ele><time>2026-04-26T12:16:10.1Z</time></trkpt><trkpt lat="43.0685675" lon="11.251643"><ele>544.4000000000001</ele><time>2026-04-26T12:16:11.089Z</time></trkpt><trkpt lat="43.068537" lon="11.2517742"><ele>545.5999999999999</ele><time>2026-04-26T12:16:12.09Z</time></trkpt><trkpt lat="43.0685126" lon="11.2519082"><ele>546.8</ele><time>2026-04-26T12:16:13.091Z</time></trkpt><trkpt lat="43.068497" lon="11.2520426"><ele>548.0</ele><time>2026-04-26T12:16:14.095Z</time></trkpt><trkpt lat="43.0684893" lon="11.252174"><ele>547.8</ele><time>2026-04-26T12:16:15.087Z</time></trkpt><trkpt lat="43.0684948" lon="11.2523088"><ele>547.5999999999999</ele><time>2026-04-26T12:16:16.094Z</time></trkpt><trkpt lat="43.0685078" lon="11.252448"><ele>547.4000000000001</ele><time>2026-04-26T12:16:17.097Z</time></trkpt><trkpt lat="43.0685239" lon="11.2525826"><ele>547.2</ele><time>2026-04-26T12:16:18.093Z</time></trkpt><trkpt lat="43.0685524" lon="11.2527135"><ele>547.0</ele><time>2026-04-26T12:16:19.102Z</time></trkpt><trkpt lat="43.0685924" lon="11.2528302"><ele>547.0</ele><time>2026-04-26T12:16:20.093Z</time></trkpt><trkpt lat="43.0686444" lon="11.2529359"><ele>547.0</ele><time>2026-04-26T12:16:21.087Z</time></trkpt><trkpt lat="43.0687102" lon="11.2530338"><ele>547.0</ele><time>2026-04-26T12:16:22.098Z</time></trkpt><trkpt lat="43.0687877" lon="11.2531269"><ele>547.0</ele><time>2026-04-26T12:16:23.091Z</time></trkpt><trkpt lat="43.0688694" lon="11.2532227"><ele>547.0</ele><time>2026-04-26T12:16:24.095Z</time></trkpt><trkpt lat="43.0689549" lon="11.2533214"><ele>548.8000000000001</ele><time>2026-04-26T12:16:25.095Z</time></trkpt><trkpt lat="43.0690368" lon="11.2534248"><ele>550.6</ele><time>2026-04-26T12:16:26.093Z</time></trkpt><trkpt lat="43.0690997" lon="11.2535389"><ele>552.4000000000001</ele><time>2026-04-26T12:16:27.089Z</time></trkpt><trkpt lat="43.0691411" lon="11.2536551"><ele>554.2</ele><time>2026-04-26T12:16:28.086Z</time></trkpt><trkpt lat="43.0691596" lon="11.2537822"><ele>556.0</ele><time>2026-04-26T12:16:29.084Z</time></trkpt><trkpt lat="43.0691571" lon="11.2539222"><ele>555.0</ele><time>2026-04-26T12:16:30.084Z</time></trkpt><trkpt lat="43.0691356" lon="11.2540752"><ele>554.0</ele><time>2026-04-26T12:16:31.093Z</time></trkpt><trkpt lat="43.0690977" lon="11.2542346"><ele>553.0</ele><time>2026-04-26T12:16:32.086Z</time></trkpt><trkpt lat="43.0690475" lon="11.2544016"><ele>552.0</ele><time>2026-04-26T12:16:33.089Z</time></trkpt><trkpt lat="43.0689947" lon="11.2545897"><ele>546.0</ele><time>2026-04-26T12:16:34.092Z</time></trkpt><trkpt lat="43.068943" lon="11.2547815"><ele>540.0</ele><time>2026-04-26T12:16:35.094Z</time></trkpt><trkpt lat="43.068895" lon="11.2549655"><ele>534.0</ele><time>2026-04-26T12:16:36.092Z</time></trkpt><trkpt lat="43.0688395" lon="11.2551442"><ele>528.0</ele><time>2026-04-26T12:16:37.081Z</time></trkpt><trkpt lat="43.0687773" lon="11.2553066"><ele>528.0</ele><time>2026-04-26T12:16:38.092Z</time></trkpt><trkpt lat="43.068706" lon="11.2554588"><ele>528.0</ele><time>2026-04-26T12:16:39.091Z</time></trkpt><trkpt lat="43.0686215" lon="11.2555998"><ele>528.0</ele><time>2026-04-26T12:16:40.086Z</time></trkpt><trkpt lat="43.0685293" lon="11.255734"><ele>528.0</ele><time>2026-04-26T12:16:41.098Z</time></trkpt><trkpt lat="43.0684387" lon="11.255867"><ele>527.5</ele><time>2026-04-26T12:16:42.093Z</time></trkpt><trkpt lat="43.0683607" lon="11.256002"><ele>527.0</ele><time>2026-04-26T12:16:43.087Z</time></trkpt><trkpt lat="43.0682977" lon="11.2561471"><ele>526.5</ele><time>2026-04-26T12:16:44.085Z</time></trkpt><trkpt lat="43.0682371" lon="11.2563026"><ele>526.0</ele><time>2026-04-26T12:16:45.083Z</time></trkpt><trkpt lat="43.0681675" lon="11.2564647"><ele>526.0</ele><time>2026-04-26T12:16:46.091Z</time></trkpt><trkpt lat="43.0680971" lon="11.2566167"><ele>526.0</ele><time>2026-04-26T12:16:47.089Z</time></trkpt><trkpt lat="43.0680209" lon="11.2567543"><ele>526.0</ele><time>2026-04-26T12:16:48.089Z</time></trkpt><trkpt lat="43.0679451" lon="11.2568822"><ele>526.0</ele><time>2026-04-26T12:16:49.092Z</time></trkpt><trkpt lat="43.0678797" lon="11.2570032"><ele>526.0</ele><time>2026-04-26T12:16:50.081Z</time></trkpt><trkpt lat="43.067837" lon="11.2571313"><ele>526.0</ele><time>2026-04-26T12:16:51.089Z</time></trkpt><trkpt lat="43.0678124" lon="11.2572561"><ele>526.0</ele><time>2026-04-26T12:16:52.087Z</time></trkpt><trkpt lat="43.0678069" lon="11.2573792"><ele>526.0</ele><time>2026-04-26T12:16:53.092Z</time></trkpt><trkpt lat="43.0678209" lon="11.2575013"><ele>526.0</ele><time>2026-04-26T12:16:54.084Z</time></trkpt><trkpt lat="43.067852" lon="11.2576179"><ele>526.6</ele><time>2026-04-26T12:16:55.093Z</time></trkpt><trkpt lat="43.0678911" lon="11.2577314"><ele>527.2</ele><time>2026-04-26T12:16:56.089Z</time></trkpt><trkpt lat="43.0679375" lon="11.257845"><ele>527.8</ele><time>2026-04-26T12:16:57.081Z</time></trkpt><trkpt lat="43.0679929" lon="11.2579568"><ele>528.4</ele><time>2026-04-26T12:16:58.089Z</time></trkpt><trkpt lat="43.0680527" lon="11.2580651"><ele>529.0</ele><time>2026-04-26T12:16:59.089Z</time></trkpt><trkpt lat="43.0681196" lon="11.2581718"><ele>529.0</ele><time>2026-04-26T12:17:00.085Z</time></trkpt><trkpt lat="43.0681921" lon="11.2582738"><ele>529.0</ele><time>2026-04-26T12:17:01.081Z</time></trkpt><trkpt lat="43.0682675" lon="11.2583665"><ele>529.0</ele><time>2026-04-26T12:17:02.085Z</time></trkpt><trkpt lat="43.0683491" lon="11.2584459"><ele>529.0</ele><time>2026-04-26T12:17:03.096Z</time></trkpt><trkpt lat="43.0684366" lon="11.2585148"><ele>529.0</ele><time>2026-04-26T12:17:04.092Z</time></trkpt><trkpt lat="43.0685351" lon="11.2585806"><ele>531.75</ele><time>2026-04-26T12:17:05.083Z</time></trkpt><trkpt lat="43.0686415" lon="11.2586539"><ele>534.5</ele><time>2026-04-26T12:17:06.098Z</time></trkpt><trkpt lat="43.0687585" lon="11.258726"><ele>537.25</ele><time>2026-04-26T12:17:07.084Z</time></trkpt><trkpt lat="43.0688791" lon="11.2588066"><ele>540.0</ele><time>2026-04-26T12:17:08.078Z</time></trkpt><trkpt lat="43.0689989" lon="11.2588911"><ele>537.25</ele><time>2026-04-26T12:17:09.087Z</time></trkpt><trkpt lat="43.0691117" lon="11.2589905"><ele>534.5</ele><time>2026-04-26T12:17:10.084Z</time></trkpt><trkpt lat="43.0692254" lon="11.2590944"><ele>531.75</ele><time>2026-04-26T12:17:11.082Z</time></trkpt><trkpt lat="43.0693428" lon="11.2592048"><ele>529.0</ele><time>2026-04-26T12:17:12.087Z</time></trkpt><trkpt lat="43.0694645" lon="11.2593092"><ele>529.0</ele><time>2026-04-26T12:17:13.087Z</time></trkpt><trkpt lat="43.0695884" lon="11.2594"><ele>529.0</ele><time>2026-04-26T12:17:14.089Z</time></trkpt><trkpt lat="43.0697114" lon="11.2594828"><ele>529.0</ele><time>2026-04-26T12:17:15.088Z</time></trkpt><trkpt lat="43.0698283" lon="11.2595645"><ele>529.0</ele><time>2026-04-26T12:17:16.083Z</time></trkpt><trkpt lat="43.0699434" lon="11.2596594"><ele>527.5</ele><time>2026-04-26T12:17:17.087Z</time></trkpt><trkpt lat="43.0700558" lon="11.2597639"><ele>526.0</ele><time>2026-04-26T12:17:18.096Z</time></trkpt><trkpt lat="43.0701616" lon="11.2598708"><ele>524.5</ele><time>2026-04-26T12:17:19.09Z</time></trkpt><trkpt lat="43.0702647" lon="11.2599669"><ele>523.0</ele><time>2026-04-26T12:17:20.091Z</time></trkpt><trkpt lat="43.0703752" lon="11.2600478"><ele>523.0</ele><time>2026-04-26T12:17:21.091Z</time></trkpt><trkpt lat="43.0705006" lon="11.2601111"><ele>523.0</ele><time>2026-04-26T12:17:22.088Z</time></trkpt><trkpt lat="43.0706317" lon="11.2601814"><ele>523.0</ele><time>2026-04-26T12:17:23.097Z</time></trkpt><trkpt lat="43.070762" lon="11.2602448"><ele>523.0</ele><time>2026-04-26T12:17:24.089Z</time></trkpt><trkpt lat="43.0708832" lon="11.2603055"><ele>522.4</ele><time>2026-04-26T12:17:25.092Z</time></trkpt><trkpt lat="43.0709895" lon="11.2603693"><ele>521.8</ele><time>2026-04-26T12:17:26.084Z</time></trkpt><trkpt lat="43.0710795" lon="11.2604481"><ele>521.2</ele><time>2026-04-26T12:17:27.088Z</time></trkpt><trkpt lat="43.0711616" lon="11.2605401"><ele>520.6</ele><time>2026-04-26T12:17:28.088Z</time></trkpt><trkpt lat="43.0712293" lon="11.2606436"><ele>520.0</ele><time>2026-04-26T12:17:29.082Z</time></trkpt><trkpt lat="43.0712738" lon="11.2607639"><ele>520.0</ele><time>2026-04-26T12:17:30.086Z</time></trkpt><trkpt lat="43.0713017" lon="11.2608971"><ele>520.0</ele><time>2026-04-26T12:17:31.09Z</time></trkpt><trkpt lat="43.0713147" lon="11.2610447"><ele>520.0</ele><time>2026-04-26T12:17:32.094Z</time></trkpt><trkpt lat="43.0713215" lon="11.2612032"><ele>520.0</ele><time>2026-04-26T12:17:33.095Z</time></trkpt><trkpt lat="43.0713179" lon="11.2613776"><ele>518.75</ele><time>2026-04-26T12:17:34.088Z</time></trkpt><trkpt lat="43.0713183" lon="11.2615597"><ele>517.5</ele><time>2026-04-26T12:17:35.089Z</time></trkpt><trkpt lat="43.0713179" lon="11.2617415"><ele>516.25</ele><time>2026-04-26T12:17:36.09Z</time></trkpt><trkpt lat="43.071323" lon="11.2619229"><ele>515.0</ele><time>2026-04-26T12:17:37.091Z</time></trkpt><trkpt lat="43.0713345" lon="11.2621049"><ele>513.25</ele><time>2026-04-26T12:17:38.09Z</time></trkpt><trkpt lat="43.0713484" lon="11.2622902"><ele>511.5</ele><time>2026-04-26T12:17:39.092Z</time></trkpt><trkpt lat="43.0713621" lon="11.2624724"><ele>509.75</ele><time>2026-04-26T12:17:40.094Z</time></trkpt><trkpt lat="43.0713719" lon="11.2626499"><ele>508.0</ele><time>2026-04-26T12:17:41.092Z</time></trkpt><trkpt lat="43.0713763" lon="11.2628241"><ele>508.0</ele><time>2026-04-26T12:17:42.094Z</time></trkpt><trkpt lat="43.0713802" lon="11.2629946"><ele>508.0</ele><time>2026-04-26T12:17:43.091Z</time></trkpt><trkpt lat="43.0713754" lon="11.2631538"><ele>508.0</ele><time>2026-04-26T12:17:44.092Z</time></trkpt><trkpt lat="43.0713652" lon="11.2633019"><ele>508.0</ele><time>2026-04-26T12:17:45.083Z</time></trkpt><trkpt lat="43.0713581" lon="11.2634466"><ele>506.59999999999997</ele><time>2026-04-26T12:17:46.087Z</time></trkpt><trkpt lat="43.0713538" lon="11.2635872"><ele>505.19999999999993</ele><time>2026-04-26T12:17:47.089Z</time></trkpt><trkpt lat="43.0713535" lon="11.2637199"><ele>503.8</ele><time>2026-04-26T12:17:48.094Z</time></trkpt><trkpt lat="43.0713567" lon="11.2638522"><ele>502.4</ele><time>2026-04-26T12:17:49.105Z</time></trkpt><trkpt lat="43.071363" lon="11.2639899"><ele>501.0</ele><time>2026-04-26T12:17:50.088Z</time></trkpt><trkpt lat="43.0713624" lon="11.2641256"><ele>499.8</ele><time>2026-04-26T12:17:51.092Z</time></trkpt><trkpt lat="43.0713553" lon="11.2642585"><ele>498.6</ele><time>2026-04-26T12:17:52.087Z</time></trkpt><trkpt lat="43.0713429" lon="11.2643854"><ele>497.4</ele><time>2026-04-26T12:17:53.087Z</time></trkpt><trkpt lat="43.071336" lon="11.2645144"><ele>496.2</ele><time>2026-04-26T12:17:54.094Z</time></trkpt><trkpt lat="43.071325" lon="11.2646418"><ele>495.0</ele><time>2026-04-26T12:17:55.094Z</time></trkpt><trkpt lat="43.0713115" lon="11.2647666"><ele>495.6</ele><time>2026-04-26T12:17:56.094Z</time></trkpt><trkpt lat="43.071293" lon="11.2648896"><ele>496.2</ele><time>2026-04-26T12:17:57.088Z</time></trkpt><trkpt lat="43.0712771" lon="11.2650184"><ele>496.79999999999995</ele><time>2026-04-26T12:17:58.086Z</time></trkpt><trkpt lat="43.0712582" lon="11.2651526"><ele>497.4</ele><time>2026-04-26T12:17:59.087Z</time></trkpt><trkpt lat="43.0712351" lon="11.2652919"><ele>498.0</ele><time>2026-04-26T12:18:00.092Z</time></trkpt><trkpt lat="43.0712061" lon="11.265439"><ele>498.0</ele><time>2026-04-26T12:18:01.085Z</time></trkpt><trkpt lat="43.0711735" lon="11.2655946"><ele>498.0</ele><time>2026-04-26T12:18:02.087Z</time></trkpt><trkpt lat="43.0711499" lon="11.2657535"><ele>498.0</ele><time>2026-04-26T12:18:03.086Z</time></trkpt><trkpt lat="43.0711326" lon="11.2659091"><ele>498.0</ele><time>2026-04-26T12:18:04.088Z</time></trkpt><trkpt lat="43.071122" lon="11.2660589"><ele>498.0</ele><time>2026-04-26T12:18:05.094Z</time></trkpt><trkpt lat="43.0711223" lon="11.2662061"><ele>497.99999999999994</ele><time>2026-04-26T12:18:06.085Z</time></trkpt><trkpt lat="43.0711383" lon="11.2663567"><ele>497.99999999999994</ele><time>2026-04-26T12:18:07.089Z</time></trkpt><trkpt lat="43.0711675" lon="11.2665091"><ele>498.0</ele><time>2026-04-26T12:18:08.083Z</time></trkpt><trkpt lat="43.0712009" lon="11.2666592"><ele>498.0</ele><time>2026-04-26T12:18:09.095Z</time></trkpt><trkpt lat="43.0712333" lon="11.2668159"><ele>498.0</ele><time>2026-04-26T12:18:10.089Z</time></trkpt><trkpt lat="43.0712745" lon="11.266976"><ele>498.0</ele><time>2026-04-26T12:18:11.085Z</time></trkpt><trkpt lat="43.0713128" lon="11.2671421"><ele>498.0</ele><time>2026-04-26T12:18:12.085Z</time></trkpt><trkpt lat="43.0713528" lon="11.2673059"><ele>498.0</ele><time>2026-04-26T12:18:13.092Z</time></trkpt><trkpt lat="43.0713804" lon="11.267469"><ele>497.0</ele><time>2026-04-26T12:18:14.08Z</time></trkpt><trkpt lat="43.071394" lon="11.2676254"><ele>496.0</ele><time>2026-04-26T12:18:15.095Z</time></trkpt><trkpt lat="43.0713947" lon="11.2677882"><ele>495.0</ele><time>2026-04-26T12:18:16.088Z</time></trkpt><trkpt lat="43.0713857" lon="11.2679565"><ele>494.0</ele><time>2026-04-26T12:18:17.083Z</time></trkpt><trkpt lat="43.0713605" lon="11.2681178"><ele>494.0</ele><time>2026-04-26T12:18:18.082Z</time></trkpt><trkpt lat="43.0713163" lon="11.2682812"><ele>494.0</ele><time>2026-04-26T12:18:19.084Z</time></trkpt><trkpt lat="43.0712647" lon="11.268449"><ele>494.0</ele><time>2026-04-26T12:18:20.086Z</time></trkpt><trkpt lat="43.0711983" lon="11.2686104"><ele>494.0</ele><time>2026-04-26T12:18:21.1Z</time></trkpt><trkpt lat="43.0711229" lon="11.2687749"><ele>494.0</ele><time>2026-04-26T12:18:22.087Z</time></trkpt><trkpt lat="43.0710406" lon="11.2689296"><ele>494.0</ele><time>2026-04-26T12:18:23.095Z</time></trkpt><trkpt lat="43.0709567" lon="11.2690806"><ele>494.0</ele><time>2026-04-26T12:18:24.092Z</time></trkpt><trkpt lat="43.0708597" lon="11.2692215"><ele>494.0</ele><time>2026-04-26T12:18:25.092Z</time></trkpt><trkpt lat="43.0707552" lon="11.269344"><ele>493.25</ele><time>2026-04-26T12:18:26.088Z</time></trkpt><trkpt lat="43.0706516" lon="11.2694705"><ele>492.5</ele><time>2026-04-26T12:18:27.084Z</time></trkpt><trkpt lat="43.0705622" lon="11.2696079"><ele>491.75</ele><time>2026-04-26T12:18:28.097Z</time></trkpt><trkpt lat="43.0704864" lon="11.2697587"><ele>491.0</ele><time>2026-04-26T12:18:29.082Z</time></trkpt><trkpt lat="43.0704156" lon="11.2699167"><ele>491.0</ele><time>2026-04-26T12:18:30.096Z</time></trkpt><trkpt lat="43.0703538" lon="11.2700897"><ele>491.0</ele><time>2026-04-26T12:18:31.088Z</time></trkpt><trkpt lat="43.0702916" lon="11.2702628"><ele>491.0</ele><time>2026-04-26T12:18:32.085Z</time></trkpt><trkpt lat="43.0702285" lon="11.2704327"><ele>491.0</ele><time>2026-04-26T12:18:33.083Z</time></trkpt><trkpt lat="43.0701619" lon="11.2706068"><ele>492.5</ele><time>2026-04-26T12:18:34.086Z</time></trkpt><trkpt lat="43.0700992" lon="11.2707794"><ele>494.0</ele><time>2026-04-26T12:18:35.079Z</time></trkpt><trkpt lat="43.0700405" lon="11.2709469"><ele>495.5</ele><time>2026-04-26T12:18:36.088Z</time></trkpt><trkpt lat="43.0699787" lon="11.2711102"><ele>497.0</ele><time>2026-04-26T12:18:37.095Z</time></trkpt><trkpt lat="43.0699099" lon="11.2712697"><ele>496.0</ele><time>2026-04-26T12:18:38.097Z</time></trkpt><trkpt lat="43.0698338" lon="11.2714267"><ele>495.0</ele><time>2026-04-26T12:18:39.075Z</time></trkpt><trkpt lat="43.0697468" lon="11.271572"><ele>494.0</ele><time>2026-04-26T12:18:40.096Z</time></trkpt><trkpt lat="43.0696531" lon="11.2717039"><ele>493.0</ele><time>2026-04-26T12:18:41.081Z</time></trkpt><trkpt lat="43.0695515" lon="11.271829"><ele>493.0</ele><time>2026-04-26T12:18:42.097Z</time></trkpt><trkpt lat="43.0694486" lon="11.2719458"><ele>493.0</ele><time>2026-04-26T12:18:43.086Z</time></trkpt><trkpt lat="43.0693392" lon="11.2720443"><ele>493.0</ele><time>2026-04-26T12:18:44.09Z</time></trkpt><trkpt lat="43.0692213" lon="11.2721215"><ele>493.0</ele><time>2026-04-26T12:18:45.079Z</time></trkpt><trkpt lat="43.0690917" lon="11.2721817"><ele>491.0</ele><time>2026-04-26T12:18:46.086Z</time></trkpt><trkpt lat="43.068967" lon="11.2722448"><ele>489.0</ele><time>2026-04-26T12:18:47.081Z</time></trkpt><trkpt lat="43.0688438" lon="11.2723012"><ele>487.0</ele><time>2026-04-26T12:18:48.081Z</time></trkpt><trkpt lat="43.0687254" lon="11.2723474"><ele>485.0</ele><time>2026-04-26T12:18:49.08Z</time></trkpt><trkpt lat="43.0686079" lon="11.2723933"><ele>490.0</ele><time>2026-04-26T12:18:50.086Z</time></trkpt><trkpt lat="43.0684851" lon="11.2724304"><ele>495.0</ele><time>2026-04-26T12:18:51.082Z</time></trkpt><trkpt lat="43.0683559" lon="11.2724544"><ele>500.0</ele><time>2026-04-26T12:18:52.088Z</time></trkpt><trkpt lat="43.0682296" lon="11.2724667"><ele>505.0</ele><time>2026-04-26T12:18:53.086Z</time></trkpt><trkpt lat="43.068106" lon="11.272485"><ele>505.0</ele><time>2026-04-26T12:18:54.09Z</time></trkpt><trkpt lat="43.0679805" lon="11.2724985"><ele>505.0</ele><time>2026-04-26T12:18:55.098Z</time></trkpt><trkpt lat="43.0678479" lon="11.272495"><ele>505.0</ele><time>2026-04-26T12:18:56.081Z</time></trkpt><trkpt lat="43.0677165" lon="11.2724844"><ele>505.0</ele><time>2026-04-26T12:18:57.083Z</time></trkpt><trkpt lat="43.0675876" lon="11.2724476"><ele>505.0</ele><time>2026-04-26T12:18:58.083Z</time></trkpt><trkpt lat="43.0674622" lon="11.2723925"><ele>505.0</ele><time>2026-04-26T12:18:59.082Z</time></trkpt><trkpt lat="43.0673441" lon="11.2723233"><ele>505.0</ele><time>2026-04-26T12:19:00.08Z</time></trkpt><trkpt lat="43.0672313" lon="11.2722657"><ele>505.0</ele><time>2026-04-26T12:19:01.081Z</time></trkpt><trkpt lat="43.0671255" lon="11.2722395"><ele>504.0</ele><time>2026-04-26T12:19:02.096Z</time></trkpt><trkpt lat="43.0670173" lon="11.2722524"><ele>503.0</ele><time>2026-04-26T12:19:03.079Z</time></trkpt><trkpt lat="43.0669023" lon="11.2722985"><ele>502.0</ele><time>2026-04-26T12:19:04.081Z</time></trkpt><trkpt lat="43.0667857" lon="11.2723494"><ele>501.0</ele><time>2026-04-26T12:19:05.081Z</time></trkpt><trkpt lat="43.0666672" lon="11.2723992"><ele>498.0</ele><time>2026-04-26T12:19:06.075Z</time></trkpt><trkpt lat="43.066542" lon="11.2724592"><ele>495.0</ele><time>2026-04-26T12:19:07.081Z</time></trkpt><trkpt lat="43.0664192" lon="11.2725244"><ele>492.0</ele><time>2026-04-26T12:19:08.083Z</time></trkpt><trkpt lat="43.0662947" lon="11.272599"><ele>489.0</ele><time>2026-04-26T12:19:09.087Z</time></trkpt><trkpt lat="43.0661716" lon="11.2726798"><ele>489.0</ele><time>2026-04-26T12:19:10.089Z</time></trkpt><trkpt lat="43.0660532" lon="11.2727715"><ele>489.0</ele><time>2026-04-26T12:19:11.092Z</time></trkpt><trkpt lat="43.0659311" lon="11.2728756"><ele>489.0</ele><time>2026-04-26T12:19:12.084Z</time></trkpt><trkpt lat="43.0658086" lon="11.2729719"><ele>489.0</ele><time>2026-04-26T12:19:13.09Z</time></trkpt><trkpt lat="43.0656838" lon="11.2730721"><ele>491.0</ele><time>2026-04-26T12:19:14.087Z</time></trkpt><trkpt lat="43.0655606" lon="11.2731652"><ele>493.0</ele><time>2026-04-26T12:19:15.096Z</time></trkpt><trkpt lat="43.0654385" lon="11.2732632"><ele>495.0</ele><time>2026-04-26T12:19:16.087Z</time></trkpt><trkpt lat="43.0653178" lon="11.2733589"><ele>497.0</ele><time>2026-04-26T12:19:17.086Z</time></trkpt><trkpt lat="43.0651984" lon="11.2734635"><ele>497.0</ele><time>2026-04-26T12:19:18.078Z</time></trkpt><trkpt lat="43.0650841" lon="11.2735754"><ele>497.0</ele><time>2026-04-26T12:19:19.087Z</time></trkpt><trkpt lat="43.064973" lon="11.2736895"><ele>497.0</ele><time>2026-04-26T12:19:20.085Z</time></trkpt><trkpt lat="43.0648625" lon="11.2737991"><ele>497.0</ele><time>2026-04-26T12:19:21.079Z</time></trkpt><trkpt lat="43.0647523" lon="11.2739058"><ele>497.0</ele><time>2026-04-26T12:19:22.083Z</time></trkpt><trkpt lat="43.0646385" lon="11.2740067"><ele>497.0</ele><time>2026-04-26T12:19:23.096Z</time></trkpt><trkpt lat="43.0645192" lon="11.2740931"><ele>497.0</ele><time>2026-04-26T12:19:24.084Z</time></trkpt><trkpt lat="43.0643966" lon="11.2741732"><ele>497.0</ele><time>2026-04-26T12:19:25.089Z</time></trkpt><trkpt lat="43.0642652" lon="11.2742391"><ele>497.0</ele><time>2026-04-26T12:19:26.085Z</time></trkpt><trkpt lat="43.0641351" lon="11.2743211"><ele>497.0</ele><time>2026-04-26T12:19:27.086Z</time></trkpt><trkpt lat="43.0640105" lon="11.2744213"><ele>497.0</ele><time>2026-04-26T12:19:28.088Z</time></trkpt><trkpt lat="43.0638861" lon="11.2745225"><ele>497.0</ele><time>2026-04-26T12:19:29.082Z</time></trkpt><trkpt lat="43.063761" lon="11.27463"><ele>496.0</ele><time>2026-04-26T12:19:30.087Z</time></trkpt><trkpt lat="43.0636349" lon="11.2747343"><ele>495.0</ele><time>2026-04-26T12:19:31.088Z</time></trkpt><trkpt lat="43.0635066" lon="11.2748181"><ele>494.0</ele><time>2026-04-26T12:19:32.081Z</time></trkpt><trkpt lat="43.0633806" lon="11.2748898"><ele>493.0</ele><time>2026-04-26T12:19:33.08Z</time></trkpt><trkpt lat="43.0632552" lon="11.2749554"><ele>493.0</ele><time>2026-04-26T12:19:34.078Z</time></trkpt><trkpt lat="43.0631246" lon="11.2750121"><ele>493.0</ele><time>2026-04-26T12:19:35.085Z</time></trkpt><trkpt lat="43.0629913" lon="11.2750651"><ele>493.0</ele><time>2026-04-26T12:19:36.079Z</time></trkpt><trkpt lat="43.062846" lon="11.2751069"><ele>493.0</ele><time>2026-04-26T12:19:37.091Z</time></trkpt><trkpt lat="43.0626942" lon="11.2751488"><ele>493.0</ele><time>2026-04-26T12:19:38.085Z</time></trkpt><trkpt lat="43.0625367" lon="11.2751928"><ele>493.0</ele><time>2026-04-26T12:19:39.088Z</time></trkpt><trkpt lat="43.0623737" lon="11.2752305"><ele>493.0</ele><time>2026-04-26T12:19:40.08Z</time></trkpt><trkpt lat="43.062204" lon="11.2752755"><ele>490.6666666666667</ele><time>2026-04-26T12:19:41.083Z</time></trkpt><trkpt lat="43.0620264" lon="11.2753159"><ele>488.33333333333337</ele><time>2026-04-26T12:19:42.082Z</time></trkpt><trkpt lat="43.0618502" lon="11.2753542"><ele>486.0</ele><time>2026-04-26T12:19:43.083Z</time></trkpt><trkpt lat="43.061675" lon="11.2753941"><ele>484.0</ele><time>2026-04-26T12:19:44.082Z</time></trkpt><trkpt lat="43.0614985" lon="11.2754382"><ele>482.0</ele><time>2026-04-26T12:19:45.096Z</time></trkpt><trkpt lat="43.061323" lon="11.2754807"><ele>480.0</ele><time>2026-04-26T12:19:46.079Z</time></trkpt><trkpt lat="43.0611443" lon="11.2755211"><ele>480.0</ele><time>2026-04-26T12:19:47.084Z</time></trkpt><trkpt lat="43.0609643" lon="11.2755546"><ele>480.0</ele><time>2026-04-26T12:19:48.088Z</time></trkpt><trkpt lat="43.0607874" lon="11.2755936"><ele>480.0</ele><time>2026-04-26T12:19:49.076Z</time></trkpt><trkpt lat="43.0606117" lon="11.2756315"><ele>482.0</ele><time>2026-04-26T12:19:50.093Z</time></trkpt><trkpt lat="43.0604367" lon="11.2756723"><ele>484.0</ele><time>2026-04-26T12:19:51.084Z</time></trkpt><trkpt lat="43.0602665" lon="11.2757133"><ele>486.0</ele><time>2026-04-26T12:19:52.084Z</time></trkpt><trkpt lat="43.0600971" lon="11.2757557"><ele>483.0</ele><time>2026-04-26T12:19:53.081Z</time></trkpt><trkpt lat="43.0599262" lon="11.2757987"><ele>480.0</ele><time>2026-04-26T12:19:54.083Z</time></trkpt><trkpt lat="43.0597537" lon="11.2758334"><ele>477.0</ele><time>2026-04-26T12:19:55.085Z</time></trkpt><trkpt lat="43.0595801" lon="11.2758706"><ele>477.0</ele><time>2026-04-26T12:19:56.089Z</time></trkpt><trkpt lat="43.0594083" lon="11.2759067"><ele>477.0</ele><time>2026-04-26T12:19:57.084Z</time></trkpt><trkpt lat="43.0592347" lon="11.2759445"><ele>477.0</ele><time>2026-04-26T12:19:58.097Z</time></trkpt><trkpt lat="43.0590666" lon="11.275978"><ele>475.0</ele><time>2026-04-26T12:19:59.087Z</time></trkpt><trkpt lat="43.0589007" lon="11.2760119"><ele>473.0</ele><time>2026-04-26T12:20:00.083Z</time></trkpt><trkpt lat="43.0587406" lon="11.2760476"><ele>471.0</ele><time>2026-04-26T12:20:01.081Z</time></trkpt><trkpt lat="43.0585818" lon="11.2760822"><ele>471.0</ele><time>2026-04-26T12:20:02.083Z</time></trkpt><trkpt lat="43.0584283" lon="11.2761063"><ele>471.0</ele><time>2026-04-26T12:20:03.081Z</time></trkpt><trkpt lat="43.0582872" lon="11.2761298"><ele>471.0</ele><time>2026-04-26T12:20:04.081Z</time></trkpt><trkpt lat="43.0581626" lon="11.2761485"><ele>471.0</ele><time>2026-04-26T12:20:05.08Z</time></trkpt><trkpt lat="43.0580551" lon="11.2761758"><ele>470.8333333333333</ele><time>2026-04-26T12:20:06.09Z</time></trkpt><trkpt lat="43.0579635" lon="11.2762169"><ele>470.66666666666663</ele><time>2026-04-26T12:20:07.083Z</time></trkpt><trkpt lat="43.0578833" lon="11.2762777"><ele>470.5</ele><time>2026-04-26T12:20:08.09Z</time></trkpt><trkpt lat="43.057829" lon="11.2763509"><ele>470.3333333333333</ele><time>2026-04-26T12:20:09.08Z</time></trkpt><trkpt lat="43.0577884" lon="11.2764181"><ele>470.16666666666663</ele><time>2026-04-26T12:20:10.083Z</time></trkpt><trkpt lat="43.0577043" lon="11.2764525"><ele>470.0</ele><time>2026-04-26T12:20:12.089Z</time></trkpt><trkpt lat="43.0576467" lon="11.2764091"><ele>470.0</ele><time>2026-04-26T12:20:14.088Z</time></trkpt><trkpt lat="43.0576176" lon="11.276331"><ele>469.99999999999994</ele><time>2026-04-26T12:20:16.083Z</time></trkpt><trkpt lat="43.0575659" lon="11.2762375"><ele>470.0</ele><time>2026-04-26T12:20:18.083Z</time></trkpt><trkpt lat="43.0575117" lon="11.276154"><ele>470.0</ele><time>2026-04-26T12:20:20.081Z</time></trkpt><trkpt lat="43.0574713" lon="11.2760776"><ele>469.99999999999994</ele><time>2026-04-26T12:20:22.086Z</time></trkpt><trkpt lat="43.0574338" lon="11.2759775"><ele>470.0</ele><time>2026-04-26T12:20:25.084Z</time></trkpt><trkpt lat="43.0574222" lon="11.275892"><ele>470.0</ele><time>2026-04-26T12:20:27.08Z</time></trkpt><trkpt lat="43.0573896" lon="11.2757822"><ele>468.0</ele><time>2026-04-26T12:20:30.089Z</time></trkpt></trkseg></trk></gpx>